<?xml version="1.0" encoding="UTF-8" standalone="no" ?>
<gpx xmlns="http://www.topografix.com/GPX/1/1" xmlns:xsi="http://www.w3.org/2001/XMLSchema-instance" xsi:schemaLocation="http://www.topografix.com/GPX/1/1 http://www.topografix.com/GPX/1/1/gpx.xsd" version="1.1" creator="VisuGPX - https://www.visugpx.com">
  <metadata>
    <name>J2 Voie Bleue : Tournus - St Jean de Losnes</name>
    <desc><![CDATA[Voie Bleue réalisée dans le sens Sud (Lyon) Nord (Apach)

Pour l'itinéraire complet, suivre le [url=https://www.visugpx.com/membres/33867/voie-bleue/]dossier suivant[/url].]]></desc>
  </metadata>
  <trk>
    <name><![CDATA[Vélo sur route, 2026-05-14]]></name>
    <trkseg>
      <trkpt lat="46.57374" lon="4.90935">
        <ele>176.7998</ele>
        <time>2026-05-14T09:23:11+02:00</time>
      </trkpt>
      <trkpt lat="46.57374" lon="4.90935">
        <ele>176.7998</ele>
        <time>2026-05-14T09:23:12+02:00</time>
      </trkpt>
      <trkpt lat="46.57374" lon="4.90935">
        <ele>176.7998</ele>
        <time>2026-05-14T09:23:13+02:00</time>
      </trkpt>
      <trkpt lat="46.57374" lon="4.90935">
        <ele>176.7998</ele>
        <time>2026-05-14T09:23:14+02:00</time>
      </trkpt>
      <trkpt lat="46.57374" lon="4.90935">
        <ele>176.7998</ele>
        <time>2026-05-14T09:23:15+02:00</time>
      </trkpt>
      <trkpt lat="46.57374" lon="4.90935">
        <ele>176.7998</ele>
        <time>2026-05-14T09:23:16+02:00</time>
      </trkpt>
      <trkpt lat="46.57374" lon="4.90935">
        <ele>176.7998</ele>
        <time>2026-05-14T09:23:17+02:00</time>
      </trkpt>
      <trkpt lat="46.57374" lon="4.90935">
        <ele>176.7998</ele>
        <time>2026-05-14T09:23:18+02:00</time>
      </trkpt>
      <trkpt lat="46.57374" lon="4.90935">
        <ele>176.7998</ele>
        <time>2026-05-14T09:23:19+02:00</time>
      </trkpt>
      <trkpt lat="46.57374" lon="4.90935">
        <ele>176.7998</ele>
        <time>2026-05-14T09:23:20+02:00</time>
      </trkpt>
      <trkpt lat="46.57374" lon="4.90935">
        <ele>176.7998</ele>
        <time>2026-05-14T09:23:21+02:00</time>
      </trkpt>
      <trkpt lat="46.57374" lon="4.90935">
        <ele>176.7998</ele>
        <time>2026-05-14T09:23:22+02:00</time>
      </trkpt>
      <trkpt lat="46.57374" lon="4.90935">
        <ele>176.7998</ele>
        <time>2026-05-14T09:23:23+02:00</time>
      </trkpt>
      <trkpt lat="46.57374" lon="4.90935">
        <ele>176.7998</ele>
        <time>2026-05-14T09:23:24+02:00</time>
      </trkpt>
      <trkpt lat="46.57374" lon="4.90935">
        <ele>176.7998</ele>
        <time>2026-05-14T09:23:25+02:00</time>
      </trkpt>
      <trkpt lat="46.57374" lon="4.90935">
        <ele>176.7998</ele>
        <time>2026-05-14T09:23:26+02:00</time>
      </trkpt>
      <trkpt lat="46.57374" lon="4.90935">
        <ele>176.7998</ele>
        <time>2026-05-14T09:23:27+02:00</time>
      </trkpt>
      <trkpt lat="46.57374" lon="4.90935">
        <ele>176.7998</ele>
        <time>2026-05-14T09:23:28+02:00</time>
      </trkpt>
      <trkpt lat="46.57374" lon="4.90935">
        <ele>176.7998</ele>
        <time>2026-05-14T09:23:29+02:00</time>
      </trkpt>
      <trkpt lat="46.57374" lon="4.90935">
        <ele>176.7998</ele>
        <time>2026-05-14T09:23:30+02:00</time>
      </trkpt>
      <trkpt lat="46.57374" lon="4.90935">
        <ele>176.7998</ele>
        <time>2026-05-14T09:23:31+02:00</time>
      </trkpt>
      <trkpt lat="46.57374" lon="4.90935">
        <ele>176.7998</ele>
        <time>2026-05-14T09:23:32+02:00</time>
      </trkpt>
      <trkpt lat="46.57374" lon="4.90935">
        <ele>176.7998</ele>
        <time>2026-05-14T09:23:33+02:00</time>
      </trkpt>
      <trkpt lat="46.57374" lon="4.90935">
        <ele>176.7998</ele>
        <time>2026-05-14T09:23:34+02:00</time>
      </trkpt>
      <trkpt lat="46.57374" lon="4.90935">
        <ele>176.7998</ele>
        <time>2026-05-14T09:23:35+02:00</time>
      </trkpt>
      <trkpt lat="46.57374" lon="4.90935">
        <ele>176.7998</ele>
        <time>2026-05-14T09:23:36+02:00</time>
      </trkpt>
      <trkpt lat="46.57374" lon="4.90935">
        <ele>176.7998</ele>
        <time>2026-05-14T09:23:37+02:00</time>
      </trkpt>
      <trkpt lat="46.57374" lon="4.90935">
        <ele>176.7998</ele>
        <time>2026-05-14T09:23:38+02:00</time>
      </trkpt>
      <trkpt lat="46.57374" lon="4.90935">
        <ele>176.7998</ele>
        <time>2026-05-14T09:23:39+02:00</time>
      </trkpt>
      <trkpt lat="46.57374" lon="4.90935">
        <ele>176.7998</ele>
        <time>2026-05-14T09:23:40+02:00</time>
      </trkpt>
      <trkpt lat="46.57374" lon="4.90935">
        <ele>176.7998</ele>
        <time>2026-05-14T09:23:41+02:00</time>
      </trkpt>
      <trkpt lat="46.57374" lon="4.90935">
        <ele>176.7998</ele>
        <time>2026-05-14T09:23:42+02:00</time>
      </trkpt>
      <trkpt lat="46.57374" lon="4.90935">
        <ele>176.7998</ele>
        <time>2026-05-14T09:23:43+02:00</time>
      </trkpt>
      <trkpt lat="46.57374" lon="4.90935">
        <ele>176.7998</ele>
        <time>2026-05-14T09:23:44+02:00</time>
      </trkpt>
      <trkpt lat="46.57374" lon="4.90935">
        <ele>176.7998</ele>
        <time>2026-05-14T09:23:45+02:00</time>
      </trkpt>
      <trkpt lat="46.57374" lon="4.90935">
        <ele>176.7998</ele>
        <time>2026-05-14T09:23:46+02:00</time>
      </trkpt>
      <trkpt lat="46.57374" lon="4.90935">
        <ele>176.7998</ele>
        <time>2026-05-14T09:23:47+02:00</time>
      </trkpt>
      <trkpt lat="46.57374" lon="4.90935">
        <ele>176.7998</ele>
        <time>2026-05-14T09:23:48+02:00</time>
      </trkpt>
      <trkpt lat="46.57374" lon="4.90935">
        <ele>176.7998</ele>
        <time>2026-05-14T09:23:49+02:00</time>
      </trkpt>
      <trkpt lat="46.57374" lon="4.90935">
        <ele>176.7998</ele>
        <time>2026-05-14T09:23:50+02:00</time>
      </trkpt>
      <trkpt lat="46.57374" lon="4.90935">
        <ele>176.7998</ele>
        <time>2026-05-14T09:23:51+02:00</time>
      </trkpt>
      <trkpt lat="46.57374" lon="4.90935">
        <ele>176.7998</ele>
        <time>2026-05-14T09:23:52+02:00</time>
      </trkpt>
      <trkpt lat="46.57374" lon="4.90935">
        <ele>176.7998</ele>
        <time>2026-05-14T09:23:53+02:00</time>
      </trkpt>
      <trkpt lat="46.57374" lon="4.90935">
        <ele>176.7998</ele>
        <time>2026-05-14T09:23:54+02:00</time>
      </trkpt>
      <trkpt lat="46.57374" lon="4.90935">
        <ele>176.7998</ele>
        <time>2026-05-14T09:23:55+02:00</time>
      </trkpt>
      <trkpt lat="46.57374" lon="4.90935">
        <ele>176.7998</ele>
        <time>2026-05-14T09:23:56+02:00</time>
      </trkpt>
      <trkpt lat="46.57374" lon="4.90935">
        <ele>176.7998</ele>
        <time>2026-05-14T09:23:57+02:00</time>
      </trkpt>
      <trkpt lat="46.57374" lon="4.90935">
        <ele>176.7998</ele>
        <time>2026-05-14T09:23:58+02:00</time>
      </trkpt>
      <trkpt lat="46.57374" lon="4.90935">
        <ele>176.7998</ele>
        <time>2026-05-14T09:23:59+02:00</time>
      </trkpt>
      <trkpt lat="46.57374" lon="4.90935">
        <ele>176.7998</ele>
        <time>2026-05-14T09:24:00+02:00</time>
      </trkpt>
      <trkpt lat="46.57374" lon="4.90935">
        <ele>176.7998</ele>
        <time>2026-05-14T09:24:01+02:00</time>
      </trkpt>
      <trkpt lat="46.57374" lon="4.90935">
        <ele>176.7998</ele>
        <time>2026-05-14T09:24:02+02:00</time>
      </trkpt>
      <trkpt lat="46.57374" lon="4.90935">
        <ele>176.7998</ele>
        <time>2026-05-14T09:24:03+02:00</time>
      </trkpt>
      <trkpt lat="46.57374" lon="4.90935">
        <ele>176.7998</ele>
        <time>2026-05-14T09:24:04+02:00</time>
      </trkpt>
      <trkpt lat="46.57374" lon="4.90935">
        <ele>176.7998</ele>
        <time>2026-05-14T09:24:05+02:00</time>
      </trkpt>
      <trkpt lat="46.57374" lon="4.90935">
        <ele>176.7998</ele>
        <time>2026-05-14T09:24:06+02:00</time>
      </trkpt>
      <trkpt lat="46.57374" lon="4.90935">
        <ele>176.7998</ele>
        <time>2026-05-14T09:24:07+02:00</time>
      </trkpt>
      <trkpt lat="46.57374" lon="4.90935">
        <ele>176.7998</ele>
        <time>2026-05-14T09:24:08+02:00</time>
      </trkpt>
      <trkpt lat="46.57374" lon="4.90935">
        <ele>176.7998</ele>
        <time>2026-05-14T09:24:09+02:00</time>
      </trkpt>
      <trkpt lat="46.57374" lon="4.90935">
        <ele>176.7998</ele>
        <time>2026-05-14T09:24:10+02:00</time>
      </trkpt>
      <trkpt lat="46.57374" lon="4.90935">
        <ele>176.7998</ele>
        <time>2026-05-14T09:24:11+02:00</time>
      </trkpt>
      <trkpt lat="46.57374" lon="4.90935">
        <ele>176.7998</ele>
        <time>2026-05-14T09:24:12+02:00</time>
      </trkpt>
      <trkpt lat="46.57374" lon="4.90935">
        <ele>176.7998</ele>
        <time>2026-05-14T09:24:13+02:00</time>
      </trkpt>
      <trkpt lat="46.57374" lon="4.90935">
        <ele>176.7998</ele>
        <time>2026-05-14T09:24:14+02:00</time>
      </trkpt>
      <trkpt lat="46.57374" lon="4.90935">
        <ele>176.7998</ele>
        <time>2026-05-14T09:24:15+02:00</time>
      </trkpt>
      <trkpt lat="46.57374" lon="4.90935">
        <ele>176.7998</ele>
        <time>2026-05-14T09:24:16+02:00</time>
      </trkpt>
      <trkpt lat="46.57377" lon="4.9093">
        <ele>177.2002</ele>
        <time>2026-05-14T09:24:17+02:00</time>
      </trkpt>
      <trkpt lat="46.57376" lon="4.90929">
        <ele>177.2002</ele>
        <time>2026-05-14T09:24:18+02:00</time>
      </trkpt>
      <trkpt lat="46.57375" lon="4.90927">
        <ele>177.2002</ele>
        <time>2026-05-14T09:24:19+02:00</time>
      </trkpt>
      <trkpt lat="46.57373" lon="4.90926">
        <ele>177.2002</ele>
        <time>2026-05-14T09:24:20+02:00</time>
      </trkpt>
      <trkpt lat="46.57371" lon="4.90925">
        <ele>177.60059</ele>
        <time>2026-05-14T09:24:21+02:00</time>
      </trkpt>
      <trkpt lat="46.57369" lon="4.90923">
        <ele>177.60059</ele>
        <time>2026-05-14T09:24:22+02:00</time>
      </trkpt>
      <trkpt lat="46.57366" lon="4.90921">
        <ele>177.5</ele>
        <time>2026-05-14T09:24:23+02:00</time>
      </trkpt>
      <trkpt lat="46.57364" lon="4.9092">
        <ele>177.5</ele>
        <time>2026-05-14T09:24:24+02:00</time>
      </trkpt>
      <trkpt lat="46.57361" lon="4.90918">
        <ele>177.40039</ele>
        <time>2026-05-14T09:24:25+02:00</time>
      </trkpt>
      <trkpt lat="46.57358" lon="4.90916">
        <ele>177.7002</ele>
        <time>2026-05-14T09:24:26+02:00</time>
      </trkpt>
      <trkpt lat="46.57356" lon="4.90914">
        <ele>177.7002</ele>
        <time>2026-05-14T09:24:27+02:00</time>
      </trkpt>
      <trkpt lat="46.57354" lon="4.90912">
        <ele>177.60059</ele>
        <time>2026-05-14T09:24:28+02:00</time>
      </trkpt>
      <trkpt lat="46.57352" lon="4.90911">
        <ele>177.60059</ele>
        <time>2026-05-14T09:24:29+02:00</time>
      </trkpt>
      <trkpt lat="46.5735" lon="4.9091">
        <ele>177.60059</ele>
        <time>2026-05-14T09:24:30+02:00</time>
      </trkpt>
      <trkpt lat="46.57348" lon="4.90909">
        <ele>177.40039</ele>
        <time>2026-05-14T09:24:31+02:00</time>
      </trkpt>
      <trkpt lat="46.57345" lon="4.90908">
        <ele>177.7002</ele>
        <time>2026-05-14T09:24:32+02:00</time>
      </trkpt>
      <trkpt lat="46.57342" lon="4.90906">
        <ele>177.40039</ele>
        <time>2026-05-14T09:24:33+02:00</time>
      </trkpt>
      <trkpt lat="46.5734" lon="4.90905">
        <ele>177.40039</ele>
        <time>2026-05-14T09:24:34+02:00</time>
      </trkpt>
      <trkpt lat="46.57337" lon="4.90904">
        <ele>177.2002</ele>
        <time>2026-05-14T09:24:35+02:00</time>
      </trkpt>
      <trkpt lat="46.57334" lon="4.90902">
        <ele>177.2002</ele>
        <time>2026-05-14T09:24:36+02:00</time>
      </trkpt>
      <trkpt lat="46.57331" lon="4.90901">
        <ele>177</ele>
        <time>2026-05-14T09:24:37+02:00</time>
      </trkpt>
      <trkpt lat="46.57328" lon="4.90899">
        <ele>177.2998</ele>
        <time>2026-05-14T09:24:38+02:00</time>
      </trkpt>
      <trkpt lat="46.57325" lon="4.90897">
        <ele>177.2002</ele>
        <time>2026-05-14T09:24:39+02:00</time>
      </trkpt>
      <trkpt lat="46.57321" lon="4.90896">
        <ele>177.2002</ele>
        <time>2026-05-14T09:24:40+02:00</time>
      </trkpt>
      <trkpt lat="46.57318" lon="4.90895">
        <ele>177</ele>
        <time>2026-05-14T09:24:41+02:00</time>
      </trkpt>
      <trkpt lat="46.57315" lon="4.90893">
        <ele>177</ele>
        <time>2026-05-14T09:24:42+02:00</time>
      </trkpt>
      <trkpt lat="46.57312" lon="4.90892">
        <ele>176.90039</ele>
        <time>2026-05-14T09:24:43+02:00</time>
      </trkpt>
      <trkpt lat="46.57309" lon="4.9089">
        <ele>177.40039</ele>
        <time>2026-05-14T09:24:44+02:00</time>
      </trkpt>
      <trkpt lat="46.57305" lon="4.90888">
        <ele>177.2998</ele>
        <time>2026-05-14T09:24:45+02:00</time>
      </trkpt>
      <trkpt lat="46.57302" lon="4.90887">
        <ele>177.2002</ele>
        <time>2026-05-14T09:24:46+02:00</time>
      </trkpt>
      <trkpt lat="46.57298" lon="4.90885">
        <ele>177.2002</ele>
        <time>2026-05-14T09:24:47+02:00</time>
      </trkpt>
      <trkpt lat="46.57295" lon="4.90884">
        <ele>177.10059</ele>
        <time>2026-05-14T09:24:48+02:00</time>
      </trkpt>
      <trkpt lat="46.57292" lon="4.90882">
        <ele>177.40039</ele>
        <time>2026-05-14T09:24:49+02:00</time>
      </trkpt>
      <trkpt lat="46.57288" lon="4.9088">
        <ele>177.2998</ele>
        <time>2026-05-14T09:24:50+02:00</time>
      </trkpt>
      <trkpt lat="46.57285" lon="4.90877">
        <ele>177.2998</ele>
        <time>2026-05-14T09:24:51+02:00</time>
      </trkpt>
      <trkpt lat="46.57283" lon="4.90876">
        <ele>177.2998</ele>
        <time>2026-05-14T09:24:52+02:00</time>
      </trkpt>
      <trkpt lat="46.57277" lon="4.90872">
        <ele>177.5</ele>
        <time>2026-05-14T09:24:53+02:00</time>
      </trkpt>
      <trkpt lat="46.57274" lon="4.9087">
        <ele>177.5</ele>
        <time>2026-05-14T09:24:54+02:00</time>
      </trkpt>
      <trkpt lat="46.5727" lon="4.90867">
        <ele>177.40039</ele>
        <time>2026-05-14T09:24:55+02:00</time>
      </trkpt>
      <trkpt lat="46.57266" lon="4.90864">
        <ele>177.7998</ele>
        <time>2026-05-14T09:24:56+02:00</time>
      </trkpt>
      <trkpt lat="46.57263" lon="4.90862">
        <ele>177.7998</ele>
        <time>2026-05-14T09:24:57+02:00</time>
      </trkpt>
      <trkpt lat="46.57259" lon="4.90859">
        <ele>177.7002</ele>
        <time>2026-05-14T09:24:58+02:00</time>
      </trkpt>
      <trkpt lat="46.57255" lon="4.90856">
        <ele>178.10059</ele>
        <time>2026-05-14T09:24:59+02:00</time>
      </trkpt>
      <trkpt lat="46.57251" lon="4.90854">
        <ele>178.10059</ele>
        <time>2026-05-14T09:25:00+02:00</time>
      </trkpt>
      <trkpt lat="46.57247" lon="4.90851">
        <ele>178.10059</ele>
        <time>2026-05-14T09:25:01+02:00</time>
      </trkpt>
      <trkpt lat="46.57243" lon="4.90848">
        <ele>178.5</ele>
        <time>2026-05-14T09:25:02+02:00</time>
      </trkpt>
      <trkpt lat="46.5724" lon="4.90845">
        <ele>178.5</ele>
        <time>2026-05-14T09:25:03+02:00</time>
      </trkpt>
      <trkpt lat="46.57236" lon="4.90842">
        <ele>178.60059</ele>
        <time>2026-05-14T09:25:04+02:00</time>
      </trkpt>
      <trkpt lat="46.57232" lon="4.90839">
        <ele>179</ele>
        <time>2026-05-14T09:25:05+02:00</time>
      </trkpt>
      <trkpt lat="46.57227" lon="4.90835">
        <ele>179</ele>
        <time>2026-05-14T09:25:06+02:00</time>
      </trkpt>
      <trkpt lat="46.57224" lon="4.90832">
        <ele>179.10059</ele>
        <time>2026-05-14T09:25:07+02:00</time>
      </trkpt>
      <trkpt lat="46.5722" lon="4.90828">
        <ele>179.40039</ele>
        <time>2026-05-14T09:25:08+02:00</time>
      </trkpt>
      <trkpt lat="46.57216" lon="4.90825">
        <ele>179.5</ele>
        <time>2026-05-14T09:25:09+02:00</time>
      </trkpt>
      <trkpt lat="46.57211" lon="4.90822">
        <ele>179.90039</ele>
        <time>2026-05-14T09:25:10+02:00</time>
      </trkpt>
      <trkpt lat="46.57207" lon="4.90821">
        <ele>180</ele>
        <time>2026-05-14T09:25:11+02:00</time>
      </trkpt>
      <trkpt lat="46.57202" lon="4.9082">
        <ele>180</ele>
        <time>2026-05-14T09:25:12+02:00</time>
      </trkpt>
      <trkpt lat="46.57198" lon="4.90821">
        <ele>180</ele>
        <time>2026-05-14T09:25:13+02:00</time>
      </trkpt>
      <trkpt lat="46.57194" lon="4.90823">
        <ele>179.7002</ele>
        <time>2026-05-14T09:25:14+02:00</time>
      </trkpt>
      <trkpt lat="46.5719" lon="4.90827">
        <ele>179.7998</ele>
        <time>2026-05-14T09:25:15+02:00</time>
      </trkpt>
      <trkpt lat="46.57186" lon="4.90832">
        <ele>179.2998</ele>
        <time>2026-05-14T09:25:16+02:00</time>
      </trkpt>
      <trkpt lat="46.57182" lon="4.90836">
        <ele>179.40039</ele>
        <time>2026-05-14T09:25:17+02:00</time>
      </trkpt>
      <trkpt lat="46.57178" lon="4.90841">
        <ele>179</ele>
        <time>2026-05-14T09:25:18+02:00</time>
      </trkpt>
      <trkpt lat="46.57174" lon="4.90844">
        <ele>179</ele>
        <time>2026-05-14T09:25:19+02:00</time>
      </trkpt>
      <trkpt lat="46.57169" lon="4.90847">
        <ele>179.10059</ele>
        <time>2026-05-14T09:25:20+02:00</time>
      </trkpt>
      <trkpt lat="46.57165" lon="4.90849">
        <ele>178.7002</ele>
        <time>2026-05-14T09:25:21+02:00</time>
      </trkpt>
      <trkpt lat="46.57161" lon="4.90852">
        <ele>178.7002</ele>
        <time>2026-05-14T09:25:22+02:00</time>
      </trkpt>
      <trkpt lat="46.57157" lon="4.90855">
        <ele>178.7998</ele>
        <time>2026-05-14T09:25:23+02:00</time>
      </trkpt>
      <trkpt lat="46.57152" lon="4.90858">
        <ele>178.5</ele>
        <time>2026-05-14T09:25:24+02:00</time>
      </trkpt>
      <trkpt lat="46.57147" lon="4.90861">
        <ele>178.60059</ele>
        <time>2026-05-14T09:25:25+02:00</time>
      </trkpt>
      <trkpt lat="46.57143" lon="4.90865">
        <ele>178.60059</ele>
        <time>2026-05-14T09:25:26+02:00</time>
      </trkpt>
      <trkpt lat="46.57139" lon="4.90868">
        <ele>178.2998</ele>
        <time>2026-05-14T09:25:27+02:00</time>
      </trkpt>
      <trkpt lat="46.57134" lon="4.90871">
        <ele>178.40039</ele>
        <time>2026-05-14T09:25:28+02:00</time>
      </trkpt>
      <trkpt lat="46.57129" lon="4.90873">
        <ele>178.60059</ele>
        <time>2026-05-14T09:25:29+02:00</time>
      </trkpt>
      <trkpt lat="46.57124" lon="4.90876">
        <ele>178.2998</ele>
        <time>2026-05-14T09:25:30+02:00</time>
      </trkpt>
      <trkpt lat="46.5712" lon="4.90878">
        <ele>178.2998</ele>
        <time>2026-05-14T09:25:31+02:00</time>
      </trkpt>
      <trkpt lat="46.57115" lon="4.9088">
        <ele>178.5</ele>
        <time>2026-05-14T09:25:32+02:00</time>
      </trkpt>
      <trkpt lat="46.57109" lon="4.90882">
        <ele>178.7002</ele>
        <time>2026-05-14T09:25:33+02:00</time>
      </trkpt>
      <trkpt lat="46.57104" lon="4.90884">
        <ele>178.5</ele>
        <time>2026-05-14T09:25:34+02:00</time>
      </trkpt>
      <trkpt lat="46.57099" lon="4.90885">
        <ele>178.7002</ele>
        <time>2026-05-14T09:25:35+02:00</time>
      </trkpt>
      <trkpt lat="46.57094" lon="4.90886">
        <ele>178.90039</ele>
        <time>2026-05-14T09:25:36+02:00</time>
      </trkpt>
      <trkpt lat="46.57089" lon="4.90888">
        <ele>179.10059</ele>
        <time>2026-05-14T09:25:37+02:00</time>
      </trkpt>
      <trkpt lat="46.57084" lon="4.90889">
        <ele>179.2998</ele>
        <time>2026-05-14T09:25:38+02:00</time>
      </trkpt>
      <trkpt lat="46.57079" lon="4.9089">
        <ele>179.2998</ele>
        <time>2026-05-14T09:25:39+02:00</time>
      </trkpt>
      <trkpt lat="46.57073" lon="4.9089">
        <ele>179.5</ele>
        <time>2026-05-14T09:25:40+02:00</time>
      </trkpt>
      <trkpt lat="46.57068" lon="4.90891">
        <ele>179.7998</ele>
        <time>2026-05-14T09:25:41+02:00</time>
      </trkpt>
      <trkpt lat="46.57063" lon="4.90892">
        <ele>179.5</ele>
        <time>2026-05-14T09:25:42+02:00</time>
      </trkpt>
      <trkpt lat="46.57058" lon="4.90893">
        <ele>179.7002</ele>
        <time>2026-05-14T09:25:43+02:00</time>
      </trkpt>
      <trkpt lat="46.57053" lon="4.90893">
        <ele>179.90039</ele>
        <time>2026-05-14T09:25:44+02:00</time>
      </trkpt>
      <trkpt lat="46.57047" lon="4.90893">
        <ele>180.10059</ele>
        <time>2026-05-14T09:25:45+02:00</time>
      </trkpt>
      <trkpt lat="46.57042" lon="4.90894">
        <ele>180.2998</ele>
        <time>2026-05-14T09:25:46+02:00</time>
      </trkpt>
      <trkpt lat="46.5704" lon="4.90895">
        <ele>180.2998</ele>
        <time>2026-05-14T09:25:47+02:00</time>
      </trkpt>
      <trkpt lat="46.57033" lon="4.90897">
        <ele>180.60059</ele>
        <time>2026-05-14T09:25:48+02:00</time>
      </trkpt>
      <trkpt lat="46.57028" lon="4.90899">
        <ele>180.7998</ele>
        <time>2026-05-14T09:25:49+02:00</time>
      </trkpt>
      <trkpt lat="46.57025" lon="4.90903">
        <ele>180.40039</ele>
        <time>2026-05-14T09:25:50+02:00</time>
      </trkpt>
      <trkpt lat="46.57022" lon="4.90909">
        <ele>180.2002</ele>
        <time>2026-05-14T09:25:51+02:00</time>
      </trkpt>
      <trkpt lat="46.57021" lon="4.90916">
        <ele>180.2002</ele>
        <time>2026-05-14T09:25:52+02:00</time>
      </trkpt>
      <trkpt lat="46.57021" lon="4.90923">
        <ele>179.7002</ele>
        <time>2026-05-14T09:25:53+02:00</time>
      </trkpt>
      <trkpt lat="46.57021" lon="4.90931">
        <ele>179.2002</ele>
        <time>2026-05-14T09:25:54+02:00</time>
      </trkpt>
      <trkpt lat="46.57021" lon="4.9094">
        <ele>178.7998</ele>
        <time>2026-05-14T09:25:55+02:00</time>
      </trkpt>
      <trkpt lat="46.57021" lon="4.90949">
        <ele>178.40039</ele>
        <time>2026-05-14T09:25:56+02:00</time>
      </trkpt>
      <trkpt lat="46.57021" lon="4.90958">
        <ele>178</ele>
        <time>2026-05-14T09:25:57+02:00</time>
      </trkpt>
      <trkpt lat="46.57021" lon="4.90967">
        <ele>177.7002</ele>
        <time>2026-05-14T09:25:58+02:00</time>
      </trkpt>
      <trkpt lat="46.57021" lon="4.90976">
        <ele>177.5</ele>
        <time>2026-05-14T09:25:59+02:00</time>
      </trkpt>
      <trkpt lat="46.57021" lon="4.90986">
        <ele>177.10059</ele>
        <time>2026-05-14T09:26:00+02:00</time>
      </trkpt>
      <trkpt lat="46.57022" lon="4.90995">
        <ele>176.90039</ele>
        <time>2026-05-14T09:26:01+02:00</time>
      </trkpt>
      <trkpt lat="46.57023" lon="4.91004">
        <ele>176.7002</ele>
        <time>2026-05-14T09:26:02+02:00</time>
      </trkpt>
      <trkpt lat="46.57023" lon="4.91012">
        <ele>176.5</ele>
        <time>2026-05-14T09:26:03+02:00</time>
      </trkpt>
      <trkpt lat="46.57024" lon="4.91021">
        <ele>176.2998</ele>
        <time>2026-05-14T09:26:04+02:00</time>
      </trkpt>
      <trkpt lat="46.57024" lon="4.91029">
        <ele>176.2002</ele>
        <time>2026-05-14T09:26:05+02:00</time>
      </trkpt>
      <trkpt lat="46.57024" lon="4.91038">
        <ele>176</ele>
        <time>2026-05-14T09:26:06+02:00</time>
      </trkpt>
      <trkpt lat="46.57024" lon="4.91046">
        <ele>175.90039</ele>
        <time>2026-05-14T09:26:07+02:00</time>
      </trkpt>
      <trkpt lat="46.57024" lon="4.91054">
        <ele>175.90039</ele>
        <time>2026-05-14T09:26:08+02:00</time>
      </trkpt>
      <trkpt lat="46.57025" lon="4.91063">
        <ele>175.7002</ele>
        <time>2026-05-14T09:26:09+02:00</time>
      </trkpt>
      <trkpt lat="46.57025" lon="4.91071">
        <ele>175.60059</ele>
        <time>2026-05-14T09:26:10+02:00</time>
      </trkpt>
      <trkpt lat="46.57025" lon="4.9108">
        <ele>175.60059</ele>
        <time>2026-05-14T09:26:11+02:00</time>
      </trkpt>
      <trkpt lat="46.57025" lon="4.91088">
        <ele>175.60059</ele>
        <time>2026-05-14T09:26:12+02:00</time>
      </trkpt>
      <trkpt lat="46.57026" lon="4.91096">
        <ele>175.7002</ele>
        <time>2026-05-14T09:26:13+02:00</time>
      </trkpt>
      <trkpt lat="46.57026" lon="4.91105">
        <ele>176.10059</ele>
        <time>2026-05-14T09:26:14+02:00</time>
      </trkpt>
      <trkpt lat="46.57026" lon="4.91113">
        <ele>176.40039</ele>
        <time>2026-05-14T09:26:15+02:00</time>
      </trkpt>
      <trkpt lat="46.57026" lon="4.91121">
        <ele>176.40039</ele>
        <time>2026-05-14T09:26:16+02:00</time>
      </trkpt>
      <trkpt lat="46.57027" lon="4.91129">
        <ele>175.7002</ele>
        <time>2026-05-14T09:26:17+02:00</time>
      </trkpt>
      <trkpt lat="46.57027" lon="4.91136">
        <ele>174.7002</ele>
        <time>2026-05-14T09:26:18+02:00</time>
      </trkpt>
      <trkpt lat="46.57027" lon="4.91144">
        <ele>173.5</ele>
        <time>2026-05-14T09:26:19+02:00</time>
      </trkpt>
      <trkpt lat="46.57028" lon="4.91151">
        <ele>172.7002</ele>
        <time>2026-05-14T09:26:20+02:00</time>
      </trkpt>
      <trkpt lat="46.57028" lon="4.91158">
        <ele>172</ele>
        <time>2026-05-14T09:26:21+02:00</time>
      </trkpt>
      <trkpt lat="46.57028" lon="4.91165">
        <ele>172</ele>
        <time>2026-05-14T09:26:22+02:00</time>
      </trkpt>
      <trkpt lat="46.57028" lon="4.91172">
        <ele>171.40039</ele>
        <time>2026-05-14T09:26:23+02:00</time>
      </trkpt>
      <trkpt lat="46.57028" lon="4.91179">
        <ele>171</ele>
        <time>2026-05-14T09:26:24+02:00</time>
      </trkpt>
      <trkpt lat="46.57029" lon="4.91185">
        <ele>170.5</ele>
        <time>2026-05-14T09:26:25+02:00</time>
      </trkpt>
      <trkpt lat="46.57031" lon="4.9119">
        <ele>170.7002</ele>
        <time>2026-05-14T09:26:26+02:00</time>
      </trkpt>
      <trkpt lat="46.57034" lon="4.91195">
        <ele>170.2998</ele>
        <time>2026-05-14T09:26:27+02:00</time>
      </trkpt>
      <trkpt lat="46.57037" lon="4.91198">
        <ele>170.2998</ele>
        <time>2026-05-14T09:26:28+02:00</time>
      </trkpt>
      <trkpt lat="46.57042" lon="4.912">
        <ele>170.2998</ele>
        <time>2026-05-14T09:26:29+02:00</time>
      </trkpt>
      <trkpt lat="46.57044" lon="4.91201">
        <ele>169.90039</ele>
        <time>2026-05-14T09:26:30+02:00</time>
      </trkpt>
      <trkpt lat="46.57052" lon="4.91204">
        <ele>169.90039</ele>
        <time>2026-05-14T09:26:31+02:00</time>
      </trkpt>
      <trkpt lat="46.57057" lon="4.91205">
        <ele>169.90039</ele>
        <time>2026-05-14T09:26:32+02:00</time>
      </trkpt>
      <trkpt lat="46.57062" lon="4.91206">
        <ele>169.90039</ele>
        <time>2026-05-14T09:26:33+02:00</time>
      </trkpt>
      <trkpt lat="46.57067" lon="4.91208">
        <ele>169.90039</ele>
        <time>2026-05-14T09:26:34+02:00</time>
      </trkpt>
      <trkpt lat="46.57072" lon="4.91209">
        <ele>169.90039</ele>
        <time>2026-05-14T09:26:35+02:00</time>
      </trkpt>
      <trkpt lat="46.57078" lon="4.91211">
        <ele>169.60059</ele>
        <time>2026-05-14T09:26:36+02:00</time>
      </trkpt>
      <trkpt lat="46.57083" lon="4.91213">
        <ele>169.60059</ele>
        <time>2026-05-14T09:26:37+02:00</time>
      </trkpt>
      <trkpt lat="46.57089" lon="4.91214">
        <ele>169.60059</ele>
        <time>2026-05-14T09:26:38+02:00</time>
      </trkpt>
      <trkpt lat="46.57094" lon="4.91216">
        <ele>169.60059</ele>
        <time>2026-05-14T09:26:39+02:00</time>
      </trkpt>
      <trkpt lat="46.571" lon="4.91217">
        <ele>169.60059</ele>
        <time>2026-05-14T09:26:40+02:00</time>
      </trkpt>
      <trkpt lat="46.57106" lon="4.91218">
        <ele>169.60059</ele>
        <time>2026-05-14T09:26:41+02:00</time>
      </trkpt>
      <trkpt lat="46.57111" lon="4.9122">
        <ele>169.7002</ele>
        <time>2026-05-14T09:26:42+02:00</time>
      </trkpt>
      <trkpt lat="46.57117" lon="4.9122">
        <ele>169.7998</ele>
        <time>2026-05-14T09:26:43+02:00</time>
      </trkpt>
      <trkpt lat="46.57123" lon="4.91221">
        <ele>170</ele>
        <time>2026-05-14T09:26:44+02:00</time>
      </trkpt>
      <trkpt lat="46.57128" lon="4.91222">
        <ele>170.2002</ele>
        <time>2026-05-14T09:26:45+02:00</time>
      </trkpt>
      <trkpt lat="46.57134" lon="4.91224">
        <ele>170.40039</ele>
        <time>2026-05-14T09:26:46+02:00</time>
      </trkpt>
      <trkpt lat="46.5714" lon="4.91225">
        <ele>170.60059</ele>
        <time>2026-05-14T09:26:47+02:00</time>
      </trkpt>
      <trkpt lat="46.57145" lon="4.91227">
        <ele>169.90039</ele>
        <time>2026-05-14T09:26:48+02:00</time>
      </trkpt>
      <trkpt lat="46.57152" lon="4.91228">
        <ele>169.90039</ele>
        <time>2026-05-14T09:26:49+02:00</time>
      </trkpt>
      <trkpt lat="46.57157" lon="4.91229">
        <ele>169.90039</ele>
        <time>2026-05-14T09:26:50+02:00</time>
      </trkpt>
      <trkpt lat="46.57163" lon="4.9123">
        <ele>169.90039</ele>
        <time>2026-05-14T09:26:51+02:00</time>
      </trkpt>
      <trkpt lat="46.57169" lon="4.91231">
        <ele>169.90039</ele>
        <time>2026-05-14T09:26:52+02:00</time>
      </trkpt>
      <trkpt lat="46.57175" lon="4.91232">
        <ele>169.7998</ele>
        <time>2026-05-14T09:26:53+02:00</time>
      </trkpt>
      <trkpt lat="46.57181" lon="4.91233">
        <ele>169.7998</ele>
        <time>2026-05-14T09:26:54+02:00</time>
      </trkpt>
      <trkpt lat="46.57187" lon="4.91233">
        <ele>169.7998</ele>
        <time>2026-05-14T09:26:55+02:00</time>
      </trkpt>
      <trkpt lat="46.57192" lon="4.91233">
        <ele>169.7998</ele>
        <time>2026-05-14T09:26:56+02:00</time>
      </trkpt>
      <trkpt lat="46.57198" lon="4.91234">
        <ele>169.7002</ele>
        <time>2026-05-14T09:26:57+02:00</time>
      </trkpt>
      <trkpt lat="46.57204" lon="4.91234">
        <ele>169.7002</ele>
        <time>2026-05-14T09:26:58+02:00</time>
      </trkpt>
      <trkpt lat="46.5721" lon="4.91235">
        <ele>169.40039</ele>
        <time>2026-05-14T09:26:59+02:00</time>
      </trkpt>
      <trkpt lat="46.57216" lon="4.91235">
        <ele>169.40039</ele>
        <time>2026-05-14T09:27:00+02:00</time>
      </trkpt>
      <trkpt lat="46.57221" lon="4.91235">
        <ele>169.40039</ele>
        <time>2026-05-14T09:27:01+02:00</time>
      </trkpt>
      <trkpt lat="46.57227" lon="4.91236">
        <ele>169.40039</ele>
        <time>2026-05-14T09:27:02+02:00</time>
      </trkpt>
      <trkpt lat="46.57233" lon="4.91236">
        <ele>169.40039</ele>
        <time>2026-05-14T09:27:03+02:00</time>
      </trkpt>
      <trkpt lat="46.57239" lon="4.91237">
        <ele>169.40039</ele>
        <time>2026-05-14T09:27:04+02:00</time>
      </trkpt>
      <trkpt lat="46.57245" lon="4.91238">
        <ele>169.40039</ele>
        <time>2026-05-14T09:27:05+02:00</time>
      </trkpt>
      <trkpt lat="46.57251" lon="4.91238">
        <ele>169.40039</ele>
        <time>2026-05-14T09:27:06+02:00</time>
      </trkpt>
      <trkpt lat="46.57257" lon="4.91239">
        <ele>169.40039</ele>
        <time>2026-05-14T09:27:07+02:00</time>
      </trkpt>
      <trkpt lat="46.57263" lon="4.9124">
        <ele>169.40039</ele>
        <time>2026-05-14T09:27:08+02:00</time>
      </trkpt>
      <trkpt lat="46.57269" lon="4.9124">
        <ele>169.40039</ele>
        <time>2026-05-14T09:27:09+02:00</time>
      </trkpt>
      <trkpt lat="46.57275" lon="4.91241">
        <ele>169.40039</ele>
        <time>2026-05-14T09:27:10+02:00</time>
      </trkpt>
      <trkpt lat="46.57281" lon="4.91242">
        <ele>169.40039</ele>
        <time>2026-05-14T09:27:11+02:00</time>
      </trkpt>
      <trkpt lat="46.57287" lon="4.91242">
        <ele>169.40039</ele>
        <time>2026-05-14T09:27:12+02:00</time>
      </trkpt>
      <trkpt lat="46.57293" lon="4.91241">
        <ele>169.40039</ele>
        <time>2026-05-14T09:27:13+02:00</time>
      </trkpt>
      <trkpt lat="46.57299" lon="4.9124">
        <ele>169.40039</ele>
        <time>2026-05-14T09:27:14+02:00</time>
      </trkpt>
      <trkpt lat="46.57305" lon="4.9124">
        <ele>169.40039</ele>
        <time>2026-05-14T09:27:15+02:00</time>
      </trkpt>
      <trkpt lat="46.57308" lon="4.9124">
        <ele>169.40039</ele>
        <time>2026-05-14T09:27:16+02:00</time>
      </trkpt>
      <trkpt lat="46.57316" lon="4.91238">
        <ele>169.5</ele>
        <time>2026-05-14T09:27:17+02:00</time>
      </trkpt>
      <trkpt lat="46.57322" lon="4.91237">
        <ele>169.5</ele>
        <time>2026-05-14T09:27:18+02:00</time>
      </trkpt>
      <trkpt lat="46.57327" lon="4.91236">
        <ele>169.5</ele>
        <time>2026-05-14T09:27:19+02:00</time>
      </trkpt>
      <trkpt lat="46.57333" lon="4.91236">
        <ele>169.5</ele>
        <time>2026-05-14T09:27:20+02:00</time>
      </trkpt>
      <trkpt lat="46.57338" lon="4.91235">
        <ele>169.5</ele>
        <time>2026-05-14T09:27:21+02:00</time>
      </trkpt>
      <trkpt lat="46.57344" lon="4.91234">
        <ele>169.5</ele>
        <time>2026-05-14T09:27:22+02:00</time>
      </trkpt>
      <trkpt lat="46.5735" lon="4.91233">
        <ele>169.5</ele>
        <time>2026-05-14T09:27:23+02:00</time>
      </trkpt>
      <trkpt lat="46.57355" lon="4.91232">
        <ele>169.5</ele>
        <time>2026-05-14T09:27:24+02:00</time>
      </trkpt>
      <trkpt lat="46.57361" lon="4.91232">
        <ele>169.5</ele>
        <time>2026-05-14T09:27:25+02:00</time>
      </trkpt>
      <trkpt lat="46.57367" lon="4.91231">
        <ele>169.5</ele>
        <time>2026-05-14T09:27:26+02:00</time>
      </trkpt>
      <trkpt lat="46.57373" lon="4.9123">
        <ele>169.60059</ele>
        <time>2026-05-14T09:27:27+02:00</time>
      </trkpt>
      <trkpt lat="46.57379" lon="4.91229">
        <ele>169.60059</ele>
        <time>2026-05-14T09:27:28+02:00</time>
      </trkpt>
      <trkpt lat="46.57385" lon="4.91228">
        <ele>169.60059</ele>
        <time>2026-05-14T09:27:29+02:00</time>
      </trkpt>
      <trkpt lat="46.5739" lon="4.91227">
        <ele>169.60059</ele>
        <time>2026-05-14T09:27:30+02:00</time>
      </trkpt>
      <trkpt lat="46.57396" lon="4.91226">
        <ele>169.60059</ele>
        <time>2026-05-14T09:27:31+02:00</time>
      </trkpt>
      <trkpt lat="46.57402" lon="4.91225">
        <ele>169.60059</ele>
        <time>2026-05-14T09:27:32+02:00</time>
      </trkpt>
      <trkpt lat="46.57408" lon="4.91224">
        <ele>169.60059</ele>
        <time>2026-05-14T09:27:33+02:00</time>
      </trkpt>
      <trkpt lat="46.57413" lon="4.91224">
        <ele>169.60059</ele>
        <time>2026-05-14T09:27:34+02:00</time>
      </trkpt>
      <trkpt lat="46.57419" lon="4.91223">
        <ele>169.60059</ele>
        <time>2026-05-14T09:27:35+02:00</time>
      </trkpt>
      <trkpt lat="46.57422" lon="4.91222">
        <ele>169.60059</ele>
        <time>2026-05-14T09:27:36+02:00</time>
      </trkpt>
      <trkpt lat="46.5743" lon="4.91221">
        <ele>169.60059</ele>
        <time>2026-05-14T09:27:37+02:00</time>
      </trkpt>
      <trkpt lat="46.57437" lon="4.9122">
        <ele>169.60059</ele>
        <time>2026-05-14T09:27:38+02:00</time>
      </trkpt>
      <trkpt lat="46.57442" lon="4.91219">
        <ele>169.60059</ele>
        <time>2026-05-14T09:27:39+02:00</time>
      </trkpt>
      <trkpt lat="46.57448" lon="4.91218">
        <ele>169.60059</ele>
        <time>2026-05-14T09:27:40+02:00</time>
      </trkpt>
      <trkpt lat="46.57454" lon="4.91217">
        <ele>169.60059</ele>
        <time>2026-05-14T09:27:41+02:00</time>
      </trkpt>
      <trkpt lat="46.5746" lon="4.91215">
        <ele>169.60059</ele>
        <time>2026-05-14T09:27:42+02:00</time>
      </trkpt>
      <trkpt lat="46.57465" lon="4.91214">
        <ele>169.60059</ele>
        <time>2026-05-14T09:27:43+02:00</time>
      </trkpt>
      <trkpt lat="46.57471" lon="4.91213">
        <ele>169.60059</ele>
        <time>2026-05-14T09:27:44+02:00</time>
      </trkpt>
      <trkpt lat="46.57477" lon="4.91211">
        <ele>169.60059</ele>
        <time>2026-05-14T09:27:45+02:00</time>
      </trkpt>
      <trkpt lat="46.57483" lon="4.9121">
        <ele>169.60059</ele>
        <time>2026-05-14T09:27:46+02:00</time>
      </trkpt>
      <trkpt lat="46.57488" lon="4.91209">
        <ele>169.7002</ele>
        <time>2026-05-14T09:27:47+02:00</time>
      </trkpt>
      <trkpt lat="46.57494" lon="4.91208">
        <ele>169.7002</ele>
        <time>2026-05-14T09:27:48+02:00</time>
      </trkpt>
      <trkpt lat="46.57499" lon="4.91207">
        <ele>169.7002</ele>
        <time>2026-05-14T09:27:49+02:00</time>
      </trkpt>
      <trkpt lat="46.57505" lon="4.91206">
        <ele>169.7002</ele>
        <time>2026-05-14T09:27:50+02:00</time>
      </trkpt>
      <trkpt lat="46.57511" lon="4.91206">
        <ele>169.7002</ele>
        <time>2026-05-14T09:27:51+02:00</time>
      </trkpt>
      <trkpt lat="46.57517" lon="4.91205">
        <ele>169.7002</ele>
        <time>2026-05-14T09:27:52+02:00</time>
      </trkpt>
      <trkpt lat="46.57522" lon="4.91205">
        <ele>169.7002</ele>
        <time>2026-05-14T09:27:53+02:00</time>
      </trkpt>
      <trkpt lat="46.57528" lon="4.91204">
        <ele>169.60059</ele>
        <time>2026-05-14T09:27:54+02:00</time>
      </trkpt>
      <trkpt lat="46.57534" lon="4.91203">
        <ele>169.60059</ele>
        <time>2026-05-14T09:27:55+02:00</time>
      </trkpt>
      <trkpt lat="46.57539" lon="4.91202">
        <ele>169.60059</ele>
        <time>2026-05-14T09:27:56+02:00</time>
      </trkpt>
      <trkpt lat="46.57545" lon="4.912">
        <ele>169.7998</ele>
        <time>2026-05-14T09:27:57+02:00</time>
      </trkpt>
      <trkpt lat="46.57551" lon="4.91199">
        <ele>169.7002</ele>
        <time>2026-05-14T09:27:58+02:00</time>
      </trkpt>
      <trkpt lat="46.57556" lon="4.91197">
        <ele>169.7002</ele>
        <time>2026-05-14T09:27:59+02:00</time>
      </trkpt>
      <trkpt lat="46.57562" lon="4.91195">
        <ele>169.7002</ele>
        <time>2026-05-14T09:28:00+02:00</time>
      </trkpt>
      <trkpt lat="46.57568" lon="4.91193">
        <ele>169.7002</ele>
        <time>2026-05-14T09:28:01+02:00</time>
      </trkpt>
      <trkpt lat="46.57573" lon="4.91192">
        <ele>169.7002</ele>
        <time>2026-05-14T09:28:02+02:00</time>
      </trkpt>
      <trkpt lat="46.57579" lon="4.91191">
        <ele>170.10059</ele>
        <time>2026-05-14T09:28:03+02:00</time>
      </trkpt>
      <trkpt lat="46.57585" lon="4.91189">
        <ele>170.10059</ele>
        <time>2026-05-14T09:28:04+02:00</time>
      </trkpt>
      <trkpt lat="46.5759" lon="4.91188">
        <ele>170</ele>
        <time>2026-05-14T09:28:05+02:00</time>
      </trkpt>
      <trkpt lat="46.57596" lon="4.91186">
        <ele>170</ele>
        <time>2026-05-14T09:28:06+02:00</time>
      </trkpt>
      <trkpt lat="46.57602" lon="4.91185">
        <ele>170</ele>
        <time>2026-05-14T09:28:07+02:00</time>
      </trkpt>
      <trkpt lat="46.57607" lon="4.91184">
        <ele>169.90039</ele>
        <time>2026-05-14T09:28:08+02:00</time>
      </trkpt>
      <trkpt lat="46.57614" lon="4.91183">
        <ele>170.60059</ele>
        <time>2026-05-14T09:28:09+02:00</time>
      </trkpt>
      <trkpt lat="46.5762" lon="4.91182">
        <ele>170.60059</ele>
        <time>2026-05-14T09:28:10+02:00</time>
      </trkpt>
      <trkpt lat="46.57626" lon="4.91182">
        <ele>170.5</ele>
        <time>2026-05-14T09:28:11+02:00</time>
      </trkpt>
      <trkpt lat="46.57631" lon="4.91181">
        <ele>170.5</ele>
        <time>2026-05-14T09:28:12+02:00</time>
      </trkpt>
      <trkpt lat="46.57638" lon="4.91181">
        <ele>170.5</ele>
        <time>2026-05-14T09:28:13+02:00</time>
      </trkpt>
      <trkpt lat="46.57643" lon="4.91181">
        <ele>170.40039</ele>
        <time>2026-05-14T09:28:14+02:00</time>
      </trkpt>
      <trkpt lat="46.57649" lon="4.91181">
        <ele>170.40039</ele>
        <time>2026-05-14T09:28:15+02:00</time>
      </trkpt>
      <trkpt lat="46.57652" lon="4.91182">
        <ele>170.2998</ele>
        <time>2026-05-14T09:28:16+02:00</time>
      </trkpt>
      <trkpt lat="46.57661" lon="4.91182">
        <ele>170.2998</ele>
        <time>2026-05-14T09:28:17+02:00</time>
      </trkpt>
      <trkpt lat="46.57667" lon="4.91183">
        <ele>170.2002</ele>
        <time>2026-05-14T09:28:18+02:00</time>
      </trkpt>
      <trkpt lat="46.57673" lon="4.91183">
        <ele>170</ele>
        <time>2026-05-14T09:28:19+02:00</time>
      </trkpt>
      <trkpt lat="46.57678" lon="4.91183">
        <ele>169.90039</ele>
        <time>2026-05-14T09:28:20+02:00</time>
      </trkpt>
      <trkpt lat="46.57684" lon="4.91183">
        <ele>169.7998</ele>
        <time>2026-05-14T09:28:21+02:00</time>
      </trkpt>
      <trkpt lat="46.5769" lon="4.91183">
        <ele>169.7998</ele>
        <time>2026-05-14T09:28:22+02:00</time>
      </trkpt>
      <trkpt lat="46.57696" lon="4.91184">
        <ele>169.7002</ele>
        <time>2026-05-14T09:28:23+02:00</time>
      </trkpt>
      <trkpt lat="46.57702" lon="4.91184">
        <ele>169.7002</ele>
        <time>2026-05-14T09:28:24+02:00</time>
      </trkpt>
      <trkpt lat="46.57705" lon="4.91185">
        <ele>169.7002</ele>
        <time>2026-05-14T09:28:25+02:00</time>
      </trkpt>
      <trkpt lat="46.57714" lon="4.91185">
        <ele>169.7002</ele>
        <time>2026-05-14T09:28:26+02:00</time>
      </trkpt>
      <trkpt lat="46.5772" lon="4.91186">
        <ele>169.7002</ele>
        <time>2026-05-14T09:28:27+02:00</time>
      </trkpt>
      <trkpt lat="46.57726" lon="4.91186">
        <ele>169.7002</ele>
        <time>2026-05-14T09:28:28+02:00</time>
      </trkpt>
      <trkpt lat="46.57732" lon="4.91187">
        <ele>169.60059</ele>
        <time>2026-05-14T09:28:29+02:00</time>
      </trkpt>
      <trkpt lat="46.57737" lon="4.91187">
        <ele>169.60059</ele>
        <time>2026-05-14T09:28:30+02:00</time>
      </trkpt>
      <trkpt lat="46.57743" lon="4.91187">
        <ele>169.60059</ele>
        <time>2026-05-14T09:28:31+02:00</time>
      </trkpt>
      <trkpt lat="46.57749" lon="4.91187">
        <ele>169.60059</ele>
        <time>2026-05-14T09:28:32+02:00</time>
      </trkpt>
      <trkpt lat="46.57755" lon="4.91187">
        <ele>169.60059</ele>
        <time>2026-05-14T09:28:33+02:00</time>
      </trkpt>
      <trkpt lat="46.57761" lon="4.91187">
        <ele>169.60059</ele>
        <time>2026-05-14T09:28:34+02:00</time>
      </trkpt>
      <trkpt lat="46.57767" lon="4.91188">
        <ele>169.60059</ele>
        <time>2026-05-14T09:28:35+02:00</time>
      </trkpt>
      <trkpt lat="46.57773" lon="4.91188">
        <ele>169.60059</ele>
        <time>2026-05-14T09:28:36+02:00</time>
      </trkpt>
      <trkpt lat="46.57779" lon="4.91188">
        <ele>169.60059</ele>
        <time>2026-05-14T09:28:37+02:00</time>
      </trkpt>
      <trkpt lat="46.57785" lon="4.91188">
        <ele>169.5</ele>
        <time>2026-05-14T09:28:38+02:00</time>
      </trkpt>
      <trkpt lat="46.57791" lon="4.91189">
        <ele>169.40039</ele>
        <time>2026-05-14T09:28:39+02:00</time>
      </trkpt>
      <trkpt lat="46.57794" lon="4.91189">
        <ele>169.5</ele>
        <time>2026-05-14T09:28:40+02:00</time>
      </trkpt>
      <trkpt lat="46.57803" lon="4.91189">
        <ele>169.7998</ele>
        <time>2026-05-14T09:28:41+02:00</time>
      </trkpt>
      <trkpt lat="46.57808" lon="4.9119">
        <ele>170.2002</ele>
        <time>2026-05-14T09:28:42+02:00</time>
      </trkpt>
      <trkpt lat="46.57814" lon="4.9119">
        <ele>170.7002</ele>
        <time>2026-05-14T09:28:43+02:00</time>
      </trkpt>
      <trkpt lat="46.5782" lon="4.9119">
        <ele>171.10059</ele>
        <time>2026-05-14T09:28:44+02:00</time>
      </trkpt>
      <trkpt lat="46.57826" lon="4.91191">
        <ele>171.5</ele>
        <time>2026-05-14T09:28:45+02:00</time>
      </trkpt>
      <trkpt lat="46.57831" lon="4.91191">
        <ele>171.7998</ele>
        <time>2026-05-14T09:28:46+02:00</time>
      </trkpt>
      <trkpt lat="46.57837" lon="4.91192">
        <ele>170.5</ele>
        <time>2026-05-14T09:28:47+02:00</time>
      </trkpt>
      <trkpt lat="46.57843" lon="4.91193">
        <ele>170.5</ele>
        <time>2026-05-14T09:28:48+02:00</time>
      </trkpt>
      <trkpt lat="46.57849" lon="4.91193">
        <ele>170.40039</ele>
        <time>2026-05-14T09:28:49+02:00</time>
      </trkpt>
      <trkpt lat="46.57852" lon="4.91194">
        <ele>170.2998</ele>
        <time>2026-05-14T09:28:50+02:00</time>
      </trkpt>
      <trkpt lat="46.57861" lon="4.91196">
        <ele>170.2998</ele>
        <time>2026-05-14T09:28:51+02:00</time>
      </trkpt>
      <trkpt lat="46.57867" lon="4.91197">
        <ele>170.2002</ele>
        <time>2026-05-14T09:28:52+02:00</time>
      </trkpt>
      <trkpt lat="46.57873" lon="4.91198">
        <ele>170.10059</ele>
        <time>2026-05-14T09:28:53+02:00</time>
      </trkpt>
      <trkpt lat="46.57879" lon="4.91199">
        <ele>170</ele>
        <time>2026-05-14T09:28:54+02:00</time>
      </trkpt>
      <trkpt lat="46.57885" lon="4.91199">
        <ele>169.90039</ele>
        <time>2026-05-14T09:28:55+02:00</time>
      </trkpt>
      <trkpt lat="46.5789" lon="4.912">
        <ele>169.90039</ele>
        <time>2026-05-14T09:28:56+02:00</time>
      </trkpt>
      <trkpt lat="46.57896" lon="4.912">
        <ele>169.7998</ele>
        <time>2026-05-14T09:28:57+02:00</time>
      </trkpt>
      <trkpt lat="46.57902" lon="4.912">
        <ele>169.7998</ele>
        <time>2026-05-14T09:28:58+02:00</time>
      </trkpt>
      <trkpt lat="46.57907" lon="4.912">
        <ele>169.7998</ele>
        <time>2026-05-14T09:28:59+02:00</time>
      </trkpt>
      <trkpt lat="46.57913" lon="4.91199">
        <ele>169.7002</ele>
        <time>2026-05-14T09:29:00+02:00</time>
      </trkpt>
      <trkpt lat="46.57919" lon="4.91199">
        <ele>169.7002</ele>
        <time>2026-05-14T09:29:01+02:00</time>
      </trkpt>
      <trkpt lat="46.57924" lon="4.91198">
        <ele>169.7002</ele>
        <time>2026-05-14T09:29:02+02:00</time>
      </trkpt>
      <trkpt lat="46.5793" lon="4.91197">
        <ele>169.7002</ele>
        <time>2026-05-14T09:29:03+02:00</time>
      </trkpt>
      <trkpt lat="46.57935" lon="4.91197">
        <ele>169.7002</ele>
        <time>2026-05-14T09:29:04+02:00</time>
      </trkpt>
      <trkpt lat="46.57941" lon="4.91196">
        <ele>169.7002</ele>
        <time>2026-05-14T09:29:05+02:00</time>
      </trkpt>
      <trkpt lat="46.57947" lon="4.91195">
        <ele>169.60059</ele>
        <time>2026-05-14T09:29:06+02:00</time>
      </trkpt>
      <trkpt lat="46.57952" lon="4.91195">
        <ele>169.60059</ele>
        <time>2026-05-14T09:29:07+02:00</time>
      </trkpt>
      <trkpt lat="46.57958" lon="4.91195">
        <ele>169.60059</ele>
        <time>2026-05-14T09:29:08+02:00</time>
      </trkpt>
      <trkpt lat="46.57964" lon="4.91195">
        <ele>169.60059</ele>
        <time>2026-05-14T09:29:09+02:00</time>
      </trkpt>
      <trkpt lat="46.57969" lon="4.91195">
        <ele>169.60059</ele>
        <time>2026-05-14T09:29:10+02:00</time>
      </trkpt>
      <trkpt lat="46.57975" lon="4.91195">
        <ele>169.7002</ele>
        <time>2026-05-14T09:29:11+02:00</time>
      </trkpt>
      <trkpt lat="46.5798" lon="4.91195">
        <ele>169.7002</ele>
        <time>2026-05-14T09:29:12+02:00</time>
      </trkpt>
      <trkpt lat="46.57987" lon="4.91195">
        <ele>169.7002</ele>
        <time>2026-05-14T09:29:13+02:00</time>
      </trkpt>
      <trkpt lat="46.57992" lon="4.91195">
        <ele>169.7002</ele>
        <time>2026-05-14T09:29:14+02:00</time>
      </trkpt>
      <trkpt lat="46.57998" lon="4.91196">
        <ele>169.7002</ele>
        <time>2026-05-14T09:29:15+02:00</time>
      </trkpt>
      <trkpt lat="46.58004" lon="4.91196">
        <ele>169.7002</ele>
        <time>2026-05-14T09:29:16+02:00</time>
      </trkpt>
      <trkpt lat="46.58009" lon="4.91196">
        <ele>169.7002</ele>
        <time>2026-05-14T09:29:17+02:00</time>
      </trkpt>
      <trkpt lat="46.58015" lon="4.91197">
        <ele>169.7002</ele>
        <time>2026-05-14T09:29:18+02:00</time>
      </trkpt>
      <trkpt lat="46.58021" lon="4.91198">
        <ele>169.7002</ele>
        <time>2026-05-14T09:29:19+02:00</time>
      </trkpt>
      <trkpt lat="46.58026" lon="4.91199">
        <ele>169.7002</ele>
        <time>2026-05-14T09:29:20+02:00</time>
      </trkpt>
      <trkpt lat="46.58032" lon="4.912">
        <ele>169.7002</ele>
        <time>2026-05-14T09:29:21+02:00</time>
      </trkpt>
      <trkpt lat="46.58037" lon="4.91202">
        <ele>169.7002</ele>
        <time>2026-05-14T09:29:22+02:00</time>
      </trkpt>
      <trkpt lat="46.58043" lon="4.91203">
        <ele>169.7002</ele>
        <time>2026-05-14T09:29:23+02:00</time>
      </trkpt>
      <trkpt lat="46.58048" lon="4.91204">
        <ele>169.7998</ele>
        <time>2026-05-14T09:29:24+02:00</time>
      </trkpt>
      <trkpt lat="46.58054" lon="4.91205">
        <ele>169.90039</ele>
        <time>2026-05-14T09:29:25+02:00</time>
      </trkpt>
      <trkpt lat="46.58059" lon="4.91207">
        <ele>170</ele>
        <time>2026-05-14T09:29:26+02:00</time>
      </trkpt>
      <trkpt lat="46.58065" lon="4.91208">
        <ele>170.2002</ele>
        <time>2026-05-14T09:29:27+02:00</time>
      </trkpt>
      <trkpt lat="46.58071" lon="4.91209">
        <ele>170.2002</ele>
        <time>2026-05-14T09:29:28+02:00</time>
      </trkpt>
      <trkpt lat="46.58076" lon="4.91211">
        <ele>169.90039</ele>
        <time>2026-05-14T09:29:29+02:00</time>
      </trkpt>
      <trkpt lat="46.58082" lon="4.91213">
        <ele>169.90039</ele>
        <time>2026-05-14T09:29:30+02:00</time>
      </trkpt>
      <trkpt lat="46.58087" lon="4.91215">
        <ele>169.90039</ele>
        <time>2026-05-14T09:29:31+02:00</time>
      </trkpt>
      <trkpt lat="46.58093" lon="4.91217">
        <ele>170</ele>
        <time>2026-05-14T09:29:32+02:00</time>
      </trkpt>
      <trkpt lat="46.58098" lon="4.91219">
        <ele>169.7002</ele>
        <time>2026-05-14T09:29:33+02:00</time>
      </trkpt>
      <trkpt lat="46.58104" lon="4.91221">
        <ele>169.7998</ele>
        <time>2026-05-14T09:29:34+02:00</time>
      </trkpt>
      <trkpt lat="46.58109" lon="4.91223">
        <ele>169.7998</ele>
        <time>2026-05-14T09:29:35+02:00</time>
      </trkpt>
      <trkpt lat="46.58115" lon="4.91225">
        <ele>169.90039</ele>
        <time>2026-05-14T09:29:36+02:00</time>
      </trkpt>
      <trkpt lat="46.5812" lon="4.91228">
        <ele>169.7998</ele>
        <time>2026-05-14T09:29:37+02:00</time>
      </trkpt>
      <trkpt lat="46.58127" lon="4.91231">
        <ele>169.7998</ele>
        <time>2026-05-14T09:29:38+02:00</time>
      </trkpt>
      <trkpt lat="46.58132" lon="4.91234">
        <ele>169.7998</ele>
        <time>2026-05-14T09:29:39+02:00</time>
      </trkpt>
      <trkpt lat="46.58138" lon="4.91237">
        <ele>169.7002</ele>
        <time>2026-05-14T09:29:40+02:00</time>
      </trkpt>
      <trkpt lat="46.58144" lon="4.9124">
        <ele>169.7998</ele>
        <time>2026-05-14T09:29:41+02:00</time>
      </trkpt>
      <trkpt lat="46.58149" lon="4.91243">
        <ele>169.90039</ele>
        <time>2026-05-14T09:29:42+02:00</time>
      </trkpt>
      <trkpt lat="46.58155" lon="4.91247">
        <ele>169.90039</ele>
        <time>2026-05-14T09:29:43+02:00</time>
      </trkpt>
      <trkpt lat="46.58158" lon="4.91249">
        <ele>169.90039</ele>
        <time>2026-05-14T09:29:44+02:00</time>
      </trkpt>
      <trkpt lat="46.58167" lon="4.91253">
        <ele>169.7998</ele>
        <time>2026-05-14T09:29:45+02:00</time>
      </trkpt>
      <trkpt lat="46.58172" lon="4.91257">
        <ele>169.7998</ele>
        <time>2026-05-14T09:29:46+02:00</time>
      </trkpt>
      <trkpt lat="46.58178" lon="4.9126">
        <ele>169.7998</ele>
        <time>2026-05-14T09:29:47+02:00</time>
      </trkpt>
      <trkpt lat="46.58183" lon="4.91263">
        <ele>169.7002</ele>
        <time>2026-05-14T09:29:48+02:00</time>
      </trkpt>
      <trkpt lat="46.58189" lon="4.91266">
        <ele>169.7998</ele>
        <time>2026-05-14T09:29:49+02:00</time>
      </trkpt>
      <trkpt lat="46.58194" lon="4.91269">
        <ele>169.7998</ele>
        <time>2026-05-14T09:29:50+02:00</time>
      </trkpt>
      <trkpt lat="46.582" lon="4.91272">
        <ele>169.7002</ele>
        <time>2026-05-14T09:29:51+02:00</time>
      </trkpt>
      <trkpt lat="46.58206" lon="4.91274">
        <ele>169.7998</ele>
        <time>2026-05-14T09:29:52+02:00</time>
      </trkpt>
      <trkpt lat="46.58211" lon="4.91277">
        <ele>169.90039</ele>
        <time>2026-05-14T09:29:53+02:00</time>
      </trkpt>
      <trkpt lat="46.58216" lon="4.91279">
        <ele>169.7002</ele>
        <time>2026-05-14T09:29:54+02:00</time>
      </trkpt>
      <trkpt lat="46.58221" lon="4.91283">
        <ele>169.7998</ele>
        <time>2026-05-14T09:29:55+02:00</time>
      </trkpt>
      <trkpt lat="46.58227" lon="4.91286">
        <ele>169.7998</ele>
        <time>2026-05-14T09:29:56+02:00</time>
      </trkpt>
      <trkpt lat="46.58231" lon="4.91289">
        <ele>169.7002</ele>
        <time>2026-05-14T09:29:57+02:00</time>
      </trkpt>
      <trkpt lat="46.58237" lon="4.91293">
        <ele>169.7002</ele>
        <time>2026-05-14T09:29:58+02:00</time>
      </trkpt>
      <trkpt lat="46.58243" lon="4.91296">
        <ele>169.60059</ele>
        <time>2026-05-14T09:29:59+02:00</time>
      </trkpt>
      <trkpt lat="46.58248" lon="4.91298">
        <ele>169.60059</ele>
        <time>2026-05-14T09:30:00+02:00</time>
      </trkpt>
      <trkpt lat="46.58253" lon="4.91301">
        <ele>169.7002</ele>
        <time>2026-05-14T09:30:01+02:00</time>
      </trkpt>
      <trkpt lat="46.58259" lon="4.91304">
        <ele>169.7002</ele>
        <time>2026-05-14T09:30:02+02:00</time>
      </trkpt>
      <trkpt lat="46.58264" lon="4.91307">
        <ele>169.7998</ele>
        <time>2026-05-14T09:30:03+02:00</time>
      </trkpt>
      <trkpt lat="46.58269" lon="4.9131">
        <ele>169.7998</ele>
        <time>2026-05-14T09:30:04+02:00</time>
      </trkpt>
      <trkpt lat="46.58275" lon="4.91314">
        <ele>169.7002</ele>
        <time>2026-05-14T09:30:05+02:00</time>
      </trkpt>
      <trkpt lat="46.5828" lon="4.91317">
        <ele>169.7002</ele>
        <time>2026-05-14T09:30:06+02:00</time>
      </trkpt>
      <trkpt lat="46.58285" lon="4.91321">
        <ele>169.7002</ele>
        <time>2026-05-14T09:30:07+02:00</time>
      </trkpt>
      <trkpt lat="46.5829" lon="4.91324">
        <ele>169.60059</ele>
        <time>2026-05-14T09:30:08+02:00</time>
      </trkpt>
      <trkpt lat="46.58296" lon="4.91327">
        <ele>169.7002</ele>
        <time>2026-05-14T09:30:09+02:00</time>
      </trkpt>
      <trkpt lat="46.58301" lon="4.91331">
        <ele>169.60059</ele>
        <time>2026-05-14T09:30:10+02:00</time>
      </trkpt>
      <trkpt lat="46.58306" lon="4.91334">
        <ele>169.60059</ele>
        <time>2026-05-14T09:30:11+02:00</time>
      </trkpt>
      <trkpt lat="46.58311" lon="4.91338">
        <ele>169.60059</ele>
        <time>2026-05-14T09:30:12+02:00</time>
      </trkpt>
      <trkpt lat="46.58317" lon="4.91341">
        <ele>169.7002</ele>
        <time>2026-05-14T09:30:13+02:00</time>
      </trkpt>
      <trkpt lat="46.58322" lon="4.91344">
        <ele>169.7002</ele>
        <time>2026-05-14T09:30:14+02:00</time>
      </trkpt>
      <trkpt lat="46.58327" lon="4.91348">
        <ele>169.7002</ele>
        <time>2026-05-14T09:30:15+02:00</time>
      </trkpt>
      <trkpt lat="46.58332" lon="4.91352">
        <ele>169.7002</ele>
        <time>2026-05-14T09:30:16+02:00</time>
      </trkpt>
      <trkpt lat="46.58338" lon="4.91355">
        <ele>169.60059</ele>
        <time>2026-05-14T09:30:17+02:00</time>
      </trkpt>
      <trkpt lat="46.58342" lon="4.91359">
        <ele>169.5</ele>
        <time>2026-05-14T09:30:18+02:00</time>
      </trkpt>
      <trkpt lat="46.58348" lon="4.91363">
        <ele>169.5</ele>
        <time>2026-05-14T09:30:19+02:00</time>
      </trkpt>
      <trkpt lat="46.58353" lon="4.91367">
        <ele>169.40039</ele>
        <time>2026-05-14T09:30:20+02:00</time>
      </trkpt>
      <trkpt lat="46.58359" lon="4.9137">
        <ele>169.40039</ele>
        <time>2026-05-14T09:30:21+02:00</time>
      </trkpt>
      <trkpt lat="46.58364" lon="4.91374">
        <ele>169.60059</ele>
        <time>2026-05-14T09:30:22+02:00</time>
      </trkpt>
      <trkpt lat="46.58369" lon="4.91378">
        <ele>169.60059</ele>
        <time>2026-05-14T09:30:23+02:00</time>
      </trkpt>
      <trkpt lat="46.58372" lon="4.9138">
        <ele>169.7002</ele>
        <time>2026-05-14T09:30:24+02:00</time>
      </trkpt>
      <trkpt lat="46.58379" lon="4.91386">
        <ele>169.60059</ele>
        <time>2026-05-14T09:30:25+02:00</time>
      </trkpt>
      <trkpt lat="46.58385" lon="4.9139">
        <ele>169.5</ele>
        <time>2026-05-14T09:30:26+02:00</time>
      </trkpt>
      <trkpt lat="46.5839" lon="4.91394">
        <ele>169.5</ele>
        <time>2026-05-14T09:30:27+02:00</time>
      </trkpt>
      <trkpt lat="46.58396" lon="4.91398">
        <ele>169.60059</ele>
        <time>2026-05-14T09:30:28+02:00</time>
      </trkpt>
      <trkpt lat="46.584" lon="4.91402">
        <ele>169.60059</ele>
        <time>2026-05-14T09:30:29+02:00</time>
      </trkpt>
      <trkpt lat="46.58405" lon="4.91406">
        <ele>169.60059</ele>
        <time>2026-05-14T09:30:30+02:00</time>
      </trkpt>
      <trkpt lat="46.58411" lon="4.91409">
        <ele>169.7002</ele>
        <time>2026-05-14T09:30:31+02:00</time>
      </trkpt>
      <trkpt lat="46.58416" lon="4.91413">
        <ele>169.7002</ele>
        <time>2026-05-14T09:30:32+02:00</time>
      </trkpt>
      <trkpt lat="46.58421" lon="4.91417">
        <ele>169.7002</ele>
        <time>2026-05-14T09:30:33+02:00</time>
      </trkpt>
      <trkpt lat="46.58426" lon="4.9142">
        <ele>169.60059</ele>
        <time>2026-05-14T09:30:34+02:00</time>
      </trkpt>
      <trkpt lat="46.58432" lon="4.91424">
        <ele>169.60059</ele>
        <time>2026-05-14T09:30:35+02:00</time>
      </trkpt>
      <trkpt lat="46.58437" lon="4.91428">
        <ele>169.60059</ele>
        <time>2026-05-14T09:30:36+02:00</time>
      </trkpt>
      <trkpt lat="46.58442" lon="4.91432">
        <ele>169.7002</ele>
        <time>2026-05-14T09:30:37+02:00</time>
      </trkpt>
      <trkpt lat="46.58448" lon="4.91436">
        <ele>169.7002</ele>
        <time>2026-05-14T09:30:38+02:00</time>
      </trkpt>
      <trkpt lat="46.58453" lon="4.91439">
        <ele>169.7002</ele>
        <time>2026-05-14T09:30:39+02:00</time>
      </trkpt>
      <trkpt lat="46.58458" lon="4.91442">
        <ele>169.60059</ele>
        <time>2026-05-14T09:30:40+02:00</time>
      </trkpt>
      <trkpt lat="46.58463" lon="4.91446">
        <ele>169.60059</ele>
        <time>2026-05-14T09:30:41+02:00</time>
      </trkpt>
      <trkpt lat="46.58469" lon="4.91449">
        <ele>169.5</ele>
        <time>2026-05-14T09:30:42+02:00</time>
      </trkpt>
      <trkpt lat="46.58474" lon="4.91452">
        <ele>169.40039</ele>
        <time>2026-05-14T09:30:43+02:00</time>
      </trkpt>
      <trkpt lat="46.5848" lon="4.91456">
        <ele>169.40039</ele>
        <time>2026-05-14T09:30:44+02:00</time>
      </trkpt>
      <trkpt lat="46.58485" lon="4.91459">
        <ele>169.60059</ele>
        <time>2026-05-14T09:30:45+02:00</time>
      </trkpt>
      <trkpt lat="46.58491" lon="4.91462">
        <ele>169.7002</ele>
        <time>2026-05-14T09:30:46+02:00</time>
      </trkpt>
      <trkpt lat="46.58496" lon="4.91466">
        <ele>169.90039</ele>
        <time>2026-05-14T09:30:47+02:00</time>
      </trkpt>
      <trkpt lat="46.58501" lon="4.91469">
        <ele>169.60059</ele>
        <time>2026-05-14T09:30:48+02:00</time>
      </trkpt>
      <trkpt lat="46.58507" lon="4.91472">
        <ele>169.5</ele>
        <time>2026-05-14T09:30:49+02:00</time>
      </trkpt>
      <trkpt lat="46.58511" lon="4.91474">
        <ele>169.5</ele>
        <time>2026-05-14T09:30:50+02:00</time>
      </trkpt>
      <trkpt lat="46.58516" lon="4.91476">
        <ele>169.2998</ele>
        <time>2026-05-14T09:30:51+02:00</time>
      </trkpt>
      <trkpt lat="46.58519" lon="4.91478">
        <ele>169.2998</ele>
        <time>2026-05-14T09:30:52+02:00</time>
      </trkpt>
      <trkpt lat="46.58522" lon="4.91479">
        <ele>169.2998</ele>
        <time>2026-05-14T09:30:53+02:00</time>
      </trkpt>
      <trkpt lat="46.58524" lon="4.91481">
        <ele>169.40039</ele>
        <time>2026-05-14T09:30:54+02:00</time>
      </trkpt>
      <trkpt lat="46.58527" lon="4.91482">
        <ele>169.40039</ele>
        <time>2026-05-14T09:30:55+02:00</time>
      </trkpt>
      <trkpt lat="46.58529" lon="4.91484">
        <ele>169.60059</ele>
        <time>2026-05-14T09:30:56+02:00</time>
      </trkpt>
      <trkpt lat="46.58531" lon="4.91487">
        <ele>169.60059</ele>
        <time>2026-05-14T09:30:57+02:00</time>
      </trkpt>
      <trkpt lat="46.58534" lon="4.9149">
        <ele>169.60059</ele>
        <time>2026-05-14T09:30:58+02:00</time>
      </trkpt>
      <trkpt lat="46.58537" lon="4.91493">
        <ele>169.7002</ele>
        <time>2026-05-14T09:30:59+02:00</time>
      </trkpt>
      <trkpt lat="46.5854" lon="4.91496">
        <ele>169.7002</ele>
        <time>2026-05-14T09:31:00+02:00</time>
      </trkpt>
      <trkpt lat="46.58544" lon="4.91499">
        <ele>169.60059</ele>
        <time>2026-05-14T09:31:01+02:00</time>
      </trkpt>
      <trkpt lat="46.58548" lon="4.91501">
        <ele>169.60059</ele>
        <time>2026-05-14T09:31:02+02:00</time>
      </trkpt>
      <trkpt lat="46.58553" lon="4.91504">
        <ele>169.60059</ele>
        <time>2026-05-14T09:31:03+02:00</time>
      </trkpt>
      <trkpt lat="46.58557" lon="4.91507">
        <ele>169.60059</ele>
        <time>2026-05-14T09:31:04+02:00</time>
      </trkpt>
      <trkpt lat="46.58562" lon="4.9151">
        <ele>169.7002</ele>
        <time>2026-05-14T09:31:05+02:00</time>
      </trkpt>
      <trkpt lat="46.58566" lon="4.91512">
        <ele>169.7998</ele>
        <time>2026-05-14T09:31:06+02:00</time>
      </trkpt>
      <trkpt lat="46.58571" lon="4.91515">
        <ele>169.7998</ele>
        <time>2026-05-14T09:31:07+02:00</time>
      </trkpt>
      <trkpt lat="46.58576" lon="4.91518">
        <ele>169.7998</ele>
        <time>2026-05-14T09:31:08+02:00</time>
      </trkpt>
      <trkpt lat="46.58581" lon="4.9152">
        <ele>169.7002</ele>
        <time>2026-05-14T09:31:09+02:00</time>
      </trkpt>
      <trkpt lat="46.58586" lon="4.91523">
        <ele>169.7002</ele>
        <time>2026-05-14T09:31:10+02:00</time>
      </trkpt>
      <trkpt lat="46.58591" lon="4.91526">
        <ele>169.60059</ele>
        <time>2026-05-14T09:31:11+02:00</time>
      </trkpt>
      <trkpt lat="46.58596" lon="4.91529">
        <ele>169.5</ele>
        <time>2026-05-14T09:31:12+02:00</time>
      </trkpt>
      <trkpt lat="46.58601" lon="4.91532">
        <ele>169.60059</ele>
        <time>2026-05-14T09:31:13+02:00</time>
      </trkpt>
      <trkpt lat="46.58605" lon="4.91536">
        <ele>169.60059</ele>
        <time>2026-05-14T09:31:14+02:00</time>
      </trkpt>
      <trkpt lat="46.5861" lon="4.91539">
        <ele>169.7002</ele>
        <time>2026-05-14T09:31:15+02:00</time>
      </trkpt>
      <trkpt lat="46.58615" lon="4.91542">
        <ele>169.7998</ele>
        <time>2026-05-14T09:31:16+02:00</time>
      </trkpt>
      <trkpt lat="46.5862" lon="4.91546">
        <ele>169.7002</ele>
        <time>2026-05-14T09:31:17+02:00</time>
      </trkpt>
      <trkpt lat="46.58624" lon="4.91549">
        <ele>169.7002</ele>
        <time>2026-05-14T09:31:18+02:00</time>
      </trkpt>
      <trkpt lat="46.58629" lon="4.91552">
        <ele>169.7002</ele>
        <time>2026-05-14T09:31:19+02:00</time>
      </trkpt>
      <trkpt lat="46.58633" lon="4.91556">
        <ele>169.5</ele>
        <time>2026-05-14T09:31:20+02:00</time>
      </trkpt>
      <trkpt lat="46.58637" lon="4.9156">
        <ele>169.40039</ele>
        <time>2026-05-14T09:31:21+02:00</time>
      </trkpt>
      <trkpt lat="46.58641" lon="4.91564">
        <ele>169.40039</ele>
        <time>2026-05-14T09:31:22+02:00</time>
      </trkpt>
      <trkpt lat="46.58646" lon="4.91568">
        <ele>169.40039</ele>
        <time>2026-05-14T09:31:23+02:00</time>
      </trkpt>
      <trkpt lat="46.5865" lon="4.91571">
        <ele>169.60059</ele>
        <time>2026-05-14T09:31:24+02:00</time>
      </trkpt>
      <trkpt lat="46.58655" lon="4.91575">
        <ele>169.7002</ele>
        <time>2026-05-14T09:31:25+02:00</time>
      </trkpt>
      <trkpt lat="46.58659" lon="4.91578">
        <ele>169.7002</ele>
        <time>2026-05-14T09:31:26+02:00</time>
      </trkpt>
      <trkpt lat="46.58664" lon="4.91582">
        <ele>169.40039</ele>
        <time>2026-05-14T09:31:27+02:00</time>
      </trkpt>
      <trkpt lat="46.58668" lon="4.91587">
        <ele>169.2998</ele>
        <time>2026-05-14T09:31:28+02:00</time>
      </trkpt>
      <trkpt lat="46.58673" lon="4.91591">
        <ele>169.5</ele>
        <time>2026-05-14T09:31:29+02:00</time>
      </trkpt>
      <trkpt lat="46.58677" lon="4.91595">
        <ele>170.2002</ele>
        <time>2026-05-14T09:31:30+02:00</time>
      </trkpt>
      <trkpt lat="46.58682" lon="4.916">
        <ele>170</ele>
        <time>2026-05-14T09:31:31+02:00</time>
      </trkpt>
      <trkpt lat="46.58687" lon="4.91604">
        <ele>169.60059</ele>
        <time>2026-05-14T09:31:32+02:00</time>
      </trkpt>
      <trkpt lat="46.58689" lon="4.91607">
        <ele>169.7002</ele>
        <time>2026-05-14T09:31:33+02:00</time>
      </trkpt>
      <trkpt lat="46.58695" lon="4.91614">
        <ele>169.60059</ele>
        <time>2026-05-14T09:31:34+02:00</time>
      </trkpt>
      <trkpt lat="46.587" lon="4.91618">
        <ele>169.60059</ele>
        <time>2026-05-14T09:31:35+02:00</time>
      </trkpt>
      <trkpt lat="46.58704" lon="4.91623">
        <ele>169.90039</ele>
        <time>2026-05-14T09:31:36+02:00</time>
      </trkpt>
      <trkpt lat="46.58709" lon="4.91628">
        <ele>170.7002</ele>
        <time>2026-05-14T09:31:37+02:00</time>
      </trkpt>
      <trkpt lat="46.58713" lon="4.91633">
        <ele>170.2998</ele>
        <time>2026-05-14T09:31:38+02:00</time>
      </trkpt>
      <trkpt lat="46.58717" lon="4.91637">
        <ele>170.2998</ele>
        <time>2026-05-14T09:31:39+02:00</time>
      </trkpt>
      <trkpt lat="46.58722" lon="4.91642">
        <ele>169.7002</ele>
        <time>2026-05-14T09:31:40+02:00</time>
      </trkpt>
      <trkpt lat="46.58726" lon="4.91647">
        <ele>169.2998</ele>
        <time>2026-05-14T09:31:41+02:00</time>
      </trkpt>
      <trkpt lat="46.58731" lon="4.91652">
        <ele>169.2998</ele>
        <time>2026-05-14T09:31:42+02:00</time>
      </trkpt>
      <trkpt lat="46.58735" lon="4.91656">
        <ele>169.2998</ele>
        <time>2026-05-14T09:31:43+02:00</time>
      </trkpt>
      <trkpt lat="46.5874" lon="4.91661">
        <ele>169.40039</ele>
        <time>2026-05-14T09:31:44+02:00</time>
      </trkpt>
      <trkpt lat="46.58744" lon="4.91666">
        <ele>169.7002</ele>
        <time>2026-05-14T09:31:45+02:00</time>
      </trkpt>
      <trkpt lat="46.58749" lon="4.91671">
        <ele>170.5</ele>
        <time>2026-05-14T09:31:46+02:00</time>
      </trkpt>
      <trkpt lat="46.58753" lon="4.91676">
        <ele>170.40039</ele>
        <time>2026-05-14T09:31:47+02:00</time>
      </trkpt>
      <trkpt lat="46.58758" lon="4.91681">
        <ele>171.5</ele>
        <time>2026-05-14T09:31:48+02:00</time>
      </trkpt>
      <trkpt lat="46.58762" lon="4.91686">
        <ele>171.40039</ele>
        <time>2026-05-14T09:31:49+02:00</time>
      </trkpt>
      <trkpt lat="46.58766" lon="4.9169">
        <ele>170.60059</ele>
        <time>2026-05-14T09:31:50+02:00</time>
      </trkpt>
      <trkpt lat="46.58771" lon="4.91695">
        <ele>170.60059</ele>
        <time>2026-05-14T09:31:51+02:00</time>
      </trkpt>
      <trkpt lat="46.58775" lon="4.917">
        <ele>170.60059</ele>
        <time>2026-05-14T09:31:52+02:00</time>
      </trkpt>
      <trkpt lat="46.58779" lon="4.91705">
        <ele>172.2002</ele>
        <time>2026-05-14T09:31:53+02:00</time>
      </trkpt>
      <trkpt lat="46.58783" lon="4.9171">
        <ele>171.40039</ele>
        <time>2026-05-14T09:31:54+02:00</time>
      </trkpt>
      <trkpt lat="46.58788" lon="4.91715">
        <ele>172.7002</ele>
        <time>2026-05-14T09:31:55+02:00</time>
      </trkpt>
      <trkpt lat="46.58792" lon="4.91719">
        <ele>171.60059</ele>
        <time>2026-05-14T09:31:56+02:00</time>
      </trkpt>
      <trkpt lat="46.58797" lon="4.91724">
        <ele>170.7998</ele>
        <time>2026-05-14T09:31:57+02:00</time>
      </trkpt>
      <trkpt lat="46.58801" lon="4.91728">
        <ele>172</ele>
        <time>2026-05-14T09:31:58+02:00</time>
      </trkpt>
      <trkpt lat="46.58806" lon="4.91733">
        <ele>171.5</ele>
        <time>2026-05-14T09:31:59+02:00</time>
      </trkpt>
      <trkpt lat="46.5881" lon="4.91738">
        <ele>172.7002</ele>
        <time>2026-05-14T09:32:00+02:00</time>
      </trkpt>
      <trkpt lat="46.58815" lon="4.91743">
        <ele>172.10059</ele>
        <time>2026-05-14T09:32:01+02:00</time>
      </trkpt>
      <trkpt lat="46.58819" lon="4.91747">
        <ele>172.2002</ele>
        <time>2026-05-14T09:32:02+02:00</time>
      </trkpt>
      <trkpt lat="46.58823" lon="4.91752">
        <ele>171.2002</ele>
        <time>2026-05-14T09:32:03+02:00</time>
      </trkpt>
      <trkpt lat="46.58827" lon="4.91757">
        <ele>171.7002</ele>
        <time>2026-05-14T09:32:04+02:00</time>
      </trkpt>
      <trkpt lat="46.58832" lon="4.91761">
        <ele>171.7998</ele>
        <time>2026-05-14T09:32:05+02:00</time>
      </trkpt>
      <trkpt lat="46.58836" lon="4.91766">
        <ele>171.7998</ele>
        <time>2026-05-14T09:32:06+02:00</time>
      </trkpt>
      <trkpt lat="46.58841" lon="4.9177">
        <ele>171.7998</ele>
        <time>2026-05-14T09:32:07+02:00</time>
      </trkpt>
      <trkpt lat="46.58845" lon="4.91775">
        <ele>172.5</ele>
        <time>2026-05-14T09:32:08+02:00</time>
      </trkpt>
      <trkpt lat="46.5885" lon="4.9178">
        <ele>171.90039</ele>
        <time>2026-05-14T09:32:09+02:00</time>
      </trkpt>
      <trkpt lat="46.58855" lon="4.91784">
        <ele>172.40039</ele>
        <time>2026-05-14T09:32:10+02:00</time>
      </trkpt>
      <trkpt lat="46.58859" lon="4.91789">
        <ele>171.2002</ele>
        <time>2026-05-14T09:32:11+02:00</time>
      </trkpt>
      <trkpt lat="46.58864" lon="4.91793">
        <ele>170.90039</ele>
        <time>2026-05-14T09:32:12+02:00</time>
      </trkpt>
      <trkpt lat="46.58869" lon="4.91798">
        <ele>171.60059</ele>
        <time>2026-05-14T09:32:13+02:00</time>
      </trkpt>
      <trkpt lat="46.58873" lon="4.91802">
        <ele>171.2002</ele>
        <time>2026-05-14T09:32:14+02:00</time>
      </trkpt>
      <trkpt lat="46.58877" lon="4.91807">
        <ele>171.2002</ele>
        <time>2026-05-14T09:32:15+02:00</time>
      </trkpt>
      <trkpt lat="46.58882" lon="4.91811">
        <ele>170.2002</ele>
        <time>2026-05-14T09:32:16+02:00</time>
      </trkpt>
      <trkpt lat="46.58886" lon="4.91815">
        <ele>170.5</ele>
        <time>2026-05-14T09:32:17+02:00</time>
      </trkpt>
      <trkpt lat="46.58891" lon="4.9182">
        <ele>170.2998</ele>
        <time>2026-05-14T09:32:18+02:00</time>
      </trkpt>
      <trkpt lat="46.58893" lon="4.91822">
        <ele>170.2998</ele>
        <time>2026-05-14T09:32:19+02:00</time>
      </trkpt>
      <trkpt lat="46.58899" lon="4.91829">
        <ele>170.90039</ele>
        <time>2026-05-14T09:32:20+02:00</time>
      </trkpt>
      <trkpt lat="46.58904" lon="4.91834">
        <ele>171.90039</ele>
        <time>2026-05-14T09:32:21+02:00</time>
      </trkpt>
      <trkpt lat="46.58908" lon="4.91838">
        <ele>171.2002</ele>
        <time>2026-05-14T09:32:22+02:00</time>
      </trkpt>
      <trkpt lat="46.58912" lon="4.91842">
        <ele>171.2002</ele>
        <time>2026-05-14T09:32:23+02:00</time>
      </trkpt>
      <trkpt lat="46.58915" lon="4.91844">
        <ele>171.5</ele>
        <time>2026-05-14T09:32:24+02:00</time>
      </trkpt>
      <trkpt lat="46.58921" lon="4.91851">
        <ele>171.2998</ele>
        <time>2026-05-14T09:32:25+02:00</time>
      </trkpt>
      <trkpt lat="46.58925" lon="4.91855">
        <ele>171.60059</ele>
        <time>2026-05-14T09:32:26+02:00</time>
      </trkpt>
      <trkpt lat="46.5893" lon="4.9186">
        <ele>171.60059</ele>
        <time>2026-05-14T09:32:27+02:00</time>
      </trkpt>
      <trkpt lat="46.58934" lon="4.91864">
        <ele>171.2002</ele>
        <time>2026-05-14T09:32:28+02:00</time>
      </trkpt>
      <trkpt lat="46.58938" lon="4.91869">
        <ele>171.2998</ele>
        <time>2026-05-14T09:32:29+02:00</time>
      </trkpt>
      <trkpt lat="46.58942" lon="4.91874">
        <ele>170.60059</ele>
        <time>2026-05-14T09:32:30+02:00</time>
      </trkpt>
      <trkpt lat="46.58946" lon="4.91879">
        <ele>170.60059</ele>
        <time>2026-05-14T09:32:31+02:00</time>
      </trkpt>
      <trkpt lat="46.5895" lon="4.91884">
        <ele>171.2998</ele>
        <time>2026-05-14T09:32:32+02:00</time>
      </trkpt>
      <trkpt lat="46.58954" lon="4.91889">
        <ele>170.7998</ele>
        <time>2026-05-14T09:32:33+02:00</time>
      </trkpt>
      <trkpt lat="46.58959" lon="4.91895">
        <ele>171.2002</ele>
        <time>2026-05-14T09:32:34+02:00</time>
      </trkpt>
      <trkpt lat="46.58962" lon="4.919">
        <ele>170.7002</ele>
        <time>2026-05-14T09:32:35+02:00</time>
      </trkpt>
      <trkpt lat="46.58967" lon="4.91905">
        <ele>170.60059</ele>
        <time>2026-05-14T09:32:36+02:00</time>
      </trkpt>
      <trkpt lat="46.5897" lon="4.91911">
        <ele>170.60059</ele>
        <time>2026-05-14T09:32:37+02:00</time>
      </trkpt>
      <trkpt lat="46.58973" lon="4.91917">
        <ele>170.90039</ele>
        <time>2026-05-14T09:32:38+02:00</time>
      </trkpt>
      <trkpt lat="46.58977" lon="4.91924">
        <ele>170.90039</ele>
        <time>2026-05-14T09:32:39+02:00</time>
      </trkpt>
      <trkpt lat="46.5898" lon="4.9193">
        <ele>171.60059</ele>
        <time>2026-05-14T09:32:40+02:00</time>
      </trkpt>
      <trkpt lat="46.58983" lon="4.91936">
        <ele>171.60059</ele>
        <time>2026-05-14T09:32:41+02:00</time>
      </trkpt>
      <trkpt lat="46.58987" lon="4.91942">
        <ele>172.2002</ele>
        <time>2026-05-14T09:32:42+02:00</time>
      </trkpt>
      <trkpt lat="46.5899" lon="4.91949">
        <ele>172.2998</ele>
        <time>2026-05-14T09:32:43+02:00</time>
      </trkpt>
      <trkpt lat="46.58993" lon="4.91955">
        <ele>172.2998</ele>
        <time>2026-05-14T09:32:44+02:00</time>
      </trkpt>
      <trkpt lat="46.58997" lon="4.91962">
        <ele>171.2998</ele>
        <time>2026-05-14T09:32:45+02:00</time>
      </trkpt>
      <trkpt lat="46.59" lon="4.91969">
        <ele>169.90039</ele>
        <time>2026-05-14T09:32:46+02:00</time>
      </trkpt>
      <trkpt lat="46.59004" lon="4.91975">
        <ele>169.5</ele>
        <time>2026-05-14T09:32:47+02:00</time>
      </trkpt>
      <trkpt lat="46.59007" lon="4.91982">
        <ele>169.2998</ele>
        <time>2026-05-14T09:32:48+02:00</time>
      </trkpt>
      <trkpt lat="46.5901" lon="4.91989">
        <ele>169.60059</ele>
        <time>2026-05-14T09:32:49+02:00</time>
      </trkpt>
      <trkpt lat="46.59014" lon="4.91995">
        <ele>169.90039</ele>
        <time>2026-05-14T09:32:50+02:00</time>
      </trkpt>
      <trkpt lat="46.59017" lon="4.92001">
        <ele>169.60059</ele>
        <time>2026-05-14T09:32:51+02:00</time>
      </trkpt>
      <trkpt lat="46.5902" lon="4.92007">
        <ele>169.60059</ele>
        <time>2026-05-14T09:32:52+02:00</time>
      </trkpt>
      <trkpt lat="46.59024" lon="4.92014">
        <ele>169.2998</ele>
        <time>2026-05-14T09:32:53+02:00</time>
      </trkpt>
      <trkpt lat="46.59027" lon="4.9202">
        <ele>169.2998</ele>
        <time>2026-05-14T09:32:54+02:00</time>
      </trkpt>
      <trkpt lat="46.59031" lon="4.92026">
        <ele>169.60059</ele>
        <time>2026-05-14T09:32:55+02:00</time>
      </trkpt>
      <trkpt lat="46.59034" lon="4.92032">
        <ele>169.60059</ele>
        <time>2026-05-14T09:32:56+02:00</time>
      </trkpt>
      <trkpt lat="46.59038" lon="4.92038">
        <ele>169.5</ele>
        <time>2026-05-14T09:32:57+02:00</time>
      </trkpt>
      <trkpt lat="46.59041" lon="4.92043">
        <ele>169.5</ele>
        <time>2026-05-14T09:32:58+02:00</time>
      </trkpt>
      <trkpt lat="46.59043" lon="4.92045">
        <ele>169.2998</ele>
        <time>2026-05-14T09:32:59+02:00</time>
      </trkpt>
      <trkpt lat="46.59049" lon="4.92053">
        <ele>169.40039</ele>
        <time>2026-05-14T09:33:00+02:00</time>
      </trkpt>
      <trkpt lat="46.59052" lon="4.92059">
        <ele>169.5</ele>
        <time>2026-05-14T09:33:01+02:00</time>
      </trkpt>
      <trkpt lat="46.59056" lon="4.92065">
        <ele>169.7002</ele>
        <time>2026-05-14T09:33:02+02:00</time>
      </trkpt>
      <trkpt lat="46.59059" lon="4.9207">
        <ele>169.7002</ele>
        <time>2026-05-14T09:33:03+02:00</time>
      </trkpt>
      <trkpt lat="46.59063" lon="4.92076">
        <ele>169.7998</ele>
        <time>2026-05-14T09:33:04+02:00</time>
      </trkpt>
      <trkpt lat="46.59067" lon="4.92081">
        <ele>170</ele>
        <time>2026-05-14T09:33:05+02:00</time>
      </trkpt>
      <trkpt lat="46.5907" lon="4.92087">
        <ele>169.60059</ele>
        <time>2026-05-14T09:33:06+02:00</time>
      </trkpt>
      <trkpt lat="46.59074" lon="4.92092">
        <ele>169.7998</ele>
        <time>2026-05-14T09:33:07+02:00</time>
      </trkpt>
      <trkpt lat="46.59078" lon="4.92097">
        <ele>169.40039</ele>
        <time>2026-05-14T09:33:08+02:00</time>
      </trkpt>
      <trkpt lat="46.59081" lon="4.92102">
        <ele>169.60059</ele>
        <time>2026-05-14T09:33:09+02:00</time>
      </trkpt>
      <trkpt lat="46.59084" lon="4.92106">
        <ele>170.40039</ele>
        <time>2026-05-14T09:33:10+02:00</time>
      </trkpt>
      <trkpt lat="46.59087" lon="4.9211">
        <ele>170.40039</ele>
        <time>2026-05-14T09:33:11+02:00</time>
      </trkpt>
      <trkpt lat="46.59089" lon="4.92113">
        <ele>170</ele>
        <time>2026-05-14T09:33:12+02:00</time>
      </trkpt>
      <trkpt lat="46.59096" lon="4.9212">
        <ele>169.90039</ele>
        <time>2026-05-14T09:33:13+02:00</time>
      </trkpt>
      <trkpt lat="46.591" lon="4.92125">
        <ele>169.90039</ele>
        <time>2026-05-14T09:33:14+02:00</time>
      </trkpt>
      <trkpt lat="46.59104" lon="4.9213">
        <ele>169.60059</ele>
        <time>2026-05-14T09:33:15+02:00</time>
      </trkpt>
      <trkpt lat="46.59109" lon="4.92135">
        <ele>170.2998</ele>
        <time>2026-05-14T09:33:16+02:00</time>
      </trkpt>
      <trkpt lat="46.59111" lon="4.92138">
        <ele>169.90039</ele>
        <time>2026-05-14T09:33:17+02:00</time>
      </trkpt>
      <trkpt lat="46.59117" lon="4.92146">
        <ele>170.10059</ele>
        <time>2026-05-14T09:33:18+02:00</time>
      </trkpt>
      <trkpt lat="46.59121" lon="4.92151">
        <ele>170.5</ele>
        <time>2026-05-14T09:33:19+02:00</time>
      </trkpt>
      <trkpt lat="46.59125" lon="4.92156">
        <ele>169.7002</ele>
        <time>2026-05-14T09:33:20+02:00</time>
      </trkpt>
      <trkpt lat="46.59129" lon="4.92161">
        <ele>169.7002</ele>
        <time>2026-05-14T09:33:21+02:00</time>
      </trkpt>
      <trkpt lat="46.59132" lon="4.92166">
        <ele>169.40039</ele>
        <time>2026-05-14T09:33:22+02:00</time>
      </trkpt>
      <trkpt lat="46.59136" lon="4.9217">
        <ele>169.40039</ele>
        <time>2026-05-14T09:33:23+02:00</time>
      </trkpt>
      <trkpt lat="46.5914" lon="4.92175">
        <ele>169.40039</ele>
        <time>2026-05-14T09:33:24+02:00</time>
      </trkpt>
      <trkpt lat="46.59142" lon="4.92179">
        <ele>169.60059</ele>
        <time>2026-05-14T09:33:25+02:00</time>
      </trkpt>
      <trkpt lat="46.59146" lon="4.92184">
        <ele>169.60059</ele>
        <time>2026-05-14T09:33:26+02:00</time>
      </trkpt>
      <trkpt lat="46.59149" lon="4.92189">
        <ele>169.7002</ele>
        <time>2026-05-14T09:33:27+02:00</time>
      </trkpt>
      <trkpt lat="46.59153" lon="4.92193">
        <ele>169.7002</ele>
        <time>2026-05-14T09:33:28+02:00</time>
      </trkpt>
      <trkpt lat="46.59156" lon="4.92197">
        <ele>169.60059</ele>
        <time>2026-05-14T09:33:29+02:00</time>
      </trkpt>
      <trkpt lat="46.5916" lon="4.92202">
        <ele>169.60059</ele>
        <time>2026-05-14T09:33:30+02:00</time>
      </trkpt>
      <trkpt lat="46.59164" lon="4.92206">
        <ele>169.40039</ele>
        <time>2026-05-14T09:33:31+02:00</time>
      </trkpt>
      <trkpt lat="46.59168" lon="4.92211">
        <ele>169.40039</ele>
        <time>2026-05-14T09:33:32+02:00</time>
      </trkpt>
      <trkpt lat="46.59172" lon="4.92216">
        <ele>169.40039</ele>
        <time>2026-05-14T09:33:33+02:00</time>
      </trkpt>
      <trkpt lat="46.59176" lon="4.9222">
        <ele>169.7002</ele>
        <time>2026-05-14T09:33:34+02:00</time>
      </trkpt>
      <trkpt lat="46.59179" lon="4.92224">
        <ele>170.2998</ele>
        <time>2026-05-14T09:33:35+02:00</time>
      </trkpt>
      <trkpt lat="46.59183" lon="4.92229">
        <ele>170.2998</ele>
        <time>2026-05-14T09:33:36+02:00</time>
      </trkpt>
      <trkpt lat="46.59187" lon="4.92233">
        <ele>170.90039</ele>
        <time>2026-05-14T09:33:37+02:00</time>
      </trkpt>
      <trkpt lat="46.59191" lon="4.92238">
        <ele>171.60059</ele>
        <time>2026-05-14T09:33:38+02:00</time>
      </trkpt>
      <trkpt lat="46.59196" lon="4.92244">
        <ele>170.2998</ele>
        <time>2026-05-14T09:33:39+02:00</time>
      </trkpt>
      <trkpt lat="46.592" lon="4.92248">
        <ele>169.60059</ele>
        <time>2026-05-14T09:33:40+02:00</time>
      </trkpt>
      <trkpt lat="46.59204" lon="4.92254">
        <ele>169.60059</ele>
        <time>2026-05-14T09:33:41+02:00</time>
      </trkpt>
      <trkpt lat="46.59208" lon="4.92259">
        <ele>169.2998</ele>
        <time>2026-05-14T09:33:42+02:00</time>
      </trkpt>
      <trkpt lat="46.59212" lon="4.92264">
        <ele>169.2998</ele>
        <time>2026-05-14T09:33:43+02:00</time>
      </trkpt>
      <trkpt lat="46.59216" lon="4.92269">
        <ele>169.5</ele>
        <time>2026-05-14T09:33:44+02:00</time>
      </trkpt>
      <trkpt lat="46.5922" lon="4.92273">
        <ele>169.60059</ele>
        <time>2026-05-14T09:33:45+02:00</time>
      </trkpt>
      <trkpt lat="46.59224" lon="4.92277">
        <ele>169.7002</ele>
        <time>2026-05-14T09:33:46+02:00</time>
      </trkpt>
      <trkpt lat="46.59228" lon="4.92281">
        <ele>169.60059</ele>
        <time>2026-05-14T09:33:47+02:00</time>
      </trkpt>
      <trkpt lat="46.59231" lon="4.92285">
        <ele>169.7002</ele>
        <time>2026-05-14T09:33:48+02:00</time>
      </trkpt>
      <trkpt lat="46.59234" lon="4.92288">
        <ele>169.60059</ele>
        <time>2026-05-14T09:33:49+02:00</time>
      </trkpt>
      <trkpt lat="46.59238" lon="4.92293">
        <ele>169.60059</ele>
        <time>2026-05-14T09:33:50+02:00</time>
      </trkpt>
      <trkpt lat="46.59242" lon="4.92297">
        <ele>169.60059</ele>
        <time>2026-05-14T09:33:51+02:00</time>
      </trkpt>
      <trkpt lat="46.59247" lon="4.92302">
        <ele>169.60059</ele>
        <time>2026-05-14T09:33:52+02:00</time>
      </trkpt>
      <trkpt lat="46.5925" lon="4.92306">
        <ele>169.60059</ele>
        <time>2026-05-14T09:33:53+02:00</time>
      </trkpt>
      <trkpt lat="46.59255" lon="4.92311">
        <ele>169.7002</ele>
        <time>2026-05-14T09:33:54+02:00</time>
      </trkpt>
      <trkpt lat="46.59259" lon="4.92316">
        <ele>169.60059</ele>
        <time>2026-05-14T09:33:55+02:00</time>
      </trkpt>
      <trkpt lat="46.59264" lon="4.92321">
        <ele>169.60059</ele>
        <time>2026-05-14T09:33:56+02:00</time>
      </trkpt>
      <trkpt lat="46.59266" lon="4.92324">
        <ele>169.60059</ele>
        <time>2026-05-14T09:33:57+02:00</time>
      </trkpt>
      <trkpt lat="46.59273" lon="4.92331">
        <ele>169.60059</ele>
        <time>2026-05-14T09:33:58+02:00</time>
      </trkpt>
      <trkpt lat="46.59277" lon="4.92335">
        <ele>169.7002</ele>
        <time>2026-05-14T09:33:59+02:00</time>
      </trkpt>
      <trkpt lat="46.59281" lon="4.9234">
        <ele>169.60059</ele>
        <time>2026-05-14T09:34:00+02:00</time>
      </trkpt>
      <trkpt lat="46.59286" lon="4.92344">
        <ele>169.5</ele>
        <time>2026-05-14T09:34:01+02:00</time>
      </trkpt>
      <trkpt lat="46.59291" lon="4.92349">
        <ele>169.60059</ele>
        <time>2026-05-14T09:34:02+02:00</time>
      </trkpt>
      <trkpt lat="46.59295" lon="4.92353">
        <ele>169.60059</ele>
        <time>2026-05-14T09:34:03+02:00</time>
      </trkpt>
      <trkpt lat="46.593" lon="4.92358">
        <ele>169.60059</ele>
        <time>2026-05-14T09:34:04+02:00</time>
      </trkpt>
      <trkpt lat="46.59304" lon="4.92362">
        <ele>169.60059</ele>
        <time>2026-05-14T09:34:05+02:00</time>
      </trkpt>
      <trkpt lat="46.59309" lon="4.92366">
        <ele>169.7002</ele>
        <time>2026-05-14T09:34:06+02:00</time>
      </trkpt>
      <trkpt lat="46.59313" lon="4.92371">
        <ele>169.60059</ele>
        <time>2026-05-14T09:34:07+02:00</time>
      </trkpt>
      <trkpt lat="46.59318" lon="4.92375">
        <ele>169.60059</ele>
        <time>2026-05-14T09:34:08+02:00</time>
      </trkpt>
      <trkpt lat="46.59323" lon="4.9238">
        <ele>169.7002</ele>
        <time>2026-05-14T09:34:09+02:00</time>
      </trkpt>
      <trkpt lat="46.59327" lon="4.92384">
        <ele>169.90039</ele>
        <time>2026-05-14T09:34:10+02:00</time>
      </trkpt>
      <trkpt lat="46.59331" lon="4.92387">
        <ele>169.7002</ele>
        <time>2026-05-14T09:34:11+02:00</time>
      </trkpt>
      <trkpt lat="46.59335" lon="4.92392">
        <ele>169.7998</ele>
        <time>2026-05-14T09:34:12+02:00</time>
      </trkpt>
      <trkpt lat="46.59339" lon="4.92396">
        <ele>169.7002</ele>
        <time>2026-05-14T09:34:13+02:00</time>
      </trkpt>
      <trkpt lat="46.59343" lon="4.92401">
        <ele>169.7002</ele>
        <time>2026-05-14T09:34:14+02:00</time>
      </trkpt>
      <trkpt lat="46.59348" lon="4.92407">
        <ele>169.7002</ele>
        <time>2026-05-14T09:34:15+02:00</time>
      </trkpt>
      <trkpt lat="46.59351" lon="4.92413">
        <ele>169.7998</ele>
        <time>2026-05-14T09:34:16+02:00</time>
      </trkpt>
      <trkpt lat="46.59355" lon="4.92418">
        <ele>169.7998</ele>
        <time>2026-05-14T09:34:17+02:00</time>
      </trkpt>
      <trkpt lat="46.5936" lon="4.92423">
        <ele>169.7998</ele>
        <time>2026-05-14T09:34:18+02:00</time>
      </trkpt>
      <trkpt lat="46.59365" lon="4.92429">
        <ele>169.7002</ele>
        <time>2026-05-14T09:34:19+02:00</time>
      </trkpt>
      <trkpt lat="46.5937" lon="4.92434">
        <ele>169.7002</ele>
        <time>2026-05-14T09:34:20+02:00</time>
      </trkpt>
      <trkpt lat="46.59375" lon="4.92438">
        <ele>169.5</ele>
        <time>2026-05-14T09:34:21+02:00</time>
      </trkpt>
      <trkpt lat="46.5938" lon="4.92443">
        <ele>169.5</ele>
        <time>2026-05-14T09:34:22+02:00</time>
      </trkpt>
      <trkpt lat="46.59385" lon="4.92447">
        <ele>169.60059</ele>
        <time>2026-05-14T09:34:23+02:00</time>
      </trkpt>
      <trkpt lat="46.59387" lon="4.9245">
        <ele>169.60059</ele>
        <time>2026-05-14T09:34:24+02:00</time>
      </trkpt>
      <trkpt lat="46.59395" lon="4.92456">
        <ele>169.7002</ele>
        <time>2026-05-14T09:34:25+02:00</time>
      </trkpt>
      <trkpt lat="46.59399" lon="4.92461">
        <ele>169.60059</ele>
        <time>2026-05-14T09:34:26+02:00</time>
      </trkpt>
      <trkpt lat="46.59404" lon="4.92465">
        <ele>169.5</ele>
        <time>2026-05-14T09:34:27+02:00</time>
      </trkpt>
      <trkpt lat="46.59408" lon="4.9247">
        <ele>169.5</ele>
        <time>2026-05-14T09:34:28+02:00</time>
      </trkpt>
      <trkpt lat="46.59412" lon="4.92475">
        <ele>169.60059</ele>
        <time>2026-05-14T09:34:29+02:00</time>
      </trkpt>
      <trkpt lat="46.59416" lon="4.9248">
        <ele>169.7002</ele>
        <time>2026-05-14T09:34:30+02:00</time>
      </trkpt>
      <trkpt lat="46.5942" lon="4.92485">
        <ele>169.7002</ele>
        <time>2026-05-14T09:34:31+02:00</time>
      </trkpt>
      <trkpt lat="46.59432" lon="4.92502">
        <ele>169.5</ele>
        <time>2026-05-14T09:34:32+02:00</time>
      </trkpt>
      <trkpt lat="46.59436" lon="4.92507">
        <ele>169.60059</ele>
        <time>2026-05-14T09:34:33+02:00</time>
      </trkpt>
      <trkpt lat="46.5944" lon="4.92513">
        <ele>169.60059</ele>
        <time>2026-05-14T09:34:34+02:00</time>
      </trkpt>
      <trkpt lat="46.59444" lon="4.92519">
        <ele>169.60059</ele>
        <time>2026-05-14T09:34:35+02:00</time>
      </trkpt>
      <trkpt lat="46.59448" lon="4.92525">
        <ele>169.60059</ele>
        <time>2026-05-14T09:34:36+02:00</time>
      </trkpt>
      <trkpt lat="46.59453" lon="4.9253">
        <ele>169.5</ele>
        <time>2026-05-14T09:34:37+02:00</time>
      </trkpt>
      <trkpt lat="46.59457" lon="4.92535">
        <ele>169.60059</ele>
        <time>2026-05-14T09:34:38+02:00</time>
      </trkpt>
      <trkpt lat="46.59461" lon="4.9254">
        <ele>169.7002</ele>
        <time>2026-05-14T09:34:39+02:00</time>
      </trkpt>
      <trkpt lat="46.59465" lon="4.92544">
        <ele>169.7002</ele>
        <time>2026-05-14T09:34:40+02:00</time>
      </trkpt>
      <trkpt lat="46.59469" lon="4.92548">
        <ele>169.7002</ele>
        <time>2026-05-14T09:34:41+02:00</time>
      </trkpt>
      <trkpt lat="46.59472" lon="4.92552">
        <ele>169.60059</ele>
        <time>2026-05-14T09:34:42+02:00</time>
      </trkpt>
      <trkpt lat="46.59476" lon="4.92556">
        <ele>169.60059</ele>
        <time>2026-05-14T09:34:43+02:00</time>
      </trkpt>
      <trkpt lat="46.5948" lon="4.9256">
        <ele>169.60059</ele>
        <time>2026-05-14T09:34:44+02:00</time>
      </trkpt>
      <trkpt lat="46.59484" lon="4.92564">
        <ele>169.60059</ele>
        <time>2026-05-14T09:34:45+02:00</time>
      </trkpt>
      <trkpt lat="46.59488" lon="4.92569">
        <ele>169.60059</ele>
        <time>2026-05-14T09:34:46+02:00</time>
      </trkpt>
      <trkpt lat="46.59492" lon="4.92573">
        <ele>169.7002</ele>
        <time>2026-05-14T09:34:47+02:00</time>
      </trkpt>
      <trkpt lat="46.59497" lon="4.92578">
        <ele>169.60059</ele>
        <time>2026-05-14T09:34:48+02:00</time>
      </trkpt>
      <trkpt lat="46.59501" lon="4.92583">
        <ele>169.60059</ele>
        <time>2026-05-14T09:34:49+02:00</time>
      </trkpt>
      <trkpt lat="46.59506" lon="4.92588">
        <ele>169.60059</ele>
        <time>2026-05-14T09:34:50+02:00</time>
      </trkpt>
      <trkpt lat="46.59511" lon="4.92593">
        <ele>169.60059</ele>
        <time>2026-05-14T09:34:51+02:00</time>
      </trkpt>
      <trkpt lat="46.59515" lon="4.92598">
        <ele>169.7998</ele>
        <time>2026-05-14T09:34:52+02:00</time>
      </trkpt>
      <trkpt lat="46.5952" lon="4.92603">
        <ele>169.7002</ele>
        <time>2026-05-14T09:34:53+02:00</time>
      </trkpt>
      <trkpt lat="46.59525" lon="4.92608">
        <ele>169.7002</ele>
        <time>2026-05-14T09:34:54+02:00</time>
      </trkpt>
      <trkpt lat="46.59529" lon="4.92613">
        <ele>169.7002</ele>
        <time>2026-05-14T09:34:55+02:00</time>
      </trkpt>
      <trkpt lat="46.59533" lon="4.92618">
        <ele>169.60059</ele>
        <time>2026-05-14T09:34:56+02:00</time>
      </trkpt>
      <trkpt lat="46.59538" lon="4.92623">
        <ele>169.60059</ele>
        <time>2026-05-14T09:34:57+02:00</time>
      </trkpt>
      <trkpt lat="46.5954" lon="4.92625">
        <ele>169.7998</ele>
        <time>2026-05-14T09:34:58+02:00</time>
      </trkpt>
      <trkpt lat="46.59547" lon="4.92632">
        <ele>169.7998</ele>
        <time>2026-05-14T09:34:59+02:00</time>
      </trkpt>
      <trkpt lat="46.59551" lon="4.92636">
        <ele>169.7002</ele>
        <time>2026-05-14T09:35:00+02:00</time>
      </trkpt>
      <trkpt lat="46.59556" lon="4.9264">
        <ele>169.7002</ele>
        <time>2026-05-14T09:35:01+02:00</time>
      </trkpt>
      <trkpt lat="46.5956" lon="4.92644">
        <ele>169.60059</ele>
        <time>2026-05-14T09:35:02+02:00</time>
      </trkpt>
      <trkpt lat="46.59564" lon="4.92647">
        <ele>169.60059</ele>
        <time>2026-05-14T09:35:03+02:00</time>
      </trkpt>
      <trkpt lat="46.59569" lon="4.92651">
        <ele>169.5</ele>
        <time>2026-05-14T09:35:04+02:00</time>
      </trkpt>
      <trkpt lat="46.59573" lon="4.92654">
        <ele>169.60059</ele>
        <time>2026-05-14T09:35:05+02:00</time>
      </trkpt>
      <trkpt lat="46.59578" lon="4.92657">
        <ele>169.60059</ele>
        <time>2026-05-14T09:35:06+02:00</time>
      </trkpt>
      <trkpt lat="46.59582" lon="4.92659">
        <ele>169.60059</ele>
        <time>2026-05-14T09:35:07+02:00</time>
      </trkpt>
      <trkpt lat="46.59586" lon="4.92662">
        <ele>169.7002</ele>
        <time>2026-05-14T09:35:08+02:00</time>
      </trkpt>
      <trkpt lat="46.59591" lon="4.92664">
        <ele>169.7002</ele>
        <time>2026-05-14T09:35:09+02:00</time>
      </trkpt>
      <trkpt lat="46.59595" lon="4.92667">
        <ele>169.7002</ele>
        <time>2026-05-14T09:35:10+02:00</time>
      </trkpt>
      <trkpt lat="46.59599" lon="4.9267">
        <ele>169.7002</ele>
        <time>2026-05-14T09:35:11+02:00</time>
      </trkpt>
      <trkpt lat="46.59604" lon="4.92674">
        <ele>169.7002</ele>
        <time>2026-05-14T09:35:12+02:00</time>
      </trkpt>
      <trkpt lat="46.59609" lon="4.92677">
        <ele>169.7998</ele>
        <time>2026-05-14T09:35:13+02:00</time>
      </trkpt>
      <trkpt lat="46.59614" lon="4.9268">
        <ele>169.7998</ele>
        <time>2026-05-14T09:35:14+02:00</time>
      </trkpt>
      <trkpt lat="46.59618" lon="4.92684">
        <ele>169.90039</ele>
        <time>2026-05-14T09:35:15+02:00</time>
      </trkpt>
      <trkpt lat="46.59623" lon="4.92687">
        <ele>169.7998</ele>
        <time>2026-05-14T09:35:16+02:00</time>
      </trkpt>
      <trkpt lat="46.59628" lon="4.9269">
        <ele>169.7998</ele>
        <time>2026-05-14T09:35:17+02:00</time>
      </trkpt>
      <trkpt lat="46.59633" lon="4.92693">
        <ele>169.7998</ele>
        <time>2026-05-14T09:35:18+02:00</time>
      </trkpt>
      <trkpt lat="46.59638" lon="4.92695">
        <ele>169.7002</ele>
        <time>2026-05-14T09:35:19+02:00</time>
      </trkpt>
      <trkpt lat="46.59643" lon="4.92698">
        <ele>169.7002</ele>
        <time>2026-05-14T09:35:20+02:00</time>
      </trkpt>
      <trkpt lat="46.59649" lon="4.92701">
        <ele>169.7002</ele>
        <time>2026-05-14T09:35:21+02:00</time>
      </trkpt>
      <trkpt lat="46.59654" lon="4.92704">
        <ele>169.7002</ele>
        <time>2026-05-14T09:35:22+02:00</time>
      </trkpt>
      <trkpt lat="46.59659" lon="4.92707">
        <ele>169.7998</ele>
        <time>2026-05-14T09:35:23+02:00</time>
      </trkpt>
      <trkpt lat="46.59664" lon="4.9271">
        <ele>169.90039</ele>
        <time>2026-05-14T09:35:24+02:00</time>
      </trkpt>
      <trkpt lat="46.59669" lon="4.92713">
        <ele>169.7998</ele>
        <time>2026-05-14T09:35:25+02:00</time>
      </trkpt>
      <trkpt lat="46.59674" lon="4.92716">
        <ele>169.7998</ele>
        <time>2026-05-14T09:35:26+02:00</time>
      </trkpt>
      <trkpt lat="46.59679" lon="4.92718">
        <ele>169.7998</ele>
        <time>2026-05-14T09:35:27+02:00</time>
      </trkpt>
      <trkpt lat="46.59684" lon="4.92721">
        <ele>169.7002</ele>
        <time>2026-05-14T09:35:28+02:00</time>
      </trkpt>
      <trkpt lat="46.59689" lon="4.92724">
        <ele>169.7002</ele>
        <time>2026-05-14T09:35:29+02:00</time>
      </trkpt>
      <trkpt lat="46.59694" lon="4.92727">
        <ele>169.7002</ele>
        <time>2026-05-14T09:35:30+02:00</time>
      </trkpt>
      <trkpt lat="46.59699" lon="4.9273">
        <ele>169.7002</ele>
        <time>2026-05-14T09:35:31+02:00</time>
      </trkpt>
      <trkpt lat="46.59704" lon="4.92734">
        <ele>169.7998</ele>
        <time>2026-05-14T09:35:32+02:00</time>
      </trkpt>
      <trkpt lat="46.59709" lon="4.92738">
        <ele>169.7998</ele>
        <time>2026-05-14T09:35:33+02:00</time>
      </trkpt>
      <trkpt lat="46.59712" lon="4.9274">
        <ele>169.7998</ele>
        <time>2026-05-14T09:35:34+02:00</time>
      </trkpt>
      <trkpt lat="46.5972" lon="4.92745">
        <ele>169.90039</ele>
        <time>2026-05-14T09:35:35+02:00</time>
      </trkpt>
      <trkpt lat="46.59724" lon="4.92749">
        <ele>169.7002</ele>
        <time>2026-05-14T09:35:36+02:00</time>
      </trkpt>
      <trkpt lat="46.59729" lon="4.92752">
        <ele>169.7002</ele>
        <time>2026-05-14T09:35:37+02:00</time>
      </trkpt>
      <trkpt lat="46.59734" lon="4.92756">
        <ele>169.5</ele>
        <time>2026-05-14T09:35:38+02:00</time>
      </trkpt>
      <trkpt lat="46.59737" lon="4.92757">
        <ele>169.5</ele>
        <time>2026-05-14T09:35:39+02:00</time>
      </trkpt>
      <trkpt lat="46.59744" lon="4.92762">
        <ele>169.60059</ele>
        <time>2026-05-14T09:35:40+02:00</time>
      </trkpt>
      <trkpt lat="46.59749" lon="4.92766">
        <ele>169.7002</ele>
        <time>2026-05-14T09:35:41+02:00</time>
      </trkpt>
      <trkpt lat="46.59754" lon="4.92769">
        <ele>169.90039</ele>
        <time>2026-05-14T09:35:42+02:00</time>
      </trkpt>
      <trkpt lat="46.59759" lon="4.92773">
        <ele>169.7002</ele>
        <time>2026-05-14T09:35:43+02:00</time>
      </trkpt>
      <trkpt lat="46.59764" lon="4.92776">
        <ele>170</ele>
        <time>2026-05-14T09:35:44+02:00</time>
      </trkpt>
      <trkpt lat="46.59769" lon="4.9278">
        <ele>170.2998</ele>
        <time>2026-05-14T09:35:45+02:00</time>
      </trkpt>
      <trkpt lat="46.59775" lon="4.92783">
        <ele>171.60059</ele>
        <time>2026-05-14T09:35:46+02:00</time>
      </trkpt>
      <trkpt lat="46.59779" lon="4.92787">
        <ele>171.60059</ele>
        <time>2026-05-14T09:35:47+02:00</time>
      </trkpt>
      <trkpt lat="46.59784" lon="4.92791">
        <ele>172.10059</ele>
        <time>2026-05-14T09:35:48+02:00</time>
      </trkpt>
      <trkpt lat="46.59789" lon="4.92794">
        <ele>172.7002</ele>
        <time>2026-05-14T09:35:49+02:00</time>
      </trkpt>
      <trkpt lat="46.59794" lon="4.92797">
        <ele>171.10059</ele>
        <time>2026-05-14T09:35:50+02:00</time>
      </trkpt>
      <trkpt lat="46.59797" lon="4.928">
        <ele>171.10059</ele>
        <time>2026-05-14T09:35:51+02:00</time>
      </trkpt>
      <trkpt lat="46.59801" lon="4.92802">
        <ele>170.7002</ele>
        <time>2026-05-14T09:35:52+02:00</time>
      </trkpt>
      <trkpt lat="46.59805" lon="4.92804">
        <ele>170.5</ele>
        <time>2026-05-14T09:35:53+02:00</time>
      </trkpt>
      <trkpt lat="46.5981" lon="4.92806">
        <ele>169.7998</ele>
        <time>2026-05-14T09:35:54+02:00</time>
      </trkpt>
      <trkpt lat="46.59815" lon="4.92808">
        <ele>169.7998</ele>
        <time>2026-05-14T09:35:55+02:00</time>
      </trkpt>
      <trkpt lat="46.5982" lon="4.92811">
        <ele>169.7002</ele>
        <time>2026-05-14T09:35:56+02:00</time>
      </trkpt>
      <trkpt lat="46.59825" lon="4.92813">
        <ele>169.60059</ele>
        <time>2026-05-14T09:35:57+02:00</time>
      </trkpt>
      <trkpt lat="46.5983" lon="4.92815">
        <ele>169.40039</ele>
        <time>2026-05-14T09:35:58+02:00</time>
      </trkpt>
      <trkpt lat="46.59835" lon="4.92816">
        <ele>169.5</ele>
        <time>2026-05-14T09:35:59+02:00</time>
      </trkpt>
      <trkpt lat="46.59841" lon="4.92818">
        <ele>169.7998</ele>
        <time>2026-05-14T09:36:00+02:00</time>
      </trkpt>
      <trkpt lat="46.59845" lon="4.92819">
        <ele>170.2998</ele>
        <time>2026-05-14T09:36:01+02:00</time>
      </trkpt>
      <trkpt lat="46.5985" lon="4.92821">
        <ele>170.2998</ele>
        <time>2026-05-14T09:36:02+02:00</time>
      </trkpt>
      <trkpt lat="46.59855" lon="4.92823">
        <ele>170.2002</ele>
        <time>2026-05-14T09:36:03+02:00</time>
      </trkpt>
      <trkpt lat="46.5986" lon="4.92825">
        <ele>170.40039</ele>
        <time>2026-05-14T09:36:04+02:00</time>
      </trkpt>
      <trkpt lat="46.59865" lon="4.92826">
        <ele>170.40039</ele>
        <time>2026-05-14T09:36:05+02:00</time>
      </trkpt>
      <trkpt lat="46.59871" lon="4.92828">
        <ele>170.2998</ele>
        <time>2026-05-14T09:36:06+02:00</time>
      </trkpt>
      <trkpt lat="46.59877" lon="4.9283">
        <ele>170.2998</ele>
        <time>2026-05-14T09:36:07+02:00</time>
      </trkpt>
      <trkpt lat="46.59882" lon="4.92831">
        <ele>170.2998</ele>
        <time>2026-05-14T09:36:08+02:00</time>
      </trkpt>
      <trkpt lat="46.59887" lon="4.92831">
        <ele>170.10059</ele>
        <time>2026-05-14T09:36:09+02:00</time>
      </trkpt>
      <trkpt lat="46.59892" lon="4.92831">
        <ele>170</ele>
        <time>2026-05-14T09:36:10+02:00</time>
      </trkpt>
      <trkpt lat="46.59897" lon="4.92831">
        <ele>170</ele>
        <time>2026-05-14T09:36:11+02:00</time>
      </trkpt>
      <trkpt lat="46.59903" lon="4.92831">
        <ele>170.2998</ele>
        <time>2026-05-14T09:36:12+02:00</time>
      </trkpt>
      <trkpt lat="46.59908" lon="4.92831">
        <ele>171.10059</ele>
        <time>2026-05-14T09:36:13+02:00</time>
      </trkpt>
      <trkpt lat="46.59913" lon="4.92832">
        <ele>172.5</ele>
        <time>2026-05-14T09:36:14+02:00</time>
      </trkpt>
      <trkpt lat="46.59918" lon="4.92834">
        <ele>175.5</ele>
        <time>2026-05-14T09:36:15+02:00</time>
      </trkpt>
      <trkpt lat="46.59923" lon="4.92837">
        <ele>177.7002</ele>
        <time>2026-05-14T09:36:16+02:00</time>
      </trkpt>
      <trkpt lat="46.59928" lon="4.92841">
        <ele>175.7998</ele>
        <time>2026-05-14T09:36:17+02:00</time>
      </trkpt>
      <trkpt lat="46.59934" lon="4.92845">
        <ele>174.7002</ele>
        <time>2026-05-14T09:36:18+02:00</time>
      </trkpt>
      <trkpt lat="46.59939" lon="4.92849">
        <ele>172.2998</ele>
        <time>2026-05-14T09:36:19+02:00</time>
      </trkpt>
      <trkpt lat="46.59943" lon="4.92853">
        <ele>171.40039</ele>
        <time>2026-05-14T09:36:20+02:00</time>
      </trkpt>
      <trkpt lat="46.59948" lon="4.92857">
        <ele>169.7998</ele>
        <time>2026-05-14T09:36:21+02:00</time>
      </trkpt>
      <trkpt lat="46.59953" lon="4.92862">
        <ele>170.10059</ele>
        <time>2026-05-14T09:36:22+02:00</time>
      </trkpt>
      <trkpt lat="46.59958" lon="4.92866">
        <ele>170.2998</ele>
        <time>2026-05-14T09:36:23+02:00</time>
      </trkpt>
      <trkpt lat="46.59963" lon="4.92871">
        <ele>170.7998</ele>
        <time>2026-05-14T09:36:24+02:00</time>
      </trkpt>
      <trkpt lat="46.59968" lon="4.92876">
        <ele>170.2002</ele>
        <time>2026-05-14T09:36:25+02:00</time>
      </trkpt>
      <trkpt lat="46.59973" lon="4.9288">
        <ele>170.60059</ele>
        <time>2026-05-14T09:36:26+02:00</time>
      </trkpt>
      <trkpt lat="46.59977" lon="4.92885">
        <ele>170.2002</ele>
        <time>2026-05-14T09:36:27+02:00</time>
      </trkpt>
      <trkpt lat="46.59982" lon="4.92889">
        <ele>170.7002</ele>
        <time>2026-05-14T09:36:28+02:00</time>
      </trkpt>
      <trkpt lat="46.59987" lon="4.92894">
        <ele>170.90039</ele>
        <time>2026-05-14T09:36:29+02:00</time>
      </trkpt>
      <trkpt lat="46.59992" lon="4.92898">
        <ele>170.90039</ele>
        <time>2026-05-14T09:36:30+02:00</time>
      </trkpt>
      <trkpt lat="46.59997" lon="4.92902">
        <ele>170.7998</ele>
        <time>2026-05-14T09:36:31+02:00</time>
      </trkpt>
      <trkpt lat="46.60002" lon="4.92907">
        <ele>171.2002</ele>
        <time>2026-05-14T09:36:32+02:00</time>
      </trkpt>
      <trkpt lat="46.60006" lon="4.92911">
        <ele>171.10059</ele>
        <time>2026-05-14T09:36:33+02:00</time>
      </trkpt>
      <trkpt lat="46.60009" lon="4.92913">
        <ele>171.10059</ele>
        <time>2026-05-14T09:36:34+02:00</time>
      </trkpt>
      <trkpt lat="46.60016" lon="4.9292">
        <ele>171.7002</ele>
        <time>2026-05-14T09:36:35+02:00</time>
      </trkpt>
      <trkpt lat="46.60021" lon="4.92925">
        <ele>171.7002</ele>
        <time>2026-05-14T09:36:36+02:00</time>
      </trkpt>
      <trkpt lat="46.60025" lon="4.92929">
        <ele>171.60059</ele>
        <time>2026-05-14T09:36:37+02:00</time>
      </trkpt>
      <trkpt lat="46.6003" lon="4.92934">
        <ele>172.10059</ele>
        <time>2026-05-14T09:36:38+02:00</time>
      </trkpt>
      <trkpt lat="46.60032" lon="4.92935">
        <ele>171.5</ele>
        <time>2026-05-14T09:36:39+02:00</time>
      </trkpt>
      <trkpt lat="46.6004" lon="4.92941">
        <ele>172.7998</ele>
        <time>2026-05-14T09:36:40+02:00</time>
      </trkpt>
      <trkpt lat="46.60045" lon="4.92945">
        <ele>172.60059</ele>
        <time>2026-05-14T09:36:41+02:00</time>
      </trkpt>
      <trkpt lat="46.60051" lon="4.92949">
        <ele>173.2002</ele>
        <time>2026-05-14T09:36:42+02:00</time>
      </trkpt>
      <trkpt lat="46.60056" lon="4.92953">
        <ele>173.5</ele>
        <time>2026-05-14T09:36:43+02:00</time>
      </trkpt>
      <trkpt lat="46.60058" lon="4.92955">
        <ele>174</ele>
        <time>2026-05-14T09:36:44+02:00</time>
      </trkpt>
      <trkpt lat="46.60065" lon="4.9296">
        <ele>172.7998</ele>
        <time>2026-05-14T09:36:45+02:00</time>
      </trkpt>
      <trkpt lat="46.60069" lon="4.92963">
        <ele>172.90039</ele>
        <time>2026-05-14T09:36:46+02:00</time>
      </trkpt>
      <trkpt lat="46.60074" lon="4.92967">
        <ele>172.90039</ele>
        <time>2026-05-14T09:36:47+02:00</time>
      </trkpt>
      <trkpt lat="46.60078" lon="4.9297">
        <ele>171.7998</ele>
        <time>2026-05-14T09:36:48+02:00</time>
      </trkpt>
      <trkpt lat="46.6008" lon="4.92972">
        <ele>171.7998</ele>
        <time>2026-05-14T09:36:49+02:00</time>
      </trkpt>
      <trkpt lat="46.60086" lon="4.92977">
        <ele>172.60059</ele>
        <time>2026-05-14T09:36:50+02:00</time>
      </trkpt>
      <trkpt lat="46.6009" lon="4.92981">
        <ele>173</ele>
        <time>2026-05-14T09:36:51+02:00</time>
      </trkpt>
      <trkpt lat="46.60095" lon="4.92984">
        <ele>173</ele>
        <time>2026-05-14T09:36:52+02:00</time>
      </trkpt>
      <trkpt lat="46.601" lon="4.92988">
        <ele>172</ele>
        <time>2026-05-14T09:36:53+02:00</time>
      </trkpt>
      <trkpt lat="46.60104" lon="4.92991">
        <ele>172</ele>
        <time>2026-05-14T09:36:54+02:00</time>
      </trkpt>
      <trkpt lat="46.60109" lon="4.92995">
        <ele>170.60059</ele>
        <time>2026-05-14T09:36:55+02:00</time>
      </trkpt>
      <trkpt lat="46.60114" lon="4.92999">
        <ele>170.5</ele>
        <time>2026-05-14T09:36:56+02:00</time>
      </trkpt>
      <trkpt lat="46.60119" lon="4.93002">
        <ele>170.7002</ele>
        <time>2026-05-14T09:36:57+02:00</time>
      </trkpt>
      <trkpt lat="46.60123" lon="4.93006">
        <ele>170.60059</ele>
        <time>2026-05-14T09:36:58+02:00</time>
      </trkpt>
      <trkpt lat="46.60128" lon="4.9301">
        <ele>171.2002</ele>
        <time>2026-05-14T09:36:59+02:00</time>
      </trkpt>
      <trkpt lat="46.60133" lon="4.93013">
        <ele>170.90039</ele>
        <time>2026-05-14T09:37:00+02:00</time>
      </trkpt>
      <trkpt lat="46.60138" lon="4.93016">
        <ele>171.2998</ele>
        <time>2026-05-14T09:37:01+02:00</time>
      </trkpt>
      <trkpt lat="46.60143" lon="4.9302">
        <ele>171.2998</ele>
        <time>2026-05-14T09:37:02+02:00</time>
      </trkpt>
      <trkpt lat="46.60148" lon="4.93024">
        <ele>170.60059</ele>
        <time>2026-05-14T09:37:03+02:00</time>
      </trkpt>
      <trkpt lat="46.6015" lon="4.93025">
        <ele>170.60059</ele>
        <time>2026-05-14T09:37:04+02:00</time>
      </trkpt>
      <trkpt lat="46.60158" lon="4.93031">
        <ele>169.90039</ele>
        <time>2026-05-14T09:37:05+02:00</time>
      </trkpt>
      <trkpt lat="46.60162" lon="4.93034">
        <ele>169.90039</ele>
        <time>2026-05-14T09:37:06+02:00</time>
      </trkpt>
      <trkpt lat="46.60168" lon="4.93038">
        <ele>169.7998</ele>
        <time>2026-05-14T09:37:07+02:00</time>
      </trkpt>
      <trkpt lat="46.60172" lon="4.93041">
        <ele>170.10059</ele>
        <time>2026-05-14T09:37:08+02:00</time>
      </trkpt>
      <trkpt lat="46.60177" lon="4.93045">
        <ele>170.5</ele>
        <time>2026-05-14T09:37:09+02:00</time>
      </trkpt>
      <trkpt lat="46.60182" lon="4.93049">
        <ele>170.5</ele>
        <time>2026-05-14T09:37:10+02:00</time>
      </trkpt>
      <trkpt lat="46.60187" lon="4.93052">
        <ele>170.7998</ele>
        <time>2026-05-14T09:37:11+02:00</time>
      </trkpt>
      <trkpt lat="46.60192" lon="4.93056">
        <ele>170.2998</ele>
        <time>2026-05-14T09:37:12+02:00</time>
      </trkpt>
      <trkpt lat="46.60197" lon="4.93059">
        <ele>170.7002</ele>
        <time>2026-05-14T09:37:13+02:00</time>
      </trkpt>
      <trkpt lat="46.60202" lon="4.93062">
        <ele>171.10059</ele>
        <time>2026-05-14T09:37:14+02:00</time>
      </trkpt>
      <trkpt lat="46.60206" lon="4.93066">
        <ele>171.10059</ele>
        <time>2026-05-14T09:37:15+02:00</time>
      </trkpt>
      <trkpt lat="46.60211" lon="4.93069">
        <ele>171.5</ele>
        <time>2026-05-14T09:37:16+02:00</time>
      </trkpt>
      <trkpt lat="46.60216" lon="4.93073">
        <ele>170.90039</ele>
        <time>2026-05-14T09:37:17+02:00</time>
      </trkpt>
      <trkpt lat="46.6022" lon="4.93077">
        <ele>171.10059</ele>
        <time>2026-05-14T09:37:18+02:00</time>
      </trkpt>
      <trkpt lat="46.60225" lon="4.93082">
        <ele>170.5</ele>
        <time>2026-05-14T09:37:19+02:00</time>
      </trkpt>
      <trkpt lat="46.6023" lon="4.93086">
        <ele>170.7002</ele>
        <time>2026-05-14T09:37:20+02:00</time>
      </trkpt>
      <trkpt lat="46.60234" lon="4.9309">
        <ele>170.2002</ele>
        <time>2026-05-14T09:37:21+02:00</time>
      </trkpt>
      <trkpt lat="46.60236" lon="4.93093">
        <ele>170.2002</ele>
        <time>2026-05-14T09:37:22+02:00</time>
      </trkpt>
      <trkpt lat="46.60243" lon="4.93099">
        <ele>170.2002</ele>
        <time>2026-05-14T09:37:23+02:00</time>
      </trkpt>
      <trkpt lat="46.60248" lon="4.93103">
        <ele>170.7998</ele>
        <time>2026-05-14T09:37:24+02:00</time>
      </trkpt>
      <trkpt lat="46.60252" lon="4.93108">
        <ele>170.7002</ele>
        <time>2026-05-14T09:37:25+02:00</time>
      </trkpt>
      <trkpt lat="46.60257" lon="4.93113">
        <ele>170.7002</ele>
        <time>2026-05-14T09:37:26+02:00</time>
      </trkpt>
      <trkpt lat="46.60261" lon="4.93117">
        <ele>170.10059</ele>
        <time>2026-05-14T09:37:27+02:00</time>
      </trkpt>
      <trkpt lat="46.60265" lon="4.93121">
        <ele>170</ele>
        <time>2026-05-14T09:37:28+02:00</time>
      </trkpt>
      <trkpt lat="46.60269" lon="4.93125">
        <ele>169.2998</ele>
        <time>2026-05-14T09:37:29+02:00</time>
      </trkpt>
      <trkpt lat="46.60274" lon="4.93129">
        <ele>169.2998</ele>
        <time>2026-05-14T09:37:30+02:00</time>
      </trkpt>
      <trkpt lat="46.60278" lon="4.93132">
        <ele>169.40039</ele>
        <time>2026-05-14T09:37:31+02:00</time>
      </trkpt>
      <trkpt lat="46.60282" lon="4.93136">
        <ele>170.10059</ele>
        <time>2026-05-14T09:37:32+02:00</time>
      </trkpt>
      <trkpt lat="46.60287" lon="4.9314">
        <ele>171.90039</ele>
        <time>2026-05-14T09:37:33+02:00</time>
      </trkpt>
      <trkpt lat="46.60291" lon="4.93144">
        <ele>170.60059</ele>
        <time>2026-05-14T09:37:34+02:00</time>
      </trkpt>
      <trkpt lat="46.60296" lon="4.93148">
        <ele>171.5</ele>
        <time>2026-05-14T09:37:35+02:00</time>
      </trkpt>
      <trkpt lat="46.60301" lon="4.93153">
        <ele>170.2002</ele>
        <time>2026-05-14T09:37:36+02:00</time>
      </trkpt>
      <trkpt lat="46.60305" lon="4.93158">
        <ele>169.7998</ele>
        <time>2026-05-14T09:37:37+02:00</time>
      </trkpt>
      <trkpt lat="46.6031" lon="4.93163">
        <ele>169.7998</ele>
        <time>2026-05-14T09:37:38+02:00</time>
      </trkpt>
      <trkpt lat="46.60314" lon="4.93168">
        <ele>170.10059</ele>
        <time>2026-05-14T09:37:39+02:00</time>
      </trkpt>
      <trkpt lat="46.60319" lon="4.93173">
        <ele>170.7002</ele>
        <time>2026-05-14T09:37:40+02:00</time>
      </trkpt>
      <trkpt lat="46.60321" lon="4.93175">
        <ele>169.90039</ele>
        <time>2026-05-14T09:37:41+02:00</time>
      </trkpt>
      <trkpt lat="46.60328" lon="4.93183">
        <ele>170.2002</ele>
        <time>2026-05-14T09:37:42+02:00</time>
      </trkpt>
      <trkpt lat="46.60332" lon="4.93188">
        <ele>170</ele>
        <time>2026-05-14T09:37:43+02:00</time>
      </trkpt>
      <trkpt lat="46.60337" lon="4.93193">
        <ele>170.2002</ele>
        <time>2026-05-14T09:37:44+02:00</time>
      </trkpt>
      <trkpt lat="46.60342" lon="4.93198">
        <ele>170.7002</ele>
        <time>2026-05-14T09:37:45+02:00</time>
      </trkpt>
      <trkpt lat="46.60346" lon="4.93204">
        <ele>170.10059</ele>
        <time>2026-05-14T09:37:46+02:00</time>
      </trkpt>
      <trkpt lat="46.60351" lon="4.93208">
        <ele>170.40039</ele>
        <time>2026-05-14T09:37:47+02:00</time>
      </trkpt>
      <trkpt lat="46.60355" lon="4.93213">
        <ele>170.10059</ele>
        <time>2026-05-14T09:37:48+02:00</time>
      </trkpt>
      <trkpt lat="46.6036" lon="4.93217">
        <ele>170.60059</ele>
        <time>2026-05-14T09:37:49+02:00</time>
      </trkpt>
      <trkpt lat="46.60364" lon="4.93222">
        <ele>170.7002</ele>
        <time>2026-05-14T09:37:50+02:00</time>
      </trkpt>
      <trkpt lat="46.60368" lon="4.93226">
        <ele>170.7002</ele>
        <time>2026-05-14T09:37:51+02:00</time>
      </trkpt>
      <trkpt lat="46.60372" lon="4.9323">
        <ele>170.5</ele>
        <time>2026-05-14T09:37:52+02:00</time>
      </trkpt>
      <trkpt lat="46.60376" lon="4.93235">
        <ele>170.2998</ele>
        <time>2026-05-14T09:37:53+02:00</time>
      </trkpt>
      <trkpt lat="46.60381" lon="4.93239">
        <ele>170.2998</ele>
        <time>2026-05-14T09:37:54+02:00</time>
      </trkpt>
      <trkpt lat="46.60385" lon="4.93244">
        <ele>170.2002</ele>
        <time>2026-05-14T09:37:55+02:00</time>
      </trkpt>
      <trkpt lat="46.60389" lon="4.93249">
        <ele>170.60059</ele>
        <time>2026-05-14T09:37:56+02:00</time>
      </trkpt>
      <trkpt lat="46.60393" lon="4.93254">
        <ele>170.5</ele>
        <time>2026-05-14T09:37:57+02:00</time>
      </trkpt>
      <trkpt lat="46.60397" lon="4.93259">
        <ele>170.5</ele>
        <time>2026-05-14T09:37:58+02:00</time>
      </trkpt>
      <trkpt lat="46.60401" lon="4.93264">
        <ele>170.10059</ele>
        <time>2026-05-14T09:37:59+02:00</time>
      </trkpt>
      <trkpt lat="46.60405" lon="4.93269">
        <ele>169.7002</ele>
        <time>2026-05-14T09:38:00+02:00</time>
      </trkpt>
      <trkpt lat="46.60409" lon="4.93274">
        <ele>169.7002</ele>
        <time>2026-05-14T09:38:01+02:00</time>
      </trkpt>
      <trkpt lat="46.60413" lon="4.93279">
        <ele>169.5</ele>
        <time>2026-05-14T09:38:02+02:00</time>
      </trkpt>
      <trkpt lat="46.60417" lon="4.93284">
        <ele>169.60059</ele>
        <time>2026-05-14T09:38:03+02:00</time>
      </trkpt>
      <trkpt lat="46.60421" lon="4.93289">
        <ele>169.5</ele>
        <time>2026-05-14T09:38:04+02:00</time>
      </trkpt>
      <trkpt lat="46.60425" lon="4.93294">
        <ele>169.60059</ele>
        <time>2026-05-14T09:38:05+02:00</time>
      </trkpt>
      <trkpt lat="46.60429" lon="4.93299">
        <ele>169.7002</ele>
        <time>2026-05-14T09:38:06+02:00</time>
      </trkpt>
      <trkpt lat="46.60433" lon="4.93304">
        <ele>169.60059</ele>
        <time>2026-05-14T09:38:07+02:00</time>
      </trkpt>
      <trkpt lat="46.60438" lon="4.93309">
        <ele>169.60059</ele>
        <time>2026-05-14T09:38:08+02:00</time>
      </trkpt>
      <trkpt lat="46.60442" lon="4.93314">
        <ele>169.5</ele>
        <time>2026-05-14T09:38:09+02:00</time>
      </trkpt>
      <trkpt lat="46.60446" lon="4.93319">
        <ele>169.5</ele>
        <time>2026-05-14T09:38:10+02:00</time>
      </trkpt>
      <trkpt lat="46.60451" lon="4.93324">
        <ele>169.60059</ele>
        <time>2026-05-14T09:38:11+02:00</time>
      </trkpt>
      <trkpt lat="46.60455" lon="4.93329">
        <ele>169.7998</ele>
        <time>2026-05-14T09:38:12+02:00</time>
      </trkpt>
      <trkpt lat="46.60459" lon="4.93333">
        <ele>169.60059</ele>
        <time>2026-05-14T09:38:13+02:00</time>
      </trkpt>
      <trkpt lat="46.60464" lon="4.93338">
        <ele>169.60059</ele>
        <time>2026-05-14T09:38:14+02:00</time>
      </trkpt>
      <trkpt lat="46.60468" lon="4.93343">
        <ele>169.60059</ele>
        <time>2026-05-14T09:38:15+02:00</time>
      </trkpt>
      <trkpt lat="46.60472" lon="4.93347">
        <ele>169.60059</ele>
        <time>2026-05-14T09:38:16+02:00</time>
      </trkpt>
      <trkpt lat="46.60477" lon="4.93352">
        <ele>169.90039</ele>
        <time>2026-05-14T09:38:17+02:00</time>
      </trkpt>
      <trkpt lat="46.60481" lon="4.93357">
        <ele>169.7002</ele>
        <time>2026-05-14T09:38:18+02:00</time>
      </trkpt>
      <trkpt lat="46.60486" lon="4.93362">
        <ele>169.7998</ele>
        <time>2026-05-14T09:38:19+02:00</time>
      </trkpt>
      <trkpt lat="46.60491" lon="4.93366">
        <ele>169.7002</ele>
        <time>2026-05-14T09:38:20+02:00</time>
      </trkpt>
      <trkpt lat="46.60495" lon="4.93371">
        <ele>169.7998</ele>
        <time>2026-05-14T09:38:21+02:00</time>
      </trkpt>
      <trkpt lat="46.605" lon="4.93376">
        <ele>170.10059</ele>
        <time>2026-05-14T09:38:22+02:00</time>
      </trkpt>
      <trkpt lat="46.60504" lon="4.93381">
        <ele>169.7998</ele>
        <time>2026-05-14T09:38:23+02:00</time>
      </trkpt>
      <trkpt lat="46.60509" lon="4.93385">
        <ele>170</ele>
        <time>2026-05-14T09:38:24+02:00</time>
      </trkpt>
      <trkpt lat="46.60513" lon="4.9339">
        <ele>169.7998</ele>
        <time>2026-05-14T09:38:25+02:00</time>
      </trkpt>
      <trkpt lat="46.60518" lon="4.93394">
        <ele>170</ele>
        <time>2026-05-14T09:38:26+02:00</time>
      </trkpt>
      <trkpt lat="46.60523" lon="4.93399">
        <ele>169.7002</ele>
        <time>2026-05-14T09:38:27+02:00</time>
      </trkpt>
      <trkpt lat="46.60527" lon="4.93403">
        <ele>170</ele>
        <time>2026-05-14T09:38:28+02:00</time>
      </trkpt>
      <trkpt lat="46.60531" lon="4.93408">
        <ele>170.10059</ele>
        <time>2026-05-14T09:38:29+02:00</time>
      </trkpt>
      <trkpt lat="46.60536" lon="4.93413">
        <ele>170.2998</ele>
        <time>2026-05-14T09:38:30+02:00</time>
      </trkpt>
      <trkpt lat="46.60541" lon="4.93418">
        <ele>170</ele>
        <time>2026-05-14T09:38:31+02:00</time>
      </trkpt>
      <trkpt lat="46.60545" lon="4.93422">
        <ele>170</ele>
        <time>2026-05-14T09:38:32+02:00</time>
      </trkpt>
      <trkpt lat="46.60549" lon="4.93427">
        <ele>169.60059</ele>
        <time>2026-05-14T09:38:33+02:00</time>
      </trkpt>
      <trkpt lat="46.60554" lon="4.93432">
        <ele>169.60059</ele>
        <time>2026-05-14T09:38:34+02:00</time>
      </trkpt>
      <trkpt lat="46.60558" lon="4.93436">
        <ele>169.40039</ele>
        <time>2026-05-14T09:38:35+02:00</time>
      </trkpt>
      <trkpt lat="46.60562" lon="4.93441">
        <ele>169.5</ele>
        <time>2026-05-14T09:38:36+02:00</time>
      </trkpt>
      <trkpt lat="46.60566" lon="4.93445">
        <ele>169.60059</ele>
        <time>2026-05-14T09:38:37+02:00</time>
      </trkpt>
      <trkpt lat="46.60571" lon="4.93449">
        <ele>169.7002</ele>
        <time>2026-05-14T09:38:38+02:00</time>
      </trkpt>
      <trkpt lat="46.60574" lon="4.93454">
        <ele>169.60059</ele>
        <time>2026-05-14T09:38:39+02:00</time>
      </trkpt>
      <trkpt lat="46.60579" lon="4.93458">
        <ele>169.5</ele>
        <time>2026-05-14T09:38:40+02:00</time>
      </trkpt>
      <trkpt lat="46.60583" lon="4.93463">
        <ele>169.60059</ele>
        <time>2026-05-14T09:38:41+02:00</time>
      </trkpt>
      <trkpt lat="46.60587" lon="4.93468">
        <ele>169.5</ele>
        <time>2026-05-14T09:38:42+02:00</time>
      </trkpt>
      <trkpt lat="46.60592" lon="4.93472">
        <ele>169.60059</ele>
        <time>2026-05-14T09:38:43+02:00</time>
      </trkpt>
      <trkpt lat="46.60596" lon="4.93477">
        <ele>169.7002</ele>
        <time>2026-05-14T09:38:44+02:00</time>
      </trkpt>
      <trkpt lat="46.60601" lon="4.93482">
        <ele>169.7002</ele>
        <time>2026-05-14T09:38:45+02:00</time>
      </trkpt>
      <trkpt lat="46.60605" lon="4.93487">
        <ele>169.60059</ele>
        <time>2026-05-14T09:38:46+02:00</time>
      </trkpt>
      <trkpt lat="46.6061" lon="4.93491">
        <ele>169.60059</ele>
        <time>2026-05-14T09:38:47+02:00</time>
      </trkpt>
      <trkpt lat="46.60615" lon="4.93496">
        <ele>169.7002</ele>
        <time>2026-05-14T09:38:48+02:00</time>
      </trkpt>
      <trkpt lat="46.60619" lon="4.93501">
        <ele>169.7002</ele>
        <time>2026-05-14T09:38:49+02:00</time>
      </trkpt>
      <trkpt lat="46.60623" lon="4.93506">
        <ele>169.90039</ele>
        <time>2026-05-14T09:38:50+02:00</time>
      </trkpt>
      <trkpt lat="46.60626" lon="4.93509">
        <ele>169.90039</ele>
        <time>2026-05-14T09:38:51+02:00</time>
      </trkpt>
      <trkpt lat="46.60632" lon="4.93517">
        <ele>169.7002</ele>
        <time>2026-05-14T09:38:52+02:00</time>
      </trkpt>
      <trkpt lat="46.60637" lon="4.93521">
        <ele>169.7002</ele>
        <time>2026-05-14T09:38:53+02:00</time>
      </trkpt>
      <trkpt lat="46.60641" lon="4.93526">
        <ele>170</ele>
        <time>2026-05-14T09:38:54+02:00</time>
      </trkpt>
      <trkpt lat="46.60646" lon="4.93531">
        <ele>169.7998</ele>
        <time>2026-05-14T09:38:55+02:00</time>
      </trkpt>
      <trkpt lat="46.6065" lon="4.93536">
        <ele>169.7998</ele>
        <time>2026-05-14T09:38:56+02:00</time>
      </trkpt>
      <trkpt lat="46.60655" lon="4.93541">
        <ele>169.90039</ele>
        <time>2026-05-14T09:38:57+02:00</time>
      </trkpt>
      <trkpt lat="46.60659" lon="4.93545">
        <ele>169.7002</ele>
        <time>2026-05-14T09:38:58+02:00</time>
      </trkpt>
      <trkpt lat="46.60664" lon="4.9355">
        <ele>169.7002</ele>
        <time>2026-05-14T09:38:59+02:00</time>
      </trkpt>
      <trkpt lat="46.60668" lon="4.93555">
        <ele>169.5</ele>
        <time>2026-05-14T09:39:00+02:00</time>
      </trkpt>
      <trkpt lat="46.60673" lon="4.9356">
        <ele>169.40039</ele>
        <time>2026-05-14T09:39:01+02:00</time>
      </trkpt>
      <trkpt lat="46.60677" lon="4.93565">
        <ele>169.5</ele>
        <time>2026-05-14T09:39:02+02:00</time>
      </trkpt>
      <trkpt lat="46.60682" lon="4.9357">
        <ele>169.60059</ele>
        <time>2026-05-14T09:39:03+02:00</time>
      </trkpt>
      <trkpt lat="46.60686" lon="4.93575">
        <ele>169.7002</ele>
        <time>2026-05-14T09:39:04+02:00</time>
      </trkpt>
      <trkpt lat="46.60691" lon="4.9358">
        <ele>169.60059</ele>
        <time>2026-05-14T09:39:05+02:00</time>
      </trkpt>
      <trkpt lat="46.60695" lon="4.93585">
        <ele>169.5</ele>
        <time>2026-05-14T09:39:06+02:00</time>
      </trkpt>
      <trkpt lat="46.607" lon="4.9359">
        <ele>169.5</ele>
        <time>2026-05-14T09:39:07+02:00</time>
      </trkpt>
      <trkpt lat="46.60705" lon="4.93595">
        <ele>169.5</ele>
        <time>2026-05-14T09:39:08+02:00</time>
      </trkpt>
      <trkpt lat="46.60709" lon="4.936">
        <ele>169.60059</ele>
        <time>2026-05-14T09:39:09+02:00</time>
      </trkpt>
      <trkpt lat="46.60714" lon="4.93604">
        <ele>169.60059</ele>
        <time>2026-05-14T09:39:10+02:00</time>
      </trkpt>
      <trkpt lat="46.60718" lon="4.93609">
        <ele>169.60059</ele>
        <time>2026-05-14T09:39:11+02:00</time>
      </trkpt>
      <trkpt lat="46.60722" lon="4.93614">
        <ele>169.5</ele>
        <time>2026-05-14T09:39:12+02:00</time>
      </trkpt>
      <trkpt lat="46.60727" lon="4.93618">
        <ele>169.5</ele>
        <time>2026-05-14T09:39:13+02:00</time>
      </trkpt>
      <trkpt lat="46.60732" lon="4.93623">
        <ele>169.60059</ele>
        <time>2026-05-14T09:39:14+02:00</time>
      </trkpt>
      <trkpt lat="46.60736" lon="4.93628">
        <ele>169.7002</ele>
        <time>2026-05-14T09:39:15+02:00</time>
      </trkpt>
      <trkpt lat="46.6074" lon="4.93634">
        <ele>169.60059</ele>
        <time>2026-05-14T09:39:16+02:00</time>
      </trkpt>
      <trkpt lat="46.60745" lon="4.93639">
        <ele>169.40039</ele>
        <time>2026-05-14T09:39:17+02:00</time>
      </trkpt>
      <trkpt lat="46.60749" lon="4.93644">
        <ele>169.40039</ele>
        <time>2026-05-14T09:39:18+02:00</time>
      </trkpt>
      <trkpt lat="46.60753" lon="4.93649">
        <ele>169.60059</ele>
        <time>2026-05-14T09:39:19+02:00</time>
      </trkpt>
      <trkpt lat="46.60758" lon="4.93655">
        <ele>169.60059</ele>
        <time>2026-05-14T09:39:20+02:00</time>
      </trkpt>
      <trkpt lat="46.60762" lon="4.93661">
        <ele>169.90039</ele>
        <time>2026-05-14T09:39:21+02:00</time>
      </trkpt>
      <trkpt lat="46.60766" lon="4.93667">
        <ele>169.7002</ele>
        <time>2026-05-14T09:39:22+02:00</time>
      </trkpt>
      <trkpt lat="46.60769" lon="4.93672">
        <ele>169.7002</ele>
        <time>2026-05-14T09:39:23+02:00</time>
      </trkpt>
      <trkpt lat="46.60774" lon="4.93678">
        <ele>169.5</ele>
        <time>2026-05-14T09:39:24+02:00</time>
      </trkpt>
      <trkpt lat="46.60777" lon="4.93682">
        <ele>169.5</ele>
        <time>2026-05-14T09:39:25+02:00</time>
      </trkpt>
      <trkpt lat="46.60782" lon="4.93686">
        <ele>169.5</ele>
        <time>2026-05-14T09:39:26+02:00</time>
      </trkpt>
      <trkpt lat="46.60787" lon="4.9369">
        <ele>169.60059</ele>
        <time>2026-05-14T09:39:27+02:00</time>
      </trkpt>
      <trkpt lat="46.60791" lon="4.93694">
        <ele>169.60059</ele>
        <time>2026-05-14T09:39:28+02:00</time>
      </trkpt>
      <trkpt lat="46.60796" lon="4.93699">
        <ele>169.7002</ele>
        <time>2026-05-14T09:39:29+02:00</time>
      </trkpt>
      <trkpt lat="46.608" lon="4.93703">
        <ele>169.7002</ele>
        <time>2026-05-14T09:39:30+02:00</time>
      </trkpt>
      <trkpt lat="46.60804" lon="4.93707">
        <ele>169.7002</ele>
        <time>2026-05-14T09:39:31+02:00</time>
      </trkpt>
      <trkpt lat="46.60808" lon="4.93711">
        <ele>169.7002</ele>
        <time>2026-05-14T09:39:32+02:00</time>
      </trkpt>
      <trkpt lat="46.60813" lon="4.93715">
        <ele>169.60059</ele>
        <time>2026-05-14T09:39:33+02:00</time>
      </trkpt>
      <trkpt lat="46.60817" lon="4.9372">
        <ele>169.7002</ele>
        <time>2026-05-14T09:39:34+02:00</time>
      </trkpt>
      <trkpt lat="46.60822" lon="4.93724">
        <ele>169.7002</ele>
        <time>2026-05-14T09:39:35+02:00</time>
      </trkpt>
      <trkpt lat="46.60826" lon="4.93728">
        <ele>169.7002</ele>
        <time>2026-05-14T09:39:36+02:00</time>
      </trkpt>
      <trkpt lat="46.60831" lon="4.93733">
        <ele>169.7002</ele>
        <time>2026-05-14T09:39:37+02:00</time>
      </trkpt>
      <trkpt lat="46.60836" lon="4.93738">
        <ele>169.60059</ele>
        <time>2026-05-14T09:39:38+02:00</time>
      </trkpt>
      <trkpt lat="46.60841" lon="4.93743">
        <ele>169.7002</ele>
        <time>2026-05-14T09:39:39+02:00</time>
      </trkpt>
      <trkpt lat="46.60846" lon="4.93748">
        <ele>169.60059</ele>
        <time>2026-05-14T09:39:40+02:00</time>
      </trkpt>
      <trkpt lat="46.60851" lon="4.93752">
        <ele>169.7002</ele>
        <time>2026-05-14T09:39:41+02:00</time>
      </trkpt>
      <trkpt lat="46.60856" lon="4.93757">
        <ele>169.7002</ele>
        <time>2026-05-14T09:39:42+02:00</time>
      </trkpt>
      <trkpt lat="46.60861" lon="4.93762">
        <ele>169.7002</ele>
        <time>2026-05-14T09:39:43+02:00</time>
      </trkpt>
      <trkpt lat="46.60866" lon="4.93767">
        <ele>169.7002</ele>
        <time>2026-05-14T09:39:44+02:00</time>
      </trkpt>
      <trkpt lat="46.6087" lon="4.93772">
        <ele>169.7002</ele>
        <time>2026-05-14T09:39:45+02:00</time>
      </trkpt>
      <trkpt lat="46.60875" lon="4.93776">
        <ele>169.7002</ele>
        <time>2026-05-14T09:39:46+02:00</time>
      </trkpt>
      <trkpt lat="46.6088" lon="4.93781">
        <ele>169.7002</ele>
        <time>2026-05-14T09:39:47+02:00</time>
      </trkpt>
      <trkpt lat="46.60885" lon="4.93785">
        <ele>169.7002</ele>
        <time>2026-05-14T09:39:48+02:00</time>
      </trkpt>
      <trkpt lat="46.6089" lon="4.9379">
        <ele>169.7002</ele>
        <time>2026-05-14T09:39:49+02:00</time>
      </trkpt>
      <trkpt lat="46.60895" lon="4.93795">
        <ele>169.7002</ele>
        <time>2026-05-14T09:39:50+02:00</time>
      </trkpt>
      <trkpt lat="46.60899" lon="4.93799">
        <ele>169.7002</ele>
        <time>2026-05-14T09:39:51+02:00</time>
      </trkpt>
      <trkpt lat="46.60904" lon="4.93803">
        <ele>169.7002</ele>
        <time>2026-05-14T09:39:52+02:00</time>
      </trkpt>
      <trkpt lat="46.60909" lon="4.93807">
        <ele>169.60059</ele>
        <time>2026-05-14T09:39:53+02:00</time>
      </trkpt>
      <trkpt lat="46.60914" lon="4.93811">
        <ele>169.7002</ele>
        <time>2026-05-14T09:39:54+02:00</time>
      </trkpt>
      <trkpt lat="46.60916" lon="4.93813">
        <ele>169.7002</ele>
        <time>2026-05-14T09:39:55+02:00</time>
      </trkpt>
      <trkpt lat="46.60923" lon="4.93819">
        <ele>169.7002</ele>
        <time>2026-05-14T09:39:56+02:00</time>
      </trkpt>
      <trkpt lat="46.60927" lon="4.93823">
        <ele>169.60059</ele>
        <time>2026-05-14T09:39:57+02:00</time>
      </trkpt>
      <trkpt lat="46.60932" lon="4.93826">
        <ele>169.60059</ele>
        <time>2026-05-14T09:39:58+02:00</time>
      </trkpt>
      <trkpt lat="46.60937" lon="4.9383">
        <ele>169.60059</ele>
        <time>2026-05-14T09:39:59+02:00</time>
      </trkpt>
      <trkpt lat="46.60942" lon="4.93834">
        <ele>169.60059</ele>
        <time>2026-05-14T09:40:00+02:00</time>
      </trkpt>
      <trkpt lat="46.60947" lon="4.93838">
        <ele>169.7002</ele>
        <time>2026-05-14T09:40:01+02:00</time>
      </trkpt>
      <trkpt lat="46.60952" lon="4.93841">
        <ele>169.60059</ele>
        <time>2026-05-14T09:40:02+02:00</time>
      </trkpt>
      <trkpt lat="46.60957" lon="4.93846">
        <ele>169.60059</ele>
        <time>2026-05-14T09:40:03+02:00</time>
      </trkpt>
      <trkpt lat="46.60962" lon="4.9385">
        <ele>169.60059</ele>
        <time>2026-05-14T09:40:04+02:00</time>
      </trkpt>
      <trkpt lat="46.60966" lon="4.93855">
        <ele>169.60059</ele>
        <time>2026-05-14T09:40:05+02:00</time>
      </trkpt>
      <trkpt lat="46.60971" lon="4.9386">
        <ele>169.90039</ele>
        <time>2026-05-14T09:40:06+02:00</time>
      </trkpt>
      <trkpt lat="46.60976" lon="4.93864">
        <ele>169.7998</ele>
        <time>2026-05-14T09:40:07+02:00</time>
      </trkpt>
      <trkpt lat="46.60981" lon="4.93869">
        <ele>170</ele>
        <time>2026-05-14T09:40:08+02:00</time>
      </trkpt>
      <trkpt lat="46.60986" lon="4.93873">
        <ele>169.7002</ele>
        <time>2026-05-14T09:40:09+02:00</time>
      </trkpt>
      <trkpt lat="46.60991" lon="4.93876">
        <ele>169.7998</ele>
        <time>2026-05-14T09:40:10+02:00</time>
      </trkpt>
      <trkpt lat="46.60996" lon="4.93878">
        <ele>169.90039</ele>
        <time>2026-05-14T09:40:11+02:00</time>
      </trkpt>
      <trkpt lat="46.61001" lon="4.9388">
        <ele>169.7998</ele>
        <time>2026-05-14T09:40:12+02:00</time>
      </trkpt>
      <trkpt lat="46.61006" lon="4.93882">
        <ele>169.7998</ele>
        <time>2026-05-14T09:40:13+02:00</time>
      </trkpt>
      <trkpt lat="46.61011" lon="4.93885">
        <ele>169.90039</ele>
        <time>2026-05-14T09:40:14+02:00</time>
      </trkpt>
      <trkpt lat="46.61015" lon="4.93887">
        <ele>169.90039</ele>
        <time>2026-05-14T09:40:15+02:00</time>
      </trkpt>
      <trkpt lat="46.6102" lon="4.93889">
        <ele>170.10059</ele>
        <time>2026-05-14T09:40:16+02:00</time>
      </trkpt>
      <trkpt lat="46.61024" lon="4.93892">
        <ele>170.2998</ele>
        <time>2026-05-14T09:40:17+02:00</time>
      </trkpt>
      <trkpt lat="46.61028" lon="4.93895">
        <ele>170.2998</ele>
        <time>2026-05-14T09:40:18+02:00</time>
      </trkpt>
      <trkpt lat="46.61033" lon="4.93898">
        <ele>170</ele>
        <time>2026-05-14T09:40:19+02:00</time>
      </trkpt>
      <trkpt lat="46.61036" lon="4.93901">
        <ele>170.10059</ele>
        <time>2026-05-14T09:40:20+02:00</time>
      </trkpt>
      <trkpt lat="46.61041" lon="4.93905">
        <ele>169.7998</ele>
        <time>2026-05-14T09:40:21+02:00</time>
      </trkpt>
      <trkpt lat="46.61045" lon="4.93908">
        <ele>169.90039</ele>
        <time>2026-05-14T09:40:22+02:00</time>
      </trkpt>
      <trkpt lat="46.61049" lon="4.93912">
        <ele>169.90039</ele>
        <time>2026-05-14T09:40:23+02:00</time>
      </trkpt>
      <trkpt lat="46.61054" lon="4.93916">
        <ele>169.7998</ele>
        <time>2026-05-14T09:40:24+02:00</time>
      </trkpt>
      <trkpt lat="46.61058" lon="4.9392">
        <ele>169.7998</ele>
        <time>2026-05-14T09:40:25+02:00</time>
      </trkpt>
      <trkpt lat="46.61062" lon="4.93923">
        <ele>169.7002</ele>
        <time>2026-05-14T09:40:26+02:00</time>
      </trkpt>
      <trkpt lat="46.61067" lon="4.93927">
        <ele>169.7002</ele>
        <time>2026-05-14T09:40:27+02:00</time>
      </trkpt>
      <trkpt lat="46.61072" lon="4.93931">
        <ele>169.7002</ele>
        <time>2026-05-14T09:40:28+02:00</time>
      </trkpt>
      <trkpt lat="46.61077" lon="4.93935">
        <ele>169.7002</ele>
        <time>2026-05-14T09:40:29+02:00</time>
      </trkpt>
      <trkpt lat="46.61081" lon="4.93939">
        <ele>169.7002</ele>
        <time>2026-05-14T09:40:30+02:00</time>
      </trkpt>
      <trkpt lat="46.61086" lon="4.93943">
        <ele>169.7002</ele>
        <time>2026-05-14T09:40:31+02:00</time>
      </trkpt>
      <trkpt lat="46.61091" lon="4.93947">
        <ele>169.7002</ele>
        <time>2026-05-14T09:40:32+02:00</time>
      </trkpt>
      <trkpt lat="46.61096" lon="4.93951">
        <ele>169.7002</ele>
        <time>2026-05-14T09:40:33+02:00</time>
      </trkpt>
      <trkpt lat="46.61101" lon="4.93955">
        <ele>169.7998</ele>
        <time>2026-05-14T09:40:34+02:00</time>
      </trkpt>
      <trkpt lat="46.61106" lon="4.9396">
        <ele>169.7002</ele>
        <time>2026-05-14T09:40:35+02:00</time>
      </trkpt>
      <trkpt lat="46.61111" lon="4.93963">
        <ele>169.7002</ele>
        <time>2026-05-14T09:40:36+02:00</time>
      </trkpt>
      <trkpt lat="46.61116" lon="4.93967">
        <ele>169.7002</ele>
        <time>2026-05-14T09:40:37+02:00</time>
      </trkpt>
      <trkpt lat="46.61121" lon="4.93971">
        <ele>169.7002</ele>
        <time>2026-05-14T09:40:38+02:00</time>
      </trkpt>
      <trkpt lat="46.61126" lon="4.93975">
        <ele>169.7002</ele>
        <time>2026-05-14T09:40:39+02:00</time>
      </trkpt>
      <trkpt lat="46.61131" lon="4.93979">
        <ele>169.90039</ele>
        <time>2026-05-14T09:40:40+02:00</time>
      </trkpt>
      <trkpt lat="46.61136" lon="4.93983">
        <ele>169.7002</ele>
        <time>2026-05-14T09:40:41+02:00</time>
      </trkpt>
      <trkpt lat="46.61141" lon="4.93987">
        <ele>169.7998</ele>
        <time>2026-05-14T09:40:42+02:00</time>
      </trkpt>
      <trkpt lat="46.61146" lon="4.93991">
        <ele>169.60059</ele>
        <time>2026-05-14T09:40:43+02:00</time>
      </trkpt>
      <trkpt lat="46.61151" lon="4.93996">
        <ele>169.7002</ele>
        <time>2026-05-14T09:40:44+02:00</time>
      </trkpt>
      <trkpt lat="46.61156" lon="4.93999">
        <ele>169.7002</ele>
        <time>2026-05-14T09:40:45+02:00</time>
      </trkpt>
      <trkpt lat="46.61161" lon="4.94003">
        <ele>170</ele>
        <time>2026-05-14T09:40:46+02:00</time>
      </trkpt>
      <trkpt lat="46.61166" lon="4.94007">
        <ele>170.40039</ele>
        <time>2026-05-14T09:40:47+02:00</time>
      </trkpt>
      <trkpt lat="46.61171" lon="4.94011">
        <ele>170</ele>
        <time>2026-05-14T09:40:48+02:00</time>
      </trkpt>
      <trkpt lat="46.61176" lon="4.94015">
        <ele>170.2002</ele>
        <time>2026-05-14T09:40:49+02:00</time>
      </trkpt>
      <trkpt lat="46.61181" lon="4.9402">
        <ele>169.7998</ele>
        <time>2026-05-14T09:40:50+02:00</time>
      </trkpt>
      <trkpt lat="46.61185" lon="4.94024">
        <ele>169.7998</ele>
        <time>2026-05-14T09:40:51+02:00</time>
      </trkpt>
      <trkpt lat="46.61189" lon="4.94027">
        <ele>169.60059</ele>
        <time>2026-05-14T09:40:52+02:00</time>
      </trkpt>
      <trkpt lat="46.61194" lon="4.94031">
        <ele>169.7002</ele>
        <time>2026-05-14T09:40:53+02:00</time>
      </trkpt>
      <trkpt lat="46.61199" lon="4.94034">
        <ele>169.7002</ele>
        <time>2026-05-14T09:40:54+02:00</time>
      </trkpt>
      <trkpt lat="46.61203" lon="4.94038">
        <ele>169.7002</ele>
        <time>2026-05-14T09:40:55+02:00</time>
      </trkpt>
      <trkpt lat="46.61208" lon="4.94042">
        <ele>169.7002</ele>
        <time>2026-05-14T09:40:56+02:00</time>
      </trkpt>
      <trkpt lat="46.61213" lon="4.94046">
        <ele>169.7002</ele>
        <time>2026-05-14T09:40:57+02:00</time>
      </trkpt>
      <trkpt lat="46.61218" lon="4.94049">
        <ele>169.7002</ele>
        <time>2026-05-14T09:40:58+02:00</time>
      </trkpt>
      <trkpt lat="46.61223" lon="4.94053">
        <ele>169.7002</ele>
        <time>2026-05-14T09:40:59+02:00</time>
      </trkpt>
      <trkpt lat="46.61227" lon="4.94056">
        <ele>169.60059</ele>
        <time>2026-05-14T09:41:00+02:00</time>
      </trkpt>
      <trkpt lat="46.61232" lon="4.9406">
        <ele>169.5</ele>
        <time>2026-05-14T09:41:01+02:00</time>
      </trkpt>
      <trkpt lat="46.61236" lon="4.94064">
        <ele>169.5</ele>
        <time>2026-05-14T09:41:02+02:00</time>
      </trkpt>
      <trkpt lat="46.61241" lon="4.94067">
        <ele>169.5</ele>
        <time>2026-05-14T09:41:03+02:00</time>
      </trkpt>
      <trkpt lat="46.61246" lon="4.94071">
        <ele>169.60059</ele>
        <time>2026-05-14T09:41:04+02:00</time>
      </trkpt>
      <trkpt lat="46.61251" lon="4.94074">
        <ele>169.7002</ele>
        <time>2026-05-14T09:41:05+02:00</time>
      </trkpt>
      <trkpt lat="46.61256" lon="4.94078">
        <ele>169.7002</ele>
        <time>2026-05-14T09:41:06+02:00</time>
      </trkpt>
      <trkpt lat="46.61261" lon="4.94081">
        <ele>169.7002</ele>
        <time>2026-05-14T09:41:07+02:00</time>
      </trkpt>
      <trkpt lat="46.61266" lon="4.94084">
        <ele>169.7002</ele>
        <time>2026-05-14T09:41:08+02:00</time>
      </trkpt>
      <trkpt lat="46.61271" lon="4.94087">
        <ele>169.40039</ele>
        <time>2026-05-14T09:41:09+02:00</time>
      </trkpt>
      <trkpt lat="46.61276" lon="4.9409">
        <ele>169.2998</ele>
        <time>2026-05-14T09:41:10+02:00</time>
      </trkpt>
      <trkpt lat="46.61282" lon="4.94093">
        <ele>169.40039</ele>
        <time>2026-05-14T09:41:11+02:00</time>
      </trkpt>
      <trkpt lat="46.61287" lon="4.94095">
        <ele>169.40039</ele>
        <time>2026-05-14T09:41:12+02:00</time>
      </trkpt>
      <trkpt lat="46.61292" lon="4.94098">
        <ele>169.5</ele>
        <time>2026-05-14T09:41:13+02:00</time>
      </trkpt>
      <trkpt lat="46.61297" lon="4.941">
        <ele>169.60059</ele>
        <time>2026-05-14T09:41:14+02:00</time>
      </trkpt>
      <trkpt lat="46.61302" lon="4.94103">
        <ele>169.60059</ele>
        <time>2026-05-14T09:41:15+02:00</time>
      </trkpt>
      <trkpt lat="46.61307" lon="4.94105">
        <ele>169.60059</ele>
        <time>2026-05-14T09:41:16+02:00</time>
      </trkpt>
      <trkpt lat="46.61313" lon="4.94107">
        <ele>169.60059</ele>
        <time>2026-05-14T09:41:17+02:00</time>
      </trkpt>
      <trkpt lat="46.61318" lon="4.9411">
        <ele>169.7002</ele>
        <time>2026-05-14T09:41:18+02:00</time>
      </trkpt>
      <trkpt lat="46.61323" lon="4.94114">
        <ele>169.60059</ele>
        <time>2026-05-14T09:41:19+02:00</time>
      </trkpt>
      <trkpt lat="46.61328" lon="4.94117">
        <ele>169.7998</ele>
        <time>2026-05-14T09:41:20+02:00</time>
      </trkpt>
      <trkpt lat="46.61334" lon="4.94121">
        <ele>169.90039</ele>
        <time>2026-05-14T09:41:21+02:00</time>
      </trkpt>
      <trkpt lat="46.61339" lon="4.94125">
        <ele>170.2002</ele>
        <time>2026-05-14T09:41:22+02:00</time>
      </trkpt>
      <trkpt lat="46.61345" lon="4.94128">
        <ele>169.90039</ele>
        <time>2026-05-14T09:41:23+02:00</time>
      </trkpt>
      <trkpt lat="46.6135" lon="4.9413">
        <ele>170</ele>
        <time>2026-05-14T09:41:24+02:00</time>
      </trkpt>
      <trkpt lat="46.61356" lon="4.94133">
        <ele>170.10059</ele>
        <time>2026-05-14T09:41:25+02:00</time>
      </trkpt>
      <trkpt lat="46.61361" lon="4.94134">
        <ele>170.10059</ele>
        <time>2026-05-14T09:41:26+02:00</time>
      </trkpt>
      <trkpt lat="46.61367" lon="4.94136">
        <ele>169.2998</ele>
        <time>2026-05-14T09:41:27+02:00</time>
      </trkpt>
      <trkpt lat="46.61373" lon="4.94138">
        <ele>169.2998</ele>
        <time>2026-05-14T09:41:28+02:00</time>
      </trkpt>
      <trkpt lat="46.61378" lon="4.9414">
        <ele>169.2002</ele>
        <time>2026-05-14T09:41:29+02:00</time>
      </trkpt>
      <trkpt lat="46.61384" lon="4.94141">
        <ele>169.2998</ele>
        <time>2026-05-14T09:41:30+02:00</time>
      </trkpt>
      <trkpt lat="46.61389" lon="4.94142">
        <ele>169.2998</ele>
        <time>2026-05-14T09:41:31+02:00</time>
      </trkpt>
      <trkpt lat="46.61395" lon="4.94144">
        <ele>169.40039</ele>
        <time>2026-05-14T09:41:32+02:00</time>
      </trkpt>
      <trkpt lat="46.61401" lon="4.94145">
        <ele>169.40039</ele>
        <time>2026-05-14T09:41:33+02:00</time>
      </trkpt>
      <trkpt lat="46.61406" lon="4.94146">
        <ele>169.5</ele>
        <time>2026-05-14T09:41:34+02:00</time>
      </trkpt>
      <trkpt lat="46.61412" lon="4.94147">
        <ele>169.60059</ele>
        <time>2026-05-14T09:41:35+02:00</time>
      </trkpt>
      <trkpt lat="46.61418" lon="4.94149">
        <ele>169.7002</ele>
        <time>2026-05-14T09:41:36+02:00</time>
      </trkpt>
      <trkpt lat="46.61423" lon="4.9415">
        <ele>169.7998</ele>
        <time>2026-05-14T09:41:37+02:00</time>
      </trkpt>
      <trkpt lat="46.61428" lon="4.94151">
        <ele>169.7998</ele>
        <time>2026-05-14T09:41:38+02:00</time>
      </trkpt>
      <trkpt lat="46.61432" lon="4.94152">
        <ele>169.90039</ele>
        <time>2026-05-14T09:41:39+02:00</time>
      </trkpt>
      <trkpt lat="46.61436" lon="4.94153">
        <ele>169.90039</ele>
        <time>2026-05-14T09:41:40+02:00</time>
      </trkpt>
      <trkpt lat="46.6144" lon="4.94153">
        <ele>169.90039</ele>
        <time>2026-05-14T09:41:41+02:00</time>
      </trkpt>
      <trkpt lat="46.61443" lon="4.94154">
        <ele>169.7002</ele>
        <time>2026-05-14T09:41:42+02:00</time>
      </trkpt>
      <trkpt lat="46.61447" lon="4.94155">
        <ele>169.7002</ele>
        <time>2026-05-14T09:41:43+02:00</time>
      </trkpt>
      <trkpt lat="46.61451" lon="4.94156">
        <ele>169.7002</ele>
        <time>2026-05-14T09:41:44+02:00</time>
      </trkpt>
      <trkpt lat="46.61456" lon="4.94157">
        <ele>169.7002</ele>
        <time>2026-05-14T09:41:45+02:00</time>
      </trkpt>
      <trkpt lat="46.61461" lon="4.94157">
        <ele>169.7002</ele>
        <time>2026-05-14T09:41:46+02:00</time>
      </trkpt>
      <trkpt lat="46.61466" lon="4.94157">
        <ele>169.7002</ele>
        <time>2026-05-14T09:41:47+02:00</time>
      </trkpt>
      <trkpt lat="46.6147" lon="4.94158">
        <ele>169.7998</ele>
        <time>2026-05-14T09:41:48+02:00</time>
      </trkpt>
      <trkpt lat="46.61475" lon="4.94158">
        <ele>169.90039</ele>
        <time>2026-05-14T09:41:49+02:00</time>
      </trkpt>
      <trkpt lat="46.6148" lon="4.94159">
        <ele>170.10059</ele>
        <time>2026-05-14T09:41:50+02:00</time>
      </trkpt>
      <trkpt lat="46.61485" lon="4.9416">
        <ele>170.5</ele>
        <time>2026-05-14T09:41:51+02:00</time>
      </trkpt>
      <trkpt lat="46.6149" lon="4.94161">
        <ele>170.7998</ele>
        <time>2026-05-14T09:41:52+02:00</time>
      </trkpt>
      <trkpt lat="46.61495" lon="4.94163">
        <ele>170</ele>
        <time>2026-05-14T09:41:53+02:00</time>
      </trkpt>
      <trkpt lat="46.615" lon="4.94164">
        <ele>170.2002</ele>
        <time>2026-05-14T09:41:54+02:00</time>
      </trkpt>
      <trkpt lat="46.61505" lon="4.94165">
        <ele>170.40039</ele>
        <time>2026-05-14T09:41:55+02:00</time>
      </trkpt>
      <trkpt lat="46.6151" lon="4.94166">
        <ele>170.60059</ele>
        <time>2026-05-14T09:41:56+02:00</time>
      </trkpt>
      <trkpt lat="46.61515" lon="4.94167">
        <ele>170.7998</ele>
        <time>2026-05-14T09:41:57+02:00</time>
      </trkpt>
      <trkpt lat="46.6152" lon="4.94169">
        <ele>171</ele>
        <time>2026-05-14T09:41:58+02:00</time>
      </trkpt>
      <trkpt lat="46.61525" lon="4.9417">
        <ele>171</ele>
        <time>2026-05-14T09:41:59+02:00</time>
      </trkpt>
      <trkpt lat="46.6153" lon="4.94171">
        <ele>170.2002</ele>
        <time>2026-05-14T09:42:00+02:00</time>
      </trkpt>
      <trkpt lat="46.61535" lon="4.94173">
        <ele>170.10059</ele>
        <time>2026-05-14T09:42:01+02:00</time>
      </trkpt>
      <trkpt lat="46.6154" lon="4.94174">
        <ele>170.10059</ele>
        <time>2026-05-14T09:42:02+02:00</time>
      </trkpt>
      <trkpt lat="46.61546" lon="4.94175">
        <ele>170.2998</ele>
        <time>2026-05-14T09:42:03+02:00</time>
      </trkpt>
      <trkpt lat="46.61551" lon="4.94176">
        <ele>170.7002</ele>
        <time>2026-05-14T09:42:04+02:00</time>
      </trkpt>
      <trkpt lat="46.61557" lon="4.94177">
        <ele>171.40039</ele>
        <time>2026-05-14T09:42:05+02:00</time>
      </trkpt>
      <trkpt lat="46.61562" lon="4.94178">
        <ele>172.2002</ele>
        <time>2026-05-14T09:42:06+02:00</time>
      </trkpt>
      <trkpt lat="46.61567" lon="4.94179">
        <ele>171.2998</ele>
        <time>2026-05-14T09:42:07+02:00</time>
      </trkpt>
      <trkpt lat="46.61572" lon="4.9418">
        <ele>171.2998</ele>
        <time>2026-05-14T09:42:08+02:00</time>
      </trkpt>
      <trkpt lat="46.61578" lon="4.94181">
        <ele>171.7998</ele>
        <time>2026-05-14T09:42:09+02:00</time>
      </trkpt>
      <trkpt lat="46.61583" lon="4.94182">
        <ele>172.2998</ele>
        <time>2026-05-14T09:42:10+02:00</time>
      </trkpt>
      <trkpt lat="46.61588" lon="4.94183">
        <ele>172.7998</ele>
        <time>2026-05-14T09:42:11+02:00</time>
      </trkpt>
      <trkpt lat="46.61593" lon="4.94185">
        <ele>173.2998</ele>
        <time>2026-05-14T09:42:12+02:00</time>
      </trkpt>
      <trkpt lat="46.61598" lon="4.94185">
        <ele>173.60059</ele>
        <time>2026-05-14T09:42:13+02:00</time>
      </trkpt>
      <trkpt lat="46.61603" lon="4.94186">
        <ele>174</ele>
        <time>2026-05-14T09:42:14+02:00</time>
      </trkpt>
      <trkpt lat="46.61609" lon="4.94188">
        <ele>172.5</ele>
        <time>2026-05-14T09:42:15+02:00</time>
      </trkpt>
      <trkpt lat="46.61614" lon="4.94189">
        <ele>172.60059</ele>
        <time>2026-05-14T09:42:16+02:00</time>
      </trkpt>
      <trkpt lat="46.61619" lon="4.9419">
        <ele>172.60059</ele>
        <time>2026-05-14T09:42:17+02:00</time>
      </trkpt>
      <trkpt lat="46.61624" lon="4.94191">
        <ele>172.60059</ele>
        <time>2026-05-14T09:42:18+02:00</time>
      </trkpt>
      <trkpt lat="46.61629" lon="4.94192">
        <ele>172.7002</ele>
        <time>2026-05-14T09:42:19+02:00</time>
      </trkpt>
      <trkpt lat="46.61634" lon="4.94193">
        <ele>172.7002</ele>
        <time>2026-05-14T09:42:20+02:00</time>
      </trkpt>
      <trkpt lat="46.61639" lon="4.94195">
        <ele>172.60059</ele>
        <time>2026-05-14T09:42:21+02:00</time>
      </trkpt>
      <trkpt lat="46.61644" lon="4.94196">
        <ele>170.2998</ele>
        <time>2026-05-14T09:42:22+02:00</time>
      </trkpt>
      <trkpt lat="46.61649" lon="4.94197">
        <ele>170.2998</ele>
        <time>2026-05-14T09:42:23+02:00</time>
      </trkpt>
      <trkpt lat="46.61654" lon="4.94198">
        <ele>170.10059</ele>
        <time>2026-05-14T09:42:24+02:00</time>
      </trkpt>
      <trkpt lat="46.61659" lon="4.94199">
        <ele>170.2002</ele>
        <time>2026-05-14T09:42:25+02:00</time>
      </trkpt>
      <trkpt lat="46.61664" lon="4.942">
        <ele>170.5</ele>
        <time>2026-05-14T09:42:26+02:00</time>
      </trkpt>
      <trkpt lat="46.61669" lon="4.94202">
        <ele>171.60059</ele>
        <time>2026-05-14T09:42:27+02:00</time>
      </trkpt>
      <trkpt lat="46.61675" lon="4.94203">
        <ele>172.90039</ele>
        <time>2026-05-14T09:42:28+02:00</time>
      </trkpt>
      <trkpt lat="46.61677" lon="4.94203">
        <ele>172.90039</ele>
        <time>2026-05-14T09:42:29+02:00</time>
      </trkpt>
      <trkpt lat="46.61685" lon="4.94205">
        <ele>173.5</ele>
        <time>2026-05-14T09:42:30+02:00</time>
      </trkpt>
      <trkpt lat="46.61691" lon="4.94206">
        <ele>173.7998</ele>
        <time>2026-05-14T09:42:31+02:00</time>
      </trkpt>
      <trkpt lat="46.61696" lon="4.94207">
        <ele>173.7998</ele>
        <time>2026-05-14T09:42:32+02:00</time>
      </trkpt>
      <trkpt lat="46.61701" lon="4.94208">
        <ele>174.10059</ele>
        <time>2026-05-14T09:42:33+02:00</time>
      </trkpt>
      <trkpt lat="46.61704" lon="4.94209">
        <ele>174.40039</ele>
        <time>2026-05-14T09:42:34+02:00</time>
      </trkpt>
      <trkpt lat="46.61712" lon="4.94211">
        <ele>174.7002</ele>
        <time>2026-05-14T09:42:35+02:00</time>
      </trkpt>
      <trkpt lat="46.61717" lon="4.94213">
        <ele>175</ele>
        <time>2026-05-14T09:42:36+02:00</time>
      </trkpt>
      <trkpt lat="46.61722" lon="4.94215">
        <ele>173.5</ele>
        <time>2026-05-14T09:42:37+02:00</time>
      </trkpt>
      <trkpt lat="46.61728" lon="4.94217">
        <ele>174</ele>
        <time>2026-05-14T09:42:38+02:00</time>
      </trkpt>
      <trkpt lat="46.61733" lon="4.94218">
        <ele>174.60059</ele>
        <time>2026-05-14T09:42:39+02:00</time>
      </trkpt>
      <trkpt lat="46.61739" lon="4.9422">
        <ele>175.40039</ele>
        <time>2026-05-14T09:42:40+02:00</time>
      </trkpt>
      <trkpt lat="46.61744" lon="4.94221">
        <ele>176.2002</ele>
        <time>2026-05-14T09:42:41+02:00</time>
      </trkpt>
      <trkpt lat="46.61749" lon="4.94223">
        <ele>175.90039</ele>
        <time>2026-05-14T09:42:42+02:00</time>
      </trkpt>
      <trkpt lat="46.61755" lon="4.94225">
        <ele>176.7002</ele>
        <time>2026-05-14T09:42:43+02:00</time>
      </trkpt>
      <trkpt lat="46.6176" lon="4.94226">
        <ele>177</ele>
        <time>2026-05-14T09:42:44+02:00</time>
      </trkpt>
      <trkpt lat="46.61765" lon="4.94228">
        <ele>177.2998</ele>
        <time>2026-05-14T09:42:45+02:00</time>
      </trkpt>
      <trkpt lat="46.61771" lon="4.9423">
        <ele>177.5</ele>
        <time>2026-05-14T09:42:46+02:00</time>
      </trkpt>
      <trkpt lat="46.61776" lon="4.94232">
        <ele>176.10059</ele>
        <time>2026-05-14T09:42:47+02:00</time>
      </trkpt>
      <trkpt lat="46.61781" lon="4.94233">
        <ele>176.10059</ele>
        <time>2026-05-14T09:42:48+02:00</time>
      </trkpt>
      <trkpt lat="46.61787" lon="4.94235">
        <ele>176</ele>
        <time>2026-05-14T09:42:49+02:00</time>
      </trkpt>
      <trkpt lat="46.61792" lon="4.94237">
        <ele>175.90039</ele>
        <time>2026-05-14T09:42:50+02:00</time>
      </trkpt>
      <trkpt lat="46.61798" lon="4.94239">
        <ele>173</ele>
        <time>2026-05-14T09:42:51+02:00</time>
      </trkpt>
      <trkpt lat="46.61803" lon="4.94241">
        <ele>172.90039</ele>
        <time>2026-05-14T09:42:52+02:00</time>
      </trkpt>
      <trkpt lat="46.61809" lon="4.94243">
        <ele>172.90039</ele>
        <time>2026-05-14T09:42:53+02:00</time>
      </trkpt>
      <trkpt lat="46.61811" lon="4.94244">
        <ele>172.90039</ele>
        <time>2026-05-14T09:42:54+02:00</time>
      </trkpt>
      <trkpt lat="46.6182" lon="4.94247">
        <ele>172.90039</ele>
        <time>2026-05-14T09:42:55+02:00</time>
      </trkpt>
      <trkpt lat="46.61825" lon="4.94249">
        <ele>170.2998</ele>
        <time>2026-05-14T09:42:56+02:00</time>
      </trkpt>
      <trkpt lat="46.6183" lon="4.94251">
        <ele>170.90039</ele>
        <time>2026-05-14T09:42:57+02:00</time>
      </trkpt>
      <trkpt lat="46.61836" lon="4.94253">
        <ele>171.90039</ele>
        <time>2026-05-14T09:42:58+02:00</time>
      </trkpt>
      <trkpt lat="46.61841" lon="4.94255">
        <ele>173</ele>
        <time>2026-05-14T09:42:59+02:00</time>
      </trkpt>
      <trkpt lat="46.61847" lon="4.94257">
        <ele>173</ele>
        <time>2026-05-14T09:43:00+02:00</time>
      </trkpt>
      <trkpt lat="46.61853" lon="4.94259">
        <ele>174.2998</ele>
        <time>2026-05-14T09:43:01+02:00</time>
      </trkpt>
      <trkpt lat="46.61858" lon="4.94261">
        <ele>175.5</ele>
        <time>2026-05-14T09:43:02+02:00</time>
      </trkpt>
      <trkpt lat="46.61864" lon="4.94263">
        <ele>176.10059</ele>
        <time>2026-05-14T09:43:03+02:00</time>
      </trkpt>
      <trkpt lat="46.6187" lon="4.94265">
        <ele>173.10059</ele>
        <time>2026-05-14T09:43:04+02:00</time>
      </trkpt>
      <trkpt lat="46.61875" lon="4.94267">
        <ele>172.40039</ele>
        <time>2026-05-14T09:43:05+02:00</time>
      </trkpt>
      <trkpt lat="46.61881" lon="4.94268">
        <ele>171.60059</ele>
        <time>2026-05-14T09:43:06+02:00</time>
      </trkpt>
      <trkpt lat="46.61886" lon="4.9427">
        <ele>171.40039</ele>
        <time>2026-05-14T09:43:07+02:00</time>
      </trkpt>
      <trkpt lat="46.61892" lon="4.94272">
        <ele>172.2002</ele>
        <time>2026-05-14T09:43:08+02:00</time>
      </trkpt>
      <trkpt lat="46.61897" lon="4.94273">
        <ele>173.2998</ele>
        <time>2026-05-14T09:43:09+02:00</time>
      </trkpt>
      <trkpt lat="46.61903" lon="4.94276">
        <ele>173.90039</ele>
        <time>2026-05-14T09:43:10+02:00</time>
      </trkpt>
      <trkpt lat="46.61908" lon="4.94278">
        <ele>173.90039</ele>
        <time>2026-05-14T09:43:11+02:00</time>
      </trkpt>
      <trkpt lat="46.61913" lon="4.9428">
        <ele>175.2998</ele>
        <time>2026-05-14T09:43:12+02:00</time>
      </trkpt>
      <trkpt lat="46.61919" lon="4.94282">
        <ele>175.10059</ele>
        <time>2026-05-14T09:43:13+02:00</time>
      </trkpt>
      <trkpt lat="46.61924" lon="4.94284">
        <ele>175.7002</ele>
        <time>2026-05-14T09:43:14+02:00</time>
      </trkpt>
      <trkpt lat="46.61927" lon="4.94285">
        <ele>176.2002</ele>
        <time>2026-05-14T09:43:15+02:00</time>
      </trkpt>
      <trkpt lat="46.61935" lon="4.94288">
        <ele>176.2998</ele>
        <time>2026-05-14T09:43:16+02:00</time>
      </trkpt>
      <trkpt lat="46.61941" lon="4.9429">
        <ele>176</ele>
        <time>2026-05-14T09:43:17+02:00</time>
      </trkpt>
      <trkpt lat="46.61946" lon="4.94292">
        <ele>173.5</ele>
        <time>2026-05-14T09:43:18+02:00</time>
      </trkpt>
      <trkpt lat="46.61952" lon="4.94294">
        <ele>173.7998</ele>
        <time>2026-05-14T09:43:19+02:00</time>
      </trkpt>
      <trkpt lat="46.61958" lon="4.94297">
        <ele>174.2002</ele>
        <time>2026-05-14T09:43:20+02:00</time>
      </trkpt>
      <trkpt lat="46.61963" lon="4.94299">
        <ele>174.2998</ele>
        <time>2026-05-14T09:43:21+02:00</time>
      </trkpt>
      <trkpt lat="46.61969" lon="4.94302">
        <ele>175.2002</ele>
        <time>2026-05-14T09:43:22+02:00</time>
      </trkpt>
      <trkpt lat="46.61974" lon="4.94304">
        <ele>176.2002</ele>
        <time>2026-05-14T09:43:23+02:00</time>
      </trkpt>
      <trkpt lat="46.6198" lon="4.94307">
        <ele>176.90039</ele>
        <time>2026-05-14T09:43:24+02:00</time>
      </trkpt>
      <trkpt lat="46.61986" lon="4.94309">
        <ele>176.2002</ele>
        <time>2026-05-14T09:43:25+02:00</time>
      </trkpt>
      <trkpt lat="46.61991" lon="4.94312">
        <ele>176.60059</ele>
        <time>2026-05-14T09:43:26+02:00</time>
      </trkpt>
      <trkpt lat="46.61997" lon="4.94315">
        <ele>176.60059</ele>
        <time>2026-05-14T09:43:27+02:00</time>
      </trkpt>
      <trkpt lat="46.62003" lon="4.94317">
        <ele>174.40039</ele>
        <time>2026-05-14T09:43:28+02:00</time>
      </trkpt>
      <trkpt lat="46.62008" lon="4.9432">
        <ele>174.40039</ele>
        <time>2026-05-14T09:43:29+02:00</time>
      </trkpt>
      <trkpt lat="46.62014" lon="4.94322">
        <ele>174.7998</ele>
        <time>2026-05-14T09:43:30+02:00</time>
      </trkpt>
      <trkpt lat="46.62019" lon="4.94325">
        <ele>174.40039</ele>
        <time>2026-05-14T09:43:31+02:00</time>
      </trkpt>
      <trkpt lat="46.62025" lon="4.94327">
        <ele>175.7002</ele>
        <time>2026-05-14T09:43:32+02:00</time>
      </trkpt>
      <trkpt lat="46.6203" lon="4.94329">
        <ele>176.60059</ele>
        <time>2026-05-14T09:43:33+02:00</time>
      </trkpt>
      <trkpt lat="46.62036" lon="4.94331">
        <ele>177.40039</ele>
        <time>2026-05-14T09:43:34+02:00</time>
      </trkpt>
      <trkpt lat="46.62041" lon="4.94333">
        <ele>178</ele>
        <time>2026-05-14T09:43:35+02:00</time>
      </trkpt>
      <trkpt lat="46.62046" lon="4.94336">
        <ele>177.2002</ele>
        <time>2026-05-14T09:43:36+02:00</time>
      </trkpt>
      <trkpt lat="46.62052" lon="4.94338">
        <ele>177.10059</ele>
        <time>2026-05-14T09:43:37+02:00</time>
      </trkpt>
      <trkpt lat="46.62057" lon="4.9434">
        <ele>176.7002</ele>
        <time>2026-05-14T09:43:38+02:00</time>
      </trkpt>
      <trkpt lat="46.62062" lon="4.94343">
        <ele>175.2998</ele>
        <time>2026-05-14T09:43:39+02:00</time>
      </trkpt>
      <trkpt lat="46.62067" lon="4.94345">
        <ele>175.2998</ele>
        <time>2026-05-14T09:43:40+02:00</time>
      </trkpt>
      <trkpt lat="46.62072" lon="4.94348">
        <ele>175.7998</ele>
        <time>2026-05-14T09:43:41+02:00</time>
      </trkpt>
      <trkpt lat="46.62077" lon="4.9435">
        <ele>176.2998</ele>
        <time>2026-05-14T09:43:42+02:00</time>
      </trkpt>
      <trkpt lat="46.62082" lon="4.94352">
        <ele>176.7998</ele>
        <time>2026-05-14T09:43:43+02:00</time>
      </trkpt>
      <trkpt lat="46.62086" lon="4.94355">
        <ele>177.2002</ele>
        <time>2026-05-14T09:43:44+02:00</time>
      </trkpt>
      <trkpt lat="46.62092" lon="4.94357">
        <ele>177.2998</ele>
        <time>2026-05-14T09:43:45+02:00</time>
      </trkpt>
      <trkpt lat="46.62097" lon="4.9436">
        <ele>176.60059</ele>
        <time>2026-05-14T09:43:46+02:00</time>
      </trkpt>
      <trkpt lat="46.62102" lon="4.94363">
        <ele>176.60059</ele>
        <time>2026-05-14T09:43:47+02:00</time>
      </trkpt>
      <trkpt lat="46.62107" lon="4.94366">
        <ele>176.2998</ele>
        <time>2026-05-14T09:43:48+02:00</time>
      </trkpt>
      <trkpt lat="46.62111" lon="4.9437">
        <ele>175.7998</ele>
        <time>2026-05-14T09:43:49+02:00</time>
      </trkpt>
      <trkpt lat="46.62116" lon="4.94374">
        <ele>175.7002</ele>
        <time>2026-05-14T09:43:50+02:00</time>
      </trkpt>
      <trkpt lat="46.6212" lon="4.94377">
        <ele>175.7002</ele>
        <time>2026-05-14T09:43:51+02:00</time>
      </trkpt>
      <trkpt lat="46.62124" lon="4.94381">
        <ele>175.60059</ele>
        <time>2026-05-14T09:43:52+02:00</time>
      </trkpt>
      <trkpt lat="46.62129" lon="4.94385">
        <ele>175.10059</ele>
        <time>2026-05-14T09:43:53+02:00</time>
      </trkpt>
      <trkpt lat="46.62134" lon="4.94389">
        <ele>174.7002</ele>
        <time>2026-05-14T09:43:54+02:00</time>
      </trkpt>
      <trkpt lat="46.62138" lon="4.94392">
        <ele>174.7002</ele>
        <time>2026-05-14T09:43:55+02:00</time>
      </trkpt>
      <trkpt lat="46.62143" lon="4.94396">
        <ele>174.10059</ele>
        <time>2026-05-14T09:43:56+02:00</time>
      </trkpt>
      <trkpt lat="46.62148" lon="4.94399">
        <ele>174.2002</ele>
        <time>2026-05-14T09:43:57+02:00</time>
      </trkpt>
      <trkpt lat="46.62152" lon="4.94402">
        <ele>174.2002</ele>
        <time>2026-05-14T09:43:58+02:00</time>
      </trkpt>
      <trkpt lat="46.62157" lon="4.94406">
        <ele>174.2998</ele>
        <time>2026-05-14T09:43:59+02:00</time>
      </trkpt>
      <trkpt lat="46.62162" lon="4.9441">
        <ele>174.40039</ele>
        <time>2026-05-14T09:44:00+02:00</time>
      </trkpt>
      <trkpt lat="46.62166" lon="4.94414">
        <ele>174.2002</ele>
        <time>2026-05-14T09:44:01+02:00</time>
      </trkpt>
      <trkpt lat="46.62171" lon="4.94418">
        <ele>174.2002</ele>
        <time>2026-05-14T09:44:02+02:00</time>
      </trkpt>
      <trkpt lat="46.62176" lon="4.94422">
        <ele>173.60059</ele>
        <time>2026-05-14T09:44:03+02:00</time>
      </trkpt>
      <trkpt lat="46.6218" lon="4.94426">
        <ele>173.60059</ele>
        <time>2026-05-14T09:44:04+02:00</time>
      </trkpt>
      <trkpt lat="46.62184" lon="4.94429">
        <ele>173.2002</ele>
        <time>2026-05-14T09:44:05+02:00</time>
      </trkpt>
      <trkpt lat="46.62189" lon="4.94433">
        <ele>173.60059</ele>
        <time>2026-05-14T09:44:06+02:00</time>
      </trkpt>
      <trkpt lat="46.62193" lon="4.94436">
        <ele>173.90039</ele>
        <time>2026-05-14T09:44:07+02:00</time>
      </trkpt>
      <trkpt lat="46.62198" lon="4.94441">
        <ele>174.10059</ele>
        <time>2026-05-14T09:44:08+02:00</time>
      </trkpt>
      <trkpt lat="46.62203" lon="4.94445">
        <ele>173.7998</ele>
        <time>2026-05-14T09:44:09+02:00</time>
      </trkpt>
      <trkpt lat="46.62208" lon="4.94449">
        <ele>174</ele>
        <time>2026-05-14T09:44:10+02:00</time>
      </trkpt>
      <trkpt lat="46.62212" lon="4.94453">
        <ele>174.2002</ele>
        <time>2026-05-14T09:44:11+02:00</time>
      </trkpt>
      <trkpt lat="46.62217" lon="4.94458">
        <ele>173</ele>
        <time>2026-05-14T09:44:12+02:00</time>
      </trkpt>
      <trkpt lat="46.62222" lon="4.94462">
        <ele>171.2002</ele>
        <time>2026-05-14T09:44:13+02:00</time>
      </trkpt>
      <trkpt lat="46.62227" lon="4.94466">
        <ele>171.10059</ele>
        <time>2026-05-14T09:44:14+02:00</time>
      </trkpt>
      <trkpt lat="46.62231" lon="4.9447">
        <ele>171.10059</ele>
        <time>2026-05-14T09:44:15+02:00</time>
      </trkpt>
      <trkpt lat="46.62236" lon="4.94474">
        <ele>169.90039</ele>
        <time>2026-05-14T09:44:16+02:00</time>
      </trkpt>
      <trkpt lat="46.62241" lon="4.94478">
        <ele>170</ele>
        <time>2026-05-14T09:44:17+02:00</time>
      </trkpt>
      <trkpt lat="46.62246" lon="4.94482">
        <ele>170</ele>
        <time>2026-05-14T09:44:18+02:00</time>
      </trkpt>
      <trkpt lat="46.62251" lon="4.94486">
        <ele>170.5</ele>
        <time>2026-05-14T09:44:19+02:00</time>
      </trkpt>
      <trkpt lat="46.62256" lon="4.9449">
        <ele>170</ele>
        <time>2026-05-14T09:44:20+02:00</time>
      </trkpt>
      <trkpt lat="46.62261" lon="4.94494">
        <ele>170.5</ele>
        <time>2026-05-14T09:44:21+02:00</time>
      </trkpt>
      <trkpt lat="46.62265" lon="4.94499">
        <ele>170.10059</ele>
        <time>2026-05-14T09:44:22+02:00</time>
      </trkpt>
      <trkpt lat="46.6227" lon="4.94503">
        <ele>170.40039</ele>
        <time>2026-05-14T09:44:23+02:00</time>
      </trkpt>
      <trkpt lat="46.62275" lon="4.94508">
        <ele>170</ele>
        <time>2026-05-14T09:44:24+02:00</time>
      </trkpt>
      <trkpt lat="46.6228" lon="4.94512">
        <ele>170.5</ele>
        <time>2026-05-14T09:44:25+02:00</time>
      </trkpt>
      <trkpt lat="46.62285" lon="4.94516">
        <ele>170</ele>
        <time>2026-05-14T09:44:26+02:00</time>
      </trkpt>
      <trkpt lat="46.62289" lon="4.94521">
        <ele>170.5</ele>
        <time>2026-05-14T09:44:27+02:00</time>
      </trkpt>
      <trkpt lat="46.62294" lon="4.94525">
        <ele>170.2998</ele>
        <time>2026-05-14T09:44:28+02:00</time>
      </trkpt>
      <trkpt lat="46.62298" lon="4.94529">
        <ele>170.7002</ele>
        <time>2026-05-14T09:44:29+02:00</time>
      </trkpt>
      <trkpt lat="46.62303" lon="4.94533">
        <ele>169.7998</ele>
        <time>2026-05-14T09:44:30+02:00</time>
      </trkpt>
      <trkpt lat="46.62307" lon="4.94537">
        <ele>170.10059</ele>
        <time>2026-05-14T09:44:31+02:00</time>
      </trkpt>
      <trkpt lat="46.62312" lon="4.94541">
        <ele>170.10059</ele>
        <time>2026-05-14T09:44:32+02:00</time>
      </trkpt>
      <trkpt lat="46.62314" lon="4.94543">
        <ele>170.10059</ele>
        <time>2026-05-14T09:44:33+02:00</time>
      </trkpt>
      <trkpt lat="46.6232" lon="4.94549">
        <ele>170.2998</ele>
        <time>2026-05-14T09:44:34+02:00</time>
      </trkpt>
      <trkpt lat="46.62324" lon="4.94554">
        <ele>170.90039</ele>
        <time>2026-05-14T09:44:35+02:00</time>
      </trkpt>
      <trkpt lat="46.62328" lon="4.94559">
        <ele>170.10059</ele>
        <time>2026-05-14T09:44:36+02:00</time>
      </trkpt>
      <trkpt lat="46.62333" lon="4.94564">
        <ele>170.60059</ele>
        <time>2026-05-14T09:44:37+02:00</time>
      </trkpt>
      <trkpt lat="46.62336" lon="4.94569">
        <ele>170</ele>
        <time>2026-05-14T09:44:38+02:00</time>
      </trkpt>
      <trkpt lat="46.62341" lon="4.94574">
        <ele>170.5</ele>
        <time>2026-05-14T09:44:39+02:00</time>
      </trkpt>
      <trkpt lat="46.62345" lon="4.9458">
        <ele>171</ele>
        <time>2026-05-14T09:44:40+02:00</time>
      </trkpt>
      <trkpt lat="46.62349" lon="4.94586">
        <ele>170.10059</ele>
        <time>2026-05-14T09:44:41+02:00</time>
      </trkpt>
      <trkpt lat="46.62353" lon="4.94592">
        <ele>169.7998</ele>
        <time>2026-05-14T09:44:42+02:00</time>
      </trkpt>
      <trkpt lat="46.62358" lon="4.94598">
        <ele>170</ele>
        <time>2026-05-14T09:44:43+02:00</time>
      </trkpt>
      <trkpt lat="46.62362" lon="4.94604">
        <ele>169.60059</ele>
        <time>2026-05-14T09:44:44+02:00</time>
      </trkpt>
      <trkpt lat="46.62366" lon="4.9461">
        <ele>169.60059</ele>
        <time>2026-05-14T09:44:45+02:00</time>
      </trkpt>
      <trkpt lat="46.6237" lon="4.94616">
        <ele>169.7998</ele>
        <time>2026-05-14T09:44:46+02:00</time>
      </trkpt>
      <trkpt lat="46.62375" lon="4.94622">
        <ele>169.7998</ele>
        <time>2026-05-14T09:44:47+02:00</time>
      </trkpt>
      <trkpt lat="46.62379" lon="4.94628">
        <ele>169.60059</ele>
        <time>2026-05-14T09:44:48+02:00</time>
      </trkpt>
      <trkpt lat="46.62383" lon="4.94635">
        <ele>169.7998</ele>
        <time>2026-05-14T09:44:49+02:00</time>
      </trkpt>
      <trkpt lat="46.62387" lon="4.94641">
        <ele>170.7002</ele>
        <time>2026-05-14T09:44:50+02:00</time>
      </trkpt>
      <trkpt lat="46.62391" lon="4.94647">
        <ele>170.2002</ele>
        <time>2026-05-14T09:44:51+02:00</time>
      </trkpt>
      <trkpt lat="46.62395" lon="4.94653">
        <ele>169.90039</ele>
        <time>2026-05-14T09:44:52+02:00</time>
      </trkpt>
      <trkpt lat="46.62399" lon="4.94659">
        <ele>170.10059</ele>
        <time>2026-05-14T09:44:53+02:00</time>
      </trkpt>
      <trkpt lat="46.62403" lon="4.94665">
        <ele>169.7002</ele>
        <time>2026-05-14T09:44:54+02:00</time>
      </trkpt>
      <trkpt lat="46.62407" lon="4.9467">
        <ele>169.7002</ele>
        <time>2026-05-14T09:44:55+02:00</time>
      </trkpt>
      <trkpt lat="46.62411" lon="4.94676">
        <ele>170.2002</ele>
        <time>2026-05-14T09:44:56+02:00</time>
      </trkpt>
      <trkpt lat="46.62415" lon="4.94681">
        <ele>169.7998</ele>
        <time>2026-05-14T09:44:57+02:00</time>
      </trkpt>
      <trkpt lat="46.62418" lon="4.94687">
        <ele>169.60059</ele>
        <time>2026-05-14T09:44:58+02:00</time>
      </trkpt>
      <trkpt lat="46.62422" lon="4.94691">
        <ele>169.7002</ele>
        <time>2026-05-14T09:44:59+02:00</time>
      </trkpt>
      <trkpt lat="46.62425" lon="4.94696">
        <ele>169.5</ele>
        <time>2026-05-14T09:45:00+02:00</time>
      </trkpt>
      <trkpt lat="46.6243" lon="4.94702">
        <ele>169.60059</ele>
        <time>2026-05-14T09:45:01+02:00</time>
      </trkpt>
      <trkpt lat="46.62434" lon="4.94708">
        <ele>170.10059</ele>
        <time>2026-05-14T09:45:02+02:00</time>
      </trkpt>
      <trkpt lat="46.62438" lon="4.94713">
        <ele>170.10059</ele>
        <time>2026-05-14T09:45:03+02:00</time>
      </trkpt>
      <trkpt lat="46.62442" lon="4.94718">
        <ele>170.90039</ele>
        <time>2026-05-14T09:45:04+02:00</time>
      </trkpt>
      <trkpt lat="46.62446" lon="4.94724">
        <ele>171.5</ele>
        <time>2026-05-14T09:45:05+02:00</time>
      </trkpt>
      <trkpt lat="46.62448" lon="4.94727">
        <ele>171.5</ele>
        <time>2026-05-14T09:45:06+02:00</time>
      </trkpt>
      <trkpt lat="46.62454" lon="4.94736">
        <ele>171.5</ele>
        <time>2026-05-14T09:45:07+02:00</time>
      </trkpt>
      <trkpt lat="46.62457" lon="4.94742">
        <ele>170.7002</ele>
        <time>2026-05-14T09:45:08+02:00</time>
      </trkpt>
      <trkpt lat="46.62461" lon="4.94748">
        <ele>169.7998</ele>
        <time>2026-05-14T09:45:09+02:00</time>
      </trkpt>
      <trkpt lat="46.62465" lon="4.94754">
        <ele>169.40039</ele>
        <time>2026-05-14T09:45:10+02:00</time>
      </trkpt>
      <trkpt lat="46.62468" lon="4.94759">
        <ele>169.40039</ele>
        <time>2026-05-14T09:45:11+02:00</time>
      </trkpt>
      <trkpt lat="46.62473" lon="4.94765">
        <ele>169.5</ele>
        <time>2026-05-14T09:45:12+02:00</time>
      </trkpt>
      <trkpt lat="46.62476" lon="4.94771">
        <ele>169.90039</ele>
        <time>2026-05-14T09:45:13+02:00</time>
      </trkpt>
      <trkpt lat="46.62481" lon="4.94777">
        <ele>169.7002</ele>
        <time>2026-05-14T09:45:14+02:00</time>
      </trkpt>
      <trkpt lat="46.62485" lon="4.94783">
        <ele>169.40039</ele>
        <time>2026-05-14T09:45:15+02:00</time>
      </trkpt>
      <trkpt lat="46.62489" lon="4.94789">
        <ele>168.90039</ele>
        <time>2026-05-14T09:45:16+02:00</time>
      </trkpt>
      <trkpt lat="46.62492" lon="4.94796">
        <ele>168.90039</ele>
        <time>2026-05-14T09:45:17+02:00</time>
      </trkpt>
      <trkpt lat="46.62496" lon="4.94802">
        <ele>169.2002</ele>
        <time>2026-05-14T09:45:18+02:00</time>
      </trkpt>
      <trkpt lat="46.62499" lon="4.94808">
        <ele>170.10059</ele>
        <time>2026-05-14T09:45:19+02:00</time>
      </trkpt>
      <trkpt lat="46.62502" lon="4.94815">
        <ele>170</ele>
        <time>2026-05-14T09:45:20+02:00</time>
      </trkpt>
      <trkpt lat="46.62506" lon="4.94822">
        <ele>171</ele>
        <time>2026-05-14T09:45:21+02:00</time>
      </trkpt>
      <trkpt lat="46.6251" lon="4.94828">
        <ele>171.10059</ele>
        <time>2026-05-14T09:45:22+02:00</time>
      </trkpt>
      <trkpt lat="46.62513" lon="4.94835">
        <ele>169.7002</ele>
        <time>2026-05-14T09:45:23+02:00</time>
      </trkpt>
      <trkpt lat="46.62517" lon="4.94842">
        <ele>169.10059</ele>
        <time>2026-05-14T09:45:24+02:00</time>
      </trkpt>
      <trkpt lat="46.62521" lon="4.94848">
        <ele>169.10059</ele>
        <time>2026-05-14T09:45:25+02:00</time>
      </trkpt>
      <trkpt lat="46.62525" lon="4.94855">
        <ele>169.2998</ele>
        <time>2026-05-14T09:45:26+02:00</time>
      </trkpt>
      <trkpt lat="46.62529" lon="4.94862">
        <ele>170.2002</ele>
        <time>2026-05-14T09:45:27+02:00</time>
      </trkpt>
      <trkpt lat="46.62533" lon="4.94869">
        <ele>170.2998</ele>
        <time>2026-05-14T09:45:28+02:00</time>
      </trkpt>
      <trkpt lat="46.62536" lon="4.94875">
        <ele>170.7002</ele>
        <time>2026-05-14T09:45:29+02:00</time>
      </trkpt>
      <trkpt lat="46.6254" lon="4.94882">
        <ele>171.7002</ele>
        <time>2026-05-14T09:45:30+02:00</time>
      </trkpt>
      <trkpt lat="46.62544" lon="4.94888">
        <ele>170.7002</ele>
        <time>2026-05-14T09:45:31+02:00</time>
      </trkpt>
      <trkpt lat="46.62548" lon="4.94894">
        <ele>170.2998</ele>
        <time>2026-05-14T09:45:32+02:00</time>
      </trkpt>
      <trkpt lat="46.62552" lon="4.949">
        <ele>169.90039</ele>
        <time>2026-05-14T09:45:33+02:00</time>
      </trkpt>
      <trkpt lat="46.62555" lon="4.94907">
        <ele>169.90039</ele>
        <time>2026-05-14T09:45:34+02:00</time>
      </trkpt>
      <trkpt lat="46.62559" lon="4.94913">
        <ele>169.7002</ele>
        <time>2026-05-14T09:45:35+02:00</time>
      </trkpt>
      <trkpt lat="46.62563" lon="4.94919">
        <ele>169.7002</ele>
        <time>2026-05-14T09:45:36+02:00</time>
      </trkpt>
      <trkpt lat="46.62567" lon="4.94925">
        <ele>169.7002</ele>
        <time>2026-05-14T09:45:37+02:00</time>
      </trkpt>
      <trkpt lat="46.62571" lon="4.94932">
        <ele>169.7998</ele>
        <time>2026-05-14T09:45:38+02:00</time>
      </trkpt>
      <trkpt lat="46.62575" lon="4.94938">
        <ele>169.7002</ele>
        <time>2026-05-14T09:45:39+02:00</time>
      </trkpt>
      <trkpt lat="46.62579" lon="4.94944">
        <ele>169.5</ele>
        <time>2026-05-14T09:45:40+02:00</time>
      </trkpt>
      <trkpt lat="46.62583" lon="4.9495">
        <ele>169.40039</ele>
        <time>2026-05-14T09:45:41+02:00</time>
      </trkpt>
      <trkpt lat="46.62584" lon="4.94953">
        <ele>169.40039</ele>
        <time>2026-05-14T09:45:42+02:00</time>
      </trkpt>
      <trkpt lat="46.6259" lon="4.94962">
        <ele>169.40039</ele>
        <time>2026-05-14T09:45:43+02:00</time>
      </trkpt>
      <trkpt lat="46.62594" lon="4.94968">
        <ele>169.60059</ele>
        <time>2026-05-14T09:45:44+02:00</time>
      </trkpt>
      <trkpt lat="46.62598" lon="4.94973">
        <ele>169.5</ele>
        <time>2026-05-14T09:45:45+02:00</time>
      </trkpt>
      <trkpt lat="46.62602" lon="4.94979">
        <ele>169.7002</ele>
        <time>2026-05-14T09:45:46+02:00</time>
      </trkpt>
      <trkpt lat="46.62605" lon="4.94985">
        <ele>170.10059</ele>
        <time>2026-05-14T09:45:47+02:00</time>
      </trkpt>
      <trkpt lat="46.6261" lon="4.94991">
        <ele>169.7002</ele>
        <time>2026-05-14T09:45:48+02:00</time>
      </trkpt>
      <trkpt lat="46.62614" lon="4.94996">
        <ele>169.60059</ele>
        <time>2026-05-14T09:45:49+02:00</time>
      </trkpt>
      <trkpt lat="46.62618" lon="4.95002">
        <ele>169.60059</ele>
        <time>2026-05-14T09:45:50+02:00</time>
      </trkpt>
      <trkpt lat="46.62622" lon="4.95008">
        <ele>169.40039</ele>
        <time>2026-05-14T09:45:51+02:00</time>
      </trkpt>
      <trkpt lat="46.62626" lon="4.95013">
        <ele>169.5</ele>
        <time>2026-05-14T09:45:52+02:00</time>
      </trkpt>
      <trkpt lat="46.62631" lon="4.95019">
        <ele>169.5</ele>
        <time>2026-05-14T09:45:53+02:00</time>
      </trkpt>
      <trkpt lat="46.62635" lon="4.95025">
        <ele>169.60059</ele>
        <time>2026-05-14T09:45:54+02:00</time>
      </trkpt>
      <trkpt lat="46.62639" lon="4.9503">
        <ele>169.60059</ele>
        <time>2026-05-14T09:45:55+02:00</time>
      </trkpt>
      <trkpt lat="46.62643" lon="4.95036">
        <ele>169.60059</ele>
        <time>2026-05-14T09:45:56+02:00</time>
      </trkpt>
      <trkpt lat="46.62647" lon="4.95042">
        <ele>169.5</ele>
        <time>2026-05-14T09:45:57+02:00</time>
      </trkpt>
      <trkpt lat="46.62652" lon="4.95048">
        <ele>169.5</ele>
        <time>2026-05-14T09:45:58+02:00</time>
      </trkpt>
      <trkpt lat="46.62656" lon="4.95053">
        <ele>169.5</ele>
        <time>2026-05-14T09:45:59+02:00</time>
      </trkpt>
      <trkpt lat="46.6266" lon="4.95059">
        <ele>169.7002</ele>
        <time>2026-05-14T09:46:00+02:00</time>
      </trkpt>
      <trkpt lat="46.62665" lon="4.95064">
        <ele>169.7002</ele>
        <time>2026-05-14T09:46:01+02:00</time>
      </trkpt>
      <trkpt lat="46.62669" lon="4.95069">
        <ele>169.60059</ele>
        <time>2026-05-14T09:46:02+02:00</time>
      </trkpt>
      <trkpt lat="46.62673" lon="4.95074">
        <ele>169.7002</ele>
        <time>2026-05-14T09:46:03+02:00</time>
      </trkpt>
      <trkpt lat="46.62678" lon="4.95079">
        <ele>169.40039</ele>
        <time>2026-05-14T09:46:04+02:00</time>
      </trkpt>
      <trkpt lat="46.62682" lon="4.95083">
        <ele>169.60059</ele>
        <time>2026-05-14T09:46:05+02:00</time>
      </trkpt>
      <trkpt lat="46.62686" lon="4.95088">
        <ele>169.60059</ele>
        <time>2026-05-14T09:46:06+02:00</time>
      </trkpt>
      <trkpt lat="46.62691" lon="4.95093">
        <ele>169.7998</ele>
        <time>2026-05-14T09:46:07+02:00</time>
      </trkpt>
      <trkpt lat="46.62695" lon="4.95098">
        <ele>169.7002</ele>
        <time>2026-05-14T09:46:08+02:00</time>
      </trkpt>
      <trkpt lat="46.627" lon="4.95102">
        <ele>169.2998</ele>
        <time>2026-05-14T09:46:09+02:00</time>
      </trkpt>
      <trkpt lat="46.62704" lon="4.95106">
        <ele>169.5</ele>
        <time>2026-05-14T09:46:10+02:00</time>
      </trkpt>
      <trkpt lat="46.62706" lon="4.95108">
        <ele>169.2002</ele>
        <time>2026-05-14T09:46:11+02:00</time>
      </trkpt>
      <trkpt lat="46.62713" lon="4.95115">
        <ele>169.5</ele>
        <time>2026-05-14T09:46:12+02:00</time>
      </trkpt>
      <trkpt lat="46.62717" lon="4.95119">
        <ele>169.7998</ele>
        <time>2026-05-14T09:46:13+02:00</time>
      </trkpt>
      <trkpt lat="46.62721" lon="4.95123">
        <ele>169.7002</ele>
        <time>2026-05-14T09:46:14+02:00</time>
      </trkpt>
      <trkpt lat="46.62726" lon="4.95128">
        <ele>170.2002</ele>
        <time>2026-05-14T09:46:15+02:00</time>
      </trkpt>
      <trkpt lat="46.6273" lon="4.95132">
        <ele>170.2998</ele>
        <time>2026-05-14T09:46:16+02:00</time>
      </trkpt>
      <trkpt lat="46.62734" lon="4.95137">
        <ele>170.7002</ele>
        <time>2026-05-14T09:46:17+02:00</time>
      </trkpt>
      <trkpt lat="46.62739" lon="4.95142">
        <ele>169.90039</ele>
        <time>2026-05-14T09:46:18+02:00</time>
      </trkpt>
      <trkpt lat="46.62743" lon="4.95147">
        <ele>169.90039</ele>
        <time>2026-05-14T09:46:19+02:00</time>
      </trkpt>
      <trkpt lat="46.62747" lon="4.95152">
        <ele>169.2998</ele>
        <time>2026-05-14T09:46:20+02:00</time>
      </trkpt>
      <trkpt lat="46.62752" lon="4.95156">
        <ele>169</ele>
        <time>2026-05-14T09:46:21+02:00</time>
      </trkpt>
      <trkpt lat="46.62756" lon="4.95161">
        <ele>169</ele>
        <time>2026-05-14T09:46:22+02:00</time>
      </trkpt>
      <trkpt lat="46.62761" lon="4.95165">
        <ele>168.90039</ele>
        <time>2026-05-14T09:46:23+02:00</time>
      </trkpt>
      <trkpt lat="46.62766" lon="4.95169">
        <ele>169.5</ele>
        <time>2026-05-14T09:46:24+02:00</time>
      </trkpt>
      <trkpt lat="46.6277" lon="4.95173">
        <ele>169.7002</ele>
        <time>2026-05-14T09:46:25+02:00</time>
      </trkpt>
      <trkpt lat="46.62775" lon="4.95177">
        <ele>169.7002</ele>
        <time>2026-05-14T09:46:26+02:00</time>
      </trkpt>
      <trkpt lat="46.6278" lon="4.95182">
        <ele>169.7002</ele>
        <time>2026-05-14T09:46:27+02:00</time>
      </trkpt>
      <trkpt lat="46.62785" lon="4.95185">
        <ele>169.40039</ele>
        <time>2026-05-14T09:46:28+02:00</time>
      </trkpt>
      <trkpt lat="46.6279" lon="4.9519">
        <ele>169.2002</ele>
        <time>2026-05-14T09:46:29+02:00</time>
      </trkpt>
      <trkpt lat="46.62794" lon="4.95194">
        <ele>169.2998</ele>
        <time>2026-05-14T09:46:30+02:00</time>
      </trkpt>
      <trkpt lat="46.62799" lon="4.95198">
        <ele>169.2998</ele>
        <time>2026-05-14T09:46:31+02:00</time>
      </trkpt>
      <trkpt lat="46.62803" lon="4.95201">
        <ele>169.7002</ele>
        <time>2026-05-14T09:46:32+02:00</time>
      </trkpt>
      <trkpt lat="46.62808" lon="4.95205">
        <ele>169.7002</ele>
        <time>2026-05-14T09:46:33+02:00</time>
      </trkpt>
      <trkpt lat="46.62813" lon="4.95209">
        <ele>169.7002</ele>
        <time>2026-05-14T09:46:34+02:00</time>
      </trkpt>
      <trkpt lat="46.62818" lon="4.95212">
        <ele>169.7002</ele>
        <time>2026-05-14T09:46:35+02:00</time>
      </trkpt>
      <trkpt lat="46.62822" lon="4.95216">
        <ele>169.7002</ele>
        <time>2026-05-14T09:46:36+02:00</time>
      </trkpt>
      <trkpt lat="46.62828" lon="4.95219">
        <ele>169.40039</ele>
        <time>2026-05-14T09:46:37+02:00</time>
      </trkpt>
      <trkpt lat="46.62833" lon="4.95222">
        <ele>169.40039</ele>
        <time>2026-05-14T09:46:38+02:00</time>
      </trkpt>
      <trkpt lat="46.62835" lon="4.95224">
        <ele>169.2998</ele>
        <time>2026-05-14T09:46:39+02:00</time>
      </trkpt>
      <trkpt lat="46.62843" lon="4.95228">
        <ele>169.60059</ele>
        <time>2026-05-14T09:46:40+02:00</time>
      </trkpt>
      <trkpt lat="46.62848" lon="4.95232">
        <ele>169.60059</ele>
        <time>2026-05-14T09:46:41+02:00</time>
      </trkpt>
      <trkpt lat="46.62853" lon="4.95235">
        <ele>169.7002</ele>
        <time>2026-05-14T09:46:42+02:00</time>
      </trkpt>
      <trkpt lat="46.62857" lon="4.95238">
        <ele>169.7002</ele>
        <time>2026-05-14T09:46:43+02:00</time>
      </trkpt>
      <trkpt lat="46.62862" lon="4.9524">
        <ele>169.7002</ele>
        <time>2026-05-14T09:46:44+02:00</time>
      </trkpt>
      <trkpt lat="46.62866" lon="4.95243">
        <ele>169.7002</ele>
        <time>2026-05-14T09:46:45+02:00</time>
      </trkpt>
      <trkpt lat="46.62871" lon="4.95246">
        <ele>169.5</ele>
        <time>2026-05-14T09:46:46+02:00</time>
      </trkpt>
      <trkpt lat="46.62876" lon="4.9525">
        <ele>169.40039</ele>
        <time>2026-05-14T09:46:47+02:00</time>
      </trkpt>
      <trkpt lat="46.62881" lon="4.95253">
        <ele>169.5</ele>
        <time>2026-05-14T09:46:48+02:00</time>
      </trkpt>
      <trkpt lat="46.62885" lon="4.95255">
        <ele>169.5</ele>
        <time>2026-05-14T09:46:49+02:00</time>
      </trkpt>
      <trkpt lat="46.6289" lon="4.95258">
        <ele>169.60059</ele>
        <time>2026-05-14T09:46:50+02:00</time>
      </trkpt>
      <trkpt lat="46.62895" lon="4.95261">
        <ele>169.7002</ele>
        <time>2026-05-14T09:46:51+02:00</time>
      </trkpt>
      <trkpt lat="46.629" lon="4.95264">
        <ele>169.7002</ele>
        <time>2026-05-14T09:46:52+02:00</time>
      </trkpt>
      <trkpt lat="46.62904" lon="4.95266">
        <ele>169.7002</ele>
        <time>2026-05-14T09:46:53+02:00</time>
      </trkpt>
      <trkpt lat="46.62908" lon="4.95267">
        <ele>169.7002</ele>
        <time>2026-05-14T09:46:54+02:00</time>
      </trkpt>
      <trkpt lat="46.62912" lon="4.95268">
        <ele>169.7002</ele>
        <time>2026-05-14T09:46:55+02:00</time>
      </trkpt>
      <trkpt lat="46.62917" lon="4.95269">
        <ele>169.7002</ele>
        <time>2026-05-14T09:46:56+02:00</time>
      </trkpt>
      <trkpt lat="46.62921" lon="4.95269">
        <ele>169.7002</ele>
        <time>2026-05-14T09:46:57+02:00</time>
      </trkpt>
      <trkpt lat="46.62926" lon="4.9527">
        <ele>169.7002</ele>
        <time>2026-05-14T09:46:58+02:00</time>
      </trkpt>
      <trkpt lat="46.6293" lon="4.95271">
        <ele>169.7002</ele>
        <time>2026-05-14T09:46:59+02:00</time>
      </trkpt>
      <trkpt lat="46.62936" lon="4.95273">
        <ele>169.7002</ele>
        <time>2026-05-14T09:47:00+02:00</time>
      </trkpt>
      <trkpt lat="46.62941" lon="4.95274">
        <ele>169.60059</ele>
        <time>2026-05-14T09:47:01+02:00</time>
      </trkpt>
      <trkpt lat="46.62945" lon="4.95275">
        <ele>169.60059</ele>
        <time>2026-05-14T09:47:02+02:00</time>
      </trkpt>
      <trkpt lat="46.6295" lon="4.95277">
        <ele>169.60059</ele>
        <time>2026-05-14T09:47:03+02:00</time>
      </trkpt>
      <trkpt lat="46.62955" lon="4.9528">
        <ele>169.60059</ele>
        <time>2026-05-14T09:47:04+02:00</time>
      </trkpt>
      <trkpt lat="46.6296" lon="4.95282">
        <ele>169.60059</ele>
        <time>2026-05-14T09:47:05+02:00</time>
      </trkpt>
      <trkpt lat="46.62965" lon="4.95285">
        <ele>169.7002</ele>
        <time>2026-05-14T09:47:06+02:00</time>
      </trkpt>
      <trkpt lat="46.6297" lon="4.95288">
        <ele>169.7002</ele>
        <time>2026-05-14T09:47:07+02:00</time>
      </trkpt>
      <trkpt lat="46.62975" lon="4.95291">
        <ele>169.7002</ele>
        <time>2026-05-14T09:47:08+02:00</time>
      </trkpt>
      <trkpt lat="46.6298" lon="4.95293">
        <ele>169.7002</ele>
        <time>2026-05-14T09:47:09+02:00</time>
      </trkpt>
      <trkpt lat="46.62985" lon="4.95295">
        <ele>169.7002</ele>
        <time>2026-05-14T09:47:10+02:00</time>
      </trkpt>
      <trkpt lat="46.6299" lon="4.95298">
        <ele>169.7002</ele>
        <time>2026-05-14T09:47:11+02:00</time>
      </trkpt>
      <trkpt lat="46.62995" lon="4.953">
        <ele>169.7002</ele>
        <time>2026-05-14T09:47:12+02:00</time>
      </trkpt>
      <trkpt lat="46.63" lon="4.95303">
        <ele>169.7002</ele>
        <time>2026-05-14T09:47:13+02:00</time>
      </trkpt>
      <trkpt lat="46.63006" lon="4.95305">
        <ele>169.7002</ele>
        <time>2026-05-14T09:47:14+02:00</time>
      </trkpt>
      <trkpt lat="46.63011" lon="4.95308">
        <ele>169.7002</ele>
        <time>2026-05-14T09:47:15+02:00</time>
      </trkpt>
      <trkpt lat="46.63016" lon="4.9531">
        <ele>169.7002</ele>
        <time>2026-05-14T09:47:16+02:00</time>
      </trkpt>
      <trkpt lat="46.63019" lon="4.95312">
        <ele>169.7002</ele>
        <time>2026-05-14T09:47:17+02:00</time>
      </trkpt>
      <trkpt lat="46.63027" lon="4.95316">
        <ele>169.7002</ele>
        <time>2026-05-14T09:47:18+02:00</time>
      </trkpt>
      <trkpt lat="46.63031" lon="4.95319">
        <ele>169.7002</ele>
        <time>2026-05-14T09:47:19+02:00</time>
      </trkpt>
      <trkpt lat="46.63036" lon="4.95321">
        <ele>169.7002</ele>
        <time>2026-05-14T09:47:20+02:00</time>
      </trkpt>
      <trkpt lat="46.63041" lon="4.95324">
        <ele>169.7002</ele>
        <time>2026-05-14T09:47:21+02:00</time>
      </trkpt>
      <trkpt lat="46.63047" lon="4.95327">
        <ele>169.7002</ele>
        <time>2026-05-14T09:47:22+02:00</time>
      </trkpt>
      <trkpt lat="46.63052" lon="4.9533">
        <ele>169.7002</ele>
        <time>2026-05-14T09:47:23+02:00</time>
      </trkpt>
      <trkpt lat="46.63058" lon="4.95334">
        <ele>169.7002</ele>
        <time>2026-05-14T09:47:24+02:00</time>
      </trkpt>
      <trkpt lat="46.63063" lon="4.95337">
        <ele>169.7002</ele>
        <time>2026-05-14T09:47:25+02:00</time>
      </trkpt>
      <trkpt lat="46.63069" lon="4.9534">
        <ele>169.7002</ele>
        <time>2026-05-14T09:47:26+02:00</time>
      </trkpt>
      <trkpt lat="46.63074" lon="4.95343">
        <ele>169.7002</ele>
        <time>2026-05-14T09:47:27+02:00</time>
      </trkpt>
      <trkpt lat="46.6308" lon="4.95346">
        <ele>169.7002</ele>
        <time>2026-05-14T09:47:28+02:00</time>
      </trkpt>
      <trkpt lat="46.63085" lon="4.95349">
        <ele>169.7002</ele>
        <time>2026-05-14T09:47:29+02:00</time>
      </trkpt>
      <trkpt lat="46.63091" lon="4.95352">
        <ele>169.7002</ele>
        <time>2026-05-14T09:47:30+02:00</time>
      </trkpt>
      <trkpt lat="46.63096" lon="4.95354">
        <ele>169.7002</ele>
        <time>2026-05-14T09:47:31+02:00</time>
      </trkpt>
      <trkpt lat="46.63099" lon="4.95355">
        <ele>169.7002</ele>
        <time>2026-05-14T09:47:32+02:00</time>
      </trkpt>
      <trkpt lat="46.63107" lon="4.95359">
        <ele>169.5</ele>
        <time>2026-05-14T09:47:33+02:00</time>
      </trkpt>
      <trkpt lat="46.63112" lon="4.95362">
        <ele>169.5</ele>
        <time>2026-05-14T09:47:34+02:00</time>
      </trkpt>
      <trkpt lat="46.63118" lon="4.95364">
        <ele>169.60059</ele>
        <time>2026-05-14T09:47:35+02:00</time>
      </trkpt>
      <trkpt lat="46.63123" lon="4.95366">
        <ele>169.60059</ele>
        <time>2026-05-14T09:47:36+02:00</time>
      </trkpt>
      <trkpt lat="46.63128" lon="4.95369">
        <ele>169.60059</ele>
        <time>2026-05-14T09:47:37+02:00</time>
      </trkpt>
      <trkpt lat="46.63134" lon="4.95371">
        <ele>169.7002</ele>
        <time>2026-05-14T09:47:38+02:00</time>
      </trkpt>
      <trkpt lat="46.63139" lon="4.95373">
        <ele>169.7002</ele>
        <time>2026-05-14T09:47:39+02:00</time>
      </trkpt>
      <trkpt lat="46.63144" lon="4.95375">
        <ele>169.7002</ele>
        <time>2026-05-14T09:47:40+02:00</time>
      </trkpt>
      <trkpt lat="46.6315" lon="4.95377">
        <ele>169.60059</ele>
        <time>2026-05-14T09:47:41+02:00</time>
      </trkpt>
      <trkpt lat="46.63155" lon="4.95379">
        <ele>169.60059</ele>
        <time>2026-05-14T09:47:42+02:00</time>
      </trkpt>
      <trkpt lat="46.6316" lon="4.95381">
        <ele>169.5</ele>
        <time>2026-05-14T09:47:43+02:00</time>
      </trkpt>
      <trkpt lat="46.63165" lon="4.95383">
        <ele>169.40039</ele>
        <time>2026-05-14T09:47:44+02:00</time>
      </trkpt>
      <trkpt lat="46.63171" lon="4.95385">
        <ele>169.40039</ele>
        <time>2026-05-14T09:47:45+02:00</time>
      </trkpt>
      <trkpt lat="46.63176" lon="4.95386">
        <ele>169.5</ele>
        <time>2026-05-14T09:47:46+02:00</time>
      </trkpt>
      <trkpt lat="46.63181" lon="4.95388">
        <ele>169.5</ele>
        <time>2026-05-14T09:47:47+02:00</time>
      </trkpt>
      <trkpt lat="46.63186" lon="4.9539">
        <ele>169.7002</ele>
        <time>2026-05-14T09:47:48+02:00</time>
      </trkpt>
      <trkpt lat="46.63191" lon="4.95392">
        <ele>169.7002</ele>
        <time>2026-05-14T09:47:49+02:00</time>
      </trkpt>
      <trkpt lat="46.63196" lon="4.95393">
        <ele>169.7998</ele>
        <time>2026-05-14T09:47:50+02:00</time>
      </trkpt>
      <trkpt lat="46.63201" lon="4.95395">
        <ele>169.7998</ele>
        <time>2026-05-14T09:47:51+02:00</time>
      </trkpt>
      <trkpt lat="46.63207" lon="4.95397">
        <ele>169.7998</ele>
        <time>2026-05-14T09:47:52+02:00</time>
      </trkpt>
      <trkpt lat="46.63212" lon="4.95399">
        <ele>169.7002</ele>
        <time>2026-05-14T09:47:53+02:00</time>
      </trkpt>
      <trkpt lat="46.63217" lon="4.954">
        <ele>169.60059</ele>
        <time>2026-05-14T09:47:54+02:00</time>
      </trkpt>
      <trkpt lat="46.63223" lon="4.95402">
        <ele>169.60059</ele>
        <time>2026-05-14T09:47:55+02:00</time>
      </trkpt>
      <trkpt lat="46.63228" lon="4.95404">
        <ele>169.60059</ele>
        <time>2026-05-14T09:47:56+02:00</time>
      </trkpt>
      <trkpt lat="46.63233" lon="4.95406">
        <ele>169.60059</ele>
        <time>2026-05-14T09:47:57+02:00</time>
      </trkpt>
      <trkpt lat="46.63239" lon="4.95407">
        <ele>169.60059</ele>
        <time>2026-05-14T09:47:58+02:00</time>
      </trkpt>
      <trkpt lat="46.63242" lon="4.95408">
        <ele>169.60059</ele>
        <time>2026-05-14T09:47:59+02:00</time>
      </trkpt>
      <trkpt lat="46.6325" lon="4.95411">
        <ele>169.60059</ele>
        <time>2026-05-14T09:48:00+02:00</time>
      </trkpt>
      <trkpt lat="46.63255" lon="4.95412">
        <ele>169.60059</ele>
        <time>2026-05-14T09:48:01+02:00</time>
      </trkpt>
      <trkpt lat="46.63261" lon="4.95414">
        <ele>169.60059</ele>
        <time>2026-05-14T09:48:02+02:00</time>
      </trkpt>
      <trkpt lat="46.63267" lon="4.95415">
        <ele>169.7002</ele>
        <time>2026-05-14T09:48:03+02:00</time>
      </trkpt>
      <trkpt lat="46.63272" lon="4.95416">
        <ele>169.7002</ele>
        <time>2026-05-14T09:48:04+02:00</time>
      </trkpt>
      <trkpt lat="46.63278" lon="4.95417">
        <ele>169.7002</ele>
        <time>2026-05-14T09:48:05+02:00</time>
      </trkpt>
      <trkpt lat="46.63284" lon="4.95418">
        <ele>169.7002</ele>
        <time>2026-05-14T09:48:06+02:00</time>
      </trkpt>
      <trkpt lat="46.63289" lon="4.95419">
        <ele>169.7002</ele>
        <time>2026-05-14T09:48:07+02:00</time>
      </trkpt>
      <trkpt lat="46.63295" lon="4.95419">
        <ele>169.7998</ele>
        <time>2026-05-14T09:48:08+02:00</time>
      </trkpt>
      <trkpt lat="46.63301" lon="4.9542">
        <ele>169.7998</ele>
        <time>2026-05-14T09:48:09+02:00</time>
      </trkpt>
      <trkpt lat="46.63307" lon="4.9542">
        <ele>169.7998</ele>
        <time>2026-05-14T09:48:10+02:00</time>
      </trkpt>
      <trkpt lat="46.63312" lon="4.95421">
        <ele>169.7998</ele>
        <time>2026-05-14T09:48:11+02:00</time>
      </trkpt>
      <trkpt lat="46.63318" lon="4.95421">
        <ele>169.7998</ele>
        <time>2026-05-14T09:48:12+02:00</time>
      </trkpt>
      <trkpt lat="46.63324" lon="4.95422">
        <ele>169.7998</ele>
        <time>2026-05-14T09:48:13+02:00</time>
      </trkpt>
      <trkpt lat="46.6333" lon="4.95422">
        <ele>169.7002</ele>
        <time>2026-05-14T09:48:14+02:00</time>
      </trkpt>
      <trkpt lat="46.63336" lon="4.95423">
        <ele>169.7002</ele>
        <time>2026-05-14T09:48:15+02:00</time>
      </trkpt>
      <trkpt lat="46.63341" lon="4.95424">
        <ele>169.5</ele>
        <time>2026-05-14T09:48:16+02:00</time>
      </trkpt>
      <trkpt lat="46.63347" lon="4.95424">
        <ele>169.5</ele>
        <time>2026-05-14T09:48:17+02:00</time>
      </trkpt>
      <trkpt lat="46.63353" lon="4.95425">
        <ele>169.5</ele>
        <time>2026-05-14T09:48:18+02:00</time>
      </trkpt>
      <trkpt lat="46.63358" lon="4.95425">
        <ele>169.5</ele>
        <time>2026-05-14T09:48:19+02:00</time>
      </trkpt>
      <trkpt lat="46.63364" lon="4.95425">
        <ele>169.5</ele>
        <time>2026-05-14T09:48:20+02:00</time>
      </trkpt>
      <trkpt lat="46.6337" lon="4.95425">
        <ele>169.5</ele>
        <time>2026-05-14T09:48:21+02:00</time>
      </trkpt>
      <trkpt lat="46.63376" lon="4.95425">
        <ele>169.7002</ele>
        <time>2026-05-14T09:48:22+02:00</time>
      </trkpt>
      <trkpt lat="46.63381" lon="4.95425">
        <ele>169.7998</ele>
        <time>2026-05-14T09:48:23+02:00</time>
      </trkpt>
      <trkpt lat="46.63387" lon="4.95424">
        <ele>169.90039</ele>
        <time>2026-05-14T09:48:24+02:00</time>
      </trkpt>
      <trkpt lat="46.63392" lon="4.95424">
        <ele>169.90039</ele>
        <time>2026-05-14T09:48:25+02:00</time>
      </trkpt>
      <trkpt lat="46.63398" lon="4.95424">
        <ele>169.90039</ele>
        <time>2026-05-14T09:48:26+02:00</time>
      </trkpt>
      <trkpt lat="46.63404" lon="4.95423">
        <ele>170.10059</ele>
        <time>2026-05-14T09:48:27+02:00</time>
      </trkpt>
      <trkpt lat="46.6341" lon="4.95423">
        <ele>170.10059</ele>
        <time>2026-05-14T09:48:28+02:00</time>
      </trkpt>
      <trkpt lat="46.63427" lon="4.95422">
        <ele>170.10059</ele>
        <time>2026-05-14T09:48:29+02:00</time>
      </trkpt>
      <trkpt lat="46.63432" lon="4.95423">
        <ele>170.10059</ele>
        <time>2026-05-14T09:48:30+02:00</time>
      </trkpt>
      <trkpt lat="46.63438" lon="4.95423">
        <ele>170.10059</ele>
        <time>2026-05-14T09:48:31+02:00</time>
      </trkpt>
      <trkpt lat="46.63444" lon="4.95423">
        <ele>170.2002</ele>
        <time>2026-05-14T09:48:32+02:00</time>
      </trkpt>
      <trkpt lat="46.63447" lon="4.95423">
        <ele>170.2002</ele>
        <time>2026-05-14T09:48:33+02:00</time>
      </trkpt>
      <trkpt lat="46.63456" lon="4.95424">
        <ele>170.10059</ele>
        <time>2026-05-14T09:48:34+02:00</time>
      </trkpt>
      <trkpt lat="46.63461" lon="4.95424">
        <ele>170.10059</ele>
        <time>2026-05-14T09:48:35+02:00</time>
      </trkpt>
      <trkpt lat="46.63467" lon="4.95424">
        <ele>170.2002</ele>
        <time>2026-05-14T09:48:36+02:00</time>
      </trkpt>
      <trkpt lat="46.63473" lon="4.95424">
        <ele>170.2002</ele>
        <time>2026-05-14T09:48:37+02:00</time>
      </trkpt>
      <trkpt lat="46.63479" lon="4.95424">
        <ele>170.2998</ele>
        <time>2026-05-14T09:48:38+02:00</time>
      </trkpt>
      <trkpt lat="46.63485" lon="4.95424">
        <ele>170.2998</ele>
        <time>2026-05-14T09:48:39+02:00</time>
      </trkpt>
      <trkpt lat="46.6349" lon="4.95425">
        <ele>170.40039</ele>
        <time>2026-05-14T09:48:40+02:00</time>
      </trkpt>
      <trkpt lat="46.63496" lon="4.95425">
        <ele>170.5</ele>
        <time>2026-05-14T09:48:41+02:00</time>
      </trkpt>
      <trkpt lat="46.63502" lon="4.95425">
        <ele>170.5</ele>
        <time>2026-05-14T09:48:42+02:00</time>
      </trkpt>
      <trkpt lat="46.63508" lon="4.95425">
        <ele>170.5</ele>
        <time>2026-05-14T09:48:43+02:00</time>
      </trkpt>
      <trkpt lat="46.63513" lon="4.95425">
        <ele>170.40039</ele>
        <time>2026-05-14T09:48:44+02:00</time>
      </trkpt>
      <trkpt lat="46.63519" lon="4.95426">
        <ele>170.40039</ele>
        <time>2026-05-14T09:48:45+02:00</time>
      </trkpt>
      <trkpt lat="46.63525" lon="4.95426">
        <ele>170.40039</ele>
        <time>2026-05-14T09:48:46+02:00</time>
      </trkpt>
      <trkpt lat="46.6353" lon="4.95426">
        <ele>170.40039</ele>
        <time>2026-05-14T09:48:47+02:00</time>
      </trkpt>
      <trkpt lat="46.63536" lon="4.95426">
        <ele>170.2998</ele>
        <time>2026-05-14T09:48:48+02:00</time>
      </trkpt>
      <trkpt lat="46.63542" lon="4.95426">
        <ele>170.2998</ele>
        <time>2026-05-14T09:48:49+02:00</time>
      </trkpt>
      <trkpt lat="46.63547" lon="4.95427">
        <ele>170.2998</ele>
        <time>2026-05-14T09:48:50+02:00</time>
      </trkpt>
      <trkpt lat="46.63553" lon="4.95427">
        <ele>170.2998</ele>
        <time>2026-05-14T09:48:51+02:00</time>
      </trkpt>
      <trkpt lat="46.63559" lon="4.95427">
        <ele>170.2998</ele>
        <time>2026-05-14T09:48:52+02:00</time>
      </trkpt>
      <trkpt lat="46.63564" lon="4.95427">
        <ele>170.2998</ele>
        <time>2026-05-14T09:48:53+02:00</time>
      </trkpt>
      <trkpt lat="46.6357" lon="4.95427">
        <ele>170.2998</ele>
        <time>2026-05-14T09:48:54+02:00</time>
      </trkpt>
      <trkpt lat="46.63576" lon="4.95427">
        <ele>170.2998</ele>
        <time>2026-05-14T09:48:55+02:00</time>
      </trkpt>
      <trkpt lat="46.63582" lon="4.95426">
        <ele>170.2002</ele>
        <time>2026-05-14T09:48:56+02:00</time>
      </trkpt>
      <trkpt lat="46.63587" lon="4.95426">
        <ele>170.2002</ele>
        <time>2026-05-14T09:48:57+02:00</time>
      </trkpt>
      <trkpt lat="46.63593" lon="4.95425">
        <ele>170.2002</ele>
        <time>2026-05-14T09:48:58+02:00</time>
      </trkpt>
      <trkpt lat="46.63598" lon="4.95423">
        <ele>170.5</ele>
        <time>2026-05-14T09:48:59+02:00</time>
      </trkpt>
      <trkpt lat="46.63604" lon="4.9542">
        <ele>170.5</ele>
        <time>2026-05-14T09:49:00+02:00</time>
      </trkpt>
      <trkpt lat="46.63609" lon="4.95417">
        <ele>170.40039</ele>
        <time>2026-05-14T09:49:01+02:00</time>
      </trkpt>
      <trkpt lat="46.63615" lon="4.95415">
        <ele>170.40039</ele>
        <time>2026-05-14T09:49:02+02:00</time>
      </trkpt>
      <trkpt lat="46.6362" lon="4.95413">
        <ele>170.60059</ele>
        <time>2026-05-14T09:49:03+02:00</time>
      </trkpt>
      <trkpt lat="46.63626" lon="4.95412">
        <ele>170.60059</ele>
        <time>2026-05-14T09:49:04+02:00</time>
      </trkpt>
      <trkpt lat="46.63629" lon="4.95413">
        <ele>170.60059</ele>
        <time>2026-05-14T09:49:05+02:00</time>
      </trkpt>
      <trkpt lat="46.63637" lon="4.95415">
        <ele>170.2998</ele>
        <time>2026-05-14T09:49:06+02:00</time>
      </trkpt>
      <trkpt lat="46.63643" lon="4.95417">
        <ele>170.2998</ele>
        <time>2026-05-14T09:49:07+02:00</time>
      </trkpt>
      <trkpt lat="46.63649" lon="4.95419">
        <ele>170.2998</ele>
        <time>2026-05-14T09:49:08+02:00</time>
      </trkpt>
      <trkpt lat="46.63654" lon="4.95421">
        <ele>170.2002</ele>
        <time>2026-05-14T09:49:09+02:00</time>
      </trkpt>
      <trkpt lat="46.6366" lon="4.95423">
        <ele>170.2002</ele>
        <time>2026-05-14T09:49:10+02:00</time>
      </trkpt>
      <trkpt lat="46.63666" lon="4.95425">
        <ele>170.10059</ele>
        <time>2026-05-14T09:49:11+02:00</time>
      </trkpt>
      <trkpt lat="46.63671" lon="4.95427">
        <ele>170.10059</ele>
        <time>2026-05-14T09:49:12+02:00</time>
      </trkpt>
      <trkpt lat="46.63677" lon="4.95428">
        <ele>170.10059</ele>
        <time>2026-05-14T09:49:13+02:00</time>
      </trkpt>
      <trkpt lat="46.63682" lon="4.95429">
        <ele>170.10059</ele>
        <time>2026-05-14T09:49:14+02:00</time>
      </trkpt>
      <trkpt lat="46.63688" lon="4.9543">
        <ele>170.10059</ele>
        <time>2026-05-14T09:49:15+02:00</time>
      </trkpt>
      <trkpt lat="46.63693" lon="4.95431">
        <ele>170.10059</ele>
        <time>2026-05-14T09:49:16+02:00</time>
      </trkpt>
      <trkpt lat="46.63699" lon="4.95432">
        <ele>170.10059</ele>
        <time>2026-05-14T09:49:17+02:00</time>
      </trkpt>
      <trkpt lat="46.63704" lon="4.95433">
        <ele>170.10059</ele>
        <time>2026-05-14T09:49:18+02:00</time>
      </trkpt>
      <trkpt lat="46.6371" lon="4.95434">
        <ele>170.10059</ele>
        <time>2026-05-14T09:49:19+02:00</time>
      </trkpt>
      <trkpt lat="46.63716" lon="4.95435">
        <ele>170.10059</ele>
        <time>2026-05-14T09:49:20+02:00</time>
      </trkpt>
      <trkpt lat="46.63722" lon="4.95436">
        <ele>170.2002</ele>
        <time>2026-05-14T09:49:21+02:00</time>
      </trkpt>
      <trkpt lat="46.63727" lon="4.95436">
        <ele>170.2002</ele>
        <time>2026-05-14T09:49:22+02:00</time>
      </trkpt>
      <trkpt lat="46.63733" lon="4.95437">
        <ele>170.2002</ele>
        <time>2026-05-14T09:49:23+02:00</time>
      </trkpt>
      <trkpt lat="46.63739" lon="4.95437">
        <ele>170.2002</ele>
        <time>2026-05-14T09:49:24+02:00</time>
      </trkpt>
      <trkpt lat="46.63744" lon="4.95437">
        <ele>170.2002</ele>
        <time>2026-05-14T09:49:25+02:00</time>
      </trkpt>
      <trkpt lat="46.6375" lon="4.95437">
        <ele>170.2002</ele>
        <time>2026-05-14T09:49:26+02:00</time>
      </trkpt>
      <trkpt lat="46.63756" lon="4.95437">
        <ele>170.2002</ele>
        <time>2026-05-14T09:49:27+02:00</time>
      </trkpt>
      <trkpt lat="46.63761" lon="4.95436">
        <ele>170.2002</ele>
        <time>2026-05-14T09:49:28+02:00</time>
      </trkpt>
      <trkpt lat="46.63767" lon="4.95436">
        <ele>170.2002</ele>
        <time>2026-05-14T09:49:29+02:00</time>
      </trkpt>
      <trkpt lat="46.63773" lon="4.95435">
        <ele>170.2002</ele>
        <time>2026-05-14T09:49:30+02:00</time>
      </trkpt>
      <trkpt lat="46.63778" lon="4.95435">
        <ele>170.2002</ele>
        <time>2026-05-14T09:49:31+02:00</time>
      </trkpt>
      <trkpt lat="46.63784" lon="4.95435">
        <ele>170.2002</ele>
        <time>2026-05-14T09:49:32+02:00</time>
      </trkpt>
      <trkpt lat="46.63789" lon="4.95434">
        <ele>170.2002</ele>
        <time>2026-05-14T09:49:33+02:00</time>
      </trkpt>
      <trkpt lat="46.63795" lon="4.95434">
        <ele>170.2002</ele>
        <time>2026-05-14T09:49:34+02:00</time>
      </trkpt>
      <trkpt lat="46.638" lon="4.95434">
        <ele>170.2002</ele>
        <time>2026-05-14T09:49:35+02:00</time>
      </trkpt>
      <trkpt lat="46.63806" lon="4.95434">
        <ele>170.2002</ele>
        <time>2026-05-14T09:49:36+02:00</time>
      </trkpt>
      <trkpt lat="46.63812" lon="4.95433">
        <ele>170.2002</ele>
        <time>2026-05-14T09:49:37+02:00</time>
      </trkpt>
      <trkpt lat="46.63818" lon="4.95432">
        <ele>170.2002</ele>
        <time>2026-05-14T09:49:38+02:00</time>
      </trkpt>
      <trkpt lat="46.63824" lon="4.95432">
        <ele>170.2002</ele>
        <time>2026-05-14T09:49:39+02:00</time>
      </trkpt>
      <trkpt lat="46.6383" lon="4.95431">
        <ele>170.2998</ele>
        <time>2026-05-14T09:49:40+02:00</time>
      </trkpt>
      <trkpt lat="46.63835" lon="4.9543">
        <ele>170.2998</ele>
        <time>2026-05-14T09:49:41+02:00</time>
      </trkpt>
      <trkpt lat="46.63841" lon="4.95429">
        <ele>170.2998</ele>
        <time>2026-05-14T09:49:42+02:00</time>
      </trkpt>
      <trkpt lat="46.63846" lon="4.95428">
        <ele>170.2998</ele>
        <time>2026-05-14T09:49:43+02:00</time>
      </trkpt>
      <trkpt lat="46.63852" lon="4.95427">
        <ele>170.2002</ele>
        <time>2026-05-14T09:49:44+02:00</time>
      </trkpt>
      <trkpt lat="46.63857" lon="4.95426">
        <ele>170.2002</ele>
        <time>2026-05-14T09:49:45+02:00</time>
      </trkpt>
      <trkpt lat="46.63863" lon="4.95425">
        <ele>170.2002</ele>
        <time>2026-05-14T09:49:46+02:00</time>
      </trkpt>
      <trkpt lat="46.63869" lon="4.95423">
        <ele>170.10059</ele>
        <time>2026-05-14T09:49:47+02:00</time>
      </trkpt>
      <trkpt lat="46.63874" lon="4.95422">
        <ele>170.10059</ele>
        <time>2026-05-14T09:49:48+02:00</time>
      </trkpt>
      <trkpt lat="46.6388" lon="4.95421">
        <ele>170.2002</ele>
        <time>2026-05-14T09:49:49+02:00</time>
      </trkpt>
      <trkpt lat="46.63885" lon="4.95419">
        <ele>170.2002</ele>
        <time>2026-05-14T09:49:50+02:00</time>
      </trkpt>
      <trkpt lat="46.63891" lon="4.95418">
        <ele>170.2002</ele>
        <time>2026-05-14T09:49:51+02:00</time>
      </trkpt>
      <trkpt lat="46.63897" lon="4.95416">
        <ele>170.2002</ele>
        <time>2026-05-14T09:49:52+02:00</time>
      </trkpt>
      <trkpt lat="46.63902" lon="4.95415">
        <ele>170.2002</ele>
        <time>2026-05-14T09:49:53+02:00</time>
      </trkpt>
      <trkpt lat="46.63908" lon="4.95413">
        <ele>170.10059</ele>
        <time>2026-05-14T09:49:54+02:00</time>
      </trkpt>
      <trkpt lat="46.63913" lon="4.95411">
        <ele>170.10059</ele>
        <time>2026-05-14T09:49:55+02:00</time>
      </trkpt>
      <trkpt lat="46.63919" lon="4.95409">
        <ele>170.10059</ele>
        <time>2026-05-14T09:49:56+02:00</time>
      </trkpt>
      <trkpt lat="46.63925" lon="4.95407">
        <ele>170.10059</ele>
        <time>2026-05-14T09:49:57+02:00</time>
      </trkpt>
      <trkpt lat="46.6393" lon="4.95405">
        <ele>170.2002</ele>
        <time>2026-05-14T09:49:58+02:00</time>
      </trkpt>
      <trkpt lat="46.63936" lon="4.95403">
        <ele>170.2002</ele>
        <time>2026-05-14T09:49:59+02:00</time>
      </trkpt>
      <trkpt lat="46.63941" lon="4.954">
        <ele>170.2002</ele>
        <time>2026-05-14T09:50:00+02:00</time>
      </trkpt>
      <trkpt lat="46.63947" lon="4.95398">
        <ele>170.10059</ele>
        <time>2026-05-14T09:50:01+02:00</time>
      </trkpt>
      <trkpt lat="46.63952" lon="4.95396">
        <ele>170.2002</ele>
        <time>2026-05-14T09:50:02+02:00</time>
      </trkpt>
      <trkpt lat="46.63955" lon="4.95394">
        <ele>170.2002</ele>
        <time>2026-05-14T09:50:03+02:00</time>
      </trkpt>
      <trkpt lat="46.63963" lon="4.9539">
        <ele>170.2002</ele>
        <time>2026-05-14T09:50:04+02:00</time>
      </trkpt>
      <trkpt lat="46.63969" lon="4.95388">
        <ele>170.60059</ele>
        <time>2026-05-14T09:50:05+02:00</time>
      </trkpt>
      <trkpt lat="46.63975" lon="4.95385">
        <ele>170.5</ele>
        <time>2026-05-14T09:50:06+02:00</time>
      </trkpt>
      <trkpt lat="46.6398" lon="4.95382">
        <ele>170.5</ele>
        <time>2026-05-14T09:50:07+02:00</time>
      </trkpt>
      <trkpt lat="46.63985" lon="4.9538">
        <ele>171.40039</ele>
        <time>2026-05-14T09:50:08+02:00</time>
      </trkpt>
      <trkpt lat="46.6399" lon="4.95377">
        <ele>171.2998</ele>
        <time>2026-05-14T09:50:09+02:00</time>
      </trkpt>
      <trkpt lat="46.63993" lon="4.95376">
        <ele>171.2998</ele>
        <time>2026-05-14T09:50:10+02:00</time>
      </trkpt>
      <trkpt lat="46.64001" lon="4.95372">
        <ele>171.2002</ele>
        <time>2026-05-14T09:50:11+02:00</time>
      </trkpt>
      <trkpt lat="46.64007" lon="4.95369">
        <ele>172.40039</ele>
        <time>2026-05-14T09:50:12+02:00</time>
      </trkpt>
      <trkpt lat="46.64012" lon="4.95366">
        <ele>172.40039</ele>
        <time>2026-05-14T09:50:13+02:00</time>
      </trkpt>
      <trkpt lat="46.64017" lon="4.95363">
        <ele>173.40039</ele>
        <time>2026-05-14T09:50:14+02:00</time>
      </trkpt>
      <trkpt lat="46.64023" lon="4.9536">
        <ele>173.2998</ele>
        <time>2026-05-14T09:50:15+02:00</time>
      </trkpt>
      <trkpt lat="46.64028" lon="4.95357">
        <ele>173.2998</ele>
        <time>2026-05-14T09:50:16+02:00</time>
      </trkpt>
      <trkpt lat="46.64033" lon="4.95355">
        <ele>173.2998</ele>
        <time>2026-05-14T09:50:17+02:00</time>
      </trkpt>
      <trkpt lat="46.64039" lon="4.95352">
        <ele>173.7002</ele>
        <time>2026-05-14T09:50:18+02:00</time>
      </trkpt>
      <trkpt lat="46.64044" lon="4.9535">
        <ele>173.60059</ele>
        <time>2026-05-14T09:50:19+02:00</time>
      </trkpt>
      <trkpt lat="46.64049" lon="4.95347">
        <ele>173.40039</ele>
        <time>2026-05-14T09:50:20+02:00</time>
      </trkpt>
      <trkpt lat="46.64055" lon="4.95345">
        <ele>173.2002</ele>
        <time>2026-05-14T09:50:21+02:00</time>
      </trkpt>
      <trkpt lat="46.6406" lon="4.95343">
        <ele>172.7998</ele>
        <time>2026-05-14T09:50:22+02:00</time>
      </trkpt>
      <trkpt lat="46.64066" lon="4.95341">
        <ele>172.2998</ele>
        <time>2026-05-14T09:50:23+02:00</time>
      </trkpt>
      <trkpt lat="46.64072" lon="4.9534">
        <ele>171.7002</ele>
        <time>2026-05-14T09:50:24+02:00</time>
      </trkpt>
      <trkpt lat="46.64078" lon="4.95339">
        <ele>171.2998</ele>
        <time>2026-05-14T09:50:25+02:00</time>
      </trkpt>
      <trkpt lat="46.64083" lon="4.95338">
        <ele>171.2998</ele>
        <time>2026-05-14T09:50:26+02:00</time>
      </trkpt>
      <trkpt lat="46.64089" lon="4.95338">
        <ele>171.2002</ele>
        <time>2026-05-14T09:50:27+02:00</time>
      </trkpt>
      <trkpt lat="46.64095" lon="4.95338">
        <ele>171.2002</ele>
        <time>2026-05-14T09:50:28+02:00</time>
      </trkpt>
      <trkpt lat="46.641" lon="4.95337">
        <ele>171.5</ele>
        <time>2026-05-14T09:50:29+02:00</time>
      </trkpt>
      <trkpt lat="46.64107" lon="4.95337">
        <ele>171.5</ele>
        <time>2026-05-14T09:50:30+02:00</time>
      </trkpt>
      <trkpt lat="46.64112" lon="4.95337">
        <ele>171.5</ele>
        <time>2026-05-14T09:50:31+02:00</time>
      </trkpt>
      <trkpt lat="46.64118" lon="4.95337">
        <ele>171.5</ele>
        <time>2026-05-14T09:50:32+02:00</time>
      </trkpt>
      <trkpt lat="46.64123" lon="4.95337">
        <ele>171.5</ele>
        <time>2026-05-14T09:50:33+02:00</time>
      </trkpt>
      <trkpt lat="46.64128" lon="4.95337">
        <ele>171.5</ele>
        <time>2026-05-14T09:50:34+02:00</time>
      </trkpt>
      <trkpt lat="46.64133" lon="4.95337">
        <ele>171.5</ele>
        <time>2026-05-14T09:50:35+02:00</time>
      </trkpt>
      <trkpt lat="46.64138" lon="4.95336">
        <ele>171.5</ele>
        <time>2026-05-14T09:50:36+02:00</time>
      </trkpt>
      <trkpt lat="46.64143" lon="4.95336">
        <ele>171.5</ele>
        <time>2026-05-14T09:50:37+02:00</time>
      </trkpt>
      <trkpt lat="46.64148" lon="4.95336">
        <ele>171.5</ele>
        <time>2026-05-14T09:50:38+02:00</time>
      </trkpt>
      <trkpt lat="46.64153" lon="4.95336">
        <ele>171.5</ele>
        <time>2026-05-14T09:50:39+02:00</time>
      </trkpt>
      <trkpt lat="46.64158" lon="4.95335">
        <ele>171.5</ele>
        <time>2026-05-14T09:50:40+02:00</time>
      </trkpt>
      <trkpt lat="46.64163" lon="4.95335">
        <ele>171.5</ele>
        <time>2026-05-14T09:50:41+02:00</time>
      </trkpt>
      <trkpt lat="46.64168" lon="4.95335">
        <ele>171.5</ele>
        <time>2026-05-14T09:50:42+02:00</time>
      </trkpt>
      <trkpt lat="46.64173" lon="4.95334">
        <ele>171.40039</ele>
        <time>2026-05-14T09:50:43+02:00</time>
      </trkpt>
      <trkpt lat="46.64178" lon="4.95334">
        <ele>171.40039</ele>
        <time>2026-05-14T09:50:44+02:00</time>
      </trkpt>
      <trkpt lat="46.64183" lon="4.95333">
        <ele>171.40039</ele>
        <time>2026-05-14T09:50:45+02:00</time>
      </trkpt>
      <trkpt lat="46.64188" lon="4.95333">
        <ele>171.2998</ele>
        <time>2026-05-14T09:50:46+02:00</time>
      </trkpt>
      <trkpt lat="46.6419" lon="4.95333">
        <ele>171.2002</ele>
        <time>2026-05-14T09:50:47+02:00</time>
      </trkpt>
      <trkpt lat="46.64198" lon="4.95332">
        <ele>171.10059</ele>
        <time>2026-05-14T09:50:48+02:00</time>
      </trkpt>
      <trkpt lat="46.64203" lon="4.95331">
        <ele>170.7998</ele>
        <time>2026-05-14T09:50:49+02:00</time>
      </trkpt>
      <trkpt lat="46.64208" lon="4.95331">
        <ele>170.60059</ele>
        <time>2026-05-14T09:50:50+02:00</time>
      </trkpt>
      <trkpt lat="46.64213" lon="4.9533">
        <ele>170.40039</ele>
        <time>2026-05-14T09:50:51+02:00</time>
      </trkpt>
      <trkpt lat="46.64218" lon="4.9533">
        <ele>170.40039</ele>
        <time>2026-05-14T09:50:52+02:00</time>
      </trkpt>
      <trkpt lat="46.64224" lon="4.95329">
        <ele>170.40039</ele>
        <time>2026-05-14T09:50:53+02:00</time>
      </trkpt>
      <trkpt lat="46.64229" lon="4.95329">
        <ele>170.2998</ele>
        <time>2026-05-14T09:50:54+02:00</time>
      </trkpt>
      <trkpt lat="46.64234" lon="4.95328">
        <ele>170.40039</ele>
        <time>2026-05-14T09:50:55+02:00</time>
      </trkpt>
      <trkpt lat="46.64239" lon="4.95327">
        <ele>170.40039</ele>
        <time>2026-05-14T09:50:56+02:00</time>
      </trkpt>
      <trkpt lat="46.64244" lon="4.95326">
        <ele>170.40039</ele>
        <time>2026-05-14T09:50:57+02:00</time>
      </trkpt>
      <trkpt lat="46.6425" lon="4.95325">
        <ele>170.40039</ele>
        <time>2026-05-14T09:50:58+02:00</time>
      </trkpt>
      <trkpt lat="46.64255" lon="4.95325">
        <ele>170.40039</ele>
        <time>2026-05-14T09:50:59+02:00</time>
      </trkpt>
      <trkpt lat="46.6426" lon="4.95324">
        <ele>170.40039</ele>
        <time>2026-05-14T09:51:00+02:00</time>
      </trkpt>
      <trkpt lat="46.64265" lon="4.95323">
        <ele>170.40039</ele>
        <time>2026-05-14T09:51:01+02:00</time>
      </trkpt>
      <trkpt lat="46.6427" lon="4.95322">
        <ele>170.40039</ele>
        <time>2026-05-14T09:51:02+02:00</time>
      </trkpt>
      <trkpt lat="46.64275" lon="4.95321">
        <ele>170.5</ele>
        <time>2026-05-14T09:51:03+02:00</time>
      </trkpt>
      <trkpt lat="46.6428" lon="4.9532">
        <ele>170.7002</ele>
        <time>2026-05-14T09:51:04+02:00</time>
      </trkpt>
      <trkpt lat="46.64284" lon="4.95319">
        <ele>170.7002</ele>
        <time>2026-05-14T09:51:05+02:00</time>
      </trkpt>
      <trkpt lat="46.6429" lon="4.95319">
        <ele>170.7998</ele>
        <time>2026-05-14T09:51:06+02:00</time>
      </trkpt>
      <trkpt lat="46.64295" lon="4.95319">
        <ele>170.7998</ele>
        <time>2026-05-14T09:51:07+02:00</time>
      </trkpt>
      <trkpt lat="46.643" lon="4.95318">
        <ele>170.90039</ele>
        <time>2026-05-14T09:51:08+02:00</time>
      </trkpt>
      <trkpt lat="46.64304" lon="4.95318">
        <ele>170.90039</ele>
        <time>2026-05-14T09:51:09+02:00</time>
      </trkpt>
      <trkpt lat="46.64309" lon="4.95318">
        <ele>170.90039</ele>
        <time>2026-05-14T09:51:10+02:00</time>
      </trkpt>
      <trkpt lat="46.64314" lon="4.95317">
        <ele>170.7002</ele>
        <time>2026-05-14T09:51:11+02:00</time>
      </trkpt>
      <trkpt lat="46.6432" lon="4.95317">
        <ele>170.60059</ele>
        <time>2026-05-14T09:51:12+02:00</time>
      </trkpt>
      <trkpt lat="46.64325" lon="4.95317">
        <ele>170.5</ele>
        <time>2026-05-14T09:51:13+02:00</time>
      </trkpt>
      <trkpt lat="46.6433" lon="4.95317">
        <ele>170.5</ele>
        <time>2026-05-14T09:51:14+02:00</time>
      </trkpt>
      <trkpt lat="46.64335" lon="4.95317">
        <ele>170.5</ele>
        <time>2026-05-14T09:51:15+02:00</time>
      </trkpt>
      <trkpt lat="46.64341" lon="4.95317">
        <ele>170.5</ele>
        <time>2026-05-14T09:51:16+02:00</time>
      </trkpt>
      <trkpt lat="46.64346" lon="4.95317">
        <ele>170.60059</ele>
        <time>2026-05-14T09:51:17+02:00</time>
      </trkpt>
      <trkpt lat="46.64351" lon="4.95316">
        <ele>170.60059</ele>
        <time>2026-05-14T09:51:18+02:00</time>
      </trkpt>
      <trkpt lat="46.64357" lon="4.95316">
        <ele>170.60059</ele>
        <time>2026-05-14T09:51:19+02:00</time>
      </trkpt>
      <trkpt lat="46.64362" lon="4.95316">
        <ele>170.7002</ele>
        <time>2026-05-14T09:51:20+02:00</time>
      </trkpt>
      <trkpt lat="46.64367" lon="4.95316">
        <ele>170.7998</ele>
        <time>2026-05-14T09:51:21+02:00</time>
      </trkpt>
      <trkpt lat="46.64372" lon="4.95316">
        <ele>170.7998</ele>
        <time>2026-05-14T09:51:22+02:00</time>
      </trkpt>
      <trkpt lat="46.64377" lon="4.95316">
        <ele>170.90039</ele>
        <time>2026-05-14T09:51:23+02:00</time>
      </trkpt>
      <trkpt lat="46.64383" lon="4.95317">
        <ele>171</ele>
        <time>2026-05-14T09:51:24+02:00</time>
      </trkpt>
      <trkpt lat="46.64388" lon="4.95317">
        <ele>171.2002</ele>
        <time>2026-05-14T09:51:25+02:00</time>
      </trkpt>
      <trkpt lat="46.64393" lon="4.95317">
        <ele>171.40039</ele>
        <time>2026-05-14T09:51:26+02:00</time>
      </trkpt>
      <trkpt lat="46.64398" lon="4.95317">
        <ele>171.7002</ele>
        <time>2026-05-14T09:51:27+02:00</time>
      </trkpt>
      <trkpt lat="46.64403" lon="4.95317">
        <ele>172</ele>
        <time>2026-05-14T09:51:28+02:00</time>
      </trkpt>
      <trkpt lat="46.64408" lon="4.95318">
        <ele>172.2998</ele>
        <time>2026-05-14T09:51:29+02:00</time>
      </trkpt>
      <trkpt lat="46.64414" lon="4.95318">
        <ele>172.7002</ele>
        <time>2026-05-14T09:51:30+02:00</time>
      </trkpt>
      <trkpt lat="46.64419" lon="4.95319">
        <ele>172.7002</ele>
        <time>2026-05-14T09:51:31+02:00</time>
      </trkpt>
      <trkpt lat="46.64424" lon="4.95319">
        <ele>173</ele>
        <time>2026-05-14T09:51:32+02:00</time>
      </trkpt>
      <trkpt lat="46.64429" lon="4.95319">
        <ele>173.2998</ele>
        <time>2026-05-14T09:51:33+02:00</time>
      </trkpt>
      <trkpt lat="46.64435" lon="4.9532">
        <ele>173.60059</ele>
        <time>2026-05-14T09:51:34+02:00</time>
      </trkpt>
      <trkpt lat="46.6444" lon="4.9532">
        <ele>173.7998</ele>
        <time>2026-05-14T09:51:35+02:00</time>
      </trkpt>
      <trkpt lat="46.64446" lon="4.9532">
        <ele>174</ele>
        <time>2026-05-14T09:51:36+02:00</time>
      </trkpt>
      <trkpt lat="46.64451" lon="4.95321">
        <ele>172.90039</ele>
        <time>2026-05-14T09:51:37+02:00</time>
      </trkpt>
      <trkpt lat="46.64456" lon="4.95321">
        <ele>172.90039</ele>
        <time>2026-05-14T09:51:38+02:00</time>
      </trkpt>
      <trkpt lat="46.64462" lon="4.95322">
        <ele>172.90039</ele>
        <time>2026-05-14T09:51:39+02:00</time>
      </trkpt>
      <trkpt lat="46.64467" lon="4.95323">
        <ele>173</ele>
        <time>2026-05-14T09:51:40+02:00</time>
      </trkpt>
      <trkpt lat="46.64472" lon="4.95324">
        <ele>173</ele>
        <time>2026-05-14T09:51:41+02:00</time>
      </trkpt>
      <trkpt lat="46.64478" lon="4.95326">
        <ele>173</ele>
        <time>2026-05-14T09:51:42+02:00</time>
      </trkpt>
      <trkpt lat="46.64483" lon="4.95327">
        <ele>173.10059</ele>
        <time>2026-05-14T09:51:43+02:00</time>
      </trkpt>
      <trkpt lat="46.64488" lon="4.95329">
        <ele>171.2998</ele>
        <time>2026-05-14T09:51:44+02:00</time>
      </trkpt>
      <trkpt lat="46.64493" lon="4.95331">
        <ele>171.2998</ele>
        <time>2026-05-14T09:51:45+02:00</time>
      </trkpt>
      <trkpt lat="46.64498" lon="4.95332">
        <ele>171.2002</ele>
        <time>2026-05-14T09:51:46+02:00</time>
      </trkpt>
      <trkpt lat="46.64503" lon="4.95333">
        <ele>171.10059</ele>
        <time>2026-05-14T09:51:47+02:00</time>
      </trkpt>
      <trkpt lat="46.64506" lon="4.95334">
        <ele>171.10059</ele>
        <time>2026-05-14T09:51:48+02:00</time>
      </trkpt>
      <trkpt lat="46.64513" lon="4.95336">
        <ele>171.10059</ele>
        <time>2026-05-14T09:51:49+02:00</time>
      </trkpt>
      <trkpt lat="46.64518" lon="4.95338">
        <ele>170.10059</ele>
        <time>2026-05-14T09:51:50+02:00</time>
      </trkpt>
      <trkpt lat="46.64523" lon="4.9534">
        <ele>170.10059</ele>
        <time>2026-05-14T09:51:51+02:00</time>
      </trkpt>
      <trkpt lat="46.64527" lon="4.95342">
        <ele>170</ele>
        <time>2026-05-14T09:51:52+02:00</time>
      </trkpt>
      <trkpt lat="46.64532" lon="4.95344">
        <ele>170</ele>
        <time>2026-05-14T09:51:53+02:00</time>
      </trkpt>
      <trkpt lat="46.64535" lon="4.95345">
        <ele>170</ele>
        <time>2026-05-14T09:51:54+02:00</time>
      </trkpt>
      <trkpt lat="46.64539" lon="4.95347">
        <ele>169.90039</ele>
        <time>2026-05-14T09:51:55+02:00</time>
      </trkpt>
      <trkpt lat="46.64542" lon="4.95347">
        <ele>169.90039</ele>
        <time>2026-05-14T09:51:56+02:00</time>
      </trkpt>
      <trkpt lat="46.64546" lon="4.95348">
        <ele>170</ele>
        <time>2026-05-14T09:51:57+02:00</time>
      </trkpt>
      <trkpt lat="46.6455" lon="4.9535">
        <ele>170</ele>
        <time>2026-05-14T09:51:58+02:00</time>
      </trkpt>
      <trkpt lat="46.64554" lon="4.95351">
        <ele>170</ele>
        <time>2026-05-14T09:51:59+02:00</time>
      </trkpt>
      <trkpt lat="46.64557" lon="4.95353">
        <ele>170.10059</ele>
        <time>2026-05-14T09:52:00+02:00</time>
      </trkpt>
      <trkpt lat="46.64562" lon="4.95354">
        <ele>170</ele>
        <time>2026-05-14T09:52:01+02:00</time>
      </trkpt>
      <trkpt lat="46.64566" lon="4.95356">
        <ele>170.10059</ele>
        <time>2026-05-14T09:52:02+02:00</time>
      </trkpt>
      <trkpt lat="46.6457" lon="4.95357">
        <ele>170.10059</ele>
        <time>2026-05-14T09:52:03+02:00</time>
      </trkpt>
      <trkpt lat="46.64574" lon="4.95359">
        <ele>170.2002</ele>
        <time>2026-05-14T09:52:04+02:00</time>
      </trkpt>
      <trkpt lat="46.64576" lon="4.95359">
        <ele>170.2002</ele>
        <time>2026-05-14T09:52:05+02:00</time>
      </trkpt>
      <trkpt lat="46.64582" lon="4.95361">
        <ele>170.2002</ele>
        <time>2026-05-14T09:52:06+02:00</time>
      </trkpt>
      <trkpt lat="46.64586" lon="4.95362">
        <ele>170.2998</ele>
        <time>2026-05-14T09:52:07+02:00</time>
      </trkpt>
      <trkpt lat="46.6459" lon="4.95363">
        <ele>170.2998</ele>
        <time>2026-05-14T09:52:08+02:00</time>
      </trkpt>
      <trkpt lat="46.64594" lon="4.95363">
        <ele>170.40039</ele>
        <time>2026-05-14T09:52:09+02:00</time>
      </trkpt>
      <trkpt lat="46.64598" lon="4.95364">
        <ele>170.10059</ele>
        <time>2026-05-14T09:52:10+02:00</time>
      </trkpt>
      <trkpt lat="46.64602" lon="4.95364">
        <ele>170.10059</ele>
        <time>2026-05-14T09:52:11+02:00</time>
      </trkpt>
      <trkpt lat="46.64607" lon="4.95365">
        <ele>170.10059</ele>
        <time>2026-05-14T09:52:12+02:00</time>
      </trkpt>
      <trkpt lat="46.64611" lon="4.95365">
        <ele>170.10059</ele>
        <time>2026-05-14T09:52:13+02:00</time>
      </trkpt>
      <trkpt lat="46.64616" lon="4.95366">
        <ele>170</ele>
        <time>2026-05-14T09:52:14+02:00</time>
      </trkpt>
      <trkpt lat="46.64621" lon="4.95366">
        <ele>170</ele>
        <time>2026-05-14T09:52:15+02:00</time>
      </trkpt>
      <trkpt lat="46.64626" lon="4.95366">
        <ele>170</ele>
        <time>2026-05-14T09:52:16+02:00</time>
      </trkpt>
      <trkpt lat="46.64631" lon="4.95365">
        <ele>170</ele>
        <time>2026-05-14T09:52:17+02:00</time>
      </trkpt>
      <trkpt lat="46.64637" lon="4.95365">
        <ele>170</ele>
        <time>2026-05-14T09:52:18+02:00</time>
      </trkpt>
      <trkpt lat="46.64642" lon="4.95364">
        <ele>170</ele>
        <time>2026-05-14T09:52:19+02:00</time>
      </trkpt>
      <trkpt lat="46.64648" lon="4.95364">
        <ele>170</ele>
        <time>2026-05-14T09:52:20+02:00</time>
      </trkpt>
      <trkpt lat="46.64654" lon="4.95363">
        <ele>170.2002</ele>
        <time>2026-05-14T09:52:21+02:00</time>
      </trkpt>
      <trkpt lat="46.64659" lon="4.95362">
        <ele>170.2002</ele>
        <time>2026-05-14T09:52:22+02:00</time>
      </trkpt>
      <trkpt lat="46.64665" lon="4.95362">
        <ele>170.2002</ele>
        <time>2026-05-14T09:52:23+02:00</time>
      </trkpt>
      <trkpt lat="46.6467" lon="4.95361">
        <ele>170.2002</ele>
        <time>2026-05-14T09:52:24+02:00</time>
      </trkpt>
      <trkpt lat="46.64676" lon="4.9536">
        <ele>170.2002</ele>
        <time>2026-05-14T09:52:25+02:00</time>
      </trkpt>
      <trkpt lat="46.64681" lon="4.95359">
        <ele>170.2002</ele>
        <time>2026-05-14T09:52:26+02:00</time>
      </trkpt>
      <trkpt lat="46.64686" lon="4.95358">
        <ele>170.10059</ele>
        <time>2026-05-14T09:52:27+02:00</time>
      </trkpt>
      <trkpt lat="46.64692" lon="4.95357">
        <ele>170.10059</ele>
        <time>2026-05-14T09:52:28+02:00</time>
      </trkpt>
      <trkpt lat="46.64697" lon="4.95356">
        <ele>170.10059</ele>
        <time>2026-05-14T09:52:29+02:00</time>
      </trkpt>
      <trkpt lat="46.64703" lon="4.95355">
        <ele>170.2002</ele>
        <time>2026-05-14T09:52:30+02:00</time>
      </trkpt>
      <trkpt lat="46.64708" lon="4.95354">
        <ele>170.2998</ele>
        <time>2026-05-14T09:52:31+02:00</time>
      </trkpt>
      <trkpt lat="46.64713" lon="4.95353">
        <ele>170.2998</ele>
        <time>2026-05-14T09:52:32+02:00</time>
      </trkpt>
      <trkpt lat="46.64719" lon="4.95352">
        <ele>170.2998</ele>
        <time>2026-05-14T09:52:33+02:00</time>
      </trkpt>
      <trkpt lat="46.64725" lon="4.95352">
        <ele>170.2002</ele>
        <time>2026-05-14T09:52:34+02:00</time>
      </trkpt>
      <trkpt lat="46.6473" lon="4.95352">
        <ele>170.2002</ele>
        <time>2026-05-14T09:52:35+02:00</time>
      </trkpt>
      <trkpt lat="46.64736" lon="4.95351">
        <ele>170.2002</ele>
        <time>2026-05-14T09:52:36+02:00</time>
      </trkpt>
      <trkpt lat="46.64742" lon="4.9535">
        <ele>170.2002</ele>
        <time>2026-05-14T09:52:37+02:00</time>
      </trkpt>
      <trkpt lat="46.64747" lon="4.9535">
        <ele>170.2002</ele>
        <time>2026-05-14T09:52:38+02:00</time>
      </trkpt>
      <trkpt lat="46.64753" lon="4.9535">
        <ele>170.2002</ele>
        <time>2026-05-14T09:52:39+02:00</time>
      </trkpt>
      <trkpt lat="46.64758" lon="4.95349">
        <ele>170.2002</ele>
        <time>2026-05-14T09:52:40+02:00</time>
      </trkpt>
      <trkpt lat="46.64764" lon="4.95349">
        <ele>170.2002</ele>
        <time>2026-05-14T09:52:41+02:00</time>
      </trkpt>
      <trkpt lat="46.6477" lon="4.95348">
        <ele>170.2002</ele>
        <time>2026-05-14T09:52:42+02:00</time>
      </trkpt>
      <trkpt lat="46.64776" lon="4.95348">
        <ele>170.2002</ele>
        <time>2026-05-14T09:52:43+02:00</time>
      </trkpt>
      <trkpt lat="46.64781" lon="4.95347">
        <ele>170.2002</ele>
        <time>2026-05-14T09:52:44+02:00</time>
      </trkpt>
      <trkpt lat="46.64784" lon="4.95347">
        <ele>170.2002</ele>
        <time>2026-05-14T09:52:45+02:00</time>
      </trkpt>
      <trkpt lat="46.64792" lon="4.95346">
        <ele>170.40039</ele>
        <time>2026-05-14T09:52:46+02:00</time>
      </trkpt>
      <trkpt lat="46.64797" lon="4.95345">
        <ele>170.40039</ele>
        <time>2026-05-14T09:52:47+02:00</time>
      </trkpt>
      <trkpt lat="46.64802" lon="4.95344">
        <ele>170.40039</ele>
        <time>2026-05-14T09:52:48+02:00</time>
      </trkpt>
      <trkpt lat="46.64806" lon="4.95343">
        <ele>170.2998</ele>
        <time>2026-05-14T09:52:49+02:00</time>
      </trkpt>
      <trkpt lat="46.64811" lon="4.95343">
        <ele>170.2998</ele>
        <time>2026-05-14T09:52:50+02:00</time>
      </trkpt>
      <trkpt lat="46.64815" lon="4.95343">
        <ele>170.2998</ele>
        <time>2026-05-14T09:52:51+02:00</time>
      </trkpt>
      <trkpt lat="46.6482" lon="4.95342">
        <ele>170.2998</ele>
        <time>2026-05-14T09:52:52+02:00</time>
      </trkpt>
      <trkpt lat="46.64825" lon="4.95342">
        <ele>170.2998</ele>
        <time>2026-05-14T09:52:53+02:00</time>
      </trkpt>
      <trkpt lat="46.6483" lon="4.95341">
        <ele>170.2998</ele>
        <time>2026-05-14T09:52:54+02:00</time>
      </trkpt>
      <trkpt lat="46.64832" lon="4.95341">
        <ele>170.2998</ele>
        <time>2026-05-14T09:52:55+02:00</time>
      </trkpt>
      <trkpt lat="46.6484" lon="4.95341">
        <ele>170.2002</ele>
        <time>2026-05-14T09:52:56+02:00</time>
      </trkpt>
      <trkpt lat="46.64845" lon="4.9534">
        <ele>170.2002</ele>
        <time>2026-05-14T09:52:57+02:00</time>
      </trkpt>
      <trkpt lat="46.6485" lon="4.9534">
        <ele>170.2002</ele>
        <time>2026-05-14T09:52:58+02:00</time>
      </trkpt>
      <trkpt lat="46.64856" lon="4.9534">
        <ele>170.2002</ele>
        <time>2026-05-14T09:52:59+02:00</time>
      </trkpt>
      <trkpt lat="46.64861" lon="4.95339">
        <ele>170.2002</ele>
        <time>2026-05-14T09:53:00+02:00</time>
      </trkpt>
      <trkpt lat="46.64866" lon="4.95339">
        <ele>170.10059</ele>
        <time>2026-05-14T09:53:01+02:00</time>
      </trkpt>
      <trkpt lat="46.64871" lon="4.95338">
        <ele>170.10059</ele>
        <time>2026-05-14T09:53:02+02:00</time>
      </trkpt>
      <trkpt lat="46.64877" lon="4.95338">
        <ele>170.10059</ele>
        <time>2026-05-14T09:53:03+02:00</time>
      </trkpt>
      <trkpt lat="46.64882" lon="4.95337">
        <ele>170.5</ele>
        <time>2026-05-14T09:53:04+02:00</time>
      </trkpt>
      <trkpt lat="46.64888" lon="4.95337">
        <ele>170.5</ele>
        <time>2026-05-14T09:53:05+02:00</time>
      </trkpt>
      <trkpt lat="46.64893" lon="4.95337">
        <ele>170.40039</ele>
        <time>2026-05-14T09:53:06+02:00</time>
      </trkpt>
      <trkpt lat="46.64898" lon="4.95337">
        <ele>170.40039</ele>
        <time>2026-05-14T09:53:07+02:00</time>
      </trkpt>
      <trkpt lat="46.64904" lon="4.95336">
        <ele>170.2998</ele>
        <time>2026-05-14T09:53:08+02:00</time>
      </trkpt>
      <trkpt lat="46.64907" lon="4.95336">
        <ele>170.2998</ele>
        <time>2026-05-14T09:53:09+02:00</time>
      </trkpt>
      <trkpt lat="46.64916" lon="4.95336">
        <ele>170.2998</ele>
        <time>2026-05-14T09:53:10+02:00</time>
      </trkpt>
      <trkpt lat="46.64921" lon="4.95335">
        <ele>170.2998</ele>
        <time>2026-05-14T09:53:11+02:00</time>
      </trkpt>
      <trkpt lat="46.64927" lon="4.95335">
        <ele>170.2998</ele>
        <time>2026-05-14T09:53:12+02:00</time>
      </trkpt>
      <trkpt lat="46.64933" lon="4.95334">
        <ele>170.2998</ele>
        <time>2026-05-14T09:53:13+02:00</time>
      </trkpt>
      <trkpt lat="46.64938" lon="4.95334">
        <ele>170.2002</ele>
        <time>2026-05-14T09:53:14+02:00</time>
      </trkpt>
      <trkpt lat="46.64944" lon="4.95334">
        <ele>170.2002</ele>
        <time>2026-05-14T09:53:15+02:00</time>
      </trkpt>
      <trkpt lat="46.6495" lon="4.95333">
        <ele>170.10059</ele>
        <time>2026-05-14T09:53:16+02:00</time>
      </trkpt>
      <trkpt lat="46.64956" lon="4.95333">
        <ele>170.10059</ele>
        <time>2026-05-14T09:53:17+02:00</time>
      </trkpt>
      <trkpt lat="46.64961" lon="4.95332">
        <ele>170.10059</ele>
        <time>2026-05-14T09:53:18+02:00</time>
      </trkpt>
      <trkpt lat="46.64967" lon="4.95332">
        <ele>170.10059</ele>
        <time>2026-05-14T09:53:19+02:00</time>
      </trkpt>
      <trkpt lat="46.64973" lon="4.95331">
        <ele>170</ele>
        <time>2026-05-14T09:53:20+02:00</time>
      </trkpt>
      <trkpt lat="46.64979" lon="4.95331">
        <ele>170</ele>
        <time>2026-05-14T09:53:21+02:00</time>
      </trkpt>
      <trkpt lat="46.64984" lon="4.95331">
        <ele>170</ele>
        <time>2026-05-14T09:53:22+02:00</time>
      </trkpt>
      <trkpt lat="46.6499" lon="4.9533">
        <ele>170</ele>
        <time>2026-05-14T09:53:23+02:00</time>
      </trkpt>
      <trkpt lat="46.64995" lon="4.95329">
        <ele>170.10059</ele>
        <time>2026-05-14T09:53:24+02:00</time>
      </trkpt>
      <trkpt lat="46.65001" lon="4.95329">
        <ele>170.10059</ele>
        <time>2026-05-14T09:53:25+02:00</time>
      </trkpt>
      <trkpt lat="46.65003" lon="4.95328">
        <ele>170.5</ele>
        <time>2026-05-14T09:53:26+02:00</time>
      </trkpt>
      <trkpt lat="46.65011" lon="4.95327">
        <ele>170.40039</ele>
        <time>2026-05-14T09:53:27+02:00</time>
      </trkpt>
      <trkpt lat="46.65016" lon="4.95326">
        <ele>170.2998</ele>
        <time>2026-05-14T09:53:28+02:00</time>
      </trkpt>
      <trkpt lat="46.65021" lon="4.95325">
        <ele>170.2998</ele>
        <time>2026-05-14T09:53:29+02:00</time>
      </trkpt>
      <trkpt lat="46.65025" lon="4.95324">
        <ele>170.2998</ele>
        <time>2026-05-14T09:53:30+02:00</time>
      </trkpt>
      <trkpt lat="46.65029" lon="4.95324">
        <ele>170.2002</ele>
        <time>2026-05-14T09:53:31+02:00</time>
      </trkpt>
      <trkpt lat="46.65034" lon="4.95323">
        <ele>170.2002</ele>
        <time>2026-05-14T09:53:32+02:00</time>
      </trkpt>
      <trkpt lat="46.65038" lon="4.95322">
        <ele>170.2002</ele>
        <time>2026-05-14T09:53:33+02:00</time>
      </trkpt>
      <trkpt lat="46.65043" lon="4.95322">
        <ele>170.2002</ele>
        <time>2026-05-14T09:53:34+02:00</time>
      </trkpt>
      <trkpt lat="46.65048" lon="4.95321">
        <ele>170.2002</ele>
        <time>2026-05-14T09:53:35+02:00</time>
      </trkpt>
      <trkpt lat="46.6505" lon="4.95321">
        <ele>170.2002</ele>
        <time>2026-05-14T09:53:36+02:00</time>
      </trkpt>
      <trkpt lat="46.65058" lon="4.9532">
        <ele>170.2998</ele>
        <time>2026-05-14T09:53:37+02:00</time>
      </trkpt>
      <trkpt lat="46.65063" lon="4.95319">
        <ele>170.2998</ele>
        <time>2026-05-14T09:53:38+02:00</time>
      </trkpt>
      <trkpt lat="46.65068" lon="4.95317">
        <ele>170.2998</ele>
        <time>2026-05-14T09:53:39+02:00</time>
      </trkpt>
      <trkpt lat="46.65074" lon="4.95316">
        <ele>170.2998</ele>
        <time>2026-05-14T09:53:40+02:00</time>
      </trkpt>
      <trkpt lat="46.65079" lon="4.95314">
        <ele>170.2998</ele>
        <time>2026-05-14T09:53:41+02:00</time>
      </trkpt>
      <trkpt lat="46.65085" lon="4.95312">
        <ele>170.2998</ele>
        <time>2026-05-14T09:53:42+02:00</time>
      </trkpt>
      <trkpt lat="46.6509" lon="4.9531">
        <ele>170.7002</ele>
        <time>2026-05-14T09:53:43+02:00</time>
      </trkpt>
      <trkpt lat="46.65095" lon="4.95308">
        <ele>170.7002</ele>
        <time>2026-05-14T09:53:44+02:00</time>
      </trkpt>
      <trkpt lat="46.65101" lon="4.95306">
        <ele>170.7002</ele>
        <time>2026-05-14T09:53:45+02:00</time>
      </trkpt>
      <trkpt lat="46.65106" lon="4.95304">
        <ele>170.7002</ele>
        <time>2026-05-14T09:53:46+02:00</time>
      </trkpt>
      <trkpt lat="46.65111" lon="4.95302">
        <ele>171.40039</ele>
        <time>2026-05-14T09:53:47+02:00</time>
      </trkpt>
      <trkpt lat="46.65117" lon="4.95301">
        <ele>171.2002</ele>
        <time>2026-05-14T09:53:48+02:00</time>
      </trkpt>
      <trkpt lat="46.65122" lon="4.95299">
        <ele>170.90039</ele>
        <time>2026-05-14T09:53:49+02:00</time>
      </trkpt>
      <trkpt lat="46.65128" lon="4.95297">
        <ele>170.5</ele>
        <time>2026-05-14T09:53:50+02:00</time>
      </trkpt>
      <trkpt lat="46.65133" lon="4.95296">
        <ele>170.2002</ele>
        <time>2026-05-14T09:53:51+02:00</time>
      </trkpt>
      <trkpt lat="46.65139" lon="4.95295">
        <ele>170.10059</ele>
        <time>2026-05-14T09:53:52+02:00</time>
      </trkpt>
      <trkpt lat="46.65144" lon="4.95295">
        <ele>170.10059</ele>
        <time>2026-05-14T09:53:53+02:00</time>
      </trkpt>
      <trkpt lat="46.6515" lon="4.95295">
        <ele>170.10059</ele>
        <time>2026-05-14T09:53:54+02:00</time>
      </trkpt>
      <trkpt lat="46.65155" lon="4.95294">
        <ele>170.10059</ele>
        <time>2026-05-14T09:53:55+02:00</time>
      </trkpt>
      <trkpt lat="46.65161" lon="4.95294">
        <ele>170.10059</ele>
        <time>2026-05-14T09:53:56+02:00</time>
      </trkpt>
      <trkpt lat="46.65166" lon="4.95293">
        <ele>170.10059</ele>
        <time>2026-05-14T09:53:57+02:00</time>
      </trkpt>
      <trkpt lat="46.65172" lon="4.95293">
        <ele>170.10059</ele>
        <time>2026-05-14T09:53:58+02:00</time>
      </trkpt>
      <trkpt lat="46.65178" lon="4.95291">
        <ele>170.10059</ele>
        <time>2026-05-14T09:53:59+02:00</time>
      </trkpt>
      <trkpt lat="46.65181" lon="4.95291">
        <ele>170.10059</ele>
        <time>2026-05-14T09:54:00+02:00</time>
      </trkpt>
      <trkpt lat="46.65189" lon="4.95289">
        <ele>170.10059</ele>
        <time>2026-05-14T09:54:01+02:00</time>
      </trkpt>
      <trkpt lat="46.65195" lon="4.95288">
        <ele>170.10059</ele>
        <time>2026-05-14T09:54:02+02:00</time>
      </trkpt>
      <trkpt lat="46.65198" lon="4.95287">
        <ele>170.10059</ele>
        <time>2026-05-14T09:54:03+02:00</time>
      </trkpt>
      <trkpt lat="46.65206" lon="4.95285">
        <ele>170.10059</ele>
        <time>2026-05-14T09:54:04+02:00</time>
      </trkpt>
      <trkpt lat="46.65211" lon="4.95284">
        <ele>170.10059</ele>
        <time>2026-05-14T09:54:05+02:00</time>
      </trkpt>
      <trkpt lat="46.65217" lon="4.95284">
        <ele>170.10059</ele>
        <time>2026-05-14T09:54:06+02:00</time>
      </trkpt>
      <trkpt lat="46.65222" lon="4.95284">
        <ele>170.10059</ele>
        <time>2026-05-14T09:54:07+02:00</time>
      </trkpt>
      <trkpt lat="46.65227" lon="4.95283">
        <ele>170.10059</ele>
        <time>2026-05-14T09:54:08+02:00</time>
      </trkpt>
      <trkpt lat="46.65233" lon="4.95283">
        <ele>170.2002</ele>
        <time>2026-05-14T09:54:09+02:00</time>
      </trkpt>
      <trkpt lat="46.65238" lon="4.95282">
        <ele>170.2002</ele>
        <time>2026-05-14T09:54:10+02:00</time>
      </trkpt>
      <trkpt lat="46.65244" lon="4.95282">
        <ele>170.2002</ele>
        <time>2026-05-14T09:54:11+02:00</time>
      </trkpt>
      <trkpt lat="46.65249" lon="4.95281">
        <ele>170.2998</ele>
        <time>2026-05-14T09:54:12+02:00</time>
      </trkpt>
      <trkpt lat="46.65254" lon="4.95281">
        <ele>170.2998</ele>
        <time>2026-05-14T09:54:13+02:00</time>
      </trkpt>
      <trkpt lat="46.6526" lon="4.95281">
        <ele>170.2002</ele>
        <time>2026-05-14T09:54:14+02:00</time>
      </trkpt>
      <trkpt lat="46.65265" lon="4.95281">
        <ele>170.2002</ele>
        <time>2026-05-14T09:54:15+02:00</time>
      </trkpt>
      <trkpt lat="46.65271" lon="4.9528">
        <ele>170.2998</ele>
        <time>2026-05-14T09:54:16+02:00</time>
      </trkpt>
      <trkpt lat="46.65276" lon="4.9528">
        <ele>170.60059</ele>
        <time>2026-05-14T09:54:17+02:00</time>
      </trkpt>
      <trkpt lat="46.65282" lon="4.9528">
        <ele>171.2002</ele>
        <time>2026-05-14T09:54:18+02:00</time>
      </trkpt>
      <trkpt lat="46.65288" lon="4.9528">
        <ele>172.10059</ele>
        <time>2026-05-14T09:54:19+02:00</time>
      </trkpt>
      <trkpt lat="46.65293" lon="4.95279">
        <ele>172.7998</ele>
        <time>2026-05-14T09:54:20+02:00</time>
      </trkpt>
      <trkpt lat="46.65299" lon="4.95279">
        <ele>173</ele>
        <time>2026-05-14T09:54:21+02:00</time>
      </trkpt>
      <trkpt lat="46.65305" lon="4.95279">
        <ele>173</ele>
        <time>2026-05-14T09:54:22+02:00</time>
      </trkpt>
      <trkpt lat="46.6531" lon="4.95279">
        <ele>172.90039</ele>
        <time>2026-05-14T09:54:23+02:00</time>
      </trkpt>
      <trkpt lat="46.65316" lon="4.95278">
        <ele>172.7998</ele>
        <time>2026-05-14T09:54:24+02:00</time>
      </trkpt>
      <trkpt lat="46.65321" lon="4.95278">
        <ele>172.60059</ele>
        <time>2026-05-14T09:54:25+02:00</time>
      </trkpt>
      <trkpt lat="46.65327" lon="4.95278">
        <ele>172.2998</ele>
        <time>2026-05-14T09:54:26+02:00</time>
      </trkpt>
      <trkpt lat="46.6533" lon="4.95278">
        <ele>172.2998</ele>
        <time>2026-05-14T09:54:27+02:00</time>
      </trkpt>
      <trkpt lat="46.65339" lon="4.95277">
        <ele>172.40039</ele>
        <time>2026-05-14T09:54:28+02:00</time>
      </trkpt>
      <trkpt lat="46.65344" lon="4.95276">
        <ele>172.40039</ele>
        <time>2026-05-14T09:54:29+02:00</time>
      </trkpt>
      <trkpt lat="46.6535" lon="4.95275">
        <ele>172.2998</ele>
        <time>2026-05-14T09:54:30+02:00</time>
      </trkpt>
      <trkpt lat="46.65356" lon="4.95275">
        <ele>172.2002</ele>
        <time>2026-05-14T09:54:31+02:00</time>
      </trkpt>
      <trkpt lat="46.65362" lon="4.95274">
        <ele>172.2002</ele>
        <time>2026-05-14T09:54:32+02:00</time>
      </trkpt>
      <trkpt lat="46.65367" lon="4.95274">
        <ele>172.2002</ele>
        <time>2026-05-14T09:54:33+02:00</time>
      </trkpt>
      <trkpt lat="46.65373" lon="4.95273">
        <ele>172.2002</ele>
        <time>2026-05-14T09:54:34+02:00</time>
      </trkpt>
      <trkpt lat="46.65379" lon="4.95271">
        <ele>172.2998</ele>
        <time>2026-05-14T09:54:35+02:00</time>
      </trkpt>
      <trkpt lat="46.65385" lon="4.9527">
        <ele>172.40039</ele>
        <time>2026-05-14T09:54:36+02:00</time>
      </trkpt>
      <trkpt lat="46.65391" lon="4.95269">
        <ele>172.40039</ele>
        <time>2026-05-14T09:54:37+02:00</time>
      </trkpt>
      <trkpt lat="46.65393" lon="4.95268">
        <ele>172.7002</ele>
        <time>2026-05-14T09:54:38+02:00</time>
      </trkpt>
      <trkpt lat="46.65401" lon="4.95266">
        <ele>172.7002</ele>
        <time>2026-05-14T09:54:39+02:00</time>
      </trkpt>
      <trkpt lat="46.65407" lon="4.95265">
        <ele>172.7002</ele>
        <time>2026-05-14T09:54:40+02:00</time>
      </trkpt>
      <trkpt lat="46.65412" lon="4.95265">
        <ele>172.7002</ele>
        <time>2026-05-14T09:54:41+02:00</time>
      </trkpt>
      <trkpt lat="46.65416" lon="4.95265">
        <ele>172.60059</ele>
        <time>2026-05-14T09:54:42+02:00</time>
      </trkpt>
      <trkpt lat="46.65421" lon="4.95265">
        <ele>172.5</ele>
        <time>2026-05-14T09:54:43+02:00</time>
      </trkpt>
      <trkpt lat="46.65424" lon="4.95264">
        <ele>172.5</ele>
        <time>2026-05-14T09:54:44+02:00</time>
      </trkpt>
      <trkpt lat="46.65432" lon="4.95264">
        <ele>172.40039</ele>
        <time>2026-05-14T09:54:45+02:00</time>
      </trkpt>
      <trkpt lat="46.65437" lon="4.95264">
        <ele>172.10059</ele>
        <time>2026-05-14T09:54:46+02:00</time>
      </trkpt>
      <trkpt lat="46.65441" lon="4.95264">
        <ele>171.7998</ele>
        <time>2026-05-14T09:54:47+02:00</time>
      </trkpt>
      <trkpt lat="46.65446" lon="4.95264">
        <ele>171.2998</ele>
        <time>2026-05-14T09:54:48+02:00</time>
      </trkpt>
      <trkpt lat="46.65451" lon="4.95263">
        <ele>171</ele>
        <time>2026-05-14T09:54:49+02:00</time>
      </trkpt>
      <trkpt lat="46.65456" lon="4.95261">
        <ele>171</ele>
        <time>2026-05-14T09:54:50+02:00</time>
      </trkpt>
      <trkpt lat="46.65461" lon="4.9526">
        <ele>171.2998</ele>
        <time>2026-05-14T09:54:51+02:00</time>
      </trkpt>
      <trkpt lat="46.65466" lon="4.95258">
        <ele>171.10059</ele>
        <time>2026-05-14T09:54:52+02:00</time>
      </trkpt>
      <trkpt lat="46.65472" lon="4.95257">
        <ele>170.90039</ele>
        <time>2026-05-14T09:54:53+02:00</time>
      </trkpt>
      <trkpt lat="46.65478" lon="4.95257">
        <ele>170.7998</ele>
        <time>2026-05-14T09:54:54+02:00</time>
      </trkpt>
      <trkpt lat="46.65483" lon="4.95255">
        <ele>170.7998</ele>
        <time>2026-05-14T09:54:55+02:00</time>
      </trkpt>
      <trkpt lat="46.65489" lon="4.95255">
        <ele>170.7002</ele>
        <time>2026-05-14T09:54:56+02:00</time>
      </trkpt>
      <trkpt lat="46.65494" lon="4.95254">
        <ele>170.7002</ele>
        <time>2026-05-14T09:54:57+02:00</time>
      </trkpt>
      <trkpt lat="46.655" lon="4.95254">
        <ele>170.60059</ele>
        <time>2026-05-14T09:54:58+02:00</time>
      </trkpt>
      <trkpt lat="46.65506" lon="4.95254">
        <ele>170.60059</ele>
        <time>2026-05-14T09:54:59+02:00</time>
      </trkpt>
      <trkpt lat="46.65511" lon="4.95253">
        <ele>170.60059</ele>
        <time>2026-05-14T09:55:00+02:00</time>
      </trkpt>
      <trkpt lat="46.65517" lon="4.95253">
        <ele>170.5</ele>
        <time>2026-05-14T09:55:01+02:00</time>
      </trkpt>
      <trkpt lat="46.65523" lon="4.95252">
        <ele>170.5</ele>
        <time>2026-05-14T09:55:02+02:00</time>
      </trkpt>
      <trkpt lat="46.65528" lon="4.95251">
        <ele>170.7002</ele>
        <time>2026-05-14T09:55:03+02:00</time>
      </trkpt>
      <trkpt lat="46.65534" lon="4.95251">
        <ele>170.60059</ele>
        <time>2026-05-14T09:55:04+02:00</time>
      </trkpt>
      <trkpt lat="46.65539" lon="4.95251">
        <ele>170.60059</ele>
        <time>2026-05-14T09:55:05+02:00</time>
      </trkpt>
      <trkpt lat="46.65545" lon="4.9525">
        <ele>170.60059</ele>
        <time>2026-05-14T09:55:06+02:00</time>
      </trkpt>
      <trkpt lat="46.65551" lon="4.9525">
        <ele>170.60059</ele>
        <time>2026-05-14T09:55:07+02:00</time>
      </trkpt>
      <trkpt lat="46.65556" lon="4.95249">
        <ele>170.60059</ele>
        <time>2026-05-14T09:55:08+02:00</time>
      </trkpt>
      <trkpt lat="46.65562" lon="4.95249">
        <ele>170.60059</ele>
        <time>2026-05-14T09:55:09+02:00</time>
      </trkpt>
      <trkpt lat="46.65568" lon="4.95248">
        <ele>170.5</ele>
        <time>2026-05-14T09:55:10+02:00</time>
      </trkpt>
      <trkpt lat="46.65573" lon="4.95247">
        <ele>170.5</ele>
        <time>2026-05-14T09:55:11+02:00</time>
      </trkpt>
      <trkpt lat="46.65579" lon="4.95246">
        <ele>170.40039</ele>
        <time>2026-05-14T09:55:12+02:00</time>
      </trkpt>
      <trkpt lat="46.65585" lon="4.95245">
        <ele>170.40039</ele>
        <time>2026-05-14T09:55:13+02:00</time>
      </trkpt>
      <trkpt lat="46.6559" lon="4.95244">
        <ele>170.2998</ele>
        <time>2026-05-14T09:55:14+02:00</time>
      </trkpt>
      <trkpt lat="46.65596" lon="4.95242">
        <ele>170.40039</ele>
        <time>2026-05-14T09:55:15+02:00</time>
      </trkpt>
      <trkpt lat="46.65602" lon="4.9524">
        <ele>170.5</ele>
        <time>2026-05-14T09:55:16+02:00</time>
      </trkpt>
      <trkpt lat="46.65608" lon="4.95239">
        <ele>170.5</ele>
        <time>2026-05-14T09:55:17+02:00</time>
      </trkpt>
      <trkpt lat="46.65613" lon="4.95238">
        <ele>170.5</ele>
        <time>2026-05-14T09:55:18+02:00</time>
      </trkpt>
      <trkpt lat="46.65619" lon="4.95236">
        <ele>170.40039</ele>
        <time>2026-05-14T09:55:19+02:00</time>
      </trkpt>
      <trkpt lat="46.65625" lon="4.95234">
        <ele>170.40039</ele>
        <time>2026-05-14T09:55:20+02:00</time>
      </trkpt>
      <trkpt lat="46.6563" lon="4.95232">
        <ele>170.2998</ele>
        <time>2026-05-14T09:55:21+02:00</time>
      </trkpt>
      <trkpt lat="46.65636" lon="4.9523">
        <ele>170.2998</ele>
        <time>2026-05-14T09:55:22+02:00</time>
      </trkpt>
      <trkpt lat="46.65642" lon="4.95228">
        <ele>170.2998</ele>
        <time>2026-05-14T09:55:23+02:00</time>
      </trkpt>
      <trkpt lat="46.65647" lon="4.95226">
        <ele>170.2998</ele>
        <time>2026-05-14T09:55:24+02:00</time>
      </trkpt>
      <trkpt lat="46.65653" lon="4.95224">
        <ele>170.40039</ele>
        <time>2026-05-14T09:55:25+02:00</time>
      </trkpt>
      <trkpt lat="46.65658" lon="4.95223">
        <ele>170.40039</ele>
        <time>2026-05-14T09:55:26+02:00</time>
      </trkpt>
      <trkpt lat="46.65663" lon="4.95222">
        <ele>170.40039</ele>
        <time>2026-05-14T09:55:27+02:00</time>
      </trkpt>
      <trkpt lat="46.65669" lon="4.9522">
        <ele>170.2998</ele>
        <time>2026-05-14T09:55:28+02:00</time>
      </trkpt>
      <trkpt lat="46.65674" lon="4.95219">
        <ele>170.2998</ele>
        <time>2026-05-14T09:55:29+02:00</time>
      </trkpt>
      <trkpt lat="46.6568" lon="4.95217">
        <ele>170.5</ele>
        <time>2026-05-14T09:55:30+02:00</time>
      </trkpt>
      <trkpt lat="46.65685" lon="4.95215">
        <ele>170.5</ele>
        <time>2026-05-14T09:55:31+02:00</time>
      </trkpt>
      <trkpt lat="46.65691" lon="4.95212">
        <ele>170.2998</ele>
        <time>2026-05-14T09:55:32+02:00</time>
      </trkpt>
      <trkpt lat="46.65696" lon="4.9521">
        <ele>170.2002</ele>
        <time>2026-05-14T09:55:33+02:00</time>
      </trkpt>
      <trkpt lat="46.65702" lon="4.95208">
        <ele>170.2002</ele>
        <time>2026-05-14T09:55:34+02:00</time>
      </trkpt>
      <trkpt lat="46.65708" lon="4.95206">
        <ele>170.2002</ele>
        <time>2026-05-14T09:55:35+02:00</time>
      </trkpt>
      <trkpt lat="46.65713" lon="4.95204">
        <ele>170.2002</ele>
        <time>2026-05-14T09:55:36+02:00</time>
      </trkpt>
      <trkpt lat="46.65719" lon="4.95202">
        <ele>170.2002</ele>
        <time>2026-05-14T09:55:37+02:00</time>
      </trkpt>
      <trkpt lat="46.65724" lon="4.952">
        <ele>170.2002</ele>
        <time>2026-05-14T09:55:38+02:00</time>
      </trkpt>
      <trkpt lat="46.6573" lon="4.95198">
        <ele>170.2002</ele>
        <time>2026-05-14T09:55:39+02:00</time>
      </trkpt>
      <trkpt lat="46.65735" lon="4.95196">
        <ele>170.2002</ele>
        <time>2026-05-14T09:55:40+02:00</time>
      </trkpt>
      <trkpt lat="46.6574" lon="4.95194">
        <ele>170.2002</ele>
        <time>2026-05-14T09:55:41+02:00</time>
      </trkpt>
      <trkpt lat="46.65746" lon="4.95193">
        <ele>170.2002</ele>
        <time>2026-05-14T09:55:42+02:00</time>
      </trkpt>
      <trkpt lat="46.65751" lon="4.95191">
        <ele>170.2998</ele>
        <time>2026-05-14T09:55:43+02:00</time>
      </trkpt>
      <trkpt lat="46.65757" lon="4.95189">
        <ele>170.2998</ele>
        <time>2026-05-14T09:55:44+02:00</time>
      </trkpt>
      <trkpt lat="46.65762" lon="4.95187">
        <ele>170.2998</ele>
        <time>2026-05-14T09:55:45+02:00</time>
      </trkpt>
      <trkpt lat="46.65767" lon="4.95184">
        <ele>170.2998</ele>
        <time>2026-05-14T09:55:46+02:00</time>
      </trkpt>
      <trkpt lat="46.65773" lon="4.95182">
        <ele>170.2998</ele>
        <time>2026-05-14T09:55:47+02:00</time>
      </trkpt>
      <trkpt lat="46.65778" lon="4.95179">
        <ele>170.2998</ele>
        <time>2026-05-14T09:55:48+02:00</time>
      </trkpt>
      <trkpt lat="46.65783" lon="4.95177">
        <ele>170.2998</ele>
        <time>2026-05-14T09:55:49+02:00</time>
      </trkpt>
      <trkpt lat="46.65788" lon="4.95174">
        <ele>170.2998</ele>
        <time>2026-05-14T09:55:50+02:00</time>
      </trkpt>
      <trkpt lat="46.65794" lon="4.95171">
        <ele>170.2002</ele>
        <time>2026-05-14T09:55:51+02:00</time>
      </trkpt>
      <trkpt lat="46.65799" lon="4.95168">
        <ele>170.2002</ele>
        <time>2026-05-14T09:55:52+02:00</time>
      </trkpt>
      <trkpt lat="46.65803" lon="4.95164">
        <ele>170.2002</ele>
        <time>2026-05-14T09:55:53+02:00</time>
      </trkpt>
      <trkpt lat="46.65808" lon="4.9516">
        <ele>170.2002</ele>
        <time>2026-05-14T09:55:54+02:00</time>
      </trkpt>
      <trkpt lat="46.65812" lon="4.95156">
        <ele>170.2002</ele>
        <time>2026-05-14T09:55:55+02:00</time>
      </trkpt>
      <trkpt lat="46.65817" lon="4.95152">
        <ele>170.2002</ele>
        <time>2026-05-14T09:55:56+02:00</time>
      </trkpt>
      <trkpt lat="46.65822" lon="4.95148">
        <ele>170.2998</ele>
        <time>2026-05-14T09:55:57+02:00</time>
      </trkpt>
      <trkpt lat="46.65827" lon="4.95145">
        <ele>170.2998</ele>
        <time>2026-05-14T09:55:58+02:00</time>
      </trkpt>
      <trkpt lat="46.65829" lon="4.95143">
        <ele>170.2998</ele>
        <time>2026-05-14T09:55:59+02:00</time>
      </trkpt>
      <trkpt lat="46.65836" lon="4.95138">
        <ele>170.5</ele>
        <time>2026-05-14T09:56:00+02:00</time>
      </trkpt>
      <trkpt lat="46.65841" lon="4.95135">
        <ele>170.40039</ele>
        <time>2026-05-14T09:56:01+02:00</time>
      </trkpt>
      <trkpt lat="46.65846" lon="4.95132">
        <ele>170.2998</ele>
        <time>2026-05-14T09:56:02+02:00</time>
      </trkpt>
      <trkpt lat="46.65851" lon="4.95129">
        <ele>170.40039</ele>
        <time>2026-05-14T09:56:03+02:00</time>
      </trkpt>
      <trkpt lat="46.65856" lon="4.95127">
        <ele>170.2998</ele>
        <time>2026-05-14T09:56:04+02:00</time>
      </trkpt>
      <trkpt lat="46.65861" lon="4.95124">
        <ele>170.2002</ele>
        <time>2026-05-14T09:56:05+02:00</time>
      </trkpt>
      <trkpt lat="46.65866" lon="4.95122">
        <ele>170.2002</ele>
        <time>2026-05-14T09:56:06+02:00</time>
      </trkpt>
      <trkpt lat="46.65871" lon="4.95119">
        <ele>170.2002</ele>
        <time>2026-05-14T09:56:07+02:00</time>
      </trkpt>
      <trkpt lat="46.65877" lon="4.95117">
        <ele>170.2002</ele>
        <time>2026-05-14T09:56:08+02:00</time>
      </trkpt>
      <trkpt lat="46.65882" lon="4.95114">
        <ele>170.2998</ele>
        <time>2026-05-14T09:56:09+02:00</time>
      </trkpt>
      <trkpt lat="46.65888" lon="4.95112">
        <ele>170.2998</ele>
        <time>2026-05-14T09:56:10+02:00</time>
      </trkpt>
      <trkpt lat="46.65893" lon="4.95109">
        <ele>170.2998</ele>
        <time>2026-05-14T09:56:11+02:00</time>
      </trkpt>
      <trkpt lat="46.65898" lon="4.95106">
        <ele>170.2998</ele>
        <time>2026-05-14T09:56:12+02:00</time>
      </trkpt>
      <trkpt lat="46.65904" lon="4.95104">
        <ele>170.2998</ele>
        <time>2026-05-14T09:56:13+02:00</time>
      </trkpt>
      <trkpt lat="46.65909" lon="4.95101">
        <ele>170.2998</ele>
        <time>2026-05-14T09:56:14+02:00</time>
      </trkpt>
      <trkpt lat="46.65914" lon="4.95098">
        <ele>170.2998</ele>
        <time>2026-05-14T09:56:15+02:00</time>
      </trkpt>
      <trkpt lat="46.6592" lon="4.95094">
        <ele>170.2002</ele>
        <time>2026-05-14T09:56:16+02:00</time>
      </trkpt>
      <trkpt lat="46.65925" lon="4.95091">
        <ele>170.2002</ele>
        <time>2026-05-14T09:56:17+02:00</time>
      </trkpt>
      <trkpt lat="46.65931" lon="4.95088">
        <ele>170.2002</ele>
        <time>2026-05-14T09:56:18+02:00</time>
      </trkpt>
      <trkpt lat="46.65936" lon="4.95084">
        <ele>170.2998</ele>
        <time>2026-05-14T09:56:19+02:00</time>
      </trkpt>
      <trkpt lat="46.65941" lon="4.95081">
        <ele>170.2998</ele>
        <time>2026-05-14T09:56:20+02:00</time>
      </trkpt>
      <trkpt lat="46.65946" lon="4.95078">
        <ele>170.2998</ele>
        <time>2026-05-14T09:56:21+02:00</time>
      </trkpt>
      <trkpt lat="46.65952" lon="4.95075">
        <ele>170.2998</ele>
        <time>2026-05-14T09:56:22+02:00</time>
      </trkpt>
      <trkpt lat="46.65957" lon="4.95072">
        <ele>170.2998</ele>
        <time>2026-05-14T09:56:23+02:00</time>
      </trkpt>
      <trkpt lat="46.65962" lon="4.95069">
        <ele>170.2998</ele>
        <time>2026-05-14T09:56:24+02:00</time>
      </trkpt>
      <trkpt lat="46.65967" lon="4.95066">
        <ele>170.2998</ele>
        <time>2026-05-14T09:56:25+02:00</time>
      </trkpt>
      <trkpt lat="46.65973" lon="4.95063">
        <ele>170.2998</ele>
        <time>2026-05-14T09:56:26+02:00</time>
      </trkpt>
      <trkpt lat="46.65978" lon="4.95061">
        <ele>170.60059</ele>
        <time>2026-05-14T09:56:27+02:00</time>
      </trkpt>
      <trkpt lat="46.65983" lon="4.95057">
        <ele>170.60059</ele>
        <time>2026-05-14T09:56:28+02:00</time>
      </trkpt>
      <trkpt lat="46.65988" lon="4.95054">
        <ele>171</ele>
        <time>2026-05-14T09:56:29+02:00</time>
      </trkpt>
      <trkpt lat="46.65993" lon="4.95051">
        <ele>170.90039</ele>
        <time>2026-05-14T09:56:30+02:00</time>
      </trkpt>
      <trkpt lat="46.65998" lon="4.95048">
        <ele>170.90039</ele>
        <time>2026-05-14T09:56:31+02:00</time>
      </trkpt>
      <trkpt lat="46.66003" lon="4.95044">
        <ele>171.2998</ele>
        <time>2026-05-14T09:56:32+02:00</time>
      </trkpt>
      <trkpt lat="46.66008" lon="4.95041">
        <ele>171.10059</ele>
        <time>2026-05-14T09:56:33+02:00</time>
      </trkpt>
      <trkpt lat="46.66013" lon="4.95038">
        <ele>170.7998</ele>
        <time>2026-05-14T09:56:34+02:00</time>
      </trkpt>
      <trkpt lat="46.66016" lon="4.95036">
        <ele>170.7002</ele>
        <time>2026-05-14T09:56:35+02:00</time>
      </trkpt>
      <trkpt lat="46.66023" lon="4.95032">
        <ele>170.40039</ele>
        <time>2026-05-14T09:56:36+02:00</time>
      </trkpt>
      <trkpt lat="46.66028" lon="4.95029">
        <ele>170.2998</ele>
        <time>2026-05-14T09:56:37+02:00</time>
      </trkpt>
      <trkpt lat="46.66032" lon="4.95026">
        <ele>170.40039</ele>
        <time>2026-05-14T09:56:38+02:00</time>
      </trkpt>
      <trkpt lat="46.66036" lon="4.95024">
        <ele>170.2998</ele>
        <time>2026-05-14T09:56:39+02:00</time>
      </trkpt>
      <trkpt lat="46.6604" lon="4.95021">
        <ele>170.2002</ele>
        <time>2026-05-14T09:56:40+02:00</time>
      </trkpt>
      <trkpt lat="46.66044" lon="4.95018">
        <ele>170.2998</ele>
        <time>2026-05-14T09:56:41+02:00</time>
      </trkpt>
      <trkpt lat="46.66049" lon="4.95016">
        <ele>170.2002</ele>
        <time>2026-05-14T09:56:42+02:00</time>
      </trkpt>
      <trkpt lat="46.66053" lon="4.95013">
        <ele>170.10059</ele>
        <time>2026-05-14T09:56:43+02:00</time>
      </trkpt>
      <trkpt lat="46.66057" lon="4.9501">
        <ele>170.10059</ele>
        <time>2026-05-14T09:56:44+02:00</time>
      </trkpt>
      <trkpt lat="46.66061" lon="4.95007">
        <ele>170.10059</ele>
        <time>2026-05-14T09:56:45+02:00</time>
      </trkpt>
      <trkpt lat="46.66065" lon="4.95005">
        <ele>170.10059</ele>
        <time>2026-05-14T09:56:46+02:00</time>
      </trkpt>
      <trkpt lat="46.66069" lon="4.95002">
        <ele>170.2002</ele>
        <time>2026-05-14T09:56:47+02:00</time>
      </trkpt>
      <trkpt lat="46.66073" lon="4.95">
        <ele>170.2002</ele>
        <time>2026-05-14T09:56:48+02:00</time>
      </trkpt>
      <trkpt lat="46.66078" lon="4.94997">
        <ele>170.2002</ele>
        <time>2026-05-14T09:56:49+02:00</time>
      </trkpt>
      <trkpt lat="46.66081" lon="4.94995">
        <ele>170.2002</ele>
        <time>2026-05-14T09:56:50+02:00</time>
      </trkpt>
      <trkpt lat="46.66086" lon="4.94992">
        <ele>170.40039</ele>
        <time>2026-05-14T09:56:51+02:00</time>
      </trkpt>
      <trkpt lat="46.6609" lon="4.9499">
        <ele>170.40039</ele>
        <time>2026-05-14T09:56:52+02:00</time>
      </trkpt>
      <trkpt lat="46.66094" lon="4.94988">
        <ele>170.40039</ele>
        <time>2026-05-14T09:56:53+02:00</time>
      </trkpt>
      <trkpt lat="46.66098" lon="4.94985">
        <ele>170.7002</ele>
        <time>2026-05-14T09:56:54+02:00</time>
      </trkpt>
      <trkpt lat="46.66102" lon="4.94983">
        <ele>170.60059</ele>
        <time>2026-05-14T09:56:55+02:00</time>
      </trkpt>
      <trkpt lat="46.66107" lon="4.9498">
        <ele>170.60059</ele>
        <time>2026-05-14T09:56:56+02:00</time>
      </trkpt>
      <trkpt lat="46.66111" lon="4.94978">
        <ele>170.5</ele>
        <time>2026-05-14T09:56:57+02:00</time>
      </trkpt>
      <trkpt lat="46.66115" lon="4.94976">
        <ele>170.90039</ele>
        <time>2026-05-14T09:56:58+02:00</time>
      </trkpt>
      <trkpt lat="46.6612" lon="4.94973">
        <ele>170.7002</ele>
        <time>2026-05-14T09:56:59+02:00</time>
      </trkpt>
      <trkpt lat="46.66124" lon="4.94971">
        <ele>170.5</ele>
        <time>2026-05-14T09:57:00+02:00</time>
      </trkpt>
      <trkpt lat="46.66128" lon="4.94969">
        <ele>170.2998</ele>
        <time>2026-05-14T09:57:01+02:00</time>
      </trkpt>
      <trkpt lat="46.66132" lon="4.94966">
        <ele>170.40039</ele>
        <time>2026-05-14T09:57:02+02:00</time>
      </trkpt>
      <trkpt lat="46.66137" lon="4.94964">
        <ele>170.2002</ele>
        <time>2026-05-14T09:57:03+02:00</time>
      </trkpt>
      <trkpt lat="46.66141" lon="4.94962">
        <ele>170.10059</ele>
        <time>2026-05-14T09:57:04+02:00</time>
      </trkpt>
      <trkpt lat="46.66145" lon="4.9496">
        <ele>170.10059</ele>
        <time>2026-05-14T09:57:05+02:00</time>
      </trkpt>
      <trkpt lat="46.6615" lon="4.94958">
        <ele>170.2998</ele>
        <time>2026-05-14T09:57:06+02:00</time>
      </trkpt>
      <trkpt lat="46.66155" lon="4.94956">
        <ele>170.2002</ele>
        <time>2026-05-14T09:57:07+02:00</time>
      </trkpt>
      <trkpt lat="46.6616" lon="4.94954">
        <ele>170.2002</ele>
        <time>2026-05-14T09:57:08+02:00</time>
      </trkpt>
      <trkpt lat="46.66164" lon="4.94951">
        <ele>170.60059</ele>
        <time>2026-05-14T09:57:09+02:00</time>
      </trkpt>
      <trkpt lat="46.66169" lon="4.94948">
        <ele>170.60059</ele>
        <time>2026-05-14T09:57:10+02:00</time>
      </trkpt>
      <trkpt lat="46.66173" lon="4.94946">
        <ele>170.40039</ele>
        <time>2026-05-14T09:57:11+02:00</time>
      </trkpt>
      <trkpt lat="46.66177" lon="4.94943">
        <ele>170.40039</ele>
        <time>2026-05-14T09:57:12+02:00</time>
      </trkpt>
      <trkpt lat="46.66182" lon="4.9494">
        <ele>170.5</ele>
        <time>2026-05-14T09:57:13+02:00</time>
      </trkpt>
      <trkpt lat="46.66186" lon="4.94937">
        <ele>170.5</ele>
        <time>2026-05-14T09:57:14+02:00</time>
      </trkpt>
      <trkpt lat="46.6619" lon="4.94934">
        <ele>170.5</ele>
        <time>2026-05-14T09:57:15+02:00</time>
      </trkpt>
      <trkpt lat="46.66194" lon="4.94931">
        <ele>170.2998</ele>
        <time>2026-05-14T09:57:16+02:00</time>
      </trkpt>
      <trkpt lat="46.66197" lon="4.94929">
        <ele>170.2998</ele>
        <time>2026-05-14T09:57:17+02:00</time>
      </trkpt>
      <trkpt lat="46.66201" lon="4.94927">
        <ele>170.2002</ele>
        <time>2026-05-14T09:57:18+02:00</time>
      </trkpt>
      <trkpt lat="46.66205" lon="4.94925">
        <ele>170.2002</ele>
        <time>2026-05-14T09:57:19+02:00</time>
      </trkpt>
      <trkpt lat="46.66209" lon="4.94923">
        <ele>170.2002</ele>
        <time>2026-05-14T09:57:20+02:00</time>
      </trkpt>
      <trkpt lat="46.66213" lon="4.94921">
        <ele>170.2002</ele>
        <time>2026-05-14T09:57:21+02:00</time>
      </trkpt>
      <trkpt lat="46.66216" lon="4.94918">
        <ele>170.2002</ele>
        <time>2026-05-14T09:57:22+02:00</time>
      </trkpt>
      <trkpt lat="46.6622" lon="4.94916">
        <ele>170.2998</ele>
        <time>2026-05-14T09:57:23+02:00</time>
      </trkpt>
      <trkpt lat="46.66224" lon="4.94914">
        <ele>170.2998</ele>
        <time>2026-05-14T09:57:24+02:00</time>
      </trkpt>
      <trkpt lat="46.66227" lon="4.94911">
        <ele>170.2998</ele>
        <time>2026-05-14T09:57:25+02:00</time>
      </trkpt>
      <trkpt lat="46.66231" lon="4.94909">
        <ele>170.2998</ele>
        <time>2026-05-14T09:57:26+02:00</time>
      </trkpt>
      <trkpt lat="46.66233" lon="4.94908">
        <ele>170.2002</ele>
        <time>2026-05-14T09:57:27+02:00</time>
      </trkpt>
      <trkpt lat="46.66239" lon="4.94904">
        <ele>170.2002</ele>
        <time>2026-05-14T09:57:28+02:00</time>
      </trkpt>
      <trkpt lat="46.66242" lon="4.94901">
        <ele>170.2998</ele>
        <time>2026-05-14T09:57:29+02:00</time>
      </trkpt>
      <trkpt lat="46.66246" lon="4.94899">
        <ele>170.2998</ele>
        <time>2026-05-14T09:57:30+02:00</time>
      </trkpt>
      <trkpt lat="46.6625" lon="4.94897">
        <ele>170.2998</ele>
        <time>2026-05-14T09:57:31+02:00</time>
      </trkpt>
      <trkpt lat="46.66254" lon="4.94894">
        <ele>170.2998</ele>
        <time>2026-05-14T09:57:32+02:00</time>
      </trkpt>
      <trkpt lat="46.66258" lon="4.94892">
        <ele>170.2002</ele>
        <time>2026-05-14T09:57:33+02:00</time>
      </trkpt>
      <trkpt lat="46.66261" lon="4.9489">
        <ele>170.2998</ele>
        <time>2026-05-14T09:57:34+02:00</time>
      </trkpt>
      <trkpt lat="46.66265" lon="4.94887">
        <ele>170.2002</ele>
        <time>2026-05-14T09:57:35+02:00</time>
      </trkpt>
      <trkpt lat="46.66269" lon="4.94885">
        <ele>170.2002</ele>
        <time>2026-05-14T09:57:36+02:00</time>
      </trkpt>
      <trkpt lat="46.66272" lon="4.94883">
        <ele>170.2002</ele>
        <time>2026-05-14T09:57:37+02:00</time>
      </trkpt>
      <trkpt lat="46.66277" lon="4.9488">
        <ele>170.2998</ele>
        <time>2026-05-14T09:57:38+02:00</time>
      </trkpt>
      <trkpt lat="46.6628" lon="4.94878">
        <ele>170.2998</ele>
        <time>2026-05-14T09:57:39+02:00</time>
      </trkpt>
      <trkpt lat="46.66284" lon="4.94876">
        <ele>170.2998</ele>
        <time>2026-05-14T09:57:40+02:00</time>
      </trkpt>
      <trkpt lat="46.66288" lon="4.94874">
        <ele>170.2002</ele>
        <time>2026-05-14T09:57:41+02:00</time>
      </trkpt>
      <trkpt lat="46.66292" lon="4.94872">
        <ele>170.5</ele>
        <time>2026-05-14T09:57:42+02:00</time>
      </trkpt>
      <trkpt lat="46.66296" lon="4.9487">
        <ele>170.40039</ele>
        <time>2026-05-14T09:57:43+02:00</time>
      </trkpt>
      <trkpt lat="46.663" lon="4.94867">
        <ele>170.40039</ele>
        <time>2026-05-14T09:57:44+02:00</time>
      </trkpt>
      <trkpt lat="46.66303" lon="4.94865">
        <ele>170.7998</ele>
        <time>2026-05-14T09:57:45+02:00</time>
      </trkpt>
      <trkpt lat="46.66307" lon="4.94863">
        <ele>170.7002</ele>
        <time>2026-05-14T09:57:46+02:00</time>
      </trkpt>
      <trkpt lat="46.66311" lon="4.94861">
        <ele>170.60059</ele>
        <time>2026-05-14T09:57:47+02:00</time>
      </trkpt>
      <trkpt lat="46.66315" lon="4.94859">
        <ele>170.60059</ele>
        <time>2026-05-14T09:57:48+02:00</time>
      </trkpt>
      <trkpt lat="46.66319" lon="4.94856">
        <ele>170.7998</ele>
        <time>2026-05-14T09:57:49+02:00</time>
      </trkpt>
      <trkpt lat="46.66322" lon="4.94854">
        <ele>170.7998</ele>
        <time>2026-05-14T09:57:50+02:00</time>
      </trkpt>
      <trkpt lat="46.66326" lon="4.94852">
        <ele>170.5</ele>
        <time>2026-05-14T09:57:51+02:00</time>
      </trkpt>
      <trkpt lat="46.66329" lon="4.9485">
        <ele>170.2002</ele>
        <time>2026-05-14T09:57:52+02:00</time>
      </trkpt>
      <trkpt lat="46.66333" lon="4.94848">
        <ele>170.2998</ele>
        <time>2026-05-14T09:57:53+02:00</time>
      </trkpt>
      <trkpt lat="46.66336" lon="4.94846">
        <ele>170.2002</ele>
        <time>2026-05-14T09:57:54+02:00</time>
      </trkpt>
      <trkpt lat="46.6634" lon="4.94844">
        <ele>170.10059</ele>
        <time>2026-05-14T09:57:55+02:00</time>
      </trkpt>
      <trkpt lat="46.66343" lon="4.94842">
        <ele>170.10059</ele>
        <time>2026-05-14T09:57:56+02:00</time>
      </trkpt>
      <trkpt lat="46.66348" lon="4.94841">
        <ele>170.10059</ele>
        <time>2026-05-14T09:57:57+02:00</time>
      </trkpt>
      <trkpt lat="46.66352" lon="4.94839">
        <ele>170.2998</ele>
        <time>2026-05-14T09:57:58+02:00</time>
      </trkpt>
      <trkpt lat="46.66356" lon="4.94837">
        <ele>170.2998</ele>
        <time>2026-05-14T09:57:59+02:00</time>
      </trkpt>
      <trkpt lat="46.6636" lon="4.94836">
        <ele>170.2998</ele>
        <time>2026-05-14T09:58:00+02:00</time>
      </trkpt>
      <trkpt lat="46.66363" lon="4.94836">
        <ele>170.2998</ele>
        <time>2026-05-14T09:58:01+02:00</time>
      </trkpt>
      <trkpt lat="46.66367" lon="4.94835">
        <ele>170.2998</ele>
        <time>2026-05-14T09:58:02+02:00</time>
      </trkpt>
      <trkpt lat="46.6637" lon="4.94835">
        <ele>170.2998</ele>
        <time>2026-05-14T09:58:03+02:00</time>
      </trkpt>
      <trkpt lat="46.66374" lon="4.94834">
        <ele>170.2998</ele>
        <time>2026-05-14T09:58:04+02:00</time>
      </trkpt>
      <trkpt lat="46.66377" lon="4.94834">
        <ele>170.2998</ele>
        <time>2026-05-14T09:58:05+02:00</time>
      </trkpt>
      <trkpt lat="46.66382" lon="4.94834">
        <ele>170.2998</ele>
        <time>2026-05-14T09:58:06+02:00</time>
      </trkpt>
      <trkpt lat="46.66386" lon="4.94833">
        <ele>170.2998</ele>
        <time>2026-05-14T09:58:07+02:00</time>
      </trkpt>
      <trkpt lat="46.66388" lon="4.94833">
        <ele>170.2002</ele>
        <time>2026-05-14T09:58:08+02:00</time>
      </trkpt>
      <trkpt lat="46.66395" lon="4.94832">
        <ele>170.2002</ele>
        <time>2026-05-14T09:58:09+02:00</time>
      </trkpt>
      <trkpt lat="46.66399" lon="4.94832">
        <ele>170.2002</ele>
        <time>2026-05-14T09:58:10+02:00</time>
      </trkpt>
      <trkpt lat="46.66404" lon="4.94832">
        <ele>170.2002</ele>
        <time>2026-05-14T09:58:11+02:00</time>
      </trkpt>
      <trkpt lat="46.66408" lon="4.94831">
        <ele>170.2998</ele>
        <time>2026-05-14T09:58:12+02:00</time>
      </trkpt>
      <trkpt lat="46.66412" lon="4.94831">
        <ele>170.2998</ele>
        <time>2026-05-14T09:58:13+02:00</time>
      </trkpt>
      <trkpt lat="46.66416" lon="4.9483">
        <ele>170.2998</ele>
        <time>2026-05-14T09:58:14+02:00</time>
      </trkpt>
      <trkpt lat="46.66421" lon="4.94829">
        <ele>170.2998</ele>
        <time>2026-05-14T09:58:15+02:00</time>
      </trkpt>
      <trkpt lat="46.66425" lon="4.94829">
        <ele>170.2998</ele>
        <time>2026-05-14T09:58:16+02:00</time>
      </trkpt>
      <trkpt lat="46.66429" lon="4.94828">
        <ele>170.2998</ele>
        <time>2026-05-14T09:58:17+02:00</time>
      </trkpt>
      <trkpt lat="46.66433" lon="4.94828">
        <ele>170.2998</ele>
        <time>2026-05-14T09:58:18+02:00</time>
      </trkpt>
      <trkpt lat="46.66437" lon="4.94828">
        <ele>170.2998</ele>
        <time>2026-05-14T09:58:19+02:00</time>
      </trkpt>
      <trkpt lat="46.66441" lon="4.94827">
        <ele>170.2998</ele>
        <time>2026-05-14T09:58:20+02:00</time>
      </trkpt>
      <trkpt lat="46.66445" lon="4.94827">
        <ele>170.2998</ele>
        <time>2026-05-14T09:58:21+02:00</time>
      </trkpt>
      <trkpt lat="46.66449" lon="4.94826">
        <ele>170.2998</ele>
        <time>2026-05-14T09:58:22+02:00</time>
      </trkpt>
      <trkpt lat="46.66453" lon="4.94826">
        <ele>170.2998</ele>
        <time>2026-05-14T09:58:23+02:00</time>
      </trkpt>
      <trkpt lat="46.66457" lon="4.94826">
        <ele>170.2998</ele>
        <time>2026-05-14T09:58:24+02:00</time>
      </trkpt>
      <trkpt lat="46.66461" lon="4.94825">
        <ele>170.2998</ele>
        <time>2026-05-14T09:58:25+02:00</time>
      </trkpt>
      <trkpt lat="46.66465" lon="4.94825">
        <ele>170.2998</ele>
        <time>2026-05-14T09:58:26+02:00</time>
      </trkpt>
      <trkpt lat="46.66469" lon="4.94824">
        <ele>170.2998</ele>
        <time>2026-05-14T09:58:27+02:00</time>
      </trkpt>
      <trkpt lat="46.66474" lon="4.94824">
        <ele>170.2998</ele>
        <time>2026-05-14T09:58:28+02:00</time>
      </trkpt>
      <trkpt lat="46.66477" lon="4.94823">
        <ele>170.2998</ele>
        <time>2026-05-14T09:58:29+02:00</time>
      </trkpt>
      <trkpt lat="46.66481" lon="4.94822">
        <ele>170.2998</ele>
        <time>2026-05-14T09:58:30+02:00</time>
      </trkpt>
      <trkpt lat="46.66485" lon="4.94822">
        <ele>170.2998</ele>
        <time>2026-05-14T09:58:31+02:00</time>
      </trkpt>
      <trkpt lat="46.6649" lon="4.94821">
        <ele>170.2998</ele>
        <time>2026-05-14T09:58:32+02:00</time>
      </trkpt>
      <trkpt lat="46.66494" lon="4.94821">
        <ele>170.2998</ele>
        <time>2026-05-14T09:58:33+02:00</time>
      </trkpt>
      <trkpt lat="46.66498" lon="4.9482">
        <ele>170.2998</ele>
        <time>2026-05-14T09:58:34+02:00</time>
      </trkpt>
      <trkpt lat="46.66502" lon="4.9482">
        <ele>170.2998</ele>
        <time>2026-05-14T09:58:35+02:00</time>
      </trkpt>
      <trkpt lat="46.66506" lon="4.94819">
        <ele>170.2998</ele>
        <time>2026-05-14T09:58:36+02:00</time>
      </trkpt>
      <trkpt lat="46.6651" lon="4.94819">
        <ele>170.2998</ele>
        <time>2026-05-14T09:58:37+02:00</time>
      </trkpt>
      <trkpt lat="46.66515" lon="4.94818">
        <ele>170.2998</ele>
        <time>2026-05-14T09:58:38+02:00</time>
      </trkpt>
      <trkpt lat="46.66519" lon="4.94818">
        <ele>170.2998</ele>
        <time>2026-05-14T09:58:39+02:00</time>
      </trkpt>
      <trkpt lat="46.66523" lon="4.94817">
        <ele>170.2998</ele>
        <time>2026-05-14T09:58:40+02:00</time>
      </trkpt>
      <trkpt lat="46.66527" lon="4.94817">
        <ele>170.2998</ele>
        <time>2026-05-14T09:58:41+02:00</time>
      </trkpt>
      <trkpt lat="46.66532" lon="4.94816">
        <ele>170.2998</ele>
        <time>2026-05-14T09:58:42+02:00</time>
      </trkpt>
      <trkpt lat="46.66536" lon="4.94816">
        <ele>170.2998</ele>
        <time>2026-05-14T09:58:43+02:00</time>
      </trkpt>
      <trkpt lat="46.6654" lon="4.94815">
        <ele>170.2998</ele>
        <time>2026-05-14T09:58:44+02:00</time>
      </trkpt>
      <trkpt lat="46.66544" lon="4.94814">
        <ele>170.2998</ele>
        <time>2026-05-14T09:58:45+02:00</time>
      </trkpt>
      <trkpt lat="46.66549" lon="4.94813">
        <ele>170.2002</ele>
        <time>2026-05-14T09:58:46+02:00</time>
      </trkpt>
      <trkpt lat="46.66553" lon="4.94812">
        <ele>170.2002</ele>
        <time>2026-05-14T09:58:47+02:00</time>
      </trkpt>
      <trkpt lat="46.66557" lon="4.94812">
        <ele>170.2002</ele>
        <time>2026-05-14T09:58:48+02:00</time>
      </trkpt>
      <trkpt lat="46.66561" lon="4.94811">
        <ele>170.2002</ele>
        <time>2026-05-14T09:58:49+02:00</time>
      </trkpt>
      <trkpt lat="46.66565" lon="4.9481">
        <ele>170.2002</ele>
        <time>2026-05-14T09:58:50+02:00</time>
      </trkpt>
      <trkpt lat="46.6657" lon="4.94809">
        <ele>170.2002</ele>
        <time>2026-05-14T09:58:51+02:00</time>
      </trkpt>
      <trkpt lat="46.66573" lon="4.94809">
        <ele>170.2002</ele>
        <time>2026-05-14T09:58:52+02:00</time>
      </trkpt>
      <trkpt lat="46.66578" lon="4.94808">
        <ele>170.2002</ele>
        <time>2026-05-14T09:58:53+02:00</time>
      </trkpt>
      <trkpt lat="46.66582" lon="4.94807">
        <ele>170.2002</ele>
        <time>2026-05-14T09:58:54+02:00</time>
      </trkpt>
      <trkpt lat="46.66586" lon="4.94807">
        <ele>170.2002</ele>
        <time>2026-05-14T09:58:55+02:00</time>
      </trkpt>
      <trkpt lat="46.6659" lon="4.94806">
        <ele>170.2002</ele>
        <time>2026-05-14T09:58:56+02:00</time>
      </trkpt>
      <trkpt lat="46.66594" lon="4.94806">
        <ele>170.2002</ele>
        <time>2026-05-14T09:58:57+02:00</time>
      </trkpt>
      <trkpt lat="46.66598" lon="4.94805">
        <ele>170.2002</ele>
        <time>2026-05-14T09:58:58+02:00</time>
      </trkpt>
      <trkpt lat="46.66602" lon="4.94805">
        <ele>170.2002</ele>
        <time>2026-05-14T09:58:59+02:00</time>
      </trkpt>
      <trkpt lat="46.66606" lon="4.94804">
        <ele>170.2002</ele>
        <time>2026-05-14T09:59:00+02:00</time>
      </trkpt>
      <trkpt lat="46.6661" lon="4.94804">
        <ele>170.2002</ele>
        <time>2026-05-14T09:59:01+02:00</time>
      </trkpt>
      <trkpt lat="46.66614" lon="4.94803">
        <ele>170.2002</ele>
        <time>2026-05-14T09:59:02+02:00</time>
      </trkpt>
      <trkpt lat="46.66619" lon="4.94802">
        <ele>170.2002</ele>
        <time>2026-05-14T09:59:03+02:00</time>
      </trkpt>
      <trkpt lat="46.66623" lon="4.94802">
        <ele>170.2002</ele>
        <time>2026-05-14T09:59:04+02:00</time>
      </trkpt>
      <trkpt lat="46.66625" lon="4.94801">
        <ele>170.2002</ele>
        <time>2026-05-14T09:59:05+02:00</time>
      </trkpt>
      <trkpt lat="46.66632" lon="4.94801">
        <ele>170.2002</ele>
        <time>2026-05-14T09:59:06+02:00</time>
      </trkpt>
      <trkpt lat="46.66636" lon="4.94801">
        <ele>170.2002</ele>
        <time>2026-05-14T09:59:07+02:00</time>
      </trkpt>
      <trkpt lat="46.66641" lon="4.948">
        <ele>170.2002</ele>
        <time>2026-05-14T09:59:08+02:00</time>
      </trkpt>
      <trkpt lat="46.66645" lon="4.948">
        <ele>170.2002</ele>
        <time>2026-05-14T09:59:09+02:00</time>
      </trkpt>
      <trkpt lat="46.66649" lon="4.94799">
        <ele>170.2002</ele>
        <time>2026-05-14T09:59:10+02:00</time>
      </trkpt>
      <trkpt lat="46.66654" lon="4.94798">
        <ele>170.2002</ele>
        <time>2026-05-14T09:59:11+02:00</time>
      </trkpt>
      <trkpt lat="46.66656" lon="4.94798">
        <ele>170.2002</ele>
        <time>2026-05-14T09:59:12+02:00</time>
      </trkpt>
      <trkpt lat="46.66663" lon="4.94797">
        <ele>170.2002</ele>
        <time>2026-05-14T09:59:13+02:00</time>
      </trkpt>
      <trkpt lat="46.66667" lon="4.94797">
        <ele>170.2002</ele>
        <time>2026-05-14T09:59:14+02:00</time>
      </trkpt>
      <trkpt lat="46.66672" lon="4.94796">
        <ele>170.2002</ele>
        <time>2026-05-14T09:59:15+02:00</time>
      </trkpt>
      <trkpt lat="46.66676" lon="4.94796">
        <ele>170.2002</ele>
        <time>2026-05-14T09:59:16+02:00</time>
      </trkpt>
      <trkpt lat="46.6668" lon="4.94796">
        <ele>170.2002</ele>
        <time>2026-05-14T09:59:17+02:00</time>
      </trkpt>
      <trkpt lat="46.66685" lon="4.94795">
        <ele>170.10059</ele>
        <time>2026-05-14T09:59:18+02:00</time>
      </trkpt>
      <trkpt lat="46.66689" lon="4.94795">
        <ele>170.10059</ele>
        <time>2026-05-14T09:59:19+02:00</time>
      </trkpt>
      <trkpt lat="46.66693" lon="4.94795">
        <ele>170.10059</ele>
        <time>2026-05-14T09:59:20+02:00</time>
      </trkpt>
      <trkpt lat="46.66697" lon="4.94794">
        <ele>170.2002</ele>
        <time>2026-05-14T09:59:21+02:00</time>
      </trkpt>
      <trkpt lat="46.66702" lon="4.94794">
        <ele>170.2002</ele>
        <time>2026-05-14T09:59:22+02:00</time>
      </trkpt>
      <trkpt lat="46.66706" lon="4.94793">
        <ele>170.2002</ele>
        <time>2026-05-14T09:59:23+02:00</time>
      </trkpt>
      <trkpt lat="46.6671" lon="4.94792">
        <ele>170.2002</ele>
        <time>2026-05-14T09:59:24+02:00</time>
      </trkpt>
      <trkpt lat="46.66713" lon="4.94791">
        <ele>170.2002</ele>
        <time>2026-05-14T09:59:25+02:00</time>
      </trkpt>
      <trkpt lat="46.66717" lon="4.94791">
        <ele>170.2002</ele>
        <time>2026-05-14T09:59:26+02:00</time>
      </trkpt>
      <trkpt lat="46.66721" lon="4.9479">
        <ele>170.2002</ele>
        <time>2026-05-14T09:59:27+02:00</time>
      </trkpt>
      <trkpt lat="46.66722" lon="4.9479">
        <ele>170.2002</ele>
        <time>2026-05-14T09:59:28+02:00</time>
      </trkpt>
      <trkpt lat="46.66727" lon="4.94789">
        <ele>170.2002</ele>
        <time>2026-05-14T09:59:29+02:00</time>
      </trkpt>
      <trkpt lat="46.6673" lon="4.94788">
        <ele>170.2998</ele>
        <time>2026-05-14T09:59:30+02:00</time>
      </trkpt>
      <trkpt lat="46.66733" lon="4.94787">
        <ele>170.2998</ele>
        <time>2026-05-14T09:59:31+02:00</time>
      </trkpt>
      <trkpt lat="46.66736" lon="4.94787">
        <ele>170.2998</ele>
        <time>2026-05-14T09:59:32+02:00</time>
      </trkpt>
      <trkpt lat="46.6674" lon="4.94786">
        <ele>170.2998</ele>
        <time>2026-05-14T09:59:33+02:00</time>
      </trkpt>
      <trkpt lat="46.66744" lon="4.94786">
        <ele>170.40039</ele>
        <time>2026-05-14T09:59:34+02:00</time>
      </trkpt>
      <trkpt lat="46.66748" lon="4.94786">
        <ele>170.40039</ele>
        <time>2026-05-14T09:59:35+02:00</time>
      </trkpt>
      <trkpt lat="46.66752" lon="4.94786">
        <ele>170.40039</ele>
        <time>2026-05-14T09:59:36+02:00</time>
      </trkpt>
      <trkpt lat="46.66756" lon="4.94786">
        <ele>170.5</ele>
        <time>2026-05-14T09:59:37+02:00</time>
      </trkpt>
      <trkpt lat="46.6676" lon="4.94786">
        <ele>170.5</ele>
        <time>2026-05-14T09:59:38+02:00</time>
      </trkpt>
      <trkpt lat="46.66764" lon="4.94787">
        <ele>170.5</ele>
        <time>2026-05-14T09:59:39+02:00</time>
      </trkpt>
      <trkpt lat="46.66768" lon="4.94787">
        <ele>170.5</ele>
        <time>2026-05-14T09:59:40+02:00</time>
      </trkpt>
      <trkpt lat="46.66772" lon="4.94788">
        <ele>170.5</ele>
        <time>2026-05-14T09:59:41+02:00</time>
      </trkpt>
      <trkpt lat="46.66776" lon="4.9479">
        <ele>170.2998</ele>
        <time>2026-05-14T09:59:42+02:00</time>
      </trkpt>
      <trkpt lat="46.66779" lon="4.94792">
        <ele>170.2998</ele>
        <time>2026-05-14T09:59:43+02:00</time>
      </trkpt>
      <trkpt lat="46.66783" lon="4.94793">
        <ele>170.2998</ele>
        <time>2026-05-14T09:59:44+02:00</time>
      </trkpt>
      <trkpt lat="46.66787" lon="4.94795">
        <ele>170.2998</ele>
        <time>2026-05-14T09:59:45+02:00</time>
      </trkpt>
      <trkpt lat="46.66791" lon="4.94797">
        <ele>170.2002</ele>
        <time>2026-05-14T09:59:46+02:00</time>
      </trkpt>
      <trkpt lat="46.66794" lon="4.94798">
        <ele>170.2002</ele>
        <time>2026-05-14T09:59:47+02:00</time>
      </trkpt>
      <trkpt lat="46.66798" lon="4.94799">
        <ele>170.2002</ele>
        <time>2026-05-14T09:59:48+02:00</time>
      </trkpt>
      <trkpt lat="46.66802" lon="4.94799">
        <ele>170.10059</ele>
        <time>2026-05-14T09:59:49+02:00</time>
      </trkpt>
      <trkpt lat="46.66805" lon="4.94799">
        <ele>170.10059</ele>
        <time>2026-05-14T09:59:50+02:00</time>
      </trkpt>
      <trkpt lat="46.66809" lon="4.94798">
        <ele>170.10059</ele>
        <time>2026-05-14T09:59:51+02:00</time>
      </trkpt>
      <trkpt lat="46.66811" lon="4.94798">
        <ele>170.10059</ele>
        <time>2026-05-14T09:59:52+02:00</time>
      </trkpt>
      <trkpt lat="46.66816" lon="4.94797">
        <ele>170.10059</ele>
        <time>2026-05-14T09:59:53+02:00</time>
      </trkpt>
      <trkpt lat="46.6682" lon="4.94796">
        <ele>170.2002</ele>
        <time>2026-05-14T09:59:54+02:00</time>
      </trkpt>
      <trkpt lat="46.66823" lon="4.94795">
        <ele>170.2002</ele>
        <time>2026-05-14T09:59:55+02:00</time>
      </trkpt>
      <trkpt lat="46.66826" lon="4.94794">
        <ele>170.2002</ele>
        <time>2026-05-14T09:59:56+02:00</time>
      </trkpt>
      <trkpt lat="46.66829" lon="4.94792">
        <ele>170.2002</ele>
        <time>2026-05-14T09:59:57+02:00</time>
      </trkpt>
      <trkpt lat="46.66832" lon="4.9479">
        <ele>170.2002</ele>
        <time>2026-05-14T09:59:58+02:00</time>
      </trkpt>
      <trkpt lat="46.66835" lon="4.94789">
        <ele>170.2002</ele>
        <time>2026-05-14T09:59:59+02:00</time>
      </trkpt>
      <trkpt lat="46.66838" lon="4.94788">
        <ele>170.60059</ele>
        <time>2026-05-14T10:00:00+02:00</time>
      </trkpt>
      <trkpt lat="46.66841" lon="4.94787">
        <ele>170.5</ele>
        <time>2026-05-14T10:00:01+02:00</time>
      </trkpt>
      <trkpt lat="46.66845" lon="4.94786">
        <ele>170.5</ele>
        <time>2026-05-14T10:00:02+02:00</time>
      </trkpt>
      <trkpt lat="46.66848" lon="4.94785">
        <ele>170.5</ele>
        <time>2026-05-14T10:00:03+02:00</time>
      </trkpt>
      <trkpt lat="46.66852" lon="4.94784">
        <ele>170.5</ele>
        <time>2026-05-14T10:00:04+02:00</time>
      </trkpt>
      <trkpt lat="46.66855" lon="4.94783">
        <ele>170.5</ele>
        <time>2026-05-14T10:00:05+02:00</time>
      </trkpt>
      <trkpt lat="46.66858" lon="4.94783">
        <ele>170.5</ele>
        <time>2026-05-14T10:00:06+02:00</time>
      </trkpt>
      <trkpt lat="46.66861" lon="4.94783">
        <ele>170.5</ele>
        <time>2026-05-14T10:00:07+02:00</time>
      </trkpt>
      <trkpt lat="46.66864" lon="4.94782">
        <ele>170.5</ele>
        <time>2026-05-14T10:00:08+02:00</time>
      </trkpt>
      <trkpt lat="46.66867" lon="4.94782">
        <ele>170.40039</ele>
        <time>2026-05-14T10:00:09+02:00</time>
      </trkpt>
      <trkpt lat="46.66869" lon="4.94782">
        <ele>170.40039</ele>
        <time>2026-05-14T10:00:10+02:00</time>
      </trkpt>
      <trkpt lat="46.66871" lon="4.94781">
        <ele>170.40039</ele>
        <time>2026-05-14T10:00:11+02:00</time>
      </trkpt>
      <trkpt lat="46.66871" lon="4.94781">
        <ele>170.40039</ele>
        <time>2026-05-14T10:00:12+02:00</time>
      </trkpt>
      <trkpt lat="46.66871" lon="4.94782">
        <ele>170.40039</ele>
        <time>2026-05-14T10:00:13+02:00</time>
      </trkpt>
      <trkpt lat="46.66871" lon="4.94782">
        <ele>170.40039</ele>
        <time>2026-05-14T10:00:14+02:00</time>
      </trkpt>
      <trkpt lat="46.66871" lon="4.94782">
        <ele>170.40039</ele>
        <time>2026-05-14T10:00:15+02:00</time>
      </trkpt>
      <trkpt lat="46.66903" lon="4.94771">
        <ele>171.2002</ele>
        <time>2026-05-14T10:08:20+02:00</time>
      </trkpt>
      <trkpt lat="46.66907" lon="4.94771">
        <ele>170.7002</ele>
        <time>2026-05-14T10:08:21+02:00</time>
      </trkpt>
      <trkpt lat="46.66911" lon="4.9477">
        <ele>170.7002</ele>
        <time>2026-05-14T10:08:22+02:00</time>
      </trkpt>
      <trkpt lat="46.66914" lon="4.9477">
        <ele>170.2998</ele>
        <time>2026-05-14T10:08:23+02:00</time>
      </trkpt>
      <trkpt lat="46.66916" lon="4.94769">
        <ele>170.2998</ele>
        <time>2026-05-14T10:08:24+02:00</time>
      </trkpt>
      <trkpt lat="46.66923" lon="4.94769">
        <ele>170.10059</ele>
        <time>2026-05-14T10:08:25+02:00</time>
      </trkpt>
      <trkpt lat="46.66927" lon="4.94768">
        <ele>170.10059</ele>
        <time>2026-05-14T10:08:26+02:00</time>
      </trkpt>
      <trkpt lat="46.66931" lon="4.94768">
        <ele>170.2002</ele>
        <time>2026-05-14T10:08:27+02:00</time>
      </trkpt>
      <trkpt lat="46.66935" lon="4.94768">
        <ele>170.2002</ele>
        <time>2026-05-14T10:08:28+02:00</time>
      </trkpt>
      <trkpt lat="46.6694" lon="4.94767">
        <ele>170.2002</ele>
        <time>2026-05-14T10:08:29+02:00</time>
      </trkpt>
      <trkpt lat="46.66944" lon="4.94766">
        <ele>170.2002</ele>
        <time>2026-05-14T10:08:30+02:00</time>
      </trkpt>
      <trkpt lat="46.66949" lon="4.94766">
        <ele>170.2002</ele>
        <time>2026-05-14T10:08:31+02:00</time>
      </trkpt>
      <trkpt lat="46.66953" lon="4.94765">
        <ele>170.2002</ele>
        <time>2026-05-14T10:08:32+02:00</time>
      </trkpt>
      <trkpt lat="46.66958" lon="4.94765">
        <ele>170.2002</ele>
        <time>2026-05-14T10:08:33+02:00</time>
      </trkpt>
      <trkpt lat="46.66963" lon="4.94764">
        <ele>170.2002</ele>
        <time>2026-05-14T10:08:34+02:00</time>
      </trkpt>
      <trkpt lat="46.66968" lon="4.94764">
        <ele>170.2002</ele>
        <time>2026-05-14T10:08:35+02:00</time>
      </trkpt>
      <trkpt lat="46.66973" lon="4.94763">
        <ele>170.2002</ele>
        <time>2026-05-14T10:08:36+02:00</time>
      </trkpt>
      <trkpt lat="46.66979" lon="4.94762">
        <ele>170.2002</ele>
        <time>2026-05-14T10:08:37+02:00</time>
      </trkpt>
      <trkpt lat="46.66984" lon="4.94761">
        <ele>170.2002</ele>
        <time>2026-05-14T10:08:38+02:00</time>
      </trkpt>
      <trkpt lat="46.66989" lon="4.9476">
        <ele>170.2002</ele>
        <time>2026-05-14T10:08:39+02:00</time>
      </trkpt>
      <trkpt lat="46.66994" lon="4.9476">
        <ele>170.2002</ele>
        <time>2026-05-14T10:08:40+02:00</time>
      </trkpt>
      <trkpt lat="46.67" lon="4.94759">
        <ele>170.2002</ele>
        <time>2026-05-14T10:08:41+02:00</time>
      </trkpt>
      <trkpt lat="46.67005" lon="4.94759">
        <ele>170.2002</ele>
        <time>2026-05-14T10:08:42+02:00</time>
      </trkpt>
      <trkpt lat="46.67011" lon="4.94758">
        <ele>170.2998</ele>
        <time>2026-05-14T10:08:43+02:00</time>
      </trkpt>
      <trkpt lat="46.67016" lon="4.94758">
        <ele>170.2998</ele>
        <time>2026-05-14T10:08:44+02:00</time>
      </trkpt>
      <trkpt lat="46.67022" lon="4.94757">
        <ele>170.2998</ele>
        <time>2026-05-14T10:08:45+02:00</time>
      </trkpt>
      <trkpt lat="46.67027" lon="4.94756">
        <ele>170.40039</ele>
        <time>2026-05-14T10:08:46+02:00</time>
      </trkpt>
      <trkpt lat="46.67033" lon="4.94755">
        <ele>170.40039</ele>
        <time>2026-05-14T10:08:47+02:00</time>
      </trkpt>
      <trkpt lat="46.67038" lon="4.94754">
        <ele>170.40039</ele>
        <time>2026-05-14T10:08:48+02:00</time>
      </trkpt>
      <trkpt lat="46.67044" lon="4.94754">
        <ele>170.40039</ele>
        <time>2026-05-14T10:08:49+02:00</time>
      </trkpt>
      <trkpt lat="46.6705" lon="4.94753">
        <ele>170.7002</ele>
        <time>2026-05-14T10:08:50+02:00</time>
      </trkpt>
      <trkpt lat="46.67056" lon="4.94752">
        <ele>170.7998</ele>
        <time>2026-05-14T10:08:51+02:00</time>
      </trkpt>
      <trkpt lat="46.67061" lon="4.94752">
        <ele>170.90039</ele>
        <time>2026-05-14T10:08:52+02:00</time>
      </trkpt>
      <trkpt lat="46.67067" lon="4.94751">
        <ele>171</ele>
        <time>2026-05-14T10:08:53+02:00</time>
      </trkpt>
      <trkpt lat="46.67072" lon="4.9475">
        <ele>171</ele>
        <time>2026-05-14T10:08:54+02:00</time>
      </trkpt>
      <trkpt lat="46.67078" lon="4.9475">
        <ele>170.90039</ele>
        <time>2026-05-14T10:08:55+02:00</time>
      </trkpt>
      <trkpt lat="46.67084" lon="4.94748">
        <ele>170.7998</ele>
        <time>2026-05-14T10:08:56+02:00</time>
      </trkpt>
      <trkpt lat="46.6709" lon="4.94747">
        <ele>170.60059</ele>
        <time>2026-05-14T10:08:57+02:00</time>
      </trkpt>
      <trkpt lat="46.67096" lon="4.94746">
        <ele>170.40039</ele>
        <time>2026-05-14T10:08:58+02:00</time>
      </trkpt>
      <trkpt lat="46.67101" lon="4.94745">
        <ele>170.5</ele>
        <time>2026-05-14T10:08:59+02:00</time>
      </trkpt>
      <trkpt lat="46.67108" lon="4.94744">
        <ele>170.2998</ele>
        <time>2026-05-14T10:09:00+02:00</time>
      </trkpt>
      <trkpt lat="46.67113" lon="4.94743">
        <ele>170.2002</ele>
        <time>2026-05-14T10:09:01+02:00</time>
      </trkpt>
      <trkpt lat="46.67119" lon="4.94741">
        <ele>170.10059</ele>
        <time>2026-05-14T10:09:02+02:00</time>
      </trkpt>
      <trkpt lat="46.67125" lon="4.9474">
        <ele>170.10059</ele>
        <time>2026-05-14T10:09:03+02:00</time>
      </trkpt>
      <trkpt lat="46.6713" lon="4.94739">
        <ele>170.10059</ele>
        <time>2026-05-14T10:09:04+02:00</time>
      </trkpt>
      <trkpt lat="46.67136" lon="4.94739">
        <ele>170.10059</ele>
        <time>2026-05-14T10:09:05+02:00</time>
      </trkpt>
      <trkpt lat="46.67142" lon="4.94738">
        <ele>170.10059</ele>
        <time>2026-05-14T10:09:06+02:00</time>
      </trkpt>
      <trkpt lat="46.67148" lon="4.94738">
        <ele>170.10059</ele>
        <time>2026-05-14T10:09:07+02:00</time>
      </trkpt>
      <trkpt lat="46.67153" lon="4.94738">
        <ele>170.10059</ele>
        <time>2026-05-14T10:09:08+02:00</time>
      </trkpt>
      <trkpt lat="46.67159" lon="4.94737">
        <ele>170.10059</ele>
        <time>2026-05-14T10:09:09+02:00</time>
      </trkpt>
      <trkpt lat="46.67164" lon="4.94736">
        <ele>170.2002</ele>
        <time>2026-05-14T10:09:10+02:00</time>
      </trkpt>
      <trkpt lat="46.6717" lon="4.94736">
        <ele>170.2002</ele>
        <time>2026-05-14T10:09:11+02:00</time>
      </trkpt>
      <trkpt lat="46.67175" lon="4.94734">
        <ele>170.2002</ele>
        <time>2026-05-14T10:09:12+02:00</time>
      </trkpt>
      <trkpt lat="46.67181" lon="4.94733">
        <ele>170.2002</ele>
        <time>2026-05-14T10:09:13+02:00</time>
      </trkpt>
      <trkpt lat="46.67187" lon="4.94732">
        <ele>170.10059</ele>
        <time>2026-05-14T10:09:14+02:00</time>
      </trkpt>
      <trkpt lat="46.6719" lon="4.94732">
        <ele>170.10059</ele>
        <time>2026-05-14T10:09:15+02:00</time>
      </trkpt>
      <trkpt lat="46.67198" lon="4.9473">
        <ele>170.10059</ele>
        <time>2026-05-14T10:09:16+02:00</time>
      </trkpt>
      <trkpt lat="46.67204" lon="4.94729">
        <ele>170.10059</ele>
        <time>2026-05-14T10:09:17+02:00</time>
      </trkpt>
      <trkpt lat="46.67211" lon="4.94729">
        <ele>170.10059</ele>
        <time>2026-05-14T10:09:18+02:00</time>
      </trkpt>
      <trkpt lat="46.67217" lon="4.94728">
        <ele>170.2998</ele>
        <time>2026-05-14T10:09:19+02:00</time>
      </trkpt>
      <trkpt lat="46.67223" lon="4.94727">
        <ele>170.2002</ele>
        <time>2026-05-14T10:09:20+02:00</time>
      </trkpt>
      <trkpt lat="46.67226" lon="4.94727">
        <ele>170.2002</ele>
        <time>2026-05-14T10:09:21+02:00</time>
      </trkpt>
      <trkpt lat="46.67235" lon="4.94726">
        <ele>170.2002</ele>
        <time>2026-05-14T10:09:22+02:00</time>
      </trkpt>
      <trkpt lat="46.67241" lon="4.94725">
        <ele>170.2002</ele>
        <time>2026-05-14T10:09:23+02:00</time>
      </trkpt>
      <trkpt lat="46.67247" lon="4.94724">
        <ele>170.10059</ele>
        <time>2026-05-14T10:09:24+02:00</time>
      </trkpt>
      <trkpt lat="46.67253" lon="4.94723">
        <ele>170.10059</ele>
        <time>2026-05-14T10:09:25+02:00</time>
      </trkpt>
      <trkpt lat="46.67259" lon="4.94722">
        <ele>170.10059</ele>
        <time>2026-05-14T10:09:26+02:00</time>
      </trkpt>
      <trkpt lat="46.67265" lon="4.9472">
        <ele>170.10059</ele>
        <time>2026-05-14T10:09:27+02:00</time>
      </trkpt>
      <trkpt lat="46.67272" lon="4.94719">
        <ele>170.2998</ele>
        <time>2026-05-14T10:09:28+02:00</time>
      </trkpt>
      <trkpt lat="46.67278" lon="4.94717">
        <ele>170.2998</ele>
        <time>2026-05-14T10:09:29+02:00</time>
      </trkpt>
      <trkpt lat="46.67284" lon="4.94716">
        <ele>170.2998</ele>
        <time>2026-05-14T10:09:30+02:00</time>
      </trkpt>
      <trkpt lat="46.67289" lon="4.94715">
        <ele>170.2998</ele>
        <time>2026-05-14T10:09:31+02:00</time>
      </trkpt>
      <trkpt lat="46.67296" lon="4.94714">
        <ele>170.2998</ele>
        <time>2026-05-14T10:09:32+02:00</time>
      </trkpt>
      <trkpt lat="46.67301" lon="4.94712">
        <ele>170.2998</ele>
        <time>2026-05-14T10:09:33+02:00</time>
      </trkpt>
      <trkpt lat="46.67307" lon="4.9471">
        <ele>170.40039</ele>
        <time>2026-05-14T10:09:34+02:00</time>
      </trkpt>
      <trkpt lat="46.67313" lon="4.94708">
        <ele>170.2998</ele>
        <time>2026-05-14T10:09:35+02:00</time>
      </trkpt>
      <trkpt lat="46.67318" lon="4.94705">
        <ele>170.2998</ele>
        <time>2026-05-14T10:09:36+02:00</time>
      </trkpt>
      <trkpt lat="46.67324" lon="4.94702">
        <ele>170.2998</ele>
        <time>2026-05-14T10:09:37+02:00</time>
      </trkpt>
      <trkpt lat="46.67329" lon="4.947">
        <ele>170.2998</ele>
        <time>2026-05-14T10:09:38+02:00</time>
      </trkpt>
      <trkpt lat="46.67334" lon="4.94697">
        <ele>170.2002</ele>
        <time>2026-05-14T10:09:39+02:00</time>
      </trkpt>
      <trkpt lat="46.6734" lon="4.94696">
        <ele>170.2002</ele>
        <time>2026-05-14T10:09:40+02:00</time>
      </trkpt>
      <trkpt lat="46.67346" lon="4.94695">
        <ele>170.2002</ele>
        <time>2026-05-14T10:09:41+02:00</time>
      </trkpt>
      <trkpt lat="46.67352" lon="4.94694">
        <ele>170.2002</ele>
        <time>2026-05-14T10:09:42+02:00</time>
      </trkpt>
      <trkpt lat="46.67358" lon="4.94693">
        <ele>170.10059</ele>
        <time>2026-05-14T10:09:43+02:00</time>
      </trkpt>
      <trkpt lat="46.67363" lon="4.94692">
        <ele>170.2002</ele>
        <time>2026-05-14T10:09:44+02:00</time>
      </trkpt>
      <trkpt lat="46.67369" lon="4.94692">
        <ele>170.2002</ele>
        <time>2026-05-14T10:09:45+02:00</time>
      </trkpt>
      <trkpt lat="46.67375" lon="4.94691">
        <ele>170.2002</ele>
        <time>2026-05-14T10:09:46+02:00</time>
      </trkpt>
      <trkpt lat="46.67381" lon="4.9469">
        <ele>170.10059</ele>
        <time>2026-05-14T10:09:47+02:00</time>
      </trkpt>
      <trkpt lat="46.67386" lon="4.94688">
        <ele>170.10059</ele>
        <time>2026-05-14T10:09:48+02:00</time>
      </trkpt>
      <trkpt lat="46.67392" lon="4.94687">
        <ele>170.10059</ele>
        <time>2026-05-14T10:09:49+02:00</time>
      </trkpt>
      <trkpt lat="46.67398" lon="4.94685">
        <ele>170.10059</ele>
        <time>2026-05-14T10:09:50+02:00</time>
      </trkpt>
      <trkpt lat="46.67404" lon="4.94684">
        <ele>170</ele>
        <time>2026-05-14T10:09:51+02:00</time>
      </trkpt>
      <trkpt lat="46.67409" lon="4.94683">
        <ele>169.90039</ele>
        <time>2026-05-14T10:09:52+02:00</time>
      </trkpt>
      <trkpt lat="46.67415" lon="4.94681">
        <ele>169.90039</ele>
        <time>2026-05-14T10:09:53+02:00</time>
      </trkpt>
      <trkpt lat="46.6742" lon="4.94679">
        <ele>169.90039</ele>
        <time>2026-05-14T10:09:54+02:00</time>
      </trkpt>
      <trkpt lat="46.67426" lon="4.94677">
        <ele>169.90039</ele>
        <time>2026-05-14T10:09:55+02:00</time>
      </trkpt>
      <trkpt lat="46.67429" lon="4.94677">
        <ele>169.90039</ele>
        <time>2026-05-14T10:09:56+02:00</time>
      </trkpt>
      <trkpt lat="46.67437" lon="4.94674">
        <ele>170.10059</ele>
        <time>2026-05-14T10:09:57+02:00</time>
      </trkpt>
      <trkpt lat="46.67443" lon="4.94672">
        <ele>170.10059</ele>
        <time>2026-05-14T10:09:58+02:00</time>
      </trkpt>
      <trkpt lat="46.67449" lon="4.94671">
        <ele>170.10059</ele>
        <time>2026-05-14T10:09:59+02:00</time>
      </trkpt>
      <trkpt lat="46.67455" lon="4.94669">
        <ele>170.10059</ele>
        <time>2026-05-14T10:10:00+02:00</time>
      </trkpt>
      <trkpt lat="46.6746" lon="4.94667">
        <ele>170.2998</ele>
        <time>2026-05-14T10:10:01+02:00</time>
      </trkpt>
      <trkpt lat="46.67466" lon="4.94665">
        <ele>170.2998</ele>
        <time>2026-05-14T10:10:02+02:00</time>
      </trkpt>
      <trkpt lat="46.67471" lon="4.94663">
        <ele>170.2998</ele>
        <time>2026-05-14T10:10:03+02:00</time>
      </trkpt>
      <trkpt lat="46.67477" lon="4.94661">
        <ele>170.2998</ele>
        <time>2026-05-14T10:10:04+02:00</time>
      </trkpt>
      <trkpt lat="46.67483" lon="4.94659">
        <ele>170.2002</ele>
        <time>2026-05-14T10:10:05+02:00</time>
      </trkpt>
      <trkpt lat="46.67489" lon="4.94658">
        <ele>170.2998</ele>
        <time>2026-05-14T10:10:06+02:00</time>
      </trkpt>
      <trkpt lat="46.67495" lon="4.94656">
        <ele>170.2998</ele>
        <time>2026-05-14T10:10:07+02:00</time>
      </trkpt>
      <trkpt lat="46.675" lon="4.94654">
        <ele>170.2998</ele>
        <time>2026-05-14T10:10:08+02:00</time>
      </trkpt>
      <trkpt lat="46.67506" lon="4.94653">
        <ele>170.2998</ele>
        <time>2026-05-14T10:10:09+02:00</time>
      </trkpt>
      <trkpt lat="46.67511" lon="4.94652">
        <ele>170.2998</ele>
        <time>2026-05-14T10:10:10+02:00</time>
      </trkpt>
      <trkpt lat="46.67517" lon="4.9465">
        <ele>170.40039</ele>
        <time>2026-05-14T10:10:11+02:00</time>
      </trkpt>
      <trkpt lat="46.67522" lon="4.94649">
        <ele>170.5</ele>
        <time>2026-05-14T10:10:12+02:00</time>
      </trkpt>
      <trkpt lat="46.67528" lon="4.94647">
        <ele>170.5</ele>
        <time>2026-05-14T10:10:13+02:00</time>
      </trkpt>
      <trkpt lat="46.67534" lon="4.94645">
        <ele>170.5</ele>
        <time>2026-05-14T10:10:14+02:00</time>
      </trkpt>
      <trkpt lat="46.6754" lon="4.94643">
        <ele>170.60059</ele>
        <time>2026-05-14T10:10:15+02:00</time>
      </trkpt>
      <trkpt lat="46.67545" lon="4.94641">
        <ele>170.90039</ele>
        <time>2026-05-14T10:10:16+02:00</time>
      </trkpt>
      <trkpt lat="46.67552" lon="4.9464">
        <ele>170.7998</ele>
        <time>2026-05-14T10:10:17+02:00</time>
      </trkpt>
      <trkpt lat="46.67557" lon="4.94638">
        <ele>170.7002</ele>
        <time>2026-05-14T10:10:18+02:00</time>
      </trkpt>
      <trkpt lat="46.67563" lon="4.94636">
        <ele>170.60059</ele>
        <time>2026-05-14T10:10:19+02:00</time>
      </trkpt>
      <trkpt lat="46.67569" lon="4.94635">
        <ele>170.5</ele>
        <time>2026-05-14T10:10:20+02:00</time>
      </trkpt>
      <trkpt lat="46.67574" lon="4.94633">
        <ele>170.5</ele>
        <time>2026-05-14T10:10:21+02:00</time>
      </trkpt>
      <trkpt lat="46.6758" lon="4.94632">
        <ele>170.2998</ele>
        <time>2026-05-14T10:10:22+02:00</time>
      </trkpt>
      <trkpt lat="46.67586" lon="4.9463">
        <ele>170.2002</ele>
        <time>2026-05-14T10:10:23+02:00</time>
      </trkpt>
      <trkpt lat="46.67591" lon="4.94628">
        <ele>170.10059</ele>
        <time>2026-05-14T10:10:24+02:00</time>
      </trkpt>
      <trkpt lat="46.67597" lon="4.94627">
        <ele>170.10059</ele>
        <time>2026-05-14T10:10:25+02:00</time>
      </trkpt>
      <trkpt lat="46.67602" lon="4.94625">
        <ele>170.2998</ele>
        <time>2026-05-14T10:10:26+02:00</time>
      </trkpt>
      <trkpt lat="46.67608" lon="4.94623">
        <ele>170.2998</ele>
        <time>2026-05-14T10:10:27+02:00</time>
      </trkpt>
      <trkpt lat="46.67614" lon="4.94622">
        <ele>170.2998</ele>
        <time>2026-05-14T10:10:28+02:00</time>
      </trkpt>
      <trkpt lat="46.67619" lon="4.9462">
        <ele>170.2998</ele>
        <time>2026-05-14T10:10:29+02:00</time>
      </trkpt>
      <trkpt lat="46.67637" lon="4.94615">
        <ele>170.2998</ele>
        <time>2026-05-14T10:10:30+02:00</time>
      </trkpt>
      <trkpt lat="46.67642" lon="4.94614">
        <ele>170.2998</ele>
        <time>2026-05-14T10:10:31+02:00</time>
      </trkpt>
      <trkpt lat="46.67648" lon="4.94612">
        <ele>170.2998</ele>
        <time>2026-05-14T10:10:32+02:00</time>
      </trkpt>
      <trkpt lat="46.67654" lon="4.94611">
        <ele>170.2998</ele>
        <time>2026-05-14T10:10:33+02:00</time>
      </trkpt>
      <trkpt lat="46.6766" lon="4.9461">
        <ele>170.2998</ele>
        <time>2026-05-14T10:10:34+02:00</time>
      </trkpt>
      <trkpt lat="46.67666" lon="4.94609">
        <ele>170.2998</ele>
        <time>2026-05-14T10:10:35+02:00</time>
      </trkpt>
      <trkpt lat="46.67671" lon="4.94608">
        <ele>170.2998</ele>
        <time>2026-05-14T10:10:36+02:00</time>
      </trkpt>
      <trkpt lat="46.67677" lon="4.94606">
        <ele>170.2002</ele>
        <time>2026-05-14T10:10:37+02:00</time>
      </trkpt>
      <trkpt lat="46.67683" lon="4.94605">
        <ele>170.2002</ele>
        <time>2026-05-14T10:10:38+02:00</time>
      </trkpt>
      <trkpt lat="46.67689" lon="4.94603">
        <ele>170.2002</ele>
        <time>2026-05-14T10:10:39+02:00</time>
      </trkpt>
      <trkpt lat="46.67695" lon="4.94602">
        <ele>170.2998</ele>
        <time>2026-05-14T10:10:40+02:00</time>
      </trkpt>
      <trkpt lat="46.67701" lon="4.946">
        <ele>170.2998</ele>
        <time>2026-05-14T10:10:41+02:00</time>
      </trkpt>
      <trkpt lat="46.67706" lon="4.94598">
        <ele>170.2002</ele>
        <time>2026-05-14T10:10:42+02:00</time>
      </trkpt>
      <trkpt lat="46.67713" lon="4.94596">
        <ele>170.2002</ele>
        <time>2026-05-14T10:10:43+02:00</time>
      </trkpt>
      <trkpt lat="46.67718" lon="4.94594">
        <ele>170.2002</ele>
        <time>2026-05-14T10:10:44+02:00</time>
      </trkpt>
      <trkpt lat="46.67724" lon="4.94592">
        <ele>170.2002</ele>
        <time>2026-05-14T10:10:45+02:00</time>
      </trkpt>
      <trkpt lat="46.6773" lon="4.9459">
        <ele>170.2002</ele>
        <time>2026-05-14T10:10:46+02:00</time>
      </trkpt>
      <trkpt lat="46.67736" lon="4.94587">
        <ele>170.2002</ele>
        <time>2026-05-14T10:10:47+02:00</time>
      </trkpt>
      <trkpt lat="46.67742" lon="4.94585">
        <ele>170.2002</ele>
        <time>2026-05-14T10:10:48+02:00</time>
      </trkpt>
      <trkpt lat="46.67748" lon="4.94583">
        <ele>170.2002</ele>
        <time>2026-05-14T10:10:49+02:00</time>
      </trkpt>
      <trkpt lat="46.67754" lon="4.9458">
        <ele>170.2002</ele>
        <time>2026-05-14T10:10:50+02:00</time>
      </trkpt>
      <trkpt lat="46.67759" lon="4.94578">
        <ele>170.2002</ele>
        <time>2026-05-14T10:10:51+02:00</time>
      </trkpt>
      <trkpt lat="46.67765" lon="4.94576">
        <ele>170.2002</ele>
        <time>2026-05-14T10:10:52+02:00</time>
      </trkpt>
      <trkpt lat="46.67771" lon="4.94574">
        <ele>170.2002</ele>
        <time>2026-05-14T10:10:53+02:00</time>
      </trkpt>
      <trkpt lat="46.67777" lon="4.94572">
        <ele>170.2998</ele>
        <time>2026-05-14T10:10:54+02:00</time>
      </trkpt>
      <trkpt lat="46.67783" lon="4.94569">
        <ele>170.2998</ele>
        <time>2026-05-14T10:10:55+02:00</time>
      </trkpt>
      <trkpt lat="46.67788" lon="4.94567">
        <ele>170.2998</ele>
        <time>2026-05-14T10:10:56+02:00</time>
      </trkpt>
      <trkpt lat="46.67794" lon="4.94565">
        <ele>170.2998</ele>
        <time>2026-05-14T10:10:57+02:00</time>
      </trkpt>
      <trkpt lat="46.678" lon="4.94563">
        <ele>170.40039</ele>
        <time>2026-05-14T10:10:58+02:00</time>
      </trkpt>
      <trkpt lat="46.67806" lon="4.94561">
        <ele>170.2998</ele>
        <time>2026-05-14T10:10:59+02:00</time>
      </trkpt>
      <trkpt lat="46.67811" lon="4.94558">
        <ele>170.2998</ele>
        <time>2026-05-14T10:11:00+02:00</time>
      </trkpt>
      <trkpt lat="46.67817" lon="4.94557">
        <ele>170.2998</ele>
        <time>2026-05-14T10:11:01+02:00</time>
      </trkpt>
      <trkpt lat="46.67823" lon="4.94555">
        <ele>170.40039</ele>
        <time>2026-05-14T10:11:02+02:00</time>
      </trkpt>
      <trkpt lat="46.67829" lon="4.94552">
        <ele>170.2998</ele>
        <time>2026-05-14T10:11:03+02:00</time>
      </trkpt>
      <trkpt lat="46.67835" lon="4.9455">
        <ele>170.2002</ele>
        <time>2026-05-14T10:11:04+02:00</time>
      </trkpt>
      <trkpt lat="46.6784" lon="4.94548">
        <ele>170.2002</ele>
        <time>2026-05-14T10:11:05+02:00</time>
      </trkpt>
      <trkpt lat="46.67846" lon="4.94546">
        <ele>170.2002</ele>
        <time>2026-05-14T10:11:06+02:00</time>
      </trkpt>
      <trkpt lat="46.67852" lon="4.94543">
        <ele>170.2002</ele>
        <time>2026-05-14T10:11:07+02:00</time>
      </trkpt>
      <trkpt lat="46.67857" lon="4.94541">
        <ele>170.2002</ele>
        <time>2026-05-14T10:11:08+02:00</time>
      </trkpt>
      <trkpt lat="46.67863" lon="4.94538">
        <ele>170.2002</ele>
        <time>2026-05-14T10:11:09+02:00</time>
      </trkpt>
      <trkpt lat="46.67869" lon="4.94535">
        <ele>170.2998</ele>
        <time>2026-05-14T10:11:10+02:00</time>
      </trkpt>
      <trkpt lat="46.67874" lon="4.94531">
        <ele>170.2998</ele>
        <time>2026-05-14T10:11:11+02:00</time>
      </trkpt>
      <trkpt lat="46.6788" lon="4.94528">
        <ele>170.2998</ele>
        <time>2026-05-14T10:11:12+02:00</time>
      </trkpt>
      <trkpt lat="46.67885" lon="4.94524">
        <ele>170.2998</ele>
        <time>2026-05-14T10:11:13+02:00</time>
      </trkpt>
      <trkpt lat="46.67891" lon="4.94521">
        <ele>170.2002</ele>
        <time>2026-05-14T10:11:14+02:00</time>
      </trkpt>
      <trkpt lat="46.67896" lon="4.94518">
        <ele>170.2002</ele>
        <time>2026-05-14T10:11:15+02:00</time>
      </trkpt>
      <trkpt lat="46.67902" lon="4.94514">
        <ele>170.2002</ele>
        <time>2026-05-14T10:11:16+02:00</time>
      </trkpt>
      <trkpt lat="46.67907" lon="4.94511">
        <ele>170.2002</ele>
        <time>2026-05-14T10:11:17+02:00</time>
      </trkpt>
      <trkpt lat="46.67913" lon="4.94508">
        <ele>170.2002</ele>
        <time>2026-05-14T10:11:18+02:00</time>
      </trkpt>
      <trkpt lat="46.67919" lon="4.94505">
        <ele>170.2998</ele>
        <time>2026-05-14T10:11:19+02:00</time>
      </trkpt>
      <trkpt lat="46.67925" lon="4.94503">
        <ele>170.2998</ele>
        <time>2026-05-14T10:11:20+02:00</time>
      </trkpt>
      <trkpt lat="46.67931" lon="4.945">
        <ele>170.2998</ele>
        <time>2026-05-14T10:11:21+02:00</time>
      </trkpt>
      <trkpt lat="46.67936" lon="4.94497">
        <ele>170.2002</ele>
        <time>2026-05-14T10:11:22+02:00</time>
      </trkpt>
      <trkpt lat="46.67942" lon="4.94494">
        <ele>170.2998</ele>
        <time>2026-05-14T10:11:23+02:00</time>
      </trkpt>
      <trkpt lat="46.67948" lon="4.94491">
        <ele>170.2998</ele>
        <time>2026-05-14T10:11:24+02:00</time>
      </trkpt>
      <trkpt lat="46.67954" lon="4.94488">
        <ele>170.2998</ele>
        <time>2026-05-14T10:11:25+02:00</time>
      </trkpt>
      <trkpt lat="46.6796" lon="4.94485">
        <ele>170.2998</ele>
        <time>2026-05-14T10:11:26+02:00</time>
      </trkpt>
      <trkpt lat="46.67966" lon="4.94482">
        <ele>170.2998</ele>
        <time>2026-05-14T10:11:27+02:00</time>
      </trkpt>
      <trkpt lat="46.67972" lon="4.94479">
        <ele>170.40039</ele>
        <time>2026-05-14T10:11:28+02:00</time>
      </trkpt>
      <trkpt lat="46.67978" lon="4.94476">
        <ele>170.2998</ele>
        <time>2026-05-14T10:11:29+02:00</time>
      </trkpt>
      <trkpt lat="46.67984" lon="4.94473">
        <ele>170.2998</ele>
        <time>2026-05-14T10:11:30+02:00</time>
      </trkpt>
      <trkpt lat="46.6799" lon="4.9447">
        <ele>170.2002</ele>
        <time>2026-05-14T10:11:31+02:00</time>
      </trkpt>
      <trkpt lat="46.67996" lon="4.94467">
        <ele>170.2002</ele>
        <time>2026-05-14T10:11:32+02:00</time>
      </trkpt>
      <trkpt lat="46.68002" lon="4.94464">
        <ele>170.10059</ele>
        <time>2026-05-14T10:11:33+02:00</time>
      </trkpt>
      <trkpt lat="46.68009" lon="4.94462">
        <ele>170.10059</ele>
        <time>2026-05-14T10:11:34+02:00</time>
      </trkpt>
      <trkpt lat="46.68014" lon="4.94459">
        <ele>170.10059</ele>
        <time>2026-05-14T10:11:35+02:00</time>
      </trkpt>
      <trkpt lat="46.6802" lon="4.94456">
        <ele>170.10059</ele>
        <time>2026-05-14T10:11:36+02:00</time>
      </trkpt>
      <trkpt lat="46.68026" lon="4.94454">
        <ele>170.10059</ele>
        <time>2026-05-14T10:11:37+02:00</time>
      </trkpt>
      <trkpt lat="46.68032" lon="4.94451">
        <ele>170.2998</ele>
        <time>2026-05-14T10:11:38+02:00</time>
      </trkpt>
      <trkpt lat="46.68038" lon="4.94449">
        <ele>170.2998</ele>
        <time>2026-05-14T10:11:39+02:00</time>
      </trkpt>
      <trkpt lat="46.68043" lon="4.94447">
        <ele>170.2998</ele>
        <time>2026-05-14T10:11:40+02:00</time>
      </trkpt>
      <trkpt lat="46.68049" lon="4.94444">
        <ele>170.2002</ele>
        <time>2026-05-14T10:11:41+02:00</time>
      </trkpt>
      <trkpt lat="46.68055" lon="4.94442">
        <ele>170.2002</ele>
        <time>2026-05-14T10:11:42+02:00</time>
      </trkpt>
      <trkpt lat="46.68061" lon="4.94439">
        <ele>170.2002</ele>
        <time>2026-05-14T10:11:43+02:00</time>
      </trkpt>
      <trkpt lat="46.68067" lon="4.94437">
        <ele>170.2998</ele>
        <time>2026-05-14T10:11:44+02:00</time>
      </trkpt>
      <trkpt lat="46.68073" lon="4.94434">
        <ele>170.10059</ele>
        <time>2026-05-14T10:11:45+02:00</time>
      </trkpt>
      <trkpt lat="46.6808" lon="4.94432">
        <ele>170.2002</ele>
        <time>2026-05-14T10:11:46+02:00</time>
      </trkpt>
      <trkpt lat="46.68085" lon="4.9443">
        <ele>170.2002</ele>
        <time>2026-05-14T10:11:47+02:00</time>
      </trkpt>
      <trkpt lat="46.68091" lon="4.94428">
        <ele>170.2002</ele>
        <time>2026-05-14T10:11:48+02:00</time>
      </trkpt>
      <trkpt lat="46.68097" lon="4.94426">
        <ele>170.2002</ele>
        <time>2026-05-14T10:11:49+02:00</time>
      </trkpt>
      <trkpt lat="46.681" lon="4.94425">
        <ele>170.2002</ele>
        <time>2026-05-14T10:11:50+02:00</time>
      </trkpt>
      <trkpt lat="46.6811" lon="4.94422">
        <ele>170.2002</ele>
        <time>2026-05-14T10:11:51+02:00</time>
      </trkpt>
      <trkpt lat="46.68116" lon="4.9442">
        <ele>170.2002</ele>
        <time>2026-05-14T10:11:52+02:00</time>
      </trkpt>
      <trkpt lat="46.68122" lon="4.94418">
        <ele>170.2998</ele>
        <time>2026-05-14T10:11:53+02:00</time>
      </trkpt>
      <trkpt lat="46.68128" lon="4.94416">
        <ele>170.2998</ele>
        <time>2026-05-14T10:11:54+02:00</time>
      </trkpt>
      <trkpt lat="46.68133" lon="4.94414">
        <ele>170.2002</ele>
        <time>2026-05-14T10:11:55+02:00</time>
      </trkpt>
      <trkpt lat="46.68139" lon="4.94412">
        <ele>170.10059</ele>
        <time>2026-05-14T10:11:56+02:00</time>
      </trkpt>
      <trkpt lat="46.68145" lon="4.9441">
        <ele>170.2998</ele>
        <time>2026-05-14T10:11:57+02:00</time>
      </trkpt>
      <trkpt lat="46.68151" lon="4.94408">
        <ele>170.2002</ele>
        <time>2026-05-14T10:11:58+02:00</time>
      </trkpt>
      <trkpt lat="46.68157" lon="4.94406">
        <ele>170.2002</ele>
        <time>2026-05-14T10:11:59+02:00</time>
      </trkpt>
      <trkpt lat="46.68163" lon="4.94404">
        <ele>170.2002</ele>
        <time>2026-05-14T10:12:00+02:00</time>
      </trkpt>
      <trkpt lat="46.6817" lon="4.94402">
        <ele>170.2002</ele>
        <time>2026-05-14T10:12:01+02:00</time>
      </trkpt>
      <trkpt lat="46.68176" lon="4.94399">
        <ele>170.5</ele>
        <time>2026-05-14T10:12:02+02:00</time>
      </trkpt>
      <trkpt lat="46.68182" lon="4.94397">
        <ele>170.40039</ele>
        <time>2026-05-14T10:12:03+02:00</time>
      </trkpt>
      <trkpt lat="46.68188" lon="4.94394">
        <ele>170.40039</ele>
        <time>2026-05-14T10:12:04+02:00</time>
      </trkpt>
      <trkpt lat="46.68195" lon="4.94392">
        <ele>170.7998</ele>
        <time>2026-05-14T10:12:05+02:00</time>
      </trkpt>
      <trkpt lat="46.68201" lon="4.9439">
        <ele>170.40039</ele>
        <time>2026-05-14T10:12:06+02:00</time>
      </trkpt>
      <trkpt lat="46.68207" lon="4.94387">
        <ele>170.2998</ele>
        <time>2026-05-14T10:12:07+02:00</time>
      </trkpt>
      <trkpt lat="46.68213" lon="4.94385">
        <ele>170.2998</ele>
        <time>2026-05-14T10:12:08+02:00</time>
      </trkpt>
      <trkpt lat="46.6822" lon="4.94383">
        <ele>170.2002</ele>
        <time>2026-05-14T10:12:09+02:00</time>
      </trkpt>
      <trkpt lat="46.68226" lon="4.94381">
        <ele>170.10059</ele>
        <time>2026-05-14T10:12:10+02:00</time>
      </trkpt>
      <trkpt lat="46.68232" lon="4.9438">
        <ele>170.10059</ele>
        <time>2026-05-14T10:12:11+02:00</time>
      </trkpt>
      <trkpt lat="46.68238" lon="4.94378">
        <ele>170.10059</ele>
        <time>2026-05-14T10:12:12+02:00</time>
      </trkpt>
      <trkpt lat="46.68244" lon="4.94376">
        <ele>170.10059</ele>
        <time>2026-05-14T10:12:13+02:00</time>
      </trkpt>
      <trkpt lat="46.6825" lon="4.94374">
        <ele>170.10059</ele>
        <time>2026-05-14T10:12:14+02:00</time>
      </trkpt>
      <trkpt lat="46.68256" lon="4.94372">
        <ele>170</ele>
        <time>2026-05-14T10:12:15+02:00</time>
      </trkpt>
      <trkpt lat="46.68262" lon="4.9437">
        <ele>170</ele>
        <time>2026-05-14T10:12:16+02:00</time>
      </trkpt>
      <trkpt lat="46.68269" lon="4.94368">
        <ele>169.90039</ele>
        <time>2026-05-14T10:12:17+02:00</time>
      </trkpt>
      <trkpt lat="46.68275" lon="4.94366">
        <ele>170.10059</ele>
        <time>2026-05-14T10:12:18+02:00</time>
      </trkpt>
      <trkpt lat="46.68281" lon="4.94363">
        <ele>170.10059</ele>
        <time>2026-05-14T10:12:19+02:00</time>
      </trkpt>
      <trkpt lat="46.68287" lon="4.94361">
        <ele>170.10059</ele>
        <time>2026-05-14T10:12:20+02:00</time>
      </trkpt>
      <trkpt lat="46.68294" lon="4.94359">
        <ele>170.2002</ele>
        <time>2026-05-14T10:12:21+02:00</time>
      </trkpt>
      <trkpt lat="46.683" lon="4.94357">
        <ele>170.2998</ele>
        <time>2026-05-14T10:12:22+02:00</time>
      </trkpt>
      <trkpt lat="46.68307" lon="4.94355">
        <ele>170.2998</ele>
        <time>2026-05-14T10:12:23+02:00</time>
      </trkpt>
      <trkpt lat="46.68313" lon="4.94353">
        <ele>170.2998</ele>
        <time>2026-05-14T10:12:24+02:00</time>
      </trkpt>
      <trkpt lat="46.6832" lon="4.94351">
        <ele>170.2998</ele>
        <time>2026-05-14T10:12:25+02:00</time>
      </trkpt>
      <trkpt lat="46.68323" lon="4.9435">
        <ele>170.2998</ele>
        <time>2026-05-14T10:12:26+02:00</time>
      </trkpt>
      <trkpt lat="46.68333" lon="4.94347">
        <ele>170.2998</ele>
        <time>2026-05-14T10:12:27+02:00</time>
      </trkpt>
      <trkpt lat="46.68339" lon="4.94345">
        <ele>170.2002</ele>
        <time>2026-05-14T10:12:28+02:00</time>
      </trkpt>
      <trkpt lat="46.68346" lon="4.94343">
        <ele>170.2002</ele>
        <time>2026-05-14T10:12:29+02:00</time>
      </trkpt>
      <trkpt lat="46.68352" lon="4.94342">
        <ele>170.2002</ele>
        <time>2026-05-14T10:12:30+02:00</time>
      </trkpt>
      <trkpt lat="46.68359" lon="4.94341">
        <ele>170.2002</ele>
        <time>2026-05-14T10:12:31+02:00</time>
      </trkpt>
      <trkpt lat="46.68365" lon="4.9434">
        <ele>170.2002</ele>
        <time>2026-05-14T10:12:32+02:00</time>
      </trkpt>
      <trkpt lat="46.68372" lon="4.94338">
        <ele>170.2002</ele>
        <time>2026-05-14T10:12:33+02:00</time>
      </trkpt>
      <trkpt lat="46.68378" lon="4.94337">
        <ele>170.2002</ele>
        <time>2026-05-14T10:12:34+02:00</time>
      </trkpt>
      <trkpt lat="46.68384" lon="4.94336">
        <ele>170.2002</ele>
        <time>2026-05-14T10:12:35+02:00</time>
      </trkpt>
      <trkpt lat="46.6839" lon="4.94335">
        <ele>170.2002</ele>
        <time>2026-05-14T10:12:36+02:00</time>
      </trkpt>
      <trkpt lat="46.68397" lon="4.94334">
        <ele>170.2002</ele>
        <time>2026-05-14T10:12:37+02:00</time>
      </trkpt>
      <trkpt lat="46.68403" lon="4.94333">
        <ele>170.10059</ele>
        <time>2026-05-14T10:12:38+02:00</time>
      </trkpt>
      <trkpt lat="46.68409" lon="4.94331">
        <ele>170.10059</ele>
        <time>2026-05-14T10:12:39+02:00</time>
      </trkpt>
      <trkpt lat="46.68416" lon="4.9433">
        <ele>170.10059</ele>
        <time>2026-05-14T10:12:40+02:00</time>
      </trkpt>
      <trkpt lat="46.68422" lon="4.94329">
        <ele>170.10059</ele>
        <time>2026-05-14T10:12:41+02:00</time>
      </trkpt>
      <trkpt lat="46.68429" lon="4.94328">
        <ele>170.10059</ele>
        <time>2026-05-14T10:12:42+02:00</time>
      </trkpt>
      <trkpt lat="46.68435" lon="4.94327">
        <ele>170.10059</ele>
        <time>2026-05-14T10:12:43+02:00</time>
      </trkpt>
      <trkpt lat="46.68442" lon="4.94326">
        <ele>170.10059</ele>
        <time>2026-05-14T10:12:44+02:00</time>
      </trkpt>
      <trkpt lat="46.68448" lon="4.94325">
        <ele>170.10059</ele>
        <time>2026-05-14T10:12:45+02:00</time>
      </trkpt>
      <trkpt lat="46.68454" lon="4.94324">
        <ele>170.10059</ele>
        <time>2026-05-14T10:12:46+02:00</time>
      </trkpt>
      <trkpt lat="46.6846" lon="4.94323">
        <ele>170.10059</ele>
        <time>2026-05-14T10:12:47+02:00</time>
      </trkpt>
      <trkpt lat="46.68466" lon="4.94321">
        <ele>170</ele>
        <time>2026-05-14T10:12:48+02:00</time>
      </trkpt>
      <trkpt lat="46.68472" lon="4.9432">
        <ele>170</ele>
        <time>2026-05-14T10:12:49+02:00</time>
      </trkpt>
      <trkpt lat="46.68479" lon="4.94319">
        <ele>170.10059</ele>
        <time>2026-05-14T10:12:50+02:00</time>
      </trkpt>
      <trkpt lat="46.68485" lon="4.94317">
        <ele>170.10059</ele>
        <time>2026-05-14T10:12:51+02:00</time>
      </trkpt>
      <trkpt lat="46.68491" lon="4.94316">
        <ele>170.2002</ele>
        <time>2026-05-14T10:12:52+02:00</time>
      </trkpt>
      <trkpt lat="46.68497" lon="4.94314">
        <ele>170.2002</ele>
        <time>2026-05-14T10:12:53+02:00</time>
      </trkpt>
      <trkpt lat="46.68503" lon="4.94312">
        <ele>170.2002</ele>
        <time>2026-05-14T10:12:54+02:00</time>
      </trkpt>
      <trkpt lat="46.68509" lon="4.94311">
        <ele>170.2002</ele>
        <time>2026-05-14T10:12:55+02:00</time>
      </trkpt>
      <trkpt lat="46.68516" lon="4.94309">
        <ele>170.2002</ele>
        <time>2026-05-14T10:12:56+02:00</time>
      </trkpt>
      <trkpt lat="46.68522" lon="4.94307">
        <ele>170.2998</ele>
        <time>2026-05-14T10:12:57+02:00</time>
      </trkpt>
      <trkpt lat="46.68528" lon="4.94305">
        <ele>170.2998</ele>
        <time>2026-05-14T10:12:58+02:00</time>
      </trkpt>
      <trkpt lat="46.68535" lon="4.94303">
        <ele>170.2998</ele>
        <time>2026-05-14T10:12:59+02:00</time>
      </trkpt>
      <trkpt lat="46.68541" lon="4.94301">
        <ele>170.2998</ele>
        <time>2026-05-14T10:13:00+02:00</time>
      </trkpt>
      <trkpt lat="46.68547" lon="4.94299">
        <ele>170.2998</ele>
        <time>2026-05-14T10:13:01+02:00</time>
      </trkpt>
      <trkpt lat="46.68554" lon="4.94297">
        <ele>170.2998</ele>
        <time>2026-05-14T10:13:02+02:00</time>
      </trkpt>
      <trkpt lat="46.6856" lon="4.94295">
        <ele>170.2998</ele>
        <time>2026-05-14T10:13:03+02:00</time>
      </trkpt>
      <trkpt lat="46.68566" lon="4.94293">
        <ele>170.2998</ele>
        <time>2026-05-14T10:13:04+02:00</time>
      </trkpt>
      <trkpt lat="46.68572" lon="4.94292">
        <ele>170.2998</ele>
        <time>2026-05-14T10:13:05+02:00</time>
      </trkpt>
      <trkpt lat="46.68579" lon="4.94291">
        <ele>170.2998</ele>
        <time>2026-05-14T10:13:06+02:00</time>
      </trkpt>
      <trkpt lat="46.68585" lon="4.94289">
        <ele>170.2998</ele>
        <time>2026-05-14T10:13:07+02:00</time>
      </trkpt>
      <trkpt lat="46.68591" lon="4.94287">
        <ele>170.2998</ele>
        <time>2026-05-14T10:13:08+02:00</time>
      </trkpt>
      <trkpt lat="46.68598" lon="4.94285">
        <ele>170.2998</ele>
        <time>2026-05-14T10:13:09+02:00</time>
      </trkpt>
      <trkpt lat="46.68604" lon="4.94284">
        <ele>170.2998</ele>
        <time>2026-05-14T10:13:10+02:00</time>
      </trkpt>
      <trkpt lat="46.6861" lon="4.94283">
        <ele>170.2998</ele>
        <time>2026-05-14T10:13:11+02:00</time>
      </trkpt>
      <trkpt lat="46.68616" lon="4.94282">
        <ele>170.2998</ele>
        <time>2026-05-14T10:13:12+02:00</time>
      </trkpt>
      <trkpt lat="46.68622" lon="4.9428">
        <ele>170.2998</ele>
        <time>2026-05-14T10:13:13+02:00</time>
      </trkpt>
      <trkpt lat="46.68629" lon="4.94278">
        <ele>170.2998</ele>
        <time>2026-05-14T10:13:14+02:00</time>
      </trkpt>
      <trkpt lat="46.68635" lon="4.94276">
        <ele>170.2998</ele>
        <time>2026-05-14T10:13:15+02:00</time>
      </trkpt>
      <trkpt lat="46.68641" lon="4.94274">
        <ele>170.2998</ele>
        <time>2026-05-14T10:13:16+02:00</time>
      </trkpt>
      <trkpt lat="46.68648" lon="4.94273">
        <ele>170.2998</ele>
        <time>2026-05-14T10:13:17+02:00</time>
      </trkpt>
      <trkpt lat="46.68654" lon="4.94271">
        <ele>170.2998</ele>
        <time>2026-05-14T10:13:18+02:00</time>
      </trkpt>
      <trkpt lat="46.6866" lon="4.94269">
        <ele>170.2002</ele>
        <time>2026-05-14T10:13:19+02:00</time>
      </trkpt>
      <trkpt lat="46.68667" lon="4.94267">
        <ele>170.2002</ele>
        <time>2026-05-14T10:13:20+02:00</time>
      </trkpt>
      <trkpt lat="46.68673" lon="4.94266">
        <ele>170.2002</ele>
        <time>2026-05-14T10:13:21+02:00</time>
      </trkpt>
      <trkpt lat="46.68679" lon="4.94265">
        <ele>170.2002</ele>
        <time>2026-05-14T10:13:22+02:00</time>
      </trkpt>
      <trkpt lat="46.68685" lon="4.94264">
        <ele>170.2002</ele>
        <time>2026-05-14T10:13:23+02:00</time>
      </trkpt>
      <trkpt lat="46.68692" lon="4.94262">
        <ele>170.2002</ele>
        <time>2026-05-14T10:13:24+02:00</time>
      </trkpt>
      <trkpt lat="46.68698" lon="4.94261">
        <ele>170.10059</ele>
        <time>2026-05-14T10:13:25+02:00</time>
      </trkpt>
      <trkpt lat="46.68705" lon="4.94261">
        <ele>170.10059</ele>
        <time>2026-05-14T10:13:26+02:00</time>
      </trkpt>
      <trkpt lat="46.68707" lon="4.9426">
        <ele>170.10059</ele>
        <time>2026-05-14T10:13:27+02:00</time>
      </trkpt>
      <trkpt lat="46.68717" lon="4.9426">
        <ele>170.10059</ele>
        <time>2026-05-14T10:13:28+02:00</time>
      </trkpt>
      <trkpt lat="46.68723" lon="4.94259">
        <ele>170</ele>
        <time>2026-05-14T10:13:29+02:00</time>
      </trkpt>
      <trkpt lat="46.68729" lon="4.94259">
        <ele>170</ele>
        <time>2026-05-14T10:13:30+02:00</time>
      </trkpt>
      <trkpt lat="46.68735" lon="4.94259">
        <ele>169.90039</ele>
        <time>2026-05-14T10:13:31+02:00</time>
      </trkpt>
      <trkpt lat="46.68741" lon="4.94259">
        <ele>169.7998</ele>
        <time>2026-05-14T10:13:32+02:00</time>
      </trkpt>
      <trkpt lat="46.68747" lon="4.94259">
        <ele>169.7998</ele>
        <time>2026-05-14T10:13:33+02:00</time>
      </trkpt>
      <trkpt lat="46.68752" lon="4.94258">
        <ele>169.90039</ele>
        <time>2026-05-14T10:13:34+02:00</time>
      </trkpt>
      <trkpt lat="46.68758" lon="4.94257">
        <ele>170</ele>
        <time>2026-05-14T10:13:35+02:00</time>
      </trkpt>
      <trkpt lat="46.68765" lon="4.94256">
        <ele>170.10059</ele>
        <time>2026-05-14T10:13:36+02:00</time>
      </trkpt>
      <trkpt lat="46.68771" lon="4.94255">
        <ele>170.2002</ele>
        <time>2026-05-14T10:13:37+02:00</time>
      </trkpt>
      <trkpt lat="46.68777" lon="4.94254">
        <ele>170.2002</ele>
        <time>2026-05-14T10:13:38+02:00</time>
      </trkpt>
      <trkpt lat="46.68783" lon="4.94253">
        <ele>170.2002</ele>
        <time>2026-05-14T10:13:39+02:00</time>
      </trkpt>
      <trkpt lat="46.68789" lon="4.94252">
        <ele>170.2002</ele>
        <time>2026-05-14T10:13:40+02:00</time>
      </trkpt>
      <trkpt lat="46.68795" lon="4.94251">
        <ele>170.2002</ele>
        <time>2026-05-14T10:13:41+02:00</time>
      </trkpt>
      <trkpt lat="46.68801" lon="4.94251">
        <ele>170.2002</ele>
        <time>2026-05-14T10:13:42+02:00</time>
      </trkpt>
      <trkpt lat="46.68808" lon="4.9425">
        <ele>170.2002</ele>
        <time>2026-05-14T10:13:43+02:00</time>
      </trkpt>
      <trkpt lat="46.68814" lon="4.94249">
        <ele>170.2002</ele>
        <time>2026-05-14T10:13:44+02:00</time>
      </trkpt>
      <trkpt lat="46.6882" lon="4.94248">
        <ele>170.10059</ele>
        <time>2026-05-14T10:13:45+02:00</time>
      </trkpt>
      <trkpt lat="46.68826" lon="4.94247">
        <ele>170.2998</ele>
        <time>2026-05-14T10:13:46+02:00</time>
      </trkpt>
      <trkpt lat="46.68829" lon="4.94247">
        <ele>170.2998</ele>
        <time>2026-05-14T10:13:47+02:00</time>
      </trkpt>
      <trkpt lat="46.68838" lon="4.94245">
        <ele>170.2002</ele>
        <time>2026-05-14T10:13:48+02:00</time>
      </trkpt>
      <trkpt lat="46.68844" lon="4.94244">
        <ele>170.2002</ele>
        <time>2026-05-14T10:13:49+02:00</time>
      </trkpt>
      <trkpt lat="46.6885" lon="4.94243">
        <ele>170.2002</ele>
        <time>2026-05-14T10:13:50+02:00</time>
      </trkpt>
      <trkpt lat="46.68856" lon="4.94242">
        <ele>170.10059</ele>
        <time>2026-05-14T10:13:51+02:00</time>
      </trkpt>
      <trkpt lat="46.68863" lon="4.94241">
        <ele>170.10059</ele>
        <time>2026-05-14T10:13:52+02:00</time>
      </trkpt>
      <trkpt lat="46.68869" lon="4.9424">
        <ele>170.10059</ele>
        <time>2026-05-14T10:13:53+02:00</time>
      </trkpt>
      <trkpt lat="46.68875" lon="4.94238">
        <ele>170.40039</ele>
        <time>2026-05-14T10:13:54+02:00</time>
      </trkpt>
      <trkpt lat="46.68881" lon="4.94237">
        <ele>170.2998</ele>
        <time>2026-05-14T10:13:55+02:00</time>
      </trkpt>
      <trkpt lat="46.68887" lon="4.94236">
        <ele>170.2998</ele>
        <time>2026-05-14T10:13:56+02:00</time>
      </trkpt>
      <trkpt lat="46.68894" lon="4.94235">
        <ele>170.2998</ele>
        <time>2026-05-14T10:13:57+02:00</time>
      </trkpt>
      <trkpt lat="46.68896" lon="4.94234">
        <ele>170.2998</ele>
        <time>2026-05-14T10:13:58+02:00</time>
      </trkpt>
      <trkpt lat="46.68906" lon="4.94233">
        <ele>170.2998</ele>
        <time>2026-05-14T10:13:59+02:00</time>
      </trkpt>
      <trkpt lat="46.68912" lon="4.94232">
        <ele>170.2998</ele>
        <time>2026-05-14T10:14:00+02:00</time>
      </trkpt>
      <trkpt lat="46.68918" lon="4.94231">
        <ele>170.2002</ele>
        <time>2026-05-14T10:14:01+02:00</time>
      </trkpt>
      <trkpt lat="46.68924" lon="4.9423">
        <ele>170.7998</ele>
        <time>2026-05-14T10:14:02+02:00</time>
      </trkpt>
      <trkpt lat="46.68931" lon="4.94229">
        <ele>170.60059</ele>
        <time>2026-05-14T10:14:03+02:00</time>
      </trkpt>
      <trkpt lat="46.68937" lon="4.94228">
        <ele>170.2998</ele>
        <time>2026-05-14T10:14:04+02:00</time>
      </trkpt>
      <trkpt lat="46.68943" lon="4.94227">
        <ele>170.2002</ele>
        <time>2026-05-14T10:14:05+02:00</time>
      </trkpt>
      <trkpt lat="46.68949" lon="4.94227">
        <ele>170.2998</ele>
        <time>2026-05-14T10:14:06+02:00</time>
      </trkpt>
      <trkpt lat="46.68956" lon="4.94226">
        <ele>170.2998</ele>
        <time>2026-05-14T10:14:07+02:00</time>
      </trkpt>
      <trkpt lat="46.68962" lon="4.94225">
        <ele>170.2998</ele>
        <time>2026-05-14T10:14:08+02:00</time>
      </trkpt>
      <trkpt lat="46.68968" lon="4.94225">
        <ele>170.2998</ele>
        <time>2026-05-14T10:14:09+02:00</time>
      </trkpt>
      <trkpt lat="46.68974" lon="4.94225">
        <ele>170.2998</ele>
        <time>2026-05-14T10:14:10+02:00</time>
      </trkpt>
      <trkpt lat="46.68981" lon="4.94225">
        <ele>170.2998</ele>
        <time>2026-05-14T10:14:11+02:00</time>
      </trkpt>
      <trkpt lat="46.68987" lon="4.94224">
        <ele>170.2998</ele>
        <time>2026-05-14T10:14:12+02:00</time>
      </trkpt>
      <trkpt lat="46.68994" lon="4.94224">
        <ele>170.2998</ele>
        <time>2026-05-14T10:14:13+02:00</time>
      </trkpt>
      <trkpt lat="46.69" lon="4.94224">
        <ele>170.2998</ele>
        <time>2026-05-14T10:14:14+02:00</time>
      </trkpt>
      <trkpt lat="46.69006" lon="4.94223">
        <ele>170.2998</ele>
        <time>2026-05-14T10:14:15+02:00</time>
      </trkpt>
      <trkpt lat="46.69012" lon="4.94223">
        <ele>170.2998</ele>
        <time>2026-05-14T10:14:16+02:00</time>
      </trkpt>
      <trkpt lat="46.69019" lon="4.94222">
        <ele>170.2998</ele>
        <time>2026-05-14T10:14:17+02:00</time>
      </trkpt>
      <trkpt lat="46.69025" lon="4.94222">
        <ele>170.2998</ele>
        <time>2026-05-14T10:14:18+02:00</time>
      </trkpt>
      <trkpt lat="46.69031" lon="4.94221">
        <ele>170.2998</ele>
        <time>2026-05-14T10:14:19+02:00</time>
      </trkpt>
      <trkpt lat="46.69038" lon="4.9422">
        <ele>170.2998</ele>
        <time>2026-05-14T10:14:20+02:00</time>
      </trkpt>
      <trkpt lat="46.69044" lon="4.94219">
        <ele>170.2998</ele>
        <time>2026-05-14T10:14:21+02:00</time>
      </trkpt>
      <trkpt lat="46.6905" lon="4.94218">
        <ele>170.2998</ele>
        <time>2026-05-14T10:14:22+02:00</time>
      </trkpt>
      <trkpt lat="46.69056" lon="4.94217">
        <ele>170.2998</ele>
        <time>2026-05-14T10:14:23+02:00</time>
      </trkpt>
      <trkpt lat="46.69063" lon="4.94216">
        <ele>170.2998</ele>
        <time>2026-05-14T10:14:24+02:00</time>
      </trkpt>
      <trkpt lat="46.69069" lon="4.94216">
        <ele>170.2998</ele>
        <time>2026-05-14T10:14:25+02:00</time>
      </trkpt>
      <trkpt lat="46.69075" lon="4.94215">
        <ele>170.2998</ele>
        <time>2026-05-14T10:14:26+02:00</time>
      </trkpt>
      <trkpt lat="46.69081" lon="4.94214">
        <ele>170.2998</ele>
        <time>2026-05-14T10:14:27+02:00</time>
      </trkpt>
      <trkpt lat="46.69087" lon="4.94213">
        <ele>170.2998</ele>
        <time>2026-05-14T10:14:28+02:00</time>
      </trkpt>
      <trkpt lat="46.69093" lon="4.94213">
        <ele>170.2998</ele>
        <time>2026-05-14T10:14:29+02:00</time>
      </trkpt>
      <trkpt lat="46.69097" lon="4.94213">
        <ele>170.2998</ele>
        <time>2026-05-14T10:14:30+02:00</time>
      </trkpt>
      <trkpt lat="46.69106" lon="4.94212">
        <ele>170.2998</ele>
        <time>2026-05-14T10:14:31+02:00</time>
      </trkpt>
      <trkpt lat="46.69112" lon="4.94211">
        <ele>170.2998</ele>
        <time>2026-05-14T10:14:32+02:00</time>
      </trkpt>
      <trkpt lat="46.69118" lon="4.9421">
        <ele>170.2998</ele>
        <time>2026-05-14T10:14:33+02:00</time>
      </trkpt>
      <trkpt lat="46.69124" lon="4.9421">
        <ele>170.2998</ele>
        <time>2026-05-14T10:14:34+02:00</time>
      </trkpt>
      <trkpt lat="46.6913" lon="4.94209">
        <ele>170.2998</ele>
        <time>2026-05-14T10:14:35+02:00</time>
      </trkpt>
      <trkpt lat="46.69137" lon="4.94208">
        <ele>170.2998</ele>
        <time>2026-05-14T10:14:36+02:00</time>
      </trkpt>
      <trkpt lat="46.69143" lon="4.94208">
        <ele>170.2998</ele>
        <time>2026-05-14T10:14:37+02:00</time>
      </trkpt>
      <trkpt lat="46.69149" lon="4.94207">
        <ele>170.2998</ele>
        <time>2026-05-14T10:14:38+02:00</time>
      </trkpt>
      <trkpt lat="46.69156" lon="4.94207">
        <ele>170.2998</ele>
        <time>2026-05-14T10:14:39+02:00</time>
      </trkpt>
      <trkpt lat="46.69162" lon="4.94206">
        <ele>170.2998</ele>
        <time>2026-05-14T10:14:40+02:00</time>
      </trkpt>
      <trkpt lat="46.69168" lon="4.94205">
        <ele>170.2998</ele>
        <time>2026-05-14T10:14:41+02:00</time>
      </trkpt>
      <trkpt lat="46.69174" lon="4.94204">
        <ele>170.2998</ele>
        <time>2026-05-14T10:14:42+02:00</time>
      </trkpt>
      <trkpt lat="46.6918" lon="4.94203">
        <ele>170.2998</ele>
        <time>2026-05-14T10:14:43+02:00</time>
      </trkpt>
      <trkpt lat="46.69187" lon="4.94202">
        <ele>170.2998</ele>
        <time>2026-05-14T10:14:44+02:00</time>
      </trkpt>
      <trkpt lat="46.69193" lon="4.942">
        <ele>170.2998</ele>
        <time>2026-05-14T10:14:45+02:00</time>
      </trkpt>
      <trkpt lat="46.69199" lon="4.94199">
        <ele>170.2998</ele>
        <time>2026-05-14T10:14:46+02:00</time>
      </trkpt>
      <trkpt lat="46.69204" lon="4.94197">
        <ele>170.2998</ele>
        <time>2026-05-14T10:14:47+02:00</time>
      </trkpt>
      <trkpt lat="46.69211" lon="4.94195">
        <ele>170.2998</ele>
        <time>2026-05-14T10:14:48+02:00</time>
      </trkpt>
      <trkpt lat="46.69216" lon="4.94193">
        <ele>170.2998</ele>
        <time>2026-05-14T10:14:49+02:00</time>
      </trkpt>
      <trkpt lat="46.69221" lon="4.94192">
        <ele>170.2998</ele>
        <time>2026-05-14T10:14:50+02:00</time>
      </trkpt>
      <trkpt lat="46.69227" lon="4.9419">
        <ele>170.2998</ele>
        <time>2026-05-14T10:14:51+02:00</time>
      </trkpt>
      <trkpt lat="46.69233" lon="4.94188">
        <ele>170.2998</ele>
        <time>2026-05-14T10:14:52+02:00</time>
      </trkpt>
      <trkpt lat="46.69238" lon="4.94187">
        <ele>170.2998</ele>
        <time>2026-05-14T10:14:53+02:00</time>
      </trkpt>
      <trkpt lat="46.69244" lon="4.94185">
        <ele>170.2998</ele>
        <time>2026-05-14T10:14:54+02:00</time>
      </trkpt>
      <trkpt lat="46.6925" lon="4.94184">
        <ele>170.2998</ele>
        <time>2026-05-14T10:14:55+02:00</time>
      </trkpt>
      <trkpt lat="46.69256" lon="4.94182">
        <ele>170.2002</ele>
        <time>2026-05-14T10:14:56+02:00</time>
      </trkpt>
      <trkpt lat="46.69259" lon="4.94182">
        <ele>170.2002</ele>
        <time>2026-05-14T10:14:57+02:00</time>
      </trkpt>
      <trkpt lat="46.69267" lon="4.94179">
        <ele>170.2002</ele>
        <time>2026-05-14T10:14:58+02:00</time>
      </trkpt>
      <trkpt lat="46.69272" lon="4.94178">
        <ele>170.2002</ele>
        <time>2026-05-14T10:14:59+02:00</time>
      </trkpt>
      <trkpt lat="46.69278" lon="4.94176">
        <ele>170.2002</ele>
        <time>2026-05-14T10:15:00+02:00</time>
      </trkpt>
      <trkpt lat="46.69283" lon="4.94174">
        <ele>170.2002</ele>
        <time>2026-05-14T10:15:01+02:00</time>
      </trkpt>
      <trkpt lat="46.69289" lon="4.94172">
        <ele>170.2002</ele>
        <time>2026-05-14T10:15:02+02:00</time>
      </trkpt>
      <trkpt lat="46.69294" lon="4.9417">
        <ele>170.2998</ele>
        <time>2026-05-14T10:15:03+02:00</time>
      </trkpt>
      <trkpt lat="46.69299" lon="4.94168">
        <ele>170.2998</ele>
        <time>2026-05-14T10:15:04+02:00</time>
      </trkpt>
      <trkpt lat="46.69304" lon="4.94165">
        <ele>170.2002</ele>
        <time>2026-05-14T10:15:05+02:00</time>
      </trkpt>
      <trkpt lat="46.6931" lon="4.94163">
        <ele>170.2998</ele>
        <time>2026-05-14T10:15:06+02:00</time>
      </trkpt>
      <trkpt lat="46.69315" lon="4.94161">
        <ele>170.2998</ele>
        <time>2026-05-14T10:15:07+02:00</time>
      </trkpt>
      <trkpt lat="46.6932" lon="4.94158">
        <ele>170.2998</ele>
        <time>2026-05-14T10:15:08+02:00</time>
      </trkpt>
      <trkpt lat="46.69326" lon="4.94157">
        <ele>170.2998</ele>
        <time>2026-05-14T10:15:09+02:00</time>
      </trkpt>
      <trkpt lat="46.69331" lon="4.94156">
        <ele>170.2998</ele>
        <time>2026-05-14T10:15:10+02:00</time>
      </trkpt>
      <trkpt lat="46.69337" lon="4.94155">
        <ele>170.2998</ele>
        <time>2026-05-14T10:15:11+02:00</time>
      </trkpt>
      <trkpt lat="46.69342" lon="4.94153">
        <ele>170.2998</ele>
        <time>2026-05-14T10:15:12+02:00</time>
      </trkpt>
      <trkpt lat="46.69348" lon="4.94151">
        <ele>170.2998</ele>
        <time>2026-05-14T10:15:13+02:00</time>
      </trkpt>
      <trkpt lat="46.6935" lon="4.9415">
        <ele>170.2998</ele>
        <time>2026-05-14T10:15:14+02:00</time>
      </trkpt>
      <trkpt lat="46.69358" lon="4.94147">
        <ele>170.2998</ele>
        <time>2026-05-14T10:15:15+02:00</time>
      </trkpt>
      <trkpt lat="46.69363" lon="4.94145">
        <ele>170.2998</ele>
        <time>2026-05-14T10:15:16+02:00</time>
      </trkpt>
      <trkpt lat="46.69368" lon="4.94143">
        <ele>170.5</ele>
        <time>2026-05-14T10:15:17+02:00</time>
      </trkpt>
      <trkpt lat="46.69374" lon="4.94141">
        <ele>170.5</ele>
        <time>2026-05-14T10:15:18+02:00</time>
      </trkpt>
      <trkpt lat="46.69379" lon="4.94139">
        <ele>170.5</ele>
        <time>2026-05-14T10:15:19+02:00</time>
      </trkpt>
      <trkpt lat="46.69385" lon="4.94137">
        <ele>170.5</ele>
        <time>2026-05-14T10:15:20+02:00</time>
      </trkpt>
      <trkpt lat="46.6939" lon="4.94135">
        <ele>170.60059</ele>
        <time>2026-05-14T10:15:21+02:00</time>
      </trkpt>
      <trkpt lat="46.69395" lon="4.94134">
        <ele>170.60059</ele>
        <time>2026-05-14T10:15:22+02:00</time>
      </trkpt>
      <trkpt lat="46.694" lon="4.94132">
        <ele>170.5</ele>
        <time>2026-05-14T10:15:23+02:00</time>
      </trkpt>
      <trkpt lat="46.69405" lon="4.9413">
        <ele>170.40039</ele>
        <time>2026-05-14T10:15:24+02:00</time>
      </trkpt>
      <trkpt lat="46.69411" lon="4.94129">
        <ele>170.2998</ele>
        <time>2026-05-14T10:15:25+02:00</time>
      </trkpt>
      <trkpt lat="46.69416" lon="4.94127">
        <ele>170.2998</ele>
        <time>2026-05-14T10:15:26+02:00</time>
      </trkpt>
      <trkpt lat="46.69422" lon="4.94125">
        <ele>170.2998</ele>
        <time>2026-05-14T10:15:27+02:00</time>
      </trkpt>
      <trkpt lat="46.69427" lon="4.94123">
        <ele>170.2998</ele>
        <time>2026-05-14T10:15:28+02:00</time>
      </trkpt>
      <trkpt lat="46.69432" lon="4.94121">
        <ele>170.2998</ele>
        <time>2026-05-14T10:15:29+02:00</time>
      </trkpt>
      <trkpt lat="46.69437" lon="4.94118">
        <ele>170.2998</ele>
        <time>2026-05-14T10:15:30+02:00</time>
      </trkpt>
      <trkpt lat="46.69442" lon="4.94116">
        <ele>170.2998</ele>
        <time>2026-05-14T10:15:31+02:00</time>
      </trkpt>
      <trkpt lat="46.69448" lon="4.94113">
        <ele>170.2998</ele>
        <time>2026-05-14T10:15:32+02:00</time>
      </trkpt>
      <trkpt lat="46.69453" lon="4.9411">
        <ele>170.40039</ele>
        <time>2026-05-14T10:15:33+02:00</time>
      </trkpt>
      <trkpt lat="46.69458" lon="4.94107">
        <ele>170.40039</ele>
        <time>2026-05-14T10:15:34+02:00</time>
      </trkpt>
      <trkpt lat="46.69463" lon="4.94104">
        <ele>170.40039</ele>
        <time>2026-05-14T10:15:35+02:00</time>
      </trkpt>
      <trkpt lat="46.69468" lon="4.94102">
        <ele>170.2998</ele>
        <time>2026-05-14T10:15:36+02:00</time>
      </trkpt>
      <trkpt lat="46.69473" lon="4.94099">
        <ele>170.2998</ele>
        <time>2026-05-14T10:15:37+02:00</time>
      </trkpt>
      <trkpt lat="46.69479" lon="4.94096">
        <ele>170.2002</ele>
        <time>2026-05-14T10:15:38+02:00</time>
      </trkpt>
      <trkpt lat="46.69481" lon="4.94094">
        <ele>170.2002</ele>
        <time>2026-05-14T10:15:39+02:00</time>
      </trkpt>
      <trkpt lat="46.69489" lon="4.94089">
        <ele>170.2002</ele>
        <time>2026-05-14T10:15:40+02:00</time>
      </trkpt>
      <trkpt lat="46.69494" lon="4.94086">
        <ele>170.2002</ele>
        <time>2026-05-14T10:15:41+02:00</time>
      </trkpt>
      <trkpt lat="46.69499" lon="4.94083">
        <ele>170.2998</ele>
        <time>2026-05-14T10:15:42+02:00</time>
      </trkpt>
      <trkpt lat="46.69504" lon="4.94079">
        <ele>170.2998</ele>
        <time>2026-05-14T10:15:43+02:00</time>
      </trkpt>
      <trkpt lat="46.69509" lon="4.94076">
        <ele>170.2998</ele>
        <time>2026-05-14T10:15:44+02:00</time>
      </trkpt>
      <trkpt lat="46.69515" lon="4.94072">
        <ele>170.2998</ele>
        <time>2026-05-14T10:15:45+02:00</time>
      </trkpt>
      <trkpt lat="46.69519" lon="4.94068">
        <ele>170.2998</ele>
        <time>2026-05-14T10:15:46+02:00</time>
      </trkpt>
      <trkpt lat="46.69524" lon="4.94064">
        <ele>170.2998</ele>
        <time>2026-05-14T10:15:47+02:00</time>
      </trkpt>
      <trkpt lat="46.69529" lon="4.9406">
        <ele>170.2998</ele>
        <time>2026-05-14T10:15:48+02:00</time>
      </trkpt>
      <trkpt lat="46.69533" lon="4.94056">
        <ele>170.2998</ele>
        <time>2026-05-14T10:15:49+02:00</time>
      </trkpt>
      <trkpt lat="46.69538" lon="4.94052">
        <ele>170.2998</ele>
        <time>2026-05-14T10:15:50+02:00</time>
      </trkpt>
      <trkpt lat="46.69543" lon="4.94048">
        <ele>170.40039</ele>
        <time>2026-05-14T10:15:51+02:00</time>
      </trkpt>
      <trkpt lat="46.69547" lon="4.94044">
        <ele>170.2998</ele>
        <time>2026-05-14T10:15:52+02:00</time>
      </trkpt>
      <trkpt lat="46.69552" lon="4.9404">
        <ele>170.2998</ele>
        <time>2026-05-14T10:15:53+02:00</time>
      </trkpt>
      <trkpt lat="46.69557" lon="4.94036">
        <ele>170.2998</ele>
        <time>2026-05-14T10:15:54+02:00</time>
      </trkpt>
      <trkpt lat="46.69561" lon="4.94032">
        <ele>170.40039</ele>
        <time>2026-05-14T10:15:55+02:00</time>
      </trkpt>
      <trkpt lat="46.69566" lon="4.94028">
        <ele>170.40039</ele>
        <time>2026-05-14T10:15:56+02:00</time>
      </trkpt>
      <trkpt lat="46.6957" lon="4.94024">
        <ele>170.7002</ele>
        <time>2026-05-14T10:15:57+02:00</time>
      </trkpt>
      <trkpt lat="46.69574" lon="4.9402">
        <ele>170.7002</ele>
        <time>2026-05-14T10:15:58+02:00</time>
      </trkpt>
      <trkpt lat="46.69579" lon="4.94016">
        <ele>170.7002</ele>
        <time>2026-05-14T10:15:59+02:00</time>
      </trkpt>
      <trkpt lat="46.69583" lon="4.94012">
        <ele>171</ele>
        <time>2026-05-14T10:16:00+02:00</time>
      </trkpt>
      <trkpt lat="46.69588" lon="4.94007">
        <ele>171.2998</ele>
        <time>2026-05-14T10:16:01+02:00</time>
      </trkpt>
      <trkpt lat="46.69592" lon="4.94003">
        <ele>171.10059</ele>
        <time>2026-05-14T10:16:02+02:00</time>
      </trkpt>
      <trkpt lat="46.69597" lon="4.93999">
        <ele>170.7998</ele>
        <time>2026-05-14T10:16:03+02:00</time>
      </trkpt>
      <trkpt lat="46.69602" lon="4.93994">
        <ele>171</ele>
        <time>2026-05-14T10:16:04+02:00</time>
      </trkpt>
      <trkpt lat="46.69606" lon="4.9399">
        <ele>170.60059</ele>
        <time>2026-05-14T10:16:05+02:00</time>
      </trkpt>
      <trkpt lat="46.69611" lon="4.93986">
        <ele>170.7002</ele>
        <time>2026-05-14T10:16:06+02:00</time>
      </trkpt>
      <trkpt lat="46.69615" lon="4.93981">
        <ele>170.7998</ele>
        <time>2026-05-14T10:16:07+02:00</time>
      </trkpt>
      <trkpt lat="46.6962" lon="4.93977">
        <ele>170.60059</ele>
        <time>2026-05-14T10:16:08+02:00</time>
      </trkpt>
      <trkpt lat="46.69625" lon="4.93973">
        <ele>170.60059</ele>
        <time>2026-05-14T10:16:09+02:00</time>
      </trkpt>
      <trkpt lat="46.69629" lon="4.93969">
        <ele>170.5</ele>
        <time>2026-05-14T10:16:10+02:00</time>
      </trkpt>
      <trkpt lat="46.69634" lon="4.93965">
        <ele>170.40039</ele>
        <time>2026-05-14T10:16:11+02:00</time>
      </trkpt>
      <trkpt lat="46.69639" lon="4.9396">
        <ele>170.5</ele>
        <time>2026-05-14T10:16:12+02:00</time>
      </trkpt>
      <trkpt lat="46.69644" lon="4.93956">
        <ele>170.40039</ele>
        <time>2026-05-14T10:16:13+02:00</time>
      </trkpt>
      <trkpt lat="46.69648" lon="4.93951">
        <ele>170.7002</ele>
        <time>2026-05-14T10:16:14+02:00</time>
      </trkpt>
      <trkpt lat="46.69653" lon="4.93947">
        <ele>170.7998</ele>
        <time>2026-05-14T10:16:15+02:00</time>
      </trkpt>
      <trkpt lat="46.69658" lon="4.93942">
        <ele>170.7002</ele>
        <time>2026-05-14T10:16:16+02:00</time>
      </trkpt>
      <trkpt lat="46.69662" lon="4.93938">
        <ele>170.60059</ele>
        <time>2026-05-14T10:16:17+02:00</time>
      </trkpt>
      <trkpt lat="46.69667" lon="4.93933">
        <ele>170.40039</ele>
        <time>2026-05-14T10:16:18+02:00</time>
      </trkpt>
      <trkpt lat="46.69672" lon="4.93929">
        <ele>170.5</ele>
        <time>2026-05-14T10:16:19+02:00</time>
      </trkpt>
      <trkpt lat="46.69677" lon="4.93925">
        <ele>170.40039</ele>
        <time>2026-05-14T10:16:20+02:00</time>
      </trkpt>
      <trkpt lat="46.69682" lon="4.93921">
        <ele>170.40039</ele>
        <time>2026-05-14T10:16:21+02:00</time>
      </trkpt>
      <trkpt lat="46.69686" lon="4.93917">
        <ele>170.2998</ele>
        <time>2026-05-14T10:16:22+02:00</time>
      </trkpt>
      <trkpt lat="46.69691" lon="4.93913">
        <ele>170.2998</ele>
        <time>2026-05-14T10:16:23+02:00</time>
      </trkpt>
      <trkpt lat="46.69696" lon="4.93909">
        <ele>170.2998</ele>
        <time>2026-05-14T10:16:24+02:00</time>
      </trkpt>
      <trkpt lat="46.697" lon="4.93904">
        <ele>170.2998</ele>
        <time>2026-05-14T10:16:25+02:00</time>
      </trkpt>
      <trkpt lat="46.69703" lon="4.93902">
        <ele>170.2998</ele>
        <time>2026-05-14T10:16:26+02:00</time>
      </trkpt>
      <trkpt lat="46.6971" lon="4.93896">
        <ele>170.2998</ele>
        <time>2026-05-14T10:16:27+02:00</time>
      </trkpt>
      <trkpt lat="46.69715" lon="4.93891">
        <ele>170.2998</ele>
        <time>2026-05-14T10:16:28+02:00</time>
      </trkpt>
      <trkpt lat="46.6972" lon="4.93888">
        <ele>170.2998</ele>
        <time>2026-05-14T10:16:29+02:00</time>
      </trkpt>
      <trkpt lat="46.69725" lon="4.93884">
        <ele>170.40039</ele>
        <time>2026-05-14T10:16:30+02:00</time>
      </trkpt>
      <trkpt lat="46.69729" lon="4.9388">
        <ele>170.40039</ele>
        <time>2026-05-14T10:16:31+02:00</time>
      </trkpt>
      <trkpt lat="46.69734" lon="4.93875">
        <ele>170.40039</ele>
        <time>2026-05-14T10:16:32+02:00</time>
      </trkpt>
      <trkpt lat="46.69739" lon="4.93871">
        <ele>170.40039</ele>
        <time>2026-05-14T10:16:33+02:00</time>
      </trkpt>
      <trkpt lat="46.69743" lon="4.93867">
        <ele>170.5</ele>
        <time>2026-05-14T10:16:34+02:00</time>
      </trkpt>
      <trkpt lat="46.69747" lon="4.93862">
        <ele>170.40039</ele>
        <time>2026-05-14T10:16:35+02:00</time>
      </trkpt>
      <trkpt lat="46.69751" lon="4.93858">
        <ele>170.40039</ele>
        <time>2026-05-14T10:16:36+02:00</time>
      </trkpt>
      <trkpt lat="46.69753" lon="4.93855">
        <ele>170.40039</ele>
        <time>2026-05-14T10:16:37+02:00</time>
      </trkpt>
      <trkpt lat="46.6976" lon="4.93848">
        <ele>170.60059</ele>
        <time>2026-05-14T10:16:38+02:00</time>
      </trkpt>
      <trkpt lat="46.69764" lon="4.93843">
        <ele>170.7998</ele>
        <time>2026-05-14T10:16:39+02:00</time>
      </trkpt>
      <trkpt lat="46.69769" lon="4.93839">
        <ele>170.60059</ele>
        <time>2026-05-14T10:16:40+02:00</time>
      </trkpt>
      <trkpt lat="46.69774" lon="4.93834">
        <ele>170.7002</ele>
        <time>2026-05-14T10:16:41+02:00</time>
      </trkpt>
      <trkpt lat="46.69779" lon="4.9383">
        <ele>170.5</ele>
        <time>2026-05-14T10:16:42+02:00</time>
      </trkpt>
      <trkpt lat="46.69784" lon="4.93826">
        <ele>170.7002</ele>
        <time>2026-05-14T10:16:43+02:00</time>
      </trkpt>
      <trkpt lat="46.69788" lon="4.93822">
        <ele>170.60059</ele>
        <time>2026-05-14T10:16:44+02:00</time>
      </trkpt>
      <trkpt lat="46.69793" lon="4.93817">
        <ele>170.60059</ele>
        <time>2026-05-14T10:16:45+02:00</time>
      </trkpt>
      <trkpt lat="46.69799" lon="4.93813">
        <ele>170.5</ele>
        <time>2026-05-14T10:16:46+02:00</time>
      </trkpt>
      <trkpt lat="46.69804" lon="4.93808">
        <ele>170.7002</ele>
        <time>2026-05-14T10:16:47+02:00</time>
      </trkpt>
      <trkpt lat="46.69809" lon="4.93804">
        <ele>170.5</ele>
        <time>2026-05-14T10:16:48+02:00</time>
      </trkpt>
      <trkpt lat="46.69814" lon="4.93799">
        <ele>170.7998</ele>
        <time>2026-05-14T10:16:49+02:00</time>
      </trkpt>
      <trkpt lat="46.69819" lon="4.93794">
        <ele>170.5</ele>
        <time>2026-05-14T10:16:50+02:00</time>
      </trkpt>
      <trkpt lat="46.69824" lon="4.93789">
        <ele>170.40039</ele>
        <time>2026-05-14T10:16:51+02:00</time>
      </trkpt>
      <trkpt lat="46.69828" lon="4.93783">
        <ele>170.40039</ele>
        <time>2026-05-14T10:16:52+02:00</time>
      </trkpt>
      <trkpt lat="46.69833" lon="4.93779">
        <ele>170.2998</ele>
        <time>2026-05-14T10:16:53+02:00</time>
      </trkpt>
      <trkpt lat="46.69838" lon="4.93773">
        <ele>170.60059</ele>
        <time>2026-05-14T10:16:54+02:00</time>
      </trkpt>
      <trkpt lat="46.69843" lon="4.93768">
        <ele>170.60059</ele>
        <time>2026-05-14T10:16:55+02:00</time>
      </trkpt>
      <trkpt lat="46.69848" lon="4.93762">
        <ele>170.7002</ele>
        <time>2026-05-14T10:16:56+02:00</time>
      </trkpt>
      <trkpt lat="46.6985" lon="4.9376">
        <ele>170.60059</ele>
        <time>2026-05-14T10:16:57+02:00</time>
      </trkpt>
      <trkpt lat="46.69858" lon="4.93752">
        <ele>170.60059</ele>
        <time>2026-05-14T10:16:58+02:00</time>
      </trkpt>
      <trkpt lat="46.69862" lon="4.93746">
        <ele>170.5</ele>
        <time>2026-05-14T10:16:59+02:00</time>
      </trkpt>
      <trkpt lat="46.69867" lon="4.93741">
        <ele>170.7002</ele>
        <time>2026-05-14T10:17:00+02:00</time>
      </trkpt>
      <trkpt lat="46.69872" lon="4.93736">
        <ele>170.5</ele>
        <time>2026-05-14T10:17:01+02:00</time>
      </trkpt>
      <trkpt lat="46.69877" lon="4.93732">
        <ele>170.60059</ele>
        <time>2026-05-14T10:17:02+02:00</time>
      </trkpt>
      <trkpt lat="46.69882" lon="4.93728">
        <ele>170.40039</ele>
        <time>2026-05-14T10:17:03+02:00</time>
      </trkpt>
      <trkpt lat="46.69887" lon="4.93723">
        <ele>170.2998</ele>
        <time>2026-05-14T10:17:04+02:00</time>
      </trkpt>
      <trkpt lat="46.69891" lon="4.93719">
        <ele>170.2002</ele>
        <time>2026-05-14T10:17:05+02:00</time>
      </trkpt>
      <trkpt lat="46.69896" lon="4.93714">
        <ele>170.2998</ele>
        <time>2026-05-14T10:17:06+02:00</time>
      </trkpt>
      <trkpt lat="46.69901" lon="4.93711">
        <ele>170.2998</ele>
        <time>2026-05-14T10:17:07+02:00</time>
      </trkpt>
      <trkpt lat="46.69906" lon="4.93708">
        <ele>170.2998</ele>
        <time>2026-05-14T10:17:08+02:00</time>
      </trkpt>
      <trkpt lat="46.69911" lon="4.93704">
        <ele>170.40039</ele>
        <time>2026-05-14T10:17:09+02:00</time>
      </trkpt>
      <trkpt lat="46.69914" lon="4.93702">
        <ele>170.40039</ele>
        <time>2026-05-14T10:17:10+02:00</time>
      </trkpt>
      <trkpt lat="46.69922" lon="4.93698">
        <ele>170.40039</ele>
        <time>2026-05-14T10:17:11+02:00</time>
      </trkpt>
      <trkpt lat="46.69926" lon="4.93695">
        <ele>170.2998</ele>
        <time>2026-05-14T10:17:12+02:00</time>
      </trkpt>
      <trkpt lat="46.69931" lon="4.93692">
        <ele>170.2998</ele>
        <time>2026-05-14T10:17:13+02:00</time>
      </trkpt>
      <trkpt lat="46.69935" lon="4.9369">
        <ele>170.2002</ele>
        <time>2026-05-14T10:17:14+02:00</time>
      </trkpt>
      <trkpt lat="46.6994" lon="4.93688">
        <ele>170.2002</ele>
        <time>2026-05-14T10:17:15+02:00</time>
      </trkpt>
      <trkpt lat="46.69944" lon="4.93685">
        <ele>170.10059</ele>
        <time>2026-05-14T10:17:16+02:00</time>
      </trkpt>
      <trkpt lat="46.69949" lon="4.93683">
        <ele>170.10059</ele>
        <time>2026-05-14T10:17:17+02:00</time>
      </trkpt>
      <trkpt lat="46.69954" lon="4.9368">
        <ele>170.2998</ele>
        <time>2026-05-14T10:17:18+02:00</time>
      </trkpt>
      <trkpt lat="46.69958" lon="4.93677">
        <ele>170.2998</ele>
        <time>2026-05-14T10:17:19+02:00</time>
      </trkpt>
      <trkpt lat="46.69963" lon="4.93675">
        <ele>170.2998</ele>
        <time>2026-05-14T10:17:20+02:00</time>
      </trkpt>
      <trkpt lat="46.69968" lon="4.93672">
        <ele>170.5</ele>
        <time>2026-05-14T10:17:21+02:00</time>
      </trkpt>
      <trkpt lat="46.69973" lon="4.9367">
        <ele>170.40039</ele>
        <time>2026-05-14T10:17:22+02:00</time>
      </trkpt>
      <trkpt lat="46.69978" lon="4.93667">
        <ele>170.40039</ele>
        <time>2026-05-14T10:17:23+02:00</time>
      </trkpt>
      <trkpt lat="46.69983" lon="4.93665">
        <ele>170.40039</ele>
        <time>2026-05-14T10:17:24+02:00</time>
      </trkpt>
      <trkpt lat="46.69988" lon="4.93664">
        <ele>170.40039</ele>
        <time>2026-05-14T10:17:25+02:00</time>
      </trkpt>
      <trkpt lat="46.69991" lon="4.93663">
        <ele>170.5</ele>
        <time>2026-05-14T10:17:26+02:00</time>
      </trkpt>
      <trkpt lat="46.69999" lon="4.93661">
        <ele>170.5</ele>
        <time>2026-05-14T10:17:27+02:00</time>
      </trkpt>
      <trkpt lat="46.70004" lon="4.9366">
        <ele>170.5</ele>
        <time>2026-05-14T10:17:28+02:00</time>
      </trkpt>
      <trkpt lat="46.7001" lon="4.93659">
        <ele>170.5</ele>
        <time>2026-05-14T10:17:29+02:00</time>
      </trkpt>
      <trkpt lat="46.70015" lon="4.93657">
        <ele>170.40039</ele>
        <time>2026-05-14T10:17:30+02:00</time>
      </trkpt>
      <trkpt lat="46.7002" lon="4.93656">
        <ele>170.40039</ele>
        <time>2026-05-14T10:17:31+02:00</time>
      </trkpt>
      <trkpt lat="46.70026" lon="4.93655">
        <ele>170.7002</ele>
        <time>2026-05-14T10:17:32+02:00</time>
      </trkpt>
      <trkpt lat="46.70031" lon="4.93654">
        <ele>170.7002</ele>
        <time>2026-05-14T10:17:33+02:00</time>
      </trkpt>
      <trkpt lat="46.70036" lon="4.93653">
        <ele>170.7002</ele>
        <time>2026-05-14T10:17:34+02:00</time>
      </trkpt>
      <trkpt lat="46.70042" lon="4.93652">
        <ele>170.7002</ele>
        <time>2026-05-14T10:17:35+02:00</time>
      </trkpt>
      <trkpt lat="46.70047" lon="4.93652">
        <ele>170.7002</ele>
        <time>2026-05-14T10:17:36+02:00</time>
      </trkpt>
      <trkpt lat="46.70052" lon="4.93652">
        <ele>170.7002</ele>
        <time>2026-05-14T10:17:37+02:00</time>
      </trkpt>
      <trkpt lat="46.70057" lon="4.93653">
        <ele>170.7998</ele>
        <time>2026-05-14T10:17:38+02:00</time>
      </trkpt>
      <trkpt lat="46.70063" lon="4.93654">
        <ele>170.7998</ele>
        <time>2026-05-14T10:17:39+02:00</time>
      </trkpt>
      <trkpt lat="46.70068" lon="4.93656">
        <ele>170.40039</ele>
        <time>2026-05-14T10:17:40+02:00</time>
      </trkpt>
      <trkpt lat="46.70073" lon="4.93657">
        <ele>170.40039</ele>
        <time>2026-05-14T10:17:41+02:00</time>
      </trkpt>
      <trkpt lat="46.70078" lon="4.93656">
        <ele>170.2998</ele>
        <time>2026-05-14T10:17:42+02:00</time>
      </trkpt>
      <trkpt lat="46.70083" lon="4.93655">
        <ele>170.40039</ele>
        <time>2026-05-14T10:17:43+02:00</time>
      </trkpt>
      <trkpt lat="46.70087" lon="4.93653">
        <ele>170.2002</ele>
        <time>2026-05-14T10:17:44+02:00</time>
      </trkpt>
      <trkpt lat="46.70091" lon="4.93649">
        <ele>170.2002</ele>
        <time>2026-05-14T10:17:45+02:00</time>
      </trkpt>
      <trkpt lat="46.70094" lon="4.93644">
        <ele>170.10059</ele>
        <time>2026-05-14T10:17:46+02:00</time>
      </trkpt>
      <trkpt lat="46.70097" lon="4.93638">
        <ele>170.2002</ele>
        <time>2026-05-14T10:17:47+02:00</time>
      </trkpt>
      <trkpt lat="46.70099" lon="4.93632">
        <ele>170.2002</ele>
        <time>2026-05-14T10:17:48+02:00</time>
      </trkpt>
      <trkpt lat="46.70102" lon="4.93625">
        <ele>170.2998</ele>
        <time>2026-05-14T10:17:49+02:00</time>
      </trkpt>
      <trkpt lat="46.70105" lon="4.93619">
        <ele>170.7002</ele>
        <time>2026-05-14T10:17:50+02:00</time>
      </trkpt>
      <trkpt lat="46.70109" lon="4.93613">
        <ele>170.7002</ele>
        <time>2026-05-14T10:17:51+02:00</time>
      </trkpt>
      <trkpt lat="46.70113" lon="4.93606">
        <ele>171.2998</ele>
        <time>2026-05-14T10:17:52+02:00</time>
      </trkpt>
      <trkpt lat="46.70115" lon="4.93603">
        <ele>171.90039</ele>
        <time>2026-05-14T10:17:53+02:00</time>
      </trkpt>
      <trkpt lat="46.7012" lon="4.93595">
        <ele>172.7998</ele>
        <time>2026-05-14T10:17:54+02:00</time>
      </trkpt>
      <trkpt lat="46.70124" lon="4.93591">
        <ele>172.7002</ele>
        <time>2026-05-14T10:17:55+02:00</time>
      </trkpt>
      <trkpt lat="46.70128" lon="4.93587">
        <ele>172.60059</ele>
        <time>2026-05-14T10:17:56+02:00</time>
      </trkpt>
      <trkpt lat="46.70133" lon="4.93584">
        <ele>173.2998</ele>
        <time>2026-05-14T10:17:57+02:00</time>
      </trkpt>
      <trkpt lat="46.70137" lon="4.93581">
        <ele>173.2998</ele>
        <time>2026-05-14T10:17:58+02:00</time>
      </trkpt>
      <trkpt lat="46.70139" lon="4.93579">
        <ele>173.40039</ele>
        <time>2026-05-14T10:17:59+02:00</time>
      </trkpt>
      <trkpt lat="46.70147" lon="4.93575">
        <ele>173.7998</ele>
        <time>2026-05-14T10:18:00+02:00</time>
      </trkpt>
      <trkpt lat="46.70152" lon="4.93573">
        <ele>173.7002</ele>
        <time>2026-05-14T10:18:01+02:00</time>
      </trkpt>
      <trkpt lat="46.70157" lon="4.9357">
        <ele>173.40039</ele>
        <time>2026-05-14T10:18:02+02:00</time>
      </trkpt>
      <trkpt lat="46.70162" lon="4.93568">
        <ele>173.2002</ele>
        <time>2026-05-14T10:18:03+02:00</time>
      </trkpt>
      <trkpt lat="46.70168" lon="4.93565">
        <ele>172.7998</ele>
        <time>2026-05-14T10:18:04+02:00</time>
      </trkpt>
      <trkpt lat="46.70173" lon="4.93562">
        <ele>172.7998</ele>
        <time>2026-05-14T10:18:05+02:00</time>
      </trkpt>
      <trkpt lat="46.70179" lon="4.9356">
        <ele>173.2998</ele>
        <time>2026-05-14T10:18:06+02:00</time>
      </trkpt>
      <trkpt lat="46.70184" lon="4.93557">
        <ele>173</ele>
        <time>2026-05-14T10:18:07+02:00</time>
      </trkpt>
      <trkpt lat="46.70189" lon="4.93554">
        <ele>172.7998</ele>
        <time>2026-05-14T10:18:08+02:00</time>
      </trkpt>
      <trkpt lat="46.70195" lon="4.93551">
        <ele>173.40039</ele>
        <time>2026-05-14T10:18:09+02:00</time>
      </trkpt>
      <trkpt lat="46.702" lon="4.93548">
        <ele>173.10059</ele>
        <time>2026-05-14T10:18:10+02:00</time>
      </trkpt>
      <trkpt lat="46.70206" lon="4.93545">
        <ele>172.90039</ele>
        <time>2026-05-14T10:18:11+02:00</time>
      </trkpt>
      <trkpt lat="46.70212" lon="4.93542">
        <ele>173.40039</ele>
        <time>2026-05-14T10:18:12+02:00</time>
      </trkpt>
      <trkpt lat="46.70217" lon="4.93538">
        <ele>173</ele>
        <time>2026-05-14T10:18:13+02:00</time>
      </trkpt>
      <trkpt lat="46.70222" lon="4.93535">
        <ele>173.10059</ele>
        <time>2026-05-14T10:18:14+02:00</time>
      </trkpt>
      <trkpt lat="46.70228" lon="4.93532">
        <ele>172.7002</ele>
        <time>2026-05-14T10:18:15+02:00</time>
      </trkpt>
      <trkpt lat="46.70233" lon="4.93529">
        <ele>172.40039</ele>
        <time>2026-05-14T10:18:16+02:00</time>
      </trkpt>
      <trkpt lat="46.70239" lon="4.93526">
        <ele>172.7998</ele>
        <time>2026-05-14T10:18:17+02:00</time>
      </trkpt>
      <trkpt lat="46.70245" lon="4.93524">
        <ele>172.5</ele>
        <time>2026-05-14T10:18:18+02:00</time>
      </trkpt>
      <trkpt lat="46.7025" lon="4.93522">
        <ele>172.2998</ele>
        <time>2026-05-14T10:18:19+02:00</time>
      </trkpt>
      <trkpt lat="46.70256" lon="4.9352">
        <ele>172</ele>
        <time>2026-05-14T10:18:20+02:00</time>
      </trkpt>
      <trkpt lat="46.70262" lon="4.93518">
        <ele>171.90039</ele>
        <time>2026-05-14T10:18:21+02:00</time>
      </trkpt>
      <trkpt lat="46.70268" lon="4.93515">
        <ele>172.5</ele>
        <time>2026-05-14T10:18:22+02:00</time>
      </trkpt>
      <trkpt lat="46.70273" lon="4.93513">
        <ele>172.5</ele>
        <time>2026-05-14T10:18:23+02:00</time>
      </trkpt>
      <trkpt lat="46.70279" lon="4.9351">
        <ele>172.2998</ele>
        <time>2026-05-14T10:18:24+02:00</time>
      </trkpt>
      <trkpt lat="46.70285" lon="4.93508">
        <ele>172.90039</ele>
        <time>2026-05-14T10:18:25+02:00</time>
      </trkpt>
      <trkpt lat="46.70291" lon="4.93505">
        <ele>172.90039</ele>
        <time>2026-05-14T10:18:26+02:00</time>
      </trkpt>
      <trkpt lat="46.70296" lon="4.93503">
        <ele>172.90039</ele>
        <time>2026-05-14T10:18:27+02:00</time>
      </trkpt>
      <trkpt lat="46.70302" lon="4.93501">
        <ele>173</ele>
        <time>2026-05-14T10:18:28+02:00</time>
      </trkpt>
      <trkpt lat="46.70307" lon="4.93499">
        <ele>173.60059</ele>
        <time>2026-05-14T10:18:29+02:00</time>
      </trkpt>
      <trkpt lat="46.70313" lon="4.93497">
        <ele>173.60059</ele>
        <time>2026-05-14T10:18:30+02:00</time>
      </trkpt>
      <trkpt lat="46.70318" lon="4.93495">
        <ele>173.60059</ele>
        <time>2026-05-14T10:18:31+02:00</time>
      </trkpt>
      <trkpt lat="46.70324" lon="4.93493">
        <ele>173.60059</ele>
        <time>2026-05-14T10:18:32+02:00</time>
      </trkpt>
      <trkpt lat="46.70329" lon="4.9349">
        <ele>173.40039</ele>
        <time>2026-05-14T10:18:33+02:00</time>
      </trkpt>
      <trkpt lat="46.70334" lon="4.93487">
        <ele>173.10059</ele>
        <time>2026-05-14T10:18:34+02:00</time>
      </trkpt>
      <trkpt lat="46.70339" lon="4.93482">
        <ele>172.90039</ele>
        <time>2026-05-14T10:18:35+02:00</time>
      </trkpt>
      <trkpt lat="46.70344" lon="4.93478">
        <ele>172.60059</ele>
        <time>2026-05-14T10:18:36+02:00</time>
      </trkpt>
      <trkpt lat="46.70348" lon="4.93473">
        <ele>173.10059</ele>
        <time>2026-05-14T10:18:37+02:00</time>
      </trkpt>
      <trkpt lat="46.70353" lon="4.93469">
        <ele>172.7998</ele>
        <time>2026-05-14T10:18:38+02:00</time>
      </trkpt>
      <trkpt lat="46.70358" lon="4.93465">
        <ele>173</ele>
        <time>2026-05-14T10:18:39+02:00</time>
      </trkpt>
      <trkpt lat="46.70364" lon="4.93462">
        <ele>172.7002</ele>
        <time>2026-05-14T10:18:40+02:00</time>
      </trkpt>
      <trkpt lat="46.70369" lon="4.9346">
        <ele>172.40039</ele>
        <time>2026-05-14T10:18:41+02:00</time>
      </trkpt>
      <trkpt lat="46.70376" lon="4.93458">
        <ele>172.10059</ele>
        <time>2026-05-14T10:18:42+02:00</time>
      </trkpt>
      <trkpt lat="46.70381" lon="4.93457">
        <ele>172.10059</ele>
        <time>2026-05-14T10:18:43+02:00</time>
      </trkpt>
      <trkpt lat="46.70387" lon="4.93457">
        <ele>171.7002</ele>
        <time>2026-05-14T10:18:44+02:00</time>
      </trkpt>
      <trkpt lat="46.70393" lon="4.93456">
        <ele>171.40039</ele>
        <time>2026-05-14T10:18:45+02:00</time>
      </trkpt>
      <trkpt lat="46.70399" lon="4.93455">
        <ele>171.10059</ele>
        <time>2026-05-14T10:18:46+02:00</time>
      </trkpt>
      <trkpt lat="46.70405" lon="4.93454">
        <ele>171</ele>
        <time>2026-05-14T10:18:47+02:00</time>
      </trkpt>
      <trkpt lat="46.70411" lon="4.93453">
        <ele>170.90039</ele>
        <time>2026-05-14T10:18:48+02:00</time>
      </trkpt>
      <trkpt lat="46.70417" lon="4.93451">
        <ele>170.7998</ele>
        <time>2026-05-14T10:18:49+02:00</time>
      </trkpt>
      <trkpt lat="46.70422" lon="4.9345">
        <ele>170.7998</ele>
        <time>2026-05-14T10:18:50+02:00</time>
      </trkpt>
      <trkpt lat="46.70429" lon="4.93449">
        <ele>171.2998</ele>
        <time>2026-05-14T10:18:51+02:00</time>
      </trkpt>
      <trkpt lat="46.70434" lon="4.93448">
        <ele>171.2002</ele>
        <time>2026-05-14T10:18:52+02:00</time>
      </trkpt>
      <trkpt lat="46.7044" lon="4.93446">
        <ele>171.10059</ele>
        <time>2026-05-14T10:18:53+02:00</time>
      </trkpt>
      <trkpt lat="46.70446" lon="4.93445">
        <ele>171.10059</ele>
        <time>2026-05-14T10:18:54+02:00</time>
      </trkpt>
      <trkpt lat="46.70452" lon="4.93444">
        <ele>171</ele>
        <time>2026-05-14T10:18:55+02:00</time>
      </trkpt>
      <trkpt lat="46.70458" lon="4.93443">
        <ele>171</ele>
        <time>2026-05-14T10:18:56+02:00</time>
      </trkpt>
      <trkpt lat="46.70464" lon="4.93441">
        <ele>171</ele>
        <time>2026-05-14T10:18:57+02:00</time>
      </trkpt>
      <trkpt lat="46.7047" lon="4.9344">
        <ele>171.40039</ele>
        <time>2026-05-14T10:18:58+02:00</time>
      </trkpt>
      <trkpt lat="46.70476" lon="4.93439">
        <ele>171.2998</ele>
        <time>2026-05-14T10:18:59+02:00</time>
      </trkpt>
      <trkpt lat="46.70482" lon="4.93437">
        <ele>171.2002</ele>
        <time>2026-05-14T10:19:00+02:00</time>
      </trkpt>
      <trkpt lat="46.70488" lon="4.93436">
        <ele>171.2002</ele>
        <time>2026-05-14T10:19:01+02:00</time>
      </trkpt>
      <trkpt lat="46.70493" lon="4.93434">
        <ele>171.10059</ele>
        <time>2026-05-14T10:19:02+02:00</time>
      </trkpt>
      <trkpt lat="46.705" lon="4.93432">
        <ele>171.40039</ele>
        <time>2026-05-14T10:19:03+02:00</time>
      </trkpt>
      <trkpt lat="46.70505" lon="4.9343">
        <ele>171.2998</ele>
        <time>2026-05-14T10:19:04+02:00</time>
      </trkpt>
      <trkpt lat="46.70511" lon="4.93427">
        <ele>171.2002</ele>
        <time>2026-05-14T10:19:05+02:00</time>
      </trkpt>
      <trkpt lat="46.70517" lon="4.93425">
        <ele>171.10059</ele>
        <time>2026-05-14T10:19:06+02:00</time>
      </trkpt>
      <trkpt lat="46.70523" lon="4.93423">
        <ele>171.2002</ele>
        <time>2026-05-14T10:19:07+02:00</time>
      </trkpt>
      <trkpt lat="46.70529" lon="4.93421">
        <ele>171.10059</ele>
        <time>2026-05-14T10:19:08+02:00</time>
      </trkpt>
      <trkpt lat="46.70534" lon="4.93418">
        <ele>170.90039</ele>
        <time>2026-05-14T10:19:09+02:00</time>
      </trkpt>
      <trkpt lat="46.7054" lon="4.93416">
        <ele>170.7002</ele>
        <time>2026-05-14T10:19:10+02:00</time>
      </trkpt>
      <trkpt lat="46.70546" lon="4.93414">
        <ele>170.7002</ele>
        <time>2026-05-14T10:19:11+02:00</time>
      </trkpt>
      <trkpt lat="46.70552" lon="4.93412">
        <ele>170.5</ele>
        <time>2026-05-14T10:19:12+02:00</time>
      </trkpt>
      <trkpt lat="46.70558" lon="4.9341">
        <ele>170.5</ele>
        <time>2026-05-14T10:19:13+02:00</time>
      </trkpt>
      <trkpt lat="46.70563" lon="4.93408">
        <ele>170.40039</ele>
        <time>2026-05-14T10:19:14+02:00</time>
      </trkpt>
      <trkpt lat="46.70569" lon="4.93406">
        <ele>170.7002</ele>
        <time>2026-05-14T10:19:15+02:00</time>
      </trkpt>
      <trkpt lat="46.70575" lon="4.93404">
        <ele>170.7002</ele>
        <time>2026-05-14T10:19:16+02:00</time>
      </trkpt>
      <trkpt lat="46.7058" lon="4.93401">
        <ele>170.7002</ele>
        <time>2026-05-14T10:19:17+02:00</time>
      </trkpt>
      <trkpt lat="46.70586" lon="4.93398">
        <ele>170.7002</ele>
        <time>2026-05-14T10:19:18+02:00</time>
      </trkpt>
      <trkpt lat="46.70591" lon="4.93395">
        <ele>171</ele>
        <time>2026-05-14T10:19:19+02:00</time>
      </trkpt>
      <trkpt lat="46.70596" lon="4.93393">
        <ele>171</ele>
        <time>2026-05-14T10:19:20+02:00</time>
      </trkpt>
      <trkpt lat="46.70601" lon="4.93392">
        <ele>171.10059</ele>
        <time>2026-05-14T10:19:21+02:00</time>
      </trkpt>
      <trkpt lat="46.70606" lon="4.93391">
        <ele>171.2002</ele>
        <time>2026-05-14T10:19:22+02:00</time>
      </trkpt>
      <trkpt lat="46.70612" lon="4.93391">
        <ele>171.40039</ele>
        <time>2026-05-14T10:19:23+02:00</time>
      </trkpt>
      <trkpt lat="46.70617" lon="4.9339">
        <ele>171.40039</ele>
        <time>2026-05-14T10:19:24+02:00</time>
      </trkpt>
      <trkpt lat="46.70622" lon="4.93389">
        <ele>171.7998</ele>
        <time>2026-05-14T10:19:25+02:00</time>
      </trkpt>
      <trkpt lat="46.70628" lon="4.93388">
        <ele>171.40039</ele>
        <time>2026-05-14T10:19:26+02:00</time>
      </trkpt>
      <trkpt lat="46.70633" lon="4.93387">
        <ele>170.90039</ele>
        <time>2026-05-14T10:19:27+02:00</time>
      </trkpt>
      <trkpt lat="46.70639" lon="4.93385">
        <ele>170.5</ele>
        <time>2026-05-14T10:19:28+02:00</time>
      </trkpt>
      <trkpt lat="46.70645" lon="4.93383">
        <ele>170.40039</ele>
        <time>2026-05-14T10:19:29+02:00</time>
      </trkpt>
      <trkpt lat="46.70651" lon="4.93381">
        <ele>170.2998</ele>
        <time>2026-05-14T10:19:30+02:00</time>
      </trkpt>
      <trkpt lat="46.70656" lon="4.93379">
        <ele>170.40039</ele>
        <time>2026-05-14T10:19:31+02:00</time>
      </trkpt>
      <trkpt lat="46.70662" lon="4.93377">
        <ele>170.2998</ele>
        <time>2026-05-14T10:19:32+02:00</time>
      </trkpt>
      <trkpt lat="46.70668" lon="4.93374">
        <ele>170.2998</ele>
        <time>2026-05-14T10:19:33+02:00</time>
      </trkpt>
      <trkpt lat="46.70674" lon="4.93372">
        <ele>170.2998</ele>
        <time>2026-05-14T10:19:34+02:00</time>
      </trkpt>
      <trkpt lat="46.70679" lon="4.9337">
        <ele>170.60059</ele>
        <time>2026-05-14T10:19:35+02:00</time>
      </trkpt>
      <trkpt lat="46.70685" lon="4.93368">
        <ele>170.5</ele>
        <time>2026-05-14T10:19:36+02:00</time>
      </trkpt>
      <trkpt lat="46.70691" lon="4.93365">
        <ele>170.5</ele>
        <time>2026-05-14T10:19:37+02:00</time>
      </trkpt>
      <trkpt lat="46.70697" lon="4.93363">
        <ele>170.90039</ele>
        <time>2026-05-14T10:19:38+02:00</time>
      </trkpt>
      <trkpt lat="46.70703" lon="4.93361">
        <ele>170.7998</ele>
        <time>2026-05-14T10:19:39+02:00</time>
      </trkpt>
      <trkpt lat="46.70709" lon="4.93359">
        <ele>170.7998</ele>
        <time>2026-05-14T10:19:40+02:00</time>
      </trkpt>
      <trkpt lat="46.70715" lon="4.93357">
        <ele>170.7002</ele>
        <time>2026-05-14T10:19:41+02:00</time>
      </trkpt>
      <trkpt lat="46.70721" lon="4.93355">
        <ele>170.7002</ele>
        <time>2026-05-14T10:19:42+02:00</time>
      </trkpt>
      <trkpt lat="46.70727" lon="4.93352">
        <ele>171.10059</ele>
        <time>2026-05-14T10:19:43+02:00</time>
      </trkpt>
      <trkpt lat="46.70733" lon="4.9335">
        <ele>170.90039</ele>
        <time>2026-05-14T10:19:44+02:00</time>
      </trkpt>
      <trkpt lat="46.70739" lon="4.93347">
        <ele>170.60059</ele>
        <time>2026-05-14T10:19:45+02:00</time>
      </trkpt>
      <trkpt lat="46.70745" lon="4.93345">
        <ele>170.40039</ele>
        <time>2026-05-14T10:19:46+02:00</time>
      </trkpt>
      <trkpt lat="46.70751" lon="4.93342">
        <ele>170.2002</ele>
        <time>2026-05-14T10:19:47+02:00</time>
      </trkpt>
      <trkpt lat="46.70757" lon="4.93339">
        <ele>170.2002</ele>
        <time>2026-05-14T10:19:48+02:00</time>
      </trkpt>
      <trkpt lat="46.70762" lon="4.93336">
        <ele>170.2998</ele>
        <time>2026-05-14T10:19:49+02:00</time>
      </trkpt>
      <trkpt lat="46.70768" lon="4.93332">
        <ele>170.2998</ele>
        <time>2026-05-14T10:19:50+02:00</time>
      </trkpt>
      <trkpt lat="46.70773" lon="4.93329">
        <ele>170.60059</ele>
        <time>2026-05-14T10:19:51+02:00</time>
      </trkpt>
      <trkpt lat="46.70779" lon="4.93326">
        <ele>170.5</ele>
        <time>2026-05-14T10:19:52+02:00</time>
      </trkpt>
      <trkpt lat="46.70784" lon="4.93322">
        <ele>170.5</ele>
        <time>2026-05-14T10:19:53+02:00</time>
      </trkpt>
      <trkpt lat="46.7079" lon="4.93319">
        <ele>170.7998</ele>
        <time>2026-05-14T10:19:54+02:00</time>
      </trkpt>
      <trkpt lat="46.70795" lon="4.93315">
        <ele>170.7998</ele>
        <time>2026-05-14T10:19:55+02:00</time>
      </trkpt>
      <trkpt lat="46.70801" lon="4.93312">
        <ele>170.7002</ele>
        <time>2026-05-14T10:19:56+02:00</time>
      </trkpt>
      <trkpt lat="46.70806" lon="4.93309">
        <ele>171.10059</ele>
        <time>2026-05-14T10:19:57+02:00</time>
      </trkpt>
      <trkpt lat="46.70811" lon="4.93305">
        <ele>171.10059</ele>
        <time>2026-05-14T10:19:58+02:00</time>
      </trkpt>
      <trkpt lat="46.70816" lon="4.93302">
        <ele>171.2998</ele>
        <time>2026-05-14T10:19:59+02:00</time>
      </trkpt>
      <trkpt lat="46.70819" lon="4.933">
        <ele>171.2998</ele>
        <time>2026-05-14T10:20:00+02:00</time>
      </trkpt>
      <trkpt lat="46.70827" lon="4.93296">
        <ele>170.7998</ele>
        <time>2026-05-14T10:20:01+02:00</time>
      </trkpt>
      <trkpt lat="46.70832" lon="4.93293">
        <ele>170.90039</ele>
        <time>2026-05-14T10:20:02+02:00</time>
      </trkpt>
      <trkpt lat="46.70838" lon="4.9329">
        <ele>170.60059</ele>
        <time>2026-05-14T10:20:03+02:00</time>
      </trkpt>
      <trkpt lat="46.70842" lon="4.93286">
        <ele>170.60059</ele>
        <time>2026-05-14T10:20:04+02:00</time>
      </trkpt>
      <trkpt lat="46.70847" lon="4.93283">
        <ele>170.60059</ele>
        <time>2026-05-14T10:20:05+02:00</time>
      </trkpt>
      <trkpt lat="46.70853" lon="4.93279">
        <ele>170.5</ele>
        <time>2026-05-14T10:20:06+02:00</time>
      </trkpt>
      <trkpt lat="46.70858" lon="4.93276">
        <ele>170.7998</ele>
        <time>2026-05-14T10:20:07+02:00</time>
      </trkpt>
      <trkpt lat="46.70863" lon="4.93272">
        <ele>170.7002</ele>
        <time>2026-05-14T10:20:08+02:00</time>
      </trkpt>
      <trkpt lat="46.70868" lon="4.93268">
        <ele>171.10059</ele>
        <time>2026-05-14T10:20:09+02:00</time>
      </trkpt>
      <trkpt lat="46.70873" lon="4.93264">
        <ele>171.10059</ele>
        <time>2026-05-14T10:20:10+02:00</time>
      </trkpt>
      <trkpt lat="46.70878" lon="4.9326">
        <ele>171.5</ele>
        <time>2026-05-14T10:20:11+02:00</time>
      </trkpt>
      <trkpt lat="46.70883" lon="4.93256">
        <ele>171.5</ele>
        <time>2026-05-14T10:20:12+02:00</time>
      </trkpt>
      <trkpt lat="46.70888" lon="4.93252">
        <ele>171.2998</ele>
        <time>2026-05-14T10:20:13+02:00</time>
      </trkpt>
      <trkpt lat="46.70893" lon="4.93248">
        <ele>171.2998</ele>
        <time>2026-05-14T10:20:14+02:00</time>
      </trkpt>
      <trkpt lat="46.70898" lon="4.93244">
        <ele>170.90039</ele>
        <time>2026-05-14T10:20:15+02:00</time>
      </trkpt>
      <trkpt lat="46.70903" lon="4.93239">
        <ele>171.10059</ele>
        <time>2026-05-14T10:20:16+02:00</time>
      </trkpt>
      <trkpt lat="46.70908" lon="4.93235">
        <ele>171.10059</ele>
        <time>2026-05-14T10:20:17+02:00</time>
      </trkpt>
      <trkpt lat="46.70913" lon="4.93231">
        <ele>171.60059</ele>
        <time>2026-05-14T10:20:18+02:00</time>
      </trkpt>
      <trkpt lat="46.70918" lon="4.93227">
        <ele>171.5</ele>
        <time>2026-05-14T10:20:19+02:00</time>
      </trkpt>
      <trkpt lat="46.70923" lon="4.93223">
        <ele>171.7998</ele>
        <time>2026-05-14T10:20:20+02:00</time>
      </trkpt>
      <trkpt lat="46.70928" lon="4.93218">
        <ele>171.5</ele>
        <time>2026-05-14T10:20:21+02:00</time>
      </trkpt>
      <trkpt lat="46.70933" lon="4.93213">
        <ele>171.5</ele>
        <time>2026-05-14T10:20:22+02:00</time>
      </trkpt>
      <trkpt lat="46.70938" lon="4.93208">
        <ele>172.10059</ele>
        <time>2026-05-14T10:20:23+02:00</time>
      </trkpt>
      <trkpt lat="46.70943" lon="4.93203">
        <ele>171.60059</ele>
        <time>2026-05-14T10:20:24+02:00</time>
      </trkpt>
      <trkpt lat="46.70948" lon="4.93198">
        <ele>172</ele>
        <time>2026-05-14T10:20:25+02:00</time>
      </trkpt>
      <trkpt lat="46.70952" lon="4.93192">
        <ele>171.7002</ele>
        <time>2026-05-14T10:20:26+02:00</time>
      </trkpt>
      <trkpt lat="46.70957" lon="4.93187">
        <ele>172.10059</ele>
        <time>2026-05-14T10:20:27+02:00</time>
      </trkpt>
      <trkpt lat="46.70962" lon="4.93182">
        <ele>172.2998</ele>
        <time>2026-05-14T10:20:28+02:00</time>
      </trkpt>
      <trkpt lat="46.70966" lon="4.93176">
        <ele>172.2998</ele>
        <time>2026-05-14T10:20:29+02:00</time>
      </trkpt>
      <trkpt lat="46.70971" lon="4.93171">
        <ele>172.2998</ele>
        <time>2026-05-14T10:20:30+02:00</time>
      </trkpt>
      <trkpt lat="46.70975" lon="4.93165">
        <ele>172.2998</ele>
        <time>2026-05-14T10:20:31+02:00</time>
      </trkpt>
      <trkpt lat="46.70979" lon="4.9316">
        <ele>172.2998</ele>
        <time>2026-05-14T10:20:32+02:00</time>
      </trkpt>
      <trkpt lat="46.70984" lon="4.93155">
        <ele>172.40039</ele>
        <time>2026-05-14T10:20:33+02:00</time>
      </trkpt>
      <trkpt lat="46.70988" lon="4.9315">
        <ele>172</ele>
        <time>2026-05-14T10:20:34+02:00</time>
      </trkpt>
      <trkpt lat="46.70993" lon="4.93146">
        <ele>171.90039</ele>
        <time>2026-05-14T10:20:35+02:00</time>
      </trkpt>
      <trkpt lat="46.70998" lon="4.93142">
        <ele>171.2998</ele>
        <time>2026-05-14T10:20:36+02:00</time>
      </trkpt>
      <trkpt lat="46.71003" lon="4.93138">
        <ele>171.60059</ele>
        <time>2026-05-14T10:20:37+02:00</time>
      </trkpt>
      <trkpt lat="46.71009" lon="4.93134">
        <ele>170.7998</ele>
        <time>2026-05-14T10:20:38+02:00</time>
      </trkpt>
      <trkpt lat="46.71015" lon="4.9313">
        <ele>170.90039</ele>
        <time>2026-05-14T10:20:39+02:00</time>
      </trkpt>
      <trkpt lat="46.7102" lon="4.93127">
        <ele>170.90039</ele>
        <time>2026-05-14T10:20:40+02:00</time>
      </trkpt>
      <trkpt lat="46.71026" lon="4.93124">
        <ele>170.60059</ele>
        <time>2026-05-14T10:20:41+02:00</time>
      </trkpt>
      <trkpt lat="46.71031" lon="4.9312">
        <ele>170.5</ele>
        <time>2026-05-14T10:20:42+02:00</time>
      </trkpt>
      <trkpt lat="46.71036" lon="4.93118">
        <ele>170.2002</ele>
        <time>2026-05-14T10:20:43+02:00</time>
      </trkpt>
      <trkpt lat="46.7104" lon="4.93115">
        <ele>170.2002</ele>
        <time>2026-05-14T10:20:44+02:00</time>
      </trkpt>
      <trkpt lat="46.71043" lon="4.93112">
        <ele>170.2998</ele>
        <time>2026-05-14T10:20:45+02:00</time>
      </trkpt>
      <trkpt lat="46.71044" lon="4.9311">
        <ele>170.2998</ele>
        <time>2026-05-14T10:20:46+02:00</time>
      </trkpt>
      <trkpt lat="46.71044" lon="4.9311">
        <ele>170.2998</ele>
        <time>2026-05-14T10:20:47+02:00</time>
      </trkpt>
      <trkpt lat="46.71044" lon="4.9311">
        <ele>170.2998</ele>
        <time>2026-05-14T10:20:48+02:00</time>
      </trkpt>
      <trkpt lat="46.71044" lon="4.9311">
        <ele>170.2998</ele>
        <time>2026-05-14T10:20:49+02:00</time>
      </trkpt>
      <trkpt lat="46.71044" lon="4.9311">
        <ele>170.2998</ele>
        <time>2026-05-14T10:20:50+02:00</time>
      </trkpt>
      <trkpt lat="46.71044" lon="4.9311">
        <ele>170.2998</ele>
        <time>2026-05-14T10:20:51+02:00</time>
      </trkpt>
      <trkpt lat="46.71051" lon="4.93086">
        <ele>170.2998</ele>
        <time>2026-05-14T10:28:58+02:00</time>
      </trkpt>
      <trkpt lat="46.71051" lon="4.93083">
        <ele>170.2998</ele>
        <time>2026-05-14T10:28:59+02:00</time>
      </trkpt>
      <trkpt lat="46.7105" lon="4.93081">
        <ele>170.60059</ele>
        <time>2026-05-14T10:29:00+02:00</time>
      </trkpt>
      <trkpt lat="46.7105" lon="4.93078">
        <ele>170.7998</ele>
        <time>2026-05-14T10:29:01+02:00</time>
      </trkpt>
      <trkpt lat="46.71048" lon="4.93075">
        <ele>170.7998</ele>
        <time>2026-05-14T10:29:02+02:00</time>
      </trkpt>
      <trkpt lat="46.71047" lon="4.93071">
        <ele>171.10059</ele>
        <time>2026-05-14T10:29:03+02:00</time>
      </trkpt>
      <trkpt lat="46.71044" lon="4.93068">
        <ele>171.5</ele>
        <time>2026-05-14T10:29:04+02:00</time>
      </trkpt>
      <trkpt lat="46.71041" lon="4.93066">
        <ele>171.5</ele>
        <time>2026-05-14T10:29:05+02:00</time>
      </trkpt>
      <trkpt lat="46.71039" lon="4.93063">
        <ele>171.5</ele>
        <time>2026-05-14T10:29:06+02:00</time>
      </trkpt>
      <trkpt lat="46.71036" lon="4.9306">
        <ele>172.2998</ele>
        <time>2026-05-14T10:29:07+02:00</time>
      </trkpt>
      <trkpt lat="46.71032" lon="4.93057">
        <ele>172.7002</ele>
        <time>2026-05-14T10:29:08+02:00</time>
      </trkpt>
      <trkpt lat="46.71029" lon="4.93054">
        <ele>173</ele>
        <time>2026-05-14T10:29:09+02:00</time>
      </trkpt>
      <trkpt lat="46.71026" lon="4.93051">
        <ele>173.60059</ele>
        <time>2026-05-14T10:29:10+02:00</time>
      </trkpt>
      <trkpt lat="46.71023" lon="4.93048">
        <ele>173.60059</ele>
        <time>2026-05-14T10:29:11+02:00</time>
      </trkpt>
      <trkpt lat="46.7102" lon="4.93044">
        <ele>174.2998</ele>
        <time>2026-05-14T10:29:12+02:00</time>
      </trkpt>
      <trkpt lat="46.71017" lon="4.93041">
        <ele>174.2998</ele>
        <time>2026-05-14T10:29:13+02:00</time>
      </trkpt>
      <trkpt lat="46.71014" lon="4.93038">
        <ele>174.7002</ele>
        <time>2026-05-14T10:29:14+02:00</time>
      </trkpt>
      <trkpt lat="46.71011" lon="4.93034">
        <ele>174.60059</ele>
        <time>2026-05-14T10:29:15+02:00</time>
      </trkpt>
      <trkpt lat="46.71008" lon="4.9303">
        <ele>174.7998</ele>
        <time>2026-05-14T10:29:16+02:00</time>
      </trkpt>
      <trkpt lat="46.71006" lon="4.93026">
        <ele>174.7002</ele>
        <time>2026-05-14T10:29:17+02:00</time>
      </trkpt>
      <trkpt lat="46.71003" lon="4.93022">
        <ele>174.7998</ele>
        <time>2026-05-14T10:29:18+02:00</time>
      </trkpt>
      <trkpt lat="46.71" lon="4.93017">
        <ele>174.90039</ele>
        <time>2026-05-14T10:29:19+02:00</time>
      </trkpt>
      <trkpt lat="46.70997" lon="4.93013">
        <ele>175</ele>
        <time>2026-05-14T10:29:20+02:00</time>
      </trkpt>
      <trkpt lat="46.70994" lon="4.93008">
        <ele>175.10059</ele>
        <time>2026-05-14T10:29:21+02:00</time>
      </trkpt>
      <trkpt lat="46.70991" lon="4.93004">
        <ele>175.2002</ele>
        <time>2026-05-14T10:29:22+02:00</time>
      </trkpt>
      <trkpt lat="46.70987" lon="4.92999">
        <ele>175.40039</ele>
        <time>2026-05-14T10:29:23+02:00</time>
      </trkpt>
      <trkpt lat="46.70984" lon="4.92994">
        <ele>175.60059</ele>
        <time>2026-05-14T10:29:24+02:00</time>
      </trkpt>
      <trkpt lat="46.70981" lon="4.92989">
        <ele>175.60059</ele>
        <time>2026-05-14T10:29:25+02:00</time>
      </trkpt>
      <trkpt lat="46.70978" lon="4.92984">
        <ele>175.90039</ele>
        <time>2026-05-14T10:29:26+02:00</time>
      </trkpt>
      <trkpt lat="46.70975" lon="4.92979">
        <ele>175.90039</ele>
        <time>2026-05-14T10:29:27+02:00</time>
      </trkpt>
      <trkpt lat="46.70972" lon="4.92973">
        <ele>176.10059</ele>
        <time>2026-05-14T10:29:28+02:00</time>
      </trkpt>
      <trkpt lat="46.7097" lon="4.92967">
        <ele>176.2002</ele>
        <time>2026-05-14T10:29:29+02:00</time>
      </trkpt>
      <trkpt lat="46.70967" lon="4.92961">
        <ele>176.2998</ele>
        <time>2026-05-14T10:29:30+02:00</time>
      </trkpt>
      <trkpt lat="46.70966" lon="4.92959">
        <ele>176.40039</ele>
        <time>2026-05-14T10:29:31+02:00</time>
      </trkpt>
      <trkpt lat="46.70961" lon="4.92954">
        <ele>176.40039</ele>
        <time>2026-05-14T10:29:32+02:00</time>
      </trkpt>
      <trkpt lat="46.70958" lon="4.92952">
        <ele>176.40039</ele>
        <time>2026-05-14T10:29:33+02:00</time>
      </trkpt>
      <trkpt lat="46.70955" lon="4.92951">
        <ele>176.40039</ele>
        <time>2026-05-14T10:29:34+02:00</time>
      </trkpt>
      <trkpt lat="46.70952" lon="4.9295">
        <ele>176.40039</ele>
        <time>2026-05-14T10:29:35+02:00</time>
      </trkpt>
      <trkpt lat="46.7095" lon="4.9295">
        <ele>176.40039</ele>
        <time>2026-05-14T10:29:36+02:00</time>
      </trkpt>
      <trkpt lat="46.7095" lon="4.9295">
        <ele>176.40039</ele>
        <time>2026-05-14T10:29:37+02:00</time>
      </trkpt>
      <trkpt lat="46.7095" lon="4.9295">
        <ele>176.40039</ele>
        <time>2026-05-14T10:29:38+02:00</time>
      </trkpt>
      <trkpt lat="46.7095" lon="4.9295">
        <ele>176.40039</ele>
        <time>2026-05-14T10:29:39+02:00</time>
      </trkpt>
      <trkpt lat="46.7095" lon="4.9295">
        <ele>176.40039</ele>
        <time>2026-05-14T10:29:40+02:00</time>
      </trkpt>
      <trkpt lat="46.7095" lon="4.92966">
        <ele>176.40039</ele>
        <time>2026-05-14T10:29:50+02:00</time>
      </trkpt>
      <trkpt lat="46.70952" lon="4.92969">
        <ele>176.2998</ele>
        <time>2026-05-14T10:29:51+02:00</time>
      </trkpt>
      <trkpt lat="46.70954" lon="4.92973">
        <ele>176.2998</ele>
        <time>2026-05-14T10:29:52+02:00</time>
      </trkpt>
      <trkpt lat="46.70956" lon="4.92976">
        <ele>176.2998</ele>
        <time>2026-05-14T10:29:53+02:00</time>
      </trkpt>
      <trkpt lat="46.70958" lon="4.9298">
        <ele>176.10059</ele>
        <time>2026-05-14T10:29:54+02:00</time>
      </trkpt>
      <trkpt lat="46.70961" lon="4.92985">
        <ele>176.10059</ele>
        <time>2026-05-14T10:29:55+02:00</time>
      </trkpt>
      <trkpt lat="46.70962" lon="4.92987">
        <ele>176</ele>
        <time>2026-05-14T10:29:56+02:00</time>
      </trkpt>
      <trkpt lat="46.70966" lon="4.92994">
        <ele>176</ele>
        <time>2026-05-14T10:29:57+02:00</time>
      </trkpt>
      <trkpt lat="46.70969" lon="4.92998">
        <ele>175.7002</ele>
        <time>2026-05-14T10:29:58+02:00</time>
      </trkpt>
      <trkpt lat="46.70972" lon="4.93003">
        <ele>175.60059</ele>
        <time>2026-05-14T10:29:59+02:00</time>
      </trkpt>
      <trkpt lat="46.70975" lon="4.93007">
        <ele>175.5</ele>
        <time>2026-05-14T10:30:00+02:00</time>
      </trkpt>
      <trkpt lat="46.70978" lon="4.93012">
        <ele>175.2998</ele>
        <time>2026-05-14T10:30:01+02:00</time>
      </trkpt>
      <trkpt lat="46.70981" lon="4.93016">
        <ele>175.2002</ele>
        <time>2026-05-14T10:30:02+02:00</time>
      </trkpt>
      <trkpt lat="46.70984" lon="4.93021">
        <ele>175.10059</ele>
        <time>2026-05-14T10:30:03+02:00</time>
      </trkpt>
      <trkpt lat="46.70987" lon="4.93026">
        <ele>175</ele>
        <time>2026-05-14T10:30:04+02:00</time>
      </trkpt>
      <trkpt lat="46.70991" lon="4.9303">
        <ele>175</ele>
        <time>2026-05-14T10:30:05+02:00</time>
      </trkpt>
      <trkpt lat="46.70994" lon="4.93035">
        <ele>174.90039</ele>
        <time>2026-05-14T10:30:06+02:00</time>
      </trkpt>
      <trkpt lat="46.70997" lon="4.9304">
        <ele>174.90039</ele>
        <time>2026-05-14T10:30:07+02:00</time>
      </trkpt>
      <trkpt lat="46.71" lon="4.93044">
        <ele>174.90039</ele>
        <time>2026-05-14T10:30:08+02:00</time>
      </trkpt>
      <trkpt lat="46.71003" lon="4.93049">
        <ele>174.90039</ele>
        <time>2026-05-14T10:30:09+02:00</time>
      </trkpt>
      <trkpt lat="46.71007" lon="4.93054">
        <ele>174.7998</ele>
        <time>2026-05-14T10:30:10+02:00</time>
      </trkpt>
      <trkpt lat="46.7101" lon="4.93058">
        <ele>174.2002</ele>
        <time>2026-05-14T10:30:11+02:00</time>
      </trkpt>
      <trkpt lat="46.71014" lon="4.93063">
        <ele>173.7998</ele>
        <time>2026-05-14T10:30:12+02:00</time>
      </trkpt>
      <trkpt lat="46.71017" lon="4.93068">
        <ele>173.2998</ele>
        <time>2026-05-14T10:30:13+02:00</time>
      </trkpt>
      <trkpt lat="46.71021" lon="4.93073">
        <ele>172.5</ele>
        <time>2026-05-14T10:30:14+02:00</time>
      </trkpt>
      <trkpt lat="46.71024" lon="4.93077">
        <ele>172.5</ele>
        <time>2026-05-14T10:30:15+02:00</time>
      </trkpt>
      <trkpt lat="46.71028" lon="4.93082">
        <ele>171.7998</ele>
        <time>2026-05-14T10:30:16+02:00</time>
      </trkpt>
      <trkpt lat="46.71031" lon="4.93086">
        <ele>171.7998</ele>
        <time>2026-05-14T10:30:17+02:00</time>
      </trkpt>
      <trkpt lat="46.71034" lon="4.9309">
        <ele>171</ele>
        <time>2026-05-14T10:30:18+02:00</time>
      </trkpt>
      <trkpt lat="46.71037" lon="4.93095">
        <ele>171</ele>
        <time>2026-05-14T10:30:19+02:00</time>
      </trkpt>
      <trkpt lat="46.7104" lon="4.93098">
        <ele>170.40039</ele>
        <time>2026-05-14T10:30:20+02:00</time>
      </trkpt>
      <trkpt lat="46.71043" lon="4.93102">
        <ele>170.40039</ele>
        <time>2026-05-14T10:30:21+02:00</time>
      </trkpt>
      <trkpt lat="46.71045" lon="4.93106">
        <ele>170.2998</ele>
        <time>2026-05-14T10:30:22+02:00</time>
      </trkpt>
      <trkpt lat="46.71048" lon="4.9311">
        <ele>170.2998</ele>
        <time>2026-05-14T10:30:23+02:00</time>
      </trkpt>
      <trkpt lat="46.71051" lon="4.93114">
        <ele>170.2998</ele>
        <time>2026-05-14T10:30:24+02:00</time>
      </trkpt>
      <trkpt lat="46.71054" lon="4.93117">
        <ele>170.2998</ele>
        <time>2026-05-14T10:30:25+02:00</time>
      </trkpt>
      <trkpt lat="46.71056" lon="4.93121">
        <ele>170.2998</ele>
        <time>2026-05-14T10:30:26+02:00</time>
      </trkpt>
      <trkpt lat="46.71059" lon="4.93124">
        <ele>170.2998</ele>
        <time>2026-05-14T10:30:27+02:00</time>
      </trkpt>
      <trkpt lat="46.71061" lon="4.93128">
        <ele>170.2998</ele>
        <time>2026-05-14T10:30:28+02:00</time>
      </trkpt>
      <trkpt lat="46.71064" lon="4.93131">
        <ele>170.2998</ele>
        <time>2026-05-14T10:30:29+02:00</time>
      </trkpt>
      <trkpt lat="46.71066" lon="4.93134">
        <ele>170.2998</ele>
        <time>2026-05-14T10:30:30+02:00</time>
      </trkpt>
      <trkpt lat="46.71069" lon="4.93138">
        <ele>170.2998</ele>
        <time>2026-05-14T10:30:31+02:00</time>
      </trkpt>
      <trkpt lat="46.71072" lon="4.93141">
        <ele>170.2998</ele>
        <time>2026-05-14T10:30:32+02:00</time>
      </trkpt>
      <trkpt lat="46.71074" lon="4.93145">
        <ele>170.2998</ele>
        <time>2026-05-14T10:30:33+02:00</time>
      </trkpt>
      <trkpt lat="46.71077" lon="4.93148">
        <ele>170.2998</ele>
        <time>2026-05-14T10:30:34+02:00</time>
      </trkpt>
      <trkpt lat="46.7108" lon="4.93152">
        <ele>170.2998</ele>
        <time>2026-05-14T10:30:35+02:00</time>
      </trkpt>
      <trkpt lat="46.71082" lon="4.93155">
        <ele>170.2998</ele>
        <time>2026-05-14T10:30:36+02:00</time>
      </trkpt>
      <trkpt lat="46.71085" lon="4.93159">
        <ele>170.2998</ele>
        <time>2026-05-14T10:30:37+02:00</time>
      </trkpt>
      <trkpt lat="46.71088" lon="4.93163">
        <ele>170.2998</ele>
        <time>2026-05-14T10:30:38+02:00</time>
      </trkpt>
      <trkpt lat="46.71091" lon="4.93166">
        <ele>170.2998</ele>
        <time>2026-05-14T10:30:39+02:00</time>
      </trkpt>
      <trkpt lat="46.71094" lon="4.9317">
        <ele>170.2998</ele>
        <time>2026-05-14T10:30:40+02:00</time>
      </trkpt>
      <trkpt lat="46.71097" lon="4.93173">
        <ele>170.2998</ele>
        <time>2026-05-14T10:30:41+02:00</time>
      </trkpt>
      <trkpt lat="46.711" lon="4.93177">
        <ele>170.2998</ele>
        <time>2026-05-14T10:30:42+02:00</time>
      </trkpt>
      <trkpt lat="46.71102" lon="4.93181">
        <ele>170.2998</ele>
        <time>2026-05-14T10:30:43+02:00</time>
      </trkpt>
      <trkpt lat="46.71104" lon="4.93183">
        <ele>170.2998</ele>
        <time>2026-05-14T10:30:44+02:00</time>
      </trkpt>
      <trkpt lat="46.71108" lon="4.93189">
        <ele>170.2998</ele>
        <time>2026-05-14T10:30:45+02:00</time>
      </trkpt>
      <trkpt lat="46.71111" lon="4.93194">
        <ele>170.2998</ele>
        <time>2026-05-14T10:30:46+02:00</time>
      </trkpt>
      <trkpt lat="46.71114" lon="4.93198">
        <ele>170.2998</ele>
        <time>2026-05-14T10:30:47+02:00</time>
      </trkpt>
      <trkpt lat="46.71118" lon="4.93202">
        <ele>170.2998</ele>
        <time>2026-05-14T10:30:48+02:00</time>
      </trkpt>
      <trkpt lat="46.71121" lon="4.93206">
        <ele>170.2998</ele>
        <time>2026-05-14T10:30:49+02:00</time>
      </trkpt>
      <trkpt lat="46.71124" lon="4.93211">
        <ele>170.2998</ele>
        <time>2026-05-14T10:30:50+02:00</time>
      </trkpt>
      <trkpt lat="46.71128" lon="4.93216">
        <ele>170.2998</ele>
        <time>2026-05-14T10:30:51+02:00</time>
      </trkpt>
      <trkpt lat="46.71131" lon="4.93221">
        <ele>170.2998</ele>
        <time>2026-05-14T10:30:52+02:00</time>
      </trkpt>
      <trkpt lat="46.71135" lon="4.93225">
        <ele>170.2998</ele>
        <time>2026-05-14T10:30:53+02:00</time>
      </trkpt>
      <trkpt lat="46.71139" lon="4.9323">
        <ele>170.2998</ele>
        <time>2026-05-14T10:30:54+02:00</time>
      </trkpt>
      <trkpt lat="46.71142" lon="4.93235">
        <ele>170.2998</ele>
        <time>2026-05-14T10:30:55+02:00</time>
      </trkpt>
      <trkpt lat="46.71146" lon="4.93239">
        <ele>170.2998</ele>
        <time>2026-05-14T10:30:56+02:00</time>
      </trkpt>
      <trkpt lat="46.7115" lon="4.93244">
        <ele>170.2998</ele>
        <time>2026-05-14T10:30:57+02:00</time>
      </trkpt>
      <trkpt lat="46.71152" lon="4.93247">
        <ele>170.2998</ele>
        <time>2026-05-14T10:30:58+02:00</time>
      </trkpt>
      <trkpt lat="46.71158" lon="4.93254">
        <ele>170.2998</ele>
        <time>2026-05-14T10:30:59+02:00</time>
      </trkpt>
      <trkpt lat="46.71162" lon="4.9326">
        <ele>170.2002</ele>
        <time>2026-05-14T10:31:00+02:00</time>
      </trkpt>
      <trkpt lat="46.71164" lon="4.93263">
        <ele>170.2002</ele>
        <time>2026-05-14T10:31:01+02:00</time>
      </trkpt>
      <trkpt lat="46.71171" lon="4.93272">
        <ele>170.40039</ele>
        <time>2026-05-14T10:31:02+02:00</time>
      </trkpt>
      <trkpt lat="46.71176" lon="4.93278">
        <ele>171.10059</ele>
        <time>2026-05-14T10:31:03+02:00</time>
      </trkpt>
      <trkpt lat="46.7118" lon="4.93284">
        <ele>171.5</ele>
        <time>2026-05-14T10:31:04+02:00</time>
      </trkpt>
      <trkpt lat="46.71185" lon="4.9329">
        <ele>172.10059</ele>
        <time>2026-05-14T10:31:05+02:00</time>
      </trkpt>
      <trkpt lat="46.71189" lon="4.93296">
        <ele>173.10059</ele>
        <time>2026-05-14T10:31:06+02:00</time>
      </trkpt>
      <trkpt lat="46.71194" lon="4.93303">
        <ele>173.5</ele>
        <time>2026-05-14T10:31:07+02:00</time>
      </trkpt>
      <trkpt lat="46.71199" lon="4.93309">
        <ele>174.90039</ele>
        <time>2026-05-14T10:31:08+02:00</time>
      </trkpt>
      <trkpt lat="46.71204" lon="4.93316">
        <ele>176.10059</ele>
        <time>2026-05-14T10:31:09+02:00</time>
      </trkpt>
      <trkpt lat="46.71209" lon="4.93323">
        <ele>176.5</ele>
        <time>2026-05-14T10:31:10+02:00</time>
      </trkpt>
      <trkpt lat="46.71214" lon="4.9333">
        <ele>176.5</ele>
        <time>2026-05-14T10:31:11+02:00</time>
      </trkpt>
      <trkpt lat="46.71219" lon="4.93337">
        <ele>176.40039</ele>
        <time>2026-05-14T10:31:12+02:00</time>
      </trkpt>
      <trkpt lat="46.71224" lon="4.93345">
        <ele>176.40039</ele>
        <time>2026-05-14T10:31:13+02:00</time>
      </trkpt>
      <trkpt lat="46.71229" lon="4.93353">
        <ele>176.40039</ele>
        <time>2026-05-14T10:31:14+02:00</time>
      </trkpt>
      <trkpt lat="46.71234" lon="4.93362">
        <ele>176.5</ele>
        <time>2026-05-14T10:31:15+02:00</time>
      </trkpt>
      <trkpt lat="46.71238" lon="4.93371">
        <ele>176.60059</ele>
        <time>2026-05-14T10:31:16+02:00</time>
      </trkpt>
      <trkpt lat="46.71242" lon="4.93381">
        <ele>176.90039</ele>
        <time>2026-05-14T10:31:17+02:00</time>
      </trkpt>
      <trkpt lat="46.71246" lon="4.93391">
        <ele>177</ele>
        <time>2026-05-14T10:31:18+02:00</time>
      </trkpt>
      <trkpt lat="46.71249" lon="4.93402">
        <ele>177.10059</ele>
        <time>2026-05-14T10:31:19+02:00</time>
      </trkpt>
      <trkpt lat="46.71253" lon="4.93413">
        <ele>177</ele>
        <time>2026-05-14T10:31:20+02:00</time>
      </trkpt>
      <trkpt lat="46.71256" lon="4.93423">
        <ele>177</ele>
        <time>2026-05-14T10:31:21+02:00</time>
      </trkpt>
      <trkpt lat="46.71259" lon="4.93433">
        <ele>176.7998</ele>
        <time>2026-05-14T10:31:22+02:00</time>
      </trkpt>
      <trkpt lat="46.71262" lon="4.93443">
        <ele>176.5</ele>
        <time>2026-05-14T10:31:23+02:00</time>
      </trkpt>
      <trkpt lat="46.71265" lon="4.93452">
        <ele>176.2998</ele>
        <time>2026-05-14T10:31:24+02:00</time>
      </trkpt>
      <trkpt lat="46.71268" lon="4.93461">
        <ele>176.10059</ele>
        <time>2026-05-14T10:31:25+02:00</time>
      </trkpt>
      <trkpt lat="46.71271" lon="4.9347">
        <ele>176</ele>
        <time>2026-05-14T10:31:26+02:00</time>
      </trkpt>
      <trkpt lat="46.71274" lon="4.93479">
        <ele>175.7002</ele>
        <time>2026-05-14T10:31:27+02:00</time>
      </trkpt>
      <trkpt lat="46.71277" lon="4.93488">
        <ele>175.60059</ele>
        <time>2026-05-14T10:31:28+02:00</time>
      </trkpt>
      <trkpt lat="46.71279" lon="4.93496">
        <ele>175.5</ele>
        <time>2026-05-14T10:31:29+02:00</time>
      </trkpt>
      <trkpt lat="46.71282" lon="4.93505">
        <ele>175.40039</ele>
        <time>2026-05-14T10:31:30+02:00</time>
      </trkpt>
      <trkpt lat="46.71285" lon="4.93514">
        <ele>175.2998</ele>
        <time>2026-05-14T10:31:31+02:00</time>
      </trkpt>
      <trkpt lat="46.71287" lon="4.93522">
        <ele>175.2002</ele>
        <time>2026-05-14T10:31:32+02:00</time>
      </trkpt>
      <trkpt lat="46.7129" lon="4.9353">
        <ele>175.10059</ele>
        <time>2026-05-14T10:31:33+02:00</time>
      </trkpt>
      <trkpt lat="46.71292" lon="4.93538">
        <ele>175.10059</ele>
        <time>2026-05-14T10:31:34+02:00</time>
      </trkpt>
      <trkpt lat="46.71295" lon="4.93546">
        <ele>175.10059</ele>
        <time>2026-05-14T10:31:35+02:00</time>
      </trkpt>
      <trkpt lat="46.71298" lon="4.93554">
        <ele>175.2002</ele>
        <time>2026-05-14T10:31:36+02:00</time>
      </trkpt>
      <trkpt lat="46.713" lon="4.93561">
        <ele>175.10059</ele>
        <time>2026-05-14T10:31:37+02:00</time>
      </trkpt>
      <trkpt lat="46.71302" lon="4.93569">
        <ele>175.10059</ele>
        <time>2026-05-14T10:31:38+02:00</time>
      </trkpt>
      <trkpt lat="46.71305" lon="4.93577">
        <ele>175.2002</ele>
        <time>2026-05-14T10:31:39+02:00</time>
      </trkpt>
      <trkpt lat="46.71307" lon="4.93585">
        <ele>175.2002</ele>
        <time>2026-05-14T10:31:40+02:00</time>
      </trkpt>
      <trkpt lat="46.7131" lon="4.93593">
        <ele>175.2002</ele>
        <time>2026-05-14T10:31:41+02:00</time>
      </trkpt>
      <trkpt lat="46.71312" lon="4.93601">
        <ele>175.10059</ele>
        <time>2026-05-14T10:31:42+02:00</time>
      </trkpt>
      <trkpt lat="46.71315" lon="4.93609">
        <ele>175.10059</ele>
        <time>2026-05-14T10:31:43+02:00</time>
      </trkpt>
      <trkpt lat="46.71317" lon="4.93617">
        <ele>175.10059</ele>
        <time>2026-05-14T10:31:44+02:00</time>
      </trkpt>
      <trkpt lat="46.7132" lon="4.93624">
        <ele>175</ele>
        <time>2026-05-14T10:31:45+02:00</time>
      </trkpt>
      <trkpt lat="46.71322" lon="4.93632">
        <ele>174.90039</ele>
        <time>2026-05-14T10:31:46+02:00</time>
      </trkpt>
      <trkpt lat="46.71325" lon="4.9364">
        <ele>174.7998</ele>
        <time>2026-05-14T10:31:47+02:00</time>
      </trkpt>
      <trkpt lat="46.71327" lon="4.93648">
        <ele>174.7998</ele>
        <time>2026-05-14T10:31:48+02:00</time>
      </trkpt>
      <trkpt lat="46.7133" lon="4.93655">
        <ele>174.7998</ele>
        <time>2026-05-14T10:31:49+02:00</time>
      </trkpt>
      <trkpt lat="46.71332" lon="4.93663">
        <ele>174.7002</ele>
        <time>2026-05-14T10:31:50+02:00</time>
      </trkpt>
      <trkpt lat="46.71335" lon="4.9367">
        <ele>174.7002</ele>
        <time>2026-05-14T10:31:51+02:00</time>
      </trkpt>
      <trkpt lat="46.71337" lon="4.93678">
        <ele>174.60059</ele>
        <time>2026-05-14T10:31:52+02:00</time>
      </trkpt>
      <trkpt lat="46.71339" lon="4.93686">
        <ele>174.60059</ele>
        <time>2026-05-14T10:31:53+02:00</time>
      </trkpt>
      <trkpt lat="46.71341" lon="4.93693">
        <ele>174.60059</ele>
        <time>2026-05-14T10:31:54+02:00</time>
      </trkpt>
      <trkpt lat="46.71344" lon="4.93701">
        <ele>174.60059</ele>
        <time>2026-05-14T10:31:55+02:00</time>
      </trkpt>
      <trkpt lat="46.71346" lon="4.93708">
        <ele>174.60059</ele>
        <time>2026-05-14T10:31:56+02:00</time>
      </trkpt>
      <trkpt lat="46.71349" lon="4.93716">
        <ele>174.60059</ele>
        <time>2026-05-14T10:31:57+02:00</time>
      </trkpt>
      <trkpt lat="46.71351" lon="4.93724">
        <ele>174.5</ele>
        <time>2026-05-14T10:31:58+02:00</time>
      </trkpt>
      <trkpt lat="46.71354" lon="4.93731">
        <ele>174.5</ele>
        <time>2026-05-14T10:31:59+02:00</time>
      </trkpt>
      <trkpt lat="46.71357" lon="4.93738">
        <ele>174.5</ele>
        <time>2026-05-14T10:32:00+02:00</time>
      </trkpt>
      <trkpt lat="46.7136" lon="4.93745">
        <ele>174.5</ele>
        <time>2026-05-14T10:32:01+02:00</time>
      </trkpt>
      <trkpt lat="46.71362" lon="4.93752">
        <ele>174.5</ele>
        <time>2026-05-14T10:32:02+02:00</time>
      </trkpt>
      <trkpt lat="46.71365" lon="4.9376">
        <ele>174.40039</ele>
        <time>2026-05-14T10:32:03+02:00</time>
      </trkpt>
      <trkpt lat="46.71367" lon="4.93767">
        <ele>174.40039</ele>
        <time>2026-05-14T10:32:04+02:00</time>
      </trkpt>
      <trkpt lat="46.7137" lon="4.93774">
        <ele>174.2998</ele>
        <time>2026-05-14T10:32:05+02:00</time>
      </trkpt>
      <trkpt lat="46.71372" lon="4.93782">
        <ele>174.2998</ele>
        <time>2026-05-14T10:32:06+02:00</time>
      </trkpt>
      <trkpt lat="46.71374" lon="4.93789">
        <ele>174.2998</ele>
        <time>2026-05-14T10:32:07+02:00</time>
      </trkpt>
      <trkpt lat="46.71377" lon="4.93796">
        <ele>174.40039</ele>
        <time>2026-05-14T10:32:08+02:00</time>
      </trkpt>
      <trkpt lat="46.71379" lon="4.93804">
        <ele>174.40039</ele>
        <time>2026-05-14T10:32:09+02:00</time>
      </trkpt>
      <trkpt lat="46.71381" lon="4.93811">
        <ele>174.40039</ele>
        <time>2026-05-14T10:32:10+02:00</time>
      </trkpt>
      <trkpt lat="46.71383" lon="4.93819">
        <ele>174.5</ele>
        <time>2026-05-14T10:32:11+02:00</time>
      </trkpt>
      <trkpt lat="46.71385" lon="4.93826">
        <ele>174.5</ele>
        <time>2026-05-14T10:32:12+02:00</time>
      </trkpt>
      <trkpt lat="46.71387" lon="4.93834">
        <ele>174.60059</ele>
        <time>2026-05-14T10:32:13+02:00</time>
      </trkpt>
      <trkpt lat="46.7139" lon="4.93841">
        <ele>174.7002</ele>
        <time>2026-05-14T10:32:14+02:00</time>
      </trkpt>
      <trkpt lat="46.71392" lon="4.93849">
        <ele>174.90039</ele>
        <time>2026-05-14T10:32:15+02:00</time>
      </trkpt>
      <trkpt lat="46.71394" lon="4.93856">
        <ele>175</ele>
        <time>2026-05-14T10:32:16+02:00</time>
      </trkpt>
      <trkpt lat="46.71397" lon="4.93864">
        <ele>175.2002</ele>
        <time>2026-05-14T10:32:17+02:00</time>
      </trkpt>
      <trkpt lat="46.71399" lon="4.93872">
        <ele>175.40039</ele>
        <time>2026-05-14T10:32:18+02:00</time>
      </trkpt>
      <trkpt lat="46.71402" lon="4.9388">
        <ele>175.5</ele>
        <time>2026-05-14T10:32:19+02:00</time>
      </trkpt>
      <trkpt lat="46.71404" lon="4.93888">
        <ele>175.7002</ele>
        <time>2026-05-14T10:32:20+02:00</time>
      </trkpt>
      <trkpt lat="46.71407" lon="4.93895">
        <ele>175.7002</ele>
        <time>2026-05-14T10:32:21+02:00</time>
      </trkpt>
      <trkpt lat="46.71409" lon="4.93903">
        <ele>175.7998</ele>
        <time>2026-05-14T10:32:22+02:00</time>
      </trkpt>
      <trkpt lat="46.71412" lon="4.93911">
        <ele>175.90039</ele>
        <time>2026-05-14T10:32:23+02:00</time>
      </trkpt>
      <trkpt lat="46.71414" lon="4.93918">
        <ele>176</ele>
        <time>2026-05-14T10:32:24+02:00</time>
      </trkpt>
      <trkpt lat="46.71416" lon="4.93926">
        <ele>175.90039</ele>
        <time>2026-05-14T10:32:25+02:00</time>
      </trkpt>
      <trkpt lat="46.71419" lon="4.93934">
        <ele>176</ele>
        <time>2026-05-14T10:32:26+02:00</time>
      </trkpt>
      <trkpt lat="46.71421" lon="4.93941">
        <ele>175.90039</ele>
        <time>2026-05-14T10:32:27+02:00</time>
      </trkpt>
      <trkpt lat="46.71423" lon="4.93949">
        <ele>175.90039</ele>
        <time>2026-05-14T10:32:28+02:00</time>
      </trkpt>
      <trkpt lat="46.71426" lon="4.93956">
        <ele>176</ele>
        <time>2026-05-14T10:32:29+02:00</time>
      </trkpt>
      <trkpt lat="46.71428" lon="4.93964">
        <ele>175.7998</ele>
        <time>2026-05-14T10:32:30+02:00</time>
      </trkpt>
      <trkpt lat="46.71431" lon="4.93971">
        <ele>175.7998</ele>
        <time>2026-05-14T10:32:31+02:00</time>
      </trkpt>
      <trkpt lat="46.71433" lon="4.93979">
        <ele>175.7002</ele>
        <time>2026-05-14T10:32:32+02:00</time>
      </trkpt>
      <trkpt lat="46.71436" lon="4.93986">
        <ele>175.7998</ele>
        <time>2026-05-14T10:32:33+02:00</time>
      </trkpt>
      <trkpt lat="46.71438" lon="4.93993">
        <ele>175.7998</ele>
        <time>2026-05-14T10:32:34+02:00</time>
      </trkpt>
      <trkpt lat="46.71441" lon="4.94001">
        <ele>175.7002</ele>
        <time>2026-05-14T10:32:35+02:00</time>
      </trkpt>
      <trkpt lat="46.71443" lon="4.94009">
        <ele>175.60059</ele>
        <time>2026-05-14T10:32:36+02:00</time>
      </trkpt>
      <trkpt lat="46.71445" lon="4.94016">
        <ele>175.5</ele>
        <time>2026-05-14T10:32:37+02:00</time>
      </trkpt>
      <trkpt lat="46.71448" lon="4.94024">
        <ele>175.5</ele>
        <time>2026-05-14T10:32:38+02:00</time>
      </trkpt>
      <trkpt lat="46.7145" lon="4.94031">
        <ele>175.5</ele>
        <time>2026-05-14T10:32:39+02:00</time>
      </trkpt>
      <trkpt lat="46.71452" lon="4.94038">
        <ele>175.40039</ele>
        <time>2026-05-14T10:32:40+02:00</time>
      </trkpt>
      <trkpt lat="46.71455" lon="4.94046">
        <ele>175.40039</ele>
        <time>2026-05-14T10:32:41+02:00</time>
      </trkpt>
      <trkpt lat="46.71462" lon="4.94068">
        <ele>175.40039</ele>
        <time>2026-05-14T10:32:42+02:00</time>
      </trkpt>
      <trkpt lat="46.71464" lon="4.94076">
        <ele>175.5</ele>
        <time>2026-05-14T10:32:43+02:00</time>
      </trkpt>
      <trkpt lat="46.71467" lon="4.94083">
        <ele>175.5</ele>
        <time>2026-05-14T10:32:44+02:00</time>
      </trkpt>
      <trkpt lat="46.71469" lon="4.94091">
        <ele>175.60059</ele>
        <time>2026-05-14T10:32:45+02:00</time>
      </trkpt>
      <trkpt lat="46.71472" lon="4.94098">
        <ele>175.60059</ele>
        <time>2026-05-14T10:32:46+02:00</time>
      </trkpt>
      <trkpt lat="46.71474" lon="4.94105">
        <ele>175.7998</ele>
        <time>2026-05-14T10:32:47+02:00</time>
      </trkpt>
      <trkpt lat="46.71476" lon="4.94113">
        <ele>175.7998</ele>
        <time>2026-05-14T10:32:48+02:00</time>
      </trkpt>
      <trkpt lat="46.71478" lon="4.9412">
        <ele>175.90039</ele>
        <time>2026-05-14T10:32:49+02:00</time>
      </trkpt>
      <trkpt lat="46.71481" lon="4.94127">
        <ele>176</ele>
        <time>2026-05-14T10:32:50+02:00</time>
      </trkpt>
      <trkpt lat="46.71484" lon="4.94135">
        <ele>176</ele>
        <time>2026-05-14T10:32:51+02:00</time>
      </trkpt>
      <trkpt lat="46.71486" lon="4.94142">
        <ele>176.2002</ele>
        <time>2026-05-14T10:32:52+02:00</time>
      </trkpt>
      <trkpt lat="46.71488" lon="4.9415">
        <ele>176.2002</ele>
        <time>2026-05-14T10:32:53+02:00</time>
      </trkpt>
      <trkpt lat="46.71491" lon="4.94157">
        <ele>176.2998</ele>
        <time>2026-05-14T10:32:54+02:00</time>
      </trkpt>
      <trkpt lat="46.71493" lon="4.94165">
        <ele>176.2998</ele>
        <time>2026-05-14T10:32:55+02:00</time>
      </trkpt>
      <trkpt lat="46.71496" lon="4.94172">
        <ele>176.2998</ele>
        <time>2026-05-14T10:32:56+02:00</time>
      </trkpt>
      <trkpt lat="46.71498" lon="4.9418">
        <ele>176.2998</ele>
        <time>2026-05-14T10:32:57+02:00</time>
      </trkpt>
      <trkpt lat="46.715" lon="4.94187">
        <ele>176.2998</ele>
        <time>2026-05-14T10:32:58+02:00</time>
      </trkpt>
      <trkpt lat="46.71502" lon="4.94194">
        <ele>176.2002</ele>
        <time>2026-05-14T10:32:59+02:00</time>
      </trkpt>
      <trkpt lat="46.71505" lon="4.94201">
        <ele>176.10059</ele>
        <time>2026-05-14T10:33:00+02:00</time>
      </trkpt>
      <trkpt lat="46.71507" lon="4.94208">
        <ele>176</ele>
        <time>2026-05-14T10:33:01+02:00</time>
      </trkpt>
      <trkpt lat="46.7151" lon="4.94216">
        <ele>175.90039</ele>
        <time>2026-05-14T10:33:02+02:00</time>
      </trkpt>
      <trkpt lat="46.71512" lon="4.94223">
        <ele>175.90039</ele>
        <time>2026-05-14T10:33:03+02:00</time>
      </trkpt>
      <trkpt lat="46.71514" lon="4.94231">
        <ele>175.7998</ele>
        <time>2026-05-14T10:33:04+02:00</time>
      </trkpt>
      <trkpt lat="46.71517" lon="4.94238">
        <ele>175.7998</ele>
        <time>2026-05-14T10:33:05+02:00</time>
      </trkpt>
      <trkpt lat="46.71519" lon="4.94246">
        <ele>175.7998</ele>
        <time>2026-05-14T10:33:06+02:00</time>
      </trkpt>
      <trkpt lat="46.71522" lon="4.94253">
        <ele>175.7998</ele>
        <time>2026-05-14T10:33:07+02:00</time>
      </trkpt>
      <trkpt lat="46.71524" lon="4.9426">
        <ele>175.90039</ele>
        <time>2026-05-14T10:33:08+02:00</time>
      </trkpt>
      <trkpt lat="46.71526" lon="4.94268">
        <ele>176.10059</ele>
        <time>2026-05-14T10:33:09+02:00</time>
      </trkpt>
      <trkpt lat="46.71528" lon="4.94275">
        <ele>176.2002</ele>
        <time>2026-05-14T10:33:10+02:00</time>
      </trkpt>
      <trkpt lat="46.71531" lon="4.94282">
        <ele>176.2998</ele>
        <time>2026-05-14T10:33:11+02:00</time>
      </trkpt>
      <trkpt lat="46.71533" lon="4.94289">
        <ele>176.2998</ele>
        <time>2026-05-14T10:33:12+02:00</time>
      </trkpt>
      <trkpt lat="46.71535" lon="4.94296">
        <ele>176.5</ele>
        <time>2026-05-14T10:33:13+02:00</time>
      </trkpt>
      <trkpt lat="46.71538" lon="4.94304">
        <ele>176.7002</ele>
        <time>2026-05-14T10:33:14+02:00</time>
      </trkpt>
      <trkpt lat="46.7154" lon="4.94311">
        <ele>176.7998</ele>
        <time>2026-05-14T10:33:15+02:00</time>
      </trkpt>
      <trkpt lat="46.71542" lon="4.94318">
        <ele>176.90039</ele>
        <time>2026-05-14T10:33:16+02:00</time>
      </trkpt>
      <trkpt lat="46.71544" lon="4.94325">
        <ele>177.10059</ele>
        <time>2026-05-14T10:33:17+02:00</time>
      </trkpt>
      <trkpt lat="46.71547" lon="4.94332">
        <ele>177</ele>
        <time>2026-05-14T10:33:18+02:00</time>
      </trkpt>
      <trkpt lat="46.71549" lon="4.9434">
        <ele>177.2002</ele>
        <time>2026-05-14T10:33:19+02:00</time>
      </trkpt>
      <trkpt lat="46.71552" lon="4.94347">
        <ele>177.2998</ele>
        <time>2026-05-14T10:33:20+02:00</time>
      </trkpt>
      <trkpt lat="46.71554" lon="4.94354">
        <ele>177.40039</ele>
        <time>2026-05-14T10:33:21+02:00</time>
      </trkpt>
      <trkpt lat="46.71557" lon="4.94362">
        <ele>177.40039</ele>
        <time>2026-05-14T10:33:22+02:00</time>
      </trkpt>
      <trkpt lat="46.71558" lon="4.94365">
        <ele>177.40039</ele>
        <time>2026-05-14T10:33:23+02:00</time>
      </trkpt>
      <trkpt lat="46.71562" lon="4.94376">
        <ele>177.5</ele>
        <time>2026-05-14T10:33:24+02:00</time>
      </trkpt>
      <trkpt lat="46.71564" lon="4.94384">
        <ele>177.60059</ele>
        <time>2026-05-14T10:33:25+02:00</time>
      </trkpt>
      <trkpt lat="46.71567" lon="4.94392">
        <ele>177.7002</ele>
        <time>2026-05-14T10:33:26+02:00</time>
      </trkpt>
      <trkpt lat="46.71569" lon="4.94399">
        <ele>177.7998</ele>
        <time>2026-05-14T10:33:27+02:00</time>
      </trkpt>
      <trkpt lat="46.71571" lon="4.94407">
        <ele>177.90039</ele>
        <time>2026-05-14T10:33:28+02:00</time>
      </trkpt>
      <trkpt lat="46.71574" lon="4.94415">
        <ele>177.90039</ele>
        <time>2026-05-14T10:33:29+02:00</time>
      </trkpt>
      <trkpt lat="46.71576" lon="4.94422">
        <ele>177.90039</ele>
        <time>2026-05-14T10:33:30+02:00</time>
      </trkpt>
      <trkpt lat="46.71579" lon="4.9443">
        <ele>177.90039</ele>
        <time>2026-05-14T10:33:31+02:00</time>
      </trkpt>
      <trkpt lat="46.71581" lon="4.94437">
        <ele>177.7002</ele>
        <time>2026-05-14T10:33:32+02:00</time>
      </trkpt>
      <trkpt lat="46.71584" lon="4.94445">
        <ele>177.7002</ele>
        <time>2026-05-14T10:33:33+02:00</time>
      </trkpt>
      <trkpt lat="46.71586" lon="4.94453">
        <ele>177.5</ele>
        <time>2026-05-14T10:33:34+02:00</time>
      </trkpt>
      <trkpt lat="46.71589" lon="4.94461">
        <ele>177.5</ele>
        <time>2026-05-14T10:33:35+02:00</time>
      </trkpt>
      <trkpt lat="46.71591" lon="4.94468">
        <ele>177.5</ele>
        <time>2026-05-14T10:33:36+02:00</time>
      </trkpt>
      <trkpt lat="46.71594" lon="4.94476">
        <ele>177.40039</ele>
        <time>2026-05-14T10:33:37+02:00</time>
      </trkpt>
      <trkpt lat="46.71596" lon="4.94483">
        <ele>177.40039</ele>
        <time>2026-05-14T10:33:38+02:00</time>
      </trkpt>
      <trkpt lat="46.71599" lon="4.94491">
        <ele>177.2998</ele>
        <time>2026-05-14T10:33:39+02:00</time>
      </trkpt>
      <trkpt lat="46.71601" lon="4.94499">
        <ele>177.40039</ele>
        <time>2026-05-14T10:33:40+02:00</time>
      </trkpt>
      <trkpt lat="46.71604" lon="4.94506">
        <ele>177.2998</ele>
        <time>2026-05-14T10:33:41+02:00</time>
      </trkpt>
      <trkpt lat="46.71606" lon="4.94514">
        <ele>177.40039</ele>
        <time>2026-05-14T10:33:42+02:00</time>
      </trkpt>
      <trkpt lat="46.71608" lon="4.94522">
        <ele>177.40039</ele>
        <time>2026-05-14T10:33:43+02:00</time>
      </trkpt>
      <trkpt lat="46.71611" lon="4.9453">
        <ele>177.2998</ele>
        <time>2026-05-14T10:33:44+02:00</time>
      </trkpt>
      <trkpt lat="46.71613" lon="4.94538">
        <ele>177.40039</ele>
        <time>2026-05-14T10:33:45+02:00</time>
      </trkpt>
      <trkpt lat="46.71616" lon="4.94545">
        <ele>177.5</ele>
        <time>2026-05-14T10:33:46+02:00</time>
      </trkpt>
      <trkpt lat="46.71618" lon="4.94553">
        <ele>177.5</ele>
        <time>2026-05-14T10:33:47+02:00</time>
      </trkpt>
      <trkpt lat="46.71621" lon="4.94561">
        <ele>177.60059</ele>
        <time>2026-05-14T10:33:48+02:00</time>
      </trkpt>
      <trkpt lat="46.71623" lon="4.94569">
        <ele>177.7002</ele>
        <time>2026-05-14T10:33:49+02:00</time>
      </trkpt>
      <trkpt lat="46.71626" lon="4.94576">
        <ele>177.7002</ele>
        <time>2026-05-14T10:33:50+02:00</time>
      </trkpt>
      <trkpt lat="46.71628" lon="4.94584">
        <ele>177.7998</ele>
        <time>2026-05-14T10:33:51+02:00</time>
      </trkpt>
      <trkpt lat="46.7163" lon="4.94592">
        <ele>177.7998</ele>
        <time>2026-05-14T10:33:52+02:00</time>
      </trkpt>
      <trkpt lat="46.71633" lon="4.94599">
        <ele>177.7998</ele>
        <time>2026-05-14T10:33:53+02:00</time>
      </trkpt>
      <trkpt lat="46.71635" lon="4.94607">
        <ele>177.7998</ele>
        <time>2026-05-14T10:33:54+02:00</time>
      </trkpt>
      <trkpt lat="46.71638" lon="4.94614">
        <ele>177.7002</ele>
        <time>2026-05-14T10:33:55+02:00</time>
      </trkpt>
      <trkpt lat="46.71641" lon="4.94621">
        <ele>177.7002</ele>
        <time>2026-05-14T10:33:56+02:00</time>
      </trkpt>
      <trkpt lat="46.71642" lon="4.94629">
        <ele>177.7002</ele>
        <time>2026-05-14T10:33:57+02:00</time>
      </trkpt>
      <trkpt lat="46.71645" lon="4.94637">
        <ele>177.7002</ele>
        <time>2026-05-14T10:33:58+02:00</time>
      </trkpt>
      <trkpt lat="46.71647" lon="4.94644">
        <ele>177.7002</ele>
        <time>2026-05-14T10:33:59+02:00</time>
      </trkpt>
      <trkpt lat="46.71649" lon="4.94651">
        <ele>177.7002</ele>
        <time>2026-05-14T10:34:00+02:00</time>
      </trkpt>
      <trkpt lat="46.71652" lon="4.94659">
        <ele>177.7002</ele>
        <time>2026-05-14T10:34:01+02:00</time>
      </trkpt>
      <trkpt lat="46.71654" lon="4.94667">
        <ele>177.7002</ele>
        <time>2026-05-14T10:34:02+02:00</time>
      </trkpt>
      <trkpt lat="46.71657" lon="4.94674">
        <ele>177.7002</ele>
        <time>2026-05-14T10:34:03+02:00</time>
      </trkpt>
      <trkpt lat="46.71659" lon="4.94682">
        <ele>177.7002</ele>
        <time>2026-05-14T10:34:04+02:00</time>
      </trkpt>
      <trkpt lat="46.71661" lon="4.94689">
        <ele>177.7002</ele>
        <time>2026-05-14T10:34:05+02:00</time>
      </trkpt>
      <trkpt lat="46.71663" lon="4.94697">
        <ele>177.7002</ele>
        <time>2026-05-14T10:34:06+02:00</time>
      </trkpt>
      <trkpt lat="46.71666" lon="4.94705">
        <ele>177.7002</ele>
        <time>2026-05-14T10:34:07+02:00</time>
      </trkpt>
      <trkpt lat="46.71669" lon="4.94712">
        <ele>177.7002</ele>
        <time>2026-05-14T10:34:08+02:00</time>
      </trkpt>
      <trkpt lat="46.71671" lon="4.9472">
        <ele>177.7002</ele>
        <time>2026-05-14T10:34:09+02:00</time>
      </trkpt>
      <trkpt lat="46.71674" lon="4.94727">
        <ele>177.7002</ele>
        <time>2026-05-14T10:34:10+02:00</time>
      </trkpt>
      <trkpt lat="46.71677" lon="4.94734">
        <ele>177.7998</ele>
        <time>2026-05-14T10:34:11+02:00</time>
      </trkpt>
      <trkpt lat="46.71679" lon="4.94741">
        <ele>177.7998</ele>
        <time>2026-05-14T10:34:12+02:00</time>
      </trkpt>
      <trkpt lat="46.71683" lon="4.94748">
        <ele>177.7002</ele>
        <time>2026-05-14T10:34:13+02:00</time>
      </trkpt>
      <trkpt lat="46.71686" lon="4.94755">
        <ele>177.7002</ele>
        <time>2026-05-14T10:34:14+02:00</time>
      </trkpt>
      <trkpt lat="46.71689" lon="4.94761">
        <ele>177.7002</ele>
        <time>2026-05-14T10:34:15+02:00</time>
      </trkpt>
      <trkpt lat="46.71692" lon="4.94768">
        <ele>177.60059</ele>
        <time>2026-05-14T10:34:16+02:00</time>
      </trkpt>
      <trkpt lat="46.71696" lon="4.94774">
        <ele>177.60059</ele>
        <time>2026-05-14T10:34:17+02:00</time>
      </trkpt>
      <trkpt lat="46.717" lon="4.9478">
        <ele>177.40039</ele>
        <time>2026-05-14T10:34:18+02:00</time>
      </trkpt>
      <trkpt lat="46.71704" lon="4.94786">
        <ele>177.40039</ele>
        <time>2026-05-14T10:34:19+02:00</time>
      </trkpt>
      <trkpt lat="46.71708" lon="4.94793">
        <ele>177.2998</ele>
        <time>2026-05-14T10:34:20+02:00</time>
      </trkpt>
      <trkpt lat="46.71711" lon="4.94799">
        <ele>177.10059</ele>
        <time>2026-05-14T10:34:21+02:00</time>
      </trkpt>
      <trkpt lat="46.71715" lon="4.94805">
        <ele>177</ele>
        <time>2026-05-14T10:34:22+02:00</time>
      </trkpt>
      <trkpt lat="46.71719" lon="4.94812">
        <ele>176.7998</ele>
        <time>2026-05-14T10:34:23+02:00</time>
      </trkpt>
      <trkpt lat="46.71722" lon="4.94818">
        <ele>176.60059</ele>
        <time>2026-05-14T10:34:24+02:00</time>
      </trkpt>
      <trkpt lat="46.71726" lon="4.94824">
        <ele>176.5</ele>
        <time>2026-05-14T10:34:25+02:00</time>
      </trkpt>
      <trkpt lat="46.71729" lon="4.94831">
        <ele>176.40039</ele>
        <time>2026-05-14T10:34:26+02:00</time>
      </trkpt>
      <trkpt lat="46.71733" lon="4.94837">
        <ele>176.2998</ele>
        <time>2026-05-14T10:34:27+02:00</time>
      </trkpt>
      <trkpt lat="46.71737" lon="4.94843">
        <ele>176.2002</ele>
        <time>2026-05-14T10:34:28+02:00</time>
      </trkpt>
      <trkpt lat="46.7174" lon="4.94849">
        <ele>176.10059</ele>
        <time>2026-05-14T10:34:29+02:00</time>
      </trkpt>
      <trkpt lat="46.71744" lon="4.94855">
        <ele>176.10059</ele>
        <time>2026-05-14T10:34:30+02:00</time>
      </trkpt>
      <trkpt lat="46.71747" lon="4.94861">
        <ele>176.10059</ele>
        <time>2026-05-14T10:34:31+02:00</time>
      </trkpt>
      <trkpt lat="46.71751" lon="4.94867">
        <ele>176.10059</ele>
        <time>2026-05-14T10:34:32+02:00</time>
      </trkpt>
      <trkpt lat="46.71755" lon="4.94873">
        <ele>176.10059</ele>
        <time>2026-05-14T10:34:33+02:00</time>
      </trkpt>
      <trkpt lat="46.71758" lon="4.94879">
        <ele>176.2002</ele>
        <time>2026-05-14T10:34:34+02:00</time>
      </trkpt>
      <trkpt lat="46.71761" lon="4.94885">
        <ele>176.2002</ele>
        <time>2026-05-14T10:34:35+02:00</time>
      </trkpt>
      <trkpt lat="46.71765" lon="4.94891">
        <ele>176.2998</ele>
        <time>2026-05-14T10:34:36+02:00</time>
      </trkpt>
      <trkpt lat="46.71769" lon="4.94896">
        <ele>176.5</ele>
        <time>2026-05-14T10:34:37+02:00</time>
      </trkpt>
      <trkpt lat="46.71772" lon="4.94902">
        <ele>176.5</ele>
        <time>2026-05-14T10:34:38+02:00</time>
      </trkpt>
      <trkpt lat="46.71776" lon="4.94908">
        <ele>176.60059</ele>
        <time>2026-05-14T10:34:39+02:00</time>
      </trkpt>
      <trkpt lat="46.71779" lon="4.94913">
        <ele>176.60059</ele>
        <time>2026-05-14T10:34:40+02:00</time>
      </trkpt>
      <trkpt lat="46.71783" lon="4.94918">
        <ele>176.7998</ele>
        <time>2026-05-14T10:34:41+02:00</time>
      </trkpt>
      <trkpt lat="46.71786" lon="4.94924">
        <ele>177</ele>
        <time>2026-05-14T10:34:42+02:00</time>
      </trkpt>
      <trkpt lat="46.7179" lon="4.9493">
        <ele>177</ele>
        <time>2026-05-14T10:34:43+02:00</time>
      </trkpt>
      <trkpt lat="46.71793" lon="4.94936">
        <ele>177.2002</ele>
        <time>2026-05-14T10:34:44+02:00</time>
      </trkpt>
      <trkpt lat="46.71797" lon="4.94941">
        <ele>177.2002</ele>
        <time>2026-05-14T10:34:45+02:00</time>
      </trkpt>
      <trkpt lat="46.71799" lon="4.94944">
        <ele>177.40039</ele>
        <time>2026-05-14T10:34:46+02:00</time>
      </trkpt>
      <trkpt lat="46.71805" lon="4.94953">
        <ele>177.60059</ele>
        <time>2026-05-14T10:34:47+02:00</time>
      </trkpt>
      <trkpt lat="46.71808" lon="4.94959">
        <ele>177.60059</ele>
        <time>2026-05-14T10:34:48+02:00</time>
      </trkpt>
      <trkpt lat="46.71812" lon="4.94965">
        <ele>177.90039</ele>
        <time>2026-05-14T10:34:49+02:00</time>
      </trkpt>
      <trkpt lat="46.71816" lon="4.94971">
        <ele>178.10059</ele>
        <time>2026-05-14T10:34:50+02:00</time>
      </trkpt>
      <trkpt lat="46.71819" lon="4.94977">
        <ele>178.2002</ele>
        <time>2026-05-14T10:34:51+02:00</time>
      </trkpt>
      <trkpt lat="46.71823" lon="4.94983">
        <ele>178.40039</ele>
        <time>2026-05-14T10:34:52+02:00</time>
      </trkpt>
      <trkpt lat="46.71825" lon="4.94986">
        <ele>178.5</ele>
        <time>2026-05-14T10:34:53+02:00</time>
      </trkpt>
      <trkpt lat="46.71831" lon="4.94994">
        <ele>178.7002</ele>
        <time>2026-05-14T10:34:54+02:00</time>
      </trkpt>
      <trkpt lat="46.71834" lon="4.94998">
        <ele>179</ele>
        <time>2026-05-14T10:34:55+02:00</time>
      </trkpt>
      <trkpt lat="46.71838" lon="4.95003">
        <ele>179.10059</ele>
        <time>2026-05-14T10:34:56+02:00</time>
      </trkpt>
      <trkpt lat="46.71841" lon="4.95008">
        <ele>179.2998</ele>
        <time>2026-05-14T10:34:57+02:00</time>
      </trkpt>
      <trkpt lat="46.71843" lon="4.95012">
        <ele>179.40039</ele>
        <time>2026-05-14T10:34:58+02:00</time>
      </trkpt>
      <trkpt lat="46.71847" lon="4.95016">
        <ele>179.60059</ele>
        <time>2026-05-14T10:34:59+02:00</time>
      </trkpt>
      <trkpt lat="46.71849" lon="4.9502">
        <ele>179.7998</ele>
        <time>2026-05-14T10:35:00+02:00</time>
      </trkpt>
      <trkpt lat="46.71852" lon="4.95023">
        <ele>180</ele>
        <time>2026-05-14T10:35:01+02:00</time>
      </trkpt>
      <trkpt lat="46.71854" lon="4.95026">
        <ele>180</ele>
        <time>2026-05-14T10:35:02+02:00</time>
      </trkpt>
      <trkpt lat="46.71856" lon="4.95029">
        <ele>180.10059</ele>
        <time>2026-05-14T10:35:03+02:00</time>
      </trkpt>
      <trkpt lat="46.71859" lon="4.95032">
        <ele>180.2998</ele>
        <time>2026-05-14T10:35:04+02:00</time>
      </trkpt>
      <trkpt lat="46.71861" lon="4.95036">
        <ele>180.2998</ele>
        <time>2026-05-14T10:35:05+02:00</time>
      </trkpt>
      <trkpt lat="46.71863" lon="4.9504">
        <ele>180.7002</ele>
        <time>2026-05-14T10:35:06+02:00</time>
      </trkpt>
      <trkpt lat="46.71865" lon="4.95043">
        <ele>180.7002</ele>
        <time>2026-05-14T10:35:07+02:00</time>
      </trkpt>
      <trkpt lat="46.71868" lon="4.95046">
        <ele>181</ele>
        <time>2026-05-14T10:35:08+02:00</time>
      </trkpt>
      <trkpt lat="46.71871" lon="4.95046">
        <ele>181</ele>
        <time>2026-05-14T10:35:09+02:00</time>
      </trkpt>
      <trkpt lat="46.71872" lon="4.95045">
        <ele>180.90039</ele>
        <time>2026-05-14T10:35:10+02:00</time>
      </trkpt>
      <trkpt lat="46.71877" lon="4.95042">
        <ele>181.10059</ele>
        <time>2026-05-14T10:35:11+02:00</time>
      </trkpt>
      <trkpt lat="46.7188" lon="4.95044">
        <ele>181.2998</ele>
        <time>2026-05-14T10:35:12+02:00</time>
      </trkpt>
      <trkpt lat="46.71882" lon="4.95047">
        <ele>181.40039</ele>
        <time>2026-05-14T10:35:13+02:00</time>
      </trkpt>
      <trkpt lat="46.71884" lon="4.95051">
        <ele>181.40039</ele>
        <time>2026-05-14T10:35:14+02:00</time>
      </trkpt>
      <trkpt lat="46.71884" lon="4.95054">
        <ele>181.40039</ele>
        <time>2026-05-14T10:35:15+02:00</time>
      </trkpt>
      <trkpt lat="46.71885" lon="4.95057">
        <ele>181.60059</ele>
        <time>2026-05-14T10:35:16+02:00</time>
      </trkpt>
      <trkpt lat="46.71885" lon="4.9506">
        <ele>181.60059</ele>
        <time>2026-05-14T10:35:17+02:00</time>
      </trkpt>
      <trkpt lat="46.71886" lon="4.95064">
        <ele>181.90039</ele>
        <time>2026-05-14T10:35:18+02:00</time>
      </trkpt>
      <trkpt lat="46.71887" lon="4.95068">
        <ele>181.90039</ele>
        <time>2026-05-14T10:35:19+02:00</time>
      </trkpt>
      <trkpt lat="46.71888" lon="4.95072">
        <ele>182</ele>
        <time>2026-05-14T10:35:20+02:00</time>
      </trkpt>
      <trkpt lat="46.71888" lon="4.95075">
        <ele>182</ele>
        <time>2026-05-14T10:35:21+02:00</time>
      </trkpt>
      <trkpt lat="46.71889" lon="4.95078">
        <ele>182</ele>
        <time>2026-05-14T10:35:22+02:00</time>
      </trkpt>
      <trkpt lat="46.7189" lon="4.95082">
        <ele>182.10059</ele>
        <time>2026-05-14T10:35:23+02:00</time>
      </trkpt>
      <trkpt lat="46.71891" lon="4.95086">
        <ele>182.10059</ele>
        <time>2026-05-14T10:35:24+02:00</time>
      </trkpt>
      <trkpt lat="46.71892" lon="4.9509">
        <ele>182.40039</ele>
        <time>2026-05-14T10:35:25+02:00</time>
      </trkpt>
      <trkpt lat="46.71892" lon="4.95094">
        <ele>182.40039</ele>
        <time>2026-05-14T10:35:26+02:00</time>
      </trkpt>
      <trkpt lat="46.71893" lon="4.95099">
        <ele>182.40039</ele>
        <time>2026-05-14T10:35:27+02:00</time>
      </trkpt>
      <trkpt lat="46.71894" lon="4.95103">
        <ele>182.40039</ele>
        <time>2026-05-14T10:35:28+02:00</time>
      </trkpt>
      <trkpt lat="46.71895" lon="4.95108">
        <ele>182.5</ele>
        <time>2026-05-14T10:35:29+02:00</time>
      </trkpt>
      <trkpt lat="46.71896" lon="4.95114">
        <ele>182.5</ele>
        <time>2026-05-14T10:35:30+02:00</time>
      </trkpt>
      <trkpt lat="46.71898" lon="4.95119">
        <ele>182.7002</ele>
        <time>2026-05-14T10:35:31+02:00</time>
      </trkpt>
      <trkpt lat="46.71899" lon="4.95125">
        <ele>182.7998</ele>
        <time>2026-05-14T10:35:32+02:00</time>
      </trkpt>
      <trkpt lat="46.719" lon="4.9513">
        <ele>182.7998</ele>
        <time>2026-05-14T10:35:33+02:00</time>
      </trkpt>
      <trkpt lat="46.71901" lon="4.95136">
        <ele>182.7998</ele>
        <time>2026-05-14T10:35:34+02:00</time>
      </trkpt>
      <trkpt lat="46.71903" lon="4.95141">
        <ele>182.90039</ele>
        <time>2026-05-14T10:35:35+02:00</time>
      </trkpt>
      <trkpt lat="46.71904" lon="4.95146">
        <ele>183.10059</ele>
        <time>2026-05-14T10:35:36+02:00</time>
      </trkpt>
      <trkpt lat="46.71905" lon="4.95151">
        <ele>183.2002</ele>
        <time>2026-05-14T10:35:37+02:00</time>
      </trkpt>
      <trkpt lat="46.71906" lon="4.95154">
        <ele>183.2002</ele>
        <time>2026-05-14T10:35:38+02:00</time>
      </trkpt>
      <trkpt lat="46.71909" lon="4.95161">
        <ele>183.2002</ele>
        <time>2026-05-14T10:35:39+02:00</time>
      </trkpt>
      <trkpt lat="46.71911" lon="4.95166">
        <ele>183.40039</ele>
        <time>2026-05-14T10:35:40+02:00</time>
      </trkpt>
      <trkpt lat="46.71913" lon="4.9517">
        <ele>183.40039</ele>
        <time>2026-05-14T10:35:41+02:00</time>
      </trkpt>
      <trkpt lat="46.71915" lon="4.95174">
        <ele>183.40039</ele>
        <time>2026-05-14T10:35:42+02:00</time>
      </trkpt>
      <trkpt lat="46.71917" lon="4.95179">
        <ele>183.7002</ele>
        <time>2026-05-14T10:35:43+02:00</time>
      </trkpt>
      <trkpt lat="46.71919" lon="4.95183">
        <ele>183.7002</ele>
        <time>2026-05-14T10:35:44+02:00</time>
      </trkpt>
      <trkpt lat="46.71922" lon="4.95187">
        <ele>184</ele>
        <time>2026-05-14T10:35:45+02:00</time>
      </trkpt>
      <trkpt lat="46.71924" lon="4.9519">
        <ele>184</ele>
        <time>2026-05-14T10:35:46+02:00</time>
      </trkpt>
      <trkpt lat="46.71927" lon="4.95194">
        <ele>184</ele>
        <time>2026-05-14T10:35:47+02:00</time>
      </trkpt>
      <trkpt lat="46.71929" lon="4.95197">
        <ele>184.2998</ele>
        <time>2026-05-14T10:35:48+02:00</time>
      </trkpt>
      <trkpt lat="46.71932" lon="4.952">
        <ele>184.2998</ele>
        <time>2026-05-14T10:35:49+02:00</time>
      </trkpt>
      <trkpt lat="46.71935" lon="4.95203">
        <ele>184.7002</ele>
        <time>2026-05-14T10:35:50+02:00</time>
      </trkpt>
      <trkpt lat="46.71937" lon="4.95206">
        <ele>184.7002</ele>
        <time>2026-05-14T10:35:51+02:00</time>
      </trkpt>
      <trkpt lat="46.7194" lon="4.95209">
        <ele>185.10059</ele>
        <time>2026-05-14T10:35:52+02:00</time>
      </trkpt>
      <trkpt lat="46.71943" lon="4.95211">
        <ele>185.10059</ele>
        <time>2026-05-14T10:35:53+02:00</time>
      </trkpt>
      <trkpt lat="46.71946" lon="4.95213">
        <ele>185.40039</ele>
        <time>2026-05-14T10:35:54+02:00</time>
      </trkpt>
      <trkpt lat="46.71949" lon="4.95215">
        <ele>185.40039</ele>
        <time>2026-05-14T10:35:55+02:00</time>
      </trkpt>
      <trkpt lat="46.71952" lon="4.95217">
        <ele>185.7002</ele>
        <time>2026-05-14T10:35:56+02:00</time>
      </trkpt>
      <trkpt lat="46.71956" lon="4.95218">
        <ele>185.7998</ele>
        <time>2026-05-14T10:35:57+02:00</time>
      </trkpt>
      <trkpt lat="46.71959" lon="4.9522">
        <ele>186.10059</ele>
        <time>2026-05-14T10:35:58+02:00</time>
      </trkpt>
      <trkpt lat="46.71962" lon="4.95222">
        <ele>186.10059</ele>
        <time>2026-05-14T10:35:59+02:00</time>
      </trkpt>
      <trkpt lat="46.71966" lon="4.95223">
        <ele>186.40039</ele>
        <time>2026-05-14T10:36:00+02:00</time>
      </trkpt>
      <trkpt lat="46.71969" lon="4.95224">
        <ele>186.7998</ele>
        <time>2026-05-14T10:36:01+02:00</time>
      </trkpt>
      <trkpt lat="46.71973" lon="4.95224">
        <ele>186.7998</ele>
        <time>2026-05-14T10:36:02+02:00</time>
      </trkpt>
      <trkpt lat="46.71977" lon="4.95224">
        <ele>187.10059</ele>
        <time>2026-05-14T10:36:03+02:00</time>
      </trkpt>
      <trkpt lat="46.7198" lon="4.95225">
        <ele>187.5</ele>
        <time>2026-05-14T10:36:04+02:00</time>
      </trkpt>
      <trkpt lat="46.71983" lon="4.95225">
        <ele>187.5</ele>
        <time>2026-05-14T10:36:05+02:00</time>
      </trkpt>
      <trkpt lat="46.71987" lon="4.95225">
        <ele>187.7998</ele>
        <time>2026-05-14T10:36:06+02:00</time>
      </trkpt>
      <trkpt lat="46.7199" lon="4.95224">
        <ele>187.7998</ele>
        <time>2026-05-14T10:36:07+02:00</time>
      </trkpt>
      <trkpt lat="46.71994" lon="4.95224">
        <ele>188.10059</ele>
        <time>2026-05-14T10:36:08+02:00</time>
      </trkpt>
      <trkpt lat="46.71997" lon="4.95224">
        <ele>188.10059</ele>
        <time>2026-05-14T10:36:09+02:00</time>
      </trkpt>
      <trkpt lat="46.72" lon="4.95224">
        <ele>188.40039</ele>
        <time>2026-05-14T10:36:10+02:00</time>
      </trkpt>
      <trkpt lat="46.72004" lon="4.95223">
        <ele>188.60059</ele>
        <time>2026-05-14T10:36:11+02:00</time>
      </trkpt>
      <trkpt lat="46.72007" lon="4.95222">
        <ele>188.60059</ele>
        <time>2026-05-14T10:36:12+02:00</time>
      </trkpt>
      <trkpt lat="46.72011" lon="4.95222">
        <ele>188.90039</ele>
        <time>2026-05-14T10:36:13+02:00</time>
      </trkpt>
      <trkpt lat="46.72014" lon="4.95222">
        <ele>188.90039</ele>
        <time>2026-05-14T10:36:14+02:00</time>
      </trkpt>
      <trkpt lat="46.72018" lon="4.95222">
        <ele>189.2002</ele>
        <time>2026-05-14T10:36:15+02:00</time>
      </trkpt>
      <trkpt lat="46.72021" lon="4.95222">
        <ele>189.40039</ele>
        <time>2026-05-14T10:36:16+02:00</time>
      </trkpt>
      <trkpt lat="46.72025" lon="4.95222">
        <ele>189.40039</ele>
        <time>2026-05-14T10:36:17+02:00</time>
      </trkpt>
      <trkpt lat="46.72028" lon="4.95221">
        <ele>189.7002</ele>
        <time>2026-05-14T10:36:18+02:00</time>
      </trkpt>
      <trkpt lat="46.7203" lon="4.95221">
        <ele>189.7002</ele>
        <time>2026-05-14T10:36:19+02:00</time>
      </trkpt>
      <trkpt lat="46.72036" lon="4.95221">
        <ele>189.90039</ele>
        <time>2026-05-14T10:36:20+02:00</time>
      </trkpt>
      <trkpt lat="46.72039" lon="4.95221">
        <ele>190.2002</ele>
        <time>2026-05-14T10:36:21+02:00</time>
      </trkpt>
      <trkpt lat="46.72043" lon="4.95222">
        <ele>190.2002</ele>
        <time>2026-05-14T10:36:22+02:00</time>
      </trkpt>
      <trkpt lat="46.72044" lon="4.95222">
        <ele>190.2002</ele>
        <time>2026-05-14T10:36:23+02:00</time>
      </trkpt>
      <trkpt lat="46.72049" lon="4.95222">
        <ele>190.40039</ele>
        <time>2026-05-14T10:36:24+02:00</time>
      </trkpt>
      <trkpt lat="46.72053" lon="4.95222">
        <ele>190.60059</ele>
        <time>2026-05-14T10:36:25+02:00</time>
      </trkpt>
      <trkpt lat="46.72057" lon="4.95223">
        <ele>190.7998</ele>
        <time>2026-05-14T10:36:26+02:00</time>
      </trkpt>
      <trkpt lat="46.72061" lon="4.95223">
        <ele>190.7998</ele>
        <time>2026-05-14T10:36:27+02:00</time>
      </trkpt>
      <trkpt lat="46.72064" lon="4.95223">
        <ele>191</ele>
        <time>2026-05-14T10:36:28+02:00</time>
      </trkpt>
      <trkpt lat="46.72068" lon="4.95223">
        <ele>191</ele>
        <time>2026-05-14T10:36:29+02:00</time>
      </trkpt>
      <trkpt lat="46.72069" lon="4.95223">
        <ele>191.10059</ele>
        <time>2026-05-14T10:36:30+02:00</time>
      </trkpt>
      <trkpt lat="46.72075" lon="4.95224">
        <ele>191.2998</ele>
        <time>2026-05-14T10:36:31+02:00</time>
      </trkpt>
      <trkpt lat="46.72078" lon="4.95224">
        <ele>191.2998</ele>
        <time>2026-05-14T10:36:32+02:00</time>
      </trkpt>
      <trkpt lat="46.72082" lon="4.95225">
        <ele>191.40039</ele>
        <time>2026-05-14T10:36:33+02:00</time>
      </trkpt>
      <trkpt lat="46.72085" lon="4.95225">
        <ele>191.40039</ele>
        <time>2026-05-14T10:36:34+02:00</time>
      </trkpt>
      <trkpt lat="46.72088" lon="4.95227">
        <ele>191.7002</ele>
        <time>2026-05-14T10:36:35+02:00</time>
      </trkpt>
      <trkpt lat="46.72091" lon="4.95229">
        <ele>191.7002</ele>
        <time>2026-05-14T10:36:36+02:00</time>
      </trkpt>
      <trkpt lat="46.72093" lon="4.9523">
        <ele>191.7998</ele>
        <time>2026-05-14T10:36:37+02:00</time>
      </trkpt>
      <trkpt lat="46.72096" lon="4.95236">
        <ele>192</ele>
        <time>2026-05-14T10:36:38+02:00</time>
      </trkpt>
      <trkpt lat="46.72098" lon="4.9524">
        <ele>192.10059</ele>
        <time>2026-05-14T10:36:39+02:00</time>
      </trkpt>
      <trkpt lat="46.72099" lon="4.95245">
        <ele>192.2998</ele>
        <time>2026-05-14T10:36:40+02:00</time>
      </trkpt>
      <trkpt lat="46.721" lon="4.95249">
        <ele>192.2998</ele>
        <time>2026-05-14T10:36:41+02:00</time>
      </trkpt>
      <trkpt lat="46.72101" lon="4.95254">
        <ele>192.5</ele>
        <time>2026-05-14T10:36:42+02:00</time>
      </trkpt>
      <trkpt lat="46.72101" lon="4.95259">
        <ele>192.5</ele>
        <time>2026-05-14T10:36:43+02:00</time>
      </trkpt>
      <trkpt lat="46.72102" lon="4.95264">
        <ele>192.60059</ele>
        <time>2026-05-14T10:36:44+02:00</time>
      </trkpt>
      <trkpt lat="46.72102" lon="4.95269">
        <ele>192.7998</ele>
        <time>2026-05-14T10:36:45+02:00</time>
      </trkpt>
      <trkpt lat="46.72103" lon="4.95274">
        <ele>192.7998</ele>
        <time>2026-05-14T10:36:46+02:00</time>
      </trkpt>
      <trkpt lat="46.72104" lon="4.95278">
        <ele>193.10059</ele>
        <time>2026-05-14T10:36:47+02:00</time>
      </trkpt>
      <trkpt lat="46.72104" lon="4.95283">
        <ele>193.10059</ele>
        <time>2026-05-14T10:36:48+02:00</time>
      </trkpt>
      <trkpt lat="46.72105" lon="4.95288">
        <ele>193.2002</ele>
        <time>2026-05-14T10:36:49+02:00</time>
      </trkpt>
      <trkpt lat="46.72106" lon="4.95292">
        <ele>193.2002</ele>
        <time>2026-05-14T10:36:50+02:00</time>
      </trkpt>
      <trkpt lat="46.72106" lon="4.95297">
        <ele>193.40039</ele>
        <time>2026-05-14T10:36:51+02:00</time>
      </trkpt>
      <trkpt lat="46.72107" lon="4.95301">
        <ele>193.40039</ele>
        <time>2026-05-14T10:36:52+02:00</time>
      </trkpt>
      <trkpt lat="46.72107" lon="4.95306">
        <ele>193.5</ele>
        <time>2026-05-14T10:36:53+02:00</time>
      </trkpt>
      <trkpt lat="46.72108" lon="4.95311">
        <ele>193.5</ele>
        <time>2026-05-14T10:36:54+02:00</time>
      </trkpt>
      <trkpt lat="46.72109" lon="4.95315">
        <ele>193.7002</ele>
        <time>2026-05-14T10:36:55+02:00</time>
      </trkpt>
      <trkpt lat="46.7211" lon="4.9532">
        <ele>193.90039</ele>
        <time>2026-05-14T10:36:56+02:00</time>
      </trkpt>
      <trkpt lat="46.7211" lon="4.95324">
        <ele>194</ele>
        <time>2026-05-14T10:36:57+02:00</time>
      </trkpt>
      <trkpt lat="46.72111" lon="4.95329">
        <ele>194.10059</ele>
        <time>2026-05-14T10:36:58+02:00</time>
      </trkpt>
      <trkpt lat="46.72112" lon="4.95333">
        <ele>194.10059</ele>
        <time>2026-05-14T10:36:59+02:00</time>
      </trkpt>
      <trkpt lat="46.72114" lon="4.95338">
        <ele>194.2998</ele>
        <time>2026-05-14T10:37:00+02:00</time>
      </trkpt>
      <trkpt lat="46.72116" lon="4.95342">
        <ele>194.40039</ele>
        <time>2026-05-14T10:37:01+02:00</time>
      </trkpt>
      <trkpt lat="46.72119" lon="4.95345">
        <ele>194.40039</ele>
        <time>2026-05-14T10:37:02+02:00</time>
      </trkpt>
      <trkpt lat="46.72122" lon="4.95347">
        <ele>194.7002</ele>
        <time>2026-05-14T10:37:03+02:00</time>
      </trkpt>
      <trkpt lat="46.72124" lon="4.95347">
        <ele>194.7002</ele>
        <time>2026-05-14T10:37:04+02:00</time>
      </trkpt>
      <trkpt lat="46.72127" lon="4.95349">
        <ele>194.90039</ele>
        <time>2026-05-14T10:37:05+02:00</time>
      </trkpt>
      <trkpt lat="46.7213" lon="4.9535">
        <ele>194.90039</ele>
        <time>2026-05-14T10:37:06+02:00</time>
      </trkpt>
      <trkpt lat="46.72133" lon="4.95351">
        <ele>194.90039</ele>
        <time>2026-05-14T10:37:07+02:00</time>
      </trkpt>
      <trkpt lat="46.72136" lon="4.95354">
        <ele>195</ele>
        <time>2026-05-14T10:37:08+02:00</time>
      </trkpt>
      <trkpt lat="46.7214" lon="4.95356">
        <ele>195.2998</ele>
        <time>2026-05-14T10:37:09+02:00</time>
      </trkpt>
      <trkpt lat="46.72143" lon="4.95358">
        <ele>195.2998</ele>
        <time>2026-05-14T10:37:10+02:00</time>
      </trkpt>
      <trkpt lat="46.72144" lon="4.95359">
        <ele>195.2998</ele>
        <time>2026-05-14T10:37:11+02:00</time>
      </trkpt>
      <trkpt lat="46.72149" lon="4.95362">
        <ele>195.40039</ele>
        <time>2026-05-14T10:37:12+02:00</time>
      </trkpt>
      <trkpt lat="46.7215" lon="4.95366">
        <ele>195.5</ele>
        <time>2026-05-14T10:37:13+02:00</time>
      </trkpt>
      <trkpt lat="46.72151" lon="4.9537">
        <ele>195.60059</ele>
        <time>2026-05-14T10:37:14+02:00</time>
      </trkpt>
      <trkpt lat="46.72151" lon="4.95374">
        <ele>195.60059</ele>
        <time>2026-05-14T10:37:15+02:00</time>
      </trkpt>
      <trkpt lat="46.72151" lon="4.95378">
        <ele>195.60059</ele>
        <time>2026-05-14T10:37:16+02:00</time>
      </trkpt>
      <trkpt lat="46.72151" lon="4.95381">
        <ele>195.60059</ele>
        <time>2026-05-14T10:37:17+02:00</time>
      </trkpt>
      <trkpt lat="46.72149" lon="4.95384">
        <ele>195.5</ele>
        <time>2026-05-14T10:37:18+02:00</time>
      </trkpt>
      <trkpt lat="46.72148" lon="4.95385">
        <ele>195.5</ele>
        <time>2026-05-14T10:37:19+02:00</time>
      </trkpt>
      <trkpt lat="46.72146" lon="4.95385">
        <ele>195.5</ele>
        <time>2026-05-14T10:37:20+02:00</time>
      </trkpt>
      <trkpt lat="46.72144" lon="4.95385">
        <ele>195.40039</ele>
        <time>2026-05-14T10:37:21+02:00</time>
      </trkpt>
      <trkpt lat="46.72142" lon="4.95384">
        <ele>195.40039</ele>
        <time>2026-05-14T10:37:22+02:00</time>
      </trkpt>
      <trkpt lat="46.7214" lon="4.95384">
        <ele>195.40039</ele>
        <time>2026-05-14T10:37:23+02:00</time>
      </trkpt>
      <trkpt lat="46.72138" lon="4.95383">
        <ele>195.2998</ele>
        <time>2026-05-14T10:37:24+02:00</time>
      </trkpt>
      <trkpt lat="46.72136" lon="4.95383">
        <ele>195.2998</ele>
        <time>2026-05-14T10:37:25+02:00</time>
      </trkpt>
      <trkpt lat="46.72133" lon="4.95382">
        <ele>195.2002</ele>
        <time>2026-05-14T10:37:26+02:00</time>
      </trkpt>
      <trkpt lat="46.72131" lon="4.9538">
        <ele>195.10059</ele>
        <time>2026-05-14T10:37:27+02:00</time>
      </trkpt>
      <trkpt lat="46.72131" lon="4.95379">
        <ele>195.10059</ele>
        <time>2026-05-14T10:37:28+02:00</time>
      </trkpt>
      <trkpt lat="46.7213" lon="4.95377">
        <ele>195.10059</ele>
        <time>2026-05-14T10:37:29+02:00</time>
      </trkpt>
      <trkpt lat="46.7213" lon="4.95375">
        <ele>195.10059</ele>
        <time>2026-05-14T10:37:30+02:00</time>
      </trkpt>
      <trkpt lat="46.7213" lon="4.95374">
        <ele>195.10059</ele>
        <time>2026-05-14T10:37:31+02:00</time>
      </trkpt>
      <trkpt lat="46.72129" lon="4.95373">
        <ele>195.10059</ele>
        <time>2026-05-14T10:37:32+02:00</time>
      </trkpt>
      <trkpt lat="46.72129" lon="4.95373">
        <ele>195.10059</ele>
        <time>2026-05-14T10:37:33+02:00</time>
      </trkpt>
      <trkpt lat="46.72129" lon="4.95373">
        <ele>195.10059</ele>
        <time>2026-05-14T10:37:34+02:00</time>
      </trkpt>
      <trkpt lat="46.72129" lon="4.95373">
        <ele>195.10059</ele>
        <time>2026-05-14T10:59:52+02:00</time>
      </trkpt>
      <trkpt lat="46.72129" lon="4.95373">
        <ele>195.10059</ele>
        <time>2026-05-14T10:59:53+02:00</time>
      </trkpt>
      <trkpt lat="46.72129" lon="4.95373">
        <ele>195.10059</ele>
        <time>2026-05-14T10:59:54+02:00</time>
      </trkpt>
      <trkpt lat="46.72129" lon="4.95373">
        <ele>195.10059</ele>
        <time>2026-05-14T10:59:55+02:00</time>
      </trkpt>
      <trkpt lat="46.72129" lon="4.95373">
        <ele>195.10059</ele>
        <time>2026-05-14T10:59:56+02:00</time>
      </trkpt>
      <trkpt lat="46.72129" lon="4.95373">
        <ele>195.10059</ele>
        <time>2026-05-14T10:59:57+02:00</time>
      </trkpt>
      <trkpt lat="46.72129" lon="4.95373">
        <ele>195.10059</ele>
        <time>2026-05-14T10:59:58+02:00</time>
      </trkpt>
      <trkpt lat="46.72129" lon="4.95373">
        <ele>195.10059</ele>
        <time>2026-05-14T10:59:59+02:00</time>
      </trkpt>
      <trkpt lat="46.72129" lon="4.95373">
        <ele>195.10059</ele>
        <time>2026-05-14T11:00:00+02:00</time>
      </trkpt>
      <trkpt lat="46.72129" lon="4.95373">
        <ele>195.10059</ele>
        <time>2026-05-14T11:00:01+02:00</time>
      </trkpt>
      <trkpt lat="46.72129" lon="4.95373">
        <ele>195.10059</ele>
        <time>2026-05-14T11:00:02+02:00</time>
      </trkpt>
      <trkpt lat="46.72129" lon="4.95373">
        <ele>195.10059</ele>
        <time>2026-05-14T11:00:03+02:00</time>
      </trkpt>
      <trkpt lat="46.72129" lon="4.95373">
        <ele>195.10059</ele>
        <time>2026-05-14T11:00:04+02:00</time>
      </trkpt>
      <trkpt lat="46.72129" lon="4.95373">
        <ele>195.10059</ele>
        <time>2026-05-14T11:00:05+02:00</time>
      </trkpt>
      <trkpt lat="46.72129" lon="4.95373">
        <ele>195.10059</ele>
        <time>2026-05-14T11:00:06+02:00</time>
      </trkpt>
      <trkpt lat="46.72129" lon="4.95373">
        <ele>195.10059</ele>
        <time>2026-05-14T11:00:07+02:00</time>
      </trkpt>
      <trkpt lat="46.72129" lon="4.95373">
        <ele>195.10059</ele>
        <time>2026-05-14T11:00:08+02:00</time>
      </trkpt>
      <trkpt lat="46.72129" lon="4.95373">
        <ele>195.10059</ele>
        <time>2026-05-14T11:00:09+02:00</time>
      </trkpt>
      <trkpt lat="46.72129" lon="4.95373">
        <ele>195.10059</ele>
        <time>2026-05-14T11:00:10+02:00</time>
      </trkpt>
      <trkpt lat="46.72129" lon="4.95373">
        <ele>195.10059</ele>
        <time>2026-05-14T11:00:11+02:00</time>
      </trkpt>
      <trkpt lat="46.72129" lon="4.95373">
        <ele>195.10059</ele>
        <time>2026-05-14T11:00:12+02:00</time>
      </trkpt>
      <trkpt lat="46.72129" lon="4.95373">
        <ele>195.10059</ele>
        <time>2026-05-14T11:00:13+02:00</time>
      </trkpt>
      <trkpt lat="46.72129" lon="4.95373">
        <ele>195.10059</ele>
        <time>2026-05-14T11:00:14+02:00</time>
      </trkpt>
      <trkpt lat="46.72129" lon="4.95373">
        <ele>195.10059</ele>
        <time>2026-05-14T11:00:15+02:00</time>
      </trkpt>
      <trkpt lat="46.72129" lon="4.95373">
        <ele>195.10059</ele>
        <time>2026-05-14T11:00:16+02:00</time>
      </trkpt>
      <trkpt lat="46.72129" lon="4.95373">
        <ele>195.10059</ele>
        <time>2026-05-14T11:00:17+02:00</time>
      </trkpt>
      <trkpt lat="46.72129" lon="4.95373">
        <ele>195.10059</ele>
        <time>2026-05-14T11:00:18+02:00</time>
      </trkpt>
      <trkpt lat="46.72129" lon="4.95373">
        <ele>195.10059</ele>
        <time>2026-05-14T11:00:19+02:00</time>
      </trkpt>
      <trkpt lat="46.72129" lon="4.95373">
        <ele>195.10059</ele>
        <time>2026-05-14T11:00:20+02:00</time>
      </trkpt>
      <trkpt lat="46.72129" lon="4.95373">
        <ele>195.10059</ele>
        <time>2026-05-14T11:00:21+02:00</time>
      </trkpt>
      <trkpt lat="46.72129" lon="4.95373">
        <ele>195.10059</ele>
        <time>2026-05-14T11:00:22+02:00</time>
      </trkpt>
      <trkpt lat="46.72129" lon="4.95373">
        <ele>195.10059</ele>
        <time>2026-05-14T11:00:23+02:00</time>
      </trkpt>
      <trkpt lat="46.72129" lon="4.95373">
        <ele>195.10059</ele>
        <time>2026-05-14T11:00:24+02:00</time>
      </trkpt>
      <trkpt lat="46.72129" lon="4.95373">
        <ele>195.10059</ele>
        <time>2026-05-14T11:00:25+02:00</time>
      </trkpt>
      <trkpt lat="46.72129" lon="4.95373">
        <ele>195.10059</ele>
        <time>2026-05-14T11:00:26+02:00</time>
      </trkpt>
      <trkpt lat="46.72129" lon="4.95373">
        <ele>195.10059</ele>
        <time>2026-05-14T11:00:27+02:00</time>
      </trkpt>
      <trkpt lat="46.72129" lon="4.95373">
        <ele>195.10059</ele>
        <time>2026-05-14T11:00:28+02:00</time>
      </trkpt>
      <trkpt lat="46.72129" lon="4.95373">
        <ele>195.10059</ele>
        <time>2026-05-14T11:00:29+02:00</time>
      </trkpt>
      <trkpt lat="46.72129" lon="4.95373">
        <ele>195.10059</ele>
        <time>2026-05-14T11:00:30+02:00</time>
      </trkpt>
      <trkpt lat="46.72129" lon="4.95373">
        <ele>195.10059</ele>
        <time>2026-05-14T11:00:31+02:00</time>
      </trkpt>
      <trkpt lat="46.72129" lon="4.95373">
        <ele>195.10059</ele>
        <time>2026-05-14T11:00:32+02:00</time>
      </trkpt>
      <trkpt lat="46.72129" lon="4.95373">
        <ele>195.10059</ele>
        <time>2026-05-14T11:00:33+02:00</time>
      </trkpt>
      <trkpt lat="46.72129" lon="4.95373">
        <ele>195.10059</ele>
        <time>2026-05-14T11:00:34+02:00</time>
      </trkpt>
      <trkpt lat="46.72129" lon="4.95373">
        <ele>195.10059</ele>
        <time>2026-05-14T11:00:35+02:00</time>
      </trkpt>
      <trkpt lat="46.72129" lon="4.95373">
        <ele>195.10059</ele>
        <time>2026-05-14T11:00:36+02:00</time>
      </trkpt>
      <trkpt lat="46.72129" lon="4.95373">
        <ele>195.10059</ele>
        <time>2026-05-14T11:00:37+02:00</time>
      </trkpt>
      <trkpt lat="46.72129" lon="4.95373">
        <ele>195.10059</ele>
        <time>2026-05-14T11:00:38+02:00</time>
      </trkpt>
      <trkpt lat="46.72129" lon="4.95373">
        <ele>195.10059</ele>
        <time>2026-05-14T11:00:39+02:00</time>
      </trkpt>
      <trkpt lat="46.72129" lon="4.95373">
        <ele>195.10059</ele>
        <time>2026-05-14T11:00:40+02:00</time>
      </trkpt>
      <trkpt lat="46.72129" lon="4.95373">
        <ele>195.10059</ele>
        <time>2026-05-14T11:00:41+02:00</time>
      </trkpt>
      <trkpt lat="46.72129" lon="4.95373">
        <ele>195.10059</ele>
        <time>2026-05-14T11:00:42+02:00</time>
      </trkpt>
      <trkpt lat="46.72129" lon="4.95373">
        <ele>195.10059</ele>
        <time>2026-05-14T11:00:43+02:00</time>
      </trkpt>
      <trkpt lat="46.72129" lon="4.95373">
        <ele>195.10059</ele>
        <time>2026-05-14T11:00:44+02:00</time>
      </trkpt>
      <trkpt lat="46.72129" lon="4.95373">
        <ele>195.10059</ele>
        <time>2026-05-14T11:00:45+02:00</time>
      </trkpt>
      <trkpt lat="46.72129" lon="4.95373">
        <ele>195.10059</ele>
        <time>2026-05-14T11:00:46+02:00</time>
      </trkpt>
      <trkpt lat="46.72129" lon="4.95373">
        <ele>195.10059</ele>
        <time>2026-05-14T11:00:47+02:00</time>
      </trkpt>
      <trkpt lat="46.72129" lon="4.95373">
        <ele>195.10059</ele>
        <time>2026-05-14T11:00:48+02:00</time>
      </trkpt>
      <trkpt lat="46.72129" lon="4.95373">
        <ele>195.10059</ele>
        <time>2026-05-14T11:00:49+02:00</time>
      </trkpt>
      <trkpt lat="46.72129" lon="4.95373">
        <ele>195.10059</ele>
        <time>2026-05-14T11:00:50+02:00</time>
      </trkpt>
      <trkpt lat="46.72129" lon="4.95373">
        <ele>195.10059</ele>
        <time>2026-05-14T11:00:51+02:00</time>
      </trkpt>
      <trkpt lat="46.72129" lon="4.95373">
        <ele>195.10059</ele>
        <time>2026-05-14T11:00:52+02:00</time>
      </trkpt>
      <trkpt lat="46.72129" lon="4.95373">
        <ele>195.10059</ele>
        <time>2026-05-14T11:00:53+02:00</time>
      </trkpt>
      <trkpt lat="46.72129" lon="4.95373">
        <ele>195.10059</ele>
        <time>2026-05-14T11:00:54+02:00</time>
      </trkpt>
      <trkpt lat="46.72129" lon="4.95373">
        <ele>195.10059</ele>
        <time>2026-05-14T11:00:55+02:00</time>
      </trkpt>
      <trkpt lat="46.72129" lon="4.95373">
        <ele>195.10059</ele>
        <time>2026-05-14T11:00:56+02:00</time>
      </trkpt>
      <trkpt lat="46.72129" lon="4.95373">
        <ele>195.10059</ele>
        <time>2026-05-14T11:00:57+02:00</time>
      </trkpt>
      <trkpt lat="46.72129" lon="4.95373">
        <ele>195.10059</ele>
        <time>2026-05-14T11:00:58+02:00</time>
      </trkpt>
      <trkpt lat="46.72129" lon="4.95373">
        <ele>195.10059</ele>
        <time>2026-05-14T11:00:59+02:00</time>
      </trkpt>
      <trkpt lat="46.72129" lon="4.95373">
        <ele>195.10059</ele>
        <time>2026-05-14T11:01:00+02:00</time>
      </trkpt>
      <trkpt lat="46.72129" lon="4.95373">
        <ele>195.10059</ele>
        <time>2026-05-14T11:01:01+02:00</time>
      </trkpt>
      <trkpt lat="46.72129" lon="4.95373">
        <ele>195.10059</ele>
        <time>2026-05-14T11:01:02+02:00</time>
      </trkpt>
      <trkpt lat="46.72129" lon="4.95373">
        <ele>195.10059</ele>
        <time>2026-05-14T11:01:03+02:00</time>
      </trkpt>
      <trkpt lat="46.72129" lon="4.95373">
        <ele>195.10059</ele>
        <time>2026-05-14T11:01:04+02:00</time>
      </trkpt>
      <trkpt lat="46.72129" lon="4.95373">
        <ele>195.10059</ele>
        <time>2026-05-14T11:01:05+02:00</time>
      </trkpt>
      <trkpt lat="46.72129" lon="4.95373">
        <ele>195.10059</ele>
        <time>2026-05-14T11:01:06+02:00</time>
      </trkpt>
      <trkpt lat="46.72129" lon="4.95373">
        <ele>195.10059</ele>
        <time>2026-05-14T11:01:07+02:00</time>
      </trkpt>
      <trkpt lat="46.72129" lon="4.95373">
        <ele>195.10059</ele>
        <time>2026-05-14T11:01:08+02:00</time>
      </trkpt>
      <trkpt lat="46.72129" lon="4.95373">
        <ele>195.10059</ele>
        <time>2026-05-14T11:01:09+02:00</time>
      </trkpt>
      <trkpt lat="46.72129" lon="4.95373">
        <ele>195.10059</ele>
        <time>2026-05-14T11:01:10+02:00</time>
      </trkpt>
      <trkpt lat="46.72129" lon="4.95373">
        <ele>195.10059</ele>
        <time>2026-05-14T11:01:11+02:00</time>
      </trkpt>
      <trkpt lat="46.72129" lon="4.95373">
        <ele>195.10059</ele>
        <time>2026-05-14T11:01:12+02:00</time>
      </trkpt>
      <trkpt lat="46.72129" lon="4.95373">
        <ele>195.10059</ele>
        <time>2026-05-14T11:01:13+02:00</time>
      </trkpt>
      <trkpt lat="46.72129" lon="4.95373">
        <ele>195.10059</ele>
        <time>2026-05-14T11:01:14+02:00</time>
      </trkpt>
      <trkpt lat="46.72129" lon="4.95373">
        <ele>195.10059</ele>
        <time>2026-05-14T11:01:15+02:00</time>
      </trkpt>
      <trkpt lat="46.72129" lon="4.95373">
        <ele>195.10059</ele>
        <time>2026-05-14T11:01:16+02:00</time>
      </trkpt>
      <trkpt lat="46.72129" lon="4.95373">
        <ele>195.10059</ele>
        <time>2026-05-14T11:01:17+02:00</time>
      </trkpt>
      <trkpt lat="46.72129" lon="4.95373">
        <ele>195.10059</ele>
        <time>2026-05-14T11:01:18+02:00</time>
      </trkpt>
      <trkpt lat="46.72129" lon="4.95373">
        <ele>195.10059</ele>
        <time>2026-05-14T11:01:19+02:00</time>
      </trkpt>
      <trkpt lat="46.72129" lon="4.95373">
        <ele>195.10059</ele>
        <time>2026-05-14T11:01:20+02:00</time>
      </trkpt>
      <trkpt lat="46.72129" lon="4.95373">
        <ele>195.10059</ele>
        <time>2026-05-14T11:01:21+02:00</time>
      </trkpt>
      <trkpt lat="46.72129" lon="4.95373">
        <ele>195.10059</ele>
        <time>2026-05-14T11:01:22+02:00</time>
      </trkpt>
      <trkpt lat="46.72129" lon="4.95373">
        <ele>195.10059</ele>
        <time>2026-05-14T11:01:23+02:00</time>
      </trkpt>
      <trkpt lat="46.72129" lon="4.95373">
        <ele>195.10059</ele>
        <time>2026-05-14T11:01:24+02:00</time>
      </trkpt>
      <trkpt lat="46.72129" lon="4.95373">
        <ele>195.10059</ele>
        <time>2026-05-14T11:01:25+02:00</time>
      </trkpt>
      <trkpt lat="46.72129" lon="4.95373">
        <ele>195.10059</ele>
        <time>2026-05-14T11:01:26+02:00</time>
      </trkpt>
      <trkpt lat="46.72131" lon="4.95367">
        <ele>195</ele>
        <time>2026-05-14T11:01:27+02:00</time>
      </trkpt>
      <trkpt lat="46.72132" lon="4.95368">
        <ele>195</ele>
        <time>2026-05-14T11:01:28+02:00</time>
      </trkpt>
      <trkpt lat="46.72132" lon="4.9537">
        <ele>195</ele>
        <time>2026-05-14T11:01:29+02:00</time>
      </trkpt>
      <trkpt lat="46.72133" lon="4.95372">
        <ele>195.10059</ele>
        <time>2026-05-14T11:01:30+02:00</time>
      </trkpt>
      <trkpt lat="46.72133" lon="4.95375">
        <ele>195.10059</ele>
        <time>2026-05-14T11:01:31+02:00</time>
      </trkpt>
      <trkpt lat="46.72133" lon="4.95378">
        <ele>195.10059</ele>
        <time>2026-05-14T11:01:32+02:00</time>
      </trkpt>
      <trkpt lat="46.72134" lon="4.9538">
        <ele>195.2998</ele>
        <time>2026-05-14T11:01:33+02:00</time>
      </trkpt>
      <trkpt lat="46.72136" lon="4.95382">
        <ele>195.2998</ele>
        <time>2026-05-14T11:01:34+02:00</time>
      </trkpt>
      <trkpt lat="46.72137" lon="4.95383">
        <ele>195.2998</ele>
        <time>2026-05-14T11:01:35+02:00</time>
      </trkpt>
      <trkpt lat="46.72138" lon="4.95383">
        <ele>195.2998</ele>
        <time>2026-05-14T11:01:36+02:00</time>
      </trkpt>
      <trkpt lat="46.72139" lon="4.95383">
        <ele>195.40039</ele>
        <time>2026-05-14T11:01:37+02:00</time>
      </trkpt>
      <trkpt lat="46.7214" lon="4.95383">
        <ele>195.40039</ele>
        <time>2026-05-14T11:01:38+02:00</time>
      </trkpt>
      <trkpt lat="46.72142" lon="4.95383">
        <ele>195.40039</ele>
        <time>2026-05-14T11:01:39+02:00</time>
      </trkpt>
      <trkpt lat="46.72144" lon="4.95382">
        <ele>195.40039</ele>
        <time>2026-05-14T11:01:40+02:00</time>
      </trkpt>
      <trkpt lat="46.72146" lon="4.95382">
        <ele>195.5</ele>
        <time>2026-05-14T11:01:41+02:00</time>
      </trkpt>
      <trkpt lat="46.72148" lon="4.95381">
        <ele>195.5</ele>
        <time>2026-05-14T11:01:42+02:00</time>
      </trkpt>
      <trkpt lat="46.7215" lon="4.95381">
        <ele>195.5</ele>
        <time>2026-05-14T11:01:43+02:00</time>
      </trkpt>
      <trkpt lat="46.72151" lon="4.95379">
        <ele>195.60059</ele>
        <time>2026-05-14T11:01:44+02:00</time>
      </trkpt>
      <trkpt lat="46.72152" lon="4.95377">
        <ele>195.60059</ele>
        <time>2026-05-14T11:01:45+02:00</time>
      </trkpt>
      <trkpt lat="46.72153" lon="4.95374">
        <ele>195.60059</ele>
        <time>2026-05-14T11:01:46+02:00</time>
      </trkpt>
      <trkpt lat="46.72154" lon="4.95371">
        <ele>195.60059</ele>
        <time>2026-05-14T11:01:47+02:00</time>
      </trkpt>
      <trkpt lat="46.72154" lon="4.95368">
        <ele>195.60059</ele>
        <time>2026-05-14T11:01:48+02:00</time>
      </trkpt>
      <trkpt lat="46.72155" lon="4.95366">
        <ele>195.60059</ele>
        <time>2026-05-14T11:01:49+02:00</time>
      </trkpt>
      <trkpt lat="46.72157" lon="4.95364">
        <ele>195.60059</ele>
        <time>2026-05-14T11:01:50+02:00</time>
      </trkpt>
      <trkpt lat="46.72159" lon="4.95362">
        <ele>195.60059</ele>
        <time>2026-05-14T11:01:51+02:00</time>
      </trkpt>
      <trkpt lat="46.7216" lon="4.95361">
        <ele>195.60059</ele>
        <time>2026-05-14T11:01:52+02:00</time>
      </trkpt>
      <trkpt lat="46.72163" lon="4.95361">
        <ele>195.7002</ele>
        <time>2026-05-14T11:01:53+02:00</time>
      </trkpt>
      <trkpt lat="46.72166" lon="4.9536">
        <ele>195.7002</ele>
        <time>2026-05-14T11:01:54+02:00</time>
      </trkpt>
      <trkpt lat="46.72168" lon="4.9536">
        <ele>195.7002</ele>
        <time>2026-05-14T11:01:55+02:00</time>
      </trkpt>
      <trkpt lat="46.72172" lon="4.95359">
        <ele>195.7998</ele>
        <time>2026-05-14T11:01:56+02:00</time>
      </trkpt>
      <trkpt lat="46.72175" lon="4.95359">
        <ele>195.7998</ele>
        <time>2026-05-14T11:01:57+02:00</time>
      </trkpt>
      <trkpt lat="46.72176" lon="4.95359">
        <ele>195.7998</ele>
        <time>2026-05-14T11:01:58+02:00</time>
      </trkpt>
      <trkpt lat="46.7218" lon="4.9536">
        <ele>195.7998</ele>
        <time>2026-05-14T11:01:59+02:00</time>
      </trkpt>
      <trkpt lat="46.72183" lon="4.95359">
        <ele>195.7998</ele>
        <time>2026-05-14T11:02:00+02:00</time>
      </trkpt>
      <trkpt lat="46.72187" lon="4.95358">
        <ele>195.7998</ele>
        <time>2026-05-14T11:02:01+02:00</time>
      </trkpt>
      <trkpt lat="46.7219" lon="4.95358">
        <ele>195.7998</ele>
        <time>2026-05-14T11:02:02+02:00</time>
      </trkpt>
      <trkpt lat="46.72194" lon="4.95358">
        <ele>195.90039</ele>
        <time>2026-05-14T11:02:03+02:00</time>
      </trkpt>
      <trkpt lat="46.72197" lon="4.95358">
        <ele>195.90039</ele>
        <time>2026-05-14T11:02:04+02:00</time>
      </trkpt>
      <trkpt lat="46.72201" lon="4.95357">
        <ele>195.90039</ele>
        <time>2026-05-14T11:02:05+02:00</time>
      </trkpt>
      <trkpt lat="46.72205" lon="4.95357">
        <ele>195.90039</ele>
        <time>2026-05-14T11:02:06+02:00</time>
      </trkpt>
      <trkpt lat="46.72209" lon="4.95357">
        <ele>195.90039</ele>
        <time>2026-05-14T11:02:07+02:00</time>
      </trkpt>
      <trkpt lat="46.72213" lon="4.95356">
        <ele>195.90039</ele>
        <time>2026-05-14T11:02:08+02:00</time>
      </trkpt>
      <trkpt lat="46.72217" lon="4.95356">
        <ele>195.90039</ele>
        <time>2026-05-14T11:02:09+02:00</time>
      </trkpt>
      <trkpt lat="46.72222" lon="4.95355">
        <ele>195.90039</ele>
        <time>2026-05-14T11:02:10+02:00</time>
      </trkpt>
      <trkpt lat="46.72226" lon="4.95354">
        <ele>195.7998</ele>
        <time>2026-05-14T11:02:11+02:00</time>
      </trkpt>
      <trkpt lat="46.72231" lon="4.95353">
        <ele>195.7998</ele>
        <time>2026-05-14T11:02:12+02:00</time>
      </trkpt>
      <trkpt lat="46.72236" lon="4.95352">
        <ele>195.7998</ele>
        <time>2026-05-14T11:02:13+02:00</time>
      </trkpt>
      <trkpt lat="46.72241" lon="4.9535">
        <ele>195.7998</ele>
        <time>2026-05-14T11:02:14+02:00</time>
      </trkpt>
      <trkpt lat="46.72246" lon="4.95349">
        <ele>195.7998</ele>
        <time>2026-05-14T11:02:15+02:00</time>
      </trkpt>
      <trkpt lat="46.7225" lon="4.95347">
        <ele>195.7998</ele>
        <time>2026-05-14T11:02:16+02:00</time>
      </trkpt>
      <trkpt lat="46.72256" lon="4.95345">
        <ele>195.7998</ele>
        <time>2026-05-14T11:02:17+02:00</time>
      </trkpt>
      <trkpt lat="46.72261" lon="4.95343">
        <ele>195.7998</ele>
        <time>2026-05-14T11:02:18+02:00</time>
      </trkpt>
      <trkpt lat="46.72266" lon="4.95341">
        <ele>195.7998</ele>
        <time>2026-05-14T11:02:19+02:00</time>
      </trkpt>
      <trkpt lat="46.72271" lon="4.95338">
        <ele>195.7998</ele>
        <time>2026-05-14T11:02:20+02:00</time>
      </trkpt>
      <trkpt lat="46.72277" lon="4.95336">
        <ele>195.7998</ele>
        <time>2026-05-14T11:02:21+02:00</time>
      </trkpt>
      <trkpt lat="46.72282" lon="4.95333">
        <ele>195.7002</ele>
        <time>2026-05-14T11:02:22+02:00</time>
      </trkpt>
      <trkpt lat="46.72287" lon="4.9533">
        <ele>195.7002</ele>
        <time>2026-05-14T11:02:23+02:00</time>
      </trkpt>
      <trkpt lat="46.72292" lon="4.95328">
        <ele>195.7002</ele>
        <time>2026-05-14T11:02:24+02:00</time>
      </trkpt>
      <trkpt lat="46.72298" lon="4.95325">
        <ele>195.7002</ele>
        <time>2026-05-14T11:02:25+02:00</time>
      </trkpt>
      <trkpt lat="46.72303" lon="4.95322">
        <ele>195.7002</ele>
        <time>2026-05-14T11:02:26+02:00</time>
      </trkpt>
      <trkpt lat="46.72308" lon="4.9532">
        <ele>195.7002</ele>
        <time>2026-05-14T11:02:27+02:00</time>
      </trkpt>
      <trkpt lat="46.72314" lon="4.95317">
        <ele>195.7002</ele>
        <time>2026-05-14T11:02:28+02:00</time>
      </trkpt>
      <trkpt lat="46.72319" lon="4.95314">
        <ele>195.7002</ele>
        <time>2026-05-14T11:02:29+02:00</time>
      </trkpt>
      <trkpt lat="46.72325" lon="4.95311">
        <ele>195.60059</ele>
        <time>2026-05-14T11:02:30+02:00</time>
      </trkpt>
      <trkpt lat="46.72329" lon="4.95308">
        <ele>195.60059</ele>
        <time>2026-05-14T11:02:31+02:00</time>
      </trkpt>
      <trkpt lat="46.72334" lon="4.95305">
        <ele>195.60059</ele>
        <time>2026-05-14T11:02:32+02:00</time>
      </trkpt>
      <trkpt lat="46.7234" lon="4.95301">
        <ele>195.60059</ele>
        <time>2026-05-14T11:02:33+02:00</time>
      </trkpt>
      <trkpt lat="46.72345" lon="4.95298">
        <ele>195.7002</ele>
        <time>2026-05-14T11:02:34+02:00</time>
      </trkpt>
      <trkpt lat="46.7235" lon="4.95295">
        <ele>195.7002</ele>
        <time>2026-05-14T11:02:35+02:00</time>
      </trkpt>
      <trkpt lat="46.72355" lon="4.95292">
        <ele>195.7002</ele>
        <time>2026-05-14T11:02:36+02:00</time>
      </trkpt>
      <trkpt lat="46.7236" lon="4.95288">
        <ele>195.7998</ele>
        <time>2026-05-14T11:02:37+02:00</time>
      </trkpt>
      <trkpt lat="46.72365" lon="4.95285">
        <ele>195.7998</ele>
        <time>2026-05-14T11:02:38+02:00</time>
      </trkpt>
      <trkpt lat="46.72371" lon="4.95282">
        <ele>195.90039</ele>
        <time>2026-05-14T11:02:39+02:00</time>
      </trkpt>
      <trkpt lat="46.72376" lon="4.95279">
        <ele>196</ele>
        <time>2026-05-14T11:02:40+02:00</time>
      </trkpt>
      <trkpt lat="46.72381" lon="4.95275">
        <ele>196.10059</ele>
        <time>2026-05-14T11:02:41+02:00</time>
      </trkpt>
      <trkpt lat="46.72386" lon="4.95273">
        <ele>196.2002</ele>
        <time>2026-05-14T11:02:42+02:00</time>
      </trkpt>
      <trkpt lat="46.72391" lon="4.9527">
        <ele>196.2002</ele>
        <time>2026-05-14T11:02:43+02:00</time>
      </trkpt>
      <trkpt lat="46.72396" lon="4.95267">
        <ele>196.2998</ele>
        <time>2026-05-14T11:02:44+02:00</time>
      </trkpt>
      <trkpt lat="46.724" lon="4.95263">
        <ele>196.2998</ele>
        <time>2026-05-14T11:02:45+02:00</time>
      </trkpt>
      <trkpt lat="46.72405" lon="4.95261">
        <ele>196.40039</ele>
        <time>2026-05-14T11:02:46+02:00</time>
      </trkpt>
      <trkpt lat="46.72409" lon="4.95258">
        <ele>196.40039</ele>
        <time>2026-05-14T11:02:47+02:00</time>
      </trkpt>
      <trkpt lat="46.72413" lon="4.95255">
        <ele>196.40039</ele>
        <time>2026-05-14T11:02:48+02:00</time>
      </trkpt>
      <trkpt lat="46.72416" lon="4.95252">
        <ele>196.40039</ele>
        <time>2026-05-14T11:02:49+02:00</time>
      </trkpt>
      <trkpt lat="46.72419" lon="4.95251">
        <ele>196.40039</ele>
        <time>2026-05-14T11:02:50+02:00</time>
      </trkpt>
      <trkpt lat="46.72421" lon="4.9525">
        <ele>196.40039</ele>
        <time>2026-05-14T11:02:51+02:00</time>
      </trkpt>
      <trkpt lat="46.72423" lon="4.95249">
        <ele>196.40039</ele>
        <time>2026-05-14T11:02:52+02:00</time>
      </trkpt>
      <trkpt lat="46.72424" lon="4.95248">
        <ele>196.40039</ele>
        <time>2026-05-14T11:02:53+02:00</time>
      </trkpt>
      <trkpt lat="46.72426" lon="4.95246">
        <ele>196.40039</ele>
        <time>2026-05-14T11:02:54+02:00</time>
      </trkpt>
      <trkpt lat="46.72427" lon="4.95244">
        <ele>196.40039</ele>
        <time>2026-05-14T11:02:55+02:00</time>
      </trkpt>
      <trkpt lat="46.72429" lon="4.95243">
        <ele>196.2998</ele>
        <time>2026-05-14T11:02:56+02:00</time>
      </trkpt>
      <trkpt lat="46.7243" lon="4.95242">
        <ele>196.2998</ele>
        <time>2026-05-14T11:02:57+02:00</time>
      </trkpt>
      <trkpt lat="46.72432" lon="4.9524">
        <ele>196.2998</ele>
        <time>2026-05-14T11:02:58+02:00</time>
      </trkpt>
      <trkpt lat="46.72433" lon="4.9524">
        <ele>196.2998</ele>
        <time>2026-05-14T11:02:59+02:00</time>
      </trkpt>
      <trkpt lat="46.72434" lon="4.95238">
        <ele>196.2998</ele>
        <time>2026-05-14T11:03:00+02:00</time>
      </trkpt>
      <trkpt lat="46.72436" lon="4.95237">
        <ele>196.2998</ele>
        <time>2026-05-14T11:03:01+02:00</time>
      </trkpt>
      <trkpt lat="46.72437" lon="4.95236">
        <ele>196.2998</ele>
        <time>2026-05-14T11:03:02+02:00</time>
      </trkpt>
      <trkpt lat="46.72438" lon="4.95235">
        <ele>196.2998</ele>
        <time>2026-05-14T11:03:03+02:00</time>
      </trkpt>
      <trkpt lat="46.72439" lon="4.95234">
        <ele>196.2002</ele>
        <time>2026-05-14T11:03:04+02:00</time>
      </trkpt>
      <trkpt lat="46.7244" lon="4.95233">
        <ele>196.2002</ele>
        <time>2026-05-14T11:03:05+02:00</time>
      </trkpt>
      <trkpt lat="46.72441" lon="4.95231">
        <ele>196.2002</ele>
        <time>2026-05-14T11:03:06+02:00</time>
      </trkpt>
      <trkpt lat="46.72442" lon="4.9523">
        <ele>196.2002</ele>
        <time>2026-05-14T11:03:07+02:00</time>
      </trkpt>
      <trkpt lat="46.72443" lon="4.95228">
        <ele>196.2002</ele>
        <time>2026-05-14T11:03:08+02:00</time>
      </trkpt>
      <trkpt lat="46.72451" lon="4.9522">
        <ele>196.10059</ele>
        <time>2026-05-14T11:03:12+02:00</time>
      </trkpt>
      <trkpt lat="46.72453" lon="4.95218">
        <ele>196.10059</ele>
        <time>2026-05-14T11:03:13+02:00</time>
      </trkpt>
      <trkpt lat="46.72455" lon="4.95216">
        <ele>196</ele>
        <time>2026-05-14T11:03:14+02:00</time>
      </trkpt>
      <trkpt lat="46.72457" lon="4.95215">
        <ele>196</ele>
        <time>2026-05-14T11:03:15+02:00</time>
      </trkpt>
      <trkpt lat="46.72459" lon="4.95214">
        <ele>196</ele>
        <time>2026-05-14T11:03:16+02:00</time>
      </trkpt>
      <trkpt lat="46.72461" lon="4.95213">
        <ele>196</ele>
        <time>2026-05-14T11:03:17+02:00</time>
      </trkpt>
      <trkpt lat="46.72463" lon="4.95212">
        <ele>195.90039</ele>
        <time>2026-05-14T11:03:18+02:00</time>
      </trkpt>
      <trkpt lat="46.72464" lon="4.95212">
        <ele>195.90039</ele>
        <time>2026-05-14T11:03:19+02:00</time>
      </trkpt>
      <trkpt lat="46.72465" lon="4.95211">
        <ele>195.90039</ele>
        <time>2026-05-14T11:03:20+02:00</time>
      </trkpt>
      <trkpt lat="46.72466" lon="4.9521">
        <ele>195.90039</ele>
        <time>2026-05-14T11:03:21+02:00</time>
      </trkpt>
      <trkpt lat="46.72466" lon="4.95211">
        <ele>195.90039</ele>
        <time>2026-05-14T11:03:22+02:00</time>
      </trkpt>
      <trkpt lat="46.72466" lon="4.95211">
        <ele>195.90039</ele>
        <time>2026-05-14T11:03:23+02:00</time>
      </trkpt>
      <trkpt lat="46.72458" lon="4.9521">
        <ele>196</ele>
        <time>2026-05-14T11:03:32+02:00</time>
      </trkpt>
      <trkpt lat="46.72456" lon="4.95212">
        <ele>196</ele>
        <time>2026-05-14T11:03:33+02:00</time>
      </trkpt>
      <trkpt lat="46.72454" lon="4.95214">
        <ele>196</ele>
        <time>2026-05-14T11:03:34+02:00</time>
      </trkpt>
      <trkpt lat="46.72452" lon="4.95216">
        <ele>196</ele>
        <time>2026-05-14T11:03:35+02:00</time>
      </trkpt>
      <trkpt lat="46.72449" lon="4.95219">
        <ele>196.10059</ele>
        <time>2026-05-14T11:03:36+02:00</time>
      </trkpt>
      <trkpt lat="46.72446" lon="4.95221">
        <ele>196.10059</ele>
        <time>2026-05-14T11:03:37+02:00</time>
      </trkpt>
      <trkpt lat="46.72443" lon="4.95224">
        <ele>196.10059</ele>
        <time>2026-05-14T11:03:38+02:00</time>
      </trkpt>
      <trkpt lat="46.7244" lon="4.95227">
        <ele>196.2002</ele>
        <time>2026-05-14T11:03:39+02:00</time>
      </trkpt>
      <trkpt lat="46.72437" lon="4.9523">
        <ele>196.2002</ele>
        <time>2026-05-14T11:03:40+02:00</time>
      </trkpt>
      <trkpt lat="46.72435" lon="4.95233">
        <ele>196.2002</ele>
        <time>2026-05-14T11:03:41+02:00</time>
      </trkpt>
      <trkpt lat="46.72432" lon="4.95236">
        <ele>196.2998</ele>
        <time>2026-05-14T11:03:42+02:00</time>
      </trkpt>
      <trkpt lat="46.72429" lon="4.95238">
        <ele>196.2998</ele>
        <time>2026-05-14T11:03:43+02:00</time>
      </trkpt>
      <trkpt lat="46.72426" lon="4.95241">
        <ele>196.2998</ele>
        <time>2026-05-14T11:03:44+02:00</time>
      </trkpt>
      <trkpt lat="46.72423" lon="4.95243">
        <ele>196.2998</ele>
        <time>2026-05-14T11:03:45+02:00</time>
      </trkpt>
      <trkpt lat="46.7242" lon="4.95246">
        <ele>196.40039</ele>
        <time>2026-05-14T11:03:46+02:00</time>
      </trkpt>
      <trkpt lat="46.72417" lon="4.95249">
        <ele>196.40039</ele>
        <time>2026-05-14T11:03:47+02:00</time>
      </trkpt>
      <trkpt lat="46.72415" lon="4.95253">
        <ele>196.40039</ele>
        <time>2026-05-14T11:03:48+02:00</time>
      </trkpt>
      <trkpt lat="46.72414" lon="4.95258">
        <ele>196.40039</ele>
        <time>2026-05-14T11:03:49+02:00</time>
      </trkpt>
      <trkpt lat="46.72414" lon="4.95263">
        <ele>196.40039</ele>
        <time>2026-05-14T11:03:50+02:00</time>
      </trkpt>
      <trkpt lat="46.72415" lon="4.95267">
        <ele>196.40039</ele>
        <time>2026-05-14T11:03:51+02:00</time>
      </trkpt>
      <trkpt lat="46.72416" lon="4.95271">
        <ele>196.2998</ele>
        <time>2026-05-14T11:03:52+02:00</time>
      </trkpt>
      <trkpt lat="46.72418" lon="4.95275">
        <ele>196.2998</ele>
        <time>2026-05-14T11:03:53+02:00</time>
      </trkpt>
      <trkpt lat="46.72421" lon="4.95279">
        <ele>196.2998</ele>
        <time>2026-05-14T11:03:54+02:00</time>
      </trkpt>
      <trkpt lat="46.72423" lon="4.95284">
        <ele>196.2002</ele>
        <time>2026-05-14T11:03:55+02:00</time>
      </trkpt>
      <trkpt lat="46.72426" lon="4.95288">
        <ele>196.10059</ele>
        <time>2026-05-14T11:03:56+02:00</time>
      </trkpt>
      <trkpt lat="46.72429" lon="4.95292">
        <ele>196.10059</ele>
        <time>2026-05-14T11:03:57+02:00</time>
      </trkpt>
      <trkpt lat="46.72432" lon="4.95297">
        <ele>196</ele>
        <time>2026-05-14T11:03:58+02:00</time>
      </trkpt>
      <trkpt lat="46.72435" lon="4.95302">
        <ele>195.90039</ele>
        <time>2026-05-14T11:03:59+02:00</time>
      </trkpt>
      <trkpt lat="46.72438" lon="4.95307">
        <ele>195.7998</ele>
        <time>2026-05-14T11:04:00+02:00</time>
      </trkpt>
      <trkpt lat="46.72441" lon="4.95312">
        <ele>195.7002</ele>
        <time>2026-05-14T11:04:01+02:00</time>
      </trkpt>
      <trkpt lat="46.72444" lon="4.95317">
        <ele>195.7002</ele>
        <time>2026-05-14T11:04:02+02:00</time>
      </trkpt>
      <trkpt lat="46.72448" lon="4.95323">
        <ele>195.5</ele>
        <time>2026-05-14T11:04:03+02:00</time>
      </trkpt>
      <trkpt lat="46.72451" lon="4.95328">
        <ele>195.5</ele>
        <time>2026-05-14T11:04:04+02:00</time>
      </trkpt>
      <trkpt lat="46.72454" lon="4.95333">
        <ele>195.40039</ele>
        <time>2026-05-14T11:04:05+02:00</time>
      </trkpt>
      <trkpt lat="46.72458" lon="4.95339">
        <ele>195.2002</ele>
        <time>2026-05-14T11:04:06+02:00</time>
      </trkpt>
      <trkpt lat="46.72461" lon="4.95344">
        <ele>195.2002</ele>
        <time>2026-05-14T11:04:07+02:00</time>
      </trkpt>
      <trkpt lat="46.72465" lon="4.95349">
        <ele>195.10059</ele>
        <time>2026-05-14T11:04:08+02:00</time>
      </trkpt>
      <trkpt lat="46.72469" lon="4.95355">
        <ele>194.90039</ele>
        <time>2026-05-14T11:04:09+02:00</time>
      </trkpt>
      <trkpt lat="46.72473" lon="4.95361">
        <ele>194.90039</ele>
        <time>2026-05-14T11:04:10+02:00</time>
      </trkpt>
      <trkpt lat="46.72477" lon="4.95367">
        <ele>194.7998</ele>
        <time>2026-05-14T11:04:11+02:00</time>
      </trkpt>
      <trkpt lat="46.72478" lon="4.95369">
        <ele>194.7998</ele>
        <time>2026-05-14T11:04:12+02:00</time>
      </trkpt>
      <trkpt lat="46.72484" lon="4.95378">
        <ele>194.60059</ele>
        <time>2026-05-14T11:04:13+02:00</time>
      </trkpt>
      <trkpt lat="46.72488" lon="4.95384">
        <ele>194.5</ele>
        <time>2026-05-14T11:04:14+02:00</time>
      </trkpt>
      <trkpt lat="46.72492" lon="4.95389">
        <ele>194.2998</ele>
        <time>2026-05-14T11:04:15+02:00</time>
      </trkpt>
      <trkpt lat="46.72495" lon="4.95395">
        <ele>194.2998</ele>
        <time>2026-05-14T11:04:16+02:00</time>
      </trkpt>
      <trkpt lat="46.72499" lon="4.954">
        <ele>194.2002</ele>
        <time>2026-05-14T11:04:17+02:00</time>
      </trkpt>
      <trkpt lat="46.72502" lon="4.95406">
        <ele>194.2002</ele>
        <time>2026-05-14T11:04:18+02:00</time>
      </trkpt>
      <trkpt lat="46.72506" lon="4.95411">
        <ele>194.2002</ele>
        <time>2026-05-14T11:04:19+02:00</time>
      </trkpt>
      <trkpt lat="46.7251" lon="4.95416">
        <ele>194.10059</ele>
        <time>2026-05-14T11:04:20+02:00</time>
      </trkpt>
      <trkpt lat="46.72513" lon="4.95422">
        <ele>194.10059</ele>
        <time>2026-05-14T11:04:21+02:00</time>
      </trkpt>
      <trkpt lat="46.72517" lon="4.95428">
        <ele>194.10059</ele>
        <time>2026-05-14T11:04:22+02:00</time>
      </trkpt>
      <trkpt lat="46.72521" lon="4.95433">
        <ele>194</ele>
        <time>2026-05-14T11:04:23+02:00</time>
      </trkpt>
      <trkpt lat="46.72525" lon="4.95439">
        <ele>194.10059</ele>
        <time>2026-05-14T11:04:24+02:00</time>
      </trkpt>
      <trkpt lat="46.72529" lon="4.95445">
        <ele>194.2002</ele>
        <time>2026-05-14T11:04:25+02:00</time>
      </trkpt>
      <trkpt lat="46.7253" lon="4.95448">
        <ele>194.2002</ele>
        <time>2026-05-14T11:04:26+02:00</time>
      </trkpt>
      <trkpt lat="46.72536" lon="4.95456">
        <ele>194.40039</ele>
        <time>2026-05-14T11:04:27+02:00</time>
      </trkpt>
      <trkpt lat="46.7254" lon="4.95462">
        <ele>194.5</ele>
        <time>2026-05-14T11:04:28+02:00</time>
      </trkpt>
      <trkpt lat="46.72544" lon="4.95469">
        <ele>194.5</ele>
        <time>2026-05-14T11:04:29+02:00</time>
      </trkpt>
      <trkpt lat="46.72548" lon="4.95475">
        <ele>194.7002</ele>
        <time>2026-05-14T11:04:30+02:00</time>
      </trkpt>
      <trkpt lat="46.72551" lon="4.95481">
        <ele>194.7998</ele>
        <time>2026-05-14T11:04:31+02:00</time>
      </trkpt>
      <trkpt lat="46.72555" lon="4.95488">
        <ele>194.7998</ele>
        <time>2026-05-14T11:04:32+02:00</time>
      </trkpt>
      <trkpt lat="46.72559" lon="4.95494">
        <ele>194.90039</ele>
        <time>2026-05-14T11:04:33+02:00</time>
      </trkpt>
      <trkpt lat="46.72562" lon="4.95501">
        <ele>194.7998</ele>
        <time>2026-05-14T11:04:34+02:00</time>
      </trkpt>
      <trkpt lat="46.72566" lon="4.95508">
        <ele>194.90039</ele>
        <time>2026-05-14T11:04:35+02:00</time>
      </trkpt>
      <trkpt lat="46.72569" lon="4.95515">
        <ele>194.90039</ele>
        <time>2026-05-14T11:04:36+02:00</time>
      </trkpt>
      <trkpt lat="46.72572" lon="4.95521">
        <ele>194.7998</ele>
        <time>2026-05-14T11:04:37+02:00</time>
      </trkpt>
      <trkpt lat="46.72576" lon="4.95528">
        <ele>194.60059</ele>
        <time>2026-05-14T11:04:38+02:00</time>
      </trkpt>
      <trkpt lat="46.72579" lon="4.95535">
        <ele>194.40039</ele>
        <time>2026-05-14T11:04:39+02:00</time>
      </trkpt>
      <trkpt lat="46.72583" lon="4.95542">
        <ele>194.40039</ele>
        <time>2026-05-14T11:04:40+02:00</time>
      </trkpt>
      <trkpt lat="46.72587" lon="4.95549">
        <ele>194.2002</ele>
        <time>2026-05-14T11:04:41+02:00</time>
      </trkpt>
      <trkpt lat="46.72591" lon="4.95556">
        <ele>194</ele>
        <time>2026-05-14T11:04:42+02:00</time>
      </trkpt>
      <trkpt lat="46.72595" lon="4.95563">
        <ele>193.7998</ele>
        <time>2026-05-14T11:04:43+02:00</time>
      </trkpt>
      <trkpt lat="46.72598" lon="4.95571">
        <ele>193.5</ele>
        <time>2026-05-14T11:04:44+02:00</time>
      </trkpt>
      <trkpt lat="46.72601" lon="4.95577">
        <ele>193.5</ele>
        <time>2026-05-14T11:04:45+02:00</time>
      </trkpt>
      <trkpt lat="46.72604" lon="4.95584">
        <ele>193.2998</ele>
        <time>2026-05-14T11:04:46+02:00</time>
      </trkpt>
      <trkpt lat="46.72608" lon="4.95591">
        <ele>193.2998</ele>
        <time>2026-05-14T11:04:47+02:00</time>
      </trkpt>
      <trkpt lat="46.7261" lon="4.95598">
        <ele>193.2002</ele>
        <time>2026-05-14T11:04:48+02:00</time>
      </trkpt>
      <trkpt lat="46.72614" lon="4.95605">
        <ele>193.2002</ele>
        <time>2026-05-14T11:04:49+02:00</time>
      </trkpt>
      <trkpt lat="46.72617" lon="4.95613">
        <ele>193.10059</ele>
        <time>2026-05-14T11:04:50+02:00</time>
      </trkpt>
      <trkpt lat="46.72621" lon="4.95621">
        <ele>193.2002</ele>
        <time>2026-05-14T11:04:51+02:00</time>
      </trkpt>
      <trkpt lat="46.72625" lon="4.95629">
        <ele>193.10059</ele>
        <time>2026-05-14T11:04:52+02:00</time>
      </trkpt>
      <trkpt lat="46.72629" lon="4.95637">
        <ele>193</ele>
        <time>2026-05-14T11:04:53+02:00</time>
      </trkpt>
      <trkpt lat="46.72633" lon="4.95645">
        <ele>193.10059</ele>
        <time>2026-05-14T11:04:54+02:00</time>
      </trkpt>
      <trkpt lat="46.72638" lon="4.95652">
        <ele>193.10059</ele>
        <time>2026-05-14T11:04:55+02:00</time>
      </trkpt>
      <trkpt lat="46.72642" lon="4.9566">
        <ele>193</ele>
        <time>2026-05-14T11:04:56+02:00</time>
      </trkpt>
      <trkpt lat="46.72646" lon="4.95668">
        <ele>193</ele>
        <time>2026-05-14T11:04:57+02:00</time>
      </trkpt>
      <trkpt lat="46.7265" lon="4.95676">
        <ele>193</ele>
        <time>2026-05-14T11:04:58+02:00</time>
      </trkpt>
      <trkpt lat="46.72654" lon="4.95684">
        <ele>192.90039</ele>
        <time>2026-05-14T11:04:59+02:00</time>
      </trkpt>
      <trkpt lat="46.72658" lon="4.95692">
        <ele>192.90039</ele>
        <time>2026-05-14T11:05:00+02:00</time>
      </trkpt>
      <trkpt lat="46.72662" lon="4.95699">
        <ele>192.90039</ele>
        <time>2026-05-14T11:05:01+02:00</time>
      </trkpt>
      <trkpt lat="46.72666" lon="4.95706">
        <ele>192.7998</ele>
        <time>2026-05-14T11:05:02+02:00</time>
      </trkpt>
      <trkpt lat="46.7267" lon="4.95714">
        <ele>192.7002</ele>
        <time>2026-05-14T11:05:03+02:00</time>
      </trkpt>
      <trkpt lat="46.72674" lon="4.95721">
        <ele>192.7002</ele>
        <time>2026-05-14T11:05:04+02:00</time>
      </trkpt>
      <trkpt lat="46.72678" lon="4.95729">
        <ele>192.60059</ele>
        <time>2026-05-14T11:05:05+02:00</time>
      </trkpt>
      <trkpt lat="46.72679" lon="4.95732">
        <ele>192.60059</ele>
        <time>2026-05-14T11:05:06+02:00</time>
      </trkpt>
      <trkpt lat="46.72685" lon="4.95744">
        <ele>192.40039</ele>
        <time>2026-05-14T11:05:07+02:00</time>
      </trkpt>
      <trkpt lat="46.72689" lon="4.95751">
        <ele>192.2998</ele>
        <time>2026-05-14T11:05:08+02:00</time>
      </trkpt>
      <trkpt lat="46.72693" lon="4.95759">
        <ele>192.10059</ele>
        <time>2026-05-14T11:05:09+02:00</time>
      </trkpt>
      <trkpt lat="46.72697" lon="4.95767">
        <ele>192.10059</ele>
        <time>2026-05-14T11:05:10+02:00</time>
      </trkpt>
      <trkpt lat="46.72701" lon="4.95774">
        <ele>192</ele>
        <time>2026-05-14T11:05:11+02:00</time>
      </trkpt>
      <trkpt lat="46.72705" lon="4.95782">
        <ele>191.7998</ele>
        <time>2026-05-14T11:05:12+02:00</time>
      </trkpt>
      <trkpt lat="46.72709" lon="4.95789">
        <ele>191.7998</ele>
        <time>2026-05-14T11:05:13+02:00</time>
      </trkpt>
      <trkpt lat="46.72713" lon="4.95796">
        <ele>191.7002</ele>
        <time>2026-05-14T11:05:14+02:00</time>
      </trkpt>
      <trkpt lat="46.72716" lon="4.95803">
        <ele>191.5</ele>
        <time>2026-05-14T11:05:15+02:00</time>
      </trkpt>
      <trkpt lat="46.72719" lon="4.95811">
        <ele>191.5</ele>
        <time>2026-05-14T11:05:16+02:00</time>
      </trkpt>
      <trkpt lat="46.72722" lon="4.95817">
        <ele>191.40039</ele>
        <time>2026-05-14T11:05:17+02:00</time>
      </trkpt>
      <trkpt lat="46.72726" lon="4.95821">
        <ele>191.40039</ele>
        <time>2026-05-14T11:05:18+02:00</time>
      </trkpt>
      <trkpt lat="46.7273" lon="4.95821">
        <ele>191.2002</ele>
        <time>2026-05-14T11:05:19+02:00</time>
      </trkpt>
      <trkpt lat="46.72733" lon="4.95819">
        <ele>191.2002</ele>
        <time>2026-05-14T11:05:20+02:00</time>
      </trkpt>
      <trkpt lat="46.72736" lon="4.95816">
        <ele>191.10059</ele>
        <time>2026-05-14T11:05:21+02:00</time>
      </trkpt>
      <trkpt lat="46.72739" lon="4.95812">
        <ele>191</ele>
        <time>2026-05-14T11:05:22+02:00</time>
      </trkpt>
      <trkpt lat="46.72741" lon="4.95808">
        <ele>191</ele>
        <time>2026-05-14T11:05:23+02:00</time>
      </trkpt>
      <trkpt lat="46.72744" lon="4.95803">
        <ele>191</ele>
        <time>2026-05-14T11:05:24+02:00</time>
      </trkpt>
      <trkpt lat="46.72747" lon="4.95798">
        <ele>190.90039</ele>
        <time>2026-05-14T11:05:25+02:00</time>
      </trkpt>
      <trkpt lat="46.72749" lon="4.95793">
        <ele>190.90039</ele>
        <time>2026-05-14T11:05:26+02:00</time>
      </trkpt>
      <trkpt lat="46.72753" lon="4.95787">
        <ele>190.7998</ele>
        <time>2026-05-14T11:05:27+02:00</time>
      </trkpt>
      <trkpt lat="46.72755" lon="4.95781">
        <ele>190.7998</ele>
        <time>2026-05-14T11:05:28+02:00</time>
      </trkpt>
      <trkpt lat="46.72758" lon="4.95775">
        <ele>190.7002</ele>
        <time>2026-05-14T11:05:29+02:00</time>
      </trkpt>
      <trkpt lat="46.72761" lon="4.95769">
        <ele>190.7002</ele>
        <time>2026-05-14T11:05:30+02:00</time>
      </trkpt>
      <trkpt lat="46.72764" lon="4.95762">
        <ele>190.7002</ele>
        <time>2026-05-14T11:05:31+02:00</time>
      </trkpt>
      <trkpt lat="46.72766" lon="4.95756">
        <ele>190.7002</ele>
        <time>2026-05-14T11:05:32+02:00</time>
      </trkpt>
      <trkpt lat="46.72769" lon="4.95749">
        <ele>190.7002</ele>
        <time>2026-05-14T11:05:33+02:00</time>
      </trkpt>
      <trkpt lat="46.72772" lon="4.95743">
        <ele>190.7002</ele>
        <time>2026-05-14T11:05:34+02:00</time>
      </trkpt>
      <trkpt lat="46.72774" lon="4.95736">
        <ele>190.90039</ele>
        <time>2026-05-14T11:05:35+02:00</time>
      </trkpt>
      <trkpt lat="46.72777" lon="4.95729">
        <ele>190.90039</ele>
        <time>2026-05-14T11:05:36+02:00</time>
      </trkpt>
      <trkpt lat="46.7278" lon="4.95723">
        <ele>191.10059</ele>
        <time>2026-05-14T11:05:37+02:00</time>
      </trkpt>
      <trkpt lat="46.72783" lon="4.95716">
        <ele>191</ele>
        <time>2026-05-14T11:05:38+02:00</time>
      </trkpt>
      <trkpt lat="46.72785" lon="4.9571">
        <ele>191.10059</ele>
        <time>2026-05-14T11:05:39+02:00</time>
      </trkpt>
      <trkpt lat="46.72788" lon="4.95704">
        <ele>191.2002</ele>
        <time>2026-05-14T11:05:40+02:00</time>
      </trkpt>
      <trkpt lat="46.7279" lon="4.95698">
        <ele>191.2002</ele>
        <time>2026-05-14T11:05:41+02:00</time>
      </trkpt>
      <trkpt lat="46.72793" lon="4.95692">
        <ele>191.2998</ele>
        <time>2026-05-14T11:05:42+02:00</time>
      </trkpt>
      <trkpt lat="46.72796" lon="4.95686">
        <ele>191.40039</ele>
        <time>2026-05-14T11:05:43+02:00</time>
      </trkpt>
      <trkpt lat="46.72799" lon="4.95679">
        <ele>191.60059</ele>
        <time>2026-05-14T11:05:44+02:00</time>
      </trkpt>
      <trkpt lat="46.72801" lon="4.95672">
        <ele>191.7998</ele>
        <time>2026-05-14T11:05:45+02:00</time>
      </trkpt>
      <trkpt lat="46.72804" lon="4.95665">
        <ele>191.7002</ele>
        <time>2026-05-14T11:05:46+02:00</time>
      </trkpt>
      <trkpt lat="46.72807" lon="4.95659">
        <ele>192</ele>
        <time>2026-05-14T11:05:47+02:00</time>
      </trkpt>
      <trkpt lat="46.72809" lon="4.95652">
        <ele>192.2998</ele>
        <time>2026-05-14T11:05:48+02:00</time>
      </trkpt>
      <trkpt lat="46.72812" lon="4.95645">
        <ele>192.5</ele>
        <time>2026-05-14T11:05:49+02:00</time>
      </trkpt>
      <trkpt lat="46.72815" lon="4.95638">
        <ele>192.5</ele>
        <time>2026-05-14T11:05:50+02:00</time>
      </trkpt>
      <trkpt lat="46.72817" lon="4.95631">
        <ele>192.7998</ele>
        <time>2026-05-14T11:05:51+02:00</time>
      </trkpt>
      <trkpt lat="46.7282" lon="4.95624">
        <ele>193.2002</ele>
        <time>2026-05-14T11:05:52+02:00</time>
      </trkpt>
      <trkpt lat="46.72823" lon="4.95617">
        <ele>193.60059</ele>
        <time>2026-05-14T11:05:53+02:00</time>
      </trkpt>
      <trkpt lat="46.72826" lon="4.9561">
        <ele>194</ele>
        <time>2026-05-14T11:05:54+02:00</time>
      </trkpt>
      <trkpt lat="46.72829" lon="4.95603">
        <ele>194.40039</ele>
        <time>2026-05-14T11:05:55+02:00</time>
      </trkpt>
      <trkpt lat="46.72832" lon="4.95596">
        <ele>194.40039</ele>
        <time>2026-05-14T11:05:56+02:00</time>
      </trkpt>
      <trkpt lat="46.72835" lon="4.95589">
        <ele>194.7002</ele>
        <time>2026-05-14T11:05:57+02:00</time>
      </trkpt>
      <trkpt lat="46.72837" lon="4.95583">
        <ele>195.10059</ele>
        <time>2026-05-14T11:05:58+02:00</time>
      </trkpt>
      <trkpt lat="46.7284" lon="4.95576">
        <ele>195.2998</ele>
        <time>2026-05-14T11:05:59+02:00</time>
      </trkpt>
      <trkpt lat="46.72843" lon="4.9557">
        <ele>195.2998</ele>
        <time>2026-05-14T11:06:00+02:00</time>
      </trkpt>
      <trkpt lat="46.72844" lon="4.95567">
        <ele>195.60059</ele>
        <time>2026-05-14T11:06:01+02:00</time>
      </trkpt>
      <trkpt lat="46.72849" lon="4.95556">
        <ele>195.60059</ele>
        <time>2026-05-14T11:06:02+02:00</time>
      </trkpt>
      <trkpt lat="46.72851" lon="4.9555">
        <ele>195.5</ele>
        <time>2026-05-14T11:06:03+02:00</time>
      </trkpt>
      <trkpt lat="46.72854" lon="4.95543">
        <ele>195.60059</ele>
        <time>2026-05-14T11:06:04+02:00</time>
      </trkpt>
      <trkpt lat="46.72857" lon="4.95537">
        <ele>195.2998</ele>
        <time>2026-05-14T11:06:05+02:00</time>
      </trkpt>
      <trkpt lat="46.7286" lon="4.9553">
        <ele>195.40039</ele>
        <time>2026-05-14T11:06:06+02:00</time>
      </trkpt>
      <trkpt lat="46.72863" lon="4.95523">
        <ele>195.10059</ele>
        <time>2026-05-14T11:06:07+02:00</time>
      </trkpt>
      <trkpt lat="46.72865" lon="4.95517">
        <ele>195.2002</ele>
        <time>2026-05-14T11:06:08+02:00</time>
      </trkpt>
      <trkpt lat="46.72868" lon="4.9551">
        <ele>195.2002</ele>
        <time>2026-05-14T11:06:09+02:00</time>
      </trkpt>
      <trkpt lat="46.72871" lon="4.95503">
        <ele>195</ele>
        <time>2026-05-14T11:06:10+02:00</time>
      </trkpt>
      <trkpt lat="46.72874" lon="4.95496">
        <ele>195.2002</ele>
        <time>2026-05-14T11:06:11+02:00</time>
      </trkpt>
      <trkpt lat="46.72877" lon="4.95489">
        <ele>195</ele>
        <time>2026-05-14T11:06:12+02:00</time>
      </trkpt>
      <trkpt lat="46.7288" lon="4.95482">
        <ele>195</ele>
        <time>2026-05-14T11:06:13+02:00</time>
      </trkpt>
      <trkpt lat="46.72883" lon="4.95476">
        <ele>195</ele>
        <time>2026-05-14T11:06:14+02:00</time>
      </trkpt>
      <trkpt lat="46.72885" lon="4.95472">
        <ele>195.2002</ele>
        <time>2026-05-14T11:06:15+02:00</time>
      </trkpt>
      <trkpt lat="46.72889" lon="4.95461">
        <ele>195.2002</ele>
        <time>2026-05-14T11:06:16+02:00</time>
      </trkpt>
      <trkpt lat="46.72892" lon="4.95454">
        <ele>195.2998</ele>
        <time>2026-05-14T11:06:17+02:00</time>
      </trkpt>
      <trkpt lat="46.72895" lon="4.95447">
        <ele>195.7002</ele>
        <time>2026-05-14T11:06:18+02:00</time>
      </trkpt>
      <trkpt lat="46.72898" lon="4.9544">
        <ele>195.90039</ele>
        <time>2026-05-14T11:06:19+02:00</time>
      </trkpt>
      <trkpt lat="46.72901" lon="4.95433">
        <ele>195.90039</ele>
        <time>2026-05-14T11:06:20+02:00</time>
      </trkpt>
      <trkpt lat="46.72904" lon="4.95426">
        <ele>196.10059</ele>
        <time>2026-05-14T11:06:21+02:00</time>
      </trkpt>
      <trkpt lat="46.72907" lon="4.95419">
        <ele>196.2998</ele>
        <time>2026-05-14T11:06:22+02:00</time>
      </trkpt>
      <trkpt lat="46.7291" lon="4.95411">
        <ele>196.5</ele>
        <time>2026-05-14T11:06:23+02:00</time>
      </trkpt>
      <trkpt lat="46.72913" lon="4.95404">
        <ele>196.7002</ele>
        <time>2026-05-14T11:06:24+02:00</time>
      </trkpt>
      <trkpt lat="46.72916" lon="4.95397">
        <ele>196.7998</ele>
        <time>2026-05-14T11:06:25+02:00</time>
      </trkpt>
      <trkpt lat="46.72919" lon="4.9539">
        <ele>196.7998</ele>
        <time>2026-05-14T11:06:26+02:00</time>
      </trkpt>
      <trkpt lat="46.72922" lon="4.95382">
        <ele>196.7998</ele>
        <time>2026-05-14T11:06:27+02:00</time>
      </trkpt>
      <trkpt lat="46.72925" lon="4.95375">
        <ele>197</ele>
        <time>2026-05-14T11:06:28+02:00</time>
      </trkpt>
      <trkpt lat="46.72928" lon="4.95368">
        <ele>197</ele>
        <time>2026-05-14T11:06:29+02:00</time>
      </trkpt>
      <trkpt lat="46.72931" lon="4.95361">
        <ele>197.10059</ele>
        <time>2026-05-14T11:06:30+02:00</time>
      </trkpt>
      <trkpt lat="46.72934" lon="4.95354">
        <ele>197.10059</ele>
        <time>2026-05-14T11:06:31+02:00</time>
      </trkpt>
      <trkpt lat="46.72937" lon="4.95347">
        <ele>197.10059</ele>
        <time>2026-05-14T11:06:32+02:00</time>
      </trkpt>
      <trkpt lat="46.7294" lon="4.9534">
        <ele>197</ele>
        <time>2026-05-14T11:06:33+02:00</time>
      </trkpt>
      <trkpt lat="46.72943" lon="4.95333">
        <ele>197</ele>
        <time>2026-05-14T11:06:34+02:00</time>
      </trkpt>
      <trkpt lat="46.72946" lon="4.95326">
        <ele>196.90039</ele>
        <time>2026-05-14T11:06:35+02:00</time>
      </trkpt>
      <trkpt lat="46.72947" lon="4.95322">
        <ele>196.90039</ele>
        <time>2026-05-14T11:06:36+02:00</time>
      </trkpt>
      <trkpt lat="46.72951" lon="4.95312">
        <ele>196.7002</ele>
        <time>2026-05-14T11:06:37+02:00</time>
      </trkpt>
      <trkpt lat="46.72954" lon="4.95305">
        <ele>196.7002</ele>
        <time>2026-05-14T11:06:38+02:00</time>
      </trkpt>
      <trkpt lat="46.72957" lon="4.95298">
        <ele>196.5</ele>
        <time>2026-05-14T11:06:39+02:00</time>
      </trkpt>
      <trkpt lat="46.7296" lon="4.95291">
        <ele>196.5</ele>
        <time>2026-05-14T11:06:40+02:00</time>
      </trkpt>
      <trkpt lat="46.72963" lon="4.95284">
        <ele>196.40039</ele>
        <time>2026-05-14T11:06:41+02:00</time>
      </trkpt>
      <trkpt lat="46.72966" lon="4.95277">
        <ele>196.40039</ele>
        <time>2026-05-14T11:06:42+02:00</time>
      </trkpt>
      <trkpt lat="46.72969" lon="4.9527">
        <ele>196.2998</ele>
        <time>2026-05-14T11:06:43+02:00</time>
      </trkpt>
      <trkpt lat="46.72972" lon="4.95262">
        <ele>196.2002</ele>
        <time>2026-05-14T11:06:44+02:00</time>
      </trkpt>
      <trkpt lat="46.72975" lon="4.95255">
        <ele>196.2002</ele>
        <time>2026-05-14T11:06:45+02:00</time>
      </trkpt>
      <trkpt lat="46.72978" lon="4.95247">
        <ele>196.10059</ele>
        <time>2026-05-14T11:06:46+02:00</time>
      </trkpt>
      <trkpt lat="46.72981" lon="4.9524">
        <ele>196.10059</ele>
        <time>2026-05-14T11:06:47+02:00</time>
      </trkpt>
      <trkpt lat="46.72984" lon="4.95233">
        <ele>196.10059</ele>
        <time>2026-05-14T11:06:48+02:00</time>
      </trkpt>
      <trkpt lat="46.72987" lon="4.95226">
        <ele>196</ele>
        <time>2026-05-14T11:06:49+02:00</time>
      </trkpt>
      <trkpt lat="46.7299" lon="4.95218">
        <ele>196</ele>
        <time>2026-05-14T11:06:50+02:00</time>
      </trkpt>
      <trkpt lat="46.72993" lon="4.95211">
        <ele>195.90039</ele>
        <time>2026-05-14T11:06:51+02:00</time>
      </trkpt>
      <trkpt lat="46.72996" lon="4.95204">
        <ele>195.90039</ele>
        <time>2026-05-14T11:06:52+02:00</time>
      </trkpt>
      <trkpt lat="46.73" lon="4.95196">
        <ele>195.7998</ele>
        <time>2026-05-14T11:06:53+02:00</time>
      </trkpt>
      <trkpt lat="46.73003" lon="4.95189">
        <ele>195.7998</ele>
        <time>2026-05-14T11:06:54+02:00</time>
      </trkpt>
      <trkpt lat="46.73004" lon="4.95186">
        <ele>195.7002</ele>
        <time>2026-05-14T11:06:55+02:00</time>
      </trkpt>
      <trkpt lat="46.73009" lon="4.95175">
        <ele>195.7002</ele>
        <time>2026-05-14T11:06:56+02:00</time>
      </trkpt>
      <trkpt lat="46.73012" lon="4.95167">
        <ele>195.60059</ele>
        <time>2026-05-14T11:06:57+02:00</time>
      </trkpt>
      <trkpt lat="46.73015" lon="4.9516">
        <ele>195.60059</ele>
        <time>2026-05-14T11:06:58+02:00</time>
      </trkpt>
      <trkpt lat="46.73018" lon="4.95153">
        <ele>195.5</ele>
        <time>2026-05-14T11:06:59+02:00</time>
      </trkpt>
      <trkpt lat="46.73021" lon="4.95145">
        <ele>195.5</ele>
        <time>2026-05-14T11:07:00+02:00</time>
      </trkpt>
      <trkpt lat="46.73024" lon="4.95138">
        <ele>195.40039</ele>
        <time>2026-05-14T11:07:01+02:00</time>
      </trkpt>
      <trkpt lat="46.73027" lon="4.95131">
        <ele>195.5</ele>
        <time>2026-05-14T11:07:02+02:00</time>
      </trkpt>
      <trkpt lat="46.73031" lon="4.95123">
        <ele>195.2998</ele>
        <time>2026-05-14T11:07:03+02:00</time>
      </trkpt>
      <trkpt lat="46.73034" lon="4.95116">
        <ele>195.2002</ele>
        <time>2026-05-14T11:07:04+02:00</time>
      </trkpt>
      <trkpt lat="46.73037" lon="4.95108">
        <ele>195.2002</ele>
        <time>2026-05-14T11:07:05+02:00</time>
      </trkpt>
      <trkpt lat="46.73038" lon="4.95104">
        <ele>195.2998</ele>
        <time>2026-05-14T11:07:06+02:00</time>
      </trkpt>
      <trkpt lat="46.73043" lon="4.95093">
        <ele>195.10059</ele>
        <time>2026-05-14T11:07:07+02:00</time>
      </trkpt>
      <trkpt lat="46.73046" lon="4.95086">
        <ele>195</ele>
        <time>2026-05-14T11:07:08+02:00</time>
      </trkpt>
      <trkpt lat="46.73049" lon="4.95079">
        <ele>195</ele>
        <time>2026-05-14T11:07:09+02:00</time>
      </trkpt>
      <trkpt lat="46.73052" lon="4.95072">
        <ele>194.7998</ele>
        <time>2026-05-14T11:07:10+02:00</time>
      </trkpt>
      <trkpt lat="46.73054" lon="4.95065">
        <ele>194.7998</ele>
        <time>2026-05-14T11:07:11+02:00</time>
      </trkpt>
      <trkpt lat="46.73057" lon="4.95059">
        <ele>194.60059</ele>
        <time>2026-05-14T11:07:12+02:00</time>
      </trkpt>
      <trkpt lat="46.73059" lon="4.95052">
        <ele>194.60059</ele>
        <time>2026-05-14T11:07:13+02:00</time>
      </trkpt>
      <trkpt lat="46.73061" lon="4.95047">
        <ele>194.60059</ele>
        <time>2026-05-14T11:07:14+02:00</time>
      </trkpt>
      <trkpt lat="46.73063" lon="4.95042">
        <ele>194.40039</ele>
        <time>2026-05-14T11:07:15+02:00</time>
      </trkpt>
      <trkpt lat="46.73065" lon="4.95038">
        <ele>194.40039</ele>
        <time>2026-05-14T11:07:16+02:00</time>
      </trkpt>
      <trkpt lat="46.73067" lon="4.95034">
        <ele>194.40039</ele>
        <time>2026-05-14T11:07:17+02:00</time>
      </trkpt>
      <trkpt lat="46.7307" lon="4.95029">
        <ele>194.2002</ele>
        <time>2026-05-14T11:07:18+02:00</time>
      </trkpt>
      <trkpt lat="46.73072" lon="4.95023">
        <ele>194.2002</ele>
        <time>2026-05-14T11:07:19+02:00</time>
      </trkpt>
      <trkpt lat="46.73074" lon="4.95018">
        <ele>194.2002</ele>
        <time>2026-05-14T11:07:20+02:00</time>
      </trkpt>
      <trkpt lat="46.73077" lon="4.95012">
        <ele>194.10059</ele>
        <time>2026-05-14T11:07:21+02:00</time>
      </trkpt>
      <trkpt lat="46.73079" lon="4.95006">
        <ele>194.10059</ele>
        <time>2026-05-14T11:07:22+02:00</time>
      </trkpt>
      <trkpt lat="46.73082" lon="4.94999">
        <ele>194.10059</ele>
        <time>2026-05-14T11:07:23+02:00</time>
      </trkpt>
      <trkpt lat="46.73085" lon="4.94993">
        <ele>194.10059</ele>
        <time>2026-05-14T11:07:24+02:00</time>
      </trkpt>
      <trkpt lat="46.73086" lon="4.94989">
        <ele>194.10059</ele>
        <time>2026-05-14T11:07:25+02:00</time>
      </trkpt>
      <trkpt lat="46.7309" lon="4.94979">
        <ele>194.10059</ele>
        <time>2026-05-14T11:07:26+02:00</time>
      </trkpt>
      <trkpt lat="46.73093" lon="4.94973">
        <ele>194.2002</ele>
        <time>2026-05-14T11:07:27+02:00</time>
      </trkpt>
      <trkpt lat="46.73095" lon="4.94966">
        <ele>194.2998</ele>
        <time>2026-05-14T11:07:28+02:00</time>
      </trkpt>
      <trkpt lat="46.73099" lon="4.9496">
        <ele>194.2998</ele>
        <time>2026-05-14T11:07:29+02:00</time>
      </trkpt>
      <trkpt lat="46.73102" lon="4.94953">
        <ele>194.40039</ele>
        <time>2026-05-14T11:07:30+02:00</time>
      </trkpt>
      <trkpt lat="46.73104" lon="4.94947">
        <ele>194.5</ele>
        <time>2026-05-14T11:07:31+02:00</time>
      </trkpt>
      <trkpt lat="46.73107" lon="4.9494">
        <ele>194.60059</ele>
        <time>2026-05-14T11:07:32+02:00</time>
      </trkpt>
      <trkpt lat="46.7311" lon="4.94933">
        <ele>194.7002</ele>
        <time>2026-05-14T11:07:33+02:00</time>
      </trkpt>
      <trkpt lat="46.73113" lon="4.94926">
        <ele>194.7002</ele>
        <time>2026-05-14T11:07:34+02:00</time>
      </trkpt>
      <trkpt lat="46.73116" lon="4.94919">
        <ele>194.7998</ele>
        <time>2026-05-14T11:07:35+02:00</time>
      </trkpt>
      <trkpt lat="46.73119" lon="4.94912">
        <ele>194.90039</ele>
        <time>2026-05-14T11:07:36+02:00</time>
      </trkpt>
      <trkpt lat="46.73121" lon="4.94906">
        <ele>195</ele>
        <time>2026-05-14T11:07:37+02:00</time>
      </trkpt>
      <trkpt lat="46.73124" lon="4.94899">
        <ele>195.10059</ele>
        <time>2026-05-14T11:07:38+02:00</time>
      </trkpt>
      <trkpt lat="46.73127" lon="4.94892">
        <ele>195.10059</ele>
        <time>2026-05-14T11:07:39+02:00</time>
      </trkpt>
      <trkpt lat="46.73129" lon="4.94885">
        <ele>195.2998</ele>
        <time>2026-05-14T11:07:40+02:00</time>
      </trkpt>
      <trkpt lat="46.73132" lon="4.94879">
        <ele>195.40039</ele>
        <time>2026-05-14T11:07:41+02:00</time>
      </trkpt>
      <trkpt lat="46.73135" lon="4.94873">
        <ele>195.60059</ele>
        <time>2026-05-14T11:07:42+02:00</time>
      </trkpt>
      <trkpt lat="46.73138" lon="4.94866">
        <ele>195.60059</ele>
        <time>2026-05-14T11:07:43+02:00</time>
      </trkpt>
      <trkpt lat="46.7314" lon="4.94859">
        <ele>195.7998</ele>
        <time>2026-05-14T11:07:44+02:00</time>
      </trkpt>
      <trkpt lat="46.73143" lon="4.94853">
        <ele>196</ele>
        <time>2026-05-14T11:07:45+02:00</time>
      </trkpt>
      <trkpt lat="46.73146" lon="4.94847">
        <ele>196.2002</ele>
        <time>2026-05-14T11:07:46+02:00</time>
      </trkpt>
      <trkpt lat="46.73148" lon="4.9484">
        <ele>196.2002</ele>
        <time>2026-05-14T11:07:47+02:00</time>
      </trkpt>
      <trkpt lat="46.73151" lon="4.94834">
        <ele>196.40039</ele>
        <time>2026-05-14T11:07:48+02:00</time>
      </trkpt>
      <trkpt lat="46.73153" lon="4.94827">
        <ele>196.40039</ele>
        <time>2026-05-14T11:07:49+02:00</time>
      </trkpt>
      <trkpt lat="46.73156" lon="4.94821">
        <ele>196.40039</ele>
        <time>2026-05-14T11:07:50+02:00</time>
      </trkpt>
      <trkpt lat="46.73158" lon="4.94815">
        <ele>196.5</ele>
        <time>2026-05-14T11:07:51+02:00</time>
      </trkpt>
      <trkpt lat="46.7316" lon="4.94809">
        <ele>196.5</ele>
        <time>2026-05-14T11:07:52+02:00</time>
      </trkpt>
      <trkpt lat="46.73162" lon="4.94803">
        <ele>196.5</ele>
        <time>2026-05-14T11:07:53+02:00</time>
      </trkpt>
      <trkpt lat="46.73164" lon="4.94798">
        <ele>196.5</ele>
        <time>2026-05-14T11:07:54+02:00</time>
      </trkpt>
      <trkpt lat="46.73167" lon="4.94793">
        <ele>196.5</ele>
        <time>2026-05-14T11:07:55+02:00</time>
      </trkpt>
      <trkpt lat="46.7317" lon="4.94789">
        <ele>196.60059</ele>
        <time>2026-05-14T11:07:56+02:00</time>
      </trkpt>
      <trkpt lat="46.73172" lon="4.94783">
        <ele>196.5</ele>
        <time>2026-05-14T11:07:57+02:00</time>
      </trkpt>
      <trkpt lat="46.73174" lon="4.94778">
        <ele>196.40039</ele>
        <time>2026-05-14T11:07:58+02:00</time>
      </trkpt>
      <trkpt lat="46.73176" lon="4.94772">
        <ele>196.5</ele>
        <time>2026-05-14T11:07:59+02:00</time>
      </trkpt>
      <trkpt lat="46.73179" lon="4.94765">
        <ele>196.5</ele>
        <time>2026-05-14T11:08:00+02:00</time>
      </trkpt>
      <trkpt lat="46.73181" lon="4.94759">
        <ele>196.5</ele>
        <time>2026-05-14T11:08:01+02:00</time>
      </trkpt>
      <trkpt lat="46.73184" lon="4.94752">
        <ele>196.40039</ele>
        <time>2026-05-14T11:08:02+02:00</time>
      </trkpt>
      <trkpt lat="46.73187" lon="4.94746">
        <ele>196.5</ele>
        <time>2026-05-14T11:08:03+02:00</time>
      </trkpt>
      <trkpt lat="46.7319" lon="4.9474">
        <ele>196.5</ele>
        <time>2026-05-14T11:08:04+02:00</time>
      </trkpt>
      <trkpt lat="46.73193" lon="4.94733">
        <ele>196.5</ele>
        <time>2026-05-14T11:08:05+02:00</time>
      </trkpt>
      <trkpt lat="46.73196" lon="4.94727">
        <ele>196.40039</ele>
        <time>2026-05-14T11:08:06+02:00</time>
      </trkpt>
      <trkpt lat="46.73199" lon="4.9472">
        <ele>196.60059</ele>
        <time>2026-05-14T11:08:07+02:00</time>
      </trkpt>
      <trkpt lat="46.73202" lon="4.94713">
        <ele>196.5</ele>
        <time>2026-05-14T11:08:08+02:00</time>
      </trkpt>
      <trkpt lat="46.73205" lon="4.94707">
        <ele>196.5</ele>
        <time>2026-05-14T11:08:09+02:00</time>
      </trkpt>
      <trkpt lat="46.73207" lon="4.947">
        <ele>196.40039</ele>
        <time>2026-05-14T11:08:10+02:00</time>
      </trkpt>
      <trkpt lat="46.7321" lon="4.94693">
        <ele>196.5</ele>
        <time>2026-05-14T11:08:11+02:00</time>
      </trkpt>
      <trkpt lat="46.73213" lon="4.94686">
        <ele>196.5</ele>
        <time>2026-05-14T11:08:12+02:00</time>
      </trkpt>
      <trkpt lat="46.73216" lon="4.94679">
        <ele>196.5</ele>
        <time>2026-05-14T11:08:13+02:00</time>
      </trkpt>
      <trkpt lat="46.73219" lon="4.94672">
        <ele>196.40039</ele>
        <time>2026-05-14T11:08:14+02:00</time>
      </trkpt>
      <trkpt lat="46.73222" lon="4.94665">
        <ele>196.40039</ele>
        <time>2026-05-14T11:08:15+02:00</time>
      </trkpt>
      <trkpt lat="46.73224" lon="4.94658">
        <ele>196.2998</ele>
        <time>2026-05-14T11:08:16+02:00</time>
      </trkpt>
      <trkpt lat="46.73227" lon="4.94652">
        <ele>196.2998</ele>
        <time>2026-05-14T11:08:17+02:00</time>
      </trkpt>
      <trkpt lat="46.7323" lon="4.94645">
        <ele>196.2998</ele>
        <time>2026-05-14T11:08:18+02:00</time>
      </trkpt>
      <trkpt lat="46.73233" lon="4.94638">
        <ele>196.2002</ele>
        <time>2026-05-14T11:08:19+02:00</time>
      </trkpt>
      <trkpt lat="46.73235" lon="4.94635">
        <ele>196.2998</ele>
        <time>2026-05-14T11:08:20+02:00</time>
      </trkpt>
      <trkpt lat="46.73239" lon="4.94625">
        <ele>196.2998</ele>
        <time>2026-05-14T11:08:21+02:00</time>
      </trkpt>
      <trkpt lat="46.73242" lon="4.94619">
        <ele>196.2998</ele>
        <time>2026-05-14T11:08:22+02:00</time>
      </trkpt>
      <trkpt lat="46.73244" lon="4.94612">
        <ele>196.2002</ele>
        <time>2026-05-14T11:08:23+02:00</time>
      </trkpt>
      <trkpt lat="46.73247" lon="4.94605">
        <ele>196.2002</ele>
        <time>2026-05-14T11:08:24+02:00</time>
      </trkpt>
      <trkpt lat="46.7325" lon="4.94599">
        <ele>196.2002</ele>
        <time>2026-05-14T11:08:25+02:00</time>
      </trkpt>
      <trkpt lat="46.73253" lon="4.94593">
        <ele>196.2998</ele>
        <time>2026-05-14T11:08:26+02:00</time>
      </trkpt>
      <trkpt lat="46.73255" lon="4.94586">
        <ele>196.2002</ele>
        <time>2026-05-14T11:08:27+02:00</time>
      </trkpt>
      <trkpt lat="46.73258" lon="4.9458">
        <ele>196.2998</ele>
        <time>2026-05-14T11:08:28+02:00</time>
      </trkpt>
      <trkpt lat="46.73261" lon="4.94574">
        <ele>196.2998</ele>
        <time>2026-05-14T11:08:29+02:00</time>
      </trkpt>
      <trkpt lat="46.73263" lon="4.94568">
        <ele>196.2998</ele>
        <time>2026-05-14T11:08:30+02:00</time>
      </trkpt>
      <trkpt lat="46.73265" lon="4.94562">
        <ele>196.2998</ele>
        <time>2026-05-14T11:08:31+02:00</time>
      </trkpt>
      <trkpt lat="46.73267" lon="4.94556">
        <ele>196.2998</ele>
        <time>2026-05-14T11:08:32+02:00</time>
      </trkpt>
      <trkpt lat="46.73269" lon="4.94551">
        <ele>196.40039</ele>
        <time>2026-05-14T11:08:33+02:00</time>
      </trkpt>
      <trkpt lat="46.73271" lon="4.94545">
        <ele>196.2998</ele>
        <time>2026-05-14T11:08:34+02:00</time>
      </trkpt>
      <trkpt lat="46.73273" lon="4.94541">
        <ele>196.2998</ele>
        <time>2026-05-14T11:08:35+02:00</time>
      </trkpt>
      <trkpt lat="46.73274" lon="4.94537">
        <ele>196.2998</ele>
        <time>2026-05-14T11:08:36+02:00</time>
      </trkpt>
      <trkpt lat="46.73276" lon="4.94535">
        <ele>196.40039</ele>
        <time>2026-05-14T11:08:37+02:00</time>
      </trkpt>
      <trkpt lat="46.73276" lon="4.94533">
        <ele>196.40039</ele>
        <time>2026-05-14T11:08:38+02:00</time>
      </trkpt>
      <trkpt lat="46.73277" lon="4.94531">
        <ele>196.40039</ele>
        <time>2026-05-14T11:08:39+02:00</time>
      </trkpt>
      <trkpt lat="46.73279" lon="4.94529">
        <ele>196.40039</ele>
        <time>2026-05-14T11:08:40+02:00</time>
      </trkpt>
      <trkpt lat="46.7328" lon="4.94527">
        <ele>196.40039</ele>
        <time>2026-05-14T11:08:41+02:00</time>
      </trkpt>
      <trkpt lat="46.7328" lon="4.94523">
        <ele>196.40039</ele>
        <time>2026-05-14T11:08:42+02:00</time>
      </trkpt>
      <trkpt lat="46.73282" lon="4.9452">
        <ele>196.5</ele>
        <time>2026-05-14T11:08:43+02:00</time>
      </trkpt>
      <trkpt lat="46.73284" lon="4.94515">
        <ele>196.5</ele>
        <time>2026-05-14T11:08:44+02:00</time>
      </trkpt>
      <trkpt lat="46.73285" lon="4.94511">
        <ele>196.5</ele>
        <time>2026-05-14T11:08:45+02:00</time>
      </trkpt>
      <trkpt lat="46.73287" lon="4.94505">
        <ele>196.60059</ele>
        <time>2026-05-14T11:08:46+02:00</time>
      </trkpt>
      <trkpt lat="46.73288" lon="4.945">
        <ele>196.60059</ele>
        <time>2026-05-14T11:08:47+02:00</time>
      </trkpt>
      <trkpt lat="46.7329" lon="4.94495">
        <ele>196.7002</ele>
        <time>2026-05-14T11:08:48+02:00</time>
      </trkpt>
      <trkpt lat="46.73293" lon="4.9449">
        <ele>196.7998</ele>
        <time>2026-05-14T11:08:49+02:00</time>
      </trkpt>
      <trkpt lat="46.73296" lon="4.94485">
        <ele>196.90039</ele>
        <time>2026-05-14T11:08:50+02:00</time>
      </trkpt>
      <trkpt lat="46.73299" lon="4.9448">
        <ele>196.90039</ele>
        <time>2026-05-14T11:08:51+02:00</time>
      </trkpt>
      <trkpt lat="46.73301" lon="4.94474">
        <ele>197</ele>
        <time>2026-05-14T11:08:52+02:00</time>
      </trkpt>
      <trkpt lat="46.73303" lon="4.94471">
        <ele>197</ele>
        <time>2026-05-14T11:08:53+02:00</time>
      </trkpt>
      <trkpt lat="46.73306" lon="4.94461">
        <ele>197.2998</ele>
        <time>2026-05-14T11:08:54+02:00</time>
      </trkpt>
      <trkpt lat="46.73309" lon="4.94454">
        <ele>197.2998</ele>
        <time>2026-05-14T11:08:55+02:00</time>
      </trkpt>
      <trkpt lat="46.73312" lon="4.94448">
        <ele>197.40039</ele>
        <time>2026-05-14T11:08:56+02:00</time>
      </trkpt>
      <trkpt lat="46.73314" lon="4.94441">
        <ele>197.60059</ele>
        <time>2026-05-14T11:08:57+02:00</time>
      </trkpt>
      <trkpt lat="46.73317" lon="4.94434">
        <ele>197.60059</ele>
        <time>2026-05-14T11:08:58+02:00</time>
      </trkpt>
      <trkpt lat="46.7332" lon="4.94427">
        <ele>197.7002</ele>
        <time>2026-05-14T11:08:59+02:00</time>
      </trkpt>
      <trkpt lat="46.73323" lon="4.9442">
        <ele>197.60059</ele>
        <time>2026-05-14T11:09:00+02:00</time>
      </trkpt>
      <trkpt lat="46.73326" lon="4.94413">
        <ele>197.7998</ele>
        <time>2026-05-14T11:09:01+02:00</time>
      </trkpt>
      <trkpt lat="46.73329" lon="4.94406">
        <ele>197.7998</ele>
        <time>2026-05-14T11:09:02+02:00</time>
      </trkpt>
      <trkpt lat="46.73332" lon="4.94399">
        <ele>197.90039</ele>
        <time>2026-05-14T11:09:03+02:00</time>
      </trkpt>
      <trkpt lat="46.73335" lon="4.94392">
        <ele>197.90039</ele>
        <time>2026-05-14T11:09:04+02:00</time>
      </trkpt>
      <trkpt lat="46.73338" lon="4.94385">
        <ele>197.90039</ele>
        <time>2026-05-14T11:09:05+02:00</time>
      </trkpt>
      <trkpt lat="46.73342" lon="4.94378">
        <ele>197.7998</ele>
        <time>2026-05-14T11:09:06+02:00</time>
      </trkpt>
      <trkpt lat="46.7335" lon="4.94357">
        <ele>198</ele>
        <time>2026-05-14T11:09:07+02:00</time>
      </trkpt>
      <trkpt lat="46.73353" lon="4.94349">
        <ele>197.90039</ele>
        <time>2026-05-14T11:09:08+02:00</time>
      </trkpt>
      <trkpt lat="46.73356" lon="4.94342">
        <ele>197.90039</ele>
        <time>2026-05-14T11:09:09+02:00</time>
      </trkpt>
      <trkpt lat="46.73359" lon="4.94335">
        <ele>197.7998</ele>
        <time>2026-05-14T11:09:10+02:00</time>
      </trkpt>
      <trkpt lat="46.73362" lon="4.94328">
        <ele>197.90039</ele>
        <time>2026-05-14T11:09:11+02:00</time>
      </trkpt>
      <trkpt lat="46.73366" lon="4.94321">
        <ele>197.7998</ele>
        <time>2026-05-14T11:09:12+02:00</time>
      </trkpt>
      <trkpt lat="46.73369" lon="4.94314">
        <ele>197.7002</ele>
        <time>2026-05-14T11:09:13+02:00</time>
      </trkpt>
      <trkpt lat="46.73372" lon="4.94306">
        <ele>197.7002</ele>
        <time>2026-05-14T11:09:14+02:00</time>
      </trkpt>
      <trkpt lat="46.73375" lon="4.94299">
        <ele>197.60059</ele>
        <time>2026-05-14T11:09:15+02:00</time>
      </trkpt>
      <trkpt lat="46.73378" lon="4.94292">
        <ele>197.7002</ele>
        <time>2026-05-14T11:09:16+02:00</time>
      </trkpt>
      <trkpt lat="46.7338" lon="4.94285">
        <ele>197.7998</ele>
        <time>2026-05-14T11:09:17+02:00</time>
      </trkpt>
      <trkpt lat="46.73383" lon="4.94278">
        <ele>197.7998</ele>
        <time>2026-05-14T11:09:18+02:00</time>
      </trkpt>
      <trkpt lat="46.73387" lon="4.94271">
        <ele>197.7998</ele>
        <time>2026-05-14T11:09:19+02:00</time>
      </trkpt>
      <trkpt lat="46.7339" lon="4.94263">
        <ele>197.90039</ele>
        <time>2026-05-14T11:09:20+02:00</time>
      </trkpt>
      <trkpt lat="46.73393" lon="4.94256">
        <ele>197.7998</ele>
        <time>2026-05-14T11:09:21+02:00</time>
      </trkpt>
      <trkpt lat="46.73396" lon="4.94249">
        <ele>197.90039</ele>
        <time>2026-05-14T11:09:22+02:00</time>
      </trkpt>
      <trkpt lat="46.73399" lon="4.94241">
        <ele>198</ele>
        <time>2026-05-14T11:09:23+02:00</time>
      </trkpt>
      <trkpt lat="46.73402" lon="4.94234">
        <ele>198.10059</ele>
        <time>2026-05-14T11:09:24+02:00</time>
      </trkpt>
      <trkpt lat="46.73405" lon="4.94226">
        <ele>198.10059</ele>
        <time>2026-05-14T11:09:25+02:00</time>
      </trkpt>
      <trkpt lat="46.73408" lon="4.94219">
        <ele>198.2002</ele>
        <time>2026-05-14T11:09:26+02:00</time>
      </trkpt>
      <trkpt lat="46.7341" lon="4.94215">
        <ele>198.10059</ele>
        <time>2026-05-14T11:09:27+02:00</time>
      </trkpt>
      <trkpt lat="46.73415" lon="4.94204">
        <ele>198.2998</ele>
        <time>2026-05-14T11:09:28+02:00</time>
      </trkpt>
      <trkpt lat="46.73418" lon="4.94196">
        <ele>198.2002</ele>
        <time>2026-05-14T11:09:29+02:00</time>
      </trkpt>
      <trkpt lat="46.73421" lon="4.94188">
        <ele>198.2998</ele>
        <time>2026-05-14T11:09:30+02:00</time>
      </trkpt>
      <trkpt lat="46.73424" lon="4.94181">
        <ele>198.2998</ele>
        <time>2026-05-14T11:09:31+02:00</time>
      </trkpt>
      <trkpt lat="46.73427" lon="4.94173">
        <ele>198.2998</ele>
        <time>2026-05-14T11:09:32+02:00</time>
      </trkpt>
      <trkpt lat="46.7343" lon="4.94165">
        <ele>198.2002</ele>
        <time>2026-05-14T11:09:33+02:00</time>
      </trkpt>
      <trkpt lat="46.73433" lon="4.94158">
        <ele>198.2002</ele>
        <time>2026-05-14T11:09:34+02:00</time>
      </trkpt>
      <trkpt lat="46.73436" lon="4.9415">
        <ele>198.10059</ele>
        <time>2026-05-14T11:09:35+02:00</time>
      </trkpt>
      <trkpt lat="46.7344" lon="4.94143">
        <ele>197.90039</ele>
        <time>2026-05-14T11:09:36+02:00</time>
      </trkpt>
      <trkpt lat="46.73443" lon="4.94135">
        <ele>197.90039</ele>
        <time>2026-05-14T11:09:37+02:00</time>
      </trkpt>
      <trkpt lat="46.73446" lon="4.94128">
        <ele>197.7998</ele>
        <time>2026-05-14T11:09:38+02:00</time>
      </trkpt>
      <trkpt lat="46.73449" lon="4.94121">
        <ele>197.7002</ele>
        <time>2026-05-14T11:09:39+02:00</time>
      </trkpt>
      <trkpt lat="46.73451" lon="4.94114">
        <ele>197.60059</ele>
        <time>2026-05-14T11:09:40+02:00</time>
      </trkpt>
      <trkpt lat="46.73454" lon="4.94107">
        <ele>197.5</ele>
        <time>2026-05-14T11:09:41+02:00</time>
      </trkpt>
      <trkpt lat="46.73457" lon="4.941">
        <ele>197.40039</ele>
        <time>2026-05-14T11:09:42+02:00</time>
      </trkpt>
      <trkpt lat="46.7346" lon="4.94093">
        <ele>197.40039</ele>
        <time>2026-05-14T11:09:43+02:00</time>
      </trkpt>
      <trkpt lat="46.73463" lon="4.94086">
        <ele>197.40039</ele>
        <time>2026-05-14T11:09:44+02:00</time>
      </trkpt>
      <trkpt lat="46.73466" lon="4.94079">
        <ele>197.5</ele>
        <time>2026-05-14T11:09:45+02:00</time>
      </trkpt>
      <trkpt lat="46.73469" lon="4.94072">
        <ele>197.60059</ele>
        <time>2026-05-14T11:09:46+02:00</time>
      </trkpt>
      <trkpt lat="46.73472" lon="4.94064">
        <ele>197.7002</ele>
        <time>2026-05-14T11:09:47+02:00</time>
      </trkpt>
      <trkpt lat="46.73475" lon="4.94057">
        <ele>197.90039</ele>
        <time>2026-05-14T11:09:48+02:00</time>
      </trkpt>
      <trkpt lat="46.73478" lon="4.9405">
        <ele>198.2002</ele>
        <time>2026-05-14T11:09:49+02:00</time>
      </trkpt>
      <trkpt lat="46.73481" lon="4.94043">
        <ele>198.2002</ele>
        <time>2026-05-14T11:09:50+02:00</time>
      </trkpt>
      <trkpt lat="46.73483" lon="4.94039">
        <ele>198.5</ele>
        <time>2026-05-14T11:09:51+02:00</time>
      </trkpt>
      <trkpt lat="46.73487" lon="4.94028">
        <ele>198.7998</ele>
        <time>2026-05-14T11:09:52+02:00</time>
      </trkpt>
      <trkpt lat="46.7349" lon="4.94021">
        <ele>199.10059</ele>
        <time>2026-05-14T11:09:53+02:00</time>
      </trkpt>
      <trkpt lat="46.73493" lon="4.94013">
        <ele>199.5</ele>
        <time>2026-05-14T11:09:54+02:00</time>
      </trkpt>
      <trkpt lat="46.73496" lon="4.94006">
        <ele>199.7998</ele>
        <time>2026-05-14T11:09:55+02:00</time>
      </trkpt>
      <trkpt lat="46.73499" lon="4.93998">
        <ele>200.10059</ele>
        <time>2026-05-14T11:09:56+02:00</time>
      </trkpt>
      <trkpt lat="46.73502" lon="4.93991">
        <ele>200.10059</ele>
        <time>2026-05-14T11:09:57+02:00</time>
      </trkpt>
      <trkpt lat="46.73505" lon="4.93984">
        <ele>200.40039</ele>
        <time>2026-05-14T11:09:58+02:00</time>
      </trkpt>
      <trkpt lat="46.73508" lon="4.93977">
        <ele>200.60059</ele>
        <time>2026-05-14T11:09:59+02:00</time>
      </trkpt>
      <trkpt lat="46.7351" lon="4.93971">
        <ele>200.7002</ele>
        <time>2026-05-14T11:10:00+02:00</time>
      </trkpt>
      <trkpt lat="46.73513" lon="4.93964">
        <ele>200.7002</ele>
        <time>2026-05-14T11:10:01+02:00</time>
      </trkpt>
      <trkpt lat="46.73516" lon="4.93957">
        <ele>200.60059</ele>
        <time>2026-05-14T11:10:02+02:00</time>
      </trkpt>
      <trkpt lat="46.73519" lon="4.9395">
        <ele>200.60059</ele>
        <time>2026-05-14T11:10:03+02:00</time>
      </trkpt>
      <trkpt lat="46.73522" lon="4.93943">
        <ele>200.40039</ele>
        <time>2026-05-14T11:10:04+02:00</time>
      </trkpt>
      <trkpt lat="46.73523" lon="4.9394">
        <ele>200.40039</ele>
        <time>2026-05-14T11:10:05+02:00</time>
      </trkpt>
      <trkpt lat="46.73527" lon="4.9393">
        <ele>200.2998</ele>
        <time>2026-05-14T11:10:06+02:00</time>
      </trkpt>
      <trkpt lat="46.7353" lon="4.93923">
        <ele>199.90039</ele>
        <time>2026-05-14T11:10:07+02:00</time>
      </trkpt>
      <trkpt lat="46.73533" lon="4.93916">
        <ele>199.7002</ele>
        <time>2026-05-14T11:10:08+02:00</time>
      </trkpt>
      <trkpt lat="46.73536" lon="4.93909">
        <ele>199.10059</ele>
        <time>2026-05-14T11:10:09+02:00</time>
      </trkpt>
      <trkpt lat="46.73539" lon="4.93902">
        <ele>198.90039</ele>
        <time>2026-05-14T11:10:10+02:00</time>
      </trkpt>
      <trkpt lat="46.73541" lon="4.93895">
        <ele>198.2998</ele>
        <time>2026-05-14T11:10:11+02:00</time>
      </trkpt>
      <trkpt lat="46.73543" lon="4.93891">
        <ele>198.2998</ele>
        <time>2026-05-14T11:10:12+02:00</time>
      </trkpt>
      <trkpt lat="46.73547" lon="4.93881">
        <ele>197.90039</ele>
        <time>2026-05-14T11:10:13+02:00</time>
      </trkpt>
      <trkpt lat="46.7355" lon="4.93875">
        <ele>197.7002</ele>
        <time>2026-05-14T11:10:14+02:00</time>
      </trkpt>
      <trkpt lat="46.73553" lon="4.93868">
        <ele>197.5</ele>
        <time>2026-05-14T11:10:15+02:00</time>
      </trkpt>
      <trkpt lat="46.73556" lon="4.93861">
        <ele>197.5</ele>
        <time>2026-05-14T11:10:16+02:00</time>
      </trkpt>
      <trkpt lat="46.73559" lon="4.93854">
        <ele>197.2998</ele>
        <time>2026-05-14T11:10:17+02:00</time>
      </trkpt>
      <trkpt lat="46.73562" lon="4.93848">
        <ele>197.2998</ele>
        <time>2026-05-14T11:10:18+02:00</time>
      </trkpt>
      <trkpt lat="46.73564" lon="4.93841">
        <ele>197.2002</ele>
        <time>2026-05-14T11:10:19+02:00</time>
      </trkpt>
      <trkpt lat="46.73567" lon="4.93836">
        <ele>197.2002</ele>
        <time>2026-05-14T11:10:20+02:00</time>
      </trkpt>
      <trkpt lat="46.73569" lon="4.93829">
        <ele>197</ele>
        <time>2026-05-14T11:10:21+02:00</time>
      </trkpt>
      <trkpt lat="46.73572" lon="4.93823">
        <ele>197</ele>
        <time>2026-05-14T11:10:22+02:00</time>
      </trkpt>
      <trkpt lat="46.73574" lon="4.93817">
        <ele>197</ele>
        <time>2026-05-14T11:10:23+02:00</time>
      </trkpt>
      <trkpt lat="46.73576" lon="4.93811">
        <ele>196.90039</ele>
        <time>2026-05-14T11:10:24+02:00</time>
      </trkpt>
      <trkpt lat="46.73579" lon="4.93805">
        <ele>196.90039</ele>
        <time>2026-05-14T11:10:25+02:00</time>
      </trkpt>
      <trkpt lat="46.73581" lon="4.93801">
        <ele>196.7998</ele>
        <time>2026-05-14T11:10:26+02:00</time>
      </trkpt>
      <trkpt lat="46.73584" lon="4.93795">
        <ele>196.7998</ele>
        <time>2026-05-14T11:10:27+02:00</time>
      </trkpt>
      <trkpt lat="46.73586" lon="4.93789">
        <ele>196.7998</ele>
        <time>2026-05-14T11:10:28+02:00</time>
      </trkpt>
      <trkpt lat="46.73589" lon="4.93783">
        <ele>196.7002</ele>
        <time>2026-05-14T11:10:29+02:00</time>
      </trkpt>
      <trkpt lat="46.73591" lon="4.93776">
        <ele>196.7002</ele>
        <time>2026-05-14T11:10:30+02:00</time>
      </trkpt>
      <trkpt lat="46.73593" lon="4.9377">
        <ele>196.60059</ele>
        <time>2026-05-14T11:10:31+02:00</time>
      </trkpt>
      <trkpt lat="46.73596" lon="4.93765">
        <ele>196.60059</ele>
        <time>2026-05-14T11:10:32+02:00</time>
      </trkpt>
      <trkpt lat="46.73599" lon="4.9376">
        <ele>196.5</ele>
        <time>2026-05-14T11:10:33+02:00</time>
      </trkpt>
      <trkpt lat="46.736" lon="4.93757">
        <ele>196.5</ele>
        <time>2026-05-14T11:10:34+02:00</time>
      </trkpt>
      <trkpt lat="46.73604" lon="4.93747">
        <ele>196.40039</ele>
        <time>2026-05-14T11:10:35+02:00</time>
      </trkpt>
      <trkpt lat="46.73606" lon="4.93741">
        <ele>196.40039</ele>
        <time>2026-05-14T11:10:36+02:00</time>
      </trkpt>
      <trkpt lat="46.73609" lon="4.93734">
        <ele>196.40039</ele>
        <time>2026-05-14T11:10:37+02:00</time>
      </trkpt>
      <trkpt lat="46.73612" lon="4.93727">
        <ele>196.2002</ele>
        <time>2026-05-14T11:10:38+02:00</time>
      </trkpt>
      <trkpt lat="46.73614" lon="4.93721">
        <ele>196.10059</ele>
        <time>2026-05-14T11:10:39+02:00</time>
      </trkpt>
      <trkpt lat="46.73617" lon="4.93714">
        <ele>196</ele>
        <time>2026-05-14T11:10:40+02:00</time>
      </trkpt>
      <trkpt lat="46.7362" lon="4.93707">
        <ele>196</ele>
        <time>2026-05-14T11:10:41+02:00</time>
      </trkpt>
      <trkpt lat="46.73622" lon="4.93701">
        <ele>195.7998</ele>
        <time>2026-05-14T11:10:42+02:00</time>
      </trkpt>
      <trkpt lat="46.73625" lon="4.93694">
        <ele>195.7002</ele>
        <time>2026-05-14T11:10:43+02:00</time>
      </trkpt>
      <trkpt lat="46.73627" lon="4.93688">
        <ele>195.60059</ele>
        <time>2026-05-14T11:10:44+02:00</time>
      </trkpt>
      <trkpt lat="46.7363" lon="4.93681">
        <ele>195.5</ele>
        <time>2026-05-14T11:10:45+02:00</time>
      </trkpt>
      <trkpt lat="46.73632" lon="4.93675">
        <ele>195.40039</ele>
        <time>2026-05-14T11:10:46+02:00</time>
      </trkpt>
      <trkpt lat="46.73634" lon="4.93669">
        <ele>195.2998</ele>
        <time>2026-05-14T11:10:47+02:00</time>
      </trkpt>
      <trkpt lat="46.73637" lon="4.93662">
        <ele>195.2002</ele>
        <time>2026-05-14T11:10:48+02:00</time>
      </trkpt>
      <trkpt lat="46.73639" lon="4.93655">
        <ele>195.10059</ele>
        <time>2026-05-14T11:10:49+02:00</time>
      </trkpt>
      <trkpt lat="46.73642" lon="4.93648">
        <ele>195</ele>
        <time>2026-05-14T11:10:50+02:00</time>
      </trkpt>
      <trkpt lat="46.73646" lon="4.93641">
        <ele>194.7998</ele>
        <time>2026-05-14T11:10:51+02:00</time>
      </trkpt>
      <trkpt lat="46.73648" lon="4.93634">
        <ele>194.7998</ele>
        <time>2026-05-14T11:10:52+02:00</time>
      </trkpt>
      <trkpt lat="46.73651" lon="4.93627">
        <ele>194.60059</ele>
        <time>2026-05-14T11:10:53+02:00</time>
      </trkpt>
      <trkpt lat="46.73654" lon="4.9362">
        <ele>194.5</ele>
        <time>2026-05-14T11:10:54+02:00</time>
      </trkpt>
      <trkpt lat="46.73657" lon="4.93613">
        <ele>194.40039</ele>
        <time>2026-05-14T11:10:55+02:00</time>
      </trkpt>
      <trkpt lat="46.7366" lon="4.93606">
        <ele>194.40039</ele>
        <time>2026-05-14T11:10:56+02:00</time>
      </trkpt>
      <trkpt lat="46.73662" lon="4.93599">
        <ele>194.2998</ele>
        <time>2026-05-14T11:10:57+02:00</time>
      </trkpt>
      <trkpt lat="46.73666" lon="4.93593">
        <ele>194.2002</ele>
        <time>2026-05-14T11:10:58+02:00</time>
      </trkpt>
      <trkpt lat="46.73668" lon="4.93586">
        <ele>194.10059</ele>
        <time>2026-05-14T11:10:59+02:00</time>
      </trkpt>
      <trkpt lat="46.73671" lon="4.93579">
        <ele>194</ele>
        <time>2026-05-14T11:11:00+02:00</time>
      </trkpt>
      <trkpt lat="46.73675" lon="4.93573">
        <ele>194</ele>
        <time>2026-05-14T11:11:01+02:00</time>
      </trkpt>
      <trkpt lat="46.73678" lon="4.93566">
        <ele>193.90039</ele>
        <time>2026-05-14T11:11:02+02:00</time>
      </trkpt>
      <trkpt lat="46.7368" lon="4.93559">
        <ele>193.90039</ele>
        <time>2026-05-14T11:11:03+02:00</time>
      </trkpt>
      <trkpt lat="46.73683" lon="4.93553">
        <ele>193.90039</ele>
        <time>2026-05-14T11:11:04+02:00</time>
      </trkpt>
      <trkpt lat="46.73686" lon="4.93546">
        <ele>193.90039</ele>
        <time>2026-05-14T11:11:05+02:00</time>
      </trkpt>
      <trkpt lat="46.73689" lon="4.9354">
        <ele>193.90039</ele>
        <time>2026-05-14T11:11:06+02:00</time>
      </trkpt>
      <trkpt lat="46.73691" lon="4.93533">
        <ele>193.90039</ele>
        <time>2026-05-14T11:11:07+02:00</time>
      </trkpt>
      <trkpt lat="46.73694" lon="4.93527">
        <ele>193.7998</ele>
        <time>2026-05-14T11:11:08+02:00</time>
      </trkpt>
      <trkpt lat="46.73697" lon="4.93521">
        <ele>193.90039</ele>
        <time>2026-05-14T11:11:09+02:00</time>
      </trkpt>
      <trkpt lat="46.737" lon="4.93514">
        <ele>193.90039</ele>
        <time>2026-05-14T11:11:10+02:00</time>
      </trkpt>
      <trkpt lat="46.73702" lon="4.93508">
        <ele>194</ele>
        <time>2026-05-14T11:11:11+02:00</time>
      </trkpt>
      <trkpt lat="46.73705" lon="4.93501">
        <ele>193.90039</ele>
        <time>2026-05-14T11:11:12+02:00</time>
      </trkpt>
      <trkpt lat="46.73708" lon="4.93495">
        <ele>194</ele>
        <time>2026-05-14T11:11:13+02:00</time>
      </trkpt>
      <trkpt lat="46.73711" lon="4.93488">
        <ele>194.10059</ele>
        <time>2026-05-14T11:11:14+02:00</time>
      </trkpt>
      <trkpt lat="46.73713" lon="4.93482">
        <ele>194.2002</ele>
        <time>2026-05-14T11:11:15+02:00</time>
      </trkpt>
      <trkpt lat="46.73716" lon="4.93476">
        <ele>194.2002</ele>
        <time>2026-05-14T11:11:16+02:00</time>
      </trkpt>
      <trkpt lat="46.73719" lon="4.9347">
        <ele>194.2998</ele>
        <time>2026-05-14T11:11:17+02:00</time>
      </trkpt>
      <trkpt lat="46.73721" lon="4.93464">
        <ele>194.2998</ele>
        <time>2026-05-14T11:11:18+02:00</time>
      </trkpt>
      <trkpt lat="46.73723" lon="4.93458">
        <ele>194.2998</ele>
        <time>2026-05-14T11:11:19+02:00</time>
      </trkpt>
      <trkpt lat="46.73726" lon="4.93453">
        <ele>194.2998</ele>
        <time>2026-05-14T11:11:20+02:00</time>
      </trkpt>
      <trkpt lat="46.73728" lon="4.93447">
        <ele>194.2998</ele>
        <time>2026-05-14T11:11:21+02:00</time>
      </trkpt>
      <trkpt lat="46.73731" lon="4.93442">
        <ele>194.2998</ele>
        <time>2026-05-14T11:11:22+02:00</time>
      </trkpt>
      <trkpt lat="46.73733" lon="4.93436">
        <ele>194.2998</ele>
        <time>2026-05-14T11:11:23+02:00</time>
      </trkpt>
      <trkpt lat="46.73734" lon="4.93433">
        <ele>194.2998</ele>
        <time>2026-05-14T11:11:24+02:00</time>
      </trkpt>
      <trkpt lat="46.73737" lon="4.93424">
        <ele>194.40039</ele>
        <time>2026-05-14T11:11:25+02:00</time>
      </trkpt>
      <trkpt lat="46.73741" lon="4.93418">
        <ele>194.40039</ele>
        <time>2026-05-14T11:11:26+02:00</time>
      </trkpt>
      <trkpt lat="46.73744" lon="4.93413">
        <ele>194.40039</ele>
        <time>2026-05-14T11:11:27+02:00</time>
      </trkpt>
      <trkpt lat="46.73745" lon="4.9341">
        <ele>194.40039</ele>
        <time>2026-05-14T11:11:28+02:00</time>
      </trkpt>
      <trkpt lat="46.73749" lon="4.934">
        <ele>194.40039</ele>
        <time>2026-05-14T11:11:29+02:00</time>
      </trkpt>
      <trkpt lat="46.73752" lon="4.93393">
        <ele>194.5</ele>
        <time>2026-05-14T11:11:30+02:00</time>
      </trkpt>
      <trkpt lat="46.73755" lon="4.93386">
        <ele>194.60059</ele>
        <time>2026-05-14T11:11:31+02:00</time>
      </trkpt>
      <trkpt lat="46.73758" lon="4.9338">
        <ele>194.60059</ele>
        <time>2026-05-14T11:11:32+02:00</time>
      </trkpt>
      <trkpt lat="46.73761" lon="4.93373">
        <ele>194.60059</ele>
        <time>2026-05-14T11:11:33+02:00</time>
      </trkpt>
      <trkpt lat="46.73763" lon="4.93366">
        <ele>194.7002</ele>
        <time>2026-05-14T11:11:34+02:00</time>
      </trkpt>
      <trkpt lat="46.73766" lon="4.93358">
        <ele>194.7998</ele>
        <time>2026-05-14T11:11:35+02:00</time>
      </trkpt>
      <trkpt lat="46.7377" lon="4.93351">
        <ele>194.90039</ele>
        <time>2026-05-14T11:11:36+02:00</time>
      </trkpt>
      <trkpt lat="46.73773" lon="4.93344">
        <ele>195</ele>
        <time>2026-05-14T11:11:37+02:00</time>
      </trkpt>
      <trkpt lat="46.73776" lon="4.93337">
        <ele>195.10059</ele>
        <time>2026-05-14T11:11:38+02:00</time>
      </trkpt>
      <trkpt lat="46.73779" lon="4.9333">
        <ele>195.10059</ele>
        <time>2026-05-14T11:11:39+02:00</time>
      </trkpt>
      <trkpt lat="46.73782" lon="4.93323">
        <ele>195.2998</ele>
        <time>2026-05-14T11:11:40+02:00</time>
      </trkpt>
      <trkpt lat="46.73785" lon="4.93315">
        <ele>195.2998</ele>
        <time>2026-05-14T11:11:41+02:00</time>
      </trkpt>
      <trkpt lat="46.73786" lon="4.93312">
        <ele>195.2998</ele>
        <time>2026-05-14T11:11:42+02:00</time>
      </trkpt>
      <trkpt lat="46.73791" lon="4.93301">
        <ele>195.40039</ele>
        <time>2026-05-14T11:11:43+02:00</time>
      </trkpt>
      <trkpt lat="46.73794" lon="4.93293">
        <ele>195.40039</ele>
        <time>2026-05-14T11:11:44+02:00</time>
      </trkpt>
      <trkpt lat="46.73797" lon="4.93286">
        <ele>195.2998</ele>
        <time>2026-05-14T11:11:45+02:00</time>
      </trkpt>
      <trkpt lat="46.738" lon="4.93279">
        <ele>195.2998</ele>
        <time>2026-05-14T11:11:46+02:00</time>
      </trkpt>
      <trkpt lat="46.73803" lon="4.93272">
        <ele>195.2998</ele>
        <time>2026-05-14T11:11:47+02:00</time>
      </trkpt>
      <trkpt lat="46.73806" lon="4.93265">
        <ele>195.2998</ele>
        <time>2026-05-14T11:11:48+02:00</time>
      </trkpt>
      <trkpt lat="46.73809" lon="4.93258">
        <ele>195.2002</ele>
        <time>2026-05-14T11:11:49+02:00</time>
      </trkpt>
      <trkpt lat="46.73812" lon="4.93251">
        <ele>195.10059</ele>
        <time>2026-05-14T11:11:50+02:00</time>
      </trkpt>
      <trkpt lat="46.73815" lon="4.93243">
        <ele>195.10059</ele>
        <time>2026-05-14T11:11:51+02:00</time>
      </trkpt>
      <trkpt lat="46.73818" lon="4.93237">
        <ele>195.10059</ele>
        <time>2026-05-14T11:11:52+02:00</time>
      </trkpt>
      <trkpt lat="46.7382" lon="4.9323">
        <ele>195</ele>
        <time>2026-05-14T11:11:53+02:00</time>
      </trkpt>
      <trkpt lat="46.73823" lon="4.93223">
        <ele>195</ele>
        <time>2026-05-14T11:11:54+02:00</time>
      </trkpt>
      <trkpt lat="46.73826" lon="4.93216">
        <ele>195</ele>
        <time>2026-05-14T11:11:55+02:00</time>
      </trkpt>
      <trkpt lat="46.73829" lon="4.93209">
        <ele>195</ele>
        <time>2026-05-14T11:11:56+02:00</time>
      </trkpt>
      <trkpt lat="46.73832" lon="4.93202">
        <ele>195</ele>
        <time>2026-05-14T11:11:57+02:00</time>
      </trkpt>
      <trkpt lat="46.73835" lon="4.93194">
        <ele>194.90039</ele>
        <time>2026-05-14T11:11:58+02:00</time>
      </trkpt>
      <trkpt lat="46.73837" lon="4.93187">
        <ele>194.90039</ele>
        <time>2026-05-14T11:11:59+02:00</time>
      </trkpt>
      <trkpt lat="46.7384" lon="4.9318">
        <ele>194.90039</ele>
        <time>2026-05-14T11:12:00+02:00</time>
      </trkpt>
      <trkpt lat="46.73842" lon="4.93174">
        <ele>194.7998</ele>
        <time>2026-05-14T11:12:01+02:00</time>
      </trkpt>
      <trkpt lat="46.73845" lon="4.93167">
        <ele>194.7998</ele>
        <time>2026-05-14T11:12:02+02:00</time>
      </trkpt>
      <trkpt lat="46.73848" lon="4.9316">
        <ele>194.7002</ele>
        <time>2026-05-14T11:12:03+02:00</time>
      </trkpt>
      <trkpt lat="46.73851" lon="4.93153">
        <ele>194.60059</ele>
        <time>2026-05-14T11:12:04+02:00</time>
      </trkpt>
      <trkpt lat="46.73853" lon="4.93146">
        <ele>194.40039</ele>
        <time>2026-05-14T11:12:05+02:00</time>
      </trkpt>
      <trkpt lat="46.73857" lon="4.93139">
        <ele>194.2002</ele>
        <time>2026-05-14T11:12:06+02:00</time>
      </trkpt>
      <trkpt lat="46.7386" lon="4.93133">
        <ele>194.2002</ele>
        <time>2026-05-14T11:12:07+02:00</time>
      </trkpt>
      <trkpt lat="46.73863" lon="4.93126">
        <ele>194</ele>
        <time>2026-05-14T11:12:08+02:00</time>
      </trkpt>
      <trkpt lat="46.73866" lon="4.93119">
        <ele>193.7998</ele>
        <time>2026-05-14T11:12:09+02:00</time>
      </trkpt>
      <trkpt lat="46.73869" lon="4.93112">
        <ele>193.60059</ele>
        <time>2026-05-14T11:12:10+02:00</time>
      </trkpt>
      <trkpt lat="46.73872" lon="4.93105">
        <ele>193.40039</ele>
        <time>2026-05-14T11:12:11+02:00</time>
      </trkpt>
      <trkpt lat="46.73875" lon="4.93098">
        <ele>193.40039</ele>
        <time>2026-05-14T11:12:12+02:00</time>
      </trkpt>
      <trkpt lat="46.73878" lon="4.93091">
        <ele>193.2002</ele>
        <time>2026-05-14T11:12:13+02:00</time>
      </trkpt>
      <trkpt lat="46.73881" lon="4.93084">
        <ele>193.10059</ele>
        <time>2026-05-14T11:12:14+02:00</time>
      </trkpt>
      <trkpt lat="46.73884" lon="4.93076">
        <ele>192.90039</ele>
        <time>2026-05-14T11:12:15+02:00</time>
      </trkpt>
      <trkpt lat="46.73887" lon="4.93069">
        <ele>192.7998</ele>
        <time>2026-05-14T11:12:16+02:00</time>
      </trkpt>
      <trkpt lat="46.7389" lon="4.93062">
        <ele>192.7002</ele>
        <time>2026-05-14T11:12:17+02:00</time>
      </trkpt>
      <trkpt lat="46.73893" lon="4.93055">
        <ele>192.7998</ele>
        <time>2026-05-14T11:12:18+02:00</time>
      </trkpt>
      <trkpt lat="46.73896" lon="4.93049">
        <ele>192.7002</ele>
        <time>2026-05-14T11:12:19+02:00</time>
      </trkpt>
      <trkpt lat="46.73898" lon="4.93042">
        <ele>192.7998</ele>
        <time>2026-05-14T11:12:20+02:00</time>
      </trkpt>
      <trkpt lat="46.73901" lon="4.93036">
        <ele>192.7998</ele>
        <time>2026-05-14T11:12:21+02:00</time>
      </trkpt>
      <trkpt lat="46.73903" lon="4.9303">
        <ele>192.7998</ele>
        <time>2026-05-14T11:12:22+02:00</time>
      </trkpt>
      <trkpt lat="46.73906" lon="4.93024">
        <ele>192.90039</ele>
        <time>2026-05-14T11:12:23+02:00</time>
      </trkpt>
      <trkpt lat="46.73908" lon="4.93018">
        <ele>192.90039</ele>
        <time>2026-05-14T11:12:24+02:00</time>
      </trkpt>
      <trkpt lat="46.7391" lon="4.93012">
        <ele>193.10059</ele>
        <time>2026-05-14T11:12:25+02:00</time>
      </trkpt>
      <trkpt lat="46.73912" lon="4.93006">
        <ele>193.10059</ele>
        <time>2026-05-14T11:12:26+02:00</time>
      </trkpt>
      <trkpt lat="46.73914" lon="4.93002">
        <ele>193.2002</ele>
        <time>2026-05-14T11:12:27+02:00</time>
      </trkpt>
      <trkpt lat="46.73915" lon="4.93">
        <ele>193.2002</ele>
        <time>2026-05-14T11:12:28+02:00</time>
      </trkpt>
      <trkpt lat="46.73919" lon="4.92993">
        <ele>193.40039</ele>
        <time>2026-05-14T11:12:29+02:00</time>
      </trkpt>
      <trkpt lat="46.73921" lon="4.92988">
        <ele>193.40039</ele>
        <time>2026-05-14T11:12:30+02:00</time>
      </trkpt>
      <trkpt lat="46.73923" lon="4.92982">
        <ele>193.60059</ele>
        <time>2026-05-14T11:12:31+02:00</time>
      </trkpt>
      <trkpt lat="46.73925" lon="4.92976">
        <ele>193.60059</ele>
        <time>2026-05-14T11:12:32+02:00</time>
      </trkpt>
      <trkpt lat="46.73928" lon="4.9297">
        <ele>193.7998</ele>
        <time>2026-05-14T11:12:33+02:00</time>
      </trkpt>
      <trkpt lat="46.7393" lon="4.92964">
        <ele>193.90039</ele>
        <time>2026-05-14T11:12:34+02:00</time>
      </trkpt>
      <trkpt lat="46.73933" lon="4.92958">
        <ele>193.90039</ele>
        <time>2026-05-14T11:12:35+02:00</time>
      </trkpt>
      <trkpt lat="46.73936" lon="4.92952">
        <ele>194.10059</ele>
        <time>2026-05-14T11:12:36+02:00</time>
      </trkpt>
      <trkpt lat="46.73939" lon="4.92946">
        <ele>194.2998</ele>
        <time>2026-05-14T11:12:37+02:00</time>
      </trkpt>
      <trkpt lat="46.73941" lon="4.92939">
        <ele>194.40039</ele>
        <time>2026-05-14T11:12:38+02:00</time>
      </trkpt>
      <trkpt lat="46.73943" lon="4.92933">
        <ele>194.40039</ele>
        <time>2026-05-14T11:12:39+02:00</time>
      </trkpt>
      <trkpt lat="46.73946" lon="4.92926">
        <ele>194.60059</ele>
        <time>2026-05-14T11:12:40+02:00</time>
      </trkpt>
      <trkpt lat="46.73949" lon="4.9292">
        <ele>194.60059</ele>
        <time>2026-05-14T11:12:41+02:00</time>
      </trkpt>
      <trkpt lat="46.73951" lon="4.92914">
        <ele>194.7998</ele>
        <time>2026-05-14T11:12:42+02:00</time>
      </trkpt>
      <trkpt lat="46.73954" lon="4.92908">
        <ele>194.7998</ele>
        <time>2026-05-14T11:12:43+02:00</time>
      </trkpt>
      <trkpt lat="46.73956" lon="4.92903">
        <ele>194.7998</ele>
        <time>2026-05-14T11:12:44+02:00</time>
      </trkpt>
      <trkpt lat="46.73958" lon="4.92898">
        <ele>194.90039</ele>
        <time>2026-05-14T11:12:45+02:00</time>
      </trkpt>
      <trkpt lat="46.7396" lon="4.92894">
        <ele>194.90039</ele>
        <time>2026-05-14T11:12:46+02:00</time>
      </trkpt>
      <trkpt lat="46.73961" lon="4.9289">
        <ele>194.7998</ele>
        <time>2026-05-14T11:12:47+02:00</time>
      </trkpt>
      <trkpt lat="46.73963" lon="4.92887">
        <ele>194.90039</ele>
        <time>2026-05-14T11:12:48+02:00</time>
      </trkpt>
      <trkpt lat="46.73964" lon="4.92884">
        <ele>194.90039</ele>
        <time>2026-05-14T11:12:49+02:00</time>
      </trkpt>
      <trkpt lat="46.73964" lon="4.92882">
        <ele>194.90039</ele>
        <time>2026-05-14T11:12:50+02:00</time>
      </trkpt>
      <trkpt lat="46.73967" lon="4.92875">
        <ele>194.90039</ele>
        <time>2026-05-14T11:12:51+02:00</time>
      </trkpt>
      <trkpt lat="46.73969" lon="4.9287">
        <ele>194.90039</ele>
        <time>2026-05-14T11:12:52+02:00</time>
      </trkpt>
      <trkpt lat="46.73971" lon="4.92865">
        <ele>194.7998</ele>
        <time>2026-05-14T11:12:53+02:00</time>
      </trkpt>
      <trkpt lat="46.73972" lon="4.9286">
        <ele>194.7998</ele>
        <time>2026-05-14T11:12:54+02:00</time>
      </trkpt>
      <trkpt lat="46.73975" lon="4.92855">
        <ele>194.7998</ele>
        <time>2026-05-14T11:12:55+02:00</time>
      </trkpt>
      <trkpt lat="46.73977" lon="4.9285">
        <ele>194.7998</ele>
        <time>2026-05-14T11:12:56+02:00</time>
      </trkpt>
      <trkpt lat="46.73979" lon="4.92845">
        <ele>194.7998</ele>
        <time>2026-05-14T11:12:57+02:00</time>
      </trkpt>
      <trkpt lat="46.73982" lon="4.9284">
        <ele>194.90039</ele>
        <time>2026-05-14T11:12:58+02:00</time>
      </trkpt>
      <trkpt lat="46.73984" lon="4.92835">
        <ele>194.7998</ele>
        <time>2026-05-14T11:12:59+02:00</time>
      </trkpt>
      <trkpt lat="46.73986" lon="4.92829">
        <ele>194.7998</ele>
        <time>2026-05-14T11:13:00+02:00</time>
      </trkpt>
      <trkpt lat="46.73987" lon="4.92826">
        <ele>194.90039</ele>
        <time>2026-05-14T11:13:01+02:00</time>
      </trkpt>
      <trkpt lat="46.7399" lon="4.92819">
        <ele>194.90039</ele>
        <time>2026-05-14T11:13:02+02:00</time>
      </trkpt>
      <trkpt lat="46.73993" lon="4.92814">
        <ele>195</ele>
        <time>2026-05-14T11:13:03+02:00</time>
      </trkpt>
      <trkpt lat="46.73995" lon="4.92808">
        <ele>195</ele>
        <time>2026-05-14T11:13:04+02:00</time>
      </trkpt>
      <trkpt lat="46.73996" lon="4.92806">
        <ele>195</ele>
        <time>2026-05-14T11:13:05+02:00</time>
      </trkpt>
      <trkpt lat="46.74" lon="4.92797">
        <ele>195.2002</ele>
        <time>2026-05-14T11:13:06+02:00</time>
      </trkpt>
      <trkpt lat="46.74002" lon="4.92792">
        <ele>195.2998</ele>
        <time>2026-05-14T11:13:07+02:00</time>
      </trkpt>
      <trkpt lat="46.74004" lon="4.92787">
        <ele>195.40039</ele>
        <time>2026-05-14T11:13:08+02:00</time>
      </trkpt>
      <trkpt lat="46.74006" lon="4.92784">
        <ele>195.40039</ele>
        <time>2026-05-14T11:13:09+02:00</time>
      </trkpt>
      <trkpt lat="46.74009" lon="4.92776">
        <ele>195.5</ele>
        <time>2026-05-14T11:13:10+02:00</time>
      </trkpt>
      <trkpt lat="46.74011" lon="4.92771">
        <ele>195.7002</ele>
        <time>2026-05-14T11:13:11+02:00</time>
      </trkpt>
      <trkpt lat="46.74013" lon="4.92766">
        <ele>195.7002</ele>
        <time>2026-05-14T11:13:12+02:00</time>
      </trkpt>
      <trkpt lat="46.74015" lon="4.92762">
        <ele>195.7998</ele>
        <time>2026-05-14T11:13:13+02:00</time>
      </trkpt>
      <trkpt lat="46.74017" lon="4.92757">
        <ele>195.90039</ele>
        <time>2026-05-14T11:13:14+02:00</time>
      </trkpt>
      <trkpt lat="46.74019" lon="4.92752">
        <ele>196</ele>
        <time>2026-05-14T11:13:15+02:00</time>
      </trkpt>
      <trkpt lat="46.74021" lon="4.92747">
        <ele>196</ele>
        <time>2026-05-14T11:13:16+02:00</time>
      </trkpt>
      <trkpt lat="46.74022" lon="4.92742">
        <ele>196.2002</ele>
        <time>2026-05-14T11:13:17+02:00</time>
      </trkpt>
      <trkpt lat="46.74025" lon="4.92737">
        <ele>196.2002</ele>
        <time>2026-05-14T11:13:18+02:00</time>
      </trkpt>
      <trkpt lat="46.74027" lon="4.92731">
        <ele>196.40039</ele>
        <time>2026-05-14T11:13:19+02:00</time>
      </trkpt>
      <trkpt lat="46.74029" lon="4.92726">
        <ele>196.7002</ele>
        <time>2026-05-14T11:13:20+02:00</time>
      </trkpt>
      <trkpt lat="46.74031" lon="4.9272">
        <ele>196.7002</ele>
        <time>2026-05-14T11:13:21+02:00</time>
      </trkpt>
      <trkpt lat="46.74033" lon="4.92714">
        <ele>196.90039</ele>
        <time>2026-05-14T11:13:22+02:00</time>
      </trkpt>
      <trkpt lat="46.74035" lon="4.92708">
        <ele>197.2002</ele>
        <time>2026-05-14T11:13:23+02:00</time>
      </trkpt>
      <trkpt lat="46.74038" lon="4.92702">
        <ele>197.40039</ele>
        <time>2026-05-14T11:13:24+02:00</time>
      </trkpt>
      <trkpt lat="46.74041" lon="4.92696">
        <ele>197.5</ele>
        <time>2026-05-14T11:13:25+02:00</time>
      </trkpt>
      <trkpt lat="46.74043" lon="4.92689">
        <ele>197.7002</ele>
        <time>2026-05-14T11:13:26+02:00</time>
      </trkpt>
      <trkpt lat="46.74046" lon="4.92683">
        <ele>198</ele>
        <time>2026-05-14T11:13:27+02:00</time>
      </trkpt>
      <trkpt lat="46.74049" lon="4.92677">
        <ele>198</ele>
        <time>2026-05-14T11:13:28+02:00</time>
      </trkpt>
      <trkpt lat="46.74051" lon="4.9267">
        <ele>198.2002</ele>
        <time>2026-05-14T11:13:29+02:00</time>
      </trkpt>
      <trkpt lat="46.74054" lon="4.92664">
        <ele>198.40039</ele>
        <time>2026-05-14T11:13:30+02:00</time>
      </trkpt>
      <trkpt lat="46.74057" lon="4.92658">
        <ele>198.60059</ele>
        <time>2026-05-14T11:13:31+02:00</time>
      </trkpt>
      <trkpt lat="46.74059" lon="4.92651">
        <ele>198.7002</ele>
        <time>2026-05-14T11:13:32+02:00</time>
      </trkpt>
      <trkpt lat="46.74062" lon="4.92645">
        <ele>198.7002</ele>
        <time>2026-05-14T11:13:33+02:00</time>
      </trkpt>
      <trkpt lat="46.74064" lon="4.92639">
        <ele>198.90039</ele>
        <time>2026-05-14T11:13:34+02:00</time>
      </trkpt>
      <trkpt lat="46.74067" lon="4.92633">
        <ele>199</ele>
        <time>2026-05-14T11:13:35+02:00</time>
      </trkpt>
      <trkpt lat="46.74069" lon="4.92627">
        <ele>199.10059</ele>
        <time>2026-05-14T11:13:36+02:00</time>
      </trkpt>
      <trkpt lat="46.74072" lon="4.92621">
        <ele>199.2002</ele>
        <time>2026-05-14T11:13:37+02:00</time>
      </trkpt>
      <trkpt lat="46.74074" lon="4.92615">
        <ele>199.2002</ele>
        <time>2026-05-14T11:13:38+02:00</time>
      </trkpt>
      <trkpt lat="46.74077" lon="4.92608">
        <ele>199.40039</ele>
        <time>2026-05-14T11:13:39+02:00</time>
      </trkpt>
      <trkpt lat="46.74079" lon="4.92602">
        <ele>199.40039</ele>
        <time>2026-05-14T11:13:40+02:00</time>
      </trkpt>
      <trkpt lat="46.74082" lon="4.92595">
        <ele>199.60059</ele>
        <time>2026-05-14T11:13:41+02:00</time>
      </trkpt>
      <trkpt lat="46.74085" lon="4.92589">
        <ele>199.7002</ele>
        <time>2026-05-14T11:13:42+02:00</time>
      </trkpt>
      <trkpt lat="46.74087" lon="4.92582">
        <ele>199.90039</ele>
        <time>2026-05-14T11:13:43+02:00</time>
      </trkpt>
      <trkpt lat="46.7409" lon="4.92576">
        <ele>199.90039</ele>
        <time>2026-05-14T11:13:44+02:00</time>
      </trkpt>
      <trkpt lat="46.74092" lon="4.9257">
        <ele>200.10059</ele>
        <time>2026-05-14T11:13:45+02:00</time>
      </trkpt>
      <trkpt lat="46.74095" lon="4.92564">
        <ele>200.2998</ele>
        <time>2026-05-14T11:13:46+02:00</time>
      </trkpt>
      <trkpt lat="46.74098" lon="4.92558">
        <ele>200.2998</ele>
        <time>2026-05-14T11:13:47+02:00</time>
      </trkpt>
      <trkpt lat="46.741" lon="4.92552">
        <ele>200.5</ele>
        <time>2026-05-14T11:13:48+02:00</time>
      </trkpt>
      <trkpt lat="46.74102" lon="4.92546">
        <ele>200.60059</ele>
        <time>2026-05-14T11:13:49+02:00</time>
      </trkpt>
      <trkpt lat="46.74104" lon="4.92539">
        <ele>200.7998</ele>
        <time>2026-05-14T11:13:50+02:00</time>
      </trkpt>
      <trkpt lat="46.74107" lon="4.92533">
        <ele>200.7998</ele>
        <time>2026-05-14T11:13:51+02:00</time>
      </trkpt>
      <trkpt lat="46.74109" lon="4.92528">
        <ele>200.90039</ele>
        <time>2026-05-14T11:13:52+02:00</time>
      </trkpt>
      <trkpt lat="46.74112" lon="4.92521">
        <ele>201</ele>
        <time>2026-05-14T11:13:53+02:00</time>
      </trkpt>
      <trkpt lat="46.74115" lon="4.92515">
        <ele>201</ele>
        <time>2026-05-14T11:13:54+02:00</time>
      </trkpt>
      <trkpt lat="46.74117" lon="4.92509">
        <ele>201.10059</ele>
        <time>2026-05-14T11:13:55+02:00</time>
      </trkpt>
      <trkpt lat="46.7412" lon="4.92502">
        <ele>201.10059</ele>
        <time>2026-05-14T11:13:56+02:00</time>
      </trkpt>
      <trkpt lat="46.74123" lon="4.92496">
        <ele>201.10059</ele>
        <time>2026-05-14T11:13:57+02:00</time>
      </trkpt>
      <trkpt lat="46.74125" lon="4.9249">
        <ele>201.10059</ele>
        <time>2026-05-14T11:13:58+02:00</time>
      </trkpt>
      <trkpt lat="46.74128" lon="4.92484">
        <ele>201.10059</ele>
        <time>2026-05-14T11:13:59+02:00</time>
      </trkpt>
      <trkpt lat="46.7413" lon="4.92477">
        <ele>201</ele>
        <time>2026-05-14T11:14:00+02:00</time>
      </trkpt>
      <trkpt lat="46.74133" lon="4.92471">
        <ele>201</ele>
        <time>2026-05-14T11:14:01+02:00</time>
      </trkpt>
      <trkpt lat="46.74136" lon="4.92465">
        <ele>200.90039</ele>
        <time>2026-05-14T11:14:02+02:00</time>
      </trkpt>
      <trkpt lat="46.74139" lon="4.92458">
        <ele>200.7998</ele>
        <time>2026-05-14T11:14:03+02:00</time>
      </trkpt>
      <trkpt lat="46.74141" lon="4.92452">
        <ele>200.7002</ele>
        <time>2026-05-14T11:14:04+02:00</time>
      </trkpt>
      <trkpt lat="46.74144" lon="4.92446">
        <ele>200.7002</ele>
        <time>2026-05-14T11:14:05+02:00</time>
      </trkpt>
      <trkpt lat="46.74147" lon="4.9244">
        <ele>200.60059</ele>
        <time>2026-05-14T11:14:06+02:00</time>
      </trkpt>
      <trkpt lat="46.74149" lon="4.92434">
        <ele>200.40039</ele>
        <time>2026-05-14T11:14:07+02:00</time>
      </trkpt>
      <trkpt lat="46.74152" lon="4.92428">
        <ele>200.5</ele>
        <time>2026-05-14T11:14:08+02:00</time>
      </trkpt>
      <trkpt lat="46.74154" lon="4.92421">
        <ele>200.2998</ele>
        <time>2026-05-14T11:14:09+02:00</time>
      </trkpt>
      <trkpt lat="46.74157" lon="4.92415">
        <ele>200.2998</ele>
        <time>2026-05-14T11:14:10+02:00</time>
      </trkpt>
      <trkpt lat="46.74159" lon="4.92409">
        <ele>200.10059</ele>
        <time>2026-05-14T11:14:11+02:00</time>
      </trkpt>
      <trkpt lat="46.74162" lon="4.92402">
        <ele>199.90039</ele>
        <time>2026-05-14T11:14:12+02:00</time>
      </trkpt>
      <trkpt lat="46.74165" lon="4.92396">
        <ele>200</ele>
        <time>2026-05-14T11:14:13+02:00</time>
      </trkpt>
      <trkpt lat="46.74167" lon="4.9239">
        <ele>199.7998</ele>
        <time>2026-05-14T11:14:14+02:00</time>
      </trkpt>
      <trkpt lat="46.7417" lon="4.92383">
        <ele>199.7002</ele>
        <time>2026-05-14T11:14:15+02:00</time>
      </trkpt>
      <trkpt lat="46.74173" lon="4.92376">
        <ele>199.60059</ele>
        <time>2026-05-14T11:14:16+02:00</time>
      </trkpt>
      <trkpt lat="46.74175" lon="4.9237">
        <ele>199.7002</ele>
        <time>2026-05-14T11:14:17+02:00</time>
      </trkpt>
      <trkpt lat="46.74178" lon="4.92364">
        <ele>199.60059</ele>
        <time>2026-05-14T11:14:18+02:00</time>
      </trkpt>
      <trkpt lat="46.7418" lon="4.92358">
        <ele>199.40039</ele>
        <time>2026-05-14T11:14:19+02:00</time>
      </trkpt>
      <trkpt lat="46.74182" lon="4.92352">
        <ele>199.60059</ele>
        <time>2026-05-14T11:14:20+02:00</time>
      </trkpt>
      <trkpt lat="46.74185" lon="4.92346">
        <ele>199.40039</ele>
        <time>2026-05-14T11:14:21+02:00</time>
      </trkpt>
      <trkpt lat="46.74188" lon="4.92339">
        <ele>199.5</ele>
        <time>2026-05-14T11:14:22+02:00</time>
      </trkpt>
      <trkpt lat="46.7419" lon="4.92332">
        <ele>199.2998</ele>
        <time>2026-05-14T11:14:23+02:00</time>
      </trkpt>
      <trkpt lat="46.74193" lon="4.92326">
        <ele>199.5</ele>
        <time>2026-05-14T11:14:24+02:00</time>
      </trkpt>
      <trkpt lat="46.74195" lon="4.9232">
        <ele>199.2998</ele>
        <time>2026-05-14T11:14:25+02:00</time>
      </trkpt>
      <trkpt lat="46.74198" lon="4.92314">
        <ele>199.40039</ele>
        <time>2026-05-14T11:14:26+02:00</time>
      </trkpt>
      <trkpt lat="46.74199" lon="4.92311">
        <ele>199.40039</ele>
        <time>2026-05-14T11:14:27+02:00</time>
      </trkpt>
      <trkpt lat="46.74203" lon="4.923">
        <ele>199.2998</ele>
        <time>2026-05-14T11:14:28+02:00</time>
      </trkpt>
      <trkpt lat="46.74206" lon="4.92294">
        <ele>199.40039</ele>
        <time>2026-05-14T11:14:29+02:00</time>
      </trkpt>
      <trkpt lat="46.74209" lon="4.92286">
        <ele>199.2998</ele>
        <time>2026-05-14T11:14:30+02:00</time>
      </trkpt>
      <trkpt lat="46.74211" lon="4.9228">
        <ele>199.40039</ele>
        <time>2026-05-14T11:14:31+02:00</time>
      </trkpt>
      <trkpt lat="46.74214" lon="4.92273">
        <ele>199.2998</ele>
        <time>2026-05-14T11:14:32+02:00</time>
      </trkpt>
      <trkpt lat="46.74217" lon="4.92266">
        <ele>199.5</ele>
        <time>2026-05-14T11:14:33+02:00</time>
      </trkpt>
      <trkpt lat="46.7422" lon="4.92259">
        <ele>199.40039</ele>
        <time>2026-05-14T11:14:34+02:00</time>
      </trkpt>
      <trkpt lat="46.74223" lon="4.92253">
        <ele>199.60059</ele>
        <time>2026-05-14T11:14:35+02:00</time>
      </trkpt>
      <trkpt lat="46.74225" lon="4.92246">
        <ele>199.5</ele>
        <time>2026-05-14T11:14:36+02:00</time>
      </trkpt>
      <trkpt lat="46.74228" lon="4.92239">
        <ele>199.7002</ele>
        <time>2026-05-14T11:14:37+02:00</time>
      </trkpt>
      <trkpt lat="46.7423" lon="4.92233">
        <ele>199.60059</ele>
        <time>2026-05-14T11:14:38+02:00</time>
      </trkpt>
      <trkpt lat="46.74233" lon="4.92227">
        <ele>199.5</ele>
        <time>2026-05-14T11:14:39+02:00</time>
      </trkpt>
      <trkpt lat="46.74236" lon="4.92221">
        <ele>199.60059</ele>
        <time>2026-05-14T11:14:40+02:00</time>
      </trkpt>
      <trkpt lat="46.74239" lon="4.92214">
        <ele>199.60059</ele>
        <time>2026-05-14T11:14:41+02:00</time>
      </trkpt>
      <trkpt lat="46.74241" lon="4.92207">
        <ele>199.60059</ele>
        <time>2026-05-14T11:14:42+02:00</time>
      </trkpt>
      <trkpt lat="46.74244" lon="4.922">
        <ele>199.5</ele>
        <time>2026-05-14T11:14:43+02:00</time>
      </trkpt>
      <trkpt lat="46.74247" lon="4.92193">
        <ele>199.5</ele>
        <time>2026-05-14T11:14:44+02:00</time>
      </trkpt>
      <trkpt lat="46.74251" lon="4.92186">
        <ele>199.5</ele>
        <time>2026-05-14T11:14:45+02:00</time>
      </trkpt>
      <trkpt lat="46.74254" lon="4.92179">
        <ele>199.5</ele>
        <time>2026-05-14T11:14:46+02:00</time>
      </trkpt>
      <trkpt lat="46.74257" lon="4.92171">
        <ele>199.5</ele>
        <time>2026-05-14T11:14:47+02:00</time>
      </trkpt>
      <trkpt lat="46.7426" lon="4.92164">
        <ele>199.2998</ele>
        <time>2026-05-14T11:14:48+02:00</time>
      </trkpt>
      <trkpt lat="46.74264" lon="4.92156">
        <ele>199.2998</ele>
        <time>2026-05-14T11:14:49+02:00</time>
      </trkpt>
      <trkpt lat="46.74267" lon="4.92149">
        <ele>199.2002</ele>
        <time>2026-05-14T11:14:50+02:00</time>
      </trkpt>
      <trkpt lat="46.7427" lon="4.92142">
        <ele>199.2002</ele>
        <time>2026-05-14T11:14:51+02:00</time>
      </trkpt>
      <trkpt lat="46.74273" lon="4.92135">
        <ele>199</ele>
        <time>2026-05-14T11:14:52+02:00</time>
      </trkpt>
      <trkpt lat="46.74276" lon="4.92128">
        <ele>199.2002</ele>
        <time>2026-05-14T11:14:53+02:00</time>
      </trkpt>
      <trkpt lat="46.74279" lon="4.92121">
        <ele>199</ele>
        <time>2026-05-14T11:14:54+02:00</time>
      </trkpt>
      <trkpt lat="46.74282" lon="4.92114">
        <ele>199</ele>
        <time>2026-05-14T11:14:55+02:00</time>
      </trkpt>
      <trkpt lat="46.74285" lon="4.92107">
        <ele>198.90039</ele>
        <time>2026-05-14T11:14:56+02:00</time>
      </trkpt>
      <trkpt lat="46.74288" lon="4.921">
        <ele>198.90039</ele>
        <time>2026-05-14T11:14:57+02:00</time>
      </trkpt>
      <trkpt lat="46.74291" lon="4.92093">
        <ele>198.7002</ele>
        <time>2026-05-14T11:14:58+02:00</time>
      </trkpt>
      <trkpt lat="46.74293" lon="4.92086">
        <ele>198.90039</ele>
        <time>2026-05-14T11:14:59+02:00</time>
      </trkpt>
      <trkpt lat="46.74296" lon="4.92079">
        <ele>198.7002</ele>
        <time>2026-05-14T11:15:00+02:00</time>
      </trkpt>
      <trkpt lat="46.74299" lon="4.92072">
        <ele>198.7998</ele>
        <time>2026-05-14T11:15:01+02:00</time>
      </trkpt>
      <trkpt lat="46.74302" lon="4.92065">
        <ele>198.60059</ele>
        <time>2026-05-14T11:15:02+02:00</time>
      </trkpt>
      <trkpt lat="46.74305" lon="4.92058">
        <ele>198.60059</ele>
        <time>2026-05-14T11:15:03+02:00</time>
      </trkpt>
      <trkpt lat="46.74308" lon="4.92051">
        <ele>198.60059</ele>
        <time>2026-05-14T11:15:04+02:00</time>
      </trkpt>
      <trkpt lat="46.74311" lon="4.92044">
        <ele>198.5</ele>
        <time>2026-05-14T11:15:05+02:00</time>
      </trkpt>
      <trkpt lat="46.74314" lon="4.92037">
        <ele>198.2998</ele>
        <time>2026-05-14T11:15:06+02:00</time>
      </trkpt>
      <trkpt lat="46.74317" lon="4.9203">
        <ele>198.10059</ele>
        <time>2026-05-14T11:15:07+02:00</time>
      </trkpt>
      <trkpt lat="46.7432" lon="4.92023">
        <ele>197.7998</ele>
        <time>2026-05-14T11:15:08+02:00</time>
      </trkpt>
      <trkpt lat="46.74323" lon="4.92016">
        <ele>197.90039</ele>
        <time>2026-05-14T11:15:09+02:00</time>
      </trkpt>
      <trkpt lat="46.74326" lon="4.92009">
        <ele>197.60059</ele>
        <time>2026-05-14T11:15:10+02:00</time>
      </trkpt>
      <trkpt lat="46.74329" lon="4.92002">
        <ele>197.2998</ele>
        <time>2026-05-14T11:15:11+02:00</time>
      </trkpt>
      <trkpt lat="46.74332" lon="4.91994">
        <ele>197.10059</ele>
        <time>2026-05-14T11:15:12+02:00</time>
      </trkpt>
      <trkpt lat="46.74335" lon="4.91987">
        <ele>196.7998</ele>
        <time>2026-05-14T11:15:13+02:00</time>
      </trkpt>
      <trkpt lat="46.74338" lon="4.9198">
        <ele>196.60059</ele>
        <time>2026-05-14T11:15:14+02:00</time>
      </trkpt>
      <trkpt lat="46.74341" lon="4.91974">
        <ele>196.60059</ele>
        <time>2026-05-14T11:15:15+02:00</time>
      </trkpt>
      <trkpt lat="46.74344" lon="4.91967">
        <ele>196.2998</ele>
        <time>2026-05-14T11:15:16+02:00</time>
      </trkpt>
      <trkpt lat="46.74347" lon="4.9196">
        <ele>196.10059</ele>
        <time>2026-05-14T11:15:17+02:00</time>
      </trkpt>
      <trkpt lat="46.7435" lon="4.91954">
        <ele>195.7998</ele>
        <time>2026-05-14T11:15:18+02:00</time>
      </trkpt>
      <trkpt lat="46.74352" lon="4.91947">
        <ele>195.60059</ele>
        <time>2026-05-14T11:15:19+02:00</time>
      </trkpt>
      <trkpt lat="46.74355" lon="4.91941">
        <ele>195.60059</ele>
        <time>2026-05-14T11:15:20+02:00</time>
      </trkpt>
      <trkpt lat="46.74357" lon="4.91935">
        <ele>195.40039</ele>
        <time>2026-05-14T11:15:21+02:00</time>
      </trkpt>
      <trkpt lat="46.74359" lon="4.9193">
        <ele>195.40039</ele>
        <time>2026-05-14T11:15:22+02:00</time>
      </trkpt>
      <trkpt lat="46.74362" lon="4.91924">
        <ele>195.2002</ele>
        <time>2026-05-14T11:15:23+02:00</time>
      </trkpt>
      <trkpt lat="46.74364" lon="4.91919">
        <ele>195.10059</ele>
        <time>2026-05-14T11:15:24+02:00</time>
      </trkpt>
      <trkpt lat="46.74366" lon="4.91913">
        <ele>195.10059</ele>
        <time>2026-05-14T11:15:25+02:00</time>
      </trkpt>
      <trkpt lat="46.74368" lon="4.91907">
        <ele>195</ele>
        <time>2026-05-14T11:15:26+02:00</time>
      </trkpt>
      <trkpt lat="46.74371" lon="4.91902">
        <ele>195</ele>
        <time>2026-05-14T11:15:27+02:00</time>
      </trkpt>
      <trkpt lat="46.74373" lon="4.91897">
        <ele>195</ele>
        <time>2026-05-14T11:15:28+02:00</time>
      </trkpt>
      <trkpt lat="46.74375" lon="4.91892">
        <ele>194.90039</ele>
        <time>2026-05-14T11:15:29+02:00</time>
      </trkpt>
      <trkpt lat="46.74378" lon="4.91888">
        <ele>194.90039</ele>
        <time>2026-05-14T11:15:30+02:00</time>
      </trkpt>
      <trkpt lat="46.74379" lon="4.91883">
        <ele>194.90039</ele>
        <time>2026-05-14T11:15:31+02:00</time>
      </trkpt>
      <trkpt lat="46.74381" lon="4.91878">
        <ele>194.90039</ele>
        <time>2026-05-14T11:15:32+02:00</time>
      </trkpt>
      <trkpt lat="46.74383" lon="4.91874">
        <ele>194.90039</ele>
        <time>2026-05-14T11:15:33+02:00</time>
      </trkpt>
      <trkpt lat="46.74385" lon="4.91869">
        <ele>194.90039</ele>
        <time>2026-05-14T11:15:34+02:00</time>
      </trkpt>
      <trkpt lat="46.74387" lon="4.91864">
        <ele>194.90039</ele>
        <time>2026-05-14T11:15:35+02:00</time>
      </trkpt>
      <trkpt lat="46.7439" lon="4.91858">
        <ele>194.90039</ele>
        <time>2026-05-14T11:15:36+02:00</time>
      </trkpt>
      <trkpt lat="46.74392" lon="4.91853">
        <ele>194.90039</ele>
        <time>2026-05-14T11:15:37+02:00</time>
      </trkpt>
      <trkpt lat="46.74395" lon="4.91847">
        <ele>194.90039</ele>
        <time>2026-05-14T11:15:38+02:00</time>
      </trkpt>
      <trkpt lat="46.74398" lon="4.91841">
        <ele>194.7998</ele>
        <time>2026-05-14T11:15:39+02:00</time>
      </trkpt>
      <trkpt lat="46.744" lon="4.91835">
        <ele>194.7998</ele>
        <time>2026-05-14T11:15:40+02:00</time>
      </trkpt>
      <trkpt lat="46.74403" lon="4.91828">
        <ele>194.7998</ele>
        <time>2026-05-14T11:15:41+02:00</time>
      </trkpt>
      <trkpt lat="46.74405" lon="4.91822">
        <ele>194.7998</ele>
        <time>2026-05-14T11:15:42+02:00</time>
      </trkpt>
      <trkpt lat="46.74408" lon="4.91816">
        <ele>194.7002</ele>
        <time>2026-05-14T11:15:43+02:00</time>
      </trkpt>
      <trkpt lat="46.74412" lon="4.91809">
        <ele>194.7002</ele>
        <time>2026-05-14T11:15:44+02:00</time>
      </trkpt>
      <trkpt lat="46.74414" lon="4.91802">
        <ele>194.7002</ele>
        <time>2026-05-14T11:15:45+02:00</time>
      </trkpt>
      <trkpt lat="46.74417" lon="4.91795">
        <ele>194.60059</ele>
        <time>2026-05-14T11:15:46+02:00</time>
      </trkpt>
      <trkpt lat="46.7442" lon="4.91788">
        <ele>194.60059</ele>
        <time>2026-05-14T11:15:47+02:00</time>
      </trkpt>
      <trkpt lat="46.74423" lon="4.91782">
        <ele>194.60059</ele>
        <time>2026-05-14T11:15:48+02:00</time>
      </trkpt>
      <trkpt lat="46.74426" lon="4.91774">
        <ele>194.60059</ele>
        <time>2026-05-14T11:15:49+02:00</time>
      </trkpt>
      <trkpt lat="46.74429" lon="4.91767">
        <ele>194.60059</ele>
        <time>2026-05-14T11:15:50+02:00</time>
      </trkpt>
      <trkpt lat="46.74432" lon="4.9176">
        <ele>194.60059</ele>
        <time>2026-05-14T11:15:51+02:00</time>
      </trkpt>
      <trkpt lat="46.74435" lon="4.91753">
        <ele>194.60059</ele>
        <time>2026-05-14T11:15:52+02:00</time>
      </trkpt>
      <trkpt lat="46.74438" lon="4.91746">
        <ele>194.60059</ele>
        <time>2026-05-14T11:15:53+02:00</time>
      </trkpt>
      <trkpt lat="46.74441" lon="4.91738">
        <ele>194.60059</ele>
        <time>2026-05-14T11:15:54+02:00</time>
      </trkpt>
      <trkpt lat="46.74444" lon="4.91731">
        <ele>194.7002</ele>
        <time>2026-05-14T11:15:55+02:00</time>
      </trkpt>
      <trkpt lat="46.74447" lon="4.91724">
        <ele>194.60059</ele>
        <time>2026-05-14T11:15:56+02:00</time>
      </trkpt>
      <trkpt lat="46.74449" lon="4.91716">
        <ele>194.7002</ele>
        <time>2026-05-14T11:15:57+02:00</time>
      </trkpt>
      <trkpt lat="46.74452" lon="4.91709">
        <ele>194.60059</ele>
        <time>2026-05-14T11:15:58+02:00</time>
      </trkpt>
      <trkpt lat="46.74455" lon="4.91701">
        <ele>194.7002</ele>
        <time>2026-05-14T11:15:59+02:00</time>
      </trkpt>
      <trkpt lat="46.74458" lon="4.91694">
        <ele>194.60059</ele>
        <time>2026-05-14T11:16:00+02:00</time>
      </trkpt>
      <trkpt lat="46.74461" lon="4.91687">
        <ele>194.60059</ele>
        <time>2026-05-14T11:16:01+02:00</time>
      </trkpt>
      <trkpt lat="46.74464" lon="4.9168">
        <ele>194.5</ele>
        <time>2026-05-14T11:16:02+02:00</time>
      </trkpt>
      <trkpt lat="46.74466" lon="4.91673">
        <ele>194.5</ele>
        <time>2026-05-14T11:16:03+02:00</time>
      </trkpt>
      <trkpt lat="46.7447" lon="4.91666">
        <ele>194.40039</ele>
        <time>2026-05-14T11:16:04+02:00</time>
      </trkpt>
      <trkpt lat="46.74471" lon="4.91662">
        <ele>194.40039</ele>
        <time>2026-05-14T11:16:05+02:00</time>
      </trkpt>
      <trkpt lat="46.74475" lon="4.91652">
        <ele>194.2002</ele>
        <time>2026-05-14T11:16:06+02:00</time>
      </trkpt>
      <trkpt lat="46.74478" lon="4.91646">
        <ele>194.2002</ele>
        <time>2026-05-14T11:16:07+02:00</time>
      </trkpt>
      <trkpt lat="46.74481" lon="4.91639">
        <ele>194.10059</ele>
        <time>2026-05-14T11:16:08+02:00</time>
      </trkpt>
      <trkpt lat="46.74484" lon="4.91632">
        <ele>194</ele>
        <time>2026-05-14T11:16:09+02:00</time>
      </trkpt>
      <trkpt lat="46.74487" lon="4.91625">
        <ele>193.90039</ele>
        <time>2026-05-14T11:16:10+02:00</time>
      </trkpt>
      <trkpt lat="46.7449" lon="4.91619">
        <ele>193.90039</ele>
        <time>2026-05-14T11:16:11+02:00</time>
      </trkpt>
      <trkpt lat="46.74492" lon="4.91612">
        <ele>193.7998</ele>
        <time>2026-05-14T11:16:12+02:00</time>
      </trkpt>
      <trkpt lat="46.74495" lon="4.91605">
        <ele>193.7998</ele>
        <time>2026-05-14T11:16:13+02:00</time>
      </trkpt>
      <trkpt lat="46.74498" lon="4.91598">
        <ele>193.7998</ele>
        <time>2026-05-14T11:16:14+02:00</time>
      </trkpt>
      <trkpt lat="46.745" lon="4.91591">
        <ele>193.7998</ele>
        <time>2026-05-14T11:16:15+02:00</time>
      </trkpt>
      <trkpt lat="46.74503" lon="4.91585">
        <ele>193.7002</ele>
        <time>2026-05-14T11:16:16+02:00</time>
      </trkpt>
      <trkpt lat="46.74506" lon="4.91579">
        <ele>193.7002</ele>
        <time>2026-05-14T11:16:17+02:00</time>
      </trkpt>
      <trkpt lat="46.74508" lon="4.91573">
        <ele>193.7002</ele>
        <time>2026-05-14T11:16:18+02:00</time>
      </trkpt>
      <trkpt lat="46.74511" lon="4.91568">
        <ele>193.7002</ele>
        <time>2026-05-14T11:16:19+02:00</time>
      </trkpt>
      <trkpt lat="46.74514" lon="4.91562">
        <ele>193.7002</ele>
        <time>2026-05-14T11:16:20+02:00</time>
      </trkpt>
      <trkpt lat="46.74516" lon="4.91555">
        <ele>193.7002</ele>
        <time>2026-05-14T11:16:21+02:00</time>
      </trkpt>
      <trkpt lat="46.74518" lon="4.91549">
        <ele>193.7002</ele>
        <time>2026-05-14T11:16:22+02:00</time>
      </trkpt>
      <trkpt lat="46.74521" lon="4.91543">
        <ele>193.7002</ele>
        <time>2026-05-14T11:16:23+02:00</time>
      </trkpt>
      <trkpt lat="46.74524" lon="4.91537">
        <ele>193.7002</ele>
        <time>2026-05-14T11:16:24+02:00</time>
      </trkpt>
      <trkpt lat="46.74527" lon="4.9153">
        <ele>193.7002</ele>
        <time>2026-05-14T11:16:25+02:00</time>
      </trkpt>
      <trkpt lat="46.7453" lon="4.91523">
        <ele>193.7998</ele>
        <time>2026-05-14T11:16:26+02:00</time>
      </trkpt>
      <trkpt lat="46.74533" lon="4.91516">
        <ele>193.7998</ele>
        <time>2026-05-14T11:16:27+02:00</time>
      </trkpt>
      <trkpt lat="46.74536" lon="4.91509">
        <ele>193.7998</ele>
        <time>2026-05-14T11:16:28+02:00</time>
      </trkpt>
      <trkpt lat="46.74539" lon="4.91501">
        <ele>193.7998</ele>
        <time>2026-05-14T11:16:29+02:00</time>
      </trkpt>
      <trkpt lat="46.74542" lon="4.91494">
        <ele>193.90039</ele>
        <time>2026-05-14T11:16:30+02:00</time>
      </trkpt>
      <trkpt lat="46.74545" lon="4.91486">
        <ele>194</ele>
        <time>2026-05-14T11:16:31+02:00</time>
      </trkpt>
      <trkpt lat="46.74548" lon="4.91479">
        <ele>194</ele>
        <time>2026-05-14T11:16:32+02:00</time>
      </trkpt>
      <trkpt lat="46.7455" lon="4.91471">
        <ele>194.10059</ele>
        <time>2026-05-14T11:16:33+02:00</time>
      </trkpt>
      <trkpt lat="46.74553" lon="4.91464">
        <ele>194.2002</ele>
        <time>2026-05-14T11:16:34+02:00</time>
      </trkpt>
      <trkpt lat="46.74556" lon="4.91458">
        <ele>194.2002</ele>
        <time>2026-05-14T11:16:35+02:00</time>
      </trkpt>
      <trkpt lat="46.74559" lon="4.91451">
        <ele>194.2998</ele>
        <time>2026-05-14T11:16:36+02:00</time>
      </trkpt>
      <trkpt lat="46.74562" lon="4.91444">
        <ele>194.2998</ele>
        <time>2026-05-14T11:16:37+02:00</time>
      </trkpt>
      <trkpt lat="46.74564" lon="4.91437">
        <ele>194.5</ele>
        <time>2026-05-14T11:16:38+02:00</time>
      </trkpt>
      <trkpt lat="46.74567" lon="4.91431">
        <ele>194.5</ele>
        <time>2026-05-14T11:16:39+02:00</time>
      </trkpt>
      <trkpt lat="46.7457" lon="4.91424">
        <ele>194.60059</ele>
        <time>2026-05-14T11:16:40+02:00</time>
      </trkpt>
      <trkpt lat="46.74571" lon="4.91421">
        <ele>194.60059</ele>
        <time>2026-05-14T11:16:41+02:00</time>
      </trkpt>
      <trkpt lat="46.74576" lon="4.91412">
        <ele>194.7002</ele>
        <time>2026-05-14T11:16:42+02:00</time>
      </trkpt>
      <trkpt lat="46.74578" lon="4.91406">
        <ele>194.7002</ele>
        <time>2026-05-14T11:16:43+02:00</time>
      </trkpt>
      <trkpt lat="46.7458" lon="4.914">
        <ele>194.7002</ele>
        <time>2026-05-14T11:16:44+02:00</time>
      </trkpt>
      <trkpt lat="46.74583" lon="4.91395">
        <ele>194.7998</ele>
        <time>2026-05-14T11:16:45+02:00</time>
      </trkpt>
      <trkpt lat="46.74585" lon="4.91391">
        <ele>194.7998</ele>
        <time>2026-05-14T11:16:46+02:00</time>
      </trkpt>
      <trkpt lat="46.74587" lon="4.91388">
        <ele>194.7998</ele>
        <time>2026-05-14T11:16:47+02:00</time>
      </trkpt>
      <trkpt lat="46.74589" lon="4.91384">
        <ele>194.7998</ele>
        <time>2026-05-14T11:16:48+02:00</time>
      </trkpt>
      <trkpt lat="46.7459" lon="4.91379">
        <ele>194.7002</ele>
        <time>2026-05-14T11:16:49+02:00</time>
      </trkpt>
      <trkpt lat="46.74592" lon="4.91374">
        <ele>194.7002</ele>
        <time>2026-05-14T11:16:50+02:00</time>
      </trkpt>
      <trkpt lat="46.74594" lon="4.91369">
        <ele>194.7002</ele>
        <time>2026-05-14T11:16:51+02:00</time>
      </trkpt>
      <trkpt lat="46.74596" lon="4.91363">
        <ele>194.7002</ele>
        <time>2026-05-14T11:16:52+02:00</time>
      </trkpt>
      <trkpt lat="46.74598" lon="4.91358">
        <ele>194.7002</ele>
        <time>2026-05-14T11:16:53+02:00</time>
      </trkpt>
      <trkpt lat="46.74601" lon="4.91352">
        <ele>194.7002</ele>
        <time>2026-05-14T11:16:54+02:00</time>
      </trkpt>
      <trkpt lat="46.74603" lon="4.91346">
        <ele>194.7002</ele>
        <time>2026-05-14T11:16:55+02:00</time>
      </trkpt>
      <trkpt lat="46.74605" lon="4.9134">
        <ele>194.60059</ele>
        <time>2026-05-14T11:16:56+02:00</time>
      </trkpt>
      <trkpt lat="46.74608" lon="4.91333">
        <ele>194.7002</ele>
        <time>2026-05-14T11:16:57+02:00</time>
      </trkpt>
      <trkpt lat="46.74611" lon="4.91327">
        <ele>194.60059</ele>
        <time>2026-05-14T11:16:58+02:00</time>
      </trkpt>
      <trkpt lat="46.74612" lon="4.91324">
        <ele>194.60059</ele>
        <time>2026-05-14T11:16:59+02:00</time>
      </trkpt>
      <trkpt lat="46.74617" lon="4.91314">
        <ele>194.60059</ele>
        <time>2026-05-14T11:17:00+02:00</time>
      </trkpt>
      <trkpt lat="46.7462" lon="4.91307">
        <ele>194.7002</ele>
        <time>2026-05-14T11:17:01+02:00</time>
      </trkpt>
      <trkpt lat="46.74622" lon="4.913">
        <ele>194.7002</ele>
        <time>2026-05-14T11:17:02+02:00</time>
      </trkpt>
      <trkpt lat="46.74626" lon="4.91293">
        <ele>194.7998</ele>
        <time>2026-05-14T11:17:03+02:00</time>
      </trkpt>
      <trkpt lat="46.74628" lon="4.91286">
        <ele>194.7998</ele>
        <time>2026-05-14T11:17:04+02:00</time>
      </trkpt>
      <trkpt lat="46.74631" lon="4.91279">
        <ele>194.7998</ele>
        <time>2026-05-14T11:17:05+02:00</time>
      </trkpt>
      <trkpt lat="46.74632" lon="4.91275">
        <ele>194.90039</ele>
        <time>2026-05-14T11:17:06+02:00</time>
      </trkpt>
      <trkpt lat="46.74637" lon="4.91264">
        <ele>194.90039</ele>
        <time>2026-05-14T11:17:07+02:00</time>
      </trkpt>
      <trkpt lat="46.7464" lon="4.91257">
        <ele>194.90039</ele>
        <time>2026-05-14T11:17:08+02:00</time>
      </trkpt>
      <trkpt lat="46.74642" lon="4.9125">
        <ele>194.90039</ele>
        <time>2026-05-14T11:17:09+02:00</time>
      </trkpt>
      <trkpt lat="46.74645" lon="4.91242">
        <ele>194.7998</ele>
        <time>2026-05-14T11:17:10+02:00</time>
      </trkpt>
      <trkpt lat="46.74648" lon="4.91236">
        <ele>194.7998</ele>
        <time>2026-05-14T11:17:11+02:00</time>
      </trkpt>
      <trkpt lat="46.74651" lon="4.9123">
        <ele>194.7002</ele>
        <time>2026-05-14T11:17:12+02:00</time>
      </trkpt>
      <trkpt lat="46.74654" lon="4.91224">
        <ele>194.60059</ele>
        <time>2026-05-14T11:17:13+02:00</time>
      </trkpt>
      <trkpt lat="46.74656" lon="4.91218">
        <ele>194.60059</ele>
        <time>2026-05-14T11:17:14+02:00</time>
      </trkpt>
      <trkpt lat="46.74659" lon="4.91212">
        <ele>194.40039</ele>
        <time>2026-05-14T11:17:15+02:00</time>
      </trkpt>
      <trkpt lat="46.74662" lon="4.91206">
        <ele>194.40039</ele>
        <time>2026-05-14T11:17:16+02:00</time>
      </trkpt>
      <trkpt lat="46.74664" lon="4.91201">
        <ele>194.2998</ele>
        <time>2026-05-14T11:17:17+02:00</time>
      </trkpt>
      <trkpt lat="46.74667" lon="4.91195">
        <ele>194.2002</ele>
        <time>2026-05-14T11:17:18+02:00</time>
      </trkpt>
      <trkpt lat="46.74669" lon="4.91189">
        <ele>194.10059</ele>
        <time>2026-05-14T11:17:19+02:00</time>
      </trkpt>
      <trkpt lat="46.74672" lon="4.91182">
        <ele>194</ele>
        <time>2026-05-14T11:17:20+02:00</time>
      </trkpt>
      <trkpt lat="46.74674" lon="4.91175">
        <ele>194</ele>
        <time>2026-05-14T11:17:21+02:00</time>
      </trkpt>
      <trkpt lat="46.74676" lon="4.91169">
        <ele>193.90039</ele>
        <time>2026-05-14T11:17:22+02:00</time>
      </trkpt>
      <trkpt lat="46.7468" lon="4.91162">
        <ele>193.90039</ele>
        <time>2026-05-14T11:17:23+02:00</time>
      </trkpt>
      <trkpt lat="46.74682" lon="4.91158">
        <ele>193.90039</ele>
        <time>2026-05-14T11:17:24+02:00</time>
      </trkpt>
      <trkpt lat="46.74686" lon="4.91148">
        <ele>193.7002</ele>
        <time>2026-05-14T11:17:25+02:00</time>
      </trkpt>
      <trkpt lat="46.74689" lon="4.9114">
        <ele>193.7002</ele>
        <time>2026-05-14T11:17:26+02:00</time>
      </trkpt>
      <trkpt lat="46.74692" lon="4.91133">
        <ele>193.7002</ele>
        <time>2026-05-14T11:17:27+02:00</time>
      </trkpt>
      <trkpt lat="46.74695" lon="4.91126">
        <ele>193.60059</ele>
        <time>2026-05-14T11:17:28+02:00</time>
      </trkpt>
      <trkpt lat="46.74698" lon="4.91118">
        <ele>193.60059</ele>
        <time>2026-05-14T11:17:29+02:00</time>
      </trkpt>
      <trkpt lat="46.74701" lon="4.91111">
        <ele>193.60059</ele>
        <time>2026-05-14T11:17:30+02:00</time>
      </trkpt>
      <trkpt lat="46.74704" lon="4.91103">
        <ele>193.60059</ele>
        <time>2026-05-14T11:17:31+02:00</time>
      </trkpt>
      <trkpt lat="46.74707" lon="4.91096">
        <ele>193.5</ele>
        <time>2026-05-14T11:17:32+02:00</time>
      </trkpt>
      <trkpt lat="46.74709" lon="4.91089">
        <ele>193.5</ele>
        <time>2026-05-14T11:17:33+02:00</time>
      </trkpt>
      <trkpt lat="46.74713" lon="4.91082">
        <ele>193.5</ele>
        <time>2026-05-14T11:17:34+02:00</time>
      </trkpt>
      <trkpt lat="46.74716" lon="4.91074">
        <ele>193.5</ele>
        <time>2026-05-14T11:17:35+02:00</time>
      </trkpt>
      <trkpt lat="46.74718" lon="4.91067">
        <ele>193.40039</ele>
        <time>2026-05-14T11:17:36+02:00</time>
      </trkpt>
      <trkpt lat="46.74721" lon="4.9106">
        <ele>193.2998</ele>
        <time>2026-05-14T11:17:37+02:00</time>
      </trkpt>
      <trkpt lat="46.74724" lon="4.91053">
        <ele>193.2002</ele>
        <time>2026-05-14T11:17:38+02:00</time>
      </trkpt>
      <trkpt lat="46.74727" lon="4.91046">
        <ele>193.2002</ele>
        <time>2026-05-14T11:17:39+02:00</time>
      </trkpt>
      <trkpt lat="46.7473" lon="4.91038">
        <ele>193.10059</ele>
        <time>2026-05-14T11:17:40+02:00</time>
      </trkpt>
      <trkpt lat="46.74733" lon="4.91031">
        <ele>193</ele>
        <time>2026-05-14T11:17:41+02:00</time>
      </trkpt>
      <trkpt lat="46.74736" lon="4.91024">
        <ele>192.7998</ele>
        <time>2026-05-14T11:17:42+02:00</time>
      </trkpt>
      <trkpt lat="46.74739" lon="4.91016">
        <ele>192.7002</ele>
        <time>2026-05-14T11:17:43+02:00</time>
      </trkpt>
      <trkpt lat="46.74742" lon="4.91009">
        <ele>192.60059</ele>
        <time>2026-05-14T11:17:44+02:00</time>
      </trkpt>
      <trkpt lat="46.74746" lon="4.91001">
        <ele>192.5</ele>
        <time>2026-05-14T11:17:45+02:00</time>
      </trkpt>
      <trkpt lat="46.74749" lon="4.90994">
        <ele>192.40039</ele>
        <time>2026-05-14T11:17:46+02:00</time>
      </trkpt>
      <trkpt lat="46.74752" lon="4.90986">
        <ele>192.5</ele>
        <time>2026-05-14T11:17:47+02:00</time>
      </trkpt>
      <trkpt lat="46.74755" lon="4.90978">
        <ele>192.40039</ele>
        <time>2026-05-14T11:17:48+02:00</time>
      </trkpt>
      <trkpt lat="46.74758" lon="4.90971">
        <ele>192.5</ele>
        <time>2026-05-14T11:17:49+02:00</time>
      </trkpt>
      <trkpt lat="46.74762" lon="4.90963">
        <ele>192.40039</ele>
        <time>2026-05-14T11:17:50+02:00</time>
      </trkpt>
      <trkpt lat="46.74765" lon="4.90955">
        <ele>192.40039</ele>
        <time>2026-05-14T11:17:51+02:00</time>
      </trkpt>
      <trkpt lat="46.74768" lon="4.90947">
        <ele>192.40039</ele>
        <time>2026-05-14T11:17:52+02:00</time>
      </trkpt>
      <trkpt lat="46.74772" lon="4.90939">
        <ele>192.40039</ele>
        <time>2026-05-14T11:17:53+02:00</time>
      </trkpt>
      <trkpt lat="46.74775" lon="4.90932">
        <ele>192.5</ele>
        <time>2026-05-14T11:17:54+02:00</time>
      </trkpt>
      <trkpt lat="46.74778" lon="4.90923">
        <ele>192.40039</ele>
        <time>2026-05-14T11:17:55+02:00</time>
      </trkpt>
      <trkpt lat="46.74781" lon="4.90916">
        <ele>192.40039</ele>
        <time>2026-05-14T11:17:56+02:00</time>
      </trkpt>
      <trkpt lat="46.74785" lon="4.90908">
        <ele>192.2998</ele>
        <time>2026-05-14T11:17:57+02:00</time>
      </trkpt>
      <trkpt lat="46.74788" lon="4.909">
        <ele>192.2002</ele>
        <time>2026-05-14T11:17:58+02:00</time>
      </trkpt>
      <trkpt lat="46.74791" lon="4.90892">
        <ele>192.2002</ele>
        <time>2026-05-14T11:17:59+02:00</time>
      </trkpt>
      <trkpt lat="46.74794" lon="4.90885">
        <ele>192.10059</ele>
        <time>2026-05-14T11:18:00+02:00</time>
      </trkpt>
      <trkpt lat="46.74798" lon="4.90877">
        <ele>192</ele>
        <time>2026-05-14T11:18:01+02:00</time>
      </trkpt>
      <trkpt lat="46.74801" lon="4.90869">
        <ele>191.90039</ele>
        <time>2026-05-14T11:18:02+02:00</time>
      </trkpt>
      <trkpt lat="46.74804" lon="4.90861">
        <ele>191.7002</ele>
        <time>2026-05-14T11:18:03+02:00</time>
      </trkpt>
      <trkpt lat="46.74807" lon="4.90853">
        <ele>191.60059</ele>
        <time>2026-05-14T11:18:04+02:00</time>
      </trkpt>
      <trkpt lat="46.7481" lon="4.90845">
        <ele>191.40039</ele>
        <time>2026-05-14T11:18:05+02:00</time>
      </trkpt>
      <trkpt lat="46.74814" lon="4.90838">
        <ele>191.2998</ele>
        <time>2026-05-14T11:18:06+02:00</time>
      </trkpt>
      <trkpt lat="46.74817" lon="4.9083">
        <ele>191.10059</ele>
        <time>2026-05-14T11:18:07+02:00</time>
      </trkpt>
      <trkpt lat="46.7482" lon="4.90822">
        <ele>191</ele>
        <time>2026-05-14T11:18:08+02:00</time>
      </trkpt>
      <trkpt lat="46.74823" lon="4.90814">
        <ele>190.90039</ele>
        <time>2026-05-14T11:18:09+02:00</time>
      </trkpt>
      <trkpt lat="46.74827" lon="4.90806">
        <ele>190.90039</ele>
        <time>2026-05-14T11:18:10+02:00</time>
      </trkpt>
      <trkpt lat="46.7483" lon="4.90798">
        <ele>190.7002</ele>
        <time>2026-05-14T11:18:11+02:00</time>
      </trkpt>
      <trkpt lat="46.74833" lon="4.9079">
        <ele>190.7002</ele>
        <time>2026-05-14T11:18:12+02:00</time>
      </trkpt>
      <trkpt lat="46.74836" lon="4.90782">
        <ele>190.60059</ele>
        <time>2026-05-14T11:18:13+02:00</time>
      </trkpt>
      <trkpt lat="46.7484" lon="4.90774">
        <ele>190.5</ele>
        <time>2026-05-14T11:18:14+02:00</time>
      </trkpt>
      <trkpt lat="46.74843" lon="4.90767">
        <ele>190.5</ele>
        <time>2026-05-14T11:18:15+02:00</time>
      </trkpt>
      <trkpt lat="46.74846" lon="4.90759">
        <ele>190.40039</ele>
        <time>2026-05-14T11:18:16+02:00</time>
      </trkpt>
      <trkpt lat="46.74849" lon="4.90751">
        <ele>190.2998</ele>
        <time>2026-05-14T11:18:17+02:00</time>
      </trkpt>
      <trkpt lat="46.74853" lon="4.90743">
        <ele>190.2002</ele>
        <time>2026-05-14T11:18:18+02:00</time>
      </trkpt>
      <trkpt lat="46.74856" lon="4.90735">
        <ele>190.10059</ele>
        <time>2026-05-14T11:18:19+02:00</time>
      </trkpt>
      <trkpt lat="46.74859" lon="4.90728">
        <ele>189.90039</ele>
        <time>2026-05-14T11:18:20+02:00</time>
      </trkpt>
      <trkpt lat="46.74862" lon="4.9072">
        <ele>189.90039</ele>
        <time>2026-05-14T11:18:21+02:00</time>
      </trkpt>
      <trkpt lat="46.74865" lon="4.90712">
        <ele>189.7002</ele>
        <time>2026-05-14T11:18:22+02:00</time>
      </trkpt>
      <trkpt lat="46.74869" lon="4.90704">
        <ele>189.5</ele>
        <time>2026-05-14T11:18:23+02:00</time>
      </trkpt>
      <trkpt lat="46.74872" lon="4.90697">
        <ele>189.2998</ele>
        <time>2026-05-14T11:18:24+02:00</time>
      </trkpt>
      <trkpt lat="46.74875" lon="4.9069">
        <ele>189.10059</ele>
        <time>2026-05-14T11:18:25+02:00</time>
      </trkpt>
      <trkpt lat="46.74878" lon="4.90682">
        <ele>189</ele>
        <time>2026-05-14T11:18:26+02:00</time>
      </trkpt>
      <trkpt lat="46.74881" lon="4.90675">
        <ele>188.7002</ele>
        <time>2026-05-14T11:18:27+02:00</time>
      </trkpt>
      <trkpt lat="46.74884" lon="4.90668">
        <ele>188.60059</ele>
        <time>2026-05-14T11:18:28+02:00</time>
      </trkpt>
      <trkpt lat="46.74887" lon="4.90662">
        <ele>188.5</ele>
        <time>2026-05-14T11:18:29+02:00</time>
      </trkpt>
      <trkpt lat="46.7489" lon="4.90654">
        <ele>188.40039</ele>
        <time>2026-05-14T11:18:30+02:00</time>
      </trkpt>
      <trkpt lat="46.74894" lon="4.90647">
        <ele>188.2002</ele>
        <time>2026-05-14T11:18:31+02:00</time>
      </trkpt>
      <trkpt lat="46.74897" lon="4.9064">
        <ele>188.10059</ele>
        <time>2026-05-14T11:18:32+02:00</time>
      </trkpt>
      <trkpt lat="46.74901" lon="4.90633">
        <ele>188</ele>
        <time>2026-05-14T11:18:33+02:00</time>
      </trkpt>
      <trkpt lat="46.74904" lon="4.90627">
        <ele>187.90039</ele>
        <time>2026-05-14T11:18:34+02:00</time>
      </trkpt>
      <trkpt lat="46.74907" lon="4.90621">
        <ele>187.90039</ele>
        <time>2026-05-14T11:18:35+02:00</time>
      </trkpt>
      <trkpt lat="46.74909" lon="4.90614">
        <ele>187.7998</ele>
        <time>2026-05-14T11:18:36+02:00</time>
      </trkpt>
      <trkpt lat="46.74912" lon="4.90608">
        <ele>187.7002</ele>
        <time>2026-05-14T11:18:37+02:00</time>
      </trkpt>
      <trkpt lat="46.74915" lon="4.90601">
        <ele>187.7002</ele>
        <time>2026-05-14T11:18:38+02:00</time>
      </trkpt>
      <trkpt lat="46.74918" lon="4.90594">
        <ele>187.60059</ele>
        <time>2026-05-14T11:18:39+02:00</time>
      </trkpt>
      <trkpt lat="46.74921" lon="4.90587">
        <ele>187.60059</ele>
        <time>2026-05-14T11:18:40+02:00</time>
      </trkpt>
      <trkpt lat="46.74925" lon="4.9058">
        <ele>187.5</ele>
        <time>2026-05-14T11:18:41+02:00</time>
      </trkpt>
      <trkpt lat="46.74928" lon="4.90573">
        <ele>187.2998</ele>
        <time>2026-05-14T11:18:42+02:00</time>
      </trkpt>
      <trkpt lat="46.74931" lon="4.90567">
        <ele>187.2998</ele>
        <time>2026-05-14T11:18:43+02:00</time>
      </trkpt>
      <trkpt lat="46.74935" lon="4.9056">
        <ele>187.2002</ele>
        <time>2026-05-14T11:18:44+02:00</time>
      </trkpt>
      <trkpt lat="46.74939" lon="4.90553">
        <ele>187</ele>
        <time>2026-05-14T11:18:45+02:00</time>
      </trkpt>
      <trkpt lat="46.74943" lon="4.90546">
        <ele>186.90039</ele>
        <time>2026-05-14T11:18:46+02:00</time>
      </trkpt>
      <trkpt lat="46.74947" lon="4.9054">
        <ele>186.7998</ele>
        <time>2026-05-14T11:18:47+02:00</time>
      </trkpt>
      <trkpt lat="46.74951" lon="4.90534">
        <ele>186.7002</ele>
        <time>2026-05-14T11:18:48+02:00</time>
      </trkpt>
      <trkpt lat="46.74955" lon="4.90528">
        <ele>186.60059</ele>
        <time>2026-05-14T11:18:49+02:00</time>
      </trkpt>
      <trkpt lat="46.74959" lon="4.90523">
        <ele>186.5</ele>
        <time>2026-05-14T11:18:50+02:00</time>
      </trkpt>
      <trkpt lat="46.74964" lon="4.90518">
        <ele>186.40039</ele>
        <time>2026-05-14T11:18:51+02:00</time>
      </trkpt>
      <trkpt lat="46.74967" lon="4.90512">
        <ele>186.40039</ele>
        <time>2026-05-14T11:18:52+02:00</time>
      </trkpt>
      <trkpt lat="46.74972" lon="4.90505">
        <ele>186.40039</ele>
        <time>2026-05-14T11:18:53+02:00</time>
      </trkpt>
      <trkpt lat="46.74976" lon="4.905">
        <ele>186.2998</ele>
        <time>2026-05-14T11:18:54+02:00</time>
      </trkpt>
      <trkpt lat="46.74981" lon="4.90495">
        <ele>186.2998</ele>
        <time>2026-05-14T11:18:55+02:00</time>
      </trkpt>
      <trkpt lat="46.74985" lon="4.9049">
        <ele>186.2998</ele>
        <time>2026-05-14T11:18:56+02:00</time>
      </trkpt>
      <trkpt lat="46.74988" lon="4.90484">
        <ele>186.40039</ele>
        <time>2026-05-14T11:18:57+02:00</time>
      </trkpt>
      <trkpt lat="46.74993" lon="4.90478">
        <ele>186.5</ele>
        <time>2026-05-14T11:18:58+02:00</time>
      </trkpt>
      <trkpt lat="46.74997" lon="4.90472">
        <ele>186.5</ele>
        <time>2026-05-14T11:18:59+02:00</time>
      </trkpt>
      <trkpt lat="46.75001" lon="4.90466">
        <ele>186.60059</ele>
        <time>2026-05-14T11:19:00+02:00</time>
      </trkpt>
      <trkpt lat="46.75005" lon="4.90461">
        <ele>186.7998</ele>
        <time>2026-05-14T11:19:01+02:00</time>
      </trkpt>
      <trkpt lat="46.75009" lon="4.90456">
        <ele>186.7998</ele>
        <time>2026-05-14T11:19:02+02:00</time>
      </trkpt>
      <trkpt lat="46.75013" lon="4.90451">
        <ele>186.90039</ele>
        <time>2026-05-14T11:19:03+02:00</time>
      </trkpt>
      <trkpt lat="46.75017" lon="4.90445">
        <ele>187</ele>
        <time>2026-05-14T11:19:04+02:00</time>
      </trkpt>
      <trkpt lat="46.75021" lon="4.9044">
        <ele>187</ele>
        <time>2026-05-14T11:19:05+02:00</time>
      </trkpt>
      <trkpt lat="46.75025" lon="4.90435">
        <ele>187</ele>
        <time>2026-05-14T11:19:06+02:00</time>
      </trkpt>
      <trkpt lat="46.75028" lon="4.90431">
        <ele>186.90039</ele>
        <time>2026-05-14T11:19:07+02:00</time>
      </trkpt>
      <trkpt lat="46.75032" lon="4.90427">
        <ele>186.90039</ele>
        <time>2026-05-14T11:19:08+02:00</time>
      </trkpt>
      <trkpt lat="46.75036" lon="4.90422">
        <ele>186.7998</ele>
        <time>2026-05-14T11:19:09+02:00</time>
      </trkpt>
      <trkpt lat="46.7504" lon="4.90417">
        <ele>186.7002</ele>
        <time>2026-05-14T11:19:10+02:00</time>
      </trkpt>
      <trkpt lat="46.75044" lon="4.90413">
        <ele>186.7002</ele>
        <time>2026-05-14T11:19:11+02:00</time>
      </trkpt>
      <trkpt lat="46.75048" lon="4.90408">
        <ele>186.60059</ele>
        <time>2026-05-14T11:19:12+02:00</time>
      </trkpt>
      <trkpt lat="46.7505" lon="4.90406">
        <ele>186.60059</ele>
        <time>2026-05-14T11:19:13+02:00</time>
      </trkpt>
      <trkpt lat="46.75056" lon="4.90399">
        <ele>186.40039</ele>
        <time>2026-05-14T11:19:14+02:00</time>
      </trkpt>
      <trkpt lat="46.7506" lon="4.90395">
        <ele>186.2002</ele>
        <time>2026-05-14T11:19:15+02:00</time>
      </trkpt>
      <trkpt lat="46.75064" lon="4.90392">
        <ele>186</ele>
        <time>2026-05-14T11:19:16+02:00</time>
      </trkpt>
      <trkpt lat="46.75068" lon="4.9039">
        <ele>186</ele>
        <time>2026-05-14T11:19:17+02:00</time>
      </trkpt>
      <trkpt lat="46.75073" lon="4.90387">
        <ele>185.90039</ele>
        <time>2026-05-14T11:19:18+02:00</time>
      </trkpt>
      <trkpt lat="46.75077" lon="4.90386">
        <ele>185.7998</ele>
        <time>2026-05-14T11:19:19+02:00</time>
      </trkpt>
      <trkpt lat="46.75081" lon="4.90385">
        <ele>185.60059</ele>
        <time>2026-05-14T11:19:20+02:00</time>
      </trkpt>
      <trkpt lat="46.75084" lon="4.90384">
        <ele>185.60059</ele>
        <time>2026-05-14T11:19:21+02:00</time>
      </trkpt>
      <trkpt lat="46.75087" lon="4.90382">
        <ele>185.5</ele>
        <time>2026-05-14T11:19:22+02:00</time>
      </trkpt>
      <trkpt lat="46.7509" lon="4.90379">
        <ele>185.5</ele>
        <time>2026-05-14T11:19:23+02:00</time>
      </trkpt>
      <trkpt lat="46.75092" lon="4.90376">
        <ele>185.2998</ele>
        <time>2026-05-14T11:19:24+02:00</time>
      </trkpt>
      <trkpt lat="46.75095" lon="4.90373">
        <ele>185.2998</ele>
        <time>2026-05-14T11:19:25+02:00</time>
      </trkpt>
      <trkpt lat="46.75097" lon="4.9037">
        <ele>185.2998</ele>
        <time>2026-05-14T11:19:26+02:00</time>
      </trkpt>
      <trkpt lat="46.751" lon="4.90368">
        <ele>185.2998</ele>
        <time>2026-05-14T11:19:27+02:00</time>
      </trkpt>
      <trkpt lat="46.75104" lon="4.90364">
        <ele>185.2002</ele>
        <time>2026-05-14T11:19:28+02:00</time>
      </trkpt>
      <trkpt lat="46.75107" lon="4.90361">
        <ele>185.2002</ele>
        <time>2026-05-14T11:19:29+02:00</time>
      </trkpt>
      <trkpt lat="46.75111" lon="4.90358">
        <ele>185.10059</ele>
        <time>2026-05-14T11:19:30+02:00</time>
      </trkpt>
      <trkpt lat="46.75115" lon="4.90354">
        <ele>185.10059</ele>
        <time>2026-05-14T11:19:31+02:00</time>
      </trkpt>
      <trkpt lat="46.75119" lon="4.9035">
        <ele>185</ele>
        <time>2026-05-14T11:19:32+02:00</time>
      </trkpt>
      <trkpt lat="46.75124" lon="4.90346">
        <ele>185</ele>
        <time>2026-05-14T11:19:33+02:00</time>
      </trkpt>
      <trkpt lat="46.75128" lon="4.90342">
        <ele>185</ele>
        <time>2026-05-14T11:19:34+02:00</time>
      </trkpt>
      <trkpt lat="46.75133" lon="4.90338">
        <ele>185</ele>
        <time>2026-05-14T11:19:35+02:00</time>
      </trkpt>
      <trkpt lat="46.75137" lon="4.90334">
        <ele>185</ele>
        <time>2026-05-14T11:19:36+02:00</time>
      </trkpt>
      <trkpt lat="46.75142" lon="4.9033">
        <ele>184.90039</ele>
        <time>2026-05-14T11:19:37+02:00</time>
      </trkpt>
      <trkpt lat="46.75146" lon="4.90326">
        <ele>184.90039</ele>
        <time>2026-05-14T11:19:38+02:00</time>
      </trkpt>
      <trkpt lat="46.7515" lon="4.90322">
        <ele>184.90039</ele>
        <time>2026-05-14T11:19:39+02:00</time>
      </trkpt>
      <trkpt lat="46.75155" lon="4.90318">
        <ele>184.90039</ele>
        <time>2026-05-14T11:19:40+02:00</time>
      </trkpt>
      <trkpt lat="46.75159" lon="4.90314">
        <ele>184.7998</ele>
        <time>2026-05-14T11:19:41+02:00</time>
      </trkpt>
      <trkpt lat="46.75163" lon="4.90311">
        <ele>184.7002</ele>
        <time>2026-05-14T11:19:42+02:00</time>
      </trkpt>
      <trkpt lat="46.75168" lon="4.90309">
        <ele>184.7002</ele>
        <time>2026-05-14T11:19:43+02:00</time>
      </trkpt>
      <trkpt lat="46.75172" lon="4.90308">
        <ele>184.7002</ele>
        <time>2026-05-14T11:19:44+02:00</time>
      </trkpt>
      <trkpt lat="46.75177" lon="4.90308">
        <ele>184.60059</ele>
        <time>2026-05-14T11:19:45+02:00</time>
      </trkpt>
      <trkpt lat="46.75182" lon="4.90307">
        <ele>184.5</ele>
        <time>2026-05-14T11:19:46+02:00</time>
      </trkpt>
      <trkpt lat="46.75187" lon="4.90305">
        <ele>184.40039</ele>
        <time>2026-05-14T11:19:47+02:00</time>
      </trkpt>
      <trkpt lat="46.75192" lon="4.90303">
        <ele>184.2002</ele>
        <time>2026-05-14T11:19:48+02:00</time>
      </trkpt>
      <trkpt lat="46.75197" lon="4.903">
        <ele>184.2002</ele>
        <time>2026-05-14T11:19:49+02:00</time>
      </trkpt>
      <trkpt lat="46.75202" lon="4.90298">
        <ele>184.2002</ele>
        <time>2026-05-14T11:19:50+02:00</time>
      </trkpt>
      <trkpt lat="46.75208" lon="4.90295">
        <ele>184</ele>
        <time>2026-05-14T11:19:51+02:00</time>
      </trkpt>
      <trkpt lat="46.75213" lon="4.90293">
        <ele>183.90039</ele>
        <time>2026-05-14T11:19:52+02:00</time>
      </trkpt>
      <trkpt lat="46.75218" lon="4.9029">
        <ele>183.90039</ele>
        <time>2026-05-14T11:19:53+02:00</time>
      </trkpt>
      <trkpt lat="46.75223" lon="4.90287">
        <ele>183.7998</ele>
        <time>2026-05-14T11:19:54+02:00</time>
      </trkpt>
      <trkpt lat="46.75229" lon="4.90284">
        <ele>183.7998</ele>
        <time>2026-05-14T11:19:55+02:00</time>
      </trkpt>
      <trkpt lat="46.75234" lon="4.90281">
        <ele>183.7998</ele>
        <time>2026-05-14T11:19:56+02:00</time>
      </trkpt>
      <trkpt lat="46.75239" lon="4.90278">
        <ele>183.7998</ele>
        <time>2026-05-14T11:19:57+02:00</time>
      </trkpt>
      <trkpt lat="46.75244" lon="4.90276">
        <ele>183.7998</ele>
        <time>2026-05-14T11:19:58+02:00</time>
      </trkpt>
      <trkpt lat="46.75249" lon="4.90273">
        <ele>183.7998</ele>
        <time>2026-05-14T11:19:59+02:00</time>
      </trkpt>
      <trkpt lat="46.75255" lon="4.90271">
        <ele>183.7998</ele>
        <time>2026-05-14T11:20:00+02:00</time>
      </trkpt>
      <trkpt lat="46.7526" lon="4.90268">
        <ele>183.90039</ele>
        <time>2026-05-14T11:20:01+02:00</time>
      </trkpt>
      <trkpt lat="46.75264" lon="4.90266">
        <ele>183.90039</ele>
        <time>2026-05-14T11:20:02+02:00</time>
      </trkpt>
      <trkpt lat="46.75269" lon="4.90262">
        <ele>184</ele>
        <time>2026-05-14T11:20:03+02:00</time>
      </trkpt>
      <trkpt lat="46.75274" lon="4.90258">
        <ele>184</ele>
        <time>2026-05-14T11:20:04+02:00</time>
      </trkpt>
      <trkpt lat="46.75278" lon="4.90254">
        <ele>184.2002</ele>
        <time>2026-05-14T11:20:05+02:00</time>
      </trkpt>
      <trkpt lat="46.75283" lon="4.9025">
        <ele>184.2998</ele>
        <time>2026-05-14T11:20:06+02:00</time>
      </trkpt>
      <trkpt lat="46.75287" lon="4.90245">
        <ele>184.40039</ele>
        <time>2026-05-14T11:20:07+02:00</time>
      </trkpt>
      <trkpt lat="46.75293" lon="4.90242">
        <ele>184.5</ele>
        <time>2026-05-14T11:20:08+02:00</time>
      </trkpt>
      <trkpt lat="46.75298" lon="4.90238">
        <ele>184.60059</ele>
        <time>2026-05-14T11:20:09+02:00</time>
      </trkpt>
      <trkpt lat="46.75304" lon="4.90235">
        <ele>184.60059</ele>
        <time>2026-05-14T11:20:10+02:00</time>
      </trkpt>
      <trkpt lat="46.7531" lon="4.90233">
        <ele>184.7002</ele>
        <time>2026-05-14T11:20:11+02:00</time>
      </trkpt>
      <trkpt lat="46.75315" lon="4.9023">
        <ele>184.7002</ele>
        <time>2026-05-14T11:20:12+02:00</time>
      </trkpt>
      <trkpt lat="46.75321" lon="4.90228">
        <ele>184.7998</ele>
        <time>2026-05-14T11:20:13+02:00</time>
      </trkpt>
      <trkpt lat="46.75327" lon="4.90225">
        <ele>184.7998</ele>
        <time>2026-05-14T11:20:14+02:00</time>
      </trkpt>
      <trkpt lat="46.75332" lon="4.90223">
        <ele>184.90039</ele>
        <time>2026-05-14T11:20:15+02:00</time>
      </trkpt>
      <trkpt lat="46.75338" lon="4.9022">
        <ele>184.90039</ele>
        <time>2026-05-14T11:20:16+02:00</time>
      </trkpt>
      <trkpt lat="46.75343" lon="4.90217">
        <ele>184.90039</ele>
        <time>2026-05-14T11:20:17+02:00</time>
      </trkpt>
      <trkpt lat="46.75348" lon="4.90214">
        <ele>185</ele>
        <time>2026-05-14T11:20:18+02:00</time>
      </trkpt>
      <trkpt lat="46.75354" lon="4.90212">
        <ele>184.90039</ele>
        <time>2026-05-14T11:20:19+02:00</time>
      </trkpt>
      <trkpt lat="46.75359" lon="4.90209">
        <ele>185</ele>
        <time>2026-05-14T11:20:20+02:00</time>
      </trkpt>
      <trkpt lat="46.75364" lon="4.90207">
        <ele>185</ele>
        <time>2026-05-14T11:20:21+02:00</time>
      </trkpt>
      <trkpt lat="46.75369" lon="4.90204">
        <ele>184.90039</ele>
        <time>2026-05-14T11:20:22+02:00</time>
      </trkpt>
      <trkpt lat="46.75375" lon="4.90202">
        <ele>184.90039</ele>
        <time>2026-05-14T11:20:23+02:00</time>
      </trkpt>
      <trkpt lat="46.7538" lon="4.90199">
        <ele>184.90039</ele>
        <time>2026-05-14T11:20:24+02:00</time>
      </trkpt>
      <trkpt lat="46.75385" lon="4.90196">
        <ele>184.7002</ele>
        <time>2026-05-14T11:20:25+02:00</time>
      </trkpt>
      <trkpt lat="46.7539" lon="4.90194">
        <ele>184.7002</ele>
        <time>2026-05-14T11:20:26+02:00</time>
      </trkpt>
      <trkpt lat="46.75395" lon="4.90191">
        <ele>184.7002</ele>
        <time>2026-05-14T11:20:27+02:00</time>
      </trkpt>
      <trkpt lat="46.75401" lon="4.90189">
        <ele>184.7002</ele>
        <time>2026-05-14T11:20:28+02:00</time>
      </trkpt>
      <trkpt lat="46.75406" lon="4.90186">
        <ele>184.5</ele>
        <time>2026-05-14T11:20:29+02:00</time>
      </trkpt>
      <trkpt lat="46.75411" lon="4.90184">
        <ele>184.5</ele>
        <time>2026-05-14T11:20:30+02:00</time>
      </trkpt>
      <trkpt lat="46.75416" lon="4.90181">
        <ele>184.40039</ele>
        <time>2026-05-14T11:20:31+02:00</time>
      </trkpt>
      <trkpt lat="46.75422" lon="4.90178">
        <ele>184.2998</ele>
        <time>2026-05-14T11:20:32+02:00</time>
      </trkpt>
      <trkpt lat="46.75427" lon="4.90176">
        <ele>184.2998</ele>
        <time>2026-05-14T11:20:33+02:00</time>
      </trkpt>
      <trkpt lat="46.75432" lon="4.90173">
        <ele>184.2998</ele>
        <time>2026-05-14T11:20:34+02:00</time>
      </trkpt>
      <trkpt lat="46.75438" lon="4.9017">
        <ele>184.10059</ele>
        <time>2026-05-14T11:20:35+02:00</time>
      </trkpt>
      <trkpt lat="46.75443" lon="4.90167">
        <ele>184.10059</ele>
        <time>2026-05-14T11:20:36+02:00</time>
      </trkpt>
      <trkpt lat="46.75448" lon="4.90164">
        <ele>184.10059</ele>
        <time>2026-05-14T11:20:37+02:00</time>
      </trkpt>
      <trkpt lat="46.75453" lon="4.90161">
        <ele>183.90039</ele>
        <time>2026-05-14T11:20:38+02:00</time>
      </trkpt>
      <trkpt lat="46.75459" lon="4.90159">
        <ele>183.90039</ele>
        <time>2026-05-14T11:20:39+02:00</time>
      </trkpt>
      <trkpt lat="46.75464" lon="4.90156">
        <ele>183.90039</ele>
        <time>2026-05-14T11:20:40+02:00</time>
      </trkpt>
      <trkpt lat="46.7547" lon="4.90153">
        <ele>183.7002</ele>
        <time>2026-05-14T11:20:41+02:00</time>
      </trkpt>
      <trkpt lat="46.75474" lon="4.90151">
        <ele>183.60059</ele>
        <time>2026-05-14T11:20:42+02:00</time>
      </trkpt>
      <trkpt lat="46.75478" lon="4.90149">
        <ele>183.60059</ele>
        <time>2026-05-14T11:20:43+02:00</time>
      </trkpt>
      <trkpt lat="46.75482" lon="4.90148">
        <ele>183.60059</ele>
        <time>2026-05-14T11:20:44+02:00</time>
      </trkpt>
      <trkpt lat="46.75483" lon="4.90146">
        <ele>183.60059</ele>
        <time>2026-05-14T11:20:45+02:00</time>
      </trkpt>
      <trkpt lat="46.75483" lon="4.90142">
        <ele>183.40039</ele>
        <time>2026-05-14T11:20:46+02:00</time>
      </trkpt>
      <trkpt lat="46.75483" lon="4.90138">
        <ele>183.40039</ele>
        <time>2026-05-14T11:20:47+02:00</time>
      </trkpt>
      <trkpt lat="46.75482" lon="4.90134">
        <ele>183.2002</ele>
        <time>2026-05-14T11:20:48+02:00</time>
      </trkpt>
      <trkpt lat="46.75482" lon="4.90129">
        <ele>183.2002</ele>
        <time>2026-05-14T11:20:49+02:00</time>
      </trkpt>
      <trkpt lat="46.75481" lon="4.90125">
        <ele>182.90039</ele>
        <time>2026-05-14T11:20:50+02:00</time>
      </trkpt>
      <trkpt lat="46.75482" lon="4.9012">
        <ele>182.90039</ele>
        <time>2026-05-14T11:20:51+02:00</time>
      </trkpt>
      <trkpt lat="46.75483" lon="4.90116">
        <ele>182.60059</ele>
        <time>2026-05-14T11:20:52+02:00</time>
      </trkpt>
      <trkpt lat="46.75486" lon="4.90114">
        <ele>182.60059</ele>
        <time>2026-05-14T11:20:53+02:00</time>
      </trkpt>
      <trkpt lat="46.75489" lon="4.90113">
        <ele>182.60059</ele>
        <time>2026-05-14T11:20:54+02:00</time>
      </trkpt>
      <trkpt lat="46.75493" lon="4.90113">
        <ele>182.5</ele>
        <time>2026-05-14T11:20:55+02:00</time>
      </trkpt>
      <trkpt lat="46.75495" lon="4.90114">
        <ele>182.5</ele>
        <time>2026-05-14T11:20:56+02:00</time>
      </trkpt>
      <trkpt lat="46.75499" lon="4.90118">
        <ele>182.5</ele>
        <time>2026-05-14T11:20:57+02:00</time>
      </trkpt>
      <trkpt lat="46.75503" lon="4.90121">
        <ele>182.7998</ele>
        <time>2026-05-14T11:20:58+02:00</time>
      </trkpt>
      <trkpt lat="46.75507" lon="4.90123">
        <ele>182.7002</ele>
        <time>2026-05-14T11:20:59+02:00</time>
      </trkpt>
      <trkpt lat="46.75511" lon="4.90123">
        <ele>182.7002</ele>
        <time>2026-05-14T11:21:00+02:00</time>
      </trkpt>
      <trkpt lat="46.75515" lon="4.90123">
        <ele>182.7002</ele>
        <time>2026-05-14T11:21:01+02:00</time>
      </trkpt>
      <trkpt lat="46.7552" lon="4.90122">
        <ele>182.60059</ele>
        <time>2026-05-14T11:21:02+02:00</time>
      </trkpt>
      <trkpt lat="46.75525" lon="4.9012">
        <ele>182.60059</ele>
        <time>2026-05-14T11:21:03+02:00</time>
      </trkpt>
      <trkpt lat="46.7553" lon="4.90118">
        <ele>182.2998</ele>
        <time>2026-05-14T11:21:04+02:00</time>
      </trkpt>
      <trkpt lat="46.75535" lon="4.90117">
        <ele>182.2998</ele>
        <time>2026-05-14T11:21:05+02:00</time>
      </trkpt>
      <trkpt lat="46.7554" lon="4.90116">
        <ele>182.2998</ele>
        <time>2026-05-14T11:21:06+02:00</time>
      </trkpt>
      <trkpt lat="46.75544" lon="4.90114">
        <ele>182.2998</ele>
        <time>2026-05-14T11:21:07+02:00</time>
      </trkpt>
      <trkpt lat="46.7555" lon="4.90113">
        <ele>182.2998</ele>
        <time>2026-05-14T11:21:08+02:00</time>
      </trkpt>
      <trkpt lat="46.75555" lon="4.90111">
        <ele>182.2998</ele>
        <time>2026-05-14T11:21:09+02:00</time>
      </trkpt>
      <trkpt lat="46.75561" lon="4.9011">
        <ele>182.10059</ele>
        <time>2026-05-14T11:21:10+02:00</time>
      </trkpt>
      <trkpt lat="46.75563" lon="4.90109">
        <ele>182.10059</ele>
        <time>2026-05-14T11:21:11+02:00</time>
      </trkpt>
      <trkpt lat="46.75571" lon="4.90106">
        <ele>182.10059</ele>
        <time>2026-05-14T11:21:12+02:00</time>
      </trkpt>
      <trkpt lat="46.75577" lon="4.90104">
        <ele>182.10059</ele>
        <time>2026-05-14T11:21:13+02:00</time>
      </trkpt>
      <trkpt lat="46.75582" lon="4.90103">
        <ele>182.10059</ele>
        <time>2026-05-14T11:21:14+02:00</time>
      </trkpt>
      <trkpt lat="46.75588" lon="4.90101">
        <ele>182</ele>
        <time>2026-05-14T11:21:15+02:00</time>
      </trkpt>
      <trkpt lat="46.75593" lon="4.90099">
        <ele>182</ele>
        <time>2026-05-14T11:21:16+02:00</time>
      </trkpt>
      <trkpt lat="46.75599" lon="4.90098">
        <ele>182</ele>
        <time>2026-05-14T11:21:17+02:00</time>
      </trkpt>
      <trkpt lat="46.75604" lon="4.90097">
        <ele>182</ele>
        <time>2026-05-14T11:21:18+02:00</time>
      </trkpt>
      <trkpt lat="46.7561" lon="4.90095">
        <ele>181.90039</ele>
        <time>2026-05-14T11:21:19+02:00</time>
      </trkpt>
      <trkpt lat="46.75616" lon="4.90094">
        <ele>181.90039</ele>
        <time>2026-05-14T11:21:20+02:00</time>
      </trkpt>
      <trkpt lat="46.75621" lon="4.90093">
        <ele>181.7998</ele>
        <time>2026-05-14T11:21:21+02:00</time>
      </trkpt>
      <trkpt lat="46.75627" lon="4.90091">
        <ele>181.7998</ele>
        <time>2026-05-14T11:21:22+02:00</time>
      </trkpt>
      <trkpt lat="46.75631" lon="4.9009">
        <ele>181.7998</ele>
        <time>2026-05-14T11:21:23+02:00</time>
      </trkpt>
      <trkpt lat="46.75636" lon="4.90089">
        <ele>181.7998</ele>
        <time>2026-05-14T11:21:24+02:00</time>
      </trkpt>
      <trkpt lat="46.75642" lon="4.90088">
        <ele>181.7002</ele>
        <time>2026-05-14T11:21:25+02:00</time>
      </trkpt>
      <trkpt lat="46.75647" lon="4.90087">
        <ele>181.60059</ele>
        <time>2026-05-14T11:21:26+02:00</time>
      </trkpt>
      <trkpt lat="46.75652" lon="4.90087">
        <ele>181.5</ele>
        <time>2026-05-14T11:21:27+02:00</time>
      </trkpt>
      <trkpt lat="46.75657" lon="4.90086">
        <ele>181.40039</ele>
        <time>2026-05-14T11:21:28+02:00</time>
      </trkpt>
      <trkpt lat="46.75662" lon="4.90085">
        <ele>181.40039</ele>
        <time>2026-05-14T11:21:29+02:00</time>
      </trkpt>
      <trkpt lat="46.75667" lon="4.90084">
        <ele>181.2002</ele>
        <time>2026-05-14T11:21:30+02:00</time>
      </trkpt>
      <trkpt lat="46.75673" lon="4.90083">
        <ele>181.10059</ele>
        <time>2026-05-14T11:21:31+02:00</time>
      </trkpt>
      <trkpt lat="46.75675" lon="4.90083">
        <ele>180.90039</ele>
        <time>2026-05-14T11:21:32+02:00</time>
      </trkpt>
      <trkpt lat="46.75684" lon="4.90082">
        <ele>180.7998</ele>
        <time>2026-05-14T11:21:33+02:00</time>
      </trkpt>
      <trkpt lat="46.75689" lon="4.90081">
        <ele>180.60059</ele>
        <time>2026-05-14T11:21:34+02:00</time>
      </trkpt>
      <trkpt lat="46.75694" lon="4.90081">
        <ele>180.40039</ele>
        <time>2026-05-14T11:21:35+02:00</time>
      </trkpt>
      <trkpt lat="46.757" lon="4.90081">
        <ele>180.2002</ele>
        <time>2026-05-14T11:21:36+02:00</time>
      </trkpt>
      <trkpt lat="46.75705" lon="4.90081">
        <ele>180.10059</ele>
        <time>2026-05-14T11:21:37+02:00</time>
      </trkpt>
      <trkpt lat="46.7571" lon="4.90081">
        <ele>179.90039</ele>
        <time>2026-05-14T11:21:38+02:00</time>
      </trkpt>
      <trkpt lat="46.75716" lon="4.90081">
        <ele>179.7002</ele>
        <time>2026-05-14T11:21:39+02:00</time>
      </trkpt>
      <trkpt lat="46.75721" lon="4.90081">
        <ele>179.7002</ele>
        <time>2026-05-14T11:21:40+02:00</time>
      </trkpt>
      <trkpt lat="46.75727" lon="4.9008">
        <ele>179.40039</ele>
        <time>2026-05-14T11:21:41+02:00</time>
      </trkpt>
      <trkpt lat="46.75733" lon="4.9008">
        <ele>179.2998</ele>
        <time>2026-05-14T11:21:42+02:00</time>
      </trkpt>
      <trkpt lat="46.75738" lon="4.9008">
        <ele>179.2998</ele>
        <time>2026-05-14T11:21:43+02:00</time>
      </trkpt>
      <trkpt lat="46.75743" lon="4.9008">
        <ele>179.10059</ele>
        <time>2026-05-14T11:21:44+02:00</time>
      </trkpt>
      <trkpt lat="46.75749" lon="4.9008">
        <ele>179</ele>
        <time>2026-05-14T11:21:45+02:00</time>
      </trkpt>
      <trkpt lat="46.75754" lon="4.90081">
        <ele>178.90039</ele>
        <time>2026-05-14T11:21:46+02:00</time>
      </trkpt>
      <trkpt lat="46.7576" lon="4.90081">
        <ele>178.90039</ele>
        <time>2026-05-14T11:21:47+02:00</time>
      </trkpt>
      <trkpt lat="46.75766" lon="4.90081">
        <ele>178.90039</ele>
        <time>2026-05-14T11:21:48+02:00</time>
      </trkpt>
      <trkpt lat="46.75771" lon="4.90082">
        <ele>178.7998</ele>
        <time>2026-05-14T11:21:49+02:00</time>
      </trkpt>
      <trkpt lat="46.75777" lon="4.90082">
        <ele>178.7998</ele>
        <time>2026-05-14T11:21:50+02:00</time>
      </trkpt>
      <trkpt lat="46.75783" lon="4.90082">
        <ele>178.7998</ele>
        <time>2026-05-14T11:21:51+02:00</time>
      </trkpt>
      <trkpt lat="46.75789" lon="4.90082">
        <ele>178.7998</ele>
        <time>2026-05-14T11:21:52+02:00</time>
      </trkpt>
      <trkpt lat="46.75795" lon="4.90083">
        <ele>178.7998</ele>
        <time>2026-05-14T11:21:53+02:00</time>
      </trkpt>
      <trkpt lat="46.758" lon="4.90084">
        <ele>178.7998</ele>
        <time>2026-05-14T11:21:54+02:00</time>
      </trkpt>
      <trkpt lat="46.75806" lon="4.90084">
        <ele>178.7998</ele>
        <time>2026-05-14T11:21:55+02:00</time>
      </trkpt>
      <trkpt lat="46.75812" lon="4.90085">
        <ele>178.90039</ele>
        <time>2026-05-14T11:21:56+02:00</time>
      </trkpt>
      <trkpt lat="46.75817" lon="4.90085">
        <ele>178.90039</ele>
        <time>2026-05-14T11:21:57+02:00</time>
      </trkpt>
      <trkpt lat="46.75823" lon="4.90086">
        <ele>178.90039</ele>
        <time>2026-05-14T11:21:58+02:00</time>
      </trkpt>
      <trkpt lat="46.75829" lon="4.90087">
        <ele>178.90039</ele>
        <time>2026-05-14T11:21:59+02:00</time>
      </trkpt>
      <trkpt lat="46.75832" lon="4.90087">
        <ele>178.90039</ele>
        <time>2026-05-14T11:22:00+02:00</time>
      </trkpt>
      <trkpt lat="46.75841" lon="4.90088">
        <ele>178.7998</ele>
        <time>2026-05-14T11:22:01+02:00</time>
      </trkpt>
      <trkpt lat="46.75846" lon="4.90089">
        <ele>178.7998</ele>
        <time>2026-05-14T11:22:02+02:00</time>
      </trkpt>
      <trkpt lat="46.75852" lon="4.90089">
        <ele>178.7998</ele>
        <time>2026-05-14T11:22:03+02:00</time>
      </trkpt>
      <trkpt lat="46.75857" lon="4.9009">
        <ele>178.7998</ele>
        <time>2026-05-14T11:22:04+02:00</time>
      </trkpt>
      <trkpt lat="46.75863" lon="4.90091">
        <ele>178.7998</ele>
        <time>2026-05-14T11:22:05+02:00</time>
      </trkpt>
      <trkpt lat="46.75868" lon="4.90092">
        <ele>178.7998</ele>
        <time>2026-05-14T11:22:06+02:00</time>
      </trkpt>
      <trkpt lat="46.75873" lon="4.90092">
        <ele>178.7998</ele>
        <time>2026-05-14T11:22:07+02:00</time>
      </trkpt>
      <trkpt lat="46.75879" lon="4.90093">
        <ele>178.7998</ele>
        <time>2026-05-14T11:22:08+02:00</time>
      </trkpt>
      <trkpt lat="46.75884" lon="4.90093">
        <ele>178.7998</ele>
        <time>2026-05-14T11:22:09+02:00</time>
      </trkpt>
      <trkpt lat="46.7589" lon="4.90094">
        <ele>178.7002</ele>
        <time>2026-05-14T11:22:10+02:00</time>
      </trkpt>
      <trkpt lat="46.75895" lon="4.90095">
        <ele>178.7998</ele>
        <time>2026-05-14T11:22:11+02:00</time>
      </trkpt>
      <trkpt lat="46.759" lon="4.90095">
        <ele>178.7998</ele>
        <time>2026-05-14T11:22:12+02:00</time>
      </trkpt>
      <trkpt lat="46.75905" lon="4.90095">
        <ele>178.7998</ele>
        <time>2026-05-14T11:22:13+02:00</time>
      </trkpt>
      <trkpt lat="46.7591" lon="4.90095">
        <ele>178.7998</ele>
        <time>2026-05-14T11:22:14+02:00</time>
      </trkpt>
      <trkpt lat="46.75915" lon="4.90095">
        <ele>178.90039</ele>
        <time>2026-05-14T11:22:15+02:00</time>
      </trkpt>
      <trkpt lat="46.75919" lon="4.90095">
        <ele>178.90039</ele>
        <time>2026-05-14T11:22:16+02:00</time>
      </trkpt>
      <trkpt lat="46.75923" lon="4.90096">
        <ele>179</ele>
        <time>2026-05-14T11:22:17+02:00</time>
      </trkpt>
      <trkpt lat="46.75927" lon="4.90096">
        <ele>179.10059</ele>
        <time>2026-05-14T11:22:18+02:00</time>
      </trkpt>
      <trkpt lat="46.75931" lon="4.90097">
        <ele>179.10059</ele>
        <time>2026-05-14T11:22:19+02:00</time>
      </trkpt>
      <trkpt lat="46.75935" lon="4.90099">
        <ele>179.2002</ele>
        <time>2026-05-14T11:22:20+02:00</time>
      </trkpt>
      <trkpt lat="46.7594" lon="4.90099">
        <ele>179.2998</ele>
        <time>2026-05-14T11:22:21+02:00</time>
      </trkpt>
      <trkpt lat="46.75944" lon="4.901">
        <ele>179.2998</ele>
        <time>2026-05-14T11:22:22+02:00</time>
      </trkpt>
      <trkpt lat="46.75949" lon="4.901">
        <ele>179.40039</ele>
        <time>2026-05-14T11:22:23+02:00</time>
      </trkpt>
      <trkpt lat="46.75954" lon="4.901">
        <ele>179.5</ele>
        <time>2026-05-14T11:22:24+02:00</time>
      </trkpt>
      <trkpt lat="46.75959" lon="4.901">
        <ele>179.60059</ele>
        <time>2026-05-14T11:22:25+02:00</time>
      </trkpt>
      <trkpt lat="46.75964" lon="4.90101">
        <ele>179.7002</ele>
        <time>2026-05-14T11:22:26+02:00</time>
      </trkpt>
      <trkpt lat="46.7597" lon="4.90101">
        <ele>179.7998</ele>
        <time>2026-05-14T11:22:27+02:00</time>
      </trkpt>
      <trkpt lat="46.75976" lon="4.90102">
        <ele>179.90039</ele>
        <time>2026-05-14T11:22:28+02:00</time>
      </trkpt>
      <trkpt lat="46.75981" lon="4.90103">
        <ele>180</ele>
        <time>2026-05-14T11:22:29+02:00</time>
      </trkpt>
      <trkpt lat="46.75987" lon="4.90104">
        <ele>180.10059</ele>
        <time>2026-05-14T11:22:30+02:00</time>
      </trkpt>
      <trkpt lat="46.75993" lon="4.90104">
        <ele>180.2002</ele>
        <time>2026-05-14T11:22:31+02:00</time>
      </trkpt>
      <trkpt lat="46.75998" lon="4.90105">
        <ele>180.2998</ele>
        <time>2026-05-14T11:22:32+02:00</time>
      </trkpt>
      <trkpt lat="46.76005" lon="4.90105">
        <ele>180.5</ele>
        <time>2026-05-14T11:22:33+02:00</time>
      </trkpt>
      <trkpt lat="46.7601" lon="4.90106">
        <ele>180.60059</ele>
        <time>2026-05-14T11:22:34+02:00</time>
      </trkpt>
      <trkpt lat="46.76016" lon="4.90106">
        <ele>180.7002</ele>
        <time>2026-05-14T11:22:35+02:00</time>
      </trkpt>
      <trkpt lat="46.76022" lon="4.90107">
        <ele>180.90039</ele>
        <time>2026-05-14T11:22:36+02:00</time>
      </trkpt>
      <trkpt lat="46.76028" lon="4.90108">
        <ele>181</ele>
        <time>2026-05-14T11:22:37+02:00</time>
      </trkpt>
      <trkpt lat="46.76034" lon="4.90108">
        <ele>181.2002</ele>
        <time>2026-05-14T11:22:38+02:00</time>
      </trkpt>
      <trkpt lat="46.76039" lon="4.90109">
        <ele>181.2998</ele>
        <time>2026-05-14T11:22:39+02:00</time>
      </trkpt>
      <trkpt lat="46.76045" lon="4.90109">
        <ele>181.5</ele>
        <time>2026-05-14T11:22:40+02:00</time>
      </trkpt>
      <trkpt lat="46.7605" lon="4.9011">
        <ele>181.5</ele>
        <time>2026-05-14T11:22:41+02:00</time>
      </trkpt>
      <trkpt lat="46.76056" lon="4.90111">
        <ele>181.90039</ele>
        <time>2026-05-14T11:22:42+02:00</time>
      </trkpt>
      <trkpt lat="46.76061" lon="4.90111">
        <ele>182.10059</ele>
        <time>2026-05-14T11:22:43+02:00</time>
      </trkpt>
      <trkpt lat="46.76067" lon="4.90112">
        <ele>182.2002</ele>
        <time>2026-05-14T11:22:44+02:00</time>
      </trkpt>
      <trkpt lat="46.76072" lon="4.90112">
        <ele>182.40039</ele>
        <time>2026-05-14T11:22:45+02:00</time>
      </trkpt>
      <trkpt lat="46.76078" lon="4.90113">
        <ele>182.5</ele>
        <time>2026-05-14T11:22:46+02:00</time>
      </trkpt>
      <trkpt lat="46.76084" lon="4.90113">
        <ele>182.60059</ele>
        <time>2026-05-14T11:22:47+02:00</time>
      </trkpt>
      <trkpt lat="46.7609" lon="4.90114">
        <ele>182.60059</ele>
        <time>2026-05-14T11:22:48+02:00</time>
      </trkpt>
      <trkpt lat="46.76096" lon="4.90114">
        <ele>182.60059</ele>
        <time>2026-05-14T11:22:49+02:00</time>
      </trkpt>
      <trkpt lat="46.76101" lon="4.90114">
        <ele>182.5</ele>
        <time>2026-05-14T11:22:50+02:00</time>
      </trkpt>
      <trkpt lat="46.76108" lon="4.90114">
        <ele>182.40039</ele>
        <time>2026-05-14T11:22:51+02:00</time>
      </trkpt>
      <trkpt lat="46.76113" lon="4.90114">
        <ele>182.2002</ele>
        <time>2026-05-14T11:22:52+02:00</time>
      </trkpt>
      <trkpt lat="46.76119" lon="4.90114">
        <ele>182</ele>
        <time>2026-05-14T11:22:53+02:00</time>
      </trkpt>
      <trkpt lat="46.76125" lon="4.90115">
        <ele>181.7998</ele>
        <time>2026-05-14T11:22:54+02:00</time>
      </trkpt>
      <trkpt lat="46.7613" lon="4.90115">
        <ele>181.5</ele>
        <time>2026-05-14T11:22:55+02:00</time>
      </trkpt>
      <trkpt lat="46.76137" lon="4.90116">
        <ele>181.2002</ele>
        <time>2026-05-14T11:22:56+02:00</time>
      </trkpt>
      <trkpt lat="46.76143" lon="4.90117">
        <ele>181</ele>
        <time>2026-05-14T11:22:57+02:00</time>
      </trkpt>
      <trkpt lat="46.76148" lon="4.90117">
        <ele>180.7002</ele>
        <time>2026-05-14T11:22:58+02:00</time>
      </trkpt>
      <trkpt lat="46.76154" lon="4.90118">
        <ele>180.40039</ele>
        <time>2026-05-14T11:22:59+02:00</time>
      </trkpt>
      <trkpt lat="46.76161" lon="4.90119">
        <ele>180.10059</ele>
        <time>2026-05-14T11:23:00+02:00</time>
      </trkpt>
      <trkpt lat="46.76166" lon="4.9012">
        <ele>180.10059</ele>
        <time>2026-05-14T11:23:01+02:00</time>
      </trkpt>
      <trkpt lat="46.76172" lon="4.9012">
        <ele>179.7998</ele>
        <time>2026-05-14T11:23:02+02:00</time>
      </trkpt>
      <trkpt lat="46.76178" lon="4.90122">
        <ele>179.60059</ele>
        <time>2026-05-14T11:23:03+02:00</time>
      </trkpt>
      <trkpt lat="46.76195" lon="4.90124">
        <ele>179.2002</ele>
        <time>2026-05-14T11:23:04+02:00</time>
      </trkpt>
      <trkpt lat="46.76201" lon="4.90125">
        <ele>179.2002</ele>
        <time>2026-05-14T11:23:05+02:00</time>
      </trkpt>
      <trkpt lat="46.76207" lon="4.90126">
        <ele>179.10059</ele>
        <time>2026-05-14T11:23:06+02:00</time>
      </trkpt>
      <trkpt lat="46.76212" lon="4.90126">
        <ele>179.10059</ele>
        <time>2026-05-14T11:23:07+02:00</time>
      </trkpt>
      <trkpt lat="46.76217" lon="4.90127">
        <ele>179.10059</ele>
        <time>2026-05-14T11:23:08+02:00</time>
      </trkpt>
      <trkpt lat="46.76222" lon="4.90128">
        <ele>179.10059</ele>
        <time>2026-05-14T11:23:09+02:00</time>
      </trkpt>
      <trkpt lat="46.76227" lon="4.90129">
        <ele>179.10059</ele>
        <time>2026-05-14T11:23:10+02:00</time>
      </trkpt>
      <trkpt lat="46.76232" lon="4.90129">
        <ele>179.10059</ele>
        <time>2026-05-14T11:23:11+02:00</time>
      </trkpt>
      <trkpt lat="46.76236" lon="4.9013">
        <ele>179.10059</ele>
        <time>2026-05-14T11:23:12+02:00</time>
      </trkpt>
      <trkpt lat="46.7624" lon="4.90132">
        <ele>179.10059</ele>
        <time>2026-05-14T11:23:13+02:00</time>
      </trkpt>
      <trkpt lat="46.76245" lon="4.90132">
        <ele>179.10059</ele>
        <time>2026-05-14T11:23:14+02:00</time>
      </trkpt>
      <trkpt lat="46.7625" lon="4.90131">
        <ele>179.10059</ele>
        <time>2026-05-14T11:23:15+02:00</time>
      </trkpt>
      <trkpt lat="46.76255" lon="4.90131">
        <ele>179.10059</ele>
        <time>2026-05-14T11:23:16+02:00</time>
      </trkpt>
      <trkpt lat="46.76261" lon="4.90132">
        <ele>179.10059</ele>
        <time>2026-05-14T11:23:17+02:00</time>
      </trkpt>
      <trkpt lat="46.76266" lon="4.90133">
        <ele>179.2002</ele>
        <time>2026-05-14T11:23:18+02:00</time>
      </trkpt>
      <trkpt lat="46.76272" lon="4.90133">
        <ele>179.2002</ele>
        <time>2026-05-14T11:23:19+02:00</time>
      </trkpt>
      <trkpt lat="46.76277" lon="4.90133">
        <ele>179.2998</ele>
        <time>2026-05-14T11:23:20+02:00</time>
      </trkpt>
      <trkpt lat="46.76283" lon="4.90133">
        <ele>179.2998</ele>
        <time>2026-05-14T11:23:21+02:00</time>
      </trkpt>
      <trkpt lat="46.76286" lon="4.90133">
        <ele>179.40039</ele>
        <time>2026-05-14T11:23:22+02:00</time>
      </trkpt>
      <trkpt lat="46.76295" lon="4.90132">
        <ele>179.5</ele>
        <time>2026-05-14T11:23:23+02:00</time>
      </trkpt>
      <trkpt lat="46.76301" lon="4.90132">
        <ele>179.60059</ele>
        <time>2026-05-14T11:23:24+02:00</time>
      </trkpt>
      <trkpt lat="46.76307" lon="4.90131">
        <ele>179.7002</ele>
        <time>2026-05-14T11:23:25+02:00</time>
      </trkpt>
      <trkpt lat="46.76313" lon="4.90131">
        <ele>179.7998</ele>
        <time>2026-05-14T11:23:26+02:00</time>
      </trkpt>
      <trkpt lat="46.76319" lon="4.9013">
        <ele>179.90039</ele>
        <time>2026-05-14T11:23:27+02:00</time>
      </trkpt>
      <trkpt lat="46.76325" lon="4.90129">
        <ele>180</ele>
        <time>2026-05-14T11:23:28+02:00</time>
      </trkpt>
      <trkpt lat="46.76331" lon="4.90129">
        <ele>180.10059</ele>
        <time>2026-05-14T11:23:29+02:00</time>
      </trkpt>
      <trkpt lat="46.76337" lon="4.90129">
        <ele>180.2998</ele>
        <time>2026-05-14T11:23:30+02:00</time>
      </trkpt>
      <trkpt lat="46.76343" lon="4.90128">
        <ele>180.40039</ele>
        <time>2026-05-14T11:23:31+02:00</time>
      </trkpt>
      <trkpt lat="46.76349" lon="4.90127">
        <ele>180.2002</ele>
        <time>2026-05-14T11:23:32+02:00</time>
      </trkpt>
      <trkpt lat="46.76355" lon="4.90126">
        <ele>180.2998</ele>
        <time>2026-05-14T11:23:33+02:00</time>
      </trkpt>
      <trkpt lat="46.7636" lon="4.90125">
        <ele>180.40039</ele>
        <time>2026-05-14T11:23:34+02:00</time>
      </trkpt>
      <trkpt lat="46.76367" lon="4.90124">
        <ele>180.40039</ele>
        <time>2026-05-14T11:23:35+02:00</time>
      </trkpt>
      <trkpt lat="46.76372" lon="4.90123">
        <ele>180.40039</ele>
        <time>2026-05-14T11:23:36+02:00</time>
      </trkpt>
      <trkpt lat="46.76378" lon="4.90122">
        <ele>180.40039</ele>
        <time>2026-05-14T11:23:37+02:00</time>
      </trkpt>
      <trkpt lat="46.76384" lon="4.90121">
        <ele>180.40039</ele>
        <time>2026-05-14T11:23:38+02:00</time>
      </trkpt>
      <trkpt lat="46.76389" lon="4.9012">
        <ele>180.40039</ele>
        <time>2026-05-14T11:23:39+02:00</time>
      </trkpt>
      <trkpt lat="46.76395" lon="4.90118">
        <ele>180</ele>
        <time>2026-05-14T11:23:40+02:00</time>
      </trkpt>
      <trkpt lat="46.76401" lon="4.90117">
        <ele>179.90039</ele>
        <time>2026-05-14T11:23:41+02:00</time>
      </trkpt>
      <trkpt lat="46.76407" lon="4.90116">
        <ele>179.7998</ele>
        <time>2026-05-14T11:23:42+02:00</time>
      </trkpt>
      <trkpt lat="46.76412" lon="4.90114">
        <ele>179.7998</ele>
        <time>2026-05-14T11:23:43+02:00</time>
      </trkpt>
      <trkpt lat="46.76418" lon="4.90113">
        <ele>179.7002</ele>
        <time>2026-05-14T11:23:44+02:00</time>
      </trkpt>
      <trkpt lat="46.76423" lon="4.90111">
        <ele>179.60059</ele>
        <time>2026-05-14T11:23:45+02:00</time>
      </trkpt>
      <trkpt lat="46.76429" lon="4.90109">
        <ele>179.2002</ele>
        <time>2026-05-14T11:23:46+02:00</time>
      </trkpt>
      <trkpt lat="46.76434" lon="4.90107">
        <ele>179.2002</ele>
        <time>2026-05-14T11:23:47+02:00</time>
      </trkpt>
      <trkpt lat="46.7644" lon="4.90105">
        <ele>179.10059</ele>
        <time>2026-05-14T11:23:48+02:00</time>
      </trkpt>
      <trkpt lat="46.76446" lon="4.90103">
        <ele>179</ele>
        <time>2026-05-14T11:23:49+02:00</time>
      </trkpt>
      <trkpt lat="46.76451" lon="4.90101">
        <ele>178.60059</ele>
        <time>2026-05-14T11:23:50+02:00</time>
      </trkpt>
      <trkpt lat="46.76457" lon="4.90098">
        <ele>178.60059</ele>
        <time>2026-05-14T11:23:51+02:00</time>
      </trkpt>
      <trkpt lat="46.76462" lon="4.90096">
        <ele>178.60059</ele>
        <time>2026-05-14T11:23:52+02:00</time>
      </trkpt>
      <trkpt lat="46.76468" lon="4.90094">
        <ele>178.60059</ele>
        <time>2026-05-14T11:23:53+02:00</time>
      </trkpt>
      <trkpt lat="46.76473" lon="4.90091">
        <ele>178.2998</ele>
        <time>2026-05-14T11:23:54+02:00</time>
      </trkpt>
      <trkpt lat="46.76479" lon="4.90088">
        <ele>178.2998</ele>
        <time>2026-05-14T11:23:55+02:00</time>
      </trkpt>
      <trkpt lat="46.76484" lon="4.90085">
        <ele>178.40039</ele>
        <time>2026-05-14T11:23:56+02:00</time>
      </trkpt>
      <trkpt lat="46.7649" lon="4.90083">
        <ele>178.2002</ele>
        <time>2026-05-14T11:23:57+02:00</time>
      </trkpt>
      <trkpt lat="46.76495" lon="4.9008">
        <ele>178.2002</ele>
        <time>2026-05-14T11:23:58+02:00</time>
      </trkpt>
      <trkpt lat="46.765" lon="4.90077">
        <ele>178.2998</ele>
        <time>2026-05-14T11:23:59+02:00</time>
      </trkpt>
      <trkpt lat="46.76505" lon="4.90074">
        <ele>178.10059</ele>
        <time>2026-05-14T11:24:00+02:00</time>
      </trkpt>
      <trkpt lat="46.76511" lon="4.90072">
        <ele>178.2002</ele>
        <time>2026-05-14T11:24:01+02:00</time>
      </trkpt>
      <trkpt lat="46.76516" lon="4.90069">
        <ele>178.2998</ele>
        <time>2026-05-14T11:24:02+02:00</time>
      </trkpt>
      <trkpt lat="46.76521" lon="4.90066">
        <ele>178.2998</ele>
        <time>2026-05-14T11:24:03+02:00</time>
      </trkpt>
      <trkpt lat="46.76527" lon="4.90063">
        <ele>178.40039</ele>
        <time>2026-05-14T11:24:04+02:00</time>
      </trkpt>
      <trkpt lat="46.76532" lon="4.9006">
        <ele>178.40039</ele>
        <time>2026-05-14T11:24:05+02:00</time>
      </trkpt>
      <trkpt lat="46.76538" lon="4.90057">
        <ele>178.40039</ele>
        <time>2026-05-14T11:24:06+02:00</time>
      </trkpt>
      <trkpt lat="46.76543" lon="4.90054">
        <ele>178.60059</ele>
        <time>2026-05-14T11:24:07+02:00</time>
      </trkpt>
      <trkpt lat="46.76548" lon="4.9005">
        <ele>178.60059</ele>
        <time>2026-05-14T11:24:08+02:00</time>
      </trkpt>
      <trkpt lat="46.76551" lon="4.90049">
        <ele>178.7002</ele>
        <time>2026-05-14T11:24:09+02:00</time>
      </trkpt>
      <trkpt lat="46.76559" lon="4.90044">
        <ele>178.90039</ele>
        <time>2026-05-14T11:24:10+02:00</time>
      </trkpt>
      <trkpt lat="46.76564" lon="4.9004">
        <ele>178.7998</ele>
        <time>2026-05-14T11:24:11+02:00</time>
      </trkpt>
      <trkpt lat="46.76569" lon="4.90036">
        <ele>178.90039</ele>
        <time>2026-05-14T11:24:12+02:00</time>
      </trkpt>
      <trkpt lat="46.76574" lon="4.90032">
        <ele>178.90039</ele>
        <time>2026-05-14T11:24:13+02:00</time>
      </trkpt>
      <trkpt lat="46.76579" lon="4.90029">
        <ele>178.90039</ele>
        <time>2026-05-14T11:24:14+02:00</time>
      </trkpt>
      <trkpt lat="46.76583" lon="4.90025">
        <ele>178.90039</ele>
        <time>2026-05-14T11:24:15+02:00</time>
      </trkpt>
      <trkpt lat="46.76587" lon="4.90022">
        <ele>178.7002</ele>
        <time>2026-05-14T11:24:16+02:00</time>
      </trkpt>
      <trkpt lat="46.76591" lon="4.90019">
        <ele>178.7002</ele>
        <time>2026-05-14T11:24:17+02:00</time>
      </trkpt>
      <trkpt lat="46.76595" lon="4.90015">
        <ele>178.60059</ele>
        <time>2026-05-14T11:24:18+02:00</time>
      </trkpt>
      <trkpt lat="46.76599" lon="4.90012">
        <ele>178.5</ele>
        <time>2026-05-14T11:24:19+02:00</time>
      </trkpt>
      <trkpt lat="46.76603" lon="4.90008">
        <ele>178.5</ele>
        <time>2026-05-14T11:24:20+02:00</time>
      </trkpt>
      <trkpt lat="46.76607" lon="4.90005">
        <ele>178.2998</ele>
        <time>2026-05-14T11:24:21+02:00</time>
      </trkpt>
      <trkpt lat="46.76611" lon="4.90002">
        <ele>178.2002</ele>
        <time>2026-05-14T11:24:22+02:00</time>
      </trkpt>
      <trkpt lat="46.76616" lon="4.89998">
        <ele>178.10059</ele>
        <time>2026-05-14T11:24:23+02:00</time>
      </trkpt>
      <trkpt lat="46.7662" lon="4.89995">
        <ele>178.10059</ele>
        <time>2026-05-14T11:24:24+02:00</time>
      </trkpt>
      <trkpt lat="46.76625" lon="4.8999">
        <ele>177.90039</ele>
        <time>2026-05-14T11:24:25+02:00</time>
      </trkpt>
      <trkpt lat="46.7663" lon="4.89986">
        <ele>177.7998</ele>
        <time>2026-05-14T11:24:26+02:00</time>
      </trkpt>
      <trkpt lat="46.76635" lon="4.89981">
        <ele>177.7002</ele>
        <time>2026-05-14T11:24:27+02:00</time>
      </trkpt>
      <trkpt lat="46.76639" lon="4.89977">
        <ele>177.60059</ele>
        <time>2026-05-14T11:24:28+02:00</time>
      </trkpt>
      <trkpt lat="46.76644" lon="4.89972">
        <ele>177.5</ele>
        <time>2026-05-14T11:24:29+02:00</time>
      </trkpt>
      <trkpt lat="46.76649" lon="4.89968">
        <ele>177.5</ele>
        <time>2026-05-14T11:24:30+02:00</time>
      </trkpt>
      <trkpt lat="46.76653" lon="4.89963">
        <ele>177.5</ele>
        <time>2026-05-14T11:24:31+02:00</time>
      </trkpt>
      <trkpt lat="46.76658" lon="4.89958">
        <ele>177.5</ele>
        <time>2026-05-14T11:24:32+02:00</time>
      </trkpt>
      <trkpt lat="46.76662" lon="4.89954">
        <ele>177.5</ele>
        <time>2026-05-14T11:24:33+02:00</time>
      </trkpt>
      <trkpt lat="46.76666" lon="4.89949">
        <ele>177.5</ele>
        <time>2026-05-14T11:24:34+02:00</time>
      </trkpt>
      <trkpt lat="46.7667" lon="4.89945">
        <ele>177.5</ele>
        <time>2026-05-14T11:24:35+02:00</time>
      </trkpt>
      <trkpt lat="46.76674" lon="4.89941">
        <ele>177.5</ele>
        <time>2026-05-14T11:24:36+02:00</time>
      </trkpt>
      <trkpt lat="46.76679" lon="4.89937">
        <ele>177.60059</ele>
        <time>2026-05-14T11:24:37+02:00</time>
      </trkpt>
      <trkpt lat="46.76682" lon="4.89932">
        <ele>177.60059</ele>
        <time>2026-05-14T11:24:38+02:00</time>
      </trkpt>
      <trkpt lat="46.76687" lon="4.89928">
        <ele>177.60059</ele>
        <time>2026-05-14T11:24:39+02:00</time>
      </trkpt>
      <trkpt lat="46.7669" lon="4.89923">
        <ele>177.60059</ele>
        <time>2026-05-14T11:24:40+02:00</time>
      </trkpt>
      <trkpt lat="46.76694" lon="4.89918">
        <ele>177.7002</ele>
        <time>2026-05-14T11:24:41+02:00</time>
      </trkpt>
      <trkpt lat="46.76698" lon="4.89914">
        <ele>177.7002</ele>
        <time>2026-05-14T11:24:42+02:00</time>
      </trkpt>
      <trkpt lat="46.76701" lon="4.89909">
        <ele>177.7998</ele>
        <time>2026-05-14T11:24:43+02:00</time>
      </trkpt>
      <trkpt lat="46.76705" lon="4.89905">
        <ele>177.7998</ele>
        <time>2026-05-14T11:24:44+02:00</time>
      </trkpt>
      <trkpt lat="46.76708" lon="4.89903">
        <ele>177.7998</ele>
        <time>2026-05-14T11:24:45+02:00</time>
      </trkpt>
      <trkpt lat="46.76711" lon="4.89899">
        <ele>177.7998</ele>
        <time>2026-05-14T11:24:46+02:00</time>
      </trkpt>
      <trkpt lat="46.76714" lon="4.89896">
        <ele>177.7998</ele>
        <time>2026-05-14T11:24:47+02:00</time>
      </trkpt>
      <trkpt lat="46.76717" lon="4.89892">
        <ele>177.7998</ele>
        <time>2026-05-14T11:24:48+02:00</time>
      </trkpt>
      <trkpt lat="46.76719" lon="4.89888">
        <ele>177.7998</ele>
        <time>2026-05-14T11:24:49+02:00</time>
      </trkpt>
      <trkpt lat="46.76723" lon="4.89884">
        <ele>177.7998</ele>
        <time>2026-05-14T11:24:50+02:00</time>
      </trkpt>
      <trkpt lat="46.76726" lon="4.89879">
        <ele>177.7998</ele>
        <time>2026-05-14T11:24:51+02:00</time>
      </trkpt>
      <trkpt lat="46.7673" lon="4.89874">
        <ele>177.7998</ele>
        <time>2026-05-14T11:24:52+02:00</time>
      </trkpt>
      <trkpt lat="46.76733" lon="4.89869">
        <ele>177.7998</ele>
        <time>2026-05-14T11:24:53+02:00</time>
      </trkpt>
      <trkpt lat="46.76736" lon="4.89863">
        <ele>177.7998</ele>
        <time>2026-05-14T11:24:54+02:00</time>
      </trkpt>
      <trkpt lat="46.76739" lon="4.89857">
        <ele>177.7998</ele>
        <time>2026-05-14T11:24:55+02:00</time>
      </trkpt>
      <trkpt lat="46.76743" lon="4.89851">
        <ele>177.7998</ele>
        <time>2026-05-14T11:24:56+02:00</time>
      </trkpt>
      <trkpt lat="46.76746" lon="4.89846">
        <ele>177.7998</ele>
        <time>2026-05-14T11:24:57+02:00</time>
      </trkpt>
      <trkpt lat="46.7675" lon="4.89839">
        <ele>177.7002</ele>
        <time>2026-05-14T11:24:58+02:00</time>
      </trkpt>
      <trkpt lat="46.76753" lon="4.89833">
        <ele>177.7002</ele>
        <time>2026-05-14T11:24:59+02:00</time>
      </trkpt>
      <trkpt lat="46.76756" lon="4.89827">
        <ele>177.7002</ele>
        <time>2026-05-14T11:25:00+02:00</time>
      </trkpt>
      <trkpt lat="46.7676" lon="4.89821">
        <ele>177.7002</ele>
        <time>2026-05-14T11:25:01+02:00</time>
      </trkpt>
      <trkpt lat="46.76764" lon="4.89815">
        <ele>177.7002</ele>
        <time>2026-05-14T11:25:02+02:00</time>
      </trkpt>
      <trkpt lat="46.76767" lon="4.89809">
        <ele>177.7002</ele>
        <time>2026-05-14T11:25:03+02:00</time>
      </trkpt>
      <trkpt lat="46.76771" lon="4.89803">
        <ele>177.7002</ele>
        <time>2026-05-14T11:25:04+02:00</time>
      </trkpt>
      <trkpt lat="46.76774" lon="4.89797">
        <ele>177.7002</ele>
        <time>2026-05-14T11:25:05+02:00</time>
      </trkpt>
      <trkpt lat="46.76777" lon="4.89791">
        <ele>177.7002</ele>
        <time>2026-05-14T11:25:06+02:00</time>
      </trkpt>
      <trkpt lat="46.76781" lon="4.89785">
        <ele>177.7002</ele>
        <time>2026-05-14T11:25:07+02:00</time>
      </trkpt>
      <trkpt lat="46.76784" lon="4.8978">
        <ele>177.7002</ele>
        <time>2026-05-14T11:25:08+02:00</time>
      </trkpt>
      <trkpt lat="46.76787" lon="4.89774">
        <ele>177.7998</ele>
        <time>2026-05-14T11:25:09+02:00</time>
      </trkpt>
      <trkpt lat="46.7679" lon="4.89769">
        <ele>177.7998</ele>
        <time>2026-05-14T11:25:10+02:00</time>
      </trkpt>
      <trkpt lat="46.76794" lon="4.89763">
        <ele>177.7998</ele>
        <time>2026-05-14T11:25:11+02:00</time>
      </trkpt>
      <trkpt lat="46.76797" lon="4.89758">
        <ele>177.90039</ele>
        <time>2026-05-14T11:25:12+02:00</time>
      </trkpt>
      <trkpt lat="46.76801" lon="4.89752">
        <ele>177.90039</ele>
        <time>2026-05-14T11:25:13+02:00</time>
      </trkpt>
      <trkpt lat="46.76804" lon="4.89746">
        <ele>178</ele>
        <time>2026-05-14T11:25:14+02:00</time>
      </trkpt>
      <trkpt lat="46.76807" lon="4.89741">
        <ele>178.2002</ele>
        <time>2026-05-14T11:25:15+02:00</time>
      </trkpt>
      <trkpt lat="46.7681" lon="4.89735">
        <ele>178.2002</ele>
        <time>2026-05-14T11:25:16+02:00</time>
      </trkpt>
      <trkpt lat="46.76813" lon="4.89729">
        <ele>178.40039</ele>
        <time>2026-05-14T11:25:17+02:00</time>
      </trkpt>
      <trkpt lat="46.76817" lon="4.89724">
        <ele>178.60059</ele>
        <time>2026-05-14T11:25:18+02:00</time>
      </trkpt>
      <trkpt lat="46.7682" lon="4.89718">
        <ele>178.60059</ele>
        <time>2026-05-14T11:25:19+02:00</time>
      </trkpt>
      <trkpt lat="46.76824" lon="4.89712">
        <ele>178.90039</ele>
        <time>2026-05-14T11:25:20+02:00</time>
      </trkpt>
      <trkpt lat="46.76827" lon="4.89707">
        <ele>179</ele>
        <time>2026-05-14T11:25:21+02:00</time>
      </trkpt>
      <trkpt lat="46.7683" lon="4.89702">
        <ele>179.2002</ele>
        <time>2026-05-14T11:25:22+02:00</time>
      </trkpt>
      <trkpt lat="46.76833" lon="4.89697">
        <ele>179.5</ele>
        <time>2026-05-14T11:25:23+02:00</time>
      </trkpt>
      <trkpt lat="46.76835" lon="4.89692">
        <ele>179.5</ele>
        <time>2026-05-14T11:25:24+02:00</time>
      </trkpt>
      <trkpt lat="46.76838" lon="4.89687">
        <ele>179.7002</ele>
        <time>2026-05-14T11:25:25+02:00</time>
      </trkpt>
      <trkpt lat="46.76841" lon="4.89682">
        <ele>179.7998</ele>
        <time>2026-05-14T11:25:26+02:00</time>
      </trkpt>
      <trkpt lat="46.76843" lon="4.89677">
        <ele>180</ele>
        <time>2026-05-14T11:25:27+02:00</time>
      </trkpt>
      <trkpt lat="46.76846" lon="4.89673">
        <ele>180.10059</ele>
        <time>2026-05-14T11:25:28+02:00</time>
      </trkpt>
      <trkpt lat="46.76848" lon="4.89669">
        <ele>180.2998</ele>
        <time>2026-05-14T11:25:29+02:00</time>
      </trkpt>
      <trkpt lat="46.7685" lon="4.89665">
        <ele>180.40039</ele>
        <time>2026-05-14T11:25:30+02:00</time>
      </trkpt>
      <trkpt lat="46.76853" lon="4.89662">
        <ele>180.5</ele>
        <time>2026-05-14T11:25:31+02:00</time>
      </trkpt>
      <trkpt lat="46.76856" lon="4.89662">
        <ele>180.7002</ele>
        <time>2026-05-14T11:25:32+02:00</time>
      </trkpt>
      <trkpt lat="46.76859" lon="4.89661">
        <ele>180.7002</ele>
        <time>2026-05-14T11:25:33+02:00</time>
      </trkpt>
      <trkpt lat="46.76861" lon="4.89658">
        <ele>180.7002</ele>
        <time>2026-05-14T11:25:34+02:00</time>
      </trkpt>
      <trkpt lat="46.76863" lon="4.89655">
        <ele>180.90039</ele>
        <time>2026-05-14T11:25:35+02:00</time>
      </trkpt>
      <trkpt lat="46.76866" lon="4.89652">
        <ele>180.90039</ele>
        <time>2026-05-14T11:25:36+02:00</time>
      </trkpt>
      <trkpt lat="46.76868" lon="4.89648">
        <ele>181</ele>
        <time>2026-05-14T11:25:37+02:00</time>
      </trkpt>
      <trkpt lat="46.7687" lon="4.89644">
        <ele>181.10059</ele>
        <time>2026-05-14T11:25:38+02:00</time>
      </trkpt>
      <trkpt lat="46.76873" lon="4.8964">
        <ele>181.10059</ele>
        <time>2026-05-14T11:25:39+02:00</time>
      </trkpt>
      <trkpt lat="46.76875" lon="4.89636">
        <ele>181.2002</ele>
        <time>2026-05-14T11:25:40+02:00</time>
      </trkpt>
      <trkpt lat="46.76877" lon="4.89631">
        <ele>181.2002</ele>
        <time>2026-05-14T11:25:41+02:00</time>
      </trkpt>
      <trkpt lat="46.7688" lon="4.89627">
        <ele>181.40039</ele>
        <time>2026-05-14T11:25:42+02:00</time>
      </trkpt>
      <trkpt lat="46.76882" lon="4.89622">
        <ele>181.40039</ele>
        <time>2026-05-14T11:25:43+02:00</time>
      </trkpt>
      <trkpt lat="46.76884" lon="4.89618">
        <ele>181.40039</ele>
        <time>2026-05-14T11:25:44+02:00</time>
      </trkpt>
      <trkpt lat="46.76886" lon="4.89614">
        <ele>181.5</ele>
        <time>2026-05-14T11:25:45+02:00</time>
      </trkpt>
      <trkpt lat="46.76888" lon="4.8961">
        <ele>181.5</ele>
        <time>2026-05-14T11:25:46+02:00</time>
      </trkpt>
      <trkpt lat="46.7689" lon="4.89606">
        <ele>181.5</ele>
        <time>2026-05-14T11:25:47+02:00</time>
      </trkpt>
      <trkpt lat="46.76893" lon="4.89602">
        <ele>181.60059</ele>
        <time>2026-05-14T11:25:48+02:00</time>
      </trkpt>
      <trkpt lat="46.76895" lon="4.89598">
        <ele>181.60059</ele>
        <time>2026-05-14T11:25:49+02:00</time>
      </trkpt>
      <trkpt lat="46.76897" lon="4.89594">
        <ele>181.7002</ele>
        <time>2026-05-14T11:25:50+02:00</time>
      </trkpt>
      <trkpt lat="46.76899" lon="4.8959">
        <ele>181.7002</ele>
        <time>2026-05-14T11:25:51+02:00</time>
      </trkpt>
      <trkpt lat="46.76902" lon="4.89587">
        <ele>181.7002</ele>
        <time>2026-05-14T11:25:52+02:00</time>
      </trkpt>
      <trkpt lat="46.76904" lon="4.89584">
        <ele>181.7998</ele>
        <time>2026-05-14T11:25:53+02:00</time>
      </trkpt>
      <trkpt lat="46.76908" lon="4.89582">
        <ele>181.7998</ele>
        <time>2026-05-14T11:25:54+02:00</time>
      </trkpt>
      <trkpt lat="46.76911" lon="4.89581">
        <ele>181.7998</ele>
        <time>2026-05-14T11:25:55+02:00</time>
      </trkpt>
      <trkpt lat="46.76914" lon="4.89582">
        <ele>181.7998</ele>
        <time>2026-05-14T11:25:56+02:00</time>
      </trkpt>
      <trkpt lat="46.76917" lon="4.89584">
        <ele>181.7998</ele>
        <time>2026-05-14T11:25:57+02:00</time>
      </trkpt>
      <trkpt lat="46.7692" lon="4.89587">
        <ele>181.7998</ele>
        <time>2026-05-14T11:25:58+02:00</time>
      </trkpt>
      <trkpt lat="46.76922" lon="4.89589">
        <ele>181.7998</ele>
        <time>2026-05-14T11:25:59+02:00</time>
      </trkpt>
      <trkpt lat="46.76925" lon="4.8959">
        <ele>181.7998</ele>
        <time>2026-05-14T11:26:00+02:00</time>
      </trkpt>
      <trkpt lat="46.76928" lon="4.89589">
        <ele>181.7002</ele>
        <time>2026-05-14T11:26:01+02:00</time>
      </trkpt>
      <trkpt lat="46.76932" lon="4.89587">
        <ele>181.7002</ele>
        <time>2026-05-14T11:26:02+02:00</time>
      </trkpt>
      <trkpt lat="46.76934" lon="4.89583">
        <ele>181.7002</ele>
        <time>2026-05-14T11:26:03+02:00</time>
      </trkpt>
      <trkpt lat="46.76936" lon="4.89579">
        <ele>181.7002</ele>
        <time>2026-05-14T11:26:04+02:00</time>
      </trkpt>
      <trkpt lat="46.76939" lon="4.89575">
        <ele>181.7002</ele>
        <time>2026-05-14T11:26:05+02:00</time>
      </trkpt>
      <trkpt lat="46.76942" lon="4.8957">
        <ele>181.7002</ele>
        <time>2026-05-14T11:26:06+02:00</time>
      </trkpt>
      <trkpt lat="46.76944" lon="4.89564">
        <ele>181.7002</ele>
        <time>2026-05-14T11:26:07+02:00</time>
      </trkpt>
      <trkpt lat="46.76948" lon="4.89559">
        <ele>181.7998</ele>
        <time>2026-05-14T11:26:08+02:00</time>
      </trkpt>
      <trkpt lat="46.7695" lon="4.89554">
        <ele>181.7002</ele>
        <time>2026-05-14T11:26:09+02:00</time>
      </trkpt>
      <trkpt lat="46.76953" lon="4.89549">
        <ele>181.7998</ele>
        <time>2026-05-14T11:26:10+02:00</time>
      </trkpt>
      <trkpt lat="46.76956" lon="4.89544">
        <ele>181.7002</ele>
        <time>2026-05-14T11:26:11+02:00</time>
      </trkpt>
      <trkpt lat="46.76959" lon="4.89539">
        <ele>181.90039</ele>
        <time>2026-05-14T11:26:12+02:00</time>
      </trkpt>
      <trkpt lat="46.76962" lon="4.89533">
        <ele>181.90039</ele>
        <time>2026-05-14T11:26:13+02:00</time>
      </trkpt>
      <trkpt lat="46.76964" lon="4.89528">
        <ele>181.90039</ele>
        <time>2026-05-14T11:26:14+02:00</time>
      </trkpt>
      <trkpt lat="46.76967" lon="4.89523">
        <ele>182</ele>
        <time>2026-05-14T11:26:15+02:00</time>
      </trkpt>
      <trkpt lat="46.76969" lon="4.89517">
        <ele>182</ele>
        <time>2026-05-14T11:26:16+02:00</time>
      </trkpt>
      <trkpt lat="46.76972" lon="4.89511">
        <ele>182</ele>
        <time>2026-05-14T11:26:17+02:00</time>
      </trkpt>
      <trkpt lat="46.76974" lon="4.89505">
        <ele>182</ele>
        <time>2026-05-14T11:26:18+02:00</time>
      </trkpt>
      <trkpt lat="46.76976" lon="4.89499">
        <ele>182</ele>
        <time>2026-05-14T11:26:19+02:00</time>
      </trkpt>
      <trkpt lat="46.76978" lon="4.89494">
        <ele>182</ele>
        <time>2026-05-14T11:26:20+02:00</time>
      </trkpt>
      <trkpt lat="46.7698" lon="4.89488">
        <ele>181.90039</ele>
        <time>2026-05-14T11:26:21+02:00</time>
      </trkpt>
      <trkpt lat="46.76983" lon="4.89483">
        <ele>181.90039</ele>
        <time>2026-05-14T11:26:22+02:00</time>
      </trkpt>
      <trkpt lat="46.76986" lon="4.89477">
        <ele>181.90039</ele>
        <time>2026-05-14T11:26:23+02:00</time>
      </trkpt>
      <trkpt lat="46.76988" lon="4.89471">
        <ele>181.7998</ele>
        <time>2026-05-14T11:26:24+02:00</time>
      </trkpt>
      <trkpt lat="46.76991" lon="4.89465">
        <ele>181.7002</ele>
        <time>2026-05-14T11:26:25+02:00</time>
      </trkpt>
      <trkpt lat="46.76993" lon="4.89459">
        <ele>181.7002</ele>
        <time>2026-05-14T11:26:26+02:00</time>
      </trkpt>
      <trkpt lat="46.76996" lon="4.89452">
        <ele>181.60059</ele>
        <time>2026-05-14T11:26:27+02:00</time>
      </trkpt>
      <trkpt lat="46.76999" lon="4.89447">
        <ele>181.60059</ele>
        <time>2026-05-14T11:26:28+02:00</time>
      </trkpt>
      <trkpt lat="46.77001" lon="4.89441">
        <ele>181.60059</ele>
        <time>2026-05-14T11:26:29+02:00</time>
      </trkpt>
      <trkpt lat="46.77004" lon="4.89434">
        <ele>181.5</ele>
        <time>2026-05-14T11:26:30+02:00</time>
      </trkpt>
      <trkpt lat="46.77007" lon="4.89428">
        <ele>181.5</ele>
        <time>2026-05-14T11:26:31+02:00</time>
      </trkpt>
      <trkpt lat="46.77009" lon="4.89422">
        <ele>181.5</ele>
        <time>2026-05-14T11:26:32+02:00</time>
      </trkpt>
      <trkpt lat="46.77012" lon="4.89416">
        <ele>181.5</ele>
        <time>2026-05-14T11:26:33+02:00</time>
      </trkpt>
      <trkpt lat="46.77015" lon="4.89411">
        <ele>181.60059</ele>
        <time>2026-05-14T11:26:34+02:00</time>
      </trkpt>
      <trkpt lat="46.77017" lon="4.89406">
        <ele>181.60059</ele>
        <time>2026-05-14T11:26:35+02:00</time>
      </trkpt>
      <trkpt lat="46.77019" lon="4.89401">
        <ele>181.60059</ele>
        <time>2026-05-14T11:26:36+02:00</time>
      </trkpt>
      <trkpt lat="46.77021" lon="4.89395">
        <ele>181.7002</ele>
        <time>2026-05-14T11:26:37+02:00</time>
      </trkpt>
      <trkpt lat="46.77023" lon="4.8939">
        <ele>181.7002</ele>
        <time>2026-05-14T11:26:38+02:00</time>
      </trkpt>
      <trkpt lat="46.77025" lon="4.89385">
        <ele>181.7002</ele>
        <time>2026-05-14T11:26:39+02:00</time>
      </trkpt>
      <trkpt lat="46.77027" lon="4.8938">
        <ele>181.7998</ele>
        <time>2026-05-14T11:26:40+02:00</time>
      </trkpt>
      <trkpt lat="46.77029" lon="4.89375">
        <ele>181.7998</ele>
        <time>2026-05-14T11:26:41+02:00</time>
      </trkpt>
      <trkpt lat="46.77031" lon="4.89371">
        <ele>181.7998</ele>
        <time>2026-05-14T11:26:42+02:00</time>
      </trkpt>
      <trkpt lat="46.77033" lon="4.89367">
        <ele>181.90039</ele>
        <time>2026-05-14T11:26:43+02:00</time>
      </trkpt>
      <trkpt lat="46.77036" lon="4.89365">
        <ele>181.90039</ele>
        <time>2026-05-14T11:26:44+02:00</time>
      </trkpt>
      <trkpt lat="46.7704" lon="4.89364">
        <ele>182</ele>
        <time>2026-05-14T11:26:45+02:00</time>
      </trkpt>
      <trkpt lat="46.77044" lon="4.89363">
        <ele>182</ele>
        <time>2026-05-14T11:26:46+02:00</time>
      </trkpt>
      <trkpt lat="46.77048" lon="4.89362">
        <ele>182</ele>
        <time>2026-05-14T11:26:47+02:00</time>
      </trkpt>
      <trkpt lat="46.77052" lon="4.89361">
        <ele>182</ele>
        <time>2026-05-14T11:26:48+02:00</time>
      </trkpt>
      <trkpt lat="46.77056" lon="4.89359">
        <ele>182.10059</ele>
        <time>2026-05-14T11:26:49+02:00</time>
      </trkpt>
      <trkpt lat="46.7706" lon="4.89358">
        <ele>182.10059</ele>
        <time>2026-05-14T11:26:50+02:00</time>
      </trkpt>
      <trkpt lat="46.77065" lon="4.89357">
        <ele>182.10059</ele>
        <time>2026-05-14T11:26:51+02:00</time>
      </trkpt>
      <trkpt lat="46.7707" lon="4.89356">
        <ele>182.10059</ele>
        <time>2026-05-14T11:26:52+02:00</time>
      </trkpt>
      <trkpt lat="46.77074" lon="4.89355">
        <ele>182</ele>
        <time>2026-05-14T11:26:53+02:00</time>
      </trkpt>
      <trkpt lat="46.77078" lon="4.89353">
        <ele>182</ele>
        <time>2026-05-14T11:26:54+02:00</time>
      </trkpt>
      <trkpt lat="46.77083" lon="4.89352">
        <ele>182</ele>
        <time>2026-05-14T11:26:55+02:00</time>
      </trkpt>
      <trkpt lat="46.77088" lon="4.89351">
        <ele>182</ele>
        <time>2026-05-14T11:26:56+02:00</time>
      </trkpt>
      <trkpt lat="46.77092" lon="4.8935">
        <ele>181.90039</ele>
        <time>2026-05-14T11:26:57+02:00</time>
      </trkpt>
      <trkpt lat="46.77097" lon="4.89348">
        <ele>181.90039</ele>
        <time>2026-05-14T11:26:58+02:00</time>
      </trkpt>
      <trkpt lat="46.77102" lon="4.89347">
        <ele>181.90039</ele>
        <time>2026-05-14T11:26:59+02:00</time>
      </trkpt>
      <trkpt lat="46.77107" lon="4.89345">
        <ele>181.7002</ele>
        <time>2026-05-14T11:27:00+02:00</time>
      </trkpt>
      <trkpt lat="46.77112" lon="4.89345">
        <ele>181.60059</ele>
        <time>2026-05-14T11:27:01+02:00</time>
      </trkpt>
      <trkpt lat="46.77117" lon="4.89344">
        <ele>181.60059</ele>
        <time>2026-05-14T11:27:02+02:00</time>
      </trkpt>
      <trkpt lat="46.77121" lon="4.89343">
        <ele>181.5</ele>
        <time>2026-05-14T11:27:03+02:00</time>
      </trkpt>
      <trkpt lat="46.77126" lon="4.89342">
        <ele>181.5</ele>
        <time>2026-05-14T11:27:04+02:00</time>
      </trkpt>
      <trkpt lat="46.7713" lon="4.89342">
        <ele>181.40039</ele>
        <time>2026-05-14T11:27:05+02:00</time>
      </trkpt>
      <trkpt lat="46.77134" lon="4.89341">
        <ele>181.40039</ele>
        <time>2026-05-14T11:27:06+02:00</time>
      </trkpt>
      <trkpt lat="46.77138" lon="4.8934">
        <ele>181.2998</ele>
        <time>2026-05-14T11:27:07+02:00</time>
      </trkpt>
      <trkpt lat="46.77143" lon="4.89339">
        <ele>181.2998</ele>
        <time>2026-05-14T11:27:08+02:00</time>
      </trkpt>
      <trkpt lat="46.77148" lon="4.89338">
        <ele>181.2998</ele>
        <time>2026-05-14T11:27:09+02:00</time>
      </trkpt>
      <trkpt lat="46.77153" lon="4.89336">
        <ele>181.10059</ele>
        <time>2026-05-14T11:27:10+02:00</time>
      </trkpt>
      <trkpt lat="46.77158" lon="4.89335">
        <ele>181.10059</ele>
        <time>2026-05-14T11:27:11+02:00</time>
      </trkpt>
      <trkpt lat="46.77163" lon="4.89334">
        <ele>181.10059</ele>
        <time>2026-05-14T11:27:12+02:00</time>
      </trkpt>
      <trkpt lat="46.77168" lon="4.89333">
        <ele>181.10059</ele>
        <time>2026-05-14T11:27:13+02:00</time>
      </trkpt>
      <trkpt lat="46.77174" lon="4.89331">
        <ele>181.2002</ele>
        <time>2026-05-14T11:27:14+02:00</time>
      </trkpt>
      <trkpt lat="46.77179" lon="4.8933">
        <ele>181.2002</ele>
        <time>2026-05-14T11:27:15+02:00</time>
      </trkpt>
      <trkpt lat="46.77184" lon="4.89329">
        <ele>181.10059</ele>
        <time>2026-05-14T11:27:16+02:00</time>
      </trkpt>
      <trkpt lat="46.77189" lon="4.89328">
        <ele>181.2002</ele>
        <time>2026-05-14T11:27:17+02:00</time>
      </trkpt>
      <trkpt lat="46.77194" lon="4.89327">
        <ele>181.2002</ele>
        <time>2026-05-14T11:27:18+02:00</time>
      </trkpt>
      <trkpt lat="46.77199" lon="4.89326">
        <ele>181.2998</ele>
        <time>2026-05-14T11:27:19+02:00</time>
      </trkpt>
      <trkpt lat="46.77204" lon="4.89324">
        <ele>181.2998</ele>
        <time>2026-05-14T11:27:20+02:00</time>
      </trkpt>
      <trkpt lat="46.77209" lon="4.89323">
        <ele>181.40039</ele>
        <time>2026-05-14T11:27:21+02:00</time>
      </trkpt>
      <trkpt lat="46.77215" lon="4.89322">
        <ele>181.5</ele>
        <time>2026-05-14T11:27:22+02:00</time>
      </trkpt>
      <trkpt lat="46.77219" lon="4.89321">
        <ele>181.5</ele>
        <time>2026-05-14T11:27:23+02:00</time>
      </trkpt>
      <trkpt lat="46.77224" lon="4.8932">
        <ele>181.5</ele>
        <time>2026-05-14T11:27:24+02:00</time>
      </trkpt>
      <trkpt lat="46.77228" lon="4.89319">
        <ele>181.5</ele>
        <time>2026-05-14T11:27:25+02:00</time>
      </trkpt>
      <trkpt lat="46.77232" lon="4.89317">
        <ele>181.5</ele>
        <time>2026-05-14T11:27:26+02:00</time>
      </trkpt>
      <trkpt lat="46.77237" lon="4.89316">
        <ele>181.60059</ele>
        <time>2026-05-14T11:27:27+02:00</time>
      </trkpt>
      <trkpt lat="46.77241" lon="4.89314">
        <ele>181.60059</ele>
        <time>2026-05-14T11:27:28+02:00</time>
      </trkpt>
      <trkpt lat="46.77245" lon="4.89312">
        <ele>181.60059</ele>
        <time>2026-05-14T11:27:29+02:00</time>
      </trkpt>
      <trkpt lat="46.7725" lon="4.8931">
        <ele>181.60059</ele>
        <time>2026-05-14T11:27:30+02:00</time>
      </trkpt>
      <trkpt lat="46.77252" lon="4.8931">
        <ele>181.60059</ele>
        <time>2026-05-14T11:27:31+02:00</time>
      </trkpt>
      <trkpt lat="46.77258" lon="4.89307">
        <ele>181.60059</ele>
        <time>2026-05-14T11:27:32+02:00</time>
      </trkpt>
      <trkpt lat="46.77263" lon="4.89304">
        <ele>181.60059</ele>
        <time>2026-05-14T11:27:33+02:00</time>
      </trkpt>
      <trkpt lat="46.77267" lon="4.89303">
        <ele>181.5</ele>
        <time>2026-05-14T11:27:34+02:00</time>
      </trkpt>
      <trkpt lat="46.77271" lon="4.89302">
        <ele>181.5</ele>
        <time>2026-05-14T11:27:35+02:00</time>
      </trkpt>
      <trkpt lat="46.77275" lon="4.89301">
        <ele>181.5</ele>
        <time>2026-05-14T11:27:36+02:00</time>
      </trkpt>
      <trkpt lat="46.77279" lon="4.893">
        <ele>181.5</ele>
        <time>2026-05-14T11:27:37+02:00</time>
      </trkpt>
      <trkpt lat="46.77282" lon="4.89299">
        <ele>181.60059</ele>
        <time>2026-05-14T11:27:38+02:00</time>
      </trkpt>
      <trkpt lat="46.77287" lon="4.89299">
        <ele>181.60059</ele>
        <time>2026-05-14T11:27:39+02:00</time>
      </trkpt>
      <trkpt lat="46.7729" lon="4.89298">
        <ele>181.60059</ele>
        <time>2026-05-14T11:27:40+02:00</time>
      </trkpt>
      <trkpt lat="46.77295" lon="4.89295">
        <ele>181.60059</ele>
        <time>2026-05-14T11:27:41+02:00</time>
      </trkpt>
      <trkpt lat="46.77297" lon="4.8929">
        <ele>181.5</ele>
        <time>2026-05-14T11:27:42+02:00</time>
      </trkpt>
      <trkpt lat="46.77299" lon="4.89284">
        <ele>181.2998</ele>
        <time>2026-05-14T11:27:43+02:00</time>
      </trkpt>
      <trkpt lat="46.773" lon="4.89277">
        <ele>181.2002</ele>
        <time>2026-05-14T11:27:44+02:00</time>
      </trkpt>
      <trkpt lat="46.77301" lon="4.8927">
        <ele>181.2002</ele>
        <time>2026-05-14T11:27:45+02:00</time>
      </trkpt>
      <trkpt lat="46.77302" lon="4.89262">
        <ele>181.2002</ele>
        <time>2026-05-14T11:27:46+02:00</time>
      </trkpt>
      <trkpt lat="46.77304" lon="4.89255">
        <ele>181.10059</ele>
        <time>2026-05-14T11:27:47+02:00</time>
      </trkpt>
      <trkpt lat="46.77305" lon="4.89247">
        <ele>181</ele>
        <time>2026-05-14T11:27:48+02:00</time>
      </trkpt>
      <trkpt lat="46.77307" lon="4.89239">
        <ele>180.90039</ele>
        <time>2026-05-14T11:27:49+02:00</time>
      </trkpt>
      <trkpt lat="46.77308" lon="4.89231">
        <ele>180.90039</ele>
        <time>2026-05-14T11:27:50+02:00</time>
      </trkpt>
      <trkpt lat="46.7731" lon="4.89223">
        <ele>180.90039</ele>
        <time>2026-05-14T11:27:51+02:00</time>
      </trkpt>
      <trkpt lat="46.77312" lon="4.89215">
        <ele>180.90039</ele>
        <time>2026-05-14T11:27:52+02:00</time>
      </trkpt>
      <trkpt lat="46.77313" lon="4.89208">
        <ele>180.7998</ele>
        <time>2026-05-14T11:27:53+02:00</time>
      </trkpt>
      <trkpt lat="46.77315" lon="4.892">
        <ele>180.90039</ele>
        <time>2026-05-14T11:27:54+02:00</time>
      </trkpt>
      <trkpt lat="46.77316" lon="4.89193">
        <ele>180.90039</ele>
        <time>2026-05-14T11:27:55+02:00</time>
      </trkpt>
      <trkpt lat="46.77318" lon="4.89186">
        <ele>180.90039</ele>
        <time>2026-05-14T11:27:56+02:00</time>
      </trkpt>
      <trkpt lat="46.77319" lon="4.89178">
        <ele>180.90039</ele>
        <time>2026-05-14T11:27:57+02:00</time>
      </trkpt>
      <trkpt lat="46.7732" lon="4.89171">
        <ele>180.90039</ele>
        <time>2026-05-14T11:27:58+02:00</time>
      </trkpt>
      <trkpt lat="46.77322" lon="4.89164">
        <ele>181</ele>
        <time>2026-05-14T11:27:59+02:00</time>
      </trkpt>
      <trkpt lat="46.77324" lon="4.89157">
        <ele>181</ele>
        <time>2026-05-14T11:28:00+02:00</time>
      </trkpt>
      <trkpt lat="46.77325" lon="4.8915">
        <ele>181</ele>
        <time>2026-05-14T11:28:01+02:00</time>
      </trkpt>
      <trkpt lat="46.77327" lon="4.89143">
        <ele>181.10059</ele>
        <time>2026-05-14T11:28:02+02:00</time>
      </trkpt>
      <trkpt lat="46.77328" lon="4.89135">
        <ele>181.2002</ele>
        <time>2026-05-14T11:28:03+02:00</time>
      </trkpt>
      <trkpt lat="46.7733" lon="4.89127">
        <ele>181.2998</ele>
        <time>2026-05-14T11:28:04+02:00</time>
      </trkpt>
      <trkpt lat="46.77332" lon="4.8912">
        <ele>181.40039</ele>
        <time>2026-05-14T11:28:05+02:00</time>
      </trkpt>
      <trkpt lat="46.77333" lon="4.89112">
        <ele>181.5</ele>
        <time>2026-05-14T11:28:06+02:00</time>
      </trkpt>
      <trkpt lat="46.77335" lon="4.89105">
        <ele>181.5</ele>
        <time>2026-05-14T11:28:07+02:00</time>
      </trkpt>
      <trkpt lat="46.77336" lon="4.89097">
        <ele>181.60059</ele>
        <time>2026-05-14T11:28:08+02:00</time>
      </trkpt>
      <trkpt lat="46.77337" lon="4.8909">
        <ele>181.60059</ele>
        <time>2026-05-14T11:28:09+02:00</time>
      </trkpt>
      <trkpt lat="46.77339" lon="4.89083">
        <ele>181.60059</ele>
        <time>2026-05-14T11:28:10+02:00</time>
      </trkpt>
      <trkpt lat="46.7734" lon="4.89075">
        <ele>181.60059</ele>
        <time>2026-05-14T11:28:11+02:00</time>
      </trkpt>
      <trkpt lat="46.7734" lon="4.89068">
        <ele>181.5</ele>
        <time>2026-05-14T11:28:12+02:00</time>
      </trkpt>
      <trkpt lat="46.77342" lon="4.8906">
        <ele>181.40039</ele>
        <time>2026-05-14T11:28:13+02:00</time>
      </trkpt>
      <trkpt lat="46.77342" lon="4.89053">
        <ele>181.2998</ele>
        <time>2026-05-14T11:28:14+02:00</time>
      </trkpt>
      <trkpt lat="46.77343" lon="4.89046">
        <ele>181.2002</ele>
        <time>2026-05-14T11:28:15+02:00</time>
      </trkpt>
      <trkpt lat="46.77344" lon="4.89038">
        <ele>181.2002</ele>
        <time>2026-05-14T11:28:16+02:00</time>
      </trkpt>
      <trkpt lat="46.77345" lon="4.89031">
        <ele>181.10059</ele>
        <time>2026-05-14T11:28:17+02:00</time>
      </trkpt>
      <trkpt lat="46.77346" lon="4.89024">
        <ele>181</ele>
        <time>2026-05-14T11:28:18+02:00</time>
      </trkpt>
      <trkpt lat="46.77347" lon="4.89017">
        <ele>180.7998</ele>
        <time>2026-05-14T11:28:19+02:00</time>
      </trkpt>
      <trkpt lat="46.77348" lon="4.89009">
        <ele>180.7002</ele>
        <time>2026-05-14T11:28:20+02:00</time>
      </trkpt>
      <trkpt lat="46.77348" lon="4.89002">
        <ele>180.60059</ele>
        <time>2026-05-14T11:28:21+02:00</time>
      </trkpt>
      <trkpt lat="46.77349" lon="4.88995">
        <ele>180.60059</ele>
        <time>2026-05-14T11:28:22+02:00</time>
      </trkpt>
      <trkpt lat="46.77349" lon="4.88988">
        <ele>180.5</ele>
        <time>2026-05-14T11:28:23+02:00</time>
      </trkpt>
      <trkpt lat="46.7735" lon="4.88981">
        <ele>180.5</ele>
        <time>2026-05-14T11:28:24+02:00</time>
      </trkpt>
      <trkpt lat="46.7735" lon="4.88974">
        <ele>180.40039</ele>
        <time>2026-05-14T11:28:25+02:00</time>
      </trkpt>
      <trkpt lat="46.7735" lon="4.88967">
        <ele>180.2998</ele>
        <time>2026-05-14T11:28:26+02:00</time>
      </trkpt>
      <trkpt lat="46.7735" lon="4.8896">
        <ele>180.2002</ele>
        <time>2026-05-14T11:28:27+02:00</time>
      </trkpt>
      <trkpt lat="46.7735" lon="4.88952">
        <ele>180.2002</ele>
        <time>2026-05-14T11:28:28+02:00</time>
      </trkpt>
      <trkpt lat="46.7735" lon="4.88945">
        <ele>180.2002</ele>
        <time>2026-05-14T11:28:29+02:00</time>
      </trkpt>
      <trkpt lat="46.7735" lon="4.88937">
        <ele>180.10059</ele>
        <time>2026-05-14T11:28:30+02:00</time>
      </trkpt>
      <trkpt lat="46.7735" lon="4.88929">
        <ele>180.10059</ele>
        <time>2026-05-14T11:28:31+02:00</time>
      </trkpt>
      <trkpt lat="46.7735" lon="4.88921">
        <ele>180</ele>
        <time>2026-05-14T11:28:32+02:00</time>
      </trkpt>
      <trkpt lat="46.7735" lon="4.88912">
        <ele>180</ele>
        <time>2026-05-14T11:28:33+02:00</time>
      </trkpt>
      <trkpt lat="46.7735" lon="4.88904">
        <ele>180</ele>
        <time>2026-05-14T11:28:34+02:00</time>
      </trkpt>
      <trkpt lat="46.7735" lon="4.88895">
        <ele>180</ele>
        <time>2026-05-14T11:28:35+02:00</time>
      </trkpt>
      <trkpt lat="46.7735" lon="4.88887">
        <ele>180</ele>
        <time>2026-05-14T11:28:36+02:00</time>
      </trkpt>
      <trkpt lat="46.7735" lon="4.88879">
        <ele>180</ele>
        <time>2026-05-14T11:28:37+02:00</time>
      </trkpt>
      <trkpt lat="46.77351" lon="4.8887">
        <ele>180</ele>
        <time>2026-05-14T11:28:38+02:00</time>
      </trkpt>
      <trkpt lat="46.7735" lon="4.88862">
        <ele>179.90039</ele>
        <time>2026-05-14T11:28:39+02:00</time>
      </trkpt>
      <trkpt lat="46.77351" lon="4.88854">
        <ele>179.90039</ele>
        <time>2026-05-14T11:28:40+02:00</time>
      </trkpt>
      <trkpt lat="46.77351" lon="4.8885">
        <ele>179.90039</ele>
        <time>2026-05-14T11:28:41+02:00</time>
      </trkpt>
      <trkpt lat="46.7735" lon="4.88837">
        <ele>179.90039</ele>
        <time>2026-05-14T11:28:42+02:00</time>
      </trkpt>
      <trkpt lat="46.7735" lon="4.88829">
        <ele>179.7998</ele>
        <time>2026-05-14T11:28:43+02:00</time>
      </trkpt>
      <trkpt lat="46.7735" lon="4.8882">
        <ele>179.7998</ele>
        <time>2026-05-14T11:28:44+02:00</time>
      </trkpt>
      <trkpt lat="46.7735" lon="4.88812">
        <ele>179.7002</ele>
        <time>2026-05-14T11:28:45+02:00</time>
      </trkpt>
      <trkpt lat="46.7735" lon="4.88803">
        <ele>179.60059</ele>
        <time>2026-05-14T11:28:46+02:00</time>
      </trkpt>
      <trkpt lat="46.7735" lon="4.88795">
        <ele>179.5</ele>
        <time>2026-05-14T11:28:47+02:00</time>
      </trkpt>
      <trkpt lat="46.7735" lon="4.88786">
        <ele>179.40039</ele>
        <time>2026-05-14T11:28:48+02:00</time>
      </trkpt>
      <trkpt lat="46.7735" lon="4.88778">
        <ele>179.2998</ele>
        <time>2026-05-14T11:28:49+02:00</time>
      </trkpt>
      <trkpt lat="46.77351" lon="4.8877">
        <ele>179.2002</ele>
        <time>2026-05-14T11:28:50+02:00</time>
      </trkpt>
      <trkpt lat="46.77352" lon="4.88762">
        <ele>179.10059</ele>
        <time>2026-05-14T11:28:51+02:00</time>
      </trkpt>
      <trkpt lat="46.77352" lon="4.88754">
        <ele>179</ele>
        <time>2026-05-14T11:28:52+02:00</time>
      </trkpt>
      <trkpt lat="46.77352" lon="4.88746">
        <ele>179</ele>
        <time>2026-05-14T11:28:53+02:00</time>
      </trkpt>
      <trkpt lat="46.77352" lon="4.88738">
        <ele>179</ele>
        <time>2026-05-14T11:28:54+02:00</time>
      </trkpt>
      <trkpt lat="46.77351" lon="4.88731">
        <ele>179</ele>
        <time>2026-05-14T11:28:55+02:00</time>
      </trkpt>
      <trkpt lat="46.77351" lon="4.88725">
        <ele>179</ele>
        <time>2026-05-14T11:28:56+02:00</time>
      </trkpt>
      <trkpt lat="46.77351" lon="4.88718">
        <ele>179</ele>
        <time>2026-05-14T11:28:57+02:00</time>
      </trkpt>
      <trkpt lat="46.77351" lon="4.88712">
        <ele>179</ele>
        <time>2026-05-14T11:28:58+02:00</time>
      </trkpt>
      <trkpt lat="46.77352" lon="4.88706">
        <ele>178.90039</ele>
        <time>2026-05-14T11:28:59+02:00</time>
      </trkpt>
      <trkpt lat="46.77352" lon="4.887">
        <ele>178.90039</ele>
        <time>2026-05-14T11:29:00+02:00</time>
      </trkpt>
      <trkpt lat="46.77353" lon="4.88697">
        <ele>178.90039</ele>
        <time>2026-05-14T11:29:01+02:00</time>
      </trkpt>
      <trkpt lat="46.77351" lon="4.8869">
        <ele>178.90039</ele>
        <time>2026-05-14T11:29:02+02:00</time>
      </trkpt>
      <trkpt lat="46.77348" lon="4.88688">
        <ele>178.90039</ele>
        <time>2026-05-14T11:29:03+02:00</time>
      </trkpt>
      <trkpt lat="46.77344" lon="4.88688">
        <ele>178.90039</ele>
        <time>2026-05-14T11:29:04+02:00</time>
      </trkpt>
      <trkpt lat="46.7734" lon="4.88688">
        <ele>178.90039</ele>
        <time>2026-05-14T11:29:05+02:00</time>
      </trkpt>
      <trkpt lat="46.77335" lon="4.88688">
        <ele>178.90039</ele>
        <time>2026-05-14T11:29:06+02:00</time>
      </trkpt>
      <trkpt lat="46.77331" lon="4.88687">
        <ele>178.90039</ele>
        <time>2026-05-14T11:29:07+02:00</time>
      </trkpt>
      <trkpt lat="46.77326" lon="4.88686">
        <ele>178.90039</ele>
        <time>2026-05-14T11:29:08+02:00</time>
      </trkpt>
      <trkpt lat="46.77322" lon="4.88683">
        <ele>178.90039</ele>
        <time>2026-05-14T11:29:09+02:00</time>
      </trkpt>
      <trkpt lat="46.77317" lon="4.88681">
        <ele>178.7998</ele>
        <time>2026-05-14T11:29:10+02:00</time>
      </trkpt>
      <trkpt lat="46.77312" lon="4.8868">
        <ele>178.7998</ele>
        <time>2026-05-14T11:29:11+02:00</time>
      </trkpt>
      <trkpt lat="46.77307" lon="4.88679">
        <ele>178.7998</ele>
        <time>2026-05-14T11:29:12+02:00</time>
      </trkpt>
      <trkpt lat="46.77302" lon="4.88678">
        <ele>178.7002</ele>
        <time>2026-05-14T11:29:13+02:00</time>
      </trkpt>
      <trkpt lat="46.77297" lon="4.88676">
        <ele>178.7998</ele>
        <time>2026-05-14T11:29:14+02:00</time>
      </trkpt>
      <trkpt lat="46.77293" lon="4.88673">
        <ele>178.7002</ele>
        <time>2026-05-14T11:29:15+02:00</time>
      </trkpt>
      <trkpt lat="46.77289" lon="4.88669">
        <ele>178.7002</ele>
        <time>2026-05-14T11:29:16+02:00</time>
      </trkpt>
      <trkpt lat="46.77284" lon="4.88667">
        <ele>178.7002</ele>
        <time>2026-05-14T11:29:17+02:00</time>
      </trkpt>
      <trkpt lat="46.77282" lon="4.88666">
        <ele>178.7002</ele>
        <time>2026-05-14T11:29:18+02:00</time>
      </trkpt>
      <trkpt lat="46.77275" lon="4.88664">
        <ele>178.7002</ele>
        <time>2026-05-14T11:29:19+02:00</time>
      </trkpt>
      <trkpt lat="46.7727" lon="4.88662">
        <ele>178.60059</ele>
        <time>2026-05-14T11:29:20+02:00</time>
      </trkpt>
      <trkpt lat="46.77265" lon="4.8866">
        <ele>178.60059</ele>
        <time>2026-05-14T11:29:21+02:00</time>
      </trkpt>
      <trkpt lat="46.7726" lon="4.88657">
        <ele>178.60059</ele>
        <time>2026-05-14T11:29:22+02:00</time>
      </trkpt>
      <trkpt lat="46.77256" lon="4.88655">
        <ele>178.60059</ele>
        <time>2026-05-14T11:29:23+02:00</time>
      </trkpt>
      <trkpt lat="46.77251" lon="4.88653">
        <ele>178.60059</ele>
        <time>2026-05-14T11:29:24+02:00</time>
      </trkpt>
      <trkpt lat="46.77246" lon="4.88651">
        <ele>178.5</ele>
        <time>2026-05-14T11:29:25+02:00</time>
      </trkpt>
      <trkpt lat="46.77242" lon="4.88649">
        <ele>178.40039</ele>
        <time>2026-05-14T11:29:26+02:00</time>
      </trkpt>
      <trkpt lat="46.77237" lon="4.88647">
        <ele>178.40039</ele>
        <time>2026-05-14T11:29:27+02:00</time>
      </trkpt>
      <trkpt lat="46.77232" lon="4.88645">
        <ele>178.40039</ele>
        <time>2026-05-14T11:29:28+02:00</time>
      </trkpt>
      <trkpt lat="46.77228" lon="4.88643">
        <ele>178.40039</ele>
        <time>2026-05-14T11:29:29+02:00</time>
      </trkpt>
      <trkpt lat="46.77223" lon="4.8864">
        <ele>178.2998</ele>
        <time>2026-05-14T11:29:30+02:00</time>
      </trkpt>
      <trkpt lat="46.77219" lon="4.88638">
        <ele>178.2998</ele>
        <time>2026-05-14T11:29:31+02:00</time>
      </trkpt>
      <trkpt lat="46.77215" lon="4.88636">
        <ele>178.2998</ele>
        <time>2026-05-14T11:29:32+02:00</time>
      </trkpt>
      <trkpt lat="46.77211" lon="4.88633">
        <ele>178.10059</ele>
        <time>2026-05-14T11:29:33+02:00</time>
      </trkpt>
      <trkpt lat="46.77207" lon="4.88631">
        <ele>178.10059</ele>
        <time>2026-05-14T11:29:34+02:00</time>
      </trkpt>
      <trkpt lat="46.77203" lon="4.88628">
        <ele>178.10059</ele>
        <time>2026-05-14T11:29:35+02:00</time>
      </trkpt>
      <trkpt lat="46.77199" lon="4.88625">
        <ele>177.90039</ele>
        <time>2026-05-14T11:29:36+02:00</time>
      </trkpt>
      <trkpt lat="46.77197" lon="4.8862">
        <ele>177.90039</ele>
        <time>2026-05-14T11:29:37+02:00</time>
      </trkpt>
      <trkpt lat="46.77195" lon="4.88614">
        <ele>177.7002</ele>
        <time>2026-05-14T11:29:38+02:00</time>
      </trkpt>
      <trkpt lat="46.77194" lon="4.88608">
        <ele>177.5</ele>
        <time>2026-05-14T11:29:39+02:00</time>
      </trkpt>
      <trkpt lat="46.77193" lon="4.88602">
        <ele>177.5</ele>
        <time>2026-05-14T11:29:40+02:00</time>
      </trkpt>
      <trkpt lat="46.77193" lon="4.88594">
        <ele>177.2998</ele>
        <time>2026-05-14T11:29:41+02:00</time>
      </trkpt>
      <trkpt lat="46.77194" lon="4.88587">
        <ele>177.2002</ele>
        <time>2026-05-14T11:29:42+02:00</time>
      </trkpt>
      <trkpt lat="46.77194" lon="4.88579">
        <ele>177</ele>
        <time>2026-05-14T11:29:43+02:00</time>
      </trkpt>
      <trkpt lat="46.77195" lon="4.88571">
        <ele>176.90039</ele>
        <time>2026-05-14T11:29:44+02:00</time>
      </trkpt>
      <trkpt lat="46.77195" lon="4.88564">
        <ele>176.90039</ele>
        <time>2026-05-14T11:29:45+02:00</time>
      </trkpt>
      <trkpt lat="46.77196" lon="4.88556">
        <ele>176.7998</ele>
        <time>2026-05-14T11:29:46+02:00</time>
      </trkpt>
      <trkpt lat="46.77196" lon="4.88548">
        <ele>176.7998</ele>
        <time>2026-05-14T11:29:47+02:00</time>
      </trkpt>
      <trkpt lat="46.77197" lon="4.8854">
        <ele>176.7002</ele>
        <time>2026-05-14T11:29:48+02:00</time>
      </trkpt>
      <trkpt lat="46.77197" lon="4.88532">
        <ele>176.7002</ele>
        <time>2026-05-14T11:29:49+02:00</time>
      </trkpt>
      <trkpt lat="46.77198" lon="4.88525">
        <ele>176.7002</ele>
        <time>2026-05-14T11:29:50+02:00</time>
      </trkpt>
      <trkpt lat="46.77198" lon="4.88517">
        <ele>176.60059</ele>
        <time>2026-05-14T11:29:51+02:00</time>
      </trkpt>
      <trkpt lat="46.77199" lon="4.88509">
        <ele>176.60059</ele>
        <time>2026-05-14T11:29:52+02:00</time>
      </trkpt>
      <trkpt lat="46.77199" lon="4.88501">
        <ele>176.5</ele>
        <time>2026-05-14T11:29:53+02:00</time>
      </trkpt>
      <trkpt lat="46.772" lon="4.88493">
        <ele>176.40039</ele>
        <time>2026-05-14T11:29:54+02:00</time>
      </trkpt>
      <trkpt lat="46.77201" lon="4.88486">
        <ele>176.40039</ele>
        <time>2026-05-14T11:29:55+02:00</time>
      </trkpt>
      <trkpt lat="46.77202" lon="4.88478">
        <ele>176.2998</ele>
        <time>2026-05-14T11:29:56+02:00</time>
      </trkpt>
      <trkpt lat="46.77203" lon="4.88471">
        <ele>176.10059</ele>
        <time>2026-05-14T11:29:57+02:00</time>
      </trkpt>
      <trkpt lat="46.77204" lon="4.88464">
        <ele>176.10059</ele>
        <time>2026-05-14T11:29:58+02:00</time>
      </trkpt>
      <trkpt lat="46.77205" lon="4.88457">
        <ele>176</ele>
        <time>2026-05-14T11:29:59+02:00</time>
      </trkpt>
      <trkpt lat="46.77205" lon="4.8845">
        <ele>175.90039</ele>
        <time>2026-05-14T11:30:00+02:00</time>
      </trkpt>
      <trkpt lat="46.77207" lon="4.88443">
        <ele>175.7998</ele>
        <time>2026-05-14T11:30:01+02:00</time>
      </trkpt>
      <trkpt lat="46.77208" lon="4.88435">
        <ele>175.7002</ele>
        <time>2026-05-14T11:30:02+02:00</time>
      </trkpt>
      <trkpt lat="46.77208" lon="4.88428">
        <ele>175.60059</ele>
        <time>2026-05-14T11:30:03+02:00</time>
      </trkpt>
      <trkpt lat="46.7721" lon="4.88421">
        <ele>175.5</ele>
        <time>2026-05-14T11:30:04+02:00</time>
      </trkpt>
      <trkpt lat="46.7721" lon="4.88417">
        <ele>175.40039</ele>
        <time>2026-05-14T11:30:05+02:00</time>
      </trkpt>
      <trkpt lat="46.77212" lon="4.88406">
        <ele>175.2998</ele>
        <time>2026-05-14T11:30:06+02:00</time>
      </trkpt>
      <trkpt lat="46.77212" lon="4.88398">
        <ele>175.2002</ele>
        <time>2026-05-14T11:30:07+02:00</time>
      </trkpt>
      <trkpt lat="46.77213" lon="4.88391">
        <ele>175.2002</ele>
        <time>2026-05-14T11:30:08+02:00</time>
      </trkpt>
      <trkpt lat="46.77214" lon="4.88384">
        <ele>175.10059</ele>
        <time>2026-05-14T11:30:09+02:00</time>
      </trkpt>
      <trkpt lat="46.77215" lon="4.88376">
        <ele>175.10059</ele>
        <time>2026-05-14T11:30:10+02:00</time>
      </trkpt>
      <trkpt lat="46.77216" lon="4.88369">
        <ele>175.10059</ele>
        <time>2026-05-14T11:30:11+02:00</time>
      </trkpt>
      <trkpt lat="46.77217" lon="4.88361">
        <ele>175</ele>
        <time>2026-05-14T11:30:12+02:00</time>
      </trkpt>
      <trkpt lat="46.77218" lon="4.88354">
        <ele>175</ele>
        <time>2026-05-14T11:30:13+02:00</time>
      </trkpt>
      <trkpt lat="46.77219" lon="4.88346">
        <ele>175</ele>
        <time>2026-05-14T11:30:14+02:00</time>
      </trkpt>
      <trkpt lat="46.7722" lon="4.88338">
        <ele>174.90039</ele>
        <time>2026-05-14T11:30:15+02:00</time>
      </trkpt>
      <trkpt lat="46.77221" lon="4.8833">
        <ele>175</ele>
        <time>2026-05-14T11:30:16+02:00</time>
      </trkpt>
      <trkpt lat="46.77221" lon="4.88322">
        <ele>175</ele>
        <time>2026-05-14T11:30:17+02:00</time>
      </trkpt>
      <trkpt lat="46.77222" lon="4.88314">
        <ele>175</ele>
        <time>2026-05-14T11:30:18+02:00</time>
      </trkpt>
      <trkpt lat="46.77223" lon="4.88306">
        <ele>175</ele>
        <time>2026-05-14T11:30:19+02:00</time>
      </trkpt>
      <trkpt lat="46.77223" lon="4.88298">
        <ele>175</ele>
        <time>2026-05-14T11:30:20+02:00</time>
      </trkpt>
      <trkpt lat="46.77223" lon="4.88293">
        <ele>175</ele>
        <time>2026-05-14T11:30:21+02:00</time>
      </trkpt>
      <trkpt lat="46.77224" lon="4.88281">
        <ele>175</ele>
        <time>2026-05-14T11:30:22+02:00</time>
      </trkpt>
      <trkpt lat="46.77225" lon="4.88273">
        <ele>175</ele>
        <time>2026-05-14T11:30:23+02:00</time>
      </trkpt>
      <trkpt lat="46.77225" lon="4.88264">
        <ele>175</ele>
        <time>2026-05-14T11:30:24+02:00</time>
      </trkpt>
      <trkpt lat="46.77226" lon="4.88256">
        <ele>175</ele>
        <time>2026-05-14T11:30:25+02:00</time>
      </trkpt>
      <trkpt lat="46.77226" lon="4.88248">
        <ele>175</ele>
        <time>2026-05-14T11:30:26+02:00</time>
      </trkpt>
      <trkpt lat="46.77227" lon="4.8824">
        <ele>175.10059</ele>
        <time>2026-05-14T11:30:27+02:00</time>
      </trkpt>
      <trkpt lat="46.77228" lon="4.88233">
        <ele>175</ele>
        <time>2026-05-14T11:30:28+02:00</time>
      </trkpt>
      <trkpt lat="46.77228" lon="4.88226">
        <ele>175</ele>
        <time>2026-05-14T11:30:29+02:00</time>
      </trkpt>
      <trkpt lat="46.77228" lon="4.88219">
        <ele>174.7998</ele>
        <time>2026-05-14T11:30:30+02:00</time>
      </trkpt>
      <trkpt lat="46.77228" lon="4.88212">
        <ele>174.7002</ele>
        <time>2026-05-14T11:30:31+02:00</time>
      </trkpt>
      <trkpt lat="46.77228" lon="4.88206">
        <ele>174.7002</ele>
        <time>2026-05-14T11:30:32+02:00</time>
      </trkpt>
      <trkpt lat="46.77227" lon="4.882">
        <ele>174.60059</ele>
        <time>2026-05-14T11:30:33+02:00</time>
      </trkpt>
      <trkpt lat="46.77227" lon="4.88194">
        <ele>174.5</ele>
        <time>2026-05-14T11:30:34+02:00</time>
      </trkpt>
      <trkpt lat="46.77226" lon="4.88187">
        <ele>174.40039</ele>
        <time>2026-05-14T11:30:35+02:00</time>
      </trkpt>
      <trkpt lat="46.77225" lon="4.88179">
        <ele>174.40039</ele>
        <time>2026-05-14T11:30:36+02:00</time>
      </trkpt>
      <trkpt lat="46.77224" lon="4.88171">
        <ele>174.40039</ele>
        <time>2026-05-14T11:30:37+02:00</time>
      </trkpt>
      <trkpt lat="46.77223" lon="4.88163">
        <ele>174.40039</ele>
        <time>2026-05-14T11:30:38+02:00</time>
      </trkpt>
      <trkpt lat="46.77222" lon="4.88154">
        <ele>174.5</ele>
        <time>2026-05-14T11:30:39+02:00</time>
      </trkpt>
      <trkpt lat="46.77221" lon="4.88145">
        <ele>174.7002</ele>
        <time>2026-05-14T11:30:40+02:00</time>
      </trkpt>
      <trkpt lat="46.7722" lon="4.88136">
        <ele>175.2002</ele>
        <time>2026-05-14T11:30:41+02:00</time>
      </trkpt>
      <trkpt lat="46.77218" lon="4.88128">
        <ele>175.2002</ele>
        <time>2026-05-14T11:30:42+02:00</time>
      </trkpt>
      <trkpt lat="46.77217" lon="4.88119">
        <ele>175.60059</ele>
        <time>2026-05-14T11:30:43+02:00</time>
      </trkpt>
      <trkpt lat="46.77216" lon="4.8811">
        <ele>175.7998</ele>
        <time>2026-05-14T11:30:44+02:00</time>
      </trkpt>
      <trkpt lat="46.77216" lon="4.88102">
        <ele>175.7998</ele>
        <time>2026-05-14T11:30:45+02:00</time>
      </trkpt>
      <trkpt lat="46.77215" lon="4.88094">
        <ele>176.10059</ele>
        <time>2026-05-14T11:30:46+02:00</time>
      </trkpt>
      <trkpt lat="46.77215" lon="4.88086">
        <ele>176.2998</ele>
        <time>2026-05-14T11:30:47+02:00</time>
      </trkpt>
      <trkpt lat="46.77213" lon="4.88078">
        <ele>176.40039</ele>
        <time>2026-05-14T11:30:48+02:00</time>
      </trkpt>
      <trkpt lat="46.77213" lon="4.88071">
        <ele>176.60059</ele>
        <time>2026-05-14T11:30:49+02:00</time>
      </trkpt>
      <trkpt lat="46.77212" lon="4.88064">
        <ele>176.7998</ele>
        <time>2026-05-14T11:30:50+02:00</time>
      </trkpt>
      <trkpt lat="46.77212" lon="4.88057">
        <ele>177.10059</ele>
        <time>2026-05-14T11:30:51+02:00</time>
      </trkpt>
      <trkpt lat="46.77211" lon="4.88051">
        <ele>177.10059</ele>
        <time>2026-05-14T11:30:52+02:00</time>
      </trkpt>
      <trkpt lat="46.7721" lon="4.88045">
        <ele>177.5</ele>
        <time>2026-05-14T11:30:53+02:00</time>
      </trkpt>
      <trkpt lat="46.7721" lon="4.88039">
        <ele>177.7998</ele>
        <time>2026-05-14T11:30:54+02:00</time>
      </trkpt>
      <trkpt lat="46.77208" lon="4.88033">
        <ele>177.60059</ele>
        <time>2026-05-14T11:30:55+02:00</time>
      </trkpt>
      <trkpt lat="46.77208" lon="4.88027">
        <ele>177.60059</ele>
        <time>2026-05-14T11:30:56+02:00</time>
      </trkpt>
      <trkpt lat="46.77208" lon="4.88024">
        <ele>177.2002</ele>
        <time>2026-05-14T11:30:57+02:00</time>
      </trkpt>
      <trkpt lat="46.77208" lon="4.88013">
        <ele>176.40039</ele>
        <time>2026-05-14T11:30:58+02:00</time>
      </trkpt>
      <trkpt lat="46.77208" lon="4.88006">
        <ele>175.60059</ele>
        <time>2026-05-14T11:30:59+02:00</time>
      </trkpt>
      <trkpt lat="46.77208" lon="4.87999">
        <ele>175.60059</ele>
        <time>2026-05-14T11:31:00+02:00</time>
      </trkpt>
      <trkpt lat="46.7721" lon="4.87991">
        <ele>173.7998</ele>
        <time>2026-05-14T11:31:01+02:00</time>
      </trkpt>
      <trkpt lat="46.77211" lon="4.87984">
        <ele>173.7002</ele>
        <time>2026-05-14T11:31:02+02:00</time>
      </trkpt>
      <trkpt lat="46.77212" lon="4.87976">
        <ele>173.7002</ele>
        <time>2026-05-14T11:31:03+02:00</time>
      </trkpt>
      <trkpt lat="46.77212" lon="4.87968">
        <ele>173.7002</ele>
        <time>2026-05-14T11:31:04+02:00</time>
      </trkpt>
      <trkpt lat="46.77213" lon="4.87961">
        <ele>173.7002</ele>
        <time>2026-05-14T11:31:05+02:00</time>
      </trkpt>
      <trkpt lat="46.77215" lon="4.87954">
        <ele>172.90039</ele>
        <time>2026-05-14T11:31:06+02:00</time>
      </trkpt>
      <trkpt lat="46.77216" lon="4.87947">
        <ele>173.2002</ele>
        <time>2026-05-14T11:31:07+02:00</time>
      </trkpt>
      <trkpt lat="46.77218" lon="4.8794">
        <ele>173.2002</ele>
        <time>2026-05-14T11:31:08+02:00</time>
      </trkpt>
      <trkpt lat="46.77219" lon="4.87934">
        <ele>173.60059</ele>
        <time>2026-05-14T11:31:09+02:00</time>
      </trkpt>
      <trkpt lat="46.77221" lon="4.87928">
        <ele>173.90039</ele>
        <time>2026-05-14T11:31:10+02:00</time>
      </trkpt>
      <trkpt lat="46.77222" lon="4.87922">
        <ele>173.90039</ele>
        <time>2026-05-14T11:31:11+02:00</time>
      </trkpt>
      <trkpt lat="46.77223" lon="4.87917">
        <ele>174.60059</ele>
        <time>2026-05-14T11:31:12+02:00</time>
      </trkpt>
      <trkpt lat="46.77225" lon="4.87912">
        <ele>175.60059</ele>
        <time>2026-05-14T11:31:13+02:00</time>
      </trkpt>
      <trkpt lat="46.77226" lon="4.87909">
        <ele>175.60059</ele>
        <time>2026-05-14T11:31:14+02:00</time>
      </trkpt>
      <trkpt lat="46.77229" lon="4.87901">
        <ele>175.2998</ele>
        <time>2026-05-14T11:31:15+02:00</time>
      </trkpt>
      <trkpt lat="46.77231" lon="4.87895">
        <ele>175.2998</ele>
        <time>2026-05-14T11:31:16+02:00</time>
      </trkpt>
      <trkpt lat="46.77232" lon="4.87889">
        <ele>175.2998</ele>
        <time>2026-05-14T11:31:17+02:00</time>
      </trkpt>
      <trkpt lat="46.77234" lon="4.87884">
        <ele>174.2998</ele>
        <time>2026-05-14T11:31:18+02:00</time>
      </trkpt>
      <trkpt lat="46.77236" lon="4.87878">
        <ele>174.40039</ele>
        <time>2026-05-14T11:31:19+02:00</time>
      </trkpt>
      <trkpt lat="46.77237" lon="4.87872">
        <ele>174.40039</ele>
        <time>2026-05-14T11:31:20+02:00</time>
      </trkpt>
      <trkpt lat="46.77239" lon="4.87866">
        <ele>173.90039</ele>
        <time>2026-05-14T11:31:21+02:00</time>
      </trkpt>
      <trkpt lat="46.77241" lon="4.8786">
        <ele>174</ele>
        <time>2026-05-14T11:31:22+02:00</time>
      </trkpt>
      <trkpt lat="46.77242" lon="4.87853">
        <ele>174</ele>
        <time>2026-05-14T11:31:23+02:00</time>
      </trkpt>
      <trkpt lat="46.77244" lon="4.87847">
        <ele>173.60059</ele>
        <time>2026-05-14T11:31:24+02:00</time>
      </trkpt>
      <trkpt lat="46.77246" lon="4.87841">
        <ele>173.7002</ele>
        <time>2026-05-14T11:31:25+02:00</time>
      </trkpt>
      <trkpt lat="46.77248" lon="4.87835">
        <ele>173.90039</ele>
        <time>2026-05-14T11:31:26+02:00</time>
      </trkpt>
      <trkpt lat="46.7725" lon="4.8783">
        <ele>173.60059</ele>
        <time>2026-05-14T11:31:27+02:00</time>
      </trkpt>
      <trkpt lat="46.77251" lon="4.87828">
        <ele>173.60059</ele>
        <time>2026-05-14T11:31:28+02:00</time>
      </trkpt>
      <trkpt lat="46.77253" lon="4.8782">
        <ele>173.7998</ele>
        <time>2026-05-14T11:31:29+02:00</time>
      </trkpt>
      <trkpt lat="46.77255" lon="4.87816">
        <ele>173.90039</ele>
        <time>2026-05-14T11:31:30+02:00</time>
      </trkpt>
      <trkpt lat="46.77257" lon="4.87811">
        <ele>173.7002</ele>
        <time>2026-05-14T11:31:31+02:00</time>
      </trkpt>
      <trkpt lat="46.77258" lon="4.87808">
        <ele>173.7998</ele>
        <time>2026-05-14T11:31:32+02:00</time>
      </trkpt>
      <trkpt lat="46.7726" lon="4.87806">
        <ele>173.7998</ele>
        <time>2026-05-14T11:31:33+02:00</time>
      </trkpt>
      <trkpt lat="46.77261" lon="4.87804">
        <ele>173.7998</ele>
        <time>2026-05-14T11:31:34+02:00</time>
      </trkpt>
      <trkpt lat="46.77261" lon="4.87803">
        <ele>173.7998</ele>
        <time>2026-05-14T11:31:35+02:00</time>
      </trkpt>
      <trkpt lat="46.77261" lon="4.87803">
        <ele>173.7998</ele>
        <time>2026-05-14T11:31:36+02:00</time>
      </trkpt>
      <trkpt lat="46.77261" lon="4.87803">
        <ele>173.7998</ele>
        <time>2026-05-14T11:31:37+02:00</time>
      </trkpt>
      <trkpt lat="46.77261" lon="4.87803">
        <ele>173.7998</ele>
        <time>2026-05-14T11:31:38+02:00</time>
      </trkpt>
      <trkpt lat="46.77273" lon="4.87788">
        <ele>173.7002</ele>
        <time>2026-05-14T11:36:55+02:00</time>
      </trkpt>
      <trkpt lat="46.77276" lon="4.87787">
        <ele>173.7002</ele>
        <time>2026-05-14T11:36:56+02:00</time>
      </trkpt>
      <trkpt lat="46.77279" lon="4.87787">
        <ele>173.7002</ele>
        <time>2026-05-14T11:36:57+02:00</time>
      </trkpt>
      <trkpt lat="46.77282" lon="4.87787">
        <ele>173.5</ele>
        <time>2026-05-14T11:36:58+02:00</time>
      </trkpt>
      <trkpt lat="46.77286" lon="4.87788">
        <ele>173.2002</ele>
        <time>2026-05-14T11:36:59+02:00</time>
      </trkpt>
      <trkpt lat="46.7729" lon="4.87788">
        <ele>173.2002</ele>
        <time>2026-05-14T11:37:00+02:00</time>
      </trkpt>
      <trkpt lat="46.77294" lon="4.87789">
        <ele>172.7998</ele>
        <time>2026-05-14T11:37:01+02:00</time>
      </trkpt>
      <trkpt lat="46.77298" lon="4.87791">
        <ele>172.60059</ele>
        <time>2026-05-14T11:37:02+02:00</time>
      </trkpt>
      <trkpt lat="46.77302" lon="4.87792">
        <ele>172.60059</ele>
        <time>2026-05-14T11:37:03+02:00</time>
      </trkpt>
      <trkpt lat="46.77306" lon="4.87792">
        <ele>172.60059</ele>
        <time>2026-05-14T11:37:04+02:00</time>
      </trkpt>
      <trkpt lat="46.77311" lon="4.87793">
        <ele>172.5</ele>
        <time>2026-05-14T11:37:05+02:00</time>
      </trkpt>
      <trkpt lat="46.77315" lon="4.87794">
        <ele>172.5</ele>
        <time>2026-05-14T11:37:06+02:00</time>
      </trkpt>
      <trkpt lat="46.7732" lon="4.87796">
        <ele>172.5</ele>
        <time>2026-05-14T11:37:07+02:00</time>
      </trkpt>
      <trkpt lat="46.77324" lon="4.87797">
        <ele>172.5</ele>
        <time>2026-05-14T11:37:08+02:00</time>
      </trkpt>
      <trkpt lat="46.77329" lon="4.87799">
        <ele>172.5</ele>
        <time>2026-05-14T11:37:09+02:00</time>
      </trkpt>
      <trkpt lat="46.77334" lon="4.878">
        <ele>172.5</ele>
        <time>2026-05-14T11:37:10+02:00</time>
      </trkpt>
      <trkpt lat="46.77339" lon="4.87801">
        <ele>172.5</ele>
        <time>2026-05-14T11:37:11+02:00</time>
      </trkpt>
      <trkpt lat="46.77344" lon="4.87803">
        <ele>172.5</ele>
        <time>2026-05-14T11:37:12+02:00</time>
      </trkpt>
      <trkpt lat="46.77349" lon="4.87804">
        <ele>172.5</ele>
        <time>2026-05-14T11:37:13+02:00</time>
      </trkpt>
      <trkpt lat="46.77354" lon="4.87806">
        <ele>172.5</ele>
        <time>2026-05-14T11:37:14+02:00</time>
      </trkpt>
      <trkpt lat="46.77359" lon="4.87807">
        <ele>172.5</ele>
        <time>2026-05-14T11:37:15+02:00</time>
      </trkpt>
      <trkpt lat="46.77364" lon="4.87808">
        <ele>172.5</ele>
        <time>2026-05-14T11:37:16+02:00</time>
      </trkpt>
      <trkpt lat="46.77369" lon="4.87809">
        <ele>172.5</ele>
        <time>2026-05-14T11:37:17+02:00</time>
      </trkpt>
      <trkpt lat="46.77374" lon="4.87811">
        <ele>172.60059</ele>
        <time>2026-05-14T11:37:18+02:00</time>
      </trkpt>
      <trkpt lat="46.77379" lon="4.87813">
        <ele>172.60059</ele>
        <time>2026-05-14T11:37:19+02:00</time>
      </trkpt>
      <trkpt lat="46.77384" lon="4.87814">
        <ele>172.60059</ele>
        <time>2026-05-14T11:37:20+02:00</time>
      </trkpt>
      <trkpt lat="46.77388" lon="4.87816">
        <ele>172.60059</ele>
        <time>2026-05-14T11:37:21+02:00</time>
      </trkpt>
      <trkpt lat="46.77392" lon="4.87817">
        <ele>172.60059</ele>
        <time>2026-05-14T11:37:22+02:00</time>
      </trkpt>
      <trkpt lat="46.77397" lon="4.87818">
        <ele>172.60059</ele>
        <time>2026-05-14T11:37:23+02:00</time>
      </trkpt>
      <trkpt lat="46.77401" lon="4.87819">
        <ele>172.60059</ele>
        <time>2026-05-14T11:37:24+02:00</time>
      </trkpt>
      <trkpt lat="46.77406" lon="4.8782">
        <ele>172.60059</ele>
        <time>2026-05-14T11:37:25+02:00</time>
      </trkpt>
      <trkpt lat="46.7741" lon="4.87821">
        <ele>172.60059</ele>
        <time>2026-05-14T11:37:26+02:00</time>
      </trkpt>
      <trkpt lat="46.77415" lon="4.87823">
        <ele>172.60059</ele>
        <time>2026-05-14T11:37:27+02:00</time>
      </trkpt>
      <trkpt lat="46.7742" lon="4.87824">
        <ele>172.60059</ele>
        <time>2026-05-14T11:37:28+02:00</time>
      </trkpt>
      <trkpt lat="46.77422" lon="4.87824">
        <ele>172.60059</ele>
        <time>2026-05-14T11:37:29+02:00</time>
      </trkpt>
      <trkpt lat="46.77429" lon="4.87827">
        <ele>172.60059</ele>
        <time>2026-05-14T11:37:30+02:00</time>
      </trkpt>
      <trkpt lat="46.77434" lon="4.87828">
        <ele>172.60059</ele>
        <time>2026-05-14T11:37:31+02:00</time>
      </trkpt>
      <trkpt lat="46.77439" lon="4.87829">
        <ele>172.60059</ele>
        <time>2026-05-14T11:37:32+02:00</time>
      </trkpt>
      <trkpt lat="46.77445" lon="4.87831">
        <ele>172.60059</ele>
        <time>2026-05-14T11:37:33+02:00</time>
      </trkpt>
      <trkpt lat="46.7745" lon="4.87833">
        <ele>172.5</ele>
        <time>2026-05-14T11:37:34+02:00</time>
      </trkpt>
      <trkpt lat="46.77455" lon="4.87835">
        <ele>172.5</ele>
        <time>2026-05-14T11:37:35+02:00</time>
      </trkpt>
      <trkpt lat="46.77459" lon="4.87837">
        <ele>172.60059</ele>
        <time>2026-05-14T11:37:36+02:00</time>
      </trkpt>
      <trkpt lat="46.77464" lon="4.87838">
        <ele>172.5</ele>
        <time>2026-05-14T11:37:37+02:00</time>
      </trkpt>
      <trkpt lat="46.7747" lon="4.87841">
        <ele>172.5</ele>
        <time>2026-05-14T11:37:38+02:00</time>
      </trkpt>
      <trkpt lat="46.77474" lon="4.87843">
        <ele>172.40039</ele>
        <time>2026-05-14T11:37:39+02:00</time>
      </trkpt>
      <trkpt lat="46.77479" lon="4.87845">
        <ele>172.5</ele>
        <time>2026-05-14T11:37:40+02:00</time>
      </trkpt>
      <trkpt lat="46.77483" lon="4.87846">
        <ele>172.5</ele>
        <time>2026-05-14T11:37:41+02:00</time>
      </trkpt>
      <trkpt lat="46.77487" lon="4.87847">
        <ele>172.60059</ele>
        <time>2026-05-14T11:37:42+02:00</time>
      </trkpt>
      <trkpt lat="46.77491" lon="4.87846">
        <ele>173</ele>
        <time>2026-05-14T11:37:43+02:00</time>
      </trkpt>
      <trkpt lat="46.77495" lon="4.87844">
        <ele>173.10059</ele>
        <time>2026-05-14T11:37:44+02:00</time>
      </trkpt>
      <trkpt lat="46.77499" lon="4.8784">
        <ele>173.60059</ele>
        <time>2026-05-14T11:37:45+02:00</time>
      </trkpt>
      <trkpt lat="46.77501" lon="4.87835">
        <ele>173.7002</ele>
        <time>2026-05-14T11:37:46+02:00</time>
      </trkpt>
      <trkpt lat="46.77504" lon="4.87829">
        <ele>174.10059</ele>
        <time>2026-05-14T11:37:47+02:00</time>
      </trkpt>
      <trkpt lat="46.77508" lon="4.87823">
        <ele>174.2998</ele>
        <time>2026-05-14T11:37:48+02:00</time>
      </trkpt>
      <trkpt lat="46.77511" lon="4.87818">
        <ele>174.7002</ele>
        <time>2026-05-14T11:37:49+02:00</time>
      </trkpt>
      <trkpt lat="46.77516" lon="4.87813">
        <ele>174.90039</ele>
        <time>2026-05-14T11:37:50+02:00</time>
      </trkpt>
      <trkpt lat="46.7752" lon="4.87809">
        <ele>174.90039</ele>
        <time>2026-05-14T11:37:51+02:00</time>
      </trkpt>
      <trkpt lat="46.77524" lon="4.87805">
        <ele>175.10059</ele>
        <time>2026-05-14T11:37:52+02:00</time>
      </trkpt>
      <trkpt lat="46.77529" lon="4.87802">
        <ele>175.2002</ele>
        <time>2026-05-14T11:37:53+02:00</time>
      </trkpt>
      <trkpt lat="46.77534" lon="4.87799">
        <ele>175.10059</ele>
        <time>2026-05-14T11:37:54+02:00</time>
      </trkpt>
      <trkpt lat="46.77539" lon="4.87797">
        <ele>175.10059</ele>
        <time>2026-05-14T11:37:55+02:00</time>
      </trkpt>
      <trkpt lat="46.77545" lon="4.87794">
        <ele>175</ele>
        <time>2026-05-14T11:37:56+02:00</time>
      </trkpt>
      <trkpt lat="46.77549" lon="4.87792">
        <ele>175</ele>
        <time>2026-05-14T11:37:57+02:00</time>
      </trkpt>
      <trkpt lat="46.77554" lon="4.87788">
        <ele>175</ele>
        <time>2026-05-14T11:37:58+02:00</time>
      </trkpt>
      <trkpt lat="46.77558" lon="4.87784">
        <ele>175</ele>
        <time>2026-05-14T11:37:59+02:00</time>
      </trkpt>
      <trkpt lat="46.77561" lon="4.87778">
        <ele>175.10059</ele>
        <time>2026-05-14T11:38:00+02:00</time>
      </trkpt>
      <trkpt lat="46.77564" lon="4.87771">
        <ele>175</ele>
        <time>2026-05-14T11:38:01+02:00</time>
      </trkpt>
      <trkpt lat="46.77566" lon="4.87765">
        <ele>175</ele>
        <time>2026-05-14T11:38:02+02:00</time>
      </trkpt>
      <trkpt lat="46.77569" lon="4.87758">
        <ele>174.90039</ele>
        <time>2026-05-14T11:38:03+02:00</time>
      </trkpt>
      <trkpt lat="46.77572" lon="4.87752">
        <ele>174.90039</ele>
        <time>2026-05-14T11:38:04+02:00</time>
      </trkpt>
      <trkpt lat="46.77574" lon="4.87745">
        <ele>174.90039</ele>
        <time>2026-05-14T11:38:05+02:00</time>
      </trkpt>
      <trkpt lat="46.77577" lon="4.87738">
        <ele>175</ele>
        <time>2026-05-14T11:38:06+02:00</time>
      </trkpt>
      <trkpt lat="46.77579" lon="4.87731">
        <ele>175.10059</ele>
        <time>2026-05-14T11:38:07+02:00</time>
      </trkpt>
      <trkpt lat="46.77581" lon="4.87725">
        <ele>175.10059</ele>
        <time>2026-05-14T11:38:08+02:00</time>
      </trkpt>
      <trkpt lat="46.77583" lon="4.87718">
        <ele>175.10059</ele>
        <time>2026-05-14T11:38:09+02:00</time>
      </trkpt>
      <trkpt lat="46.77586" lon="4.87712">
        <ele>175.10059</ele>
        <time>2026-05-14T11:38:10+02:00</time>
      </trkpt>
      <trkpt lat="46.77588" lon="4.87705">
        <ele>175</ele>
        <time>2026-05-14T11:38:11+02:00</time>
      </trkpt>
      <trkpt lat="46.7759" lon="4.87698">
        <ele>175</ele>
        <time>2026-05-14T11:38:12+02:00</time>
      </trkpt>
      <trkpt lat="46.77591" lon="4.87691">
        <ele>175</ele>
        <time>2026-05-14T11:38:13+02:00</time>
      </trkpt>
      <trkpt lat="46.77593" lon="4.87685">
        <ele>175</ele>
        <time>2026-05-14T11:38:14+02:00</time>
      </trkpt>
      <trkpt lat="46.77594" lon="4.87678">
        <ele>174.90039</ele>
        <time>2026-05-14T11:38:15+02:00</time>
      </trkpt>
      <trkpt lat="46.77595" lon="4.87671">
        <ele>174.7998</ele>
        <time>2026-05-14T11:38:16+02:00</time>
      </trkpt>
      <trkpt lat="46.77596" lon="4.87664">
        <ele>174.60059</ele>
        <time>2026-05-14T11:38:17+02:00</time>
      </trkpt>
      <trkpt lat="46.77598" lon="4.87658">
        <ele>174.60059</ele>
        <time>2026-05-14T11:38:18+02:00</time>
      </trkpt>
      <trkpt lat="46.776" lon="4.87651">
        <ele>174.2998</ele>
        <time>2026-05-14T11:38:19+02:00</time>
      </trkpt>
      <trkpt lat="46.77601" lon="4.87644">
        <ele>174</ele>
        <time>2026-05-14T11:38:20+02:00</time>
      </trkpt>
      <trkpt lat="46.77603" lon="4.87639">
        <ele>174</ele>
        <time>2026-05-14T11:38:21+02:00</time>
      </trkpt>
      <trkpt lat="46.77605" lon="4.87635">
        <ele>173.7002</ele>
        <time>2026-05-14T11:38:22+02:00</time>
      </trkpt>
      <trkpt lat="46.77608" lon="4.87634">
        <ele>173.7002</ele>
        <time>2026-05-14T11:38:23+02:00</time>
      </trkpt>
      <trkpt lat="46.77612" lon="4.87635">
        <ele>173.7998</ele>
        <time>2026-05-14T11:38:24+02:00</time>
      </trkpt>
      <trkpt lat="46.77616" lon="4.87635">
        <ele>173.7998</ele>
        <time>2026-05-14T11:38:25+02:00</time>
      </trkpt>
      <trkpt lat="46.77621" lon="4.87633">
        <ele>173.90039</ele>
        <time>2026-05-14T11:38:26+02:00</time>
      </trkpt>
      <trkpt lat="46.77625" lon="4.8763">
        <ele>173.90039</ele>
        <time>2026-05-14T11:38:27+02:00</time>
      </trkpt>
      <trkpt lat="46.7763" lon="4.87627">
        <ele>173.7002</ele>
        <time>2026-05-14T11:38:28+02:00</time>
      </trkpt>
      <trkpt lat="46.77635" lon="4.87625">
        <ele>173.7002</ele>
        <time>2026-05-14T11:38:29+02:00</time>
      </trkpt>
      <trkpt lat="46.7764" lon="4.87622">
        <ele>173.7998</ele>
        <time>2026-05-14T11:38:30+02:00</time>
      </trkpt>
      <trkpt lat="46.77645" lon="4.87619">
        <ele>173.7002</ele>
        <time>2026-05-14T11:38:31+02:00</time>
      </trkpt>
      <trkpt lat="46.7765" lon="4.87616">
        <ele>173.7998</ele>
        <time>2026-05-14T11:38:32+02:00</time>
      </trkpt>
      <trkpt lat="46.77656" lon="4.87613">
        <ele>173.7998</ele>
        <time>2026-05-14T11:38:33+02:00</time>
      </trkpt>
      <trkpt lat="46.77661" lon="4.8761">
        <ele>173.7002</ele>
        <time>2026-05-14T11:38:34+02:00</time>
      </trkpt>
      <trkpt lat="46.77666" lon="4.87607">
        <ele>173.7002</ele>
        <time>2026-05-14T11:38:35+02:00</time>
      </trkpt>
      <trkpt lat="46.77671" lon="4.87604">
        <ele>173.7002</ele>
        <time>2026-05-14T11:38:36+02:00</time>
      </trkpt>
      <trkpt lat="46.77676" lon="4.87601">
        <ele>173.7998</ele>
        <time>2026-05-14T11:38:37+02:00</time>
      </trkpt>
      <trkpt lat="46.77681" lon="4.87598">
        <ele>173.90039</ele>
        <time>2026-05-14T11:38:38+02:00</time>
      </trkpt>
      <trkpt lat="46.77686" lon="4.87595">
        <ele>173.90039</ele>
        <time>2026-05-14T11:38:39+02:00</time>
      </trkpt>
      <trkpt lat="46.77688" lon="4.87594">
        <ele>173.90039</ele>
        <time>2026-05-14T11:38:40+02:00</time>
      </trkpt>
      <trkpt lat="46.77695" lon="4.87589">
        <ele>174</ele>
        <time>2026-05-14T11:38:41+02:00</time>
      </trkpt>
      <trkpt lat="46.777" lon="4.87586">
        <ele>174.10059</ele>
        <time>2026-05-14T11:38:42+02:00</time>
      </trkpt>
      <trkpt lat="46.77705" lon="4.87582">
        <ele>174.2002</ele>
        <time>2026-05-14T11:38:43+02:00</time>
      </trkpt>
      <trkpt lat="46.77709" lon="4.87579">
        <ele>174.2998</ele>
        <time>2026-05-14T11:38:44+02:00</time>
      </trkpt>
      <trkpt lat="46.77714" lon="4.87578">
        <ele>174.40039</ele>
        <time>2026-05-14T11:38:45+02:00</time>
      </trkpt>
      <trkpt lat="46.77717" lon="4.87579">
        <ele>174.5</ele>
        <time>2026-05-14T11:38:46+02:00</time>
      </trkpt>
      <trkpt lat="46.77718" lon="4.8758">
        <ele>174.5</ele>
        <time>2026-05-14T11:38:47+02:00</time>
      </trkpt>
      <trkpt lat="46.77722" lon="4.87585">
        <ele>174.60059</ele>
        <time>2026-05-14T11:38:48+02:00</time>
      </trkpt>
      <trkpt lat="46.77725" lon="4.87587">
        <ele>174.60059</ele>
        <time>2026-05-14T11:38:49+02:00</time>
      </trkpt>
      <trkpt lat="46.77728" lon="4.87588">
        <ele>174.7002</ele>
        <time>2026-05-14T11:38:50+02:00</time>
      </trkpt>
      <trkpt lat="46.77731" lon="4.87591">
        <ele>174.7002</ele>
        <time>2026-05-14T11:38:51+02:00</time>
      </trkpt>
      <trkpt lat="46.77732" lon="4.87594">
        <ele>174.7998</ele>
        <time>2026-05-14T11:38:52+02:00</time>
      </trkpt>
      <trkpt lat="46.77732" lon="4.87596">
        <ele>174.90039</ele>
        <time>2026-05-14T11:38:53+02:00</time>
      </trkpt>
      <trkpt lat="46.77731" lon="4.87602">
        <ele>174.7998</ele>
        <time>2026-05-14T11:38:54+02:00</time>
      </trkpt>
      <trkpt lat="46.77731" lon="4.87607">
        <ele>174.90039</ele>
        <time>2026-05-14T11:38:55+02:00</time>
      </trkpt>
      <trkpt lat="46.7773" lon="4.87613">
        <ele>175</ele>
        <time>2026-05-14T11:38:56+02:00</time>
      </trkpt>
      <trkpt lat="46.77729" lon="4.87618">
        <ele>175</ele>
        <time>2026-05-14T11:38:57+02:00</time>
      </trkpt>
      <trkpt lat="46.77728" lon="4.87624">
        <ele>175.10059</ele>
        <time>2026-05-14T11:38:58+02:00</time>
      </trkpt>
      <trkpt lat="46.77728" lon="4.8763">
        <ele>175.2998</ele>
        <time>2026-05-14T11:38:59+02:00</time>
      </trkpt>
      <trkpt lat="46.77727" lon="4.87636">
        <ele>175.2998</ele>
        <time>2026-05-14T11:39:00+02:00</time>
      </trkpt>
      <trkpt lat="46.77727" lon="4.87643">
        <ele>175.40039</ele>
        <time>2026-05-14T11:39:01+02:00</time>
      </trkpt>
      <trkpt lat="46.77728" lon="4.87648">
        <ele>175.5</ele>
        <time>2026-05-14T11:39:02+02:00</time>
      </trkpt>
      <trkpt lat="46.7773" lon="4.87652">
        <ele>175.5</ele>
        <time>2026-05-14T11:39:03+02:00</time>
      </trkpt>
      <trkpt lat="46.77731" lon="4.87653">
        <ele>175.5</ele>
        <time>2026-05-14T11:39:04+02:00</time>
      </trkpt>
      <trkpt lat="46.77734" lon="4.87654">
        <ele>175.60059</ele>
        <time>2026-05-14T11:39:05+02:00</time>
      </trkpt>
      <trkpt lat="46.77736" lon="4.87656">
        <ele>175.7002</ele>
        <time>2026-05-14T11:39:06+02:00</time>
      </trkpt>
      <trkpt lat="46.77738" lon="4.87657">
        <ele>175.7002</ele>
        <time>2026-05-14T11:39:07+02:00</time>
      </trkpt>
      <trkpt lat="46.77739" lon="4.87657">
        <ele>175.7002</ele>
        <time>2026-05-14T11:39:08+02:00</time>
      </trkpt>
      <trkpt lat="46.7774" lon="4.87657">
        <ele>175.7002</ele>
        <time>2026-05-14T11:39:09+02:00</time>
      </trkpt>
      <trkpt lat="46.77742" lon="4.87657">
        <ele>175.7002</ele>
        <time>2026-05-14T11:39:10+02:00</time>
      </trkpt>
      <trkpt lat="46.77744" lon="4.87658">
        <ele>175.60059</ele>
        <time>2026-05-14T11:39:11+02:00</time>
      </trkpt>
      <trkpt lat="46.77746" lon="4.87658">
        <ele>175.60059</ele>
        <time>2026-05-14T11:39:12+02:00</time>
      </trkpt>
      <trkpt lat="46.77747" lon="4.8766">
        <ele>175.60059</ele>
        <time>2026-05-14T11:39:13+02:00</time>
      </trkpt>
      <trkpt lat="46.7775" lon="4.8766">
        <ele>175.60059</ele>
        <time>2026-05-14T11:39:14+02:00</time>
      </trkpt>
      <trkpt lat="46.77754" lon="4.87662">
        <ele>175.60059</ele>
        <time>2026-05-14T11:39:15+02:00</time>
      </trkpt>
      <trkpt lat="46.77755" lon="4.8767">
        <ele>175.7002</ele>
        <time>2026-05-14T11:39:16+02:00</time>
      </trkpt>
      <trkpt lat="46.77759" lon="4.87673">
        <ele>175.7998</ele>
        <time>2026-05-14T11:39:17+02:00</time>
      </trkpt>
      <trkpt lat="46.77762" lon="4.87677">
        <ele>175.7002</ele>
        <time>2026-05-14T11:39:18+02:00</time>
      </trkpt>
      <trkpt lat="46.77764" lon="4.87681">
        <ele>175.7002</ele>
        <time>2026-05-14T11:39:19+02:00</time>
      </trkpt>
      <trkpt lat="46.77766" lon="4.87685">
        <ele>175.7998</ele>
        <time>2026-05-14T11:39:20+02:00</time>
      </trkpt>
      <trkpt lat="46.77769" lon="4.8769">
        <ele>175.7998</ele>
        <time>2026-05-14T11:39:21+02:00</time>
      </trkpt>
      <trkpt lat="46.77772" lon="4.87694">
        <ele>175.7998</ele>
        <time>2026-05-14T11:39:22+02:00</time>
      </trkpt>
      <trkpt lat="46.77776" lon="4.87697">
        <ele>175.7998</ele>
        <time>2026-05-14T11:39:23+02:00</time>
      </trkpt>
      <trkpt lat="46.7778" lon="4.877">
        <ele>175.7998</ele>
        <time>2026-05-14T11:39:24+02:00</time>
      </trkpt>
      <trkpt lat="46.77785" lon="4.87701">
        <ele>175.7002</ele>
        <time>2026-05-14T11:39:25+02:00</time>
      </trkpt>
      <trkpt lat="46.77789" lon="4.87701">
        <ele>175.7002</ele>
        <time>2026-05-14T11:39:26+02:00</time>
      </trkpt>
      <trkpt lat="46.77794" lon="4.877">
        <ele>175.60059</ele>
        <time>2026-05-14T11:39:27+02:00</time>
      </trkpt>
      <trkpt lat="46.77799" lon="4.877">
        <ele>175.5</ele>
        <time>2026-05-14T11:39:28+02:00</time>
      </trkpt>
      <trkpt lat="46.77804" lon="4.87699">
        <ele>175.40039</ele>
        <time>2026-05-14T11:39:29+02:00</time>
      </trkpt>
      <trkpt lat="46.77808" lon="4.87698">
        <ele>175.2002</ele>
        <time>2026-05-14T11:39:30+02:00</time>
      </trkpt>
      <trkpt lat="46.77813" lon="4.87697">
        <ele>175.10059</ele>
        <time>2026-05-14T11:39:31+02:00</time>
      </trkpt>
      <trkpt lat="46.77817" lon="4.87696">
        <ele>175</ele>
        <time>2026-05-14T11:39:32+02:00</time>
      </trkpt>
      <trkpt lat="46.77821" lon="4.87695">
        <ele>174.90039</ele>
        <time>2026-05-14T11:39:33+02:00</time>
      </trkpt>
      <trkpt lat="46.77826" lon="4.87694">
        <ele>174.90039</ele>
        <time>2026-05-14T11:39:34+02:00</time>
      </trkpt>
      <trkpt lat="46.77831" lon="4.87693">
        <ele>174.90039</ele>
        <time>2026-05-14T11:39:35+02:00</time>
      </trkpt>
      <trkpt lat="46.77836" lon="4.87693">
        <ele>174.7998</ele>
        <time>2026-05-14T11:39:36+02:00</time>
      </trkpt>
      <trkpt lat="46.7784" lon="4.87692">
        <ele>174.7002</ele>
        <time>2026-05-14T11:39:37+02:00</time>
      </trkpt>
      <trkpt lat="46.77844" lon="4.87691">
        <ele>174.7002</ele>
        <time>2026-05-14T11:39:38+02:00</time>
      </trkpt>
      <trkpt lat="46.77849" lon="4.8769">
        <ele>174.7002</ele>
        <time>2026-05-14T11:39:39+02:00</time>
      </trkpt>
      <trkpt lat="46.77854" lon="4.87688">
        <ele>174.60059</ele>
        <time>2026-05-14T11:39:40+02:00</time>
      </trkpt>
      <trkpt lat="46.77856" lon="4.87688">
        <ele>174.60059</ele>
        <time>2026-05-14T11:39:41+02:00</time>
      </trkpt>
      <trkpt lat="46.77863" lon="4.87686">
        <ele>174.60059</ele>
        <time>2026-05-14T11:39:42+02:00</time>
      </trkpt>
      <trkpt lat="46.77868" lon="4.87684">
        <ele>174.60059</ele>
        <time>2026-05-14T11:39:43+02:00</time>
      </trkpt>
      <trkpt lat="46.77873" lon="4.87682">
        <ele>174.60059</ele>
        <time>2026-05-14T11:39:44+02:00</time>
      </trkpt>
      <trkpt lat="46.77878" lon="4.8768">
        <ele>174.5</ele>
        <time>2026-05-14T11:39:45+02:00</time>
      </trkpt>
      <trkpt lat="46.77882" lon="4.87678">
        <ele>174.60059</ele>
        <time>2026-05-14T11:39:46+02:00</time>
      </trkpt>
      <trkpt lat="46.77887" lon="4.87676">
        <ele>174.60059</ele>
        <time>2026-05-14T11:39:47+02:00</time>
      </trkpt>
      <trkpt lat="46.77892" lon="4.87674">
        <ele>174.60059</ele>
        <time>2026-05-14T11:39:48+02:00</time>
      </trkpt>
      <trkpt lat="46.77897" lon="4.87672">
        <ele>174.7002</ele>
        <time>2026-05-14T11:39:49+02:00</time>
      </trkpt>
      <trkpt lat="46.77902" lon="4.87669">
        <ele>174.7002</ele>
        <time>2026-05-14T11:39:50+02:00</time>
      </trkpt>
      <trkpt lat="46.77907" lon="4.87667">
        <ele>174.7998</ele>
        <time>2026-05-14T11:39:51+02:00</time>
      </trkpt>
      <trkpt lat="46.77912" lon="4.87665">
        <ele>174.90039</ele>
        <time>2026-05-14T11:39:52+02:00</time>
      </trkpt>
      <trkpt lat="46.77915" lon="4.87664">
        <ele>175</ele>
        <time>2026-05-14T11:39:53+02:00</time>
      </trkpt>
      <trkpt lat="46.77923" lon="4.8766">
        <ele>175.10059</ele>
        <time>2026-05-14T11:39:54+02:00</time>
      </trkpt>
      <trkpt lat="46.77928" lon="4.87658">
        <ele>175.2002</ele>
        <time>2026-05-14T11:39:55+02:00</time>
      </trkpt>
      <trkpt lat="46.77932" lon="4.87655">
        <ele>175.2998</ele>
        <time>2026-05-14T11:39:56+02:00</time>
      </trkpt>
      <trkpt lat="46.77937" lon="4.87653">
        <ele>175.2998</ele>
        <time>2026-05-14T11:39:57+02:00</time>
      </trkpt>
      <trkpt lat="46.77942" lon="4.8765">
        <ele>175.40039</ele>
        <time>2026-05-14T11:39:58+02:00</time>
      </trkpt>
      <trkpt lat="46.77947" lon="4.87647">
        <ele>175.5</ele>
        <time>2026-05-14T11:39:59+02:00</time>
      </trkpt>
      <trkpt lat="46.77952" lon="4.87644">
        <ele>175.7002</ele>
        <time>2026-05-14T11:40:00+02:00</time>
      </trkpt>
      <trkpt lat="46.77957" lon="4.87641">
        <ele>175.7998</ele>
        <time>2026-05-14T11:40:01+02:00</time>
      </trkpt>
      <trkpt lat="46.77962" lon="4.87638">
        <ele>175.90039</ele>
        <time>2026-05-14T11:40:02+02:00</time>
      </trkpt>
      <trkpt lat="46.77967" lon="4.87634">
        <ele>176</ele>
        <time>2026-05-14T11:40:03+02:00</time>
      </trkpt>
      <trkpt lat="46.77972" lon="4.87631">
        <ele>176</ele>
        <time>2026-05-14T11:40:04+02:00</time>
      </trkpt>
      <trkpt lat="46.77977" lon="4.87627">
        <ele>176</ele>
        <time>2026-05-14T11:40:05+02:00</time>
      </trkpt>
      <trkpt lat="46.77981" lon="4.87624">
        <ele>176.10059</ele>
        <time>2026-05-14T11:40:06+02:00</time>
      </trkpt>
      <trkpt lat="46.77986" lon="4.87621">
        <ele>176</ele>
        <time>2026-05-14T11:40:07+02:00</time>
      </trkpt>
      <trkpt lat="46.7799" lon="4.87617">
        <ele>176</ele>
        <time>2026-05-14T11:40:08+02:00</time>
      </trkpt>
      <trkpt lat="46.77995" lon="4.87613">
        <ele>176</ele>
        <time>2026-05-14T11:40:09+02:00</time>
      </trkpt>
      <trkpt lat="46.77999" lon="4.8761">
        <ele>175.90039</ele>
        <time>2026-05-14T11:40:10+02:00</time>
      </trkpt>
      <trkpt lat="46.78003" lon="4.87606">
        <ele>175.90039</ele>
        <time>2026-05-14T11:40:11+02:00</time>
      </trkpt>
      <trkpt lat="46.78008" lon="4.87602">
        <ele>175.7998</ele>
        <time>2026-05-14T11:40:12+02:00</time>
      </trkpt>
      <trkpt lat="46.78013" lon="4.87599">
        <ele>175.7002</ele>
        <time>2026-05-14T11:40:13+02:00</time>
      </trkpt>
      <trkpt lat="46.78016" lon="4.87595">
        <ele>175.5</ele>
        <time>2026-05-14T11:40:14+02:00</time>
      </trkpt>
      <trkpt lat="46.7802" lon="4.87591">
        <ele>175.40039</ele>
        <time>2026-05-14T11:40:15+02:00</time>
      </trkpt>
      <trkpt lat="46.78024" lon="4.87588">
        <ele>175.40039</ele>
        <time>2026-05-14T11:40:16+02:00</time>
      </trkpt>
      <trkpt lat="46.78027" lon="4.87585">
        <ele>175.10059</ele>
        <time>2026-05-14T11:40:17+02:00</time>
      </trkpt>
      <trkpt lat="46.78031" lon="4.87581">
        <ele>175.10059</ele>
        <time>2026-05-14T11:40:18+02:00</time>
      </trkpt>
      <trkpt lat="46.78034" lon="4.87577">
        <ele>174.90039</ele>
        <time>2026-05-14T11:40:19+02:00</time>
      </trkpt>
      <trkpt lat="46.78038" lon="4.87574">
        <ele>174.7998</ele>
        <time>2026-05-14T11:40:20+02:00</time>
      </trkpt>
      <trkpt lat="46.7804" lon="4.87571">
        <ele>174.7998</ele>
        <time>2026-05-14T11:40:21+02:00</time>
      </trkpt>
      <trkpt lat="46.78043" lon="4.87569">
        <ele>174.7002</ele>
        <time>2026-05-14T11:40:22+02:00</time>
      </trkpt>
      <trkpt lat="46.78045" lon="4.87566">
        <ele>174.60059</ele>
        <time>2026-05-14T11:40:23+02:00</time>
      </trkpt>
      <trkpt lat="46.78047" lon="4.87564">
        <ele>174.60059</ele>
        <time>2026-05-14T11:40:24+02:00</time>
      </trkpt>
      <trkpt lat="46.78048" lon="4.87562">
        <ele>174.60059</ele>
        <time>2026-05-14T11:40:25+02:00</time>
      </trkpt>
      <trkpt lat="46.78049" lon="4.87561">
        <ele>174.40039</ele>
        <time>2026-05-14T11:40:26+02:00</time>
      </trkpt>
      <trkpt lat="46.7805" lon="4.8756">
        <ele>174.40039</ele>
        <time>2026-05-14T11:40:27+02:00</time>
      </trkpt>
      <trkpt lat="46.78051" lon="4.87559">
        <ele>174.40039</ele>
        <time>2026-05-14T11:40:28+02:00</time>
      </trkpt>
      <trkpt lat="46.78052" lon="4.87558">
        <ele>174.40039</ele>
        <time>2026-05-14T11:40:29+02:00</time>
      </trkpt>
      <trkpt lat="46.78053" lon="4.87557">
        <ele>174.40039</ele>
        <time>2026-05-14T11:40:30+02:00</time>
      </trkpt>
      <trkpt lat="46.78054" lon="4.87555">
        <ele>174.40039</ele>
        <time>2026-05-14T11:40:31+02:00</time>
      </trkpt>
      <trkpt lat="46.78055" lon="4.87554">
        <ele>174.40039</ele>
        <time>2026-05-14T11:40:32+02:00</time>
      </trkpt>
      <trkpt lat="46.78056" lon="4.87553">
        <ele>174.40039</ele>
        <time>2026-05-14T11:40:33+02:00</time>
      </trkpt>
      <trkpt lat="46.78058" lon="4.8755">
        <ele>174.2998</ele>
        <time>2026-05-14T11:40:34+02:00</time>
      </trkpt>
      <trkpt lat="46.78059" lon="4.87549">
        <ele>174.2998</ele>
        <time>2026-05-14T11:40:35+02:00</time>
      </trkpt>
      <trkpt lat="46.7806" lon="4.87547">
        <ele>174.2998</ele>
        <time>2026-05-14T11:40:36+02:00</time>
      </trkpt>
      <trkpt lat="46.78061" lon="4.87545">
        <ele>174.2002</ele>
        <time>2026-05-14T11:40:37+02:00</time>
      </trkpt>
      <trkpt lat="46.78062" lon="4.87543">
        <ele>174.2002</ele>
        <time>2026-05-14T11:40:38+02:00</time>
      </trkpt>
      <trkpt lat="46.78064" lon="4.87541">
        <ele>174.2002</ele>
        <time>2026-05-14T11:40:39+02:00</time>
      </trkpt>
      <trkpt lat="46.78066" lon="4.87539">
        <ele>174.2002</ele>
        <time>2026-05-14T11:40:40+02:00</time>
      </trkpt>
      <trkpt lat="46.78068" lon="4.87537">
        <ele>174.10059</ele>
        <time>2026-05-14T11:40:41+02:00</time>
      </trkpt>
      <trkpt lat="46.78071" lon="4.87534">
        <ele>174.10059</ele>
        <time>2026-05-14T11:40:42+02:00</time>
      </trkpt>
      <trkpt lat="46.78074" lon="4.87531">
        <ele>174.10059</ele>
        <time>2026-05-14T11:40:43+02:00</time>
      </trkpt>
      <trkpt lat="46.78077" lon="4.87527">
        <ele>174.10059</ele>
        <time>2026-05-14T11:40:44+02:00</time>
      </trkpt>
      <trkpt lat="46.7808" lon="4.87522">
        <ele>174</ele>
        <time>2026-05-14T11:40:45+02:00</time>
      </trkpt>
      <trkpt lat="46.78084" lon="4.87518">
        <ele>174</ele>
        <time>2026-05-14T11:40:46+02:00</time>
      </trkpt>
      <trkpt lat="46.78087" lon="4.87513">
        <ele>174</ele>
        <time>2026-05-14T11:40:47+02:00</time>
      </trkpt>
      <trkpt lat="46.78091" lon="4.87508">
        <ele>174</ele>
        <time>2026-05-14T11:40:48+02:00</time>
      </trkpt>
      <trkpt lat="46.78095" lon="4.87502">
        <ele>174</ele>
        <time>2026-05-14T11:40:49+02:00</time>
      </trkpt>
      <trkpt lat="46.78098" lon="4.87497">
        <ele>174</ele>
        <time>2026-05-14T11:40:50+02:00</time>
      </trkpt>
      <trkpt lat="46.78103" lon="4.87491">
        <ele>174</ele>
        <time>2026-05-14T11:40:51+02:00</time>
      </trkpt>
      <trkpt lat="46.78107" lon="4.87485">
        <ele>174</ele>
        <time>2026-05-14T11:40:52+02:00</time>
      </trkpt>
      <trkpt lat="46.78111" lon="4.87479">
        <ele>174</ele>
        <time>2026-05-14T11:40:53+02:00</time>
      </trkpt>
      <trkpt lat="46.78115" lon="4.87473">
        <ele>174</ele>
        <time>2026-05-14T11:40:54+02:00</time>
      </trkpt>
      <trkpt lat="46.78119" lon="4.87467">
        <ele>174</ele>
        <time>2026-05-14T11:40:55+02:00</time>
      </trkpt>
      <trkpt lat="46.78124" lon="4.8746">
        <ele>174</ele>
        <time>2026-05-14T11:40:56+02:00</time>
      </trkpt>
      <trkpt lat="46.78128" lon="4.87454">
        <ele>174</ele>
        <time>2026-05-14T11:40:57+02:00</time>
      </trkpt>
      <trkpt lat="46.78132" lon="4.87448">
        <ele>174</ele>
        <time>2026-05-14T11:40:58+02:00</time>
      </trkpt>
      <trkpt lat="46.78134" lon="4.87445">
        <ele>174</ele>
        <time>2026-05-14T11:40:59+02:00</time>
      </trkpt>
      <trkpt lat="46.7814" lon="4.87435">
        <ele>174</ele>
        <time>2026-05-14T11:41:00+02:00</time>
      </trkpt>
      <trkpt lat="46.78144" lon="4.87429">
        <ele>173.90039</ele>
        <time>2026-05-14T11:41:01+02:00</time>
      </trkpt>
      <trkpt lat="46.78146" lon="4.87426">
        <ele>173.90039</ele>
        <time>2026-05-14T11:41:02+02:00</time>
      </trkpt>
      <trkpt lat="46.78153" lon="4.87416">
        <ele>173.90039</ele>
        <time>2026-05-14T11:41:03+02:00</time>
      </trkpt>
      <trkpt lat="46.78157" lon="4.8741">
        <ele>173.90039</ele>
        <time>2026-05-14T11:41:04+02:00</time>
      </trkpt>
      <trkpt lat="46.78161" lon="4.87404">
        <ele>174</ele>
        <time>2026-05-14T11:41:05+02:00</time>
      </trkpt>
      <trkpt lat="46.78166" lon="4.87397">
        <ele>174</ele>
        <time>2026-05-14T11:41:06+02:00</time>
      </trkpt>
      <trkpt lat="46.7817" lon="4.87391">
        <ele>174</ele>
        <time>2026-05-14T11:41:07+02:00</time>
      </trkpt>
      <trkpt lat="46.78174" lon="4.87384">
        <ele>174</ele>
        <time>2026-05-14T11:41:08+02:00</time>
      </trkpt>
      <trkpt lat="46.78178" lon="4.87378">
        <ele>174</ele>
        <time>2026-05-14T11:41:09+02:00</time>
      </trkpt>
      <trkpt lat="46.78183" lon="4.87371">
        <ele>174.10059</ele>
        <time>2026-05-14T11:41:10+02:00</time>
      </trkpt>
      <trkpt lat="46.78187" lon="4.87365">
        <ele>174.10059</ele>
        <time>2026-05-14T11:41:11+02:00</time>
      </trkpt>
      <trkpt lat="46.78191" lon="4.87358">
        <ele>174.2002</ele>
        <time>2026-05-14T11:41:12+02:00</time>
      </trkpt>
      <trkpt lat="46.78195" lon="4.87352">
        <ele>174.2002</ele>
        <time>2026-05-14T11:41:13+02:00</time>
      </trkpt>
      <trkpt lat="46.782" lon="4.87345">
        <ele>174.2998</ele>
        <time>2026-05-14T11:41:14+02:00</time>
      </trkpt>
      <trkpt lat="46.78204" lon="4.87339">
        <ele>174.40039</ele>
        <time>2026-05-14T11:41:15+02:00</time>
      </trkpt>
      <trkpt lat="46.78208" lon="4.87333">
        <ele>174.5</ele>
        <time>2026-05-14T11:41:16+02:00</time>
      </trkpt>
      <trkpt lat="46.78212" lon="4.87326">
        <ele>174.60059</ele>
        <time>2026-05-14T11:41:17+02:00</time>
      </trkpt>
      <trkpt lat="46.78217" lon="4.8732">
        <ele>174.7002</ele>
        <time>2026-05-14T11:41:18+02:00</time>
      </trkpt>
      <trkpt lat="46.78221" lon="4.87313">
        <ele>174.7998</ele>
        <time>2026-05-14T11:41:19+02:00</time>
      </trkpt>
      <trkpt lat="46.78225" lon="4.87307">
        <ele>174.90039</ele>
        <time>2026-05-14T11:41:20+02:00</time>
      </trkpt>
      <trkpt lat="46.78227" lon="4.87304">
        <ele>174.90039</ele>
        <time>2026-05-14T11:41:21+02:00</time>
      </trkpt>
      <trkpt lat="46.78233" lon="4.87295">
        <ele>175.2002</ele>
        <time>2026-05-14T11:41:22+02:00</time>
      </trkpt>
      <trkpt lat="46.78237" lon="4.87289">
        <ele>175.2002</ele>
        <time>2026-05-14T11:41:23+02:00</time>
      </trkpt>
      <trkpt lat="46.78241" lon="4.87282">
        <ele>175.2998</ele>
        <time>2026-05-14T11:41:24+02:00</time>
      </trkpt>
      <trkpt lat="46.78246" lon="4.87275">
        <ele>175.40039</ele>
        <time>2026-05-14T11:41:25+02:00</time>
      </trkpt>
      <trkpt lat="46.7825" lon="4.87269">
        <ele>175.5</ele>
        <time>2026-05-14T11:41:26+02:00</time>
      </trkpt>
      <trkpt lat="46.78254" lon="4.87262">
        <ele>175.5</ele>
        <time>2026-05-14T11:41:27+02:00</time>
      </trkpt>
      <trkpt lat="46.78258" lon="4.87256">
        <ele>175.60059</ele>
        <time>2026-05-14T11:41:28+02:00</time>
      </trkpt>
      <trkpt lat="46.78262" lon="4.87249">
        <ele>175.7002</ele>
        <time>2026-05-14T11:41:29+02:00</time>
      </trkpt>
      <trkpt lat="46.78266" lon="4.87242">
        <ele>175.7998</ele>
        <time>2026-05-14T11:41:30+02:00</time>
      </trkpt>
      <trkpt lat="46.7827" lon="4.87236">
        <ele>175.7998</ele>
        <time>2026-05-14T11:41:31+02:00</time>
      </trkpt>
      <trkpt lat="46.78273" lon="4.87229">
        <ele>175.90039</ele>
        <time>2026-05-14T11:41:32+02:00</time>
      </trkpt>
      <trkpt lat="46.78275" lon="4.87221">
        <ele>176.10059</ele>
        <time>2026-05-14T11:41:33+02:00</time>
      </trkpt>
      <trkpt lat="46.78278" lon="4.87214">
        <ele>176.2002</ele>
        <time>2026-05-14T11:41:34+02:00</time>
      </trkpt>
      <trkpt lat="46.78282" lon="4.87206">
        <ele>176.5</ele>
        <time>2026-05-14T11:41:35+02:00</time>
      </trkpt>
      <trkpt lat="46.78285" lon="4.87199">
        <ele>176.7998</ele>
        <time>2026-05-14T11:41:36+02:00</time>
      </trkpt>
      <trkpt lat="46.78288" lon="4.87193">
        <ele>176.7998</ele>
        <time>2026-05-14T11:41:37+02:00</time>
      </trkpt>
      <trkpt lat="46.7829" lon="4.8719">
        <ele>177.10059</ele>
        <time>2026-05-14T11:41:38+02:00</time>
      </trkpt>
      <trkpt lat="46.78296" lon="4.87181">
        <ele>177.2998</ele>
        <time>2026-05-14T11:41:39+02:00</time>
      </trkpt>
      <trkpt lat="46.78299" lon="4.87175">
        <ele>177.40039</ele>
        <time>2026-05-14T11:41:40+02:00</time>
      </trkpt>
      <trkpt lat="46.78303" lon="4.87168">
        <ele>177.7002</ele>
        <time>2026-05-14T11:41:41+02:00</time>
      </trkpt>
      <trkpt lat="46.78307" lon="4.87162">
        <ele>177.90039</ele>
        <time>2026-05-14T11:41:42+02:00</time>
      </trkpt>
      <trkpt lat="46.78311" lon="4.87157">
        <ele>178.10059</ele>
        <time>2026-05-14T11:41:43+02:00</time>
      </trkpt>
      <trkpt lat="46.78314" lon="4.87151">
        <ele>178.2998</ele>
        <time>2026-05-14T11:41:44+02:00</time>
      </trkpt>
      <trkpt lat="46.78317" lon="4.87147">
        <ele>178.40039</ele>
        <time>2026-05-14T11:41:45+02:00</time>
      </trkpt>
      <trkpt lat="46.78319" lon="4.87144">
        <ele>178.40039</ele>
        <time>2026-05-14T11:41:46+02:00</time>
      </trkpt>
      <trkpt lat="46.7832" lon="4.87142">
        <ele>178.5</ele>
        <time>2026-05-14T11:41:47+02:00</time>
      </trkpt>
      <trkpt lat="46.78322" lon="4.87142">
        <ele>178.5</ele>
        <time>2026-05-14T11:41:48+02:00</time>
      </trkpt>
      <trkpt lat="46.78323" lon="4.87141">
        <ele>178.5</ele>
        <time>2026-05-14T11:41:49+02:00</time>
      </trkpt>
      <trkpt lat="46.78325" lon="4.87141">
        <ele>178.5</ele>
        <time>2026-05-14T11:41:50+02:00</time>
      </trkpt>
      <trkpt lat="46.78327" lon="4.8714">
        <ele>178.5</ele>
        <time>2026-05-14T11:41:51+02:00</time>
      </trkpt>
      <trkpt lat="46.78328" lon="4.87138">
        <ele>178.5</ele>
        <time>2026-05-14T11:41:52+02:00</time>
      </trkpt>
      <trkpt lat="46.78327" lon="4.87136">
        <ele>178.5</ele>
        <time>2026-05-14T11:41:53+02:00</time>
      </trkpt>
      <trkpt lat="46.78325" lon="4.87136">
        <ele>178.60059</ele>
        <time>2026-05-14T11:41:54+02:00</time>
      </trkpt>
      <trkpt lat="46.78323" lon="4.87138">
        <ele>178.60059</ele>
        <time>2026-05-14T11:41:55+02:00</time>
      </trkpt>
      <trkpt lat="46.78323" lon="4.87141">
        <ele>178.5</ele>
        <time>2026-05-14T11:41:56+02:00</time>
      </trkpt>
      <trkpt lat="46.78322" lon="4.87145">
        <ele>178.5</ele>
        <time>2026-05-14T11:41:57+02:00</time>
      </trkpt>
      <trkpt lat="46.78321" lon="4.87149">
        <ele>178.5</ele>
        <time>2026-05-14T11:41:58+02:00</time>
      </trkpt>
      <trkpt lat="46.78319" lon="4.87153">
        <ele>178.2998</ele>
        <time>2026-05-14T11:41:59+02:00</time>
      </trkpt>
      <trkpt lat="46.78318" lon="4.87156">
        <ele>178.2998</ele>
        <time>2026-05-14T11:42:00+02:00</time>
      </trkpt>
      <trkpt lat="46.78316" lon="4.8716">
        <ele>178.10059</ele>
        <time>2026-05-14T11:42:01+02:00</time>
      </trkpt>
      <trkpt lat="46.78314" lon="4.87164">
        <ele>178.10059</ele>
        <time>2026-05-14T11:42:02+02:00</time>
      </trkpt>
      <trkpt lat="46.78312" lon="4.87167">
        <ele>177.7998</ele>
        <time>2026-05-14T11:42:03+02:00</time>
      </trkpt>
      <trkpt lat="46.7831" lon="4.87171">
        <ele>177.7998</ele>
        <time>2026-05-14T11:42:04+02:00</time>
      </trkpt>
      <trkpt lat="46.78308" lon="4.87176">
        <ele>177.60059</ele>
        <time>2026-05-14T11:42:05+02:00</time>
      </trkpt>
      <trkpt lat="46.78306" lon="4.87179">
        <ele>177.5</ele>
        <time>2026-05-14T11:42:06+02:00</time>
      </trkpt>
      <trkpt lat="46.78304" lon="4.87184">
        <ele>177.2998</ele>
        <time>2026-05-14T11:42:07+02:00</time>
      </trkpt>
      <trkpt lat="46.78301" lon="4.87188">
        <ele>177.2002</ele>
        <time>2026-05-14T11:42:08+02:00</time>
      </trkpt>
      <trkpt lat="46.78299" lon="4.87192">
        <ele>177.2002</ele>
        <time>2026-05-14T11:42:09+02:00</time>
      </trkpt>
      <trkpt lat="46.78298" lon="4.87196">
        <ele>177</ele>
        <time>2026-05-14T11:42:10+02:00</time>
      </trkpt>
      <trkpt lat="46.78296" lon="4.87199">
        <ele>176.90039</ele>
        <time>2026-05-14T11:42:11+02:00</time>
      </trkpt>
      <trkpt lat="46.78295" lon="4.87202">
        <ele>176.7002</ele>
        <time>2026-05-14T11:42:12+02:00</time>
      </trkpt>
      <trkpt lat="46.78296" lon="4.87204">
        <ele>176.7002</ele>
        <time>2026-05-14T11:42:13+02:00</time>
      </trkpt>
      <trkpt lat="46.78297" lon="4.87205">
        <ele>176.7002</ele>
        <time>2026-05-14T11:42:14+02:00</time>
      </trkpt>
      <trkpt lat="46.78297" lon="4.87205">
        <ele>176.7002</ele>
        <time>2026-05-14T11:42:15+02:00</time>
      </trkpt>
      <trkpt lat="46.78297" lon="4.87205">
        <ele>176.7002</ele>
        <time>2026-05-14T11:42:16+02:00</time>
      </trkpt>
      <trkpt lat="46.78297" lon="4.87205">
        <ele>176.7002</ele>
        <time>2026-05-14T11:42:17+02:00</time>
      </trkpt>
      <trkpt lat="46.78297" lon="4.87205">
        <ele>176.7002</ele>
        <time>2026-05-14T11:42:18+02:00</time>
      </trkpt>
      <trkpt lat="46.78288" lon="4.8722">
        <ele>176.10059</ele>
        <time>2026-05-14T11:42:22+02:00</time>
      </trkpt>
      <trkpt lat="46.78287" lon="4.87223">
        <ele>176.10059</ele>
        <time>2026-05-14T11:42:23+02:00</time>
      </trkpt>
      <trkpt lat="46.78286" lon="4.87226">
        <ele>176.10059</ele>
        <time>2026-05-14T11:42:24+02:00</time>
      </trkpt>
      <trkpt lat="46.78285" lon="4.87229">
        <ele>175.90039</ele>
        <time>2026-05-14T11:42:25+02:00</time>
      </trkpt>
      <trkpt lat="46.78283" lon="4.87232">
        <ele>175.90039</ele>
        <time>2026-05-14T11:42:26+02:00</time>
      </trkpt>
      <trkpt lat="46.78282" lon="4.87235">
        <ele>175.90039</ele>
        <time>2026-05-14T11:42:27+02:00</time>
      </trkpt>
      <trkpt lat="46.78281" lon="4.87237">
        <ele>175.7002</ele>
        <time>2026-05-14T11:42:28+02:00</time>
      </trkpt>
      <trkpt lat="46.7828" lon="4.8724">
        <ele>175.7002</ele>
        <time>2026-05-14T11:42:29+02:00</time>
      </trkpt>
      <trkpt lat="46.78278" lon="4.87242">
        <ele>175.7998</ele>
        <time>2026-05-14T11:42:30+02:00</time>
      </trkpt>
      <trkpt lat="46.78278" lon="4.87243">
        <ele>175.7998</ele>
        <time>2026-05-14T11:42:31+02:00</time>
      </trkpt>
      <trkpt lat="46.78278" lon="4.87244">
        <ele>175.60059</ele>
        <time>2026-05-14T11:42:32+02:00</time>
      </trkpt>
      <trkpt lat="46.78278" lon="4.87244">
        <ele>175.60059</ele>
        <time>2026-05-14T11:42:33+02:00</time>
      </trkpt>
      <trkpt lat="46.78278" lon="4.87244">
        <ele>175.60059</ele>
        <time>2026-05-14T11:42:34+02:00</time>
      </trkpt>
      <trkpt lat="46.78278" lon="4.87244">
        <ele>175.60059</ele>
        <time>2026-05-14T11:42:35+02:00</time>
      </trkpt>
      <trkpt lat="46.78287" lon="4.87248">
        <ele>175.60059</ele>
        <time>2026-05-14T11:44:10+02:00</time>
      </trkpt>
      <trkpt lat="46.7829" lon="4.87246">
        <ele>175.5</ele>
        <time>2026-05-14T11:44:11+02:00</time>
      </trkpt>
      <trkpt lat="46.78293" lon="4.87243">
        <ele>175.7002</ele>
        <time>2026-05-14T11:44:12+02:00</time>
      </trkpt>
      <trkpt lat="46.78296" lon="4.8724">
        <ele>175.7002</ele>
        <time>2026-05-14T11:44:13+02:00</time>
      </trkpt>
      <trkpt lat="46.78299" lon="4.87237">
        <ele>175.7002</ele>
        <time>2026-05-14T11:44:14+02:00</time>
      </trkpt>
      <trkpt lat="46.78303" lon="4.87233">
        <ele>176</ele>
        <time>2026-05-14T11:44:15+02:00</time>
      </trkpt>
      <trkpt lat="46.78304" lon="4.87231">
        <ele>176</ele>
        <time>2026-05-14T11:44:16+02:00</time>
      </trkpt>
      <trkpt lat="46.78309" lon="4.87224">
        <ele>176.2998</ele>
        <time>2026-05-14T11:44:17+02:00</time>
      </trkpt>
      <trkpt lat="46.78312" lon="4.87219">
        <ele>176.2998</ele>
        <time>2026-05-14T11:44:18+02:00</time>
      </trkpt>
      <trkpt lat="46.78315" lon="4.87214">
        <ele>176.60059</ele>
        <time>2026-05-14T11:44:19+02:00</time>
      </trkpt>
      <trkpt lat="46.78319" lon="4.87209">
        <ele>176.90039</ele>
        <time>2026-05-14T11:44:20+02:00</time>
      </trkpt>
      <trkpt lat="46.78321" lon="4.87204">
        <ele>176.90039</ele>
        <time>2026-05-14T11:44:21+02:00</time>
      </trkpt>
      <trkpt lat="46.78324" lon="4.87199">
        <ele>177.2002</ele>
        <time>2026-05-14T11:44:22+02:00</time>
      </trkpt>
      <trkpt lat="46.78327" lon="4.87195">
        <ele>177.2002</ele>
        <time>2026-05-14T11:44:23+02:00</time>
      </trkpt>
      <trkpt lat="46.7833" lon="4.8719">
        <ele>177.5</ele>
        <time>2026-05-14T11:44:24+02:00</time>
      </trkpt>
      <trkpt lat="46.78332" lon="4.87186">
        <ele>177.40039</ele>
        <time>2026-05-14T11:44:25+02:00</time>
      </trkpt>
      <trkpt lat="46.78334" lon="4.87183">
        <ele>177.7002</ele>
        <time>2026-05-14T11:44:26+02:00</time>
      </trkpt>
      <trkpt lat="46.78336" lon="4.87179">
        <ele>177.7002</ele>
        <time>2026-05-14T11:44:27+02:00</time>
      </trkpt>
      <trkpt lat="46.78338" lon="4.87175">
        <ele>177.60059</ele>
        <time>2026-05-14T11:44:28+02:00</time>
      </trkpt>
      <trkpt lat="46.7834" lon="4.8717">
        <ele>177.7998</ele>
        <time>2026-05-14T11:44:29+02:00</time>
      </trkpt>
      <trkpt lat="46.78343" lon="4.87167">
        <ele>177.7998</ele>
        <time>2026-05-14T11:44:30+02:00</time>
      </trkpt>
      <trkpt lat="46.78346" lon="4.87163">
        <ele>177.7002</ele>
        <time>2026-05-14T11:44:31+02:00</time>
      </trkpt>
      <trkpt lat="46.78348" lon="4.87158">
        <ele>177.7002</ele>
        <time>2026-05-14T11:44:32+02:00</time>
      </trkpt>
      <trkpt lat="46.78351" lon="4.87154">
        <ele>177.40039</ele>
        <time>2026-05-14T11:44:33+02:00</time>
      </trkpt>
      <trkpt lat="46.78354" lon="4.8715">
        <ele>177.40039</ele>
        <time>2026-05-14T11:44:34+02:00</time>
      </trkpt>
      <trkpt lat="46.78357" lon="4.87145">
        <ele>177</ele>
        <time>2026-05-14T11:44:35+02:00</time>
      </trkpt>
      <trkpt lat="46.7836" lon="4.87141">
        <ele>177</ele>
        <time>2026-05-14T11:44:36+02:00</time>
      </trkpt>
      <trkpt lat="46.78364" lon="4.87136">
        <ele>176.5</ele>
        <time>2026-05-14T11:44:37+02:00</time>
      </trkpt>
      <trkpt lat="46.78367" lon="4.87131">
        <ele>176.10059</ele>
        <time>2026-05-14T11:44:38+02:00</time>
      </trkpt>
      <trkpt lat="46.7837" lon="4.87127">
        <ele>176.10059</ele>
        <time>2026-05-14T11:44:39+02:00</time>
      </trkpt>
      <trkpt lat="46.78373" lon="4.87122">
        <ele>175.7002</ele>
        <time>2026-05-14T11:44:40+02:00</time>
      </trkpt>
      <trkpt lat="46.78376" lon="4.87117">
        <ele>175.7002</ele>
        <time>2026-05-14T11:44:41+02:00</time>
      </trkpt>
      <trkpt lat="46.78379" lon="4.87113">
        <ele>175.10059</ele>
        <time>2026-05-14T11:44:42+02:00</time>
      </trkpt>
      <trkpt lat="46.78383" lon="4.87108">
        <ele>175.10059</ele>
        <time>2026-05-14T11:44:43+02:00</time>
      </trkpt>
      <trkpt lat="46.78386" lon="4.87103">
        <ele>174.2998</ele>
        <time>2026-05-14T11:44:44+02:00</time>
      </trkpt>
      <trkpt lat="46.78389" lon="4.87098">
        <ele>174.2998</ele>
        <time>2026-05-14T11:44:45+02:00</time>
      </trkpt>
      <trkpt lat="46.78393" lon="4.87093">
        <ele>173.2998</ele>
        <time>2026-05-14T11:44:46+02:00</time>
      </trkpt>
      <trkpt lat="46.78396" lon="4.87088">
        <ele>172.60059</ele>
        <time>2026-05-14T11:44:47+02:00</time>
      </trkpt>
      <trkpt lat="46.78399" lon="4.87083">
        <ele>172.60059</ele>
        <time>2026-05-14T11:44:48+02:00</time>
      </trkpt>
      <trkpt lat="46.78402" lon="4.87078">
        <ele>172</ele>
        <time>2026-05-14T11:44:49+02:00</time>
      </trkpt>
      <trkpt lat="46.78406" lon="4.87073">
        <ele>172</ele>
        <time>2026-05-14T11:44:50+02:00</time>
      </trkpt>
      <trkpt lat="46.78409" lon="4.87068">
        <ele>171.60059</ele>
        <time>2026-05-14T11:44:51+02:00</time>
      </trkpt>
      <trkpt lat="46.78412" lon="4.87063">
        <ele>171.5</ele>
        <time>2026-05-14T11:44:52+02:00</time>
      </trkpt>
      <trkpt lat="46.78415" lon="4.87058">
        <ele>171.2998</ele>
        <time>2026-05-14T11:44:53+02:00</time>
      </trkpt>
      <trkpt lat="46.78418" lon="4.87053">
        <ele>171.10059</ele>
        <time>2026-05-14T11:44:54+02:00</time>
      </trkpt>
      <trkpt lat="46.78422" lon="4.87048">
        <ele>171</ele>
        <time>2026-05-14T11:44:55+02:00</time>
      </trkpt>
      <trkpt lat="46.78425" lon="4.87043">
        <ele>170.90039</ele>
        <time>2026-05-14T11:44:56+02:00</time>
      </trkpt>
      <trkpt lat="46.78428" lon="4.87038">
        <ele>170.90039</ele>
        <time>2026-05-14T11:44:57+02:00</time>
      </trkpt>
      <trkpt lat="46.78432" lon="4.87033">
        <ele>170.90039</ele>
        <time>2026-05-14T11:44:58+02:00</time>
      </trkpt>
      <trkpt lat="46.78433" lon="4.8703">
        <ele>170.90039</ele>
        <time>2026-05-14T11:44:59+02:00</time>
      </trkpt>
      <trkpt lat="46.78439" lon="4.87022">
        <ele>170.90039</ele>
        <time>2026-05-14T11:45:00+02:00</time>
      </trkpt>
      <trkpt lat="46.78442" lon="4.87017">
        <ele>170.90039</ele>
        <time>2026-05-14T11:45:01+02:00</time>
      </trkpt>
      <trkpt lat="46.78446" lon="4.87012">
        <ele>170.90039</ele>
        <time>2026-05-14T11:45:02+02:00</time>
      </trkpt>
      <trkpt lat="46.7845" lon="4.87006">
        <ele>170.90039</ele>
        <time>2026-05-14T11:45:03+02:00</time>
      </trkpt>
      <trkpt lat="46.78453" lon="4.87">
        <ele>170.90039</ele>
        <time>2026-05-14T11:45:04+02:00</time>
      </trkpt>
      <trkpt lat="46.78457" lon="4.86995">
        <ele>170.90039</ele>
        <time>2026-05-14T11:45:05+02:00</time>
      </trkpt>
      <trkpt lat="46.7846" lon="4.86989">
        <ele>170.90039</ele>
        <time>2026-05-14T11:45:06+02:00</time>
      </trkpt>
      <trkpt lat="46.78464" lon="4.86983">
        <ele>170.90039</ele>
        <time>2026-05-14T11:45:07+02:00</time>
      </trkpt>
      <trkpt lat="46.78468" lon="4.86978">
        <ele>170.90039</ele>
        <time>2026-05-14T11:45:08+02:00</time>
      </trkpt>
      <trkpt lat="46.78472" lon="4.86972">
        <ele>170.90039</ele>
        <time>2026-05-14T11:45:09+02:00</time>
      </trkpt>
      <trkpt lat="46.78476" lon="4.86966">
        <ele>170.90039</ele>
        <time>2026-05-14T11:45:10+02:00</time>
      </trkpt>
      <trkpt lat="46.78479" lon="4.86961">
        <ele>170.90039</ele>
        <time>2026-05-14T11:45:11+02:00</time>
      </trkpt>
      <trkpt lat="46.78483" lon="4.86955">
        <ele>170.90039</ele>
        <time>2026-05-14T11:45:12+02:00</time>
      </trkpt>
      <trkpt lat="46.78486" lon="4.8695">
        <ele>170.90039</ele>
        <time>2026-05-14T11:45:13+02:00</time>
      </trkpt>
      <trkpt lat="46.7849" lon="4.86944">
        <ele>170.90039</ele>
        <time>2026-05-14T11:45:14+02:00</time>
      </trkpt>
      <trkpt lat="46.78494" lon="4.86938">
        <ele>170.90039</ele>
        <time>2026-05-14T11:45:15+02:00</time>
      </trkpt>
      <trkpt lat="46.78497" lon="4.86933">
        <ele>170.90039</ele>
        <time>2026-05-14T11:45:16+02:00</time>
      </trkpt>
      <trkpt lat="46.78501" lon="4.86927">
        <ele>170.90039</ele>
        <time>2026-05-14T11:45:17+02:00</time>
      </trkpt>
      <trkpt lat="46.78505" lon="4.86922">
        <ele>170.90039</ele>
        <time>2026-05-14T11:45:18+02:00</time>
      </trkpt>
      <trkpt lat="46.78509" lon="4.86916">
        <ele>170.90039</ele>
        <time>2026-05-14T11:45:19+02:00</time>
      </trkpt>
      <trkpt lat="46.78512" lon="4.86911">
        <ele>170.90039</ele>
        <time>2026-05-14T11:45:20+02:00</time>
      </trkpt>
      <trkpt lat="46.78516" lon="4.86905">
        <ele>170.90039</ele>
        <time>2026-05-14T11:45:21+02:00</time>
      </trkpt>
      <trkpt lat="46.7852" lon="4.86899">
        <ele>170.90039</ele>
        <time>2026-05-14T11:45:22+02:00</time>
      </trkpt>
      <trkpt lat="46.78523" lon="4.86893">
        <ele>170.90039</ele>
        <time>2026-05-14T11:45:23+02:00</time>
      </trkpt>
      <trkpt lat="46.78527" lon="4.86887">
        <ele>170.90039</ele>
        <time>2026-05-14T11:45:24+02:00</time>
      </trkpt>
      <trkpt lat="46.78531" lon="4.86882">
        <ele>170.7998</ele>
        <time>2026-05-14T11:45:25+02:00</time>
      </trkpt>
      <trkpt lat="46.78535" lon="4.86876">
        <ele>170.7998</ele>
        <time>2026-05-14T11:45:26+02:00</time>
      </trkpt>
      <trkpt lat="46.78537" lon="4.86873">
        <ele>170.60059</ele>
        <time>2026-05-14T11:45:27+02:00</time>
      </trkpt>
      <trkpt lat="46.78543" lon="4.86864">
        <ele>170.7002</ele>
        <time>2026-05-14T11:45:28+02:00</time>
      </trkpt>
      <trkpt lat="46.78547" lon="4.86858">
        <ele>170.7002</ele>
        <time>2026-05-14T11:45:29+02:00</time>
      </trkpt>
      <trkpt lat="46.78551" lon="4.86852">
        <ele>172.2998</ele>
        <time>2026-05-14T11:45:30+02:00</time>
      </trkpt>
      <trkpt lat="46.78555" lon="4.86847">
        <ele>174.40039</ele>
        <time>2026-05-14T11:45:31+02:00</time>
      </trkpt>
      <trkpt lat="46.78558" lon="4.86841">
        <ele>174.40039</ele>
        <time>2026-05-14T11:45:32+02:00</time>
      </trkpt>
      <trkpt lat="46.78562" lon="4.86836">
        <ele>175.60059</ele>
        <time>2026-05-14T11:45:33+02:00</time>
      </trkpt>
      <trkpt lat="46.78566" lon="4.8683">
        <ele>175.7998</ele>
        <time>2026-05-14T11:45:34+02:00</time>
      </trkpt>
      <trkpt lat="46.7857" lon="4.86825">
        <ele>176.10059</ele>
        <time>2026-05-14T11:45:35+02:00</time>
      </trkpt>
      <trkpt lat="46.78573" lon="4.86819">
        <ele>176.7998</ele>
        <time>2026-05-14T11:45:36+02:00</time>
      </trkpt>
      <trkpt lat="46.78577" lon="4.86813">
        <ele>177.2002</ele>
        <time>2026-05-14T11:45:37+02:00</time>
      </trkpt>
      <trkpt lat="46.78581" lon="4.86808">
        <ele>177.60059</ele>
        <time>2026-05-14T11:45:38+02:00</time>
      </trkpt>
      <trkpt lat="46.78585" lon="4.86802">
        <ele>178.2998</ele>
        <time>2026-05-14T11:45:39+02:00</time>
      </trkpt>
      <trkpt lat="46.78589" lon="4.86797">
        <ele>178.5</ele>
        <time>2026-05-14T11:45:40+02:00</time>
      </trkpt>
      <trkpt lat="46.78592" lon="4.86791">
        <ele>178.7002</ele>
        <time>2026-05-14T11:45:41+02:00</time>
      </trkpt>
      <trkpt lat="46.78597" lon="4.86785">
        <ele>178.7998</ele>
        <time>2026-05-14T11:45:42+02:00</time>
      </trkpt>
      <trkpt lat="46.786" lon="4.8678">
        <ele>178.7002</ele>
        <time>2026-05-14T11:45:43+02:00</time>
      </trkpt>
      <trkpt lat="46.78605" lon="4.86775">
        <ele>178.7998</ele>
        <time>2026-05-14T11:45:44+02:00</time>
      </trkpt>
      <trkpt lat="46.78608" lon="4.8677">
        <ele>178.7998</ele>
        <time>2026-05-14T11:45:45+02:00</time>
      </trkpt>
      <trkpt lat="46.78612" lon="4.86765">
        <ele>178.7998</ele>
        <time>2026-05-14T11:45:46+02:00</time>
      </trkpt>
      <trkpt lat="46.78616" lon="4.86761">
        <ele>178.90039</ele>
        <time>2026-05-14T11:45:47+02:00</time>
      </trkpt>
      <trkpt lat="46.78621" lon="4.86756">
        <ele>179</ele>
        <time>2026-05-14T11:45:48+02:00</time>
      </trkpt>
      <trkpt lat="46.78626" lon="4.86752">
        <ele>179</ele>
        <time>2026-05-14T11:45:49+02:00</time>
      </trkpt>
      <trkpt lat="46.78631" lon="4.86746">
        <ele>179</ele>
        <time>2026-05-14T11:45:50+02:00</time>
      </trkpt>
      <trkpt lat="46.78635" lon="4.86741">
        <ele>178.90039</ele>
        <time>2026-05-14T11:45:51+02:00</time>
      </trkpt>
      <trkpt lat="46.7864" lon="4.86735">
        <ele>178.7998</ele>
        <time>2026-05-14T11:45:52+02:00</time>
      </trkpt>
      <trkpt lat="46.78644" lon="4.8673">
        <ele>178.90039</ele>
        <time>2026-05-14T11:45:53+02:00</time>
      </trkpt>
      <trkpt lat="46.78649" lon="4.86725">
        <ele>178.7998</ele>
        <time>2026-05-14T11:45:54+02:00</time>
      </trkpt>
      <trkpt lat="46.78654" lon="4.86719">
        <ele>178.5</ele>
        <time>2026-05-14T11:45:55+02:00</time>
      </trkpt>
      <trkpt lat="46.78658" lon="4.86714">
        <ele>178.60059</ele>
        <time>2026-05-14T11:45:56+02:00</time>
      </trkpt>
      <trkpt lat="46.78663" lon="4.86709">
        <ele>178.5</ele>
        <time>2026-05-14T11:45:57+02:00</time>
      </trkpt>
      <trkpt lat="46.78668" lon="4.86704">
        <ele>178.60059</ele>
        <time>2026-05-14T11:45:58+02:00</time>
      </trkpt>
      <trkpt lat="46.78672" lon="4.86699">
        <ele>178.2998</ele>
        <time>2026-05-14T11:45:59+02:00</time>
      </trkpt>
      <trkpt lat="46.78676" lon="4.86694">
        <ele>178.10059</ele>
        <time>2026-05-14T11:46:00+02:00</time>
      </trkpt>
      <trkpt lat="46.7868" lon="4.8669">
        <ele>178.2002</ele>
        <time>2026-05-14T11:46:01+02:00</time>
      </trkpt>
      <trkpt lat="46.78684" lon="4.86686">
        <ele>178.2998</ele>
        <time>2026-05-14T11:46:02+02:00</time>
      </trkpt>
      <trkpt lat="46.78687" lon="4.86684">
        <ele>178.10059</ele>
        <time>2026-05-14T11:46:03+02:00</time>
      </trkpt>
      <trkpt lat="46.78691" lon="4.86684">
        <ele>178.2002</ele>
        <time>2026-05-14T11:46:04+02:00</time>
      </trkpt>
      <trkpt lat="46.78695" lon="4.86686">
        <ele>178.40039</ele>
        <time>2026-05-14T11:46:05+02:00</time>
      </trkpt>
      <trkpt lat="46.78698" lon="4.86688">
        <ele>178.5</ele>
        <time>2026-05-14T11:46:06+02:00</time>
      </trkpt>
      <trkpt lat="46.78702" lon="4.86691">
        <ele>178.5</ele>
        <time>2026-05-14T11:46:07+02:00</time>
      </trkpt>
      <trkpt lat="46.78705" lon="4.86693">
        <ele>178.5</ele>
        <time>2026-05-14T11:46:08+02:00</time>
      </trkpt>
      <trkpt lat="46.78708" lon="4.86695">
        <ele>178.7998</ele>
        <time>2026-05-14T11:46:09+02:00</time>
      </trkpt>
      <trkpt lat="46.7871" lon="4.86698">
        <ele>178.7998</ele>
        <time>2026-05-14T11:46:10+02:00</time>
      </trkpt>
      <trkpt lat="46.78712" lon="4.86701">
        <ele>178.7998</ele>
        <time>2026-05-14T11:46:11+02:00</time>
      </trkpt>
      <trkpt lat="46.78715" lon="4.86703">
        <ele>179</ele>
        <time>2026-05-14T11:46:12+02:00</time>
      </trkpt>
      <trkpt lat="46.78716" lon="4.86704">
        <ele>179</ele>
        <time>2026-05-14T11:46:13+02:00</time>
      </trkpt>
      <trkpt lat="46.78718" lon="4.86705">
        <ele>179</ele>
        <time>2026-05-14T11:46:14+02:00</time>
      </trkpt>
      <trkpt lat="46.78719" lon="4.86704">
        <ele>179</ele>
        <time>2026-05-14T11:46:15+02:00</time>
      </trkpt>
      <trkpt lat="46.7872" lon="4.86703">
        <ele>179</ele>
        <time>2026-05-14T11:46:16+02:00</time>
      </trkpt>
      <trkpt lat="46.78721" lon="4.86702">
        <ele>178.7998</ele>
        <time>2026-05-14T11:46:17+02:00</time>
      </trkpt>
      <trkpt lat="46.78721" lon="4.86701">
        <ele>178.7998</ele>
        <time>2026-05-14T11:46:18+02:00</time>
      </trkpt>
      <trkpt lat="46.78722" lon="4.86699">
        <ele>178.7998</ele>
        <time>2026-05-14T11:46:19+02:00</time>
      </trkpt>
      <trkpt lat="46.78724" lon="4.86689">
        <ele>178.7002</ele>
        <time>2026-05-14T11:46:22+02:00</time>
      </trkpt>
      <trkpt lat="46.78723" lon="4.86686">
        <ele>178.7002</ele>
        <time>2026-05-14T11:46:23+02:00</time>
      </trkpt>
      <trkpt lat="46.78723" lon="4.86682">
        <ele>178.5</ele>
        <time>2026-05-14T11:46:24+02:00</time>
      </trkpt>
      <trkpt lat="46.78722" lon="4.86677">
        <ele>178.2998</ele>
        <time>2026-05-14T11:46:25+02:00</time>
      </trkpt>
      <trkpt lat="46.78721" lon="4.86673">
        <ele>178.2998</ele>
        <time>2026-05-14T11:46:26+02:00</time>
      </trkpt>
      <trkpt lat="46.78719" lon="4.86669">
        <ele>178.2998</ele>
        <time>2026-05-14T11:46:27+02:00</time>
      </trkpt>
      <trkpt lat="46.78718" lon="4.86664">
        <ele>178.10059</ele>
        <time>2026-05-14T11:46:28+02:00</time>
      </trkpt>
      <trkpt lat="46.78717" lon="4.86659">
        <ele>177.90039</ele>
        <time>2026-05-14T11:46:29+02:00</time>
      </trkpt>
      <trkpt lat="46.78717" lon="4.86656">
        <ele>177.90039</ele>
        <time>2026-05-14T11:46:30+02:00</time>
      </trkpt>
      <trkpt lat="46.78719" lon="4.86648">
        <ele>177.7998</ele>
        <time>2026-05-14T11:46:31+02:00</time>
      </trkpt>
      <trkpt lat="46.78722" lon="4.86644">
        <ele>177.7998</ele>
        <time>2026-05-14T11:46:32+02:00</time>
      </trkpt>
      <trkpt lat="46.78726" lon="4.86641">
        <ele>177.7002</ele>
        <time>2026-05-14T11:46:33+02:00</time>
      </trkpt>
      <trkpt lat="46.78729" lon="4.86637">
        <ele>177.7002</ele>
        <time>2026-05-14T11:46:34+02:00</time>
      </trkpt>
      <trkpt lat="46.78734" lon="4.86634">
        <ele>177.60059</ele>
        <time>2026-05-14T11:46:35+02:00</time>
      </trkpt>
      <trkpt lat="46.78737" lon="4.8663">
        <ele>177.60059</ele>
        <time>2026-05-14T11:46:36+02:00</time>
      </trkpt>
      <trkpt lat="46.78741" lon="4.86626">
        <ele>177.60059</ele>
        <time>2026-05-14T11:46:37+02:00</time>
      </trkpt>
      <trkpt lat="46.78745" lon="4.86622">
        <ele>177.40039</ele>
        <time>2026-05-14T11:46:38+02:00</time>
      </trkpt>
      <trkpt lat="46.78749" lon="4.86619">
        <ele>177.40039</ele>
        <time>2026-05-14T11:46:39+02:00</time>
      </trkpt>
      <trkpt lat="46.78753" lon="4.86615">
        <ele>177.2002</ele>
        <time>2026-05-14T11:46:40+02:00</time>
      </trkpt>
      <trkpt lat="46.78758" lon="4.86612">
        <ele>177.2002</ele>
        <time>2026-05-14T11:46:41+02:00</time>
      </trkpt>
      <trkpt lat="46.78762" lon="4.86608">
        <ele>177</ele>
        <time>2026-05-14T11:46:42+02:00</time>
      </trkpt>
      <trkpt lat="46.78766" lon="4.86605">
        <ele>177</ele>
        <time>2026-05-14T11:46:43+02:00</time>
      </trkpt>
      <trkpt lat="46.7877" lon="4.86602">
        <ele>177</ele>
        <time>2026-05-14T11:46:44+02:00</time>
      </trkpt>
      <trkpt lat="46.78774" lon="4.866">
        <ele>176.90039</ele>
        <time>2026-05-14T11:46:45+02:00</time>
      </trkpt>
      <trkpt lat="46.78779" lon="4.86597">
        <ele>176.7998</ele>
        <time>2026-05-14T11:46:46+02:00</time>
      </trkpt>
      <trkpt lat="46.78782" lon="4.86595">
        <ele>176.7998</ele>
        <time>2026-05-14T11:46:47+02:00</time>
      </trkpt>
      <trkpt lat="46.78787" lon="4.86593">
        <ele>176.7002</ele>
        <time>2026-05-14T11:46:48+02:00</time>
      </trkpt>
      <trkpt lat="46.78791" lon="4.86592">
        <ele>176.60059</ele>
        <time>2026-05-14T11:46:49+02:00</time>
      </trkpt>
      <trkpt lat="46.78795" lon="4.86592">
        <ele>176.60059</ele>
        <time>2026-05-14T11:46:50+02:00</time>
      </trkpt>
      <trkpt lat="46.78798" lon="4.86593">
        <ele>176.5</ele>
        <time>2026-05-14T11:46:51+02:00</time>
      </trkpt>
      <trkpt lat="46.78802" lon="4.86593">
        <ele>176.40039</ele>
        <time>2026-05-14T11:46:52+02:00</time>
      </trkpt>
      <trkpt lat="46.78805" lon="4.86592">
        <ele>176.40039</ele>
        <time>2026-05-14T11:46:53+02:00</time>
      </trkpt>
      <trkpt lat="46.78806" lon="4.86591">
        <ele>176.60059</ele>
        <time>2026-05-14T11:46:54+02:00</time>
      </trkpt>
      <trkpt lat="46.78808" lon="4.86589">
        <ele>176.5</ele>
        <time>2026-05-14T11:46:55+02:00</time>
      </trkpt>
      <trkpt lat="46.78809" lon="4.86587">
        <ele>176.5</ele>
        <time>2026-05-14T11:46:56+02:00</time>
      </trkpt>
      <trkpt lat="46.7881" lon="4.86586">
        <ele>176.5</ele>
        <time>2026-05-14T11:46:57+02:00</time>
      </trkpt>
      <trkpt lat="46.7881" lon="4.86586">
        <ele>176.5</ele>
        <time>2026-05-14T11:46:58+02:00</time>
      </trkpt>
      <trkpt lat="46.78811" lon="4.86586">
        <ele>176.5</ele>
        <time>2026-05-14T11:46:59+02:00</time>
      </trkpt>
      <trkpt lat="46.78811" lon="4.86586">
        <ele>176.5</ele>
        <time>2026-05-14T11:47:00+02:00</time>
      </trkpt>
      <trkpt lat="46.78829" lon="4.86588">
        <ele>176.2002</ele>
        <time>2026-05-14T11:47:08+02:00</time>
      </trkpt>
      <trkpt lat="46.78833" lon="4.86587">
        <ele>176.10059</ele>
        <time>2026-05-14T11:47:09+02:00</time>
      </trkpt>
      <trkpt lat="46.78838" lon="4.86586">
        <ele>175.90039</ele>
        <time>2026-05-14T11:47:10+02:00</time>
      </trkpt>
      <trkpt lat="46.78842" lon="4.86583">
        <ele>175.90039</ele>
        <time>2026-05-14T11:47:11+02:00</time>
      </trkpt>
      <trkpt lat="46.78843" lon="4.86582">
        <ele>176</ele>
        <time>2026-05-14T11:47:12+02:00</time>
      </trkpt>
      <trkpt lat="46.7885" lon="4.86579">
        <ele>175.7998</ele>
        <time>2026-05-14T11:47:13+02:00</time>
      </trkpt>
      <trkpt lat="46.78855" lon="4.86578">
        <ele>175.60059</ele>
        <time>2026-05-14T11:47:14+02:00</time>
      </trkpt>
      <trkpt lat="46.78859" lon="4.86579">
        <ele>175.60059</ele>
        <time>2026-05-14T11:47:15+02:00</time>
      </trkpt>
      <trkpt lat="46.78864" lon="4.86581">
        <ele>175.40039</ele>
        <time>2026-05-14T11:47:16+02:00</time>
      </trkpt>
      <trkpt lat="46.78869" lon="4.86585">
        <ele>175.10059</ele>
        <time>2026-05-14T11:47:17+02:00</time>
      </trkpt>
      <trkpt lat="46.78873" lon="4.86589">
        <ele>175</ele>
        <time>2026-05-14T11:47:18+02:00</time>
      </trkpt>
      <trkpt lat="46.78877" lon="4.86593">
        <ele>174.90039</ele>
        <time>2026-05-14T11:47:19+02:00</time>
      </trkpt>
      <trkpt lat="46.78882" lon="4.86598">
        <ele>174.7002</ele>
        <time>2026-05-14T11:47:20+02:00</time>
      </trkpt>
      <trkpt lat="46.78887" lon="4.86602">
        <ele>174.5</ele>
        <time>2026-05-14T11:47:21+02:00</time>
      </trkpt>
      <trkpt lat="46.78889" lon="4.86605">
        <ele>174.5</ele>
        <time>2026-05-14T11:47:22+02:00</time>
      </trkpt>
      <trkpt lat="46.78896" lon="4.86612">
        <ele>174.40039</ele>
        <time>2026-05-14T11:47:23+02:00</time>
      </trkpt>
      <trkpt lat="46.78901" lon="4.86616">
        <ele>174.40039</ele>
        <time>2026-05-14T11:47:24+02:00</time>
      </trkpt>
      <trkpt lat="46.78906" lon="4.86621">
        <ele>174.2998</ele>
        <time>2026-05-14T11:47:25+02:00</time>
      </trkpt>
      <trkpt lat="46.78911" lon="4.86625">
        <ele>174.2998</ele>
        <time>2026-05-14T11:47:26+02:00</time>
      </trkpt>
      <trkpt lat="46.78915" lon="4.8663">
        <ele>174.2998</ele>
        <time>2026-05-14T11:47:27+02:00</time>
      </trkpt>
      <trkpt lat="46.7892" lon="4.86635">
        <ele>174.2998</ele>
        <time>2026-05-14T11:47:28+02:00</time>
      </trkpt>
      <trkpt lat="46.78925" lon="4.86639">
        <ele>174.2998</ele>
        <time>2026-05-14T11:47:29+02:00</time>
      </trkpt>
      <trkpt lat="46.78929" lon="4.86644">
        <ele>174.2998</ele>
        <time>2026-05-14T11:47:30+02:00</time>
      </trkpt>
      <trkpt lat="46.78934" lon="4.86648">
        <ele>174.2998</ele>
        <time>2026-05-14T11:47:31+02:00</time>
      </trkpt>
      <trkpt lat="46.78939" lon="4.86653">
        <ele>174.40039</ele>
        <time>2026-05-14T11:47:32+02:00</time>
      </trkpt>
      <trkpt lat="46.78944" lon="4.86658">
        <ele>174.40039</ele>
        <time>2026-05-14T11:47:33+02:00</time>
      </trkpt>
      <trkpt lat="46.78948" lon="4.86662">
        <ele>174.5</ele>
        <time>2026-05-14T11:47:34+02:00</time>
      </trkpt>
      <trkpt lat="46.78953" lon="4.86667">
        <ele>174.60059</ele>
        <time>2026-05-14T11:47:35+02:00</time>
      </trkpt>
      <trkpt lat="46.78958" lon="4.86672">
        <ele>174.7002</ele>
        <time>2026-05-14T11:47:36+02:00</time>
      </trkpt>
      <trkpt lat="46.78962" lon="4.86676">
        <ele>174.7002</ele>
        <time>2026-05-14T11:47:37+02:00</time>
      </trkpt>
      <trkpt lat="46.78967" lon="4.86681">
        <ele>174.7998</ele>
        <time>2026-05-14T11:47:38+02:00</time>
      </trkpt>
      <trkpt lat="46.78972" lon="4.86686">
        <ele>175</ele>
        <time>2026-05-14T11:47:39+02:00</time>
      </trkpt>
      <trkpt lat="46.78977" lon="4.8669">
        <ele>175</ele>
        <time>2026-05-14T11:47:40+02:00</time>
      </trkpt>
      <trkpt lat="46.78981" lon="4.86695">
        <ele>175.10059</ele>
        <time>2026-05-14T11:47:41+02:00</time>
      </trkpt>
      <trkpt lat="46.78986" lon="4.86699">
        <ele>175.2002</ele>
        <time>2026-05-14T11:47:42+02:00</time>
      </trkpt>
      <trkpt lat="46.78991" lon="4.86703">
        <ele>175.2002</ele>
        <time>2026-05-14T11:47:43+02:00</time>
      </trkpt>
      <trkpt lat="46.78995" lon="4.86708">
        <ele>175.2002</ele>
        <time>2026-05-14T11:47:44+02:00</time>
      </trkpt>
      <trkpt lat="46.79" lon="4.86713">
        <ele>175.2998</ele>
        <time>2026-05-14T11:47:45+02:00</time>
      </trkpt>
      <trkpt lat="46.79004" lon="4.86718">
        <ele>175.2998</ele>
        <time>2026-05-14T11:47:46+02:00</time>
      </trkpt>
      <trkpt lat="46.79009" lon="4.86722">
        <ele>175.2998</ele>
        <time>2026-05-14T11:47:47+02:00</time>
      </trkpt>
      <trkpt lat="46.79014" lon="4.86727">
        <ele>175.40039</ele>
        <time>2026-05-14T11:47:48+02:00</time>
      </trkpt>
      <trkpt lat="46.79019" lon="4.86731">
        <ele>175.40039</ele>
        <time>2026-05-14T11:47:49+02:00</time>
      </trkpt>
      <trkpt lat="46.79024" lon="4.86735">
        <ele>175.40039</ele>
        <time>2026-05-14T11:47:50+02:00</time>
      </trkpt>
      <trkpt lat="46.79029" lon="4.86739">
        <ele>175.40039</ele>
        <time>2026-05-14T11:47:51+02:00</time>
      </trkpt>
      <trkpt lat="46.79034" lon="4.86743">
        <ele>175.40039</ele>
        <time>2026-05-14T11:47:52+02:00</time>
      </trkpt>
      <trkpt lat="46.79039" lon="4.86746">
        <ele>175.2998</ele>
        <time>2026-05-14T11:47:53+02:00</time>
      </trkpt>
      <trkpt lat="46.79041" lon="4.86748">
        <ele>175.2998</ele>
        <time>2026-05-14T11:47:54+02:00</time>
      </trkpt>
      <trkpt lat="46.79049" lon="4.86754">
        <ele>175.2998</ele>
        <time>2026-05-14T11:47:55+02:00</time>
      </trkpt>
      <trkpt lat="46.79054" lon="4.86757">
        <ele>175.2998</ele>
        <time>2026-05-14T11:47:56+02:00</time>
      </trkpt>
      <trkpt lat="46.79059" lon="4.8676">
        <ele>175.2998</ele>
        <time>2026-05-14T11:47:57+02:00</time>
      </trkpt>
      <trkpt lat="46.79064" lon="4.86763">
        <ele>175.2998</ele>
        <time>2026-05-14T11:47:58+02:00</time>
      </trkpt>
      <trkpt lat="46.79069" lon="4.86766">
        <ele>175.2002</ele>
        <time>2026-05-14T11:47:59+02:00</time>
      </trkpt>
      <trkpt lat="46.79074" lon="4.86768">
        <ele>175.2002</ele>
        <time>2026-05-14T11:48:00+02:00</time>
      </trkpt>
      <trkpt lat="46.79079" lon="4.86771">
        <ele>175.2002</ele>
        <time>2026-05-14T11:48:01+02:00</time>
      </trkpt>
      <trkpt lat="46.79084" lon="4.86773">
        <ele>175.10059</ele>
        <time>2026-05-14T11:48:02+02:00</time>
      </trkpt>
      <trkpt lat="46.79089" lon="4.86776">
        <ele>175.10059</ele>
        <time>2026-05-14T11:48:03+02:00</time>
      </trkpt>
      <trkpt lat="46.79094" lon="4.86778">
        <ele>175.2002</ele>
        <time>2026-05-14T11:48:04+02:00</time>
      </trkpt>
      <trkpt lat="46.791" lon="4.86781">
        <ele>175.10059</ele>
        <time>2026-05-14T11:48:05+02:00</time>
      </trkpt>
      <trkpt lat="46.79106" lon="4.86782">
        <ele>175.10059</ele>
        <time>2026-05-14T11:48:06+02:00</time>
      </trkpt>
      <trkpt lat="46.79111" lon="4.86784">
        <ele>175.2002</ele>
        <time>2026-05-14T11:48:07+02:00</time>
      </trkpt>
      <trkpt lat="46.79116" lon="4.86786">
        <ele>175.2002</ele>
        <time>2026-05-14T11:48:08+02:00</time>
      </trkpt>
      <trkpt lat="46.79122" lon="4.86788">
        <ele>175.2998</ele>
        <time>2026-05-14T11:48:09+02:00</time>
      </trkpt>
      <trkpt lat="46.79127" lon="4.8679">
        <ele>175.10059</ele>
        <time>2026-05-14T11:48:10+02:00</time>
      </trkpt>
      <trkpt lat="46.79133" lon="4.86791">
        <ele>175.2002</ele>
        <time>2026-05-14T11:48:11+02:00</time>
      </trkpt>
      <trkpt lat="46.79135" lon="4.86792">
        <ele>175.2002</ele>
        <time>2026-05-14T11:48:12+02:00</time>
      </trkpt>
      <trkpt lat="46.79143" lon="4.86793">
        <ele>175.40039</ele>
        <time>2026-05-14T11:48:13+02:00</time>
      </trkpt>
      <trkpt lat="46.79149" lon="4.86793">
        <ele>175.5</ele>
        <time>2026-05-14T11:48:14+02:00</time>
      </trkpt>
      <trkpt lat="46.79154" lon="4.86794">
        <ele>175.5</ele>
        <time>2026-05-14T11:48:15+02:00</time>
      </trkpt>
      <trkpt lat="46.79159" lon="4.86794">
        <ele>175.60059</ele>
        <time>2026-05-14T11:48:16+02:00</time>
      </trkpt>
      <trkpt lat="46.79165" lon="4.86795">
        <ele>175.7002</ele>
        <time>2026-05-14T11:48:17+02:00</time>
      </trkpt>
      <trkpt lat="46.7917" lon="4.86796">
        <ele>175.7998</ele>
        <time>2026-05-14T11:48:18+02:00</time>
      </trkpt>
      <trkpt lat="46.79176" lon="4.86796">
        <ele>175.90039</ele>
        <time>2026-05-14T11:48:19+02:00</time>
      </trkpt>
      <trkpt lat="46.79181" lon="4.86796">
        <ele>176</ele>
        <time>2026-05-14T11:48:20+02:00</time>
      </trkpt>
      <trkpt lat="46.79187" lon="4.86796">
        <ele>176.10059</ele>
        <time>2026-05-14T11:48:21+02:00</time>
      </trkpt>
      <trkpt lat="46.79192" lon="4.86796">
        <ele>176.2002</ele>
        <time>2026-05-14T11:48:22+02:00</time>
      </trkpt>
      <trkpt lat="46.79197" lon="4.86795">
        <ele>176.2998</ele>
        <time>2026-05-14T11:48:23+02:00</time>
      </trkpt>
      <trkpt lat="46.79203" lon="4.86795">
        <ele>176.2998</ele>
        <time>2026-05-14T11:48:24+02:00</time>
      </trkpt>
      <trkpt lat="46.79209" lon="4.86794">
        <ele>176.40039</ele>
        <time>2026-05-14T11:48:25+02:00</time>
      </trkpt>
      <trkpt lat="46.79214" lon="4.86793">
        <ele>176.5</ele>
        <time>2026-05-14T11:48:26+02:00</time>
      </trkpt>
      <trkpt lat="46.79219" lon="4.86792">
        <ele>176.5</ele>
        <time>2026-05-14T11:48:27+02:00</time>
      </trkpt>
      <trkpt lat="46.79225" lon="4.86791">
        <ele>176.60059</ele>
        <time>2026-05-14T11:48:28+02:00</time>
      </trkpt>
      <trkpt lat="46.79229" lon="4.86791">
        <ele>176.60059</ele>
        <time>2026-05-14T11:48:29+02:00</time>
      </trkpt>
      <trkpt lat="46.79235" lon="4.8679">
        <ele>176.60059</ele>
        <time>2026-05-14T11:48:30+02:00</time>
      </trkpt>
      <trkpt lat="46.7924" lon="4.86789">
        <ele>176.60059</ele>
        <time>2026-05-14T11:48:31+02:00</time>
      </trkpt>
      <trkpt lat="46.79245" lon="4.86788">
        <ele>177.5</ele>
        <time>2026-05-14T11:48:32+02:00</time>
      </trkpt>
      <trkpt lat="46.7925" lon="4.86787">
        <ele>177.7002</ele>
        <time>2026-05-14T11:48:33+02:00</time>
      </trkpt>
      <trkpt lat="46.79255" lon="4.86786">
        <ele>177.7998</ele>
        <time>2026-05-14T11:48:34+02:00</time>
      </trkpt>
      <trkpt lat="46.79261" lon="4.86785">
        <ele>177.7002</ele>
        <time>2026-05-14T11:48:35+02:00</time>
      </trkpt>
      <trkpt lat="46.79266" lon="4.86785">
        <ele>177.40039</ele>
        <time>2026-05-14T11:48:36+02:00</time>
      </trkpt>
      <trkpt lat="46.79272" lon="4.86785">
        <ele>177</ele>
        <time>2026-05-14T11:48:37+02:00</time>
      </trkpt>
      <trkpt lat="46.79278" lon="4.86784">
        <ele>176.5</ele>
        <time>2026-05-14T11:48:38+02:00</time>
      </trkpt>
      <trkpt lat="46.79283" lon="4.86784">
        <ele>176.5</ele>
        <time>2026-05-14T11:48:39+02:00</time>
      </trkpt>
      <trkpt lat="46.79286" lon="4.86784">
        <ele>176.2002</ele>
        <time>2026-05-14T11:48:40+02:00</time>
      </trkpt>
      <trkpt lat="46.79294" lon="4.86783">
        <ele>175.90039</ele>
        <time>2026-05-14T11:48:41+02:00</time>
      </trkpt>
      <trkpt lat="46.793" lon="4.86783">
        <ele>175.60059</ele>
        <time>2026-05-14T11:48:42+02:00</time>
      </trkpt>
      <trkpt lat="46.79305" lon="4.86783">
        <ele>175.2998</ele>
        <time>2026-05-14T11:48:43+02:00</time>
      </trkpt>
      <trkpt lat="46.79311" lon="4.86782">
        <ele>175</ele>
        <time>2026-05-14T11:48:44+02:00</time>
      </trkpt>
      <trkpt lat="46.79316" lon="4.86783">
        <ele>174.90039</ele>
        <time>2026-05-14T11:48:45+02:00</time>
      </trkpt>
      <trkpt lat="46.79321" lon="4.86783">
        <ele>174.90039</ele>
        <time>2026-05-14T11:48:46+02:00</time>
      </trkpt>
      <trkpt lat="46.79327" lon="4.86783">
        <ele>175</ele>
        <time>2026-05-14T11:48:47+02:00</time>
      </trkpt>
      <trkpt lat="46.79332" lon="4.86783">
        <ele>175.40039</ele>
        <time>2026-05-14T11:48:48+02:00</time>
      </trkpt>
      <trkpt lat="46.79337" lon="4.86784">
        <ele>176</ele>
        <time>2026-05-14T11:48:49+02:00</time>
      </trkpt>
      <trkpt lat="46.79343" lon="4.86785">
        <ele>176.60059</ele>
        <time>2026-05-14T11:48:50+02:00</time>
      </trkpt>
      <trkpt lat="46.79349" lon="4.86786">
        <ele>177.2002</ele>
        <time>2026-05-14T11:48:51+02:00</time>
      </trkpt>
      <trkpt lat="46.79355" lon="4.86788">
        <ele>177.5</ele>
        <time>2026-05-14T11:48:52+02:00</time>
      </trkpt>
      <trkpt lat="46.7936" lon="4.8679">
        <ele>176.7998</ele>
        <time>2026-05-14T11:48:53+02:00</time>
      </trkpt>
      <trkpt lat="46.79365" lon="4.86792">
        <ele>176.7998</ele>
        <time>2026-05-14T11:48:54+02:00</time>
      </trkpt>
      <trkpt lat="46.79371" lon="4.86795">
        <ele>176.90039</ele>
        <time>2026-05-14T11:48:55+02:00</time>
      </trkpt>
      <trkpt lat="46.79376" lon="4.86797">
        <ele>177</ele>
        <time>2026-05-14T11:48:56+02:00</time>
      </trkpt>
      <trkpt lat="46.79382" lon="4.868">
        <ele>175.7998</ele>
        <time>2026-05-14T11:48:57+02:00</time>
      </trkpt>
      <trkpt lat="46.79384" lon="4.86802">
        <ele>175.7002</ele>
        <time>2026-05-14T11:48:58+02:00</time>
      </trkpt>
      <trkpt lat="46.79392" lon="4.86807">
        <ele>174.10059</ele>
        <time>2026-05-14T11:48:59+02:00</time>
      </trkpt>
      <trkpt lat="46.79397" lon="4.86811">
        <ele>174</ele>
        <time>2026-05-14T11:49:00+02:00</time>
      </trkpt>
      <trkpt lat="46.79402" lon="4.86814">
        <ele>173.90039</ele>
        <time>2026-05-14T11:49:01+02:00</time>
      </trkpt>
      <trkpt lat="46.79407" lon="4.86817">
        <ele>171.7002</ele>
        <time>2026-05-14T11:49:02+02:00</time>
      </trkpt>
      <trkpt lat="46.79412" lon="4.8682">
        <ele>171.7002</ele>
        <time>2026-05-14T11:49:03+02:00</time>
      </trkpt>
      <trkpt lat="46.79417" lon="4.86823">
        <ele>171.7002</ele>
        <time>2026-05-14T11:49:04+02:00</time>
      </trkpt>
      <trkpt lat="46.79422" lon="4.86826">
        <ele>170.5</ele>
        <time>2026-05-14T11:49:05+02:00</time>
      </trkpt>
      <trkpt lat="46.79427" lon="4.8683">
        <ele>171.40039</ele>
        <time>2026-05-14T11:49:06+02:00</time>
      </trkpt>
      <trkpt lat="46.79432" lon="4.86833">
        <ele>172</ele>
        <time>2026-05-14T11:49:07+02:00</time>
      </trkpt>
      <trkpt lat="46.79437" lon="4.86835">
        <ele>173.2002</ele>
        <time>2026-05-14T11:49:08+02:00</time>
      </trkpt>
      <trkpt lat="46.79442" lon="4.86837">
        <ele>173.2002</ele>
        <time>2026-05-14T11:49:09+02:00</time>
      </trkpt>
      <trkpt lat="46.79447" lon="4.86839">
        <ele>174</ele>
        <time>2026-05-14T11:49:10+02:00</time>
      </trkpt>
      <trkpt lat="46.79453" lon="4.86841">
        <ele>173.2002</ele>
        <time>2026-05-14T11:49:11+02:00</time>
      </trkpt>
      <trkpt lat="46.79458" lon="4.86842">
        <ele>174.10059</ele>
        <time>2026-05-14T11:49:12+02:00</time>
      </trkpt>
      <trkpt lat="46.79463" lon="4.86844">
        <ele>174.90039</ele>
        <time>2026-05-14T11:49:13+02:00</time>
      </trkpt>
      <trkpt lat="46.79468" lon="4.86845">
        <ele>175.40039</ele>
        <time>2026-05-14T11:49:14+02:00</time>
      </trkpt>
      <trkpt lat="46.79473" lon="4.86846">
        <ele>175.7998</ele>
        <time>2026-05-14T11:49:15+02:00</time>
      </trkpt>
      <trkpt lat="46.79478" lon="4.86847">
        <ele>176.10059</ele>
        <time>2026-05-14T11:49:16+02:00</time>
      </trkpt>
      <trkpt lat="46.79483" lon="4.86848">
        <ele>176.40039</ele>
        <time>2026-05-14T11:49:17+02:00</time>
      </trkpt>
      <trkpt lat="46.79488" lon="4.86849">
        <ele>176.10059</ele>
        <time>2026-05-14T11:49:18+02:00</time>
      </trkpt>
      <trkpt lat="46.79493" lon="4.8685">
        <ele>176.40039</ele>
        <time>2026-05-14T11:49:19+02:00</time>
      </trkpt>
      <trkpt lat="46.79498" lon="4.8685">
        <ele>176.7998</ele>
        <time>2026-05-14T11:49:20+02:00</time>
      </trkpt>
      <trkpt lat="46.79503" lon="4.86851">
        <ele>177.2002</ele>
        <time>2026-05-14T11:49:21+02:00</time>
      </trkpt>
      <trkpt lat="46.79508" lon="4.86851">
        <ele>177.5</ele>
        <time>2026-05-14T11:49:22+02:00</time>
      </trkpt>
      <trkpt lat="46.79513" lon="4.86851">
        <ele>177.7002</ele>
        <time>2026-05-14T11:49:23+02:00</time>
      </trkpt>
      <trkpt lat="46.79518" lon="4.86851">
        <ele>177.7002</ele>
        <time>2026-05-14T11:49:24+02:00</time>
      </trkpt>
      <trkpt lat="46.79523" lon="4.86851">
        <ele>177.90039</ele>
        <time>2026-05-14T11:49:25+02:00</time>
      </trkpt>
      <trkpt lat="46.79528" lon="4.86851">
        <ele>178</ele>
        <time>2026-05-14T11:49:26+02:00</time>
      </trkpt>
      <trkpt lat="46.79533" lon="4.86851">
        <ele>178.2002</ele>
        <time>2026-05-14T11:49:27+02:00</time>
      </trkpt>
      <trkpt lat="46.79538" lon="4.86851">
        <ele>178.2998</ele>
        <time>2026-05-14T11:49:28+02:00</time>
      </trkpt>
      <trkpt lat="46.79542" lon="4.8685">
        <ele>178.5</ele>
        <time>2026-05-14T11:49:29+02:00</time>
      </trkpt>
      <trkpt lat="46.79547" lon="4.8685">
        <ele>178.5</ele>
        <time>2026-05-14T11:49:30+02:00</time>
      </trkpt>
      <trkpt lat="46.79552" lon="4.86849">
        <ele>178.60059</ele>
        <time>2026-05-14T11:49:31+02:00</time>
      </trkpt>
      <trkpt lat="46.79557" lon="4.86849">
        <ele>178.7002</ele>
        <time>2026-05-14T11:49:32+02:00</time>
      </trkpt>
      <trkpt lat="46.79562" lon="4.86849">
        <ele>178.90039</ele>
        <time>2026-05-14T11:49:33+02:00</time>
      </trkpt>
      <trkpt lat="46.79567" lon="4.86849">
        <ele>179</ele>
        <time>2026-05-14T11:49:34+02:00</time>
      </trkpt>
      <trkpt lat="46.79572" lon="4.8685">
        <ele>179.10059</ele>
        <time>2026-05-14T11:49:35+02:00</time>
      </trkpt>
      <trkpt lat="46.79577" lon="4.8685">
        <ele>179.10059</ele>
        <time>2026-05-14T11:49:36+02:00</time>
      </trkpt>
      <trkpt lat="46.79582" lon="4.8685">
        <ele>179.2998</ele>
        <time>2026-05-14T11:49:37+02:00</time>
      </trkpt>
      <trkpt lat="46.79587" lon="4.8685">
        <ele>179.40039</ele>
        <time>2026-05-14T11:49:38+02:00</time>
      </trkpt>
      <trkpt lat="46.79592" lon="4.86851">
        <ele>179.5</ele>
        <time>2026-05-14T11:49:39+02:00</time>
      </trkpt>
      <trkpt lat="46.79596" lon="4.86851">
        <ele>179.60059</ele>
        <time>2026-05-14T11:49:40+02:00</time>
      </trkpt>
      <trkpt lat="46.79601" lon="4.86851">
        <ele>179.7998</ele>
        <time>2026-05-14T11:49:41+02:00</time>
      </trkpt>
      <trkpt lat="46.79605" lon="4.86852">
        <ele>179.7998</ele>
        <time>2026-05-14T11:49:42+02:00</time>
      </trkpt>
      <trkpt lat="46.79609" lon="4.86853">
        <ele>179.90039</ele>
        <time>2026-05-14T11:49:43+02:00</time>
      </trkpt>
      <trkpt lat="46.79614" lon="4.86854">
        <ele>180</ele>
        <time>2026-05-14T11:49:44+02:00</time>
      </trkpt>
      <trkpt lat="46.79618" lon="4.86855">
        <ele>180</ele>
        <time>2026-05-14T11:49:45+02:00</time>
      </trkpt>
      <trkpt lat="46.79623" lon="4.86856">
        <ele>180.2002</ele>
        <time>2026-05-14T11:49:46+02:00</time>
      </trkpt>
      <trkpt lat="46.79628" lon="4.86856">
        <ele>180.2998</ele>
        <time>2026-05-14T11:49:47+02:00</time>
      </trkpt>
      <trkpt lat="46.79633" lon="4.86857">
        <ele>180.40039</ele>
        <time>2026-05-14T11:49:48+02:00</time>
      </trkpt>
      <trkpt lat="46.79638" lon="4.86857">
        <ele>180.5</ele>
        <time>2026-05-14T11:49:49+02:00</time>
      </trkpt>
      <trkpt lat="46.79643" lon="4.86858">
        <ele>180.60059</ele>
        <time>2026-05-14T11:49:50+02:00</time>
      </trkpt>
      <trkpt lat="46.79648" lon="4.86858">
        <ele>180.60059</ele>
        <time>2026-05-14T11:49:51+02:00</time>
      </trkpt>
      <trkpt lat="46.79653" lon="4.86858">
        <ele>180.60059</ele>
        <time>2026-05-14T11:49:52+02:00</time>
      </trkpt>
      <trkpt lat="46.79659" lon="4.86859">
        <ele>180.7002</ele>
        <time>2026-05-14T11:49:53+02:00</time>
      </trkpt>
      <trkpt lat="46.79664" lon="4.86859">
        <ele>180.7002</ele>
        <time>2026-05-14T11:49:54+02:00</time>
      </trkpt>
      <trkpt lat="46.79669" lon="4.86859">
        <ele>180.7002</ele>
        <time>2026-05-14T11:49:55+02:00</time>
      </trkpt>
      <trkpt lat="46.79672" lon="4.8686">
        <ele>180.7002</ele>
        <time>2026-05-14T11:49:56+02:00</time>
      </trkpt>
      <trkpt lat="46.7968" lon="4.8686">
        <ele>180.60059</ele>
        <time>2026-05-14T11:49:57+02:00</time>
      </trkpt>
      <trkpt lat="46.79685" lon="4.8686">
        <ele>180.60059</ele>
        <time>2026-05-14T11:49:58+02:00</time>
      </trkpt>
      <trkpt lat="46.7969" lon="4.86861">
        <ele>180.5</ele>
        <time>2026-05-14T11:49:59+02:00</time>
      </trkpt>
      <trkpt lat="46.79694" lon="4.86861">
        <ele>180.5</ele>
        <time>2026-05-14T11:50:00+02:00</time>
      </trkpt>
      <trkpt lat="46.79699" lon="4.86861">
        <ele>180.40039</ele>
        <time>2026-05-14T11:50:01+02:00</time>
      </trkpt>
      <trkpt lat="46.79705" lon="4.86861">
        <ele>180.2998</ele>
        <time>2026-05-14T11:50:02+02:00</time>
      </trkpt>
      <trkpt lat="46.7971" lon="4.86861">
        <ele>180.2002</ele>
        <time>2026-05-14T11:50:03+02:00</time>
      </trkpt>
      <trkpt lat="46.79716" lon="4.86861">
        <ele>180.10059</ele>
        <time>2026-05-14T11:50:04+02:00</time>
      </trkpt>
      <trkpt lat="46.79721" lon="4.86862">
        <ele>180</ele>
        <time>2026-05-14T11:50:05+02:00</time>
      </trkpt>
      <trkpt lat="46.79727" lon="4.86861">
        <ele>179.90039</ele>
        <time>2026-05-14T11:50:06+02:00</time>
      </trkpt>
      <trkpt lat="46.79732" lon="4.86861">
        <ele>179.7998</ele>
        <time>2026-05-14T11:50:07+02:00</time>
      </trkpt>
      <trkpt lat="46.79737" lon="4.8686">
        <ele>179.7998</ele>
        <time>2026-05-14T11:50:08+02:00</time>
      </trkpt>
      <trkpt lat="46.79743" lon="4.86859">
        <ele>179.7002</ele>
        <time>2026-05-14T11:50:09+02:00</time>
      </trkpt>
      <trkpt lat="46.79748" lon="4.86859">
        <ele>179.60059</ele>
        <time>2026-05-14T11:50:10+02:00</time>
      </trkpt>
      <trkpt lat="46.79753" lon="4.86858">
        <ele>179.60059</ele>
        <time>2026-05-14T11:50:11+02:00</time>
      </trkpt>
      <trkpt lat="46.79759" lon="4.86858">
        <ele>179.5</ele>
        <time>2026-05-14T11:50:12+02:00</time>
      </trkpt>
      <trkpt lat="46.79764" lon="4.86858">
        <ele>179.40039</ele>
        <time>2026-05-14T11:50:13+02:00</time>
      </trkpt>
      <trkpt lat="46.79769" lon="4.86859">
        <ele>179.40039</ele>
        <time>2026-05-14T11:50:14+02:00</time>
      </trkpt>
      <trkpt lat="46.79774" lon="4.86859">
        <ele>179.40039</ele>
        <time>2026-05-14T11:50:15+02:00</time>
      </trkpt>
      <trkpt lat="46.79779" lon="4.86859">
        <ele>179.2998</ele>
        <time>2026-05-14T11:50:16+02:00</time>
      </trkpt>
      <trkpt lat="46.79784" lon="4.86859">
        <ele>179.10059</ele>
        <time>2026-05-14T11:50:17+02:00</time>
      </trkpt>
      <trkpt lat="46.79789" lon="4.86859">
        <ele>178.7002</ele>
        <time>2026-05-14T11:50:18+02:00</time>
      </trkpt>
      <trkpt lat="46.79794" lon="4.86859">
        <ele>178.7002</ele>
        <time>2026-05-14T11:50:19+02:00</time>
      </trkpt>
      <trkpt lat="46.79799" lon="4.86858">
        <ele>178.2002</ele>
        <time>2026-05-14T11:50:20+02:00</time>
      </trkpt>
      <trkpt lat="46.79804" lon="4.86857">
        <ele>178.2002</ele>
        <time>2026-05-14T11:50:21+02:00</time>
      </trkpt>
      <trkpt lat="46.79809" lon="4.86857">
        <ele>177.90039</ele>
        <time>2026-05-14T11:50:22+02:00</time>
      </trkpt>
      <trkpt lat="46.79814" lon="4.86856">
        <ele>177.7002</ele>
        <time>2026-05-14T11:50:23+02:00</time>
      </trkpt>
      <trkpt lat="46.7982" lon="4.86855">
        <ele>177.40039</ele>
        <time>2026-05-14T11:50:24+02:00</time>
      </trkpt>
      <trkpt lat="46.79825" lon="4.86854">
        <ele>177.2002</ele>
        <time>2026-05-14T11:50:25+02:00</time>
      </trkpt>
      <trkpt lat="46.79831" lon="4.86853">
        <ele>176.90039</ele>
        <time>2026-05-14T11:50:26+02:00</time>
      </trkpt>
      <trkpt lat="46.79836" lon="4.86852">
        <ele>176.60059</ele>
        <time>2026-05-14T11:50:27+02:00</time>
      </trkpt>
      <trkpt lat="46.79842" lon="4.8685">
        <ele>176.2998</ele>
        <time>2026-05-14T11:50:28+02:00</time>
      </trkpt>
      <trkpt lat="46.79847" lon="4.86849">
        <ele>176.2998</ele>
        <time>2026-05-14T11:50:29+02:00</time>
      </trkpt>
      <trkpt lat="46.79852" lon="4.86848">
        <ele>177.10059</ele>
        <time>2026-05-14T11:50:30+02:00</time>
      </trkpt>
      <trkpt lat="46.79858" lon="4.86846">
        <ele>176.90039</ele>
        <time>2026-05-14T11:50:31+02:00</time>
      </trkpt>
      <trkpt lat="46.79863" lon="4.86844">
        <ele>176.90039</ele>
        <time>2026-05-14T11:50:32+02:00</time>
      </trkpt>
      <trkpt lat="46.79868" lon="4.86842">
        <ele>176.7998</ele>
        <time>2026-05-14T11:50:33+02:00</time>
      </trkpt>
      <trkpt lat="46.79874" lon="4.8684">
        <ele>177.5</ele>
        <time>2026-05-14T11:50:34+02:00</time>
      </trkpt>
      <trkpt lat="46.79879" lon="4.86838">
        <ele>177.40039</ele>
        <time>2026-05-14T11:50:35+02:00</time>
      </trkpt>
      <trkpt lat="46.79884" lon="4.86836">
        <ele>177.2998</ele>
        <time>2026-05-14T11:50:36+02:00</time>
      </trkpt>
      <trkpt lat="46.79889" lon="4.86833">
        <ele>177.2002</ele>
        <time>2026-05-14T11:50:37+02:00</time>
      </trkpt>
      <trkpt lat="46.79895" lon="4.86831">
        <ele>177.7998</ele>
        <time>2026-05-14T11:50:38+02:00</time>
      </trkpt>
      <trkpt lat="46.79899" lon="4.86828">
        <ele>177.7998</ele>
        <time>2026-05-14T11:50:39+02:00</time>
      </trkpt>
      <trkpt lat="46.79902" lon="4.86827">
        <ele>177.7002</ele>
        <time>2026-05-14T11:50:40+02:00</time>
      </trkpt>
      <trkpt lat="46.79909" lon="4.86823">
        <ele>178.10059</ele>
        <time>2026-05-14T11:50:41+02:00</time>
      </trkpt>
      <trkpt lat="46.79914" lon="4.8682">
        <ele>178</ele>
        <time>2026-05-14T11:50:42+02:00</time>
      </trkpt>
      <trkpt lat="46.79919" lon="4.86818">
        <ele>177.7998</ele>
        <time>2026-05-14T11:50:43+02:00</time>
      </trkpt>
      <trkpt lat="46.79924" lon="4.86815">
        <ele>177.7002</ele>
        <time>2026-05-14T11:50:44+02:00</time>
      </trkpt>
      <trkpt lat="46.79929" lon="4.86812">
        <ele>177.90039</ele>
        <time>2026-05-14T11:50:45+02:00</time>
      </trkpt>
      <trkpt lat="46.79934" lon="4.8681">
        <ele>177.7998</ele>
        <time>2026-05-14T11:50:46+02:00</time>
      </trkpt>
      <trkpt lat="46.79939" lon="4.86807">
        <ele>177.60059</ele>
        <time>2026-05-14T11:50:47+02:00</time>
      </trkpt>
      <trkpt lat="46.79943" lon="4.86804">
        <ele>177.5</ele>
        <time>2026-05-14T11:50:48+02:00</time>
      </trkpt>
      <trkpt lat="46.79947" lon="4.868">
        <ele>177.5</ele>
        <time>2026-05-14T11:50:49+02:00</time>
      </trkpt>
      <trkpt lat="46.79952" lon="4.86797">
        <ele>177.2998</ele>
        <time>2026-05-14T11:50:50+02:00</time>
      </trkpt>
      <trkpt lat="46.79956" lon="4.86794">
        <ele>177.10059</ele>
        <time>2026-05-14T11:50:51+02:00</time>
      </trkpt>
      <trkpt lat="46.7996" lon="4.8679">
        <ele>176.7998</ele>
        <time>2026-05-14T11:50:52+02:00</time>
      </trkpt>
      <trkpt lat="46.79965" lon="4.86786">
        <ele>176.60059</ele>
        <time>2026-05-14T11:50:53+02:00</time>
      </trkpt>
      <trkpt lat="46.7997" lon="4.86782">
        <ele>176.60059</ele>
        <time>2026-05-14T11:50:54+02:00</time>
      </trkpt>
      <trkpt lat="46.79974" lon="4.86778">
        <ele>176.40039</ele>
        <time>2026-05-14T11:50:55+02:00</time>
      </trkpt>
      <trkpt lat="46.79978" lon="4.86773">
        <ele>176.2002</ele>
        <time>2026-05-14T11:50:56+02:00</time>
      </trkpt>
      <trkpt lat="46.79983" lon="4.86769">
        <ele>176</ele>
        <time>2026-05-14T11:50:57+02:00</time>
      </trkpt>
      <trkpt lat="46.79987" lon="4.86764">
        <ele>176</ele>
        <time>2026-05-14T11:50:58+02:00</time>
      </trkpt>
      <trkpt lat="46.79992" lon="4.8676">
        <ele>175.7998</ele>
        <time>2026-05-14T11:50:59+02:00</time>
      </trkpt>
      <trkpt lat="46.79996" lon="4.86755">
        <ele>175.7002</ele>
        <time>2026-05-14T11:51:00+02:00</time>
      </trkpt>
      <trkpt lat="46.8" lon="4.8675">
        <ele>175.7002</ele>
        <time>2026-05-14T11:51:01+02:00</time>
      </trkpt>
      <trkpt lat="46.80005" lon="4.86745">
        <ele>175.60059</ele>
        <time>2026-05-14T11:51:02+02:00</time>
      </trkpt>
      <trkpt lat="46.80009" lon="4.8674">
        <ele>175.7002</ele>
        <time>2026-05-14T11:51:03+02:00</time>
      </trkpt>
      <trkpt lat="46.80014" lon="4.86735">
        <ele>175.7998</ele>
        <time>2026-05-14T11:51:04+02:00</time>
      </trkpt>
      <trkpt lat="46.80018" lon="4.8673">
        <ele>175.90039</ele>
        <time>2026-05-14T11:51:05+02:00</time>
      </trkpt>
      <trkpt lat="46.80023" lon="4.86724">
        <ele>175.90039</ele>
        <time>2026-05-14T11:51:06+02:00</time>
      </trkpt>
      <trkpt lat="46.80027" lon="4.86718">
        <ele>176.10059</ele>
        <time>2026-05-14T11:51:07+02:00</time>
      </trkpt>
      <trkpt lat="46.80031" lon="4.86713">
        <ele>176.2998</ele>
        <time>2026-05-14T11:51:08+02:00</time>
      </trkpt>
      <trkpt lat="46.80035" lon="4.86707">
        <ele>176.2998</ele>
        <time>2026-05-14T11:51:09+02:00</time>
      </trkpt>
      <trkpt lat="46.80039" lon="4.86701">
        <ele>176.5</ele>
        <time>2026-05-14T11:51:10+02:00</time>
      </trkpt>
      <trkpt lat="46.80044" lon="4.86695">
        <ele>176.7002</ele>
        <time>2026-05-14T11:51:11+02:00</time>
      </trkpt>
      <trkpt lat="46.80048" lon="4.86689">
        <ele>176.90039</ele>
        <time>2026-05-14T11:51:12+02:00</time>
      </trkpt>
      <trkpt lat="46.80052" lon="4.86683">
        <ele>177</ele>
        <time>2026-05-14T11:51:13+02:00</time>
      </trkpt>
      <trkpt lat="46.80056" lon="4.86676">
        <ele>177.2002</ele>
        <time>2026-05-14T11:51:14+02:00</time>
      </trkpt>
      <trkpt lat="46.8006" lon="4.8667">
        <ele>177.40039</ele>
        <time>2026-05-14T11:51:15+02:00</time>
      </trkpt>
      <trkpt lat="46.80065" lon="4.86664">
        <ele>177.5</ele>
        <time>2026-05-14T11:51:16+02:00</time>
      </trkpt>
      <trkpt lat="46.80068" lon="4.86659">
        <ele>177.60059</ele>
        <time>2026-05-14T11:51:17+02:00</time>
      </trkpt>
      <trkpt lat="46.80072" lon="4.86653">
        <ele>177.7002</ele>
        <time>2026-05-14T11:51:18+02:00</time>
      </trkpt>
      <trkpt lat="46.80076" lon="4.86648">
        <ele>177.7002</ele>
        <time>2026-05-14T11:51:19+02:00</time>
      </trkpt>
      <trkpt lat="46.80079" lon="4.86642">
        <ele>177.7998</ele>
        <time>2026-05-14T11:51:20+02:00</time>
      </trkpt>
      <trkpt lat="46.80083" lon="4.86637">
        <ele>177.90039</ele>
        <time>2026-05-14T11:51:21+02:00</time>
      </trkpt>
      <trkpt lat="46.80085" lon="4.86634">
        <ele>177.90039</ele>
        <time>2026-05-14T11:51:22+02:00</time>
      </trkpt>
      <trkpt lat="46.8009" lon="4.86625">
        <ele>178</ele>
        <time>2026-05-14T11:51:23+02:00</time>
      </trkpt>
      <trkpt lat="46.80095" lon="4.8662">
        <ele>178</ele>
        <time>2026-05-14T11:51:24+02:00</time>
      </trkpt>
      <trkpt lat="46.80098" lon="4.86614">
        <ele>178</ele>
        <time>2026-05-14T11:51:25+02:00</time>
      </trkpt>
      <trkpt lat="46.80102" lon="4.86609">
        <ele>178</ele>
        <time>2026-05-14T11:51:26+02:00</time>
      </trkpt>
      <trkpt lat="46.80106" lon="4.86604">
        <ele>178</ele>
        <time>2026-05-14T11:51:27+02:00</time>
      </trkpt>
      <trkpt lat="46.8011" lon="4.86598">
        <ele>178</ele>
        <time>2026-05-14T11:51:28+02:00</time>
      </trkpt>
      <trkpt lat="46.80113" lon="4.86593">
        <ele>178</ele>
        <time>2026-05-14T11:51:29+02:00</time>
      </trkpt>
      <trkpt lat="46.80117" lon="4.86588">
        <ele>178</ele>
        <time>2026-05-14T11:51:30+02:00</time>
      </trkpt>
      <trkpt lat="46.80121" lon="4.86582">
        <ele>177.90039</ele>
        <time>2026-05-14T11:51:31+02:00</time>
      </trkpt>
      <trkpt lat="46.80124" lon="4.86577">
        <ele>177.90039</ele>
        <time>2026-05-14T11:51:32+02:00</time>
      </trkpt>
      <trkpt lat="46.80127" lon="4.86571">
        <ele>177.90039</ele>
        <time>2026-05-14T11:51:33+02:00</time>
      </trkpt>
      <trkpt lat="46.80131" lon="4.86566">
        <ele>177.90039</ele>
        <time>2026-05-14T11:51:34+02:00</time>
      </trkpt>
      <trkpt lat="46.80135" lon="4.86561">
        <ele>177.7998</ele>
        <time>2026-05-14T11:51:35+02:00</time>
      </trkpt>
      <trkpt lat="46.80139" lon="4.86556">
        <ele>177.7002</ele>
        <time>2026-05-14T11:51:36+02:00</time>
      </trkpt>
      <trkpt lat="46.80142" lon="4.86551">
        <ele>177.7002</ele>
        <time>2026-05-14T11:51:37+02:00</time>
      </trkpt>
      <trkpt lat="46.80147" lon="4.86546">
        <ele>177.60059</ele>
        <time>2026-05-14T11:51:38+02:00</time>
      </trkpt>
      <trkpt lat="46.8015" lon="4.86541">
        <ele>177.60059</ele>
        <time>2026-05-14T11:51:39+02:00</time>
      </trkpt>
      <trkpt lat="46.80155" lon="4.86535">
        <ele>177.5</ele>
        <time>2026-05-14T11:51:40+02:00</time>
      </trkpt>
      <trkpt lat="46.80158" lon="4.8653">
        <ele>177.5</ele>
        <time>2026-05-14T11:51:41+02:00</time>
      </trkpt>
      <trkpt lat="46.80162" lon="4.86524">
        <ele>177.5</ele>
        <time>2026-05-14T11:51:42+02:00</time>
      </trkpt>
      <trkpt lat="46.80166" lon="4.86518">
        <ele>177.40039</ele>
        <time>2026-05-14T11:51:43+02:00</time>
      </trkpt>
      <trkpt lat="46.8017" lon="4.86513">
        <ele>177.2998</ele>
        <time>2026-05-14T11:51:44+02:00</time>
      </trkpt>
      <trkpt lat="46.80174" lon="4.86507">
        <ele>177.2998</ele>
        <time>2026-05-14T11:51:45+02:00</time>
      </trkpt>
      <trkpt lat="46.80177" lon="4.86501">
        <ele>177.2998</ele>
        <time>2026-05-14T11:51:46+02:00</time>
      </trkpt>
      <trkpt lat="46.80181" lon="4.86495">
        <ele>177.2998</ele>
        <time>2026-05-14T11:51:47+02:00</time>
      </trkpt>
      <trkpt lat="46.80185" lon="4.86489">
        <ele>177.40039</ele>
        <time>2026-05-14T11:51:48+02:00</time>
      </trkpt>
      <trkpt lat="46.80188" lon="4.86483">
        <ele>177.2998</ele>
        <time>2026-05-14T11:51:49+02:00</time>
      </trkpt>
      <trkpt lat="46.80192" lon="4.86478">
        <ele>177.40039</ele>
        <time>2026-05-14T11:51:50+02:00</time>
      </trkpt>
      <trkpt lat="46.80195" lon="4.86472">
        <ele>177.5</ele>
        <time>2026-05-14T11:51:51+02:00</time>
      </trkpt>
      <trkpt lat="46.80199" lon="4.86466">
        <ele>177.5</ele>
        <time>2026-05-14T11:51:52+02:00</time>
      </trkpt>
      <trkpt lat="46.80203" lon="4.86461">
        <ele>177.7002</ele>
        <time>2026-05-14T11:51:53+02:00</time>
      </trkpt>
      <trkpt lat="46.80206" lon="4.86455">
        <ele>177.7998</ele>
        <time>2026-05-14T11:51:54+02:00</time>
      </trkpt>
      <trkpt lat="46.8021" lon="4.8645">
        <ele>177.7998</ele>
        <time>2026-05-14T11:51:55+02:00</time>
      </trkpt>
      <trkpt lat="46.80213" lon="4.86444">
        <ele>178</ele>
        <time>2026-05-14T11:51:56+02:00</time>
      </trkpt>
      <trkpt lat="46.80217" lon="4.86439">
        <ele>178</ele>
        <time>2026-05-14T11:51:57+02:00</time>
      </trkpt>
      <trkpt lat="46.80221" lon="4.86433">
        <ele>178.2002</ele>
        <time>2026-05-14T11:51:58+02:00</time>
      </trkpt>
      <trkpt lat="46.80224" lon="4.86427">
        <ele>178.40039</ele>
        <time>2026-05-14T11:51:59+02:00</time>
      </trkpt>
      <trkpt lat="46.80228" lon="4.86422">
        <ele>178.40039</ele>
        <time>2026-05-14T11:52:00+02:00</time>
      </trkpt>
      <trkpt lat="46.80231" lon="4.86416">
        <ele>178.60059</ele>
        <time>2026-05-14T11:52:01+02:00</time>
      </trkpt>
      <trkpt lat="46.80235" lon="4.8641">
        <ele>178.60059</ele>
        <time>2026-05-14T11:52:02+02:00</time>
      </trkpt>
      <trkpt lat="46.80238" lon="4.86404">
        <ele>178.7002</ele>
        <time>2026-05-14T11:52:03+02:00</time>
      </trkpt>
      <trkpt lat="46.80242" lon="4.86398">
        <ele>178.7998</ele>
        <time>2026-05-14T11:52:04+02:00</time>
      </trkpt>
      <trkpt lat="46.80246" lon="4.86392">
        <ele>178.7998</ele>
        <time>2026-05-14T11:52:05+02:00</time>
      </trkpt>
      <trkpt lat="46.80249" lon="4.86386">
        <ele>178.90039</ele>
        <time>2026-05-14T11:52:06+02:00</time>
      </trkpt>
      <trkpt lat="46.80251" lon="4.86383">
        <ele>178.90039</ele>
        <time>2026-05-14T11:52:07+02:00</time>
      </trkpt>
      <trkpt lat="46.80256" lon="4.86373">
        <ele>178.90039</ele>
        <time>2026-05-14T11:52:08+02:00</time>
      </trkpt>
      <trkpt lat="46.80259" lon="4.86367">
        <ele>178.90039</ele>
        <time>2026-05-14T11:52:09+02:00</time>
      </trkpt>
      <trkpt lat="46.80263" lon="4.8636">
        <ele>178.90039</ele>
        <time>2026-05-14T11:52:10+02:00</time>
      </trkpt>
      <trkpt lat="46.80266" lon="4.86353">
        <ele>178.90039</ele>
        <time>2026-05-14T11:52:11+02:00</time>
      </trkpt>
      <trkpt lat="46.80269" lon="4.86346">
        <ele>178.7998</ele>
        <time>2026-05-14T11:52:12+02:00</time>
      </trkpt>
      <trkpt lat="46.80271" lon="4.86339">
        <ele>178.7998</ele>
        <time>2026-05-14T11:52:13+02:00</time>
      </trkpt>
      <trkpt lat="46.80274" lon="4.86332">
        <ele>178.7998</ele>
        <time>2026-05-14T11:52:14+02:00</time>
      </trkpt>
      <trkpt lat="46.80276" lon="4.86325">
        <ele>178.7998</ele>
        <time>2026-05-14T11:52:15+02:00</time>
      </trkpt>
      <trkpt lat="46.80278" lon="4.86318">
        <ele>178.7998</ele>
        <time>2026-05-14T11:52:16+02:00</time>
      </trkpt>
      <trkpt lat="46.8028" lon="4.86311">
        <ele>178.7998</ele>
        <time>2026-05-14T11:52:17+02:00</time>
      </trkpt>
      <trkpt lat="46.80283" lon="4.86304">
        <ele>178.7998</ele>
        <time>2026-05-14T11:52:18+02:00</time>
      </trkpt>
      <trkpt lat="46.80285" lon="4.86298">
        <ele>178.90039</ele>
        <time>2026-05-14T11:52:19+02:00</time>
      </trkpt>
      <trkpt lat="46.80287" lon="4.86293">
        <ele>178.90039</ele>
        <time>2026-05-14T11:52:20+02:00</time>
      </trkpt>
      <trkpt lat="46.80288" lon="4.86287">
        <ele>179</ele>
        <time>2026-05-14T11:52:21+02:00</time>
      </trkpt>
      <trkpt lat="46.8029" lon="4.86282">
        <ele>179.10059</ele>
        <time>2026-05-14T11:52:22+02:00</time>
      </trkpt>
      <trkpt lat="46.80291" lon="4.86277">
        <ele>179.10059</ele>
        <time>2026-05-14T11:52:23+02:00</time>
      </trkpt>
      <trkpt lat="46.80293" lon="4.86271">
        <ele>179.2002</ele>
        <time>2026-05-14T11:52:24+02:00</time>
      </trkpt>
      <trkpt lat="46.80294" lon="4.86265">
        <ele>179.2002</ele>
        <time>2026-05-14T11:52:25+02:00</time>
      </trkpt>
      <trkpt lat="46.80296" lon="4.8626">
        <ele>179.2002</ele>
        <time>2026-05-14T11:52:26+02:00</time>
      </trkpt>
      <trkpt lat="46.80298" lon="4.86253">
        <ele>179.2998</ele>
        <time>2026-05-14T11:52:27+02:00</time>
      </trkpt>
      <trkpt lat="46.803" lon="4.86247">
        <ele>179.2998</ele>
        <time>2026-05-14T11:52:28+02:00</time>
      </trkpt>
      <trkpt lat="46.80301" lon="4.8624">
        <ele>179.2998</ele>
        <time>2026-05-14T11:52:29+02:00</time>
      </trkpt>
      <trkpt lat="46.80303" lon="4.86234">
        <ele>179.40039</ele>
        <time>2026-05-14T11:52:30+02:00</time>
      </trkpt>
      <trkpt lat="46.80306" lon="4.86227">
        <ele>179.5</ele>
        <time>2026-05-14T11:52:31+02:00</time>
      </trkpt>
      <trkpt lat="46.80308" lon="4.86221">
        <ele>179.60059</ele>
        <time>2026-05-14T11:52:32+02:00</time>
      </trkpt>
      <trkpt lat="46.8031" lon="4.86218">
        <ele>179.60059</ele>
        <time>2026-05-14T11:52:33+02:00</time>
      </trkpt>
      <trkpt lat="46.80314" lon="4.8621">
        <ele>179.60059</ele>
        <time>2026-05-14T11:52:34+02:00</time>
      </trkpt>
      <trkpt lat="46.80316" lon="4.86206">
        <ele>179.60059</ele>
        <time>2026-05-14T11:52:35+02:00</time>
      </trkpt>
      <trkpt lat="46.80317" lon="4.86201">
        <ele>179.7002</ele>
        <time>2026-05-14T11:52:36+02:00</time>
      </trkpt>
      <trkpt lat="46.8032" lon="4.86197">
        <ele>179.7002</ele>
        <time>2026-05-14T11:52:37+02:00</time>
      </trkpt>
      <trkpt lat="46.80322" lon="4.86193">
        <ele>179.7998</ele>
        <time>2026-05-14T11:52:38+02:00</time>
      </trkpt>
      <trkpt lat="46.80325" lon="4.86188">
        <ele>179.7998</ele>
        <time>2026-05-14T11:52:39+02:00</time>
      </trkpt>
      <trkpt lat="46.80328" lon="4.86184">
        <ele>180</ele>
        <time>2026-05-14T11:52:40+02:00</time>
      </trkpt>
      <trkpt lat="46.80331" lon="4.86179">
        <ele>180.2002</ele>
        <time>2026-05-14T11:52:41+02:00</time>
      </trkpt>
      <trkpt lat="46.80333" lon="4.86174">
        <ele>180.2002</ele>
        <time>2026-05-14T11:52:42+02:00</time>
      </trkpt>
      <trkpt lat="46.80336" lon="4.86169">
        <ele>180.5</ele>
        <time>2026-05-14T11:52:43+02:00</time>
      </trkpt>
      <trkpt lat="46.80338" lon="4.86163">
        <ele>180.5</ele>
        <time>2026-05-14T11:52:44+02:00</time>
      </trkpt>
      <trkpt lat="46.8034" lon="4.86157">
        <ele>180.7998</ele>
        <time>2026-05-14T11:52:45+02:00</time>
      </trkpt>
      <trkpt lat="46.80341" lon="4.86152">
        <ele>181.10059</ele>
        <time>2026-05-14T11:52:46+02:00</time>
      </trkpt>
      <trkpt lat="46.80345" lon="4.86147">
        <ele>181.10059</ele>
        <time>2026-05-14T11:52:47+02:00</time>
      </trkpt>
      <trkpt lat="46.80349" lon="4.86145">
        <ele>181.10059</ele>
        <time>2026-05-14T11:52:48+02:00</time>
      </trkpt>
      <trkpt lat="46.80353" lon="4.86145">
        <ele>181.2002</ele>
        <time>2026-05-14T11:52:49+02:00</time>
      </trkpt>
      <trkpt lat="46.80357" lon="4.86145">
        <ele>181.2002</ele>
        <time>2026-05-14T11:52:50+02:00</time>
      </trkpt>
      <trkpt lat="46.80362" lon="4.86146">
        <ele>181.2998</ele>
        <time>2026-05-14T11:52:51+02:00</time>
      </trkpt>
      <trkpt lat="46.80367" lon="4.86145">
        <ele>181.40039</ele>
        <time>2026-05-14T11:52:52+02:00</time>
      </trkpt>
      <trkpt lat="46.80372" lon="4.86145">
        <ele>181.5</ele>
        <time>2026-05-14T11:52:53+02:00</time>
      </trkpt>
      <trkpt lat="46.80377" lon="4.86144">
        <ele>182.10059</ele>
        <time>2026-05-14T11:52:54+02:00</time>
      </trkpt>
      <trkpt lat="46.80382" lon="4.86144">
        <ele>182.2002</ele>
        <time>2026-05-14T11:52:55+02:00</time>
      </trkpt>
      <trkpt lat="46.80386" lon="4.86144">
        <ele>182.2002</ele>
        <time>2026-05-14T11:52:56+02:00</time>
      </trkpt>
      <trkpt lat="46.80391" lon="4.86143">
        <ele>182.40039</ele>
        <time>2026-05-14T11:52:57+02:00</time>
      </trkpt>
      <trkpt lat="46.80395" lon="4.86142">
        <ele>182.60059</ele>
        <time>2026-05-14T11:52:58+02:00</time>
      </trkpt>
      <trkpt lat="46.80399" lon="4.86142">
        <ele>182.60059</ele>
        <time>2026-05-14T11:52:59+02:00</time>
      </trkpt>
      <trkpt lat="46.80403" lon="4.86142">
        <ele>182.7002</ele>
        <time>2026-05-14T11:53:00+02:00</time>
      </trkpt>
      <trkpt lat="46.80407" lon="4.86142">
        <ele>182.90039</ele>
        <time>2026-05-14T11:53:01+02:00</time>
      </trkpt>
      <trkpt lat="46.8041" lon="4.86142">
        <ele>182.90039</ele>
        <time>2026-05-14T11:53:02+02:00</time>
      </trkpt>
      <trkpt lat="46.80414" lon="4.86143">
        <ele>183</ele>
        <time>2026-05-14T11:53:03+02:00</time>
      </trkpt>
      <trkpt lat="46.80418" lon="4.86142">
        <ele>183.2002</ele>
        <time>2026-05-14T11:53:04+02:00</time>
      </trkpt>
      <trkpt lat="46.80422" lon="4.86142">
        <ele>183.2002</ele>
        <time>2026-05-14T11:53:05+02:00</time>
      </trkpt>
      <trkpt lat="46.80427" lon="4.86142">
        <ele>183.2998</ele>
        <time>2026-05-14T11:53:06+02:00</time>
      </trkpt>
      <trkpt lat="46.8043" lon="4.86142">
        <ele>183.5</ele>
        <time>2026-05-14T11:53:07+02:00</time>
      </trkpt>
      <trkpt lat="46.80438" lon="4.86143">
        <ele>183.60059</ele>
        <time>2026-05-14T11:53:08+02:00</time>
      </trkpt>
      <trkpt lat="46.80443" lon="4.86143">
        <ele>183.7998</ele>
        <time>2026-05-14T11:53:09+02:00</time>
      </trkpt>
      <trkpt lat="46.80448" lon="4.86144">
        <ele>184</ele>
        <time>2026-05-14T11:53:10+02:00</time>
      </trkpt>
      <trkpt lat="46.80453" lon="4.86144">
        <ele>184.2002</ele>
        <time>2026-05-14T11:53:11+02:00</time>
      </trkpt>
      <trkpt lat="46.80458" lon="4.86145">
        <ele>183.7998</ele>
        <time>2026-05-14T11:53:12+02:00</time>
      </trkpt>
      <trkpt lat="46.80462" lon="4.86146">
        <ele>184.10059</ele>
        <time>2026-05-14T11:53:13+02:00</time>
      </trkpt>
      <trkpt lat="46.80467" lon="4.86147">
        <ele>184.2998</ele>
        <time>2026-05-14T11:53:14+02:00</time>
      </trkpt>
      <trkpt lat="46.80472" lon="4.86148">
        <ele>184.40039</ele>
        <time>2026-05-14T11:53:15+02:00</time>
      </trkpt>
      <trkpt lat="46.80477" lon="4.86149">
        <ele>184.60059</ele>
        <time>2026-05-14T11:53:16+02:00</time>
      </trkpt>
      <trkpt lat="46.80481" lon="4.86151">
        <ele>184.60059</ele>
        <time>2026-05-14T11:53:17+02:00</time>
      </trkpt>
      <trkpt lat="46.80486" lon="4.86152">
        <ele>184.7002</ele>
        <time>2026-05-14T11:53:18+02:00</time>
      </trkpt>
      <trkpt lat="46.80491" lon="4.86152">
        <ele>184.7998</ele>
        <time>2026-05-14T11:53:19+02:00</time>
      </trkpt>
      <trkpt lat="46.80495" lon="4.86153">
        <ele>184.90039</ele>
        <time>2026-05-14T11:53:20+02:00</time>
      </trkpt>
      <trkpt lat="46.805" lon="4.86154">
        <ele>184.7002</ele>
        <time>2026-05-14T11:53:21+02:00</time>
      </trkpt>
      <trkpt lat="46.80505" lon="4.86156">
        <ele>184.7002</ele>
        <time>2026-05-14T11:53:22+02:00</time>
      </trkpt>
      <trkpt lat="46.8051" lon="4.86158">
        <ele>184.90039</ele>
        <time>2026-05-14T11:53:23+02:00</time>
      </trkpt>
      <trkpt lat="46.80515" lon="4.8616">
        <ele>185</ele>
        <time>2026-05-14T11:53:24+02:00</time>
      </trkpt>
      <trkpt lat="46.80519" lon="4.86162">
        <ele>185.10059</ele>
        <time>2026-05-14T11:53:25+02:00</time>
      </trkpt>
      <trkpt lat="46.80523" lon="4.86164">
        <ele>184.90039</ele>
        <time>2026-05-14T11:53:26+02:00</time>
      </trkpt>
      <trkpt lat="46.80527" lon="4.86166">
        <ele>185</ele>
        <time>2026-05-14T11:53:27+02:00</time>
      </trkpt>
      <trkpt lat="46.80531" lon="4.86167">
        <ele>185.10059</ele>
        <time>2026-05-14T11:53:28+02:00</time>
      </trkpt>
      <trkpt lat="46.80534" lon="4.86169">
        <ele>185.10059</ele>
        <time>2026-05-14T11:53:29+02:00</time>
      </trkpt>
      <trkpt lat="46.80538" lon="4.8617">
        <ele>185.2002</ele>
        <time>2026-05-14T11:53:30+02:00</time>
      </trkpt>
      <trkpt lat="46.80541" lon="4.86171">
        <ele>185.10059</ele>
        <time>2026-05-14T11:53:31+02:00</time>
      </trkpt>
      <trkpt lat="46.80545" lon="4.86173">
        <ele>185.10059</ele>
        <time>2026-05-14T11:53:32+02:00</time>
      </trkpt>
      <trkpt lat="46.80549" lon="4.86174">
        <ele>185.2002</ele>
        <time>2026-05-14T11:53:33+02:00</time>
      </trkpt>
      <trkpt lat="46.80552" lon="4.86176">
        <ele>185.2002</ele>
        <time>2026-05-14T11:53:34+02:00</time>
      </trkpt>
      <trkpt lat="46.80556" lon="4.86177">
        <ele>185.2998</ele>
        <time>2026-05-14T11:53:35+02:00</time>
      </trkpt>
      <trkpt lat="46.80559" lon="4.86178">
        <ele>185.40039</ele>
        <time>2026-05-14T11:53:36+02:00</time>
      </trkpt>
      <trkpt lat="46.80563" lon="4.8618">
        <ele>185.2002</ele>
        <time>2026-05-14T11:53:37+02:00</time>
      </trkpt>
      <trkpt lat="46.80567" lon="4.86181">
        <ele>185.2002</ele>
        <time>2026-05-14T11:53:38+02:00</time>
      </trkpt>
      <trkpt lat="46.8057" lon="4.86183">
        <ele>185.2002</ele>
        <time>2026-05-14T11:53:39+02:00</time>
      </trkpt>
      <trkpt lat="46.80574" lon="4.86184">
        <ele>185.2998</ele>
        <time>2026-05-14T11:53:40+02:00</time>
      </trkpt>
      <trkpt lat="46.80578" lon="4.86185">
        <ele>185.2998</ele>
        <time>2026-05-14T11:53:41+02:00</time>
      </trkpt>
      <trkpt lat="46.80581" lon="4.86187">
        <ele>185.2998</ele>
        <time>2026-05-14T11:53:42+02:00</time>
      </trkpt>
      <trkpt lat="46.80584" lon="4.86188">
        <ele>185.2002</ele>
        <time>2026-05-14T11:53:43+02:00</time>
      </trkpt>
      <trkpt lat="46.80588" lon="4.86188">
        <ele>185.2002</ele>
        <time>2026-05-14T11:53:44+02:00</time>
      </trkpt>
      <trkpt lat="46.80591" lon="4.86187">
        <ele>185.40039</ele>
        <time>2026-05-14T11:53:45+02:00</time>
      </trkpt>
      <trkpt lat="46.80594" lon="4.86186">
        <ele>185.5</ele>
        <time>2026-05-14T11:53:46+02:00</time>
      </trkpt>
      <trkpt lat="46.80598" lon="4.86187">
        <ele>185.5</ele>
        <time>2026-05-14T11:53:47+02:00</time>
      </trkpt>
      <trkpt lat="46.80601" lon="4.8619">
        <ele>185.2998</ele>
        <time>2026-05-14T11:53:48+02:00</time>
      </trkpt>
      <trkpt lat="46.80604" lon="4.86193">
        <ele>185.2998</ele>
        <time>2026-05-14T11:53:49+02:00</time>
      </trkpt>
      <trkpt lat="46.80607" lon="4.86197">
        <ele>185.10059</ele>
        <time>2026-05-14T11:53:50+02:00</time>
      </trkpt>
      <trkpt lat="46.8061" lon="4.862">
        <ele>185.10059</ele>
        <time>2026-05-14T11:53:51+02:00</time>
      </trkpt>
      <trkpt lat="46.80614" lon="4.86203">
        <ele>185.2002</ele>
        <time>2026-05-14T11:53:52+02:00</time>
      </trkpt>
      <trkpt lat="46.80618" lon="4.86205">
        <ele>185.2002</ele>
        <time>2026-05-14T11:53:53+02:00</time>
      </trkpt>
      <trkpt lat="46.80622" lon="4.86206">
        <ele>185</ele>
        <time>2026-05-14T11:53:54+02:00</time>
      </trkpt>
      <trkpt lat="46.80626" lon="4.86205">
        <ele>185.2002</ele>
        <time>2026-05-14T11:53:55+02:00</time>
      </trkpt>
      <trkpt lat="46.80628" lon="4.86205">
        <ele>185.2002</ele>
        <time>2026-05-14T11:53:56+02:00</time>
      </trkpt>
      <trkpt lat="46.80633" lon="4.86202">
        <ele>185.2002</ele>
        <time>2026-05-14T11:53:57+02:00</time>
      </trkpt>
      <trkpt lat="46.80636" lon="4.86201">
        <ele>185.2998</ele>
        <time>2026-05-14T11:53:58+02:00</time>
      </trkpt>
      <trkpt lat="46.8064" lon="4.862">
        <ele>185.2998</ele>
        <time>2026-05-14T11:53:59+02:00</time>
      </trkpt>
      <trkpt lat="46.80644" lon="4.86199">
        <ele>185.2998</ele>
        <time>2026-05-14T11:54:00+02:00</time>
      </trkpt>
      <trkpt lat="46.80647" lon="4.86197">
        <ele>185.2998</ele>
        <time>2026-05-14T11:54:01+02:00</time>
      </trkpt>
      <trkpt lat="46.8065" lon="4.86195">
        <ele>185.5</ele>
        <time>2026-05-14T11:54:02+02:00</time>
      </trkpt>
      <trkpt lat="46.80654" lon="4.86194">
        <ele>185.5</ele>
        <time>2026-05-14T11:54:03+02:00</time>
      </trkpt>
      <trkpt lat="46.80657" lon="4.86196">
        <ele>185.5</ele>
        <time>2026-05-14T11:54:04+02:00</time>
      </trkpt>
      <trkpt lat="46.8066" lon="4.86199">
        <ele>185.2998</ele>
        <time>2026-05-14T11:54:05+02:00</time>
      </trkpt>
      <trkpt lat="46.80663" lon="4.86202">
        <ele>185.2998</ele>
        <time>2026-05-14T11:54:06+02:00</time>
      </trkpt>
      <trkpt lat="46.80666" lon="4.86206">
        <ele>185.10059</ele>
        <time>2026-05-14T11:54:07+02:00</time>
      </trkpt>
      <trkpt lat="46.80669" lon="4.86209">
        <ele>185.10059</ele>
        <time>2026-05-14T11:54:08+02:00</time>
      </trkpt>
      <trkpt lat="46.80673" lon="4.86212">
        <ele>185.10059</ele>
        <time>2026-05-14T11:54:09+02:00</time>
      </trkpt>
      <trkpt lat="46.80676" lon="4.86215">
        <ele>184.90039</ele>
        <time>2026-05-14T11:54:10+02:00</time>
      </trkpt>
      <trkpt lat="46.80678" lon="4.86216">
        <ele>184.90039</ele>
        <time>2026-05-14T11:54:11+02:00</time>
      </trkpt>
      <trkpt lat="46.80683" lon="4.8622">
        <ele>184.90039</ele>
        <time>2026-05-14T11:54:12+02:00</time>
      </trkpt>
      <trkpt lat="46.80687" lon="4.86222">
        <ele>184.90039</ele>
        <time>2026-05-14T11:54:13+02:00</time>
      </trkpt>
      <trkpt lat="46.8069" lon="4.86224">
        <ele>184.7002</ele>
        <time>2026-05-14T11:54:14+02:00</time>
      </trkpt>
      <trkpt lat="46.80694" lon="4.86226">
        <ele>184.7002</ele>
        <time>2026-05-14T11:54:15+02:00</time>
      </trkpt>
      <trkpt lat="46.80698" lon="4.86227">
        <ele>184.7002</ele>
        <time>2026-05-14T11:54:16+02:00</time>
      </trkpt>
      <trkpt lat="46.80701" lon="4.86229">
        <ele>184.60059</ele>
        <time>2026-05-14T11:54:17+02:00</time>
      </trkpt>
      <trkpt lat="46.80705" lon="4.86231">
        <ele>184.40039</ele>
        <time>2026-05-14T11:54:18+02:00</time>
      </trkpt>
      <trkpt lat="46.80708" lon="4.86233">
        <ele>184.2998</ele>
        <time>2026-05-14T11:54:19+02:00</time>
      </trkpt>
      <trkpt lat="46.80712" lon="4.86235">
        <ele>184.10059</ele>
        <time>2026-05-14T11:54:20+02:00</time>
      </trkpt>
      <trkpt lat="46.80715" lon="4.86238">
        <ele>184.10059</ele>
        <time>2026-05-14T11:54:21+02:00</time>
      </trkpt>
      <trkpt lat="46.80718" lon="4.8624">
        <ele>183.2998</ele>
        <time>2026-05-14T11:54:22+02:00</time>
      </trkpt>
      <trkpt lat="46.80722" lon="4.86242">
        <ele>183.2998</ele>
        <time>2026-05-14T11:54:23+02:00</time>
      </trkpt>
      <trkpt lat="46.80725" lon="4.86244">
        <ele>183.10059</ele>
        <time>2026-05-14T11:54:24+02:00</time>
      </trkpt>
      <trkpt lat="46.80728" lon="4.86247">
        <ele>183.10059</ele>
        <time>2026-05-14T11:54:25+02:00</time>
      </trkpt>
      <trkpt lat="46.80732" lon="4.86249">
        <ele>182.2002</ele>
        <time>2026-05-14T11:54:26+02:00</time>
      </trkpt>
      <trkpt lat="46.80735" lon="4.86251">
        <ele>182</ele>
        <time>2026-05-14T11:54:27+02:00</time>
      </trkpt>
      <trkpt lat="46.80738" lon="4.86254">
        <ele>182</ele>
        <time>2026-05-14T11:54:28+02:00</time>
      </trkpt>
      <trkpt lat="46.80741" lon="4.86256">
        <ele>181.7002</ele>
        <time>2026-05-14T11:54:29+02:00</time>
      </trkpt>
      <trkpt lat="46.80744" lon="4.86259">
        <ele>181.10059</ele>
        <time>2026-05-14T11:54:30+02:00</time>
      </trkpt>
      <trkpt lat="46.80748" lon="4.86262">
        <ele>180.7998</ele>
        <time>2026-05-14T11:54:31+02:00</time>
      </trkpt>
      <trkpt lat="46.80751" lon="4.86264">
        <ele>180.7998</ele>
        <time>2026-05-14T11:54:32+02:00</time>
      </trkpt>
      <trkpt lat="46.80754" lon="4.86267">
        <ele>180</ele>
        <time>2026-05-14T11:54:33+02:00</time>
      </trkpt>
      <trkpt lat="46.80758" lon="4.86269">
        <ele>180</ele>
        <time>2026-05-14T11:54:34+02:00</time>
      </trkpt>
      <trkpt lat="46.80761" lon="4.86272">
        <ele>180</ele>
        <time>2026-05-14T11:54:35+02:00</time>
      </trkpt>
      <trkpt lat="46.80764" lon="4.86275">
        <ele>180.2998</ele>
        <time>2026-05-14T11:54:36+02:00</time>
      </trkpt>
      <trkpt lat="46.80767" lon="4.86277">
        <ele>180.2998</ele>
        <time>2026-05-14T11:54:37+02:00</time>
      </trkpt>
      <trkpt lat="46.8077" lon="4.8628">
        <ele>181</ele>
        <time>2026-05-14T11:54:38+02:00</time>
      </trkpt>
      <trkpt lat="46.80773" lon="4.86282">
        <ele>181</ele>
        <time>2026-05-14T11:54:39+02:00</time>
      </trkpt>
      <trkpt lat="46.80776" lon="4.86283">
        <ele>182.2002</ele>
        <time>2026-05-14T11:54:40+02:00</time>
      </trkpt>
      <trkpt lat="46.80778" lon="4.86283">
        <ele>182.2002</ele>
        <time>2026-05-14T11:54:41+02:00</time>
      </trkpt>
      <trkpt lat="46.80781" lon="4.8628">
        <ele>181.90039</ele>
        <time>2026-05-14T11:54:42+02:00</time>
      </trkpt>
      <trkpt lat="46.80782" lon="4.86276">
        <ele>182.7002</ele>
        <time>2026-05-14T11:54:43+02:00</time>
      </trkpt>
      <trkpt lat="46.80784" lon="4.86271">
        <ele>182.60059</ele>
        <time>2026-05-14T11:54:44+02:00</time>
      </trkpt>
      <trkpt lat="46.80786" lon="4.86265">
        <ele>182.60059</ele>
        <time>2026-05-14T11:54:45+02:00</time>
      </trkpt>
      <trkpt lat="46.80788" lon="4.86258">
        <ele>183.40039</ele>
        <time>2026-05-14T11:54:46+02:00</time>
      </trkpt>
      <trkpt lat="46.8079" lon="4.86252">
        <ele>183.2998</ele>
        <time>2026-05-14T11:54:47+02:00</time>
      </trkpt>
      <trkpt lat="46.80792" lon="4.86246">
        <ele>183.2002</ele>
        <time>2026-05-14T11:54:48+02:00</time>
      </trkpt>
      <trkpt lat="46.80794" lon="4.86241">
        <ele>183.7002</ele>
        <time>2026-05-14T11:54:49+02:00</time>
      </trkpt>
      <trkpt lat="46.80796" lon="4.86237">
        <ele>183.40039</ele>
        <time>2026-05-14T11:54:50+02:00</time>
      </trkpt>
      <trkpt lat="46.80797" lon="4.86233">
        <ele>183.40039</ele>
        <time>2026-05-14T11:54:51+02:00</time>
      </trkpt>
      <trkpt lat="46.80798" lon="4.86229">
        <ele>183</ele>
        <time>2026-05-14T11:54:52+02:00</time>
      </trkpt>
      <trkpt lat="46.80798" lon="4.86226">
        <ele>183</ele>
        <time>2026-05-14T11:54:53+02:00</time>
      </trkpt>
      <trkpt lat="46.80797" lon="4.86224">
        <ele>183</ele>
        <time>2026-05-14T11:54:54+02:00</time>
      </trkpt>
      <trkpt lat="46.80795" lon="4.86225">
        <ele>183</ele>
        <time>2026-05-14T11:54:55+02:00</time>
      </trkpt>
      <trkpt lat="46.80794" lon="4.86227">
        <ele>183</ele>
        <time>2026-05-14T11:54:56+02:00</time>
      </trkpt>
      <trkpt lat="46.80792" lon="4.86231">
        <ele>182.90039</ele>
        <time>2026-05-14T11:54:57+02:00</time>
      </trkpt>
      <trkpt lat="46.8079" lon="4.86235">
        <ele>182.90039</ele>
        <time>2026-05-14T11:54:58+02:00</time>
      </trkpt>
      <trkpt lat="46.80787" lon="4.86239">
        <ele>182.40039</ele>
        <time>2026-05-14T11:54:59+02:00</time>
      </trkpt>
      <trkpt lat="46.80785" lon="4.86244">
        <ele>182.5</ele>
        <time>2026-05-14T11:55:00+02:00</time>
      </trkpt>
      <trkpt lat="46.80782" lon="4.86248">
        <ele>182.5</ele>
        <time>2026-05-14T11:55:01+02:00</time>
      </trkpt>
      <trkpt lat="46.80779" lon="4.86253">
        <ele>181.7002</ele>
        <time>2026-05-14T11:55:02+02:00</time>
      </trkpt>
      <trkpt lat="46.80775" lon="4.86258">
        <ele>180.90039</ele>
        <time>2026-05-14T11:55:03+02:00</time>
      </trkpt>
      <trkpt lat="46.80771" lon="4.86263">
        <ele>180.90039</ele>
        <time>2026-05-14T11:55:04+02:00</time>
      </trkpt>
      <trkpt lat="46.80767" lon="4.86268">
        <ele>180.2002</ele>
        <time>2026-05-14T11:55:05+02:00</time>
      </trkpt>
      <trkpt lat="46.80765" lon="4.86271">
        <ele>180.2002</ele>
        <time>2026-05-14T11:55:06+02:00</time>
      </trkpt>
      <trkpt lat="46.8076" lon="4.86279">
        <ele>179.90039</ele>
        <time>2026-05-14T11:55:07+02:00</time>
      </trkpt>
      <trkpt lat="46.80757" lon="4.86284">
        <ele>179.5</ele>
        <time>2026-05-14T11:55:08+02:00</time>
      </trkpt>
      <trkpt lat="46.80754" lon="4.86289">
        <ele>179.5</ele>
        <time>2026-05-14T11:55:09+02:00</time>
      </trkpt>
      <trkpt lat="46.80752" lon="4.86295">
        <ele>179.60059</ele>
        <time>2026-05-14T11:55:10+02:00</time>
      </trkpt>
      <trkpt lat="46.80749" lon="4.86301">
        <ele>178.90039</ele>
        <time>2026-05-14T11:55:11+02:00</time>
      </trkpt>
      <trkpt lat="46.80747" lon="4.86307">
        <ele>178.90039</ele>
        <time>2026-05-14T11:55:12+02:00</time>
      </trkpt>
      <trkpt lat="46.80744" lon="4.86313">
        <ele>178.5</ele>
        <time>2026-05-14T11:55:13+02:00</time>
      </trkpt>
      <trkpt lat="46.8074" lon="4.86318">
        <ele>178.10059</ele>
        <time>2026-05-14T11:55:14+02:00</time>
      </trkpt>
      <trkpt lat="46.80737" lon="4.86324">
        <ele>178.10059</ele>
        <time>2026-05-14T11:55:15+02:00</time>
      </trkpt>
      <trkpt lat="46.80734" lon="4.8633">
        <ele>177.60059</ele>
        <time>2026-05-14T11:55:16+02:00</time>
      </trkpt>
      <trkpt lat="46.80731" lon="4.86336">
        <ele>177.60059</ele>
        <time>2026-05-14T11:55:17+02:00</time>
      </trkpt>
      <trkpt lat="46.80729" lon="4.8634">
        <ele>177.60059</ele>
        <time>2026-05-14T11:55:18+02:00</time>
      </trkpt>
      <trkpt lat="46.80727" lon="4.86344">
        <ele>177.10059</ele>
        <time>2026-05-14T11:55:19+02:00</time>
      </trkpt>
      <trkpt lat="46.80726" lon="4.86349">
        <ele>177.10059</ele>
        <time>2026-05-14T11:55:20+02:00</time>
      </trkpt>
      <trkpt lat="46.80726" lon="4.86354">
        <ele>177.2998</ele>
        <time>2026-05-14T11:55:21+02:00</time>
      </trkpt>
      <trkpt lat="46.80728" lon="4.86358">
        <ele>177.2998</ele>
        <time>2026-05-14T11:55:22+02:00</time>
      </trkpt>
      <trkpt lat="46.80731" lon="4.86363">
        <ele>178.60059</ele>
        <time>2026-05-14T11:55:23+02:00</time>
      </trkpt>
      <trkpt lat="46.80734" lon="4.86367">
        <ele>178.60059</ele>
        <time>2026-05-14T11:55:24+02:00</time>
      </trkpt>
      <trkpt lat="46.80737" lon="4.86371">
        <ele>179.7998</ele>
        <time>2026-05-14T11:55:25+02:00</time>
      </trkpt>
      <trkpt lat="46.80739" lon="4.86373">
        <ele>179.7998</ele>
        <time>2026-05-14T11:55:26+02:00</time>
      </trkpt>
      <trkpt lat="46.80746" lon="4.86378">
        <ele>180.7998</ele>
        <time>2026-05-14T11:55:27+02:00</time>
      </trkpt>
      <trkpt lat="46.80751" lon="4.86382">
        <ele>181.5</ele>
        <time>2026-05-14T11:55:28+02:00</time>
      </trkpt>
      <trkpt lat="46.80753" lon="4.86384">
        <ele>182.2002</ele>
        <time>2026-05-14T11:55:29+02:00</time>
      </trkpt>
      <trkpt lat="46.80761" lon="4.86391">
        <ele>182.90039</ele>
        <time>2026-05-14T11:55:30+02:00</time>
      </trkpt>
      <trkpt lat="46.80766" lon="4.86394">
        <ele>183.2002</ele>
        <time>2026-05-14T11:55:31+02:00</time>
      </trkpt>
      <trkpt lat="46.80771" lon="4.86398">
        <ele>183.40039</ele>
        <time>2026-05-14T11:55:32+02:00</time>
      </trkpt>
      <trkpt lat="46.80776" lon="4.86402">
        <ele>183.5</ele>
        <time>2026-05-14T11:55:33+02:00</time>
      </trkpt>
      <trkpt lat="46.80781" lon="4.86405">
        <ele>183.10059</ele>
        <time>2026-05-14T11:55:34+02:00</time>
      </trkpt>
      <trkpt lat="46.80785" lon="4.86408">
        <ele>183.10059</ele>
        <time>2026-05-14T11:55:35+02:00</time>
      </trkpt>
      <trkpt lat="46.80789" lon="4.86412">
        <ele>182.7002</ele>
        <time>2026-05-14T11:55:36+02:00</time>
      </trkpt>
      <trkpt lat="46.80794" lon="4.86415">
        <ele>182.7002</ele>
        <time>2026-05-14T11:55:37+02:00</time>
      </trkpt>
      <trkpt lat="46.80798" lon="4.86418">
        <ele>182.7002</ele>
        <time>2026-05-14T11:55:38+02:00</time>
      </trkpt>
      <trkpt lat="46.80803" lon="4.86421">
        <ele>182.2998</ele>
        <time>2026-05-14T11:55:39+02:00</time>
      </trkpt>
      <trkpt lat="46.80807" lon="4.86424">
        <ele>182.2998</ele>
        <time>2026-05-14T11:55:40+02:00</time>
      </trkpt>
      <trkpt lat="46.80812" lon="4.86427">
        <ele>182.5</ele>
        <time>2026-05-14T11:55:41+02:00</time>
      </trkpt>
      <trkpt lat="46.80817" lon="4.86431">
        <ele>182.10059</ele>
        <time>2026-05-14T11:55:42+02:00</time>
      </trkpt>
      <trkpt lat="46.80822" lon="4.86435">
        <ele>182.10059</ele>
        <time>2026-05-14T11:55:43+02:00</time>
      </trkpt>
      <trkpt lat="46.80827" lon="4.86438">
        <ele>181.7998</ele>
        <time>2026-05-14T11:55:44+02:00</time>
      </trkpt>
      <trkpt lat="46.80832" lon="4.86442">
        <ele>182</ele>
        <time>2026-05-14T11:55:45+02:00</time>
      </trkpt>
      <trkpt lat="46.80837" lon="4.86445">
        <ele>182.2002</ele>
        <time>2026-05-14T11:55:46+02:00</time>
      </trkpt>
      <trkpt lat="46.80842" lon="4.86449">
        <ele>181.7998</ele>
        <time>2026-05-14T11:55:47+02:00</time>
      </trkpt>
      <trkpt lat="46.80847" lon="4.86452">
        <ele>182.10059</ele>
        <time>2026-05-14T11:55:48+02:00</time>
      </trkpt>
      <trkpt lat="46.80852" lon="4.86456">
        <ele>181.7998</ele>
        <time>2026-05-14T11:55:49+02:00</time>
      </trkpt>
      <trkpt lat="46.80858" lon="4.86459">
        <ele>182.2002</ele>
        <time>2026-05-14T11:55:50+02:00</time>
      </trkpt>
      <trkpt lat="46.80863" lon="4.86462">
        <ele>182.2002</ele>
        <time>2026-05-14T11:55:51+02:00</time>
      </trkpt>
      <trkpt lat="46.80867" lon="4.86465">
        <ele>182.10059</ele>
        <time>2026-05-14T11:55:52+02:00</time>
      </trkpt>
      <trkpt lat="46.80872" lon="4.86468">
        <ele>182.5</ele>
        <time>2026-05-14T11:55:53+02:00</time>
      </trkpt>
      <trkpt lat="46.80876" lon="4.86472">
        <ele>182.60059</ele>
        <time>2026-05-14T11:55:54+02:00</time>
      </trkpt>
      <trkpt lat="46.8088" lon="4.86475">
        <ele>182.60059</ele>
        <time>2026-05-14T11:55:55+02:00</time>
      </trkpt>
      <trkpt lat="46.80885" lon="4.86478">
        <ele>183</ele>
        <time>2026-05-14T11:55:56+02:00</time>
      </trkpt>
      <trkpt lat="46.80889" lon="4.86482">
        <ele>183.10059</ele>
        <time>2026-05-14T11:55:57+02:00</time>
      </trkpt>
      <trkpt lat="46.80893" lon="4.86485">
        <ele>183.10059</ele>
        <time>2026-05-14T11:55:58+02:00</time>
      </trkpt>
      <trkpt lat="46.80897" lon="4.86488">
        <ele>183.5</ele>
        <time>2026-05-14T11:55:59+02:00</time>
      </trkpt>
      <trkpt lat="46.80901" lon="4.86491">
        <ele>183.60059</ele>
        <time>2026-05-14T11:56:00+02:00</time>
      </trkpt>
      <trkpt lat="46.80905" lon="4.86495">
        <ele>183.90039</ele>
        <time>2026-05-14T11:56:01+02:00</time>
      </trkpt>
      <trkpt lat="46.8091" lon="4.86498">
        <ele>183.60059</ele>
        <time>2026-05-14T11:56:02+02:00</time>
      </trkpt>
      <trkpt lat="46.80914" lon="4.86501">
        <ele>183.7998</ele>
        <time>2026-05-14T11:56:03+02:00</time>
      </trkpt>
      <trkpt lat="46.80918" lon="4.86505">
        <ele>184.10059</ele>
        <time>2026-05-14T11:56:04+02:00</time>
      </trkpt>
      <trkpt lat="46.80922" lon="4.86508">
        <ele>183.7002</ele>
        <time>2026-05-14T11:56:05+02:00</time>
      </trkpt>
      <trkpt lat="46.80926" lon="4.86511">
        <ele>183.90039</ele>
        <time>2026-05-14T11:56:06+02:00</time>
      </trkpt>
      <trkpt lat="46.80929" lon="4.86514">
        <ele>184</ele>
        <time>2026-05-14T11:56:07+02:00</time>
      </trkpt>
      <trkpt lat="46.80932" lon="4.86517">
        <ele>183.7002</ele>
        <time>2026-05-14T11:56:08+02:00</time>
      </trkpt>
      <trkpt lat="46.80936" lon="4.86519">
        <ele>183.90039</ele>
        <time>2026-05-14T11:56:09+02:00</time>
      </trkpt>
      <trkpt lat="46.80939" lon="4.86522">
        <ele>183.90039</ele>
        <time>2026-05-14T11:56:10+02:00</time>
      </trkpt>
      <trkpt lat="46.80943" lon="4.86525">
        <ele>183.7998</ele>
        <time>2026-05-14T11:56:11+02:00</time>
      </trkpt>
      <trkpt lat="46.80946" lon="4.86529">
        <ele>183.90039</ele>
        <time>2026-05-14T11:56:12+02:00</time>
      </trkpt>
      <trkpt lat="46.8095" lon="4.86532">
        <ele>183.7002</ele>
        <time>2026-05-14T11:56:13+02:00</time>
      </trkpt>
      <trkpt lat="46.80954" lon="4.86536">
        <ele>183.90039</ele>
        <time>2026-05-14T11:56:14+02:00</time>
      </trkpt>
      <trkpt lat="46.80958" lon="4.8654">
        <ele>183.90039</ele>
        <time>2026-05-14T11:56:15+02:00</time>
      </trkpt>
      <trkpt lat="46.80962" lon="4.86544">
        <ele>183.90039</ele>
        <time>2026-05-14T11:56:16+02:00</time>
      </trkpt>
      <trkpt lat="46.80966" lon="4.86548">
        <ele>184</ele>
        <time>2026-05-14T11:56:17+02:00</time>
      </trkpt>
      <trkpt lat="46.8097" lon="4.86551">
        <ele>184.10059</ele>
        <time>2026-05-14T11:56:18+02:00</time>
      </trkpt>
      <trkpt lat="46.80974" lon="4.86554">
        <ele>184.10059</ele>
        <time>2026-05-14T11:56:19+02:00</time>
      </trkpt>
      <trkpt lat="46.80978" lon="4.86558">
        <ele>184.10059</ele>
        <time>2026-05-14T11:56:20+02:00</time>
      </trkpt>
      <trkpt lat="46.80981" lon="4.86563">
        <ele>184.10059</ele>
        <time>2026-05-14T11:56:21+02:00</time>
      </trkpt>
      <trkpt lat="46.80985" lon="4.86568">
        <ele>184.2002</ele>
        <time>2026-05-14T11:56:22+02:00</time>
      </trkpt>
      <trkpt lat="46.80988" lon="4.86573">
        <ele>184.40039</ele>
        <time>2026-05-14T11:56:23+02:00</time>
      </trkpt>
      <trkpt lat="46.80992" lon="4.86578">
        <ele>184.2998</ele>
        <time>2026-05-14T11:56:24+02:00</time>
      </trkpt>
      <trkpt lat="46.80996" lon="4.86583">
        <ele>184.40039</ele>
        <time>2026-05-14T11:56:25+02:00</time>
      </trkpt>
      <trkpt lat="46.81" lon="4.86589">
        <ele>184.60059</ele>
        <time>2026-05-14T11:56:26+02:00</time>
      </trkpt>
      <trkpt lat="46.81003" lon="4.86594">
        <ele>184.60059</ele>
        <time>2026-05-14T11:56:27+02:00</time>
      </trkpt>
      <trkpt lat="46.81007" lon="4.866">
        <ele>184.7998</ele>
        <time>2026-05-14T11:56:28+02:00</time>
      </trkpt>
      <trkpt lat="46.81011" lon="4.86605">
        <ele>185</ele>
        <time>2026-05-14T11:56:29+02:00</time>
      </trkpt>
      <trkpt lat="46.81015" lon="4.8661">
        <ele>185</ele>
        <time>2026-05-14T11:56:30+02:00</time>
      </trkpt>
      <trkpt lat="46.81019" lon="4.86615">
        <ele>185.2002</ele>
        <time>2026-05-14T11:56:31+02:00</time>
      </trkpt>
      <trkpt lat="46.81022" lon="4.8662">
        <ele>185.10059</ele>
        <time>2026-05-14T11:56:32+02:00</time>
      </trkpt>
      <trkpt lat="46.81025" lon="4.86625">
        <ele>185.2998</ele>
        <time>2026-05-14T11:56:33+02:00</time>
      </trkpt>
      <trkpt lat="46.81029" lon="4.8663">
        <ele>185.40039</ele>
        <time>2026-05-14T11:56:34+02:00</time>
      </trkpt>
      <trkpt lat="46.81033" lon="4.86635">
        <ele>185.2998</ele>
        <time>2026-05-14T11:56:35+02:00</time>
      </trkpt>
      <trkpt lat="46.81035" lon="4.86638">
        <ele>185.5</ele>
        <time>2026-05-14T11:56:36+02:00</time>
      </trkpt>
      <trkpt lat="46.8104" lon="4.86646">
        <ele>185.40039</ele>
        <time>2026-05-14T11:56:37+02:00</time>
      </trkpt>
      <trkpt lat="46.81044" lon="4.86652">
        <ele>185.5</ele>
        <time>2026-05-14T11:56:38+02:00</time>
      </trkpt>
      <trkpt lat="46.81045" lon="4.86655">
        <ele>185.5</ele>
        <time>2026-05-14T11:56:39+02:00</time>
      </trkpt>
      <trkpt lat="46.81051" lon="4.86664">
        <ele>185.60059</ele>
        <time>2026-05-14T11:56:40+02:00</time>
      </trkpt>
      <trkpt lat="46.81054" lon="4.86671">
        <ele>185.7998</ele>
        <time>2026-05-14T11:56:41+02:00</time>
      </trkpt>
      <trkpt lat="46.81057" lon="4.86677">
        <ele>185.7998</ele>
        <time>2026-05-14T11:56:42+02:00</time>
      </trkpt>
      <trkpt lat="46.8106" lon="4.86683">
        <ele>185.90039</ele>
        <time>2026-05-14T11:56:43+02:00</time>
      </trkpt>
      <trkpt lat="46.81063" lon="4.86689">
        <ele>185.7998</ele>
        <time>2026-05-14T11:56:44+02:00</time>
      </trkpt>
      <trkpt lat="46.81066" lon="4.86696">
        <ele>185.90039</ele>
        <time>2026-05-14T11:56:45+02:00</time>
      </trkpt>
      <trkpt lat="46.81069" lon="4.86702">
        <ele>185.90039</ele>
        <time>2026-05-14T11:56:46+02:00</time>
      </trkpt>
      <trkpt lat="46.81072" lon="4.86708">
        <ele>186</ele>
        <time>2026-05-14T11:56:47+02:00</time>
      </trkpt>
      <trkpt lat="46.81075" lon="4.86714">
        <ele>185.7998</ele>
        <time>2026-05-14T11:56:48+02:00</time>
      </trkpt>
      <trkpt lat="46.81078" lon="4.86721">
        <ele>185.7998</ele>
        <time>2026-05-14T11:56:49+02:00</time>
      </trkpt>
      <trkpt lat="46.81082" lon="4.86728">
        <ele>186.10059</ele>
        <time>2026-05-14T11:56:50+02:00</time>
      </trkpt>
      <trkpt lat="46.81085" lon="4.86734">
        <ele>185.7998</ele>
        <time>2026-05-14T11:56:51+02:00</time>
      </trkpt>
      <trkpt lat="46.81088" lon="4.8674">
        <ele>185.7002</ele>
        <time>2026-05-14T11:56:52+02:00</time>
      </trkpt>
      <trkpt lat="46.81091" lon="4.86747">
        <ele>185.40039</ele>
        <time>2026-05-14T11:56:53+02:00</time>
      </trkpt>
      <trkpt lat="46.81094" lon="4.86753">
        <ele>185.7002</ele>
        <time>2026-05-14T11:56:54+02:00</time>
      </trkpt>
      <trkpt lat="46.81098" lon="4.86759">
        <ele>185.40039</ele>
        <time>2026-05-14T11:56:55+02:00</time>
      </trkpt>
      <trkpt lat="46.81101" lon="4.86765">
        <ele>185.40039</ele>
        <time>2026-05-14T11:56:56+02:00</time>
      </trkpt>
      <trkpt lat="46.81103" lon="4.86768">
        <ele>185.40039</ele>
        <time>2026-05-14T11:56:57+02:00</time>
      </trkpt>
      <trkpt lat="46.81107" lon="4.86777">
        <ele>185.40039</ele>
        <time>2026-05-14T11:56:58+02:00</time>
      </trkpt>
      <trkpt lat="46.8111" lon="4.86783">
        <ele>185.10059</ele>
        <time>2026-05-14T11:56:59+02:00</time>
      </trkpt>
      <trkpt lat="46.81113" lon="4.86789">
        <ele>185.2002</ele>
        <time>2026-05-14T11:57:00+02:00</time>
      </trkpt>
      <trkpt lat="46.81116" lon="4.86795">
        <ele>185.2002</ele>
        <time>2026-05-14T11:57:01+02:00</time>
      </trkpt>
      <trkpt lat="46.81119" lon="4.86801">
        <ele>185.2998</ele>
        <time>2026-05-14T11:57:02+02:00</time>
      </trkpt>
      <trkpt lat="46.81122" lon="4.86807">
        <ele>185</ele>
        <time>2026-05-14T11:57:03+02:00</time>
      </trkpt>
      <trkpt lat="46.81125" lon="4.86813">
        <ele>185.40039</ele>
        <time>2026-05-14T11:57:04+02:00</time>
      </trkpt>
      <trkpt lat="46.81128" lon="4.86819">
        <ele>185.10059</ele>
        <time>2026-05-14T11:57:05+02:00</time>
      </trkpt>
      <trkpt lat="46.81131" lon="4.86826">
        <ele>185.2002</ele>
        <time>2026-05-14T11:57:06+02:00</time>
      </trkpt>
      <trkpt lat="46.81134" lon="4.86832">
        <ele>185.5</ele>
        <time>2026-05-14T11:57:07+02:00</time>
      </trkpt>
      <trkpt lat="46.81137" lon="4.86838">
        <ele>185.5</ele>
        <time>2026-05-14T11:57:08+02:00</time>
      </trkpt>
      <trkpt lat="46.8114" lon="4.86844">
        <ele>185.7998</ele>
        <time>2026-05-14T11:57:09+02:00</time>
      </trkpt>
      <trkpt lat="46.81143" lon="4.8685">
        <ele>185.7998</ele>
        <time>2026-05-14T11:57:10+02:00</time>
      </trkpt>
      <trkpt lat="46.81146" lon="4.86856">
        <ele>186.10059</ele>
        <time>2026-05-14T11:57:11+02:00</time>
      </trkpt>
      <trkpt lat="46.81149" lon="4.86862">
        <ele>186</ele>
        <time>2026-05-14T11:57:12+02:00</time>
      </trkpt>
      <trkpt lat="46.81152" lon="4.86868">
        <ele>186.2002</ele>
        <time>2026-05-14T11:57:13+02:00</time>
      </trkpt>
      <trkpt lat="46.81155" lon="4.86873">
        <ele>186.2002</ele>
        <time>2026-05-14T11:57:14+02:00</time>
      </trkpt>
      <trkpt lat="46.81158" lon="4.86878">
        <ele>186.2998</ele>
        <time>2026-05-14T11:57:15+02:00</time>
      </trkpt>
      <trkpt lat="46.81161" lon="4.86883">
        <ele>186.2998</ele>
        <time>2026-05-14T11:57:16+02:00</time>
      </trkpt>
      <trkpt lat="46.81164" lon="4.86888">
        <ele>186.5</ele>
        <time>2026-05-14T11:57:17+02:00</time>
      </trkpt>
      <trkpt lat="46.81167" lon="4.86894">
        <ele>186.40039</ele>
        <time>2026-05-14T11:57:18+02:00</time>
      </trkpt>
      <trkpt lat="46.8117" lon="4.869">
        <ele>186.60059</ele>
        <time>2026-05-14T11:57:19+02:00</time>
      </trkpt>
      <trkpt lat="46.81173" lon="4.86906">
        <ele>186.60059</ele>
        <time>2026-05-14T11:57:20+02:00</time>
      </trkpt>
      <trkpt lat="46.81176" lon="4.86912">
        <ele>186.7002</ele>
        <time>2026-05-14T11:57:21+02:00</time>
      </trkpt>
      <trkpt lat="46.81178" lon="4.86919">
        <ele>186.7002</ele>
        <time>2026-05-14T11:57:22+02:00</time>
      </trkpt>
      <trkpt lat="46.81181" lon="4.86924">
        <ele>186.7998</ele>
        <time>2026-05-14T11:57:23+02:00</time>
      </trkpt>
      <trkpt lat="46.81185" lon="4.86931">
        <ele>186.7998</ele>
        <time>2026-05-14T11:57:24+02:00</time>
      </trkpt>
      <trkpt lat="46.81188" lon="4.86937">
        <ele>186.7998</ele>
        <time>2026-05-14T11:57:25+02:00</time>
      </trkpt>
      <trkpt lat="46.81191" lon="4.86942">
        <ele>186.7998</ele>
        <time>2026-05-14T11:57:26+02:00</time>
      </trkpt>
      <trkpt lat="46.81193" lon="4.86948">
        <ele>186.90039</ele>
        <time>2026-05-14T11:57:27+02:00</time>
      </trkpt>
      <trkpt lat="46.81196" lon="4.86953">
        <ele>186.7998</ele>
        <time>2026-05-14T11:57:28+02:00</time>
      </trkpt>
      <trkpt lat="46.81199" lon="4.86959">
        <ele>187</ele>
        <time>2026-05-14T11:57:29+02:00</time>
      </trkpt>
      <trkpt lat="46.81202" lon="4.86965">
        <ele>186.90039</ele>
        <time>2026-05-14T11:57:30+02:00</time>
      </trkpt>
      <trkpt lat="46.81204" lon="4.86971">
        <ele>186.7998</ele>
        <time>2026-05-14T11:57:31+02:00</time>
      </trkpt>
      <trkpt lat="46.81207" lon="4.86977">
        <ele>187</ele>
        <time>2026-05-14T11:57:32+02:00</time>
      </trkpt>
      <trkpt lat="46.8121" lon="4.86983">
        <ele>186.90039</ele>
        <time>2026-05-14T11:57:33+02:00</time>
      </trkpt>
      <trkpt lat="46.81212" lon="4.86989">
        <ele>186.90039</ele>
        <time>2026-05-14T11:57:34+02:00</time>
      </trkpt>
      <trkpt lat="46.81215" lon="4.86994">
        <ele>186.90039</ele>
        <time>2026-05-14T11:57:35+02:00</time>
      </trkpt>
      <trkpt lat="46.81218" lon="4.87">
        <ele>187</ele>
        <time>2026-05-14T11:57:36+02:00</time>
      </trkpt>
      <trkpt lat="46.81221" lon="4.87006">
        <ele>186.7998</ele>
        <time>2026-05-14T11:57:37+02:00</time>
      </trkpt>
      <trkpt lat="46.81224" lon="4.87012">
        <ele>186.90039</ele>
        <time>2026-05-14T11:57:38+02:00</time>
      </trkpt>
      <trkpt lat="46.81227" lon="4.87018">
        <ele>186.90039</ele>
        <time>2026-05-14T11:57:39+02:00</time>
      </trkpt>
      <trkpt lat="46.8123" lon="4.87024">
        <ele>186.90039</ele>
        <time>2026-05-14T11:57:40+02:00</time>
      </trkpt>
      <trkpt lat="46.81233" lon="4.8703">
        <ele>186.7002</ele>
        <time>2026-05-14T11:57:41+02:00</time>
      </trkpt>
      <trkpt lat="46.81235" lon="4.87036">
        <ele>187</ele>
        <time>2026-05-14T11:57:42+02:00</time>
      </trkpt>
      <trkpt lat="46.81238" lon="4.87041">
        <ele>186.7998</ele>
        <time>2026-05-14T11:57:43+02:00</time>
      </trkpt>
      <trkpt lat="46.81241" lon="4.87047">
        <ele>187</ele>
        <time>2026-05-14T11:57:44+02:00</time>
      </trkpt>
      <trkpt lat="46.81244" lon="4.87053">
        <ele>187</ele>
        <time>2026-05-14T11:57:45+02:00</time>
      </trkpt>
      <trkpt lat="46.81247" lon="4.87059">
        <ele>187.2002</ele>
        <time>2026-05-14T11:57:46+02:00</time>
      </trkpt>
      <trkpt lat="46.8125" lon="4.87064">
        <ele>187</ele>
        <time>2026-05-14T11:57:47+02:00</time>
      </trkpt>
      <trkpt lat="46.81251" lon="4.87068">
        <ele>187</ele>
        <time>2026-05-14T11:57:48+02:00</time>
      </trkpt>
      <trkpt lat="46.81256" lon="4.87077">
        <ele>187.2998</ele>
        <time>2026-05-14T11:57:49+02:00</time>
      </trkpt>
      <trkpt lat="46.81259" lon="4.87083">
        <ele>187.5</ele>
        <time>2026-05-14T11:57:50+02:00</time>
      </trkpt>
      <trkpt lat="46.81261" lon="4.87089">
        <ele>187.5</ele>
        <time>2026-05-14T11:57:51+02:00</time>
      </trkpt>
      <trkpt lat="46.81264" lon="4.87094">
        <ele>187.7002</ele>
        <time>2026-05-14T11:57:52+02:00</time>
      </trkpt>
      <trkpt lat="46.81267" lon="4.871">
        <ele>187.60059</ele>
        <time>2026-05-14T11:57:53+02:00</time>
      </trkpt>
      <trkpt lat="46.8127" lon="4.87106">
        <ele>188</ele>
        <time>2026-05-14T11:57:54+02:00</time>
      </trkpt>
      <trkpt lat="46.81273" lon="4.87112">
        <ele>187.7998</ele>
        <time>2026-05-14T11:57:55+02:00</time>
      </trkpt>
      <trkpt lat="46.81275" lon="4.87117">
        <ele>188.10059</ele>
        <time>2026-05-14T11:57:56+02:00</time>
      </trkpt>
      <trkpt lat="46.81278" lon="4.87123">
        <ele>188.10059</ele>
        <time>2026-05-14T11:57:57+02:00</time>
      </trkpt>
      <trkpt lat="46.8128" lon="4.87128">
        <ele>188</ele>
        <time>2026-05-14T11:57:58+02:00</time>
      </trkpt>
      <trkpt lat="46.81283" lon="4.87134">
        <ele>188.2998</ele>
        <time>2026-05-14T11:57:59+02:00</time>
      </trkpt>
      <trkpt lat="46.81291" lon="4.87152">
        <ele>188.40039</ele>
        <time>2026-05-14T11:58:00+02:00</time>
      </trkpt>
      <trkpt lat="46.81296" lon="4.8716">
        <ele>188.60059</ele>
        <time>2026-05-14T11:58:01+02:00</time>
      </trkpt>
      <trkpt lat="46.81297" lon="4.87163">
        <ele>188.60059</ele>
        <time>2026-05-14T11:58:02+02:00</time>
      </trkpt>
      <trkpt lat="46.81299" lon="4.87169">
        <ele>188.7002</ele>
        <time>2026-05-14T11:58:03+02:00</time>
      </trkpt>
      <trkpt lat="46.81301" lon="4.87174">
        <ele>188.7002</ele>
        <time>2026-05-14T11:58:04+02:00</time>
      </trkpt>
      <trkpt lat="46.81304" lon="4.87179">
        <ele>188.60059</ele>
        <time>2026-05-14T11:58:05+02:00</time>
      </trkpt>
      <trkpt lat="46.81307" lon="4.87185">
        <ele>188.7002</ele>
        <time>2026-05-14T11:58:06+02:00</time>
      </trkpt>
      <trkpt lat="46.8131" lon="4.8719">
        <ele>188.7002</ele>
        <time>2026-05-14T11:58:07+02:00</time>
      </trkpt>
      <trkpt lat="46.81313" lon="4.87196">
        <ele>188.7998</ele>
        <time>2026-05-14T11:58:08+02:00</time>
      </trkpt>
      <trkpt lat="46.81316" lon="4.87203">
        <ele>188.7002</ele>
        <time>2026-05-14T11:58:09+02:00</time>
      </trkpt>
      <trkpt lat="46.81319" lon="4.87209">
        <ele>188.90039</ele>
        <time>2026-05-14T11:58:10+02:00</time>
      </trkpt>
      <trkpt lat="46.81322" lon="4.87216">
        <ele>188.90039</ele>
        <time>2026-05-14T11:58:11+02:00</time>
      </trkpt>
      <trkpt lat="46.81325" lon="4.87222">
        <ele>188.7998</ele>
        <time>2026-05-14T11:58:12+02:00</time>
      </trkpt>
      <trkpt lat="46.81328" lon="4.87228">
        <ele>188.7998</ele>
        <time>2026-05-14T11:58:13+02:00</time>
      </trkpt>
      <trkpt lat="46.81331" lon="4.87234">
        <ele>188.7998</ele>
        <time>2026-05-14T11:58:14+02:00</time>
      </trkpt>
      <trkpt lat="46.81334" lon="4.87239">
        <ele>188.7998</ele>
        <time>2026-05-14T11:58:15+02:00</time>
      </trkpt>
      <trkpt lat="46.81337" lon="4.87245">
        <ele>188.7998</ele>
        <time>2026-05-14T11:58:16+02:00</time>
      </trkpt>
      <trkpt lat="46.81339" lon="4.8725">
        <ele>188.7998</ele>
        <time>2026-05-14T11:58:17+02:00</time>
      </trkpt>
      <trkpt lat="46.81342" lon="4.87256">
        <ele>188.7998</ele>
        <time>2026-05-14T11:58:18+02:00</time>
      </trkpt>
      <trkpt lat="46.81345" lon="4.87261">
        <ele>188.7998</ele>
        <time>2026-05-14T11:58:19+02:00</time>
      </trkpt>
      <trkpt lat="46.81347" lon="4.87266">
        <ele>188.7998</ele>
        <time>2026-05-14T11:58:20+02:00</time>
      </trkpt>
      <trkpt lat="46.8135" lon="4.87272">
        <ele>188.7998</ele>
        <time>2026-05-14T11:58:21+02:00</time>
      </trkpt>
      <trkpt lat="46.81353" lon="4.87278">
        <ele>188.7998</ele>
        <time>2026-05-14T11:58:22+02:00</time>
      </trkpt>
      <trkpt lat="46.81356" lon="4.87284">
        <ele>188.7998</ele>
        <time>2026-05-14T11:58:23+02:00</time>
      </trkpt>
      <trkpt lat="46.81359" lon="4.87291">
        <ele>188.90039</ele>
        <time>2026-05-14T11:58:24+02:00</time>
      </trkpt>
      <trkpt lat="46.81362" lon="4.87297">
        <ele>188.90039</ele>
        <time>2026-05-14T11:58:25+02:00</time>
      </trkpt>
      <trkpt lat="46.81365" lon="4.87303">
        <ele>188.90039</ele>
        <time>2026-05-14T11:58:26+02:00</time>
      </trkpt>
      <trkpt lat="46.81369" lon="4.87309">
        <ele>188.90039</ele>
        <time>2026-05-14T11:58:27+02:00</time>
      </trkpt>
      <trkpt lat="46.81371" lon="4.87315">
        <ele>188.90039</ele>
        <time>2026-05-14T11:58:28+02:00</time>
      </trkpt>
      <trkpt lat="46.81375" lon="4.87322">
        <ele>188.90039</ele>
        <time>2026-05-14T11:58:29+02:00</time>
      </trkpt>
      <trkpt lat="46.81378" lon="4.87328">
        <ele>188.90039</ele>
        <time>2026-05-14T11:58:30+02:00</time>
      </trkpt>
      <trkpt lat="46.81381" lon="4.87334">
        <ele>188.90039</ele>
        <time>2026-05-14T11:58:31+02:00</time>
      </trkpt>
      <trkpt lat="46.81384" lon="4.8734">
        <ele>188.90039</ele>
        <time>2026-05-14T11:58:32+02:00</time>
      </trkpt>
      <trkpt lat="46.81386" lon="4.87345">
        <ele>188.90039</ele>
        <time>2026-05-14T11:58:33+02:00</time>
      </trkpt>
      <trkpt lat="46.81389" lon="4.87351">
        <ele>188.90039</ele>
        <time>2026-05-14T11:58:34+02:00</time>
      </trkpt>
      <trkpt lat="46.81392" lon="4.87357">
        <ele>188.90039</ele>
        <time>2026-05-14T11:58:35+02:00</time>
      </trkpt>
      <trkpt lat="46.81395" lon="4.87363">
        <ele>188.90039</ele>
        <time>2026-05-14T11:58:36+02:00</time>
      </trkpt>
      <trkpt lat="46.81397" lon="4.8737">
        <ele>188.90039</ele>
        <time>2026-05-14T11:58:37+02:00</time>
      </trkpt>
      <trkpt lat="46.814" lon="4.87376">
        <ele>188.90039</ele>
        <time>2026-05-14T11:58:38+02:00</time>
      </trkpt>
      <trkpt lat="46.81403" lon="4.87382">
        <ele>188.90039</ele>
        <time>2026-05-14T11:58:39+02:00</time>
      </trkpt>
      <trkpt lat="46.81406" lon="4.87388">
        <ele>188.90039</ele>
        <time>2026-05-14T11:58:40+02:00</time>
      </trkpt>
      <trkpt lat="46.81409" lon="4.87395">
        <ele>188.90039</ele>
        <time>2026-05-14T11:58:41+02:00</time>
      </trkpt>
      <trkpt lat="46.81412" lon="4.87401">
        <ele>188.90039</ele>
        <time>2026-05-14T11:58:42+02:00</time>
      </trkpt>
      <trkpt lat="46.81415" lon="4.87408">
        <ele>188.90039</ele>
        <time>2026-05-14T11:58:43+02:00</time>
      </trkpt>
      <trkpt lat="46.81418" lon="4.87414">
        <ele>189</ele>
        <time>2026-05-14T11:58:44+02:00</time>
      </trkpt>
      <trkpt lat="46.81423" lon="4.87423">
        <ele>189</ele>
        <time>2026-05-14T11:58:45+02:00</time>
      </trkpt>
      <trkpt lat="46.81423" lon="4.87423">
        <ele>189</ele>
        <time>2026-05-14T11:58:46+02:00</time>
      </trkpt>
      <trkpt lat="46.81427" lon="4.87432">
        <ele>189</ele>
        <time>2026-05-14T11:58:47+02:00</time>
      </trkpt>
      <trkpt lat="46.8143" lon="4.87438">
        <ele>189.10059</ele>
        <time>2026-05-14T11:58:48+02:00</time>
      </trkpt>
      <trkpt lat="46.81433" lon="4.87444">
        <ele>189.10059</ele>
        <time>2026-05-14T11:58:49+02:00</time>
      </trkpt>
      <trkpt lat="46.81436" lon="4.8745">
        <ele>189.10059</ele>
        <time>2026-05-14T11:58:50+02:00</time>
      </trkpt>
      <trkpt lat="46.81439" lon="4.87456">
        <ele>189.10059</ele>
        <time>2026-05-14T11:58:51+02:00</time>
      </trkpt>
      <trkpt lat="46.81442" lon="4.87463">
        <ele>189.2002</ele>
        <time>2026-05-14T11:58:52+02:00</time>
      </trkpt>
      <trkpt lat="46.81445" lon="4.87469">
        <ele>189.2998</ele>
        <time>2026-05-14T11:58:53+02:00</time>
      </trkpt>
      <trkpt lat="46.81447" lon="4.87474">
        <ele>189.2998</ele>
        <time>2026-05-14T11:58:54+02:00</time>
      </trkpt>
      <trkpt lat="46.8145" lon="4.8748">
        <ele>189.40039</ele>
        <time>2026-05-14T11:58:55+02:00</time>
      </trkpt>
      <trkpt lat="46.81453" lon="4.87486">
        <ele>189.5</ele>
        <time>2026-05-14T11:58:56+02:00</time>
      </trkpt>
      <trkpt lat="46.81456" lon="4.87492">
        <ele>189.5</ele>
        <time>2026-05-14T11:58:57+02:00</time>
      </trkpt>
      <trkpt lat="46.81459" lon="4.87499">
        <ele>189.60059</ele>
        <time>2026-05-14T11:58:58+02:00</time>
      </trkpt>
      <trkpt lat="46.81462" lon="4.87505">
        <ele>189.60059</ele>
        <time>2026-05-14T11:58:59+02:00</time>
      </trkpt>
      <trkpt lat="46.81465" lon="4.8751">
        <ele>189.7002</ele>
        <time>2026-05-14T11:59:00+02:00</time>
      </trkpt>
      <trkpt lat="46.81468" lon="4.87516">
        <ele>189.7002</ele>
        <time>2026-05-14T11:59:01+02:00</time>
      </trkpt>
      <trkpt lat="46.81471" lon="4.87521">
        <ele>189.7998</ele>
        <time>2026-05-14T11:59:02+02:00</time>
      </trkpt>
      <trkpt lat="46.81474" lon="4.87527">
        <ele>189.7998</ele>
        <time>2026-05-14T11:59:03+02:00</time>
      </trkpt>
      <trkpt lat="46.81476" lon="4.87533">
        <ele>189.90039</ele>
        <time>2026-05-14T11:59:04+02:00</time>
      </trkpt>
      <trkpt lat="46.81479" lon="4.87539">
        <ele>189.90039</ele>
        <time>2026-05-14T11:59:05+02:00</time>
      </trkpt>
      <trkpt lat="46.81482" lon="4.87544">
        <ele>190</ele>
        <time>2026-05-14T11:59:06+02:00</time>
      </trkpt>
      <trkpt lat="46.81485" lon="4.87551">
        <ele>190</ele>
        <time>2026-05-14T11:59:07+02:00</time>
      </trkpt>
      <trkpt lat="46.81488" lon="4.87556">
        <ele>190</ele>
        <time>2026-05-14T11:59:08+02:00</time>
      </trkpt>
      <trkpt lat="46.81491" lon="4.87563">
        <ele>190</ele>
        <time>2026-05-14T11:59:09+02:00</time>
      </trkpt>
      <trkpt lat="46.81494" lon="4.87569">
        <ele>190.10059</ele>
        <time>2026-05-14T11:59:10+02:00</time>
      </trkpt>
      <trkpt lat="46.81497" lon="4.87575">
        <ele>190.10059</ele>
        <time>2026-05-14T11:59:11+02:00</time>
      </trkpt>
      <trkpt lat="46.815" lon="4.87582">
        <ele>190.10059</ele>
        <time>2026-05-14T11:59:12+02:00</time>
      </trkpt>
      <trkpt lat="46.81503" lon="4.87588">
        <ele>190.10059</ele>
        <time>2026-05-14T11:59:13+02:00</time>
      </trkpt>
      <trkpt lat="46.81505" lon="4.87595">
        <ele>190.2002</ele>
        <time>2026-05-14T11:59:14+02:00</time>
      </trkpt>
      <trkpt lat="46.81508" lon="4.87601">
        <ele>190.2002</ele>
        <time>2026-05-14T11:59:15+02:00</time>
      </trkpt>
      <trkpt lat="46.81511" lon="4.87608">
        <ele>190.2998</ele>
        <time>2026-05-14T11:59:16+02:00</time>
      </trkpt>
      <trkpt lat="46.81513" lon="4.87616">
        <ele>190.2998</ele>
        <time>2026-05-14T11:59:17+02:00</time>
      </trkpt>
      <trkpt lat="46.81516" lon="4.87623">
        <ele>190.40039</ele>
        <time>2026-05-14T11:59:18+02:00</time>
      </trkpt>
      <trkpt lat="46.81518" lon="4.87631">
        <ele>190.40039</ele>
        <time>2026-05-14T11:59:19+02:00</time>
      </trkpt>
      <trkpt lat="46.81521" lon="4.87638">
        <ele>190.40039</ele>
        <time>2026-05-14T11:59:20+02:00</time>
      </trkpt>
      <trkpt lat="46.81523" lon="4.87646">
        <ele>190.60059</ele>
        <time>2026-05-14T11:59:21+02:00</time>
      </trkpt>
      <trkpt lat="46.81526" lon="4.87654">
        <ele>190.60059</ele>
        <time>2026-05-14T11:59:22+02:00</time>
      </trkpt>
      <trkpt lat="46.81528" lon="4.87661">
        <ele>190.7002</ele>
        <time>2026-05-14T11:59:23+02:00</time>
      </trkpt>
      <trkpt lat="46.8153" lon="4.87669">
        <ele>190.60059</ele>
        <time>2026-05-14T11:59:24+02:00</time>
      </trkpt>
      <trkpt lat="46.81533" lon="4.87676">
        <ele>190.40039</ele>
        <time>2026-05-14T11:59:25+02:00</time>
      </trkpt>
      <trkpt lat="46.81535" lon="4.87683">
        <ele>190.40039</ele>
        <time>2026-05-14T11:59:26+02:00</time>
      </trkpt>
      <trkpt lat="46.81538" lon="4.87691">
        <ele>190.2002</ele>
        <time>2026-05-14T11:59:27+02:00</time>
      </trkpt>
      <trkpt lat="46.8154" lon="4.87699">
        <ele>190.10059</ele>
        <time>2026-05-14T11:59:28+02:00</time>
      </trkpt>
      <trkpt lat="46.81542" lon="4.87707">
        <ele>190.10059</ele>
        <time>2026-05-14T11:59:29+02:00</time>
      </trkpt>
      <trkpt lat="46.81545" lon="4.87715">
        <ele>189.90039</ele>
        <time>2026-05-14T11:59:30+02:00</time>
      </trkpt>
      <trkpt lat="46.81549" lon="4.87726">
        <ele>189.60059</ele>
        <time>2026-05-14T11:59:31+02:00</time>
      </trkpt>
      <trkpt lat="46.81549" lon="4.87726">
        <ele>189.60059</ele>
        <time>2026-05-14T11:59:32+02:00</time>
      </trkpt>
      <trkpt lat="46.81553" lon="4.87738">
        <ele>189.5</ele>
        <time>2026-05-14T11:59:33+02:00</time>
      </trkpt>
      <trkpt lat="46.81555" lon="4.87745">
        <ele>189.2002</ele>
        <time>2026-05-14T11:59:34+02:00</time>
      </trkpt>
      <trkpt lat="46.81558" lon="4.87752">
        <ele>189</ele>
        <time>2026-05-14T11:59:35+02:00</time>
      </trkpt>
      <trkpt lat="46.81561" lon="4.8776">
        <ele>188.7998</ele>
        <time>2026-05-14T11:59:36+02:00</time>
      </trkpt>
      <trkpt lat="46.81563" lon="4.87768">
        <ele>188.5</ele>
        <time>2026-05-14T11:59:37+02:00</time>
      </trkpt>
      <trkpt lat="46.81566" lon="4.87776">
        <ele>188.10059</ele>
        <time>2026-05-14T11:59:38+02:00</time>
      </trkpt>
      <trkpt lat="46.81568" lon="4.87785">
        <ele>187.7998</ele>
        <time>2026-05-14T11:59:39+02:00</time>
      </trkpt>
      <trkpt lat="46.81571" lon="4.87794">
        <ele>187.40039</ele>
        <time>2026-05-14T11:59:40+02:00</time>
      </trkpt>
      <trkpt lat="46.81573" lon="4.87803">
        <ele>187.10059</ele>
        <time>2026-05-14T11:59:41+02:00</time>
      </trkpt>
      <trkpt lat="46.81576" lon="4.87812">
        <ele>186.7998</ele>
        <time>2026-05-14T11:59:42+02:00</time>
      </trkpt>
      <trkpt lat="46.81579" lon="4.87822">
        <ele>186.40039</ele>
        <time>2026-05-14T11:59:43+02:00</time>
      </trkpt>
      <trkpt lat="46.81582" lon="4.87831">
        <ele>186.10059</ele>
        <time>2026-05-14T11:59:44+02:00</time>
      </trkpt>
      <trkpt lat="46.81585" lon="4.87841">
        <ele>185.7998</ele>
        <time>2026-05-14T11:59:45+02:00</time>
      </trkpt>
      <trkpt lat="46.81587" lon="4.87849">
        <ele>185.5</ele>
        <time>2026-05-14T11:59:46+02:00</time>
      </trkpt>
      <trkpt lat="46.8159" lon="4.87858">
        <ele>185.2002</ele>
        <time>2026-05-14T11:59:47+02:00</time>
      </trkpt>
      <trkpt lat="46.81593" lon="4.87867">
        <ele>184.90039</ele>
        <time>2026-05-14T11:59:48+02:00</time>
      </trkpt>
      <trkpt lat="46.81596" lon="4.87876">
        <ele>184.7002</ele>
        <time>2026-05-14T11:59:49+02:00</time>
      </trkpt>
      <trkpt lat="46.81598" lon="4.87885">
        <ele>184.40039</ele>
        <time>2026-05-14T11:59:50+02:00</time>
      </trkpt>
      <trkpt lat="46.81601" lon="4.87895">
        <ele>184.10059</ele>
        <time>2026-05-14T11:59:51+02:00</time>
      </trkpt>
      <trkpt lat="46.81605" lon="4.87906">
        <ele>183.60059</ele>
        <time>2026-05-14T11:59:52+02:00</time>
      </trkpt>
      <trkpt lat="46.81605" lon="4.87906">
        <ele>183.60059</ele>
        <time>2026-05-14T11:59:53+02:00</time>
      </trkpt>
      <trkpt lat="46.81607" lon="4.87914">
        <ele>183.2998</ele>
        <time>2026-05-14T11:59:54+02:00</time>
      </trkpt>
      <trkpt lat="46.81609" lon="4.8792">
        <ele>183.2998</ele>
        <time>2026-05-14T11:59:55+02:00</time>
      </trkpt>
      <trkpt lat="46.81609" lon="4.87922">
        <ele>183</ele>
        <time>2026-05-14T11:59:56+02:00</time>
      </trkpt>
      <trkpt lat="46.8161" lon="4.87925">
        <ele>183</ele>
        <time>2026-05-14T11:59:57+02:00</time>
      </trkpt>
      <trkpt lat="46.81609" lon="4.87929">
        <ele>183</ele>
        <time>2026-05-14T11:59:58+02:00</time>
      </trkpt>
      <trkpt lat="46.81606" lon="4.87932">
        <ele>182.7002</ele>
        <time>2026-05-14T11:59:59+02:00</time>
      </trkpt>
      <trkpt lat="46.81603" lon="4.87935">
        <ele>182.60059</ele>
        <time>2026-05-14T12:00:00+02:00</time>
      </trkpt>
      <trkpt lat="46.81599" lon="4.87938">
        <ele>182.60059</ele>
        <time>2026-05-14T12:00:01+02:00</time>
      </trkpt>
      <trkpt lat="46.81595" lon="4.8794">
        <ele>182.2998</ele>
        <time>2026-05-14T12:00:02+02:00</time>
      </trkpt>
      <trkpt lat="46.8159" lon="4.87943">
        <ele>182.2998</ele>
        <time>2026-05-14T12:00:03+02:00</time>
      </trkpt>
      <trkpt lat="46.81585" lon="4.87945">
        <ele>182.2998</ele>
        <time>2026-05-14T12:00:04+02:00</time>
      </trkpt>
      <trkpt lat="46.81581" lon="4.87948">
        <ele>181.90039</ele>
        <time>2026-05-14T12:00:05+02:00</time>
      </trkpt>
      <trkpt lat="46.81579" lon="4.87949">
        <ele>181.90039</ele>
        <time>2026-05-14T12:00:06+02:00</time>
      </trkpt>
      <trkpt lat="46.81572" lon="4.87953">
        <ele>181.90039</ele>
        <time>2026-05-14T12:00:07+02:00</time>
      </trkpt>
      <trkpt lat="46.81568" lon="4.87955">
        <ele>181.90039</ele>
        <time>2026-05-14T12:00:08+02:00</time>
      </trkpt>
      <trkpt lat="46.81565" lon="4.87959">
        <ele>181.60059</ele>
        <time>2026-05-14T12:00:09+02:00</time>
      </trkpt>
      <trkpt lat="46.81564" lon="4.87963">
        <ele>181.60059</ele>
        <time>2026-05-14T12:00:10+02:00</time>
      </trkpt>
      <trkpt lat="46.81564" lon="4.87968">
        <ele>181.2002</ele>
        <time>2026-05-14T12:00:11+02:00</time>
      </trkpt>
      <trkpt lat="46.81566" lon="4.87974">
        <ele>181</ele>
        <time>2026-05-14T12:00:12+02:00</time>
      </trkpt>
      <trkpt lat="46.81567" lon="4.87981">
        <ele>181</ele>
        <time>2026-05-14T12:00:13+02:00</time>
      </trkpt>
      <trkpt lat="46.81569" lon="4.87987">
        <ele>180.7002</ele>
        <time>2026-05-14T12:00:14+02:00</time>
      </trkpt>
      <trkpt lat="46.81571" lon="4.87994">
        <ele>180.5</ele>
        <time>2026-05-14T12:00:15+02:00</time>
      </trkpt>
      <trkpt lat="46.81574" lon="4.88001">
        <ele>180.2998</ele>
        <time>2026-05-14T12:00:16+02:00</time>
      </trkpt>
      <trkpt lat="46.81576" lon="4.88007">
        <ele>180.2998</ele>
        <time>2026-05-14T12:00:17+02:00</time>
      </trkpt>
      <trkpt lat="46.81579" lon="4.88013">
        <ele>180.2002</ele>
        <time>2026-05-14T12:00:18+02:00</time>
      </trkpt>
      <trkpt lat="46.81581" lon="4.8802">
        <ele>180.10059</ele>
        <time>2026-05-14T12:00:19+02:00</time>
      </trkpt>
      <trkpt lat="46.81584" lon="4.88026">
        <ele>180.10059</ele>
        <time>2026-05-14T12:00:20+02:00</time>
      </trkpt>
      <trkpt lat="46.81587" lon="4.88033">
        <ele>180.10059</ele>
        <time>2026-05-14T12:00:21+02:00</time>
      </trkpt>
      <trkpt lat="46.81588" lon="4.88038">
        <ele>180.10059</ele>
        <time>2026-05-14T12:00:22+02:00</time>
      </trkpt>
      <trkpt lat="46.81589" lon="4.88043">
        <ele>180</ele>
        <time>2026-05-14T12:00:23+02:00</time>
      </trkpt>
      <trkpt lat="46.8159" lon="4.88048">
        <ele>180</ele>
        <time>2026-05-14T12:00:24+02:00</time>
      </trkpt>
      <trkpt lat="46.81589" lon="4.88052">
        <ele>180</ele>
        <time>2026-05-14T12:00:25+02:00</time>
      </trkpt>
      <trkpt lat="46.81587" lon="4.88056">
        <ele>180</ele>
        <time>2026-05-14T12:00:26+02:00</time>
      </trkpt>
      <trkpt lat="46.81584" lon="4.88059">
        <ele>180</ele>
        <time>2026-05-14T12:00:27+02:00</time>
      </trkpt>
      <trkpt lat="46.8158" lon="4.88061">
        <ele>180</ele>
        <time>2026-05-14T12:00:28+02:00</time>
      </trkpt>
      <trkpt lat="46.81576" lon="4.88064">
        <ele>180</ele>
        <time>2026-05-14T12:00:29+02:00</time>
      </trkpt>
      <trkpt lat="46.81572" lon="4.88066">
        <ele>179.90039</ele>
        <time>2026-05-14T12:00:30+02:00</time>
      </trkpt>
      <trkpt lat="46.81568" lon="4.88069">
        <ele>179.90039</ele>
        <time>2026-05-14T12:00:31+02:00</time>
      </trkpt>
      <trkpt lat="46.81563" lon="4.88072">
        <ele>179.90039</ele>
        <time>2026-05-14T12:00:32+02:00</time>
      </trkpt>
      <trkpt lat="46.8156" lon="4.88073">
        <ele>179.7998</ele>
        <time>2026-05-14T12:00:33+02:00</time>
      </trkpt>
      <trkpt lat="46.81553" lon="4.88077">
        <ele>179.7002</ele>
        <time>2026-05-14T12:00:34+02:00</time>
      </trkpt>
      <trkpt lat="46.81548" lon="4.88079">
        <ele>179.7002</ele>
        <time>2026-05-14T12:00:35+02:00</time>
      </trkpt>
      <trkpt lat="46.81542" lon="4.88082">
        <ele>179.60059</ele>
        <time>2026-05-14T12:00:36+02:00</time>
      </trkpt>
      <trkpt lat="46.81537" lon="4.88084">
        <ele>179.60059</ele>
        <time>2026-05-14T12:00:37+02:00</time>
      </trkpt>
      <trkpt lat="46.81532" lon="4.88088">
        <ele>179.40039</ele>
        <time>2026-05-14T12:00:38+02:00</time>
      </trkpt>
      <trkpt lat="46.81526" lon="4.8809">
        <ele>179.2998</ele>
        <time>2026-05-14T12:00:39+02:00</time>
      </trkpt>
      <trkpt lat="46.81521" lon="4.88093">
        <ele>179.2002</ele>
        <time>2026-05-14T12:00:40+02:00</time>
      </trkpt>
      <trkpt lat="46.81516" lon="4.88096">
        <ele>179.10059</ele>
        <time>2026-05-14T12:00:41+02:00</time>
      </trkpt>
      <trkpt lat="46.8151" lon="4.88098">
        <ele>179.10059</ele>
        <time>2026-05-14T12:00:42+02:00</time>
      </trkpt>
      <trkpt lat="46.81505" lon="4.881">
        <ele>179</ele>
        <time>2026-05-14T12:00:43+02:00</time>
      </trkpt>
      <trkpt lat="46.815" lon="4.88103">
        <ele>178.7998</ele>
        <time>2026-05-14T12:00:44+02:00</time>
      </trkpt>
      <trkpt lat="46.81495" lon="4.88105">
        <ele>178.7002</ele>
        <time>2026-05-14T12:00:45+02:00</time>
      </trkpt>
      <trkpt lat="46.8149" lon="4.88107">
        <ele>178.60059</ele>
        <time>2026-05-14T12:00:46+02:00</time>
      </trkpt>
      <trkpt lat="46.81485" lon="4.88109">
        <ele>178.5</ele>
        <time>2026-05-14T12:00:47+02:00</time>
      </trkpt>
      <trkpt lat="46.8148" lon="4.88111">
        <ele>178.2998</ele>
        <time>2026-05-14T12:00:48+02:00</time>
      </trkpt>
      <trkpt lat="46.81476" lon="4.88113">
        <ele>178.2998</ele>
        <time>2026-05-14T12:00:49+02:00</time>
      </trkpt>
      <trkpt lat="46.81471" lon="4.88116">
        <ele>178.10059</ele>
        <time>2026-05-14T12:00:50+02:00</time>
      </trkpt>
      <trkpt lat="46.81469" lon="4.88117">
        <ele>178.10059</ele>
        <time>2026-05-14T12:00:51+02:00</time>
      </trkpt>
      <trkpt lat="46.81463" lon="4.88122">
        <ele>177.7998</ele>
        <time>2026-05-14T12:00:52+02:00</time>
      </trkpt>
      <trkpt lat="46.81459" lon="4.88127">
        <ele>177.7998</ele>
        <time>2026-05-14T12:00:53+02:00</time>
      </trkpt>
      <trkpt lat="46.81456" lon="4.88132">
        <ele>177.7002</ele>
        <time>2026-05-14T12:00:54+02:00</time>
      </trkpt>
      <trkpt lat="46.81453" lon="4.88138">
        <ele>177.7002</ele>
        <time>2026-05-14T12:00:55+02:00</time>
      </trkpt>
      <trkpt lat="46.81451" lon="4.88144">
        <ele>177.60059</ele>
        <time>2026-05-14T12:00:56+02:00</time>
      </trkpt>
      <trkpt lat="46.81448" lon="4.8815">
        <ele>177.5</ele>
        <time>2026-05-14T12:00:57+02:00</time>
      </trkpt>
      <trkpt lat="46.81444" lon="4.88154">
        <ele>177.40039</ele>
        <time>2026-05-14T12:00:58+02:00</time>
      </trkpt>
      <trkpt lat="46.8144" lon="4.88158">
        <ele>177.40039</ele>
        <time>2026-05-14T12:00:59+02:00</time>
      </trkpt>
      <trkpt lat="46.81436" lon="4.88162">
        <ele>177.40039</ele>
        <time>2026-05-14T12:01:00+02:00</time>
      </trkpt>
      <trkpt lat="46.81432" lon="4.88167">
        <ele>177.2998</ele>
        <time>2026-05-14T12:01:01+02:00</time>
      </trkpt>
      <trkpt lat="46.8143" lon="4.88173">
        <ele>177.2998</ele>
        <time>2026-05-14T12:01:02+02:00</time>
      </trkpt>
      <trkpt lat="46.8143" lon="4.88179">
        <ele>177.2998</ele>
        <time>2026-05-14T12:01:03+02:00</time>
      </trkpt>
      <trkpt lat="46.8143" lon="4.88186">
        <ele>177.2998</ele>
        <time>2026-05-14T12:01:04+02:00</time>
      </trkpt>
      <trkpt lat="46.81431" lon="4.88194">
        <ele>177.2998</ele>
        <time>2026-05-14T12:01:05+02:00</time>
      </trkpt>
      <trkpt lat="46.81431" lon="4.88201">
        <ele>177.2998</ele>
        <time>2026-05-14T12:01:06+02:00</time>
      </trkpt>
      <trkpt lat="46.81432" lon="4.88213">
        <ele>177.40039</ele>
        <time>2026-05-14T12:01:07+02:00</time>
      </trkpt>
      <trkpt lat="46.81432" lon="4.88213">
        <ele>177.40039</ele>
        <time>2026-05-14T12:01:08+02:00</time>
      </trkpt>
      <trkpt lat="46.81434" lon="4.88225">
        <ele>177.5</ele>
        <time>2026-05-14T12:01:09+02:00</time>
      </trkpt>
      <trkpt lat="46.81436" lon="4.88233">
        <ele>177.60059</ele>
        <time>2026-05-14T12:01:10+02:00</time>
      </trkpt>
      <trkpt lat="46.81438" lon="4.88241">
        <ele>177.60059</ele>
        <time>2026-05-14T12:01:11+02:00</time>
      </trkpt>
      <trkpt lat="46.8144" lon="4.88248">
        <ele>177.7998</ele>
        <time>2026-05-14T12:01:12+02:00</time>
      </trkpt>
      <trkpt lat="46.81443" lon="4.88255">
        <ele>177.7998</ele>
        <time>2026-05-14T12:01:13+02:00</time>
      </trkpt>
      <trkpt lat="46.81445" lon="4.88263">
        <ele>177.90039</ele>
        <time>2026-05-14T12:01:14+02:00</time>
      </trkpt>
      <trkpt lat="46.81447" lon="4.8827">
        <ele>178.10059</ele>
        <time>2026-05-14T12:01:15+02:00</time>
      </trkpt>
      <trkpt lat="46.81449" lon="4.88278">
        <ele>178.2002</ele>
        <time>2026-05-14T12:01:16+02:00</time>
      </trkpt>
      <trkpt lat="46.8145" lon="4.88285">
        <ele>178.2998</ele>
        <time>2026-05-14T12:01:17+02:00</time>
      </trkpt>
      <trkpt lat="46.81452" lon="4.88292">
        <ele>178.5</ele>
        <time>2026-05-14T12:01:18+02:00</time>
      </trkpt>
      <trkpt lat="46.81454" lon="4.88299">
        <ele>178.5</ele>
        <time>2026-05-14T12:01:19+02:00</time>
      </trkpt>
      <trkpt lat="46.81457" lon="4.88309">
        <ele>178.7998</ele>
        <time>2026-05-14T12:01:20+02:00</time>
      </trkpt>
      <trkpt lat="46.81457" lon="4.88309">
        <ele>178.7998</ele>
        <time>2026-05-14T12:01:21+02:00</time>
      </trkpt>
      <trkpt lat="46.81459" lon="4.88319">
        <ele>178.90039</ele>
        <time>2026-05-14T12:01:22+02:00</time>
      </trkpt>
      <trkpt lat="46.8146" lon="4.88325">
        <ele>178.90039</ele>
        <time>2026-05-14T12:01:23+02:00</time>
      </trkpt>
      <trkpt lat="46.81462" lon="4.88332">
        <ele>179</ele>
        <time>2026-05-14T12:01:24+02:00</time>
      </trkpt>
      <trkpt lat="46.81463" lon="4.88337">
        <ele>179.10059</ele>
        <time>2026-05-14T12:01:25+02:00</time>
      </trkpt>
      <trkpt lat="46.81464" lon="4.88342">
        <ele>179.2002</ele>
        <time>2026-05-14T12:01:26+02:00</time>
      </trkpt>
      <trkpt lat="46.81463" lon="4.88346">
        <ele>179.2002</ele>
        <time>2026-05-14T12:01:27+02:00</time>
      </trkpt>
      <trkpt lat="46.81461" lon="4.8835">
        <ele>179.2002</ele>
        <time>2026-05-14T12:01:28+02:00</time>
      </trkpt>
      <trkpt lat="46.81458" lon="4.88351">
        <ele>179.2998</ele>
        <time>2026-05-14T12:01:29+02:00</time>
      </trkpt>
      <trkpt lat="46.81455" lon="4.88353">
        <ele>179.10059</ele>
        <time>2026-05-14T12:01:30+02:00</time>
      </trkpt>
      <trkpt lat="46.8145" lon="4.88354">
        <ele>179</ele>
        <time>2026-05-14T12:01:31+02:00</time>
      </trkpt>
      <trkpt lat="46.81445" lon="4.88356">
        <ele>178.90039</ele>
        <time>2026-05-14T12:01:32+02:00</time>
      </trkpt>
      <trkpt lat="46.8144" lon="4.88357">
        <ele>178.90039</ele>
        <time>2026-05-14T12:01:33+02:00</time>
      </trkpt>
      <trkpt lat="46.81436" lon="4.88358">
        <ele>178.7998</ele>
        <time>2026-05-14T12:01:34+02:00</time>
      </trkpt>
      <trkpt lat="46.8143" lon="4.88359">
        <ele>178.7002</ele>
        <time>2026-05-14T12:01:35+02:00</time>
      </trkpt>
      <trkpt lat="46.81424" lon="4.8836">
        <ele>178.7002</ele>
        <time>2026-05-14T12:01:36+02:00</time>
      </trkpt>
      <trkpt lat="46.81419" lon="4.88362">
        <ele>178.60059</ele>
        <time>2026-05-14T12:01:37+02:00</time>
      </trkpt>
      <trkpt lat="46.81413" lon="4.88364">
        <ele>178.5</ele>
        <time>2026-05-14T12:01:38+02:00</time>
      </trkpt>
      <trkpt lat="46.81407" lon="4.88366">
        <ele>178.5</ele>
        <time>2026-05-14T12:01:39+02:00</time>
      </trkpt>
      <trkpt lat="46.81401" lon="4.88368">
        <ele>178.40039</ele>
        <time>2026-05-14T12:01:40+02:00</time>
      </trkpt>
      <trkpt lat="46.81395" lon="4.8837">
        <ele>178.40039</ele>
        <time>2026-05-14T12:01:41+02:00</time>
      </trkpt>
      <trkpt lat="46.81389" lon="4.88373">
        <ele>178.40039</ele>
        <time>2026-05-14T12:01:42+02:00</time>
      </trkpt>
      <trkpt lat="46.81384" lon="4.88376">
        <ele>178.40039</ele>
        <time>2026-05-14T12:01:43+02:00</time>
      </trkpt>
      <trkpt lat="46.81379" lon="4.8838">
        <ele>178.40039</ele>
        <time>2026-05-14T12:01:44+02:00</time>
      </trkpt>
      <trkpt lat="46.81374" lon="4.88385">
        <ele>178.2998</ele>
        <time>2026-05-14T12:01:45+02:00</time>
      </trkpt>
      <trkpt lat="46.8137" lon="4.8839">
        <ele>178.40039</ele>
        <time>2026-05-14T12:01:46+02:00</time>
      </trkpt>
      <trkpt lat="46.81365" lon="4.88395">
        <ele>178.2998</ele>
        <time>2026-05-14T12:01:47+02:00</time>
      </trkpt>
      <trkpt lat="46.8136" lon="4.88401">
        <ele>178.2998</ele>
        <time>2026-05-14T12:01:48+02:00</time>
      </trkpt>
      <trkpt lat="46.81357" lon="4.88407">
        <ele>178.2002</ele>
        <time>2026-05-14T12:01:49+02:00</time>
      </trkpt>
      <trkpt lat="46.8135" lon="4.88415">
        <ele>178.10059</ele>
        <time>2026-05-14T12:01:50+02:00</time>
      </trkpt>
      <trkpt lat="46.81348" lon="4.88417">
        <ele>178.10059</ele>
        <time>2026-05-14T12:01:51+02:00</time>
      </trkpt>
      <trkpt lat="46.81344" lon="4.88423">
        <ele>177.90039</ele>
        <time>2026-05-14T12:01:52+02:00</time>
      </trkpt>
      <trkpt lat="46.8134" lon="4.88427">
        <ele>177.90039</ele>
        <time>2026-05-14T12:01:53+02:00</time>
      </trkpt>
      <trkpt lat="46.81336" lon="4.88432">
        <ele>177.60059</ele>
        <time>2026-05-14T12:01:54+02:00</time>
      </trkpt>
      <trkpt lat="46.81331" lon="4.88437">
        <ele>177.40039</ele>
        <time>2026-05-14T12:01:55+02:00</time>
      </trkpt>
      <trkpt lat="46.81327" lon="4.88442">
        <ele>177.2998</ele>
        <time>2026-05-14T12:01:56+02:00</time>
      </trkpt>
      <trkpt lat="46.81323" lon="4.88447">
        <ele>177.10059</ele>
        <time>2026-05-14T12:01:57+02:00</time>
      </trkpt>
      <trkpt lat="46.81318" lon="4.88452">
        <ele>177</ele>
        <time>2026-05-14T12:01:58+02:00</time>
      </trkpt>
      <trkpt lat="46.81314" lon="4.88457">
        <ele>176.7002</ele>
        <time>2026-05-14T12:01:59+02:00</time>
      </trkpt>
      <trkpt lat="46.81309" lon="4.88462">
        <ele>176.60059</ele>
        <time>2026-05-14T12:02:00+02:00</time>
      </trkpt>
      <trkpt lat="46.81305" lon="4.88466">
        <ele>176.40039</ele>
        <time>2026-05-14T12:02:01+02:00</time>
      </trkpt>
      <trkpt lat="46.81301" lon="4.88471">
        <ele>176.2998</ele>
        <time>2026-05-14T12:02:02+02:00</time>
      </trkpt>
      <trkpt lat="46.81297" lon="4.88475">
        <ele>176.10059</ele>
        <time>2026-05-14T12:02:03+02:00</time>
      </trkpt>
      <trkpt lat="46.81294" lon="4.88479">
        <ele>176.10059</ele>
        <time>2026-05-14T12:02:04+02:00</time>
      </trkpt>
      <trkpt lat="46.81291" lon="4.88483">
        <ele>175.7998</ele>
        <time>2026-05-14T12:02:05+02:00</time>
      </trkpt>
      <trkpt lat="46.81289" lon="4.88489">
        <ele>175.7002</ele>
        <time>2026-05-14T12:02:06+02:00</time>
      </trkpt>
      <trkpt lat="46.81289" lon="4.88495">
        <ele>175.7002</ele>
        <time>2026-05-14T12:02:07+02:00</time>
      </trkpt>
      <trkpt lat="46.81289" lon="4.88502">
        <ele>175.60059</ele>
        <time>2026-05-14T12:02:08+02:00</time>
      </trkpt>
      <trkpt lat="46.81289" lon="4.88509">
        <ele>175.60059</ele>
        <time>2026-05-14T12:02:09+02:00</time>
      </trkpt>
      <trkpt lat="46.8129" lon="4.88516">
        <ele>175.5</ele>
        <time>2026-05-14T12:02:10+02:00</time>
      </trkpt>
      <trkpt lat="46.81291" lon="4.88523">
        <ele>175.5</ele>
        <time>2026-05-14T12:02:11+02:00</time>
      </trkpt>
      <trkpt lat="46.81292" lon="4.88531">
        <ele>175.5</ele>
        <time>2026-05-14T12:02:12+02:00</time>
      </trkpt>
      <trkpt lat="46.81294" lon="4.88538">
        <ele>175.60059</ele>
        <time>2026-05-14T12:02:13+02:00</time>
      </trkpt>
      <trkpt lat="46.81296" lon="4.88546">
        <ele>175.60059</ele>
        <time>2026-05-14T12:02:14+02:00</time>
      </trkpt>
      <trkpt lat="46.81297" lon="4.88553">
        <ele>175.60059</ele>
        <time>2026-05-14T12:02:15+02:00</time>
      </trkpt>
      <trkpt lat="46.813" lon="4.8856">
        <ele>175.7002</ele>
        <time>2026-05-14T12:02:16+02:00</time>
      </trkpt>
      <trkpt lat="46.81301" lon="4.88568">
        <ele>175.60059</ele>
        <time>2026-05-14T12:02:17+02:00</time>
      </trkpt>
      <trkpt lat="46.81304" lon="4.88575">
        <ele>175.60059</ele>
        <time>2026-05-14T12:02:18+02:00</time>
      </trkpt>
      <trkpt lat="46.81305" lon="4.88583">
        <ele>175.60059</ele>
        <time>2026-05-14T12:02:19+02:00</time>
      </trkpt>
      <trkpt lat="46.81309" lon="4.88594">
        <ele>175.60059</ele>
        <time>2026-05-14T12:02:20+02:00</time>
      </trkpt>
      <trkpt lat="46.8131" lon="4.88597">
        <ele>175.60059</ele>
        <time>2026-05-14T12:02:21+02:00</time>
      </trkpt>
      <trkpt lat="46.81312" lon="4.88605">
        <ele>175.60059</ele>
        <time>2026-05-14T12:02:22+02:00</time>
      </trkpt>
      <trkpt lat="46.81315" lon="4.88613">
        <ele>175.5</ele>
        <time>2026-05-14T12:02:23+02:00</time>
      </trkpt>
      <trkpt lat="46.81316" lon="4.88617">
        <ele>175.40039</ele>
        <time>2026-05-14T12:02:24+02:00</time>
      </trkpt>
      <trkpt lat="46.8132" lon="4.88628">
        <ele>175.40039</ele>
        <time>2026-05-14T12:02:25+02:00</time>
      </trkpt>
      <trkpt lat="46.81322" lon="4.88635">
        <ele>175.40039</ele>
        <time>2026-05-14T12:02:26+02:00</time>
      </trkpt>
      <trkpt lat="46.81325" lon="4.88642">
        <ele>175.40039</ele>
        <time>2026-05-14T12:02:27+02:00</time>
      </trkpt>
      <trkpt lat="46.81328" lon="4.8865">
        <ele>175.2998</ele>
        <time>2026-05-14T12:02:28+02:00</time>
      </trkpt>
      <trkpt lat="46.8133" lon="4.88658">
        <ele>175.2998</ele>
        <time>2026-05-14T12:02:29+02:00</time>
      </trkpt>
      <trkpt lat="46.81333" lon="4.88666">
        <ele>175.2002</ele>
        <time>2026-05-14T12:02:30+02:00</time>
      </trkpt>
      <trkpt lat="46.81336" lon="4.88674">
        <ele>175.2002</ele>
        <time>2026-05-14T12:02:31+02:00</time>
      </trkpt>
      <trkpt lat="46.81339" lon="4.88681">
        <ele>175.2002</ele>
        <time>2026-05-14T12:02:32+02:00</time>
      </trkpt>
      <trkpt lat="46.81342" lon="4.88689">
        <ele>175.2998</ele>
        <time>2026-05-14T12:02:33+02:00</time>
      </trkpt>
      <trkpt lat="46.81346" lon="4.88696">
        <ele>175.40039</ele>
        <time>2026-05-14T12:02:34+02:00</time>
      </trkpt>
      <trkpt lat="46.8135" lon="4.88702">
        <ele>175.40039</ele>
        <time>2026-05-14T12:02:35+02:00</time>
      </trkpt>
      <trkpt lat="46.81354" lon="4.88708">
        <ele>175.5</ele>
        <time>2026-05-14T12:02:36+02:00</time>
      </trkpt>
      <trkpt lat="46.81358" lon="4.88713">
        <ele>175.60059</ele>
        <time>2026-05-14T12:02:37+02:00</time>
      </trkpt>
      <trkpt lat="46.81362" lon="4.88718">
        <ele>175.60059</ele>
        <time>2026-05-14T12:02:38+02:00</time>
      </trkpt>
      <trkpt lat="46.81366" lon="4.88724">
        <ele>175.7998</ele>
        <time>2026-05-14T12:02:39+02:00</time>
      </trkpt>
      <trkpt lat="46.8137" lon="4.88729">
        <ele>175.90039</ele>
        <time>2026-05-14T12:02:40+02:00</time>
      </trkpt>
      <trkpt lat="46.81374" lon="4.88735">
        <ele>175.90039</ele>
        <time>2026-05-14T12:02:41+02:00</time>
      </trkpt>
      <trkpt lat="46.81378" lon="4.88741">
        <ele>176.10059</ele>
        <time>2026-05-14T12:02:42+02:00</time>
      </trkpt>
      <trkpt lat="46.81382" lon="4.88746">
        <ele>176.2002</ele>
        <time>2026-05-14T12:02:43+02:00</time>
      </trkpt>
      <trkpt lat="46.81386" lon="4.88752">
        <ele>176.2002</ele>
        <time>2026-05-14T12:02:44+02:00</time>
      </trkpt>
      <trkpt lat="46.8139" lon="4.88757">
        <ele>176.2998</ele>
        <time>2026-05-14T12:02:45+02:00</time>
      </trkpt>
      <trkpt lat="46.81394" lon="4.88763">
        <ele>176.40039</ele>
        <time>2026-05-14T12:02:46+02:00</time>
      </trkpt>
      <trkpt lat="46.814" lon="4.88772">
        <ele>176.40039</ele>
        <time>2026-05-14T12:02:47+02:00</time>
      </trkpt>
      <trkpt lat="46.814" lon="4.88772">
        <ele>176.40039</ele>
        <time>2026-05-14T12:02:48+02:00</time>
      </trkpt>
      <trkpt lat="46.81407" lon="4.88781">
        <ele>176.40039</ele>
        <time>2026-05-14T12:02:49+02:00</time>
      </trkpt>
      <trkpt lat="46.81411" lon="4.88786">
        <ele>176.5</ele>
        <time>2026-05-14T12:02:50+02:00</time>
      </trkpt>
      <trkpt lat="46.81416" lon="4.88792">
        <ele>176.5</ele>
        <time>2026-05-14T12:02:51+02:00</time>
      </trkpt>
      <trkpt lat="46.8142" lon="4.88798">
        <ele>176.5</ele>
        <time>2026-05-14T12:02:52+02:00</time>
      </trkpt>
      <trkpt lat="46.81424" lon="4.88804">
        <ele>176.5</ele>
        <time>2026-05-14T12:02:53+02:00</time>
      </trkpt>
      <trkpt lat="46.81429" lon="4.8881">
        <ele>176.60059</ele>
        <time>2026-05-14T12:02:54+02:00</time>
      </trkpt>
      <trkpt lat="46.81433" lon="4.88815">
        <ele>176.5</ele>
        <time>2026-05-14T12:02:55+02:00</time>
      </trkpt>
      <trkpt lat="46.81437" lon="4.88821">
        <ele>176.60059</ele>
        <time>2026-05-14T12:02:56+02:00</time>
      </trkpt>
      <trkpt lat="46.81442" lon="4.88827">
        <ele>176.7002</ele>
        <time>2026-05-14T12:02:57+02:00</time>
      </trkpt>
      <trkpt lat="46.81445" lon="4.88832">
        <ele>176.7002</ele>
        <time>2026-05-14T12:02:58+02:00</time>
      </trkpt>
      <trkpt lat="46.81449" lon="4.88838">
        <ele>176.7998</ele>
        <time>2026-05-14T12:02:59+02:00</time>
      </trkpt>
      <trkpt lat="46.81452" lon="4.88844">
        <ele>176.90039</ele>
        <time>2026-05-14T12:03:00+02:00</time>
      </trkpt>
      <trkpt lat="46.81455" lon="4.8885">
        <ele>176.90039</ele>
        <time>2026-05-14T12:03:01+02:00</time>
      </trkpt>
      <trkpt lat="46.81456" lon="4.88856">
        <ele>176.90039</ele>
        <time>2026-05-14T12:03:02+02:00</time>
      </trkpt>
      <trkpt lat="46.81457" lon="4.88863">
        <ele>177</ele>
        <time>2026-05-14T12:03:03+02:00</time>
      </trkpt>
      <trkpt lat="46.81456" lon="4.8887">
        <ele>176.7998</ele>
        <time>2026-05-14T12:03:04+02:00</time>
      </trkpt>
      <trkpt lat="46.81456" lon="4.88878">
        <ele>176.7002</ele>
        <time>2026-05-14T12:03:05+02:00</time>
      </trkpt>
      <trkpt lat="46.81455" lon="4.88886">
        <ele>176.7002</ele>
        <time>2026-05-14T12:03:06+02:00</time>
      </trkpt>
      <trkpt lat="46.81455" lon="4.88894">
        <ele>176.60059</ele>
        <time>2026-05-14T12:03:07+02:00</time>
      </trkpt>
      <trkpt lat="46.81456" lon="4.88906">
        <ele>176.60059</ele>
        <time>2026-05-14T12:03:08+02:00</time>
      </trkpt>
      <trkpt lat="46.81456" lon="4.8891">
        <ele>176.60059</ele>
        <time>2026-05-14T12:03:09+02:00</time>
      </trkpt>
      <trkpt lat="46.81458" lon="4.88918">
        <ele>176.7998</ele>
        <time>2026-05-14T12:03:10+02:00</time>
      </trkpt>
      <trkpt lat="46.8146" lon="4.88926">
        <ele>176.90039</ele>
        <time>2026-05-14T12:03:11+02:00</time>
      </trkpt>
      <trkpt lat="46.81462" lon="4.88935">
        <ele>176.90039</ele>
        <time>2026-05-14T12:03:12+02:00</time>
      </trkpt>
      <trkpt lat="46.81465" lon="4.88943">
        <ele>177.2002</ele>
        <time>2026-05-14T12:03:13+02:00</time>
      </trkpt>
      <trkpt lat="46.81468" lon="4.88951">
        <ele>177.2998</ele>
        <time>2026-05-14T12:03:14+02:00</time>
      </trkpt>
      <trkpt lat="46.8147" lon="4.88959">
        <ele>177.60059</ele>
        <time>2026-05-14T12:03:15+02:00</time>
      </trkpt>
      <trkpt lat="46.81473" lon="4.88967">
        <ele>177.7002</ele>
        <time>2026-05-14T12:03:16+02:00</time>
      </trkpt>
      <trkpt lat="46.81476" lon="4.88975">
        <ele>177.90039</ele>
        <time>2026-05-14T12:03:17+02:00</time>
      </trkpt>
      <trkpt lat="46.8148" lon="4.88987">
        <ele>177.90039</ele>
        <time>2026-05-14T12:03:18+02:00</time>
      </trkpt>
      <trkpt lat="46.8148" lon="4.88987">
        <ele>177.90039</ele>
        <time>2026-05-14T12:03:19+02:00</time>
      </trkpt>
      <trkpt lat="46.81484" lon="4.89">
        <ele>178</ele>
        <time>2026-05-14T12:03:20+02:00</time>
      </trkpt>
      <trkpt lat="46.81486" lon="4.89007">
        <ele>177.90039</ele>
        <time>2026-05-14T12:03:21+02:00</time>
      </trkpt>
      <trkpt lat="46.81487" lon="4.89011">
        <ele>178</ele>
        <time>2026-05-14T12:03:22+02:00</time>
      </trkpt>
      <trkpt lat="46.81492" lon="4.89023">
        <ele>177.60059</ele>
        <time>2026-05-14T12:03:23+02:00</time>
      </trkpt>
      <trkpt lat="46.81494" lon="4.89031">
        <ele>177.40039</ele>
        <time>2026-05-14T12:03:24+02:00</time>
      </trkpt>
      <trkpt lat="46.81498" lon="4.89043">
        <ele>177.10059</ele>
        <time>2026-05-14T12:03:25+02:00</time>
      </trkpt>
      <trkpt lat="46.81499" lon="4.89047">
        <ele>176.7998</ele>
        <time>2026-05-14T12:03:26+02:00</time>
      </trkpt>
      <trkpt lat="46.81501" lon="4.89055">
        <ele>176.60059</ele>
        <time>2026-05-14T12:03:27+02:00</time>
      </trkpt>
      <trkpt lat="46.81504" lon="4.89063">
        <ele>176.60059</ele>
        <time>2026-05-14T12:03:28+02:00</time>
      </trkpt>
      <trkpt lat="46.81507" lon="4.89071">
        <ele>176.40039</ele>
        <time>2026-05-14T12:03:29+02:00</time>
      </trkpt>
      <trkpt lat="46.8151" lon="4.89079">
        <ele>176.2998</ele>
        <time>2026-05-14T12:03:30+02:00</time>
      </trkpt>
      <trkpt lat="46.81512" lon="4.89088">
        <ele>176.10059</ele>
        <time>2026-05-14T12:03:31+02:00</time>
      </trkpt>
      <trkpt lat="46.81515" lon="4.89096">
        <ele>176.10059</ele>
        <time>2026-05-14T12:03:32+02:00</time>
      </trkpt>
      <trkpt lat="46.81518" lon="4.89104">
        <ele>176</ele>
        <time>2026-05-14T12:03:33+02:00</time>
      </trkpt>
      <trkpt lat="46.8152" lon="4.89112">
        <ele>176</ele>
        <time>2026-05-14T12:03:34+02:00</time>
      </trkpt>
      <trkpt lat="46.81523" lon="4.8912">
        <ele>176</ele>
        <time>2026-05-14T12:03:35+02:00</time>
      </trkpt>
      <trkpt lat="46.81526" lon="4.89128">
        <ele>176</ele>
        <time>2026-05-14T12:03:36+02:00</time>
      </trkpt>
      <trkpt lat="46.81529" lon="4.89135">
        <ele>176</ele>
        <time>2026-05-14T12:03:37+02:00</time>
      </trkpt>
      <trkpt lat="46.81531" lon="4.89143">
        <ele>176</ele>
        <time>2026-05-14T12:03:38+02:00</time>
      </trkpt>
      <trkpt lat="46.81531" lon="4.89152">
        <ele>176</ele>
        <time>2026-05-14T12:03:39+02:00</time>
      </trkpt>
      <trkpt lat="46.81531" lon="4.8916">
        <ele>176</ele>
        <time>2026-05-14T12:03:40+02:00</time>
      </trkpt>
      <trkpt lat="46.8153" lon="4.89169">
        <ele>176</ele>
        <time>2026-05-14T12:03:41+02:00</time>
      </trkpt>
      <trkpt lat="46.81527" lon="4.89182">
        <ele>176</ele>
        <time>2026-05-14T12:03:42+02:00</time>
      </trkpt>
      <trkpt lat="46.81526" lon="4.89186">
        <ele>175.90039</ele>
        <time>2026-05-14T12:03:43+02:00</time>
      </trkpt>
      <trkpt lat="46.81524" lon="4.89195">
        <ele>175.90039</ele>
        <time>2026-05-14T12:03:44+02:00</time>
      </trkpt>
      <trkpt lat="46.81521" lon="4.89203">
        <ele>175.7998</ele>
        <time>2026-05-14T12:03:45+02:00</time>
      </trkpt>
      <trkpt lat="46.81518" lon="4.89212">
        <ele>175.7002</ele>
        <time>2026-05-14T12:03:46+02:00</time>
      </trkpt>
      <trkpt lat="46.81516" lon="4.89221">
        <ele>175.7002</ele>
        <time>2026-05-14T12:03:47+02:00</time>
      </trkpt>
      <trkpt lat="46.81513" lon="4.8923">
        <ele>175.60059</ele>
        <time>2026-05-14T12:03:48+02:00</time>
      </trkpt>
      <trkpt lat="46.8151" lon="4.89238">
        <ele>175.5</ele>
        <time>2026-05-14T12:03:49+02:00</time>
      </trkpt>
      <trkpt lat="46.81508" lon="4.89247">
        <ele>175.40039</ele>
        <time>2026-05-14T12:03:50+02:00</time>
      </trkpt>
      <trkpt lat="46.81505" lon="4.89256">
        <ele>175.40039</ele>
        <time>2026-05-14T12:03:51+02:00</time>
      </trkpt>
      <trkpt lat="46.81502" lon="4.89269">
        <ele>175.2998</ele>
        <time>2026-05-14T12:03:52+02:00</time>
      </trkpt>
      <trkpt lat="46.81501" lon="4.89274">
        <ele>175.2002</ele>
        <time>2026-05-14T12:03:53+02:00</time>
      </trkpt>
      <trkpt lat="46.81499" lon="4.89283">
        <ele>175.2002</ele>
        <time>2026-05-14T12:03:54+02:00</time>
      </trkpt>
      <trkpt lat="46.81498" lon="4.89293">
        <ele>175.10059</ele>
        <time>2026-05-14T12:03:55+02:00</time>
      </trkpt>
      <trkpt lat="46.81497" lon="4.89302">
        <ele>175.10059</ele>
        <time>2026-05-14T12:03:56+02:00</time>
      </trkpt>
      <trkpt lat="46.81496" lon="4.89312">
        <ele>175.10059</ele>
        <time>2026-05-14T12:03:57+02:00</time>
      </trkpt>
      <trkpt lat="46.81495" lon="4.89322">
        <ele>175.2002</ele>
        <time>2026-05-14T12:03:58+02:00</time>
      </trkpt>
      <trkpt lat="46.81494" lon="4.89332">
        <ele>175.2002</ele>
        <time>2026-05-14T12:03:59+02:00</time>
      </trkpt>
      <trkpt lat="46.81494" lon="4.89342">
        <ele>175.2998</ele>
        <time>2026-05-14T12:04:00+02:00</time>
      </trkpt>
      <trkpt lat="46.81493" lon="4.89352">
        <ele>175.2998</ele>
        <time>2026-05-14T12:04:01+02:00</time>
      </trkpt>
      <trkpt lat="46.81492" lon="4.89362">
        <ele>175.2998</ele>
        <time>2026-05-14T12:04:02+02:00</time>
      </trkpt>
      <trkpt lat="46.81492" lon="4.89372">
        <ele>175.40039</ele>
        <time>2026-05-14T12:04:03+02:00</time>
      </trkpt>
      <trkpt lat="46.81491" lon="4.89381">
        <ele>175.5</ele>
        <time>2026-05-14T12:04:04+02:00</time>
      </trkpt>
      <trkpt lat="46.81491" lon="4.89392">
        <ele>175.60059</ele>
        <time>2026-05-14T12:04:05+02:00</time>
      </trkpt>
      <trkpt lat="46.81491" lon="4.89401">
        <ele>175.7002</ele>
        <time>2026-05-14T12:04:06+02:00</time>
      </trkpt>
      <trkpt lat="46.81491" lon="4.89411">
        <ele>175.7002</ele>
        <time>2026-05-14T12:04:07+02:00</time>
      </trkpt>
      <trkpt lat="46.81492" lon="4.89421">
        <ele>175.7002</ele>
        <time>2026-05-14T12:04:08+02:00</time>
      </trkpt>
      <trkpt lat="46.81492" lon="4.8943">
        <ele>175.7998</ele>
        <time>2026-05-14T12:04:09+02:00</time>
      </trkpt>
      <trkpt lat="46.81492" lon="4.8944">
        <ele>175.7998</ele>
        <time>2026-05-14T12:04:10+02:00</time>
      </trkpt>
      <trkpt lat="46.81493" lon="4.89445">
        <ele>175.90039</ele>
        <time>2026-05-14T12:04:11+02:00</time>
      </trkpt>
      <trkpt lat="46.81493" lon="4.8946">
        <ele>175.90039</ele>
        <time>2026-05-14T12:04:12+02:00</time>
      </trkpt>
      <trkpt lat="46.81493" lon="4.89469">
        <ele>175.90039</ele>
        <time>2026-05-14T12:04:13+02:00</time>
      </trkpt>
      <trkpt lat="46.81492" lon="4.89479">
        <ele>175.7998</ele>
        <time>2026-05-14T12:04:14+02:00</time>
      </trkpt>
      <trkpt lat="46.81491" lon="4.89489">
        <ele>175.7998</ele>
        <time>2026-05-14T12:04:15+02:00</time>
      </trkpt>
      <trkpt lat="46.8149" lon="4.89499">
        <ele>175.7002</ele>
        <time>2026-05-14T12:04:16+02:00</time>
      </trkpt>
      <trkpt lat="46.81489" lon="4.89508">
        <ele>175.7002</ele>
        <time>2026-05-14T12:04:17+02:00</time>
      </trkpt>
      <trkpt lat="46.81488" lon="4.89518">
        <ele>175.7002</ele>
        <time>2026-05-14T12:04:18+02:00</time>
      </trkpt>
      <trkpt lat="46.81487" lon="4.89528">
        <ele>175.7002</ele>
        <time>2026-05-14T12:04:19+02:00</time>
      </trkpt>
      <trkpt lat="46.81486" lon="4.89537">
        <ele>175.7002</ele>
        <time>2026-05-14T12:04:20+02:00</time>
      </trkpt>
      <trkpt lat="46.81485" lon="4.89547">
        <ele>175.7002</ele>
        <time>2026-05-14T12:04:21+02:00</time>
      </trkpt>
      <trkpt lat="46.81484" lon="4.89556">
        <ele>175.7002</ele>
        <time>2026-05-14T12:04:22+02:00</time>
      </trkpt>
      <trkpt lat="46.81482" lon="4.89566">
        <ele>175.7002</ele>
        <time>2026-05-14T12:04:23+02:00</time>
      </trkpt>
      <trkpt lat="46.81481" lon="4.89576">
        <ele>175.7002</ele>
        <time>2026-05-14T12:04:24+02:00</time>
      </trkpt>
      <trkpt lat="46.8148" lon="4.89585">
        <ele>175.60059</ele>
        <time>2026-05-14T12:04:25+02:00</time>
      </trkpt>
      <trkpt lat="46.81478" lon="4.89595">
        <ele>175.7002</ele>
        <time>2026-05-14T12:04:26+02:00</time>
      </trkpt>
      <trkpt lat="46.81477" lon="4.89604">
        <ele>175.7998</ele>
        <time>2026-05-14T12:04:27+02:00</time>
      </trkpt>
      <trkpt lat="46.81476" lon="4.89614">
        <ele>175.90039</ele>
        <time>2026-05-14T12:04:28+02:00</time>
      </trkpt>
      <trkpt lat="46.81474" lon="4.89628">
        <ele>175.90039</ele>
        <time>2026-05-14T12:04:29+02:00</time>
      </trkpt>
      <trkpt lat="46.81474" lon="4.89628">
        <ele>175.90039</ele>
        <time>2026-05-14T12:04:30+02:00</time>
      </trkpt>
      <trkpt lat="46.81472" lon="4.89642">
        <ele>176.10059</ele>
        <time>2026-05-14T12:04:31+02:00</time>
      </trkpt>
      <trkpt lat="46.81471" lon="4.89651">
        <ele>176.2002</ele>
        <time>2026-05-14T12:04:32+02:00</time>
      </trkpt>
      <trkpt lat="46.81469" lon="4.89659">
        <ele>176.2998</ele>
        <time>2026-05-14T12:04:33+02:00</time>
      </trkpt>
      <trkpt lat="46.81467" lon="4.89667">
        <ele>176.2002</ele>
        <time>2026-05-14T12:04:34+02:00</time>
      </trkpt>
      <trkpt lat="46.81466" lon="4.89675">
        <ele>176.40039</ele>
        <time>2026-05-14T12:04:35+02:00</time>
      </trkpt>
      <trkpt lat="46.81465" lon="4.89683">
        <ele>176.5</ele>
        <time>2026-05-14T12:04:36+02:00</time>
      </trkpt>
      <trkpt lat="46.81464" lon="4.89691">
        <ele>176.60059</ele>
        <time>2026-05-14T12:04:37+02:00</time>
      </trkpt>
      <trkpt lat="46.81463" lon="4.89699">
        <ele>176.5</ele>
        <time>2026-05-14T12:04:38+02:00</time>
      </trkpt>
      <trkpt lat="46.81461" lon="4.89712">
        <ele>176.7002</ele>
        <time>2026-05-14T12:04:39+02:00</time>
      </trkpt>
      <trkpt lat="46.81461" lon="4.89712">
        <ele>176.7002</ele>
        <time>2026-05-14T12:04:40+02:00</time>
      </trkpt>
      <trkpt lat="46.81459" lon="4.89724">
        <ele>176.7998</ele>
        <time>2026-05-14T12:04:41+02:00</time>
      </trkpt>
      <trkpt lat="46.81457" lon="4.89732">
        <ele>176.90039</ele>
        <time>2026-05-14T12:04:42+02:00</time>
      </trkpt>
      <trkpt lat="46.81456" lon="4.89741">
        <ele>176.7002</ele>
        <time>2026-05-14T12:04:43+02:00</time>
      </trkpt>
      <trkpt lat="46.81455" lon="4.89749">
        <ele>176.7998</ele>
        <time>2026-05-14T12:04:44+02:00</time>
      </trkpt>
      <trkpt lat="46.81453" lon="4.89758">
        <ele>176.7002</ele>
        <time>2026-05-14T12:04:45+02:00</time>
      </trkpt>
      <trkpt lat="46.81452" lon="4.89766">
        <ele>176.60059</ele>
        <time>2026-05-14T12:04:46+02:00</time>
      </trkpt>
      <trkpt lat="46.8145" lon="4.89774">
        <ele>176.2002</ele>
        <time>2026-05-14T12:04:47+02:00</time>
      </trkpt>
      <trkpt lat="46.81448" lon="4.89782">
        <ele>176.10059</ele>
        <time>2026-05-14T12:04:48+02:00</time>
      </trkpt>
      <trkpt lat="46.81447" lon="4.8979">
        <ele>175.90039</ele>
        <time>2026-05-14T12:04:49+02:00</time>
      </trkpt>
      <trkpt lat="46.81447" lon="4.89799">
        <ele>175.7998</ele>
        <time>2026-05-14T12:04:50+02:00</time>
      </trkpt>
      <trkpt lat="46.81445" lon="4.89807">
        <ele>175.60059</ele>
        <time>2026-05-14T12:04:51+02:00</time>
      </trkpt>
      <trkpt lat="46.81444" lon="4.89815">
        <ele>175.60059</ele>
        <time>2026-05-14T12:04:52+02:00</time>
      </trkpt>
      <trkpt lat="46.81444" lon="4.89823">
        <ele>175.5</ele>
        <time>2026-05-14T12:04:53+02:00</time>
      </trkpt>
      <trkpt lat="46.81443" lon="4.89831">
        <ele>175.5</ele>
        <time>2026-05-14T12:04:54+02:00</time>
      </trkpt>
      <trkpt lat="46.81442" lon="4.8984">
        <ele>175.40039</ele>
        <time>2026-05-14T12:04:55+02:00</time>
      </trkpt>
      <trkpt lat="46.8144" lon="4.89853">
        <ele>175.40039</ele>
        <time>2026-05-14T12:04:56+02:00</time>
      </trkpt>
      <trkpt lat="46.81439" lon="4.89857">
        <ele>175.2998</ele>
        <time>2026-05-14T12:04:57+02:00</time>
      </trkpt>
      <trkpt lat="46.81438" lon="4.89866">
        <ele>175.2998</ele>
        <time>2026-05-14T12:04:58+02:00</time>
      </trkpt>
      <trkpt lat="46.81438" lon="4.89873">
        <ele>175.2998</ele>
        <time>2026-05-14T12:04:59+02:00</time>
      </trkpt>
      <trkpt lat="46.81439" lon="4.89879">
        <ele>175.2998</ele>
        <time>2026-05-14T12:05:00+02:00</time>
      </trkpt>
      <trkpt lat="46.8144" lon="4.89883">
        <ele>175.40039</ele>
        <time>2026-05-14T12:05:01+02:00</time>
      </trkpt>
      <trkpt lat="46.81442" lon="4.89886">
        <ele>175.40039</ele>
        <time>2026-05-14T12:05:02+02:00</time>
      </trkpt>
      <trkpt lat="46.81447" lon="4.89888">
        <ele>175.40039</ele>
        <time>2026-05-14T12:05:03+02:00</time>
      </trkpt>
      <trkpt lat="46.81448" lon="4.89889">
        <ele>175.40039</ele>
        <time>2026-05-14T12:05:04+02:00</time>
      </trkpt>
      <trkpt lat="46.81451" lon="4.89889">
        <ele>175.40039</ele>
        <time>2026-05-14T12:05:05+02:00</time>
      </trkpt>
      <trkpt lat="46.81455" lon="4.89889">
        <ele>175.5</ele>
        <time>2026-05-14T12:05:06+02:00</time>
      </trkpt>
      <trkpt lat="46.81458" lon="4.89888">
        <ele>175.60059</ele>
        <time>2026-05-14T12:05:07+02:00</time>
      </trkpt>
      <trkpt lat="46.81463" lon="4.89888">
        <ele>175.60059</ele>
        <time>2026-05-14T12:05:08+02:00</time>
      </trkpt>
      <trkpt lat="46.81466" lon="4.89887">
        <ele>175.60059</ele>
        <time>2026-05-14T12:05:09+02:00</time>
      </trkpt>
      <trkpt lat="46.81471" lon="4.89886">
        <ele>175.7002</ele>
        <time>2026-05-14T12:05:10+02:00</time>
      </trkpt>
      <trkpt lat="46.81476" lon="4.89885">
        <ele>175.7998</ele>
        <time>2026-05-14T12:05:11+02:00</time>
      </trkpt>
      <trkpt lat="46.8148" lon="4.89884">
        <ele>175.7998</ele>
        <time>2026-05-14T12:05:12+02:00</time>
      </trkpt>
      <trkpt lat="46.81485" lon="4.89883">
        <ele>175.90039</ele>
        <time>2026-05-14T12:05:13+02:00</time>
      </trkpt>
      <trkpt lat="46.81491" lon="4.89882">
        <ele>176</ele>
        <time>2026-05-14T12:05:14+02:00</time>
      </trkpt>
      <trkpt lat="46.81496" lon="4.89882">
        <ele>176.10059</ele>
        <time>2026-05-14T12:05:15+02:00</time>
      </trkpt>
      <trkpt lat="46.81502" lon="4.89881">
        <ele>176.10059</ele>
        <time>2026-05-14T12:05:16+02:00</time>
      </trkpt>
      <trkpt lat="46.81508" lon="4.8988">
        <ele>176.2002</ele>
        <time>2026-05-14T12:05:17+02:00</time>
      </trkpt>
      <trkpt lat="46.81513" lon="4.89879">
        <ele>176.2998</ele>
        <time>2026-05-14T12:05:18+02:00</time>
      </trkpt>
      <trkpt lat="46.81516" lon="4.89878">
        <ele>176.40039</ele>
        <time>2026-05-14T12:05:19+02:00</time>
      </trkpt>
      <trkpt lat="46.81524" lon="4.89876">
        <ele>176.5</ele>
        <time>2026-05-14T12:05:20+02:00</time>
      </trkpt>
      <trkpt lat="46.8153" lon="4.89874">
        <ele>176.60059</ele>
        <time>2026-05-14T12:05:21+02:00</time>
      </trkpt>
      <trkpt lat="46.81534" lon="4.89873">
        <ele>176.7002</ele>
        <time>2026-05-14T12:05:22+02:00</time>
      </trkpt>
      <trkpt lat="46.81537" lon="4.89875">
        <ele>176.7002</ele>
        <time>2026-05-14T12:05:23+02:00</time>
      </trkpt>
      <trkpt lat="46.81539" lon="4.89879">
        <ele>176.7998</ele>
        <time>2026-05-14T12:05:24+02:00</time>
      </trkpt>
      <trkpt lat="46.8154" lon="4.89884">
        <ele>176.90039</ele>
        <time>2026-05-14T12:05:25+02:00</time>
      </trkpt>
      <trkpt lat="46.81541" lon="4.89889">
        <ele>177</ele>
        <time>2026-05-14T12:05:26+02:00</time>
      </trkpt>
      <trkpt lat="46.81542" lon="4.89896">
        <ele>177.10059</ele>
        <time>2026-05-14T12:05:27+02:00</time>
      </trkpt>
      <trkpt lat="46.81542" lon="4.89902">
        <ele>177.10059</ele>
        <time>2026-05-14T12:05:28+02:00</time>
      </trkpt>
      <trkpt lat="46.81543" lon="4.89909">
        <ele>177.2002</ele>
        <time>2026-05-14T12:05:29+02:00</time>
      </trkpt>
      <trkpt lat="46.81543" lon="4.89916">
        <ele>177.2998</ele>
        <time>2026-05-14T12:05:30+02:00</time>
      </trkpt>
      <trkpt lat="46.81544" lon="4.89928">
        <ele>177.5</ele>
        <time>2026-05-14T12:05:31+02:00</time>
      </trkpt>
      <trkpt lat="46.81545" lon="4.89932">
        <ele>177.60059</ele>
        <time>2026-05-14T12:05:32+02:00</time>
      </trkpt>
      <trkpt lat="46.81545" lon="4.89939">
        <ele>177.7998</ele>
        <time>2026-05-14T12:05:33+02:00</time>
      </trkpt>
      <trkpt lat="46.81546" lon="4.89947">
        <ele>177.90039</ele>
        <time>2026-05-14T12:05:34+02:00</time>
      </trkpt>
      <trkpt lat="46.81547" lon="4.89955">
        <ele>178.10059</ele>
        <time>2026-05-14T12:05:35+02:00</time>
      </trkpt>
      <trkpt lat="46.81547" lon="4.89962">
        <ele>178.2998</ele>
        <time>2026-05-14T12:05:36+02:00</time>
      </trkpt>
      <trkpt lat="46.81547" lon="4.8997">
        <ele>178.40039</ele>
        <time>2026-05-14T12:05:37+02:00</time>
      </trkpt>
      <trkpt lat="46.81547" lon="4.89977">
        <ele>178.60059</ele>
        <time>2026-05-14T12:05:38+02:00</time>
      </trkpt>
      <trkpt lat="46.81548" lon="4.89985">
        <ele>178.7002</ele>
        <time>2026-05-14T12:05:39+02:00</time>
      </trkpt>
      <trkpt lat="46.81548" lon="4.89993">
        <ele>178.7998</ele>
        <time>2026-05-14T12:05:40+02:00</time>
      </trkpt>
      <trkpt lat="46.81549" lon="4.9">
        <ele>178.7998</ele>
        <time>2026-05-14T12:05:41+02:00</time>
      </trkpt>
      <trkpt lat="46.8155" lon="4.90007">
        <ele>178.7998</ele>
        <time>2026-05-14T12:05:42+02:00</time>
      </trkpt>
      <trkpt lat="46.81551" lon="4.90015">
        <ele>178.90039</ele>
        <time>2026-05-14T12:05:43+02:00</time>
      </trkpt>
      <trkpt lat="46.81551" lon="4.90023">
        <ele>178.90039</ele>
        <time>2026-05-14T12:05:44+02:00</time>
      </trkpt>
      <trkpt lat="46.81552" lon="4.90035">
        <ele>179</ele>
        <time>2026-05-14T12:05:45+02:00</time>
      </trkpt>
      <trkpt lat="46.81553" lon="4.90039">
        <ele>179</ele>
        <time>2026-05-14T12:05:46+02:00</time>
      </trkpt>
      <trkpt lat="46.81553" lon="4.90048">
        <ele>179</ele>
        <time>2026-05-14T12:05:47+02:00</time>
      </trkpt>
      <trkpt lat="46.81554" lon="4.90056">
        <ele>178.90039</ele>
        <time>2026-05-14T12:05:48+02:00</time>
      </trkpt>
      <trkpt lat="46.81555" lon="4.90064">
        <ele>178.7998</ele>
        <time>2026-05-14T12:05:49+02:00</time>
      </trkpt>
      <trkpt lat="46.81555" lon="4.90072">
        <ele>178.7002</ele>
        <time>2026-05-14T12:05:50+02:00</time>
      </trkpt>
      <trkpt lat="46.81556" lon="4.9008">
        <ele>178.60059</ele>
        <time>2026-05-14T12:05:51+02:00</time>
      </trkpt>
      <trkpt lat="46.81557" lon="4.90089">
        <ele>178.60059</ele>
        <time>2026-05-14T12:05:52+02:00</time>
      </trkpt>
      <trkpt lat="46.81558" lon="4.90096">
        <ele>178.40039</ele>
        <time>2026-05-14T12:05:53+02:00</time>
      </trkpt>
      <trkpt lat="46.81561" lon="4.90104">
        <ele>178.10059</ele>
        <time>2026-05-14T12:05:54+02:00</time>
      </trkpt>
      <trkpt lat="46.81563" lon="4.90112">
        <ele>178</ele>
        <time>2026-05-14T12:05:55+02:00</time>
      </trkpt>
      <trkpt lat="46.81566" lon="4.9012">
        <ele>177.7002</ele>
        <time>2026-05-14T12:05:56+02:00</time>
      </trkpt>
      <trkpt lat="46.81569" lon="4.90128">
        <ele>177.40039</ele>
        <time>2026-05-14T12:05:57+02:00</time>
      </trkpt>
      <trkpt lat="46.81572" lon="4.90136">
        <ele>177.40039</ele>
        <time>2026-05-14T12:05:58+02:00</time>
      </trkpt>
      <trkpt lat="46.81576" lon="4.90145">
        <ele>176.7002</ele>
        <time>2026-05-14T12:05:59+02:00</time>
      </trkpt>
      <trkpt lat="46.81579" lon="4.90153">
        <ele>176.7002</ele>
        <time>2026-05-14T12:06:00+02:00</time>
      </trkpt>
      <trkpt lat="46.81584" lon="4.90165">
        <ele>176</ele>
        <time>2026-05-14T12:06:01+02:00</time>
      </trkpt>
      <trkpt lat="46.81586" lon="4.90169">
        <ele>176</ele>
        <time>2026-05-14T12:06:02+02:00</time>
      </trkpt>
      <trkpt lat="46.8159" lon="4.90177">
        <ele>175.7998</ele>
        <time>2026-05-14T12:06:03+02:00</time>
      </trkpt>
      <trkpt lat="46.81594" lon="4.90185">
        <ele>175.5</ele>
        <time>2026-05-14T12:06:04+02:00</time>
      </trkpt>
      <trkpt lat="46.81597" lon="4.90193">
        <ele>175.2998</ele>
        <time>2026-05-14T12:06:05+02:00</time>
      </trkpt>
      <trkpt lat="46.81601" lon="4.90201">
        <ele>175.10059</ele>
        <time>2026-05-14T12:06:06+02:00</time>
      </trkpt>
      <trkpt lat="46.81605" lon="4.90209">
        <ele>174.90039</ele>
        <time>2026-05-14T12:06:07+02:00</time>
      </trkpt>
      <trkpt lat="46.81608" lon="4.90217">
        <ele>174.90039</ele>
        <time>2026-05-14T12:06:08+02:00</time>
      </trkpt>
      <trkpt lat="46.81612" lon="4.90225">
        <ele>174.7002</ele>
        <time>2026-05-14T12:06:09+02:00</time>
      </trkpt>
      <trkpt lat="46.81616" lon="4.90233">
        <ele>174.60059</ele>
        <time>2026-05-14T12:06:10+02:00</time>
      </trkpt>
      <trkpt lat="46.81621" lon="4.90245">
        <ele>174.40039</ele>
        <time>2026-05-14T12:06:11+02:00</time>
      </trkpt>
      <trkpt lat="46.81623" lon="4.90249">
        <ele>174.2002</ele>
        <time>2026-05-14T12:06:12+02:00</time>
      </trkpt>
      <trkpt lat="46.81626" lon="4.90258">
        <ele>174.10059</ele>
        <time>2026-05-14T12:06:13+02:00</time>
      </trkpt>
      <trkpt lat="46.8163" lon="4.90267">
        <ele>173.90039</ele>
        <time>2026-05-14T12:06:14+02:00</time>
      </trkpt>
      <trkpt lat="46.81634" lon="4.90275">
        <ele>173.7002</ele>
        <time>2026-05-14T12:06:15+02:00</time>
      </trkpt>
      <trkpt lat="46.81637" lon="4.90284">
        <ele>173.5</ele>
        <time>2026-05-14T12:06:16+02:00</time>
      </trkpt>
      <trkpt lat="46.8164" lon="4.90293">
        <ele>173.40039</ele>
        <time>2026-05-14T12:06:17+02:00</time>
      </trkpt>
      <trkpt lat="46.81644" lon="4.90302">
        <ele>173.2998</ele>
        <time>2026-05-14T12:06:18+02:00</time>
      </trkpt>
      <trkpt lat="46.81647" lon="4.90311">
        <ele>173.2002</ele>
        <time>2026-05-14T12:06:19+02:00</time>
      </trkpt>
      <trkpt lat="46.81651" lon="4.9032">
        <ele>173.2002</ele>
        <time>2026-05-14T12:06:20+02:00</time>
      </trkpt>
      <trkpt lat="46.81655" lon="4.90329">
        <ele>173.10059</ele>
        <time>2026-05-14T12:06:21+02:00</time>
      </trkpt>
      <trkpt lat="46.81658" lon="4.90338">
        <ele>173.2002</ele>
        <time>2026-05-14T12:06:22+02:00</time>
      </trkpt>
      <trkpt lat="46.81662" lon="4.90348">
        <ele>173.2002</ele>
        <time>2026-05-14T12:06:23+02:00</time>
      </trkpt>
      <trkpt lat="46.81666" lon="4.90357">
        <ele>173.2998</ele>
        <time>2026-05-14T12:06:24+02:00</time>
      </trkpt>
      <trkpt lat="46.81669" lon="4.90366">
        <ele>173.40039</ele>
        <time>2026-05-14T12:06:25+02:00</time>
      </trkpt>
      <trkpt lat="46.81672" lon="4.90375">
        <ele>173.40039</ele>
        <time>2026-05-14T12:06:26+02:00</time>
      </trkpt>
      <trkpt lat="46.81676" lon="4.90384">
        <ele>173.5</ele>
        <time>2026-05-14T12:06:27+02:00</time>
      </trkpt>
      <trkpt lat="46.8168" lon="4.90393">
        <ele>173.60059</ele>
        <time>2026-05-14T12:06:28+02:00</time>
      </trkpt>
      <trkpt lat="46.81683" lon="4.90402">
        <ele>173.60059</ele>
        <time>2026-05-14T12:06:29+02:00</time>
      </trkpt>
      <trkpt lat="46.81686" lon="4.90411">
        <ele>173.7998</ele>
        <time>2026-05-14T12:06:30+02:00</time>
      </trkpt>
      <trkpt lat="46.8169" lon="4.90425">
        <ele>173.7998</ele>
        <time>2026-05-14T12:06:31+02:00</time>
      </trkpt>
      <trkpt lat="46.81691" lon="4.90429">
        <ele>173.90039</ele>
        <time>2026-05-14T12:06:32+02:00</time>
      </trkpt>
      <trkpt lat="46.81694" lon="4.90438">
        <ele>173.90039</ele>
        <time>2026-05-14T12:06:33+02:00</time>
      </trkpt>
      <trkpt lat="46.81696" lon="4.90447">
        <ele>174</ele>
        <time>2026-05-14T12:06:34+02:00</time>
      </trkpt>
      <trkpt lat="46.817" lon="4.90456">
        <ele>174</ele>
        <time>2026-05-14T12:06:35+02:00</time>
      </trkpt>
      <trkpt lat="46.81703" lon="4.90465">
        <ele>174.10059</ele>
        <time>2026-05-14T12:06:36+02:00</time>
      </trkpt>
      <trkpt lat="46.81706" lon="4.90474">
        <ele>174.2002</ele>
        <time>2026-05-14T12:06:37+02:00</time>
      </trkpt>
      <trkpt lat="46.81711" lon="4.90487">
        <ele>174.2002</ele>
        <time>2026-05-14T12:06:38+02:00</time>
      </trkpt>
      <trkpt lat="46.81713" lon="4.90491">
        <ele>174.2002</ele>
        <time>2026-05-14T12:06:39+02:00</time>
      </trkpt>
      <trkpt lat="46.81717" lon="4.90499">
        <ele>174.2002</ele>
        <time>2026-05-14T12:06:40+02:00</time>
      </trkpt>
      <trkpt lat="46.8172" lon="4.90508">
        <ele>174.2002</ele>
        <time>2026-05-14T12:06:41+02:00</time>
      </trkpt>
      <trkpt lat="46.81724" lon="4.90516">
        <ele>174.2002</ele>
        <time>2026-05-14T12:06:42+02:00</time>
      </trkpt>
      <trkpt lat="46.81727" lon="4.90525">
        <ele>174.2002</ele>
        <time>2026-05-14T12:06:43+02:00</time>
      </trkpt>
      <trkpt lat="46.8173" lon="4.90534">
        <ele>174.10059</ele>
        <time>2026-05-14T12:06:44+02:00</time>
      </trkpt>
      <trkpt lat="46.81734" lon="4.90542">
        <ele>174.10059</ele>
        <time>2026-05-14T12:06:45+02:00</time>
      </trkpt>
      <trkpt lat="46.81737" lon="4.90551">
        <ele>174.10059</ele>
        <time>2026-05-14T12:06:46+02:00</time>
      </trkpt>
      <trkpt lat="46.81741" lon="4.9056">
        <ele>174</ele>
        <time>2026-05-14T12:06:47+02:00</time>
      </trkpt>
      <trkpt lat="46.81745" lon="4.90568">
        <ele>174</ele>
        <time>2026-05-14T12:06:48+02:00</time>
      </trkpt>
      <trkpt lat="46.81749" lon="4.90576">
        <ele>173.90039</ele>
        <time>2026-05-14T12:06:49+02:00</time>
      </trkpt>
      <trkpt lat="46.81753" lon="4.90585">
        <ele>173.90039</ele>
        <time>2026-05-14T12:06:50+02:00</time>
      </trkpt>
      <trkpt lat="46.81757" lon="4.90593">
        <ele>173.7998</ele>
        <time>2026-05-14T12:06:51+02:00</time>
      </trkpt>
      <trkpt lat="46.8176" lon="4.90601">
        <ele>173.7998</ele>
        <time>2026-05-14T12:06:52+02:00</time>
      </trkpt>
      <trkpt lat="46.81764" lon="4.9061">
        <ele>173.7002</ele>
        <time>2026-05-14T12:06:53+02:00</time>
      </trkpt>
      <trkpt lat="46.81768" lon="4.90618">
        <ele>173.60059</ele>
        <time>2026-05-14T12:06:54+02:00</time>
      </trkpt>
      <trkpt lat="46.8177" lon="4.90622">
        <ele>173.7002</ele>
        <time>2026-05-14T12:06:55+02:00</time>
      </trkpt>
      <trkpt lat="46.81775" lon="4.90635">
        <ele>173.60059</ele>
        <time>2026-05-14T12:06:56+02:00</time>
      </trkpt>
      <trkpt lat="46.81779" lon="4.90643">
        <ele>173.5</ele>
        <time>2026-05-14T12:06:57+02:00</time>
      </trkpt>
      <trkpt lat="46.81783" lon="4.90651">
        <ele>173.60059</ele>
        <time>2026-05-14T12:06:58+02:00</time>
      </trkpt>
      <trkpt lat="46.81786" lon="4.90659">
        <ele>173.60059</ele>
        <time>2026-05-14T12:06:59+02:00</time>
      </trkpt>
      <trkpt lat="46.8179" lon="4.90667">
        <ele>173.60059</ele>
        <time>2026-05-14T12:07:00+02:00</time>
      </trkpt>
      <trkpt lat="46.81796" lon="4.90678">
        <ele>173.7002</ele>
        <time>2026-05-14T12:07:01+02:00</time>
      </trkpt>
      <trkpt lat="46.81798" lon="4.90681">
        <ele>173.7002</ele>
        <time>2026-05-14T12:07:02+02:00</time>
      </trkpt>
      <trkpt lat="46.81803" lon="4.90689">
        <ele>173.7998</ele>
        <time>2026-05-14T12:07:03+02:00</time>
      </trkpt>
      <trkpt lat="46.81807" lon="4.90695">
        <ele>173.7998</ele>
        <time>2026-05-14T12:07:04+02:00</time>
      </trkpt>
      <trkpt lat="46.8181" lon="4.90699">
        <ele>173.90039</ele>
        <time>2026-05-14T12:07:05+02:00</time>
      </trkpt>
      <trkpt lat="46.81816" lon="4.9071">
        <ele>173.90039</ele>
        <time>2026-05-14T12:07:06+02:00</time>
      </trkpt>
      <trkpt lat="46.8182" lon="4.90717">
        <ele>173.90039</ele>
        <time>2026-05-14T12:07:07+02:00</time>
      </trkpt>
      <trkpt lat="46.81824" lon="4.90725">
        <ele>173.90039</ele>
        <time>2026-05-14T12:07:08+02:00</time>
      </trkpt>
      <trkpt lat="46.81828" lon="4.90733">
        <ele>174</ele>
        <time>2026-05-14T12:07:09+02:00</time>
      </trkpt>
      <trkpt lat="46.81832" lon="4.9074">
        <ele>173.90039</ele>
        <time>2026-05-14T12:07:10+02:00</time>
      </trkpt>
      <trkpt lat="46.81838" lon="4.90751">
        <ele>173.90039</ele>
        <time>2026-05-14T12:07:11+02:00</time>
      </trkpt>
      <trkpt lat="46.8184" lon="4.90754">
        <ele>173.90039</ele>
        <time>2026-05-14T12:07:12+02:00</time>
      </trkpt>
      <trkpt lat="46.81844" lon="4.90761">
        <ele>173.90039</ele>
        <time>2026-05-14T12:07:13+02:00</time>
      </trkpt>
      <trkpt lat="46.8185" lon="4.90771">
        <ele>173.90039</ele>
        <time>2026-05-14T12:07:14+02:00</time>
      </trkpt>
      <trkpt lat="46.81852" lon="4.90774">
        <ele>174</ele>
        <time>2026-05-14T12:07:15+02:00</time>
      </trkpt>
      <trkpt lat="46.81855" lon="4.9078">
        <ele>173.90039</ele>
        <time>2026-05-14T12:07:16+02:00</time>
      </trkpt>
      <trkpt lat="46.81858" lon="4.9079">
        <ele>174</ele>
        <time>2026-05-14T12:07:17+02:00</time>
      </trkpt>
      <trkpt lat="46.81858" lon="4.90793">
        <ele>174</ele>
        <time>2026-05-14T12:07:18+02:00</time>
      </trkpt>
      <trkpt lat="46.81859" lon="4.90799">
        <ele>174.10059</ele>
        <time>2026-05-14T12:07:19+02:00</time>
      </trkpt>
      <trkpt lat="46.81859" lon="4.90804">
        <ele>174.10059</ele>
        <time>2026-05-14T12:07:20+02:00</time>
      </trkpt>
      <trkpt lat="46.81858" lon="4.9081">
        <ele>174.10059</ele>
        <time>2026-05-14T12:07:21+02:00</time>
      </trkpt>
      <trkpt lat="46.81859" lon="4.90816">
        <ele>174.10059</ele>
        <time>2026-05-14T12:07:22+02:00</time>
      </trkpt>
      <trkpt lat="46.81862" lon="4.90822">
        <ele>174.10059</ele>
        <time>2026-05-14T12:07:23+02:00</time>
      </trkpt>
      <trkpt lat="46.81864" lon="4.90829">
        <ele>174.40039</ele>
        <time>2026-05-14T12:07:24+02:00</time>
      </trkpt>
      <trkpt lat="46.81867" lon="4.90836">
        <ele>174.5</ele>
        <time>2026-05-14T12:07:25+02:00</time>
      </trkpt>
      <trkpt lat="46.8187" lon="4.90844">
        <ele>174.7998</ele>
        <time>2026-05-14T12:07:26+02:00</time>
      </trkpt>
      <trkpt lat="46.81874" lon="4.90855">
        <ele>175.10059</ele>
        <time>2026-05-14T12:07:27+02:00</time>
      </trkpt>
      <trkpt lat="46.81875" lon="4.9086">
        <ele>175.2002</ele>
        <time>2026-05-14T12:07:28+02:00</time>
      </trkpt>
      <trkpt lat="46.81878" lon="4.90868">
        <ele>175.2998</ele>
        <time>2026-05-14T12:07:29+02:00</time>
      </trkpt>
      <trkpt lat="46.81881" lon="4.90876">
        <ele>175.60059</ele>
        <time>2026-05-14T12:07:30+02:00</time>
      </trkpt>
      <trkpt lat="46.81884" lon="4.90884">
        <ele>175.7002</ele>
        <time>2026-05-14T12:07:31+02:00</time>
      </trkpt>
      <trkpt lat="46.81887" lon="4.90891">
        <ele>175.90039</ele>
        <time>2026-05-14T12:07:32+02:00</time>
      </trkpt>
      <trkpt lat="46.8189" lon="4.909">
        <ele>176</ele>
        <time>2026-05-14T12:07:33+02:00</time>
      </trkpt>
      <trkpt lat="46.81893" lon="4.90908">
        <ele>176.2998</ele>
        <time>2026-05-14T12:07:34+02:00</time>
      </trkpt>
      <trkpt lat="46.81897" lon="4.90916">
        <ele>176.2998</ele>
        <time>2026-05-14T12:07:35+02:00</time>
      </trkpt>
      <trkpt lat="46.819" lon="4.90925">
        <ele>176.5</ele>
        <time>2026-05-14T12:07:36+02:00</time>
      </trkpt>
      <trkpt lat="46.81905" lon="4.90938">
        <ele>176.7002</ele>
        <time>2026-05-14T12:07:37+02:00</time>
      </trkpt>
      <trkpt lat="46.81905" lon="4.90938">
        <ele>176.7002</ele>
        <time>2026-05-14T12:07:38+02:00</time>
      </trkpt>
      <trkpt lat="46.81911" lon="4.90951">
        <ele>176.90039</ele>
        <time>2026-05-14T12:07:39+02:00</time>
      </trkpt>
      <trkpt lat="46.81914" lon="4.9096">
        <ele>176.90039</ele>
        <time>2026-05-14T12:07:40+02:00</time>
      </trkpt>
      <trkpt lat="46.81918" lon="4.90968">
        <ele>177.10059</ele>
        <time>2026-05-14T12:07:41+02:00</time>
      </trkpt>
      <trkpt lat="46.81921" lon="4.90976">
        <ele>177</ele>
        <time>2026-05-14T12:07:42+02:00</time>
      </trkpt>
      <trkpt lat="46.81925" lon="4.90984">
        <ele>177.2002</ele>
        <time>2026-05-14T12:07:43+02:00</time>
      </trkpt>
      <trkpt lat="46.8193" lon="4.90995">
        <ele>177.5</ele>
        <time>2026-05-14T12:07:44+02:00</time>
      </trkpt>
      <trkpt lat="46.81931" lon="4.90999">
        <ele>177.5</ele>
        <time>2026-05-14T12:07:45+02:00</time>
      </trkpt>
      <trkpt lat="46.81934" lon="4.91007">
        <ele>177.7002</ele>
        <time>2026-05-14T12:07:46+02:00</time>
      </trkpt>
      <trkpt lat="46.81937" lon="4.91014">
        <ele>177.60059</ele>
        <time>2026-05-14T12:07:47+02:00</time>
      </trkpt>
      <trkpt lat="46.8194" lon="4.91021">
        <ele>177.7998</ele>
        <time>2026-05-14T12:07:48+02:00</time>
      </trkpt>
      <trkpt lat="46.81943" lon="4.91027">
        <ele>177.7998</ele>
        <time>2026-05-14T12:07:49+02:00</time>
      </trkpt>
      <trkpt lat="46.81947" lon="4.91037">
        <ele>177.90039</ele>
        <time>2026-05-14T12:07:50+02:00</time>
      </trkpt>
      <trkpt lat="46.81949" lon="4.91041">
        <ele>177.7998</ele>
        <time>2026-05-14T12:07:51+02:00</time>
      </trkpt>
      <trkpt lat="46.81952" lon="4.91047">
        <ele>178</ele>
        <time>2026-05-14T12:07:52+02:00</time>
      </trkpt>
      <trkpt lat="46.81954" lon="4.91053">
        <ele>178</ele>
        <time>2026-05-14T12:07:53+02:00</time>
      </trkpt>
      <trkpt lat="46.81956" lon="4.91059">
        <ele>177.90039</ele>
        <time>2026-05-14T12:07:54+02:00</time>
      </trkpt>
      <trkpt lat="46.81958" lon="4.91064">
        <ele>178.2002</ele>
        <time>2026-05-14T12:07:55+02:00</time>
      </trkpt>
      <trkpt lat="46.81959" lon="4.91068">
        <ele>178.2002</ele>
        <time>2026-05-14T12:07:56+02:00</time>
      </trkpt>
      <trkpt lat="46.8196" lon="4.91073">
        <ele>178.10059</ele>
        <time>2026-05-14T12:07:57+02:00</time>
      </trkpt>
      <trkpt lat="46.81959" lon="4.91077">
        <ele>178.10059</ele>
        <time>2026-05-14T12:07:58+02:00</time>
      </trkpt>
      <trkpt lat="46.81958" lon="4.9108">
        <ele>178.10059</ele>
        <time>2026-05-14T12:07:59+02:00</time>
      </trkpt>
      <trkpt lat="46.81956" lon="4.91083">
        <ele>177.60059</ele>
        <time>2026-05-14T12:08:00+02:00</time>
      </trkpt>
      <trkpt lat="46.81953" lon="4.91086">
        <ele>177.60059</ele>
        <time>2026-05-14T12:08:01+02:00</time>
      </trkpt>
      <trkpt lat="46.81951" lon="4.91089">
        <ele>177.5</ele>
        <time>2026-05-14T12:08:02+02:00</time>
      </trkpt>
      <trkpt lat="46.81949" lon="4.91098">
        <ele>177</ele>
        <time>2026-05-14T12:08:03+02:00</time>
      </trkpt>
      <trkpt lat="46.81949" lon="4.91098">
        <ele>177</ele>
        <time>2026-05-14T12:08:04+02:00</time>
      </trkpt>
      <trkpt lat="46.81951" lon="4.91108">
        <ele>177.10059</ele>
        <time>2026-05-14T12:08:05+02:00</time>
      </trkpt>
      <trkpt lat="46.81954" lon="4.91115">
        <ele>177</ele>
        <time>2026-05-14T12:08:06+02:00</time>
      </trkpt>
      <trkpt lat="46.81957" lon="4.91123">
        <ele>177.2998</ele>
        <time>2026-05-14T12:08:07+02:00</time>
      </trkpt>
      <trkpt lat="46.8196" lon="4.9113">
        <ele>177.10059</ele>
        <time>2026-05-14T12:08:08+02:00</time>
      </trkpt>
      <trkpt lat="46.81964" lon="4.91141">
        <ele>177.10059</ele>
        <time>2026-05-14T12:08:09+02:00</time>
      </trkpt>
      <trkpt lat="46.81965" lon="4.91144">
        <ele>177.10059</ele>
        <time>2026-05-14T12:08:10+02:00</time>
      </trkpt>
      <trkpt lat="46.81968" lon="4.91151">
        <ele>176.90039</ele>
        <time>2026-05-14T12:08:11+02:00</time>
      </trkpt>
      <trkpt lat="46.81971" lon="4.91158">
        <ele>177.10059</ele>
        <time>2026-05-14T12:08:12+02:00</time>
      </trkpt>
      <trkpt lat="46.81975" lon="4.91165">
        <ele>177.40039</ele>
        <time>2026-05-14T12:08:13+02:00</time>
      </trkpt>
      <trkpt lat="46.81977" lon="4.91171">
        <ele>177.2002</ele>
        <time>2026-05-14T12:08:14+02:00</time>
      </trkpt>
      <trkpt lat="46.8198" lon="4.91178">
        <ele>177.40039</ele>
        <time>2026-05-14T12:08:15+02:00</time>
      </trkpt>
      <trkpt lat="46.81983" lon="4.91186">
        <ele>177.2002</ele>
        <time>2026-05-14T12:08:16+02:00</time>
      </trkpt>
      <trkpt lat="46.81986" lon="4.91193">
        <ele>177.2998</ele>
        <time>2026-05-14T12:08:17+02:00</time>
      </trkpt>
      <trkpt lat="46.81989" lon="4.912">
        <ele>177.2998</ele>
        <time>2026-05-14T12:08:18+02:00</time>
      </trkpt>
      <trkpt lat="46.81991" lon="4.91207">
        <ele>177.10059</ele>
        <time>2026-05-14T12:08:19+02:00</time>
      </trkpt>
      <trkpt lat="46.81994" lon="4.91214">
        <ele>177.10059</ele>
        <time>2026-05-14T12:08:20+02:00</time>
      </trkpt>
      <trkpt lat="46.81997" lon="4.91221">
        <ele>176.90039</ele>
        <time>2026-05-14T12:08:21+02:00</time>
      </trkpt>
      <trkpt lat="46.82" lon="4.91228">
        <ele>176.90039</ele>
        <time>2026-05-14T12:08:22+02:00</time>
      </trkpt>
      <trkpt lat="46.82002" lon="4.91236">
        <ele>176.7002</ele>
        <time>2026-05-14T12:08:23+02:00</time>
      </trkpt>
      <trkpt lat="46.82005" lon="4.91243">
        <ele>176.90039</ele>
        <time>2026-05-14T12:08:24+02:00</time>
      </trkpt>
      <trkpt lat="46.82007" lon="4.9125">
        <ele>176.7002</ele>
        <time>2026-05-14T12:08:25+02:00</time>
      </trkpt>
      <trkpt lat="46.8201" lon="4.91258">
        <ele>176.7002</ele>
        <time>2026-05-14T12:08:26+02:00</time>
      </trkpt>
      <trkpt lat="46.82012" lon="4.91265">
        <ele>176.60059</ele>
        <time>2026-05-14T12:08:27+02:00</time>
      </trkpt>
      <trkpt lat="46.82015" lon="4.91272">
        <ele>176.40039</ele>
        <time>2026-05-14T12:08:28+02:00</time>
      </trkpt>
      <trkpt lat="46.82017" lon="4.9128">
        <ele>176.5</ele>
        <time>2026-05-14T12:08:29+02:00</time>
      </trkpt>
      <trkpt lat="46.8202" lon="4.91287">
        <ele>176.2998</ele>
        <time>2026-05-14T12:08:30+02:00</time>
      </trkpt>
      <trkpt lat="46.82024" lon="4.91298">
        <ele>176.40039</ele>
        <time>2026-05-14T12:08:31+02:00</time>
      </trkpt>
      <trkpt lat="46.82024" lon="4.91298">
        <ele>176.40039</ele>
        <time>2026-05-14T12:08:32+02:00</time>
      </trkpt>
      <trkpt lat="46.82028" lon="4.91309">
        <ele>176.40039</ele>
        <time>2026-05-14T12:08:33+02:00</time>
      </trkpt>
      <trkpt lat="46.8203" lon="4.91317">
        <ele>176.2002</ele>
        <time>2026-05-14T12:08:34+02:00</time>
      </trkpt>
      <trkpt lat="46.82033" lon="4.91324">
        <ele>176.2998</ele>
        <time>2026-05-14T12:08:35+02:00</time>
      </trkpt>
      <trkpt lat="46.82035" lon="4.91331">
        <ele>176.10059</ele>
        <time>2026-05-14T12:08:36+02:00</time>
      </trkpt>
      <trkpt lat="46.82037" lon="4.91339">
        <ele>176</ele>
        <time>2026-05-14T12:08:37+02:00</time>
      </trkpt>
      <trkpt lat="46.82041" lon="4.9135">
        <ele>176.10059</ele>
        <time>2026-05-14T12:08:38+02:00</time>
      </trkpt>
      <trkpt lat="46.82042" lon="4.91354">
        <ele>176.10059</ele>
        <time>2026-05-14T12:08:39+02:00</time>
      </trkpt>
      <trkpt lat="46.82044" lon="4.91362">
        <ele>176</ele>
        <time>2026-05-14T12:08:40+02:00</time>
      </trkpt>
      <trkpt lat="46.82047" lon="4.9137">
        <ele>176.10059</ele>
        <time>2026-05-14T12:08:41+02:00</time>
      </trkpt>
      <trkpt lat="46.82049" lon="4.91378">
        <ele>175.90039</ele>
        <time>2026-05-14T12:08:42+02:00</time>
      </trkpt>
      <trkpt lat="46.82051" lon="4.91387">
        <ele>175.90039</ele>
        <time>2026-05-14T12:08:43+02:00</time>
      </trkpt>
      <trkpt lat="46.82053" lon="4.91395">
        <ele>175.7998</ele>
        <time>2026-05-14T12:08:44+02:00</time>
      </trkpt>
      <trkpt lat="46.82056" lon="4.91403">
        <ele>175.60059</ele>
        <time>2026-05-14T12:08:45+02:00</time>
      </trkpt>
      <trkpt lat="46.82059" lon="4.91412">
        <ele>175.7002</ele>
        <time>2026-05-14T12:08:46+02:00</time>
      </trkpt>
      <trkpt lat="46.82062" lon="4.9142">
        <ele>175.7002</ele>
        <time>2026-05-14T12:08:47+02:00</time>
      </trkpt>
      <trkpt lat="46.82067" lon="4.91432">
        <ele>175.60059</ele>
        <time>2026-05-14T12:08:48+02:00</time>
      </trkpt>
      <trkpt lat="46.82069" lon="4.91436">
        <ele>175.60059</ele>
        <time>2026-05-14T12:08:49+02:00</time>
      </trkpt>
      <trkpt lat="46.82072" lon="4.91444">
        <ele>175.5</ele>
        <time>2026-05-14T12:08:50+02:00</time>
      </trkpt>
      <trkpt lat="46.82075" lon="4.91452">
        <ele>175.5</ele>
        <time>2026-05-14T12:08:51+02:00</time>
      </trkpt>
      <trkpt lat="46.8208" lon="4.91463">
        <ele>175.5</ele>
        <time>2026-05-14T12:08:52+02:00</time>
      </trkpt>
      <trkpt lat="46.82082" lon="4.91467">
        <ele>175.40039</ele>
        <time>2026-05-14T12:08:53+02:00</time>
      </trkpt>
      <trkpt lat="46.82085" lon="4.91474">
        <ele>175.40039</ele>
        <time>2026-05-14T12:08:54+02:00</time>
      </trkpt>
      <trkpt lat="46.82088" lon="4.91481">
        <ele>175.40039</ele>
        <time>2026-05-14T12:08:55+02:00</time>
      </trkpt>
      <trkpt lat="46.82091" lon="4.91489">
        <ele>175.2998</ele>
        <time>2026-05-14T12:08:56+02:00</time>
      </trkpt>
      <trkpt lat="46.82094" lon="4.91496">
        <ele>175.40039</ele>
        <time>2026-05-14T12:08:57+02:00</time>
      </trkpt>
      <trkpt lat="46.82097" lon="4.91503">
        <ele>175.2998</ele>
        <time>2026-05-14T12:08:58+02:00</time>
      </trkpt>
      <trkpt lat="46.82102" lon="4.91514">
        <ele>175.40039</ele>
        <time>2026-05-14T12:08:59+02:00</time>
      </trkpt>
      <trkpt lat="46.82103" lon="4.91517">
        <ele>175.40039</ele>
        <time>2026-05-14T12:09:00+02:00</time>
      </trkpt>
      <trkpt lat="46.82107" lon="4.91524">
        <ele>175.5</ele>
        <time>2026-05-14T12:09:01+02:00</time>
      </trkpt>
      <trkpt lat="46.8211" lon="4.91531">
        <ele>175.60059</ele>
        <time>2026-05-14T12:09:02+02:00</time>
      </trkpt>
      <trkpt lat="46.82112" lon="4.91538">
        <ele>175.60059</ele>
        <time>2026-05-14T12:09:03+02:00</time>
      </trkpt>
      <trkpt lat="46.82115" lon="4.91545">
        <ele>175.90039</ele>
        <time>2026-05-14T12:09:04+02:00</time>
      </trkpt>
      <trkpt lat="46.82118" lon="4.91553">
        <ele>175.90039</ele>
        <time>2026-05-14T12:09:05+02:00</time>
      </trkpt>
      <trkpt lat="46.8212" lon="4.9156">
        <ele>175.90039</ele>
        <time>2026-05-14T12:09:06+02:00</time>
      </trkpt>
      <trkpt lat="46.82122" lon="4.91568">
        <ele>176.10059</ele>
        <time>2026-05-14T12:09:07+02:00</time>
      </trkpt>
      <trkpt lat="46.82124" lon="4.91575">
        <ele>176.2002</ele>
        <time>2026-05-14T12:09:08+02:00</time>
      </trkpt>
      <trkpt lat="46.82127" lon="4.91587">
        <ele>176.40039</ele>
        <time>2026-05-14T12:09:09+02:00</time>
      </trkpt>
      <trkpt lat="46.82128" lon="4.9159">
        <ele>176.40039</ele>
        <time>2026-05-14T12:09:10+02:00</time>
      </trkpt>
      <trkpt lat="46.8213" lon="4.91598">
        <ele>176.2998</ele>
        <time>2026-05-14T12:09:11+02:00</time>
      </trkpt>
      <trkpt lat="46.82132" lon="4.91606">
        <ele>176.2002</ele>
        <time>2026-05-14T12:09:12+02:00</time>
      </trkpt>
      <trkpt lat="46.82135" lon="4.91614">
        <ele>176.40039</ele>
        <time>2026-05-14T12:09:13+02:00</time>
      </trkpt>
      <trkpt lat="46.82137" lon="4.91622">
        <ele>176.2998</ele>
        <time>2026-05-14T12:09:14+02:00</time>
      </trkpt>
      <trkpt lat="46.82139" lon="4.9163">
        <ele>176.40039</ele>
        <time>2026-05-14T12:09:15+02:00</time>
      </trkpt>
      <trkpt lat="46.8214" lon="4.91634">
        <ele>176.40039</ele>
        <time>2026-05-14T12:09:16+02:00</time>
      </trkpt>
      <trkpt lat="46.82144" lon="4.91646">
        <ele>176.2998</ele>
        <time>2026-05-14T12:09:17+02:00</time>
      </trkpt>
      <trkpt lat="46.82147" lon="4.91654">
        <ele>176.40039</ele>
        <time>2026-05-14T12:09:18+02:00</time>
      </trkpt>
      <trkpt lat="46.82148" lon="4.91662">
        <ele>176.2002</ele>
        <time>2026-05-14T12:09:19+02:00</time>
      </trkpt>
      <trkpt lat="46.82151" lon="4.91669">
        <ele>176.2998</ele>
        <time>2026-05-14T12:09:20+02:00</time>
      </trkpt>
      <trkpt lat="46.82153" lon="4.91677">
        <ele>176.10059</ele>
        <time>2026-05-14T12:09:21+02:00</time>
      </trkpt>
      <trkpt lat="46.82157" lon="4.91684">
        <ele>176.10059</ele>
        <time>2026-05-14T12:09:22+02:00</time>
      </trkpt>
      <trkpt lat="46.8216" lon="4.91691">
        <ele>176</ele>
        <time>2026-05-14T12:09:23+02:00</time>
      </trkpt>
      <trkpt lat="46.82162" lon="4.91699">
        <ele>176</ele>
        <time>2026-05-14T12:09:24+02:00</time>
      </trkpt>
      <trkpt lat="46.82165" lon="4.91706">
        <ele>176</ele>
        <time>2026-05-14T12:09:25+02:00</time>
      </trkpt>
      <trkpt lat="46.82168" lon="4.91713">
        <ele>176</ele>
        <time>2026-05-14T12:09:26+02:00</time>
      </trkpt>
      <trkpt lat="46.82171" lon="4.9172">
        <ele>175.7998</ele>
        <time>2026-05-14T12:09:27+02:00</time>
      </trkpt>
      <trkpt lat="46.82174" lon="4.91727">
        <ele>175.90039</ele>
        <time>2026-05-14T12:09:28+02:00</time>
      </trkpt>
      <trkpt lat="46.82178" lon="4.91734">
        <ele>175.7998</ele>
        <time>2026-05-14T12:09:29+02:00</time>
      </trkpt>
      <trkpt lat="46.82181" lon="4.91742">
        <ele>175.90039</ele>
        <time>2026-05-14T12:09:30+02:00</time>
      </trkpt>
      <trkpt lat="46.82185" lon="4.91753">
        <ele>175.7002</ele>
        <time>2026-05-14T12:09:31+02:00</time>
      </trkpt>
      <trkpt lat="46.82187" lon="4.91757">
        <ele>175.90039</ele>
        <time>2026-05-14T12:09:32+02:00</time>
      </trkpt>
      <trkpt lat="46.8219" lon="4.91766">
        <ele>175.7998</ele>
        <time>2026-05-14T12:09:33+02:00</time>
      </trkpt>
      <trkpt lat="46.82192" lon="4.91779">
        <ele>175.60059</ele>
        <time>2026-05-14T12:09:34+02:00</time>
      </trkpt>
      <trkpt lat="46.82193" lon="4.91783">
        <ele>175.60059</ele>
        <time>2026-05-14T12:09:35+02:00</time>
      </trkpt>
      <trkpt lat="46.82195" lon="4.91792">
        <ele>175.40039</ele>
        <time>2026-05-14T12:09:36+02:00</time>
      </trkpt>
      <trkpt lat="46.82196" lon="4.91801">
        <ele>175.2998</ele>
        <time>2026-05-14T12:09:37+02:00</time>
      </trkpt>
      <trkpt lat="46.82197" lon="4.9181">
        <ele>175.2002</ele>
        <time>2026-05-14T12:09:38+02:00</time>
      </trkpt>
      <trkpt lat="46.82198" lon="4.91819">
        <ele>175.10059</ele>
        <time>2026-05-14T12:09:39+02:00</time>
      </trkpt>
      <trkpt lat="46.82198" lon="4.91828">
        <ele>175</ele>
        <time>2026-05-14T12:09:40+02:00</time>
      </trkpt>
      <trkpt lat="46.82199" lon="4.91837">
        <ele>175</ele>
        <time>2026-05-14T12:09:41+02:00</time>
      </trkpt>
      <trkpt lat="46.822" lon="4.91846">
        <ele>174.90039</ele>
        <time>2026-05-14T12:09:42+02:00</time>
      </trkpt>
      <trkpt lat="46.82201" lon="4.91855">
        <ele>174.90039</ele>
        <time>2026-05-14T12:09:43+02:00</time>
      </trkpt>
      <trkpt lat="46.82202" lon="4.91863">
        <ele>174.90039</ele>
        <time>2026-05-14T12:09:44+02:00</time>
      </trkpt>
      <trkpt lat="46.82202" lon="4.91872">
        <ele>174.90039</ele>
        <time>2026-05-14T12:09:45+02:00</time>
      </trkpt>
      <trkpt lat="46.82203" lon="4.91881">
        <ele>174.90039</ele>
        <time>2026-05-14T12:09:46+02:00</time>
      </trkpt>
      <trkpt lat="46.82204" lon="4.91895">
        <ele>175</ele>
        <time>2026-05-14T12:09:47+02:00</time>
      </trkpt>
      <trkpt lat="46.82205" lon="4.91899">
        <ele>175</ele>
        <time>2026-05-14T12:09:48+02:00</time>
      </trkpt>
      <trkpt lat="46.82206" lon="4.91908">
        <ele>175.10059</ele>
        <time>2026-05-14T12:09:49+02:00</time>
      </trkpt>
      <trkpt lat="46.82206" lon="4.91917">
        <ele>175.10059</ele>
        <time>2026-05-14T12:09:50+02:00</time>
      </trkpt>
      <trkpt lat="46.82207" lon="4.91927">
        <ele>175.2002</ele>
        <time>2026-05-14T12:09:51+02:00</time>
      </trkpt>
      <trkpt lat="46.82208" lon="4.91936">
        <ele>175.2002</ele>
        <time>2026-05-14T12:09:52+02:00</time>
      </trkpt>
      <trkpt lat="46.8221" lon="4.91945">
        <ele>175.5</ele>
        <time>2026-05-14T12:09:53+02:00</time>
      </trkpt>
      <trkpt lat="46.8221" lon="4.91954">
        <ele>175.5</ele>
        <time>2026-05-14T12:09:54+02:00</time>
      </trkpt>
      <trkpt lat="46.82211" lon="4.91963">
        <ele>175.60059</ele>
        <time>2026-05-14T12:09:55+02:00</time>
      </trkpt>
      <trkpt lat="46.82213" lon="4.91972">
        <ele>175.7002</ele>
        <time>2026-05-14T12:09:56+02:00</time>
      </trkpt>
      <trkpt lat="46.82213" lon="4.9198">
        <ele>175.7998</ele>
        <time>2026-05-14T12:09:57+02:00</time>
      </trkpt>
      <trkpt lat="46.82214" lon="4.91989">
        <ele>175.90039</ele>
        <time>2026-05-14T12:09:58+02:00</time>
      </trkpt>
      <trkpt lat="46.82216" lon="4.91997">
        <ele>176.10059</ele>
        <time>2026-05-14T12:09:59+02:00</time>
      </trkpt>
      <trkpt lat="46.82218" lon="4.9201">
        <ele>176.2002</ele>
        <time>2026-05-14T12:10:00+02:00</time>
      </trkpt>
      <trkpt lat="46.82218" lon="4.92014">
        <ele>176.2002</ele>
        <time>2026-05-14T12:10:01+02:00</time>
      </trkpt>
      <trkpt lat="46.82219" lon="4.92023">
        <ele>176.2002</ele>
        <time>2026-05-14T12:10:02+02:00</time>
      </trkpt>
      <trkpt lat="46.82221" lon="4.92037">
        <ele>176.2998</ele>
        <time>2026-05-14T12:10:03+02:00</time>
      </trkpt>
      <trkpt lat="46.82222" lon="4.92041">
        <ele>176.2998</ele>
        <time>2026-05-14T12:10:04+02:00</time>
      </trkpt>
      <trkpt lat="46.82223" lon="4.9205">
        <ele>176.2998</ele>
        <time>2026-05-14T12:10:05+02:00</time>
      </trkpt>
      <trkpt lat="46.82224" lon="4.92059">
        <ele>176.2998</ele>
        <time>2026-05-14T12:10:06+02:00</time>
      </trkpt>
      <trkpt lat="46.82226" lon="4.92068">
        <ele>176.2998</ele>
        <time>2026-05-14T12:10:07+02:00</time>
      </trkpt>
      <trkpt lat="46.82227" lon="4.92077">
        <ele>176.40039</ele>
        <time>2026-05-14T12:10:08+02:00</time>
      </trkpt>
      <trkpt lat="46.82229" lon="4.92091">
        <ele>176.2998</ele>
        <time>2026-05-14T12:10:09+02:00</time>
      </trkpt>
      <trkpt lat="46.82229" lon="4.92095">
        <ele>176.2002</ele>
        <time>2026-05-14T12:10:10+02:00</time>
      </trkpt>
      <trkpt lat="46.82231" lon="4.92104">
        <ele>176.10059</ele>
        <time>2026-05-14T12:10:11+02:00</time>
      </trkpt>
      <trkpt lat="46.82232" lon="4.92113">
        <ele>175.90039</ele>
        <time>2026-05-14T12:10:12+02:00</time>
      </trkpt>
      <trkpt lat="46.82234" lon="4.92122">
        <ele>175.90039</ele>
        <time>2026-05-14T12:10:13+02:00</time>
      </trkpt>
      <trkpt lat="46.82235" lon="4.92132">
        <ele>175.7002</ele>
        <time>2026-05-14T12:10:14+02:00</time>
      </trkpt>
      <trkpt lat="46.82237" lon="4.9214">
        <ele>175.60059</ele>
        <time>2026-05-14T12:10:15+02:00</time>
      </trkpt>
      <trkpt lat="46.82239" lon="4.92154">
        <ele>175.40039</ele>
        <time>2026-05-14T12:10:16+02:00</time>
      </trkpt>
      <trkpt lat="46.8224" lon="4.92159">
        <ele>175.40039</ele>
        <time>2026-05-14T12:10:17+02:00</time>
      </trkpt>
      <trkpt lat="46.82242" lon="4.92168">
        <ele>175.2998</ele>
        <time>2026-05-14T12:10:18+02:00</time>
      </trkpt>
      <trkpt lat="46.82244" lon="4.92177">
        <ele>175.40039</ele>
        <time>2026-05-14T12:10:19+02:00</time>
      </trkpt>
      <trkpt lat="46.82246" lon="4.92186">
        <ele>175.2998</ele>
        <time>2026-05-14T12:10:20+02:00</time>
      </trkpt>
      <trkpt lat="46.82248" lon="4.92195">
        <ele>175.10059</ele>
        <time>2026-05-14T12:10:21+02:00</time>
      </trkpt>
      <trkpt lat="46.8225" lon="4.92204">
        <ele>175</ele>
        <time>2026-05-14T12:10:22+02:00</time>
      </trkpt>
      <trkpt lat="46.82253" lon="4.92218">
        <ele>175</ele>
        <time>2026-05-14T12:10:23+02:00</time>
      </trkpt>
      <trkpt lat="46.82254" lon="4.92222">
        <ele>174.90039</ele>
        <time>2026-05-14T12:10:24+02:00</time>
      </trkpt>
      <trkpt lat="46.82256" lon="4.92231">
        <ele>175</ele>
        <time>2026-05-14T12:10:25+02:00</time>
      </trkpt>
      <trkpt lat="46.82259" lon="4.9224">
        <ele>174.90039</ele>
        <time>2026-05-14T12:10:26+02:00</time>
      </trkpt>
      <trkpt lat="46.82261" lon="4.92249">
        <ele>174.7998</ele>
        <time>2026-05-14T12:10:27+02:00</time>
      </trkpt>
      <trkpt lat="46.82263" lon="4.92258">
        <ele>174.90039</ele>
        <time>2026-05-14T12:10:28+02:00</time>
      </trkpt>
      <trkpt lat="46.82265" lon="4.92267">
        <ele>174.7998</ele>
        <time>2026-05-14T12:10:29+02:00</time>
      </trkpt>
      <trkpt lat="46.82268" lon="4.92276">
        <ele>174.90039</ele>
        <time>2026-05-14T12:10:30+02:00</time>
      </trkpt>
      <trkpt lat="46.82271" lon="4.92289">
        <ele>174.7998</ele>
        <time>2026-05-14T12:10:31+02:00</time>
      </trkpt>
      <trkpt lat="46.82273" lon="4.92294">
        <ele>174.7998</ele>
        <time>2026-05-14T12:10:32+02:00</time>
      </trkpt>
      <trkpt lat="46.82276" lon="4.92302">
        <ele>174.7998</ele>
        <time>2026-05-14T12:10:33+02:00</time>
      </trkpt>
      <trkpt lat="46.82279" lon="4.92311">
        <ele>174.7002</ele>
        <time>2026-05-14T12:10:34+02:00</time>
      </trkpt>
      <trkpt lat="46.82282" lon="4.92319">
        <ele>174.7998</ele>
        <time>2026-05-14T12:10:35+02:00</time>
      </trkpt>
      <trkpt lat="46.82285" lon="4.92327">
        <ele>174.7002</ele>
        <time>2026-05-14T12:10:36+02:00</time>
      </trkpt>
      <trkpt lat="46.82289" lon="4.92335">
        <ele>174.60059</ele>
        <time>2026-05-14T12:10:37+02:00</time>
      </trkpt>
      <trkpt lat="46.82293" lon="4.92343">
        <ele>174.60059</ele>
        <time>2026-05-14T12:10:38+02:00</time>
      </trkpt>
      <trkpt lat="46.82297" lon="4.9235">
        <ele>174.60059</ele>
        <time>2026-05-14T12:10:39+02:00</time>
      </trkpt>
      <trkpt lat="46.82301" lon="4.92358">
        <ele>174.5</ele>
        <time>2026-05-14T12:10:40+02:00</time>
      </trkpt>
      <trkpt lat="46.82306" lon="4.92364">
        <ele>174.2998</ele>
        <time>2026-05-14T12:10:41+02:00</time>
      </trkpt>
      <trkpt lat="46.8231" lon="4.92371">
        <ele>174.2002</ele>
        <time>2026-05-14T12:10:42+02:00</time>
      </trkpt>
      <trkpt lat="46.82315" lon="4.92378">
        <ele>174</ele>
        <time>2026-05-14T12:10:43+02:00</time>
      </trkpt>
      <trkpt lat="46.82321" lon="4.92388">
        <ele>173.90039</ele>
        <time>2026-05-14T12:10:44+02:00</time>
      </trkpt>
      <trkpt lat="46.82324" lon="4.92391">
        <ele>173.90039</ele>
        <time>2026-05-14T12:10:45+02:00</time>
      </trkpt>
      <trkpt lat="46.82327" lon="4.92398">
        <ele>173.7998</ele>
        <time>2026-05-14T12:10:46+02:00</time>
      </trkpt>
      <trkpt lat="46.82332" lon="4.92404">
        <ele>173.60059</ele>
        <time>2026-05-14T12:10:47+02:00</time>
      </trkpt>
      <trkpt lat="46.82336" lon="4.92411">
        <ele>173.5</ele>
        <time>2026-05-14T12:10:48+02:00</time>
      </trkpt>
      <trkpt lat="46.8234" lon="4.92417">
        <ele>173.60059</ele>
        <time>2026-05-14T12:10:49+02:00</time>
      </trkpt>
      <trkpt lat="46.82344" lon="4.92424">
        <ele>173.60059</ele>
        <time>2026-05-14T12:10:50+02:00</time>
      </trkpt>
      <trkpt lat="46.82348" lon="4.9243">
        <ele>173.5</ele>
        <time>2026-05-14T12:10:51+02:00</time>
      </trkpt>
      <trkpt lat="46.82352" lon="4.92436">
        <ele>173.60059</ele>
        <time>2026-05-14T12:10:52+02:00</time>
      </trkpt>
      <trkpt lat="46.82356" lon="4.92442">
        <ele>173.60059</ele>
        <time>2026-05-14T12:10:53+02:00</time>
      </trkpt>
      <trkpt lat="46.82362" lon="4.92451">
        <ele>173.60059</ele>
        <time>2026-05-14T12:10:54+02:00</time>
      </trkpt>
      <trkpt lat="46.82364" lon="4.92454">
        <ele>173.60059</ele>
        <time>2026-05-14T12:10:55+02:00</time>
      </trkpt>
      <trkpt lat="46.82368" lon="4.9246">
        <ele>173.7002</ele>
        <time>2026-05-14T12:10:56+02:00</time>
      </trkpt>
      <trkpt lat="46.82372" lon="4.92467">
        <ele>173.60059</ele>
        <time>2026-05-14T12:10:57+02:00</time>
      </trkpt>
      <trkpt lat="46.82376" lon="4.92473">
        <ele>173.7002</ele>
        <time>2026-05-14T12:10:58+02:00</time>
      </trkpt>
      <trkpt lat="46.8238" lon="4.9248">
        <ele>173.7998</ele>
        <time>2026-05-14T12:10:59+02:00</time>
      </trkpt>
      <trkpt lat="46.82384" lon="4.92486">
        <ele>173.7998</ele>
        <time>2026-05-14T12:11:00+02:00</time>
      </trkpt>
      <trkpt lat="46.82391" lon="4.92496">
        <ele>174</ele>
        <time>2026-05-14T12:11:01+02:00</time>
      </trkpt>
      <trkpt lat="46.82393" lon="4.92499">
        <ele>174</ele>
        <time>2026-05-14T12:11:02+02:00</time>
      </trkpt>
      <trkpt lat="46.82397" lon="4.92506">
        <ele>174.2002</ele>
        <time>2026-05-14T12:11:03+02:00</time>
      </trkpt>
      <trkpt lat="46.82403" lon="4.92516">
        <ele>174.2998</ele>
        <time>2026-05-14T12:11:04+02:00</time>
      </trkpt>
      <trkpt lat="46.82405" lon="4.92519">
        <ele>174.2998</ele>
        <time>2026-05-14T12:11:05+02:00</time>
      </trkpt>
      <trkpt lat="46.82409" lon="4.92526">
        <ele>174.5</ele>
        <time>2026-05-14T12:11:06+02:00</time>
      </trkpt>
      <trkpt lat="46.82413" lon="4.92533">
        <ele>174.60059</ele>
        <time>2026-05-14T12:11:07+02:00</time>
      </trkpt>
      <trkpt lat="46.82417" lon="4.92539">
        <ele>174.7002</ele>
        <time>2026-05-14T12:11:08+02:00</time>
      </trkpt>
      <trkpt lat="46.82421" lon="4.92546">
        <ele>174.90039</ele>
        <time>2026-05-14T12:11:09+02:00</time>
      </trkpt>
      <trkpt lat="46.82427" lon="4.92556">
        <ele>175</ele>
        <time>2026-05-14T12:11:10+02:00</time>
      </trkpt>
      <trkpt lat="46.8243" lon="4.92559">
        <ele>175.10059</ele>
        <time>2026-05-14T12:11:11+02:00</time>
      </trkpt>
      <trkpt lat="46.82434" lon="4.92566">
        <ele>175.2002</ele>
        <time>2026-05-14T12:11:12+02:00</time>
      </trkpt>
      <trkpt lat="46.8244" lon="4.92575">
        <ele>175.2998</ele>
        <time>2026-05-14T12:11:13+02:00</time>
      </trkpt>
      <trkpt lat="46.82442" lon="4.92578">
        <ele>175.2998</ele>
        <time>2026-05-14T12:11:14+02:00</time>
      </trkpt>
      <trkpt lat="46.82446" lon="4.92585">
        <ele>175.2998</ele>
        <time>2026-05-14T12:11:15+02:00</time>
      </trkpt>
      <trkpt lat="46.8245" lon="4.92592">
        <ele>175.40039</ele>
        <time>2026-05-14T12:11:16+02:00</time>
      </trkpt>
      <trkpt lat="46.82454" lon="4.92599">
        <ele>175.40039</ele>
        <time>2026-05-14T12:11:17+02:00</time>
      </trkpt>
      <trkpt lat="46.82458" lon="4.92605">
        <ele>175.40039</ele>
        <time>2026-05-14T12:11:18+02:00</time>
      </trkpt>
      <trkpt lat="46.82463" lon="4.92611">
        <ele>175.5</ele>
        <time>2026-05-14T12:11:19+02:00</time>
      </trkpt>
      <trkpt lat="46.82469" lon="4.9262">
        <ele>175.5</ele>
        <time>2026-05-14T12:11:20+02:00</time>
      </trkpt>
      <trkpt lat="46.82471" lon="4.92624">
        <ele>175.5</ele>
        <time>2026-05-14T12:11:21+02:00</time>
      </trkpt>
      <trkpt lat="46.82475" lon="4.9263">
        <ele>175.60059</ele>
        <time>2026-05-14T12:11:22+02:00</time>
      </trkpt>
      <trkpt lat="46.8248" lon="4.92636">
        <ele>175.7002</ele>
        <time>2026-05-14T12:11:23+02:00</time>
      </trkpt>
      <trkpt lat="46.82484" lon="4.92642">
        <ele>175.7002</ele>
        <time>2026-05-14T12:11:24+02:00</time>
      </trkpt>
      <trkpt lat="46.82488" lon="4.92649">
        <ele>175.7998</ele>
        <time>2026-05-14T12:11:25+02:00</time>
      </trkpt>
      <trkpt lat="46.82492" lon="4.92655">
        <ele>175.90039</ele>
        <time>2026-05-14T12:11:26+02:00</time>
      </trkpt>
      <trkpt lat="46.82499" lon="4.92664">
        <ele>176</ele>
        <time>2026-05-14T12:11:27+02:00</time>
      </trkpt>
      <trkpt lat="46.82501" lon="4.92668">
        <ele>176</ele>
        <time>2026-05-14T12:11:28+02:00</time>
      </trkpt>
      <trkpt lat="46.82505" lon="4.92674">
        <ele>176.10059</ele>
        <time>2026-05-14T12:11:29+02:00</time>
      </trkpt>
      <trkpt lat="46.82509" lon="4.9268">
        <ele>176.10059</ele>
        <time>2026-05-14T12:11:30+02:00</time>
      </trkpt>
      <trkpt lat="46.82514" lon="4.92686">
        <ele>176.10059</ele>
        <time>2026-05-14T12:11:31+02:00</time>
      </trkpt>
      <trkpt lat="46.82518" lon="4.92693">
        <ele>176.2002</ele>
        <time>2026-05-14T12:11:32+02:00</time>
      </trkpt>
      <trkpt lat="46.82525" lon="4.92702">
        <ele>176.2002</ele>
        <time>2026-05-14T12:11:33+02:00</time>
      </trkpt>
      <trkpt lat="46.82527" lon="4.92706">
        <ele>176.2002</ele>
        <time>2026-05-14T12:11:34+02:00</time>
      </trkpt>
      <trkpt lat="46.82531" lon="4.92712">
        <ele>176.2002</ele>
        <time>2026-05-14T12:11:35+02:00</time>
      </trkpt>
      <trkpt lat="46.82538" lon="4.92722">
        <ele>176.2002</ele>
        <time>2026-05-14T12:11:36+02:00</time>
      </trkpt>
      <trkpt lat="46.8254" lon="4.92725">
        <ele>176.2002</ele>
        <time>2026-05-14T12:11:37+02:00</time>
      </trkpt>
      <trkpt lat="46.82544" lon="4.92731">
        <ele>176.10059</ele>
        <time>2026-05-14T12:11:38+02:00</time>
      </trkpt>
      <trkpt lat="46.82549" lon="4.92737">
        <ele>176</ele>
        <time>2026-05-14T12:11:39+02:00</time>
      </trkpt>
      <trkpt lat="46.82553" lon="4.92744">
        <ele>176.10059</ele>
        <time>2026-05-14T12:11:40+02:00</time>
      </trkpt>
      <trkpt lat="46.82557" lon="4.92749">
        <ele>176</ele>
        <time>2026-05-14T12:11:41+02:00</time>
      </trkpt>
      <trkpt lat="46.82561" lon="4.92756">
        <ele>175.90039</ele>
        <time>2026-05-14T12:11:42+02:00</time>
      </trkpt>
      <trkpt lat="46.82565" lon="4.92762">
        <ele>175.90039</ele>
        <time>2026-05-14T12:11:43+02:00</time>
      </trkpt>
      <trkpt lat="46.82569" lon="4.92768">
        <ele>175.7998</ele>
        <time>2026-05-14T12:11:44+02:00</time>
      </trkpt>
      <trkpt lat="46.82573" lon="4.92774">
        <ele>175.7998</ele>
        <time>2026-05-14T12:11:45+02:00</time>
      </trkpt>
      <trkpt lat="46.82578" lon="4.9278">
        <ele>175.7002</ele>
        <time>2026-05-14T12:11:46+02:00</time>
      </trkpt>
      <trkpt lat="46.82584" lon="4.92789">
        <ele>175.60059</ele>
        <time>2026-05-14T12:11:47+02:00</time>
      </trkpt>
      <trkpt lat="46.82586" lon="4.92792">
        <ele>175.7002</ele>
        <time>2026-05-14T12:11:48+02:00</time>
      </trkpt>
      <trkpt lat="46.8259" lon="4.92798">
        <ele>175.60059</ele>
        <time>2026-05-14T12:11:49+02:00</time>
      </trkpt>
      <trkpt lat="46.82596" lon="4.92806">
        <ele>175.60059</ele>
        <time>2026-05-14T12:11:50+02:00</time>
      </trkpt>
      <trkpt lat="46.82597" lon="4.92808">
        <ele>175.7002</ele>
        <time>2026-05-14T12:11:51+02:00</time>
      </trkpt>
      <trkpt lat="46.82601" lon="4.92813">
        <ele>175.7002</ele>
        <time>2026-05-14T12:11:52+02:00</time>
      </trkpt>
      <trkpt lat="46.82604" lon="4.92818">
        <ele>175.7998</ele>
        <time>2026-05-14T12:11:53+02:00</time>
      </trkpt>
      <trkpt lat="46.82607" lon="4.92822">
        <ele>175.7998</ele>
        <time>2026-05-14T12:11:54+02:00</time>
      </trkpt>
      <trkpt lat="46.8261" lon="4.92827">
        <ele>175.90039</ele>
        <time>2026-05-14T12:11:55+02:00</time>
      </trkpt>
      <trkpt lat="46.82614" lon="4.92832">
        <ele>176</ele>
        <time>2026-05-14T12:11:56+02:00</time>
      </trkpt>
      <trkpt lat="46.82622" lon="4.92845">
        <ele>176.10059</ele>
        <time>2026-05-14T12:11:57+02:00</time>
      </trkpt>
      <trkpt lat="46.82625" lon="4.92848">
        <ele>176.10059</ele>
        <time>2026-05-14T12:11:58+02:00</time>
      </trkpt>
      <trkpt lat="46.82627" lon="4.92852">
        <ele>176.2002</ele>
        <time>2026-05-14T12:11:59+02:00</time>
      </trkpt>
      <trkpt lat="46.8263" lon="4.92859">
        <ele>176.2002</ele>
        <time>2026-05-14T12:12:00+02:00</time>
      </trkpt>
      <trkpt lat="46.8263" lon="4.92862">
        <ele>176.2002</ele>
        <time>2026-05-14T12:12:01+02:00</time>
      </trkpt>
      <trkpt lat="46.8263" lon="4.92867">
        <ele>176.2002</ele>
        <time>2026-05-14T12:12:02+02:00</time>
      </trkpt>
      <trkpt lat="46.82628" lon="4.92873">
        <ele>176.2002</ele>
        <time>2026-05-14T12:12:03+02:00</time>
      </trkpt>
      <trkpt lat="46.82626" lon="4.92877">
        <ele>176.2002</ele>
        <time>2026-05-14T12:12:04+02:00</time>
      </trkpt>
      <trkpt lat="46.82623" lon="4.92882">
        <ele>176.10059</ele>
        <time>2026-05-14T12:12:05+02:00</time>
      </trkpt>
      <trkpt lat="46.82619" lon="4.92886">
        <ele>175.90039</ele>
        <time>2026-05-14T12:12:06+02:00</time>
      </trkpt>
      <trkpt lat="46.82615" lon="4.92893">
        <ele>175.90039</ele>
        <time>2026-05-14T12:12:07+02:00</time>
      </trkpt>
      <trkpt lat="46.82613" lon="4.92895">
        <ele>175.7998</ele>
        <time>2026-05-14T12:12:08+02:00</time>
      </trkpt>
      <trkpt lat="46.8261" lon="4.92899">
        <ele>175.7998</ele>
        <time>2026-05-14T12:12:09+02:00</time>
      </trkpt>
      <trkpt lat="46.82607" lon="4.92904">
        <ele>175.7002</ele>
        <time>2026-05-14T12:12:10+02:00</time>
      </trkpt>
      <trkpt lat="46.82601" lon="4.9291">
        <ele>175.5</ele>
        <time>2026-05-14T12:12:11+02:00</time>
      </trkpt>
      <trkpt lat="46.826" lon="4.92912">
        <ele>175.5</ele>
        <time>2026-05-14T12:12:12+02:00</time>
      </trkpt>
      <trkpt lat="46.82597" lon="4.92917">
        <ele>175.5</ele>
        <time>2026-05-14T12:12:13+02:00</time>
      </trkpt>
      <trkpt lat="46.82594" lon="4.9292">
        <ele>175.40039</ele>
        <time>2026-05-14T12:12:14+02:00</time>
      </trkpt>
      <trkpt lat="46.82591" lon="4.92924">
        <ele>175.40039</ele>
        <time>2026-05-14T12:12:15+02:00</time>
      </trkpt>
      <trkpt lat="46.82588" lon="4.92927">
        <ele>175.2998</ele>
        <time>2026-05-14T12:12:16+02:00</time>
      </trkpt>
      <trkpt lat="46.82586" lon="4.9293">
        <ele>175.2998</ele>
        <time>2026-05-14T12:12:17+02:00</time>
      </trkpt>
      <trkpt lat="46.82584" lon="4.92933">
        <ele>175.2002</ele>
        <time>2026-05-14T12:12:18+02:00</time>
      </trkpt>
      <trkpt lat="46.82583" lon="4.92934">
        <ele>175.2002</ele>
        <time>2026-05-14T12:12:19+02:00</time>
      </trkpt>
      <trkpt lat="46.82583" lon="4.92935">
        <ele>175.2002</ele>
        <time>2026-05-14T12:12:20+02:00</time>
      </trkpt>
      <trkpt lat="46.82583" lon="4.92935">
        <ele>175.2002</ele>
        <time>2026-05-14T12:12:21+02:00</time>
      </trkpt>
      <trkpt lat="46.82583" lon="4.92935">
        <ele>175.2002</ele>
        <time>2026-05-14T12:12:22+02:00</time>
      </trkpt>
      <trkpt lat="46.82583" lon="4.92935">
        <ele>175.2002</ele>
        <time>2026-05-14T12:12:23+02:00</time>
      </trkpt>
      <trkpt lat="46.82572" lon="4.92949">
        <ele>175</ele>
        <time>2026-05-14T12:16:23+02:00</time>
      </trkpt>
      <trkpt lat="46.8257" lon="4.92952">
        <ele>175</ele>
        <time>2026-05-14T12:16:24+02:00</time>
      </trkpt>
      <trkpt lat="46.82568" lon="4.92954">
        <ele>175</ele>
        <time>2026-05-14T12:16:25+02:00</time>
      </trkpt>
      <trkpt lat="46.82565" lon="4.92957">
        <ele>175</ele>
        <time>2026-05-14T12:16:26+02:00</time>
      </trkpt>
      <trkpt lat="46.82563" lon="4.92961">
        <ele>175</ele>
        <time>2026-05-14T12:16:27+02:00</time>
      </trkpt>
      <trkpt lat="46.8256" lon="4.92964">
        <ele>174.90039</ele>
        <time>2026-05-14T12:16:28+02:00</time>
      </trkpt>
      <trkpt lat="46.82557" lon="4.92967">
        <ele>174.90039</ele>
        <time>2026-05-14T12:16:29+02:00</time>
      </trkpt>
      <trkpt lat="46.82555" lon="4.92971">
        <ele>174.90039</ele>
        <time>2026-05-14T12:16:30+02:00</time>
      </trkpt>
      <trkpt lat="46.82552" lon="4.92974">
        <ele>174.90039</ele>
        <time>2026-05-14T12:16:31+02:00</time>
      </trkpt>
      <trkpt lat="46.82549" lon="4.92978">
        <ele>174.90039</ele>
        <time>2026-05-14T12:16:32+02:00</time>
      </trkpt>
      <trkpt lat="46.82546" lon="4.92981">
        <ele>174.90039</ele>
        <time>2026-05-14T12:16:33+02:00</time>
      </trkpt>
      <trkpt lat="46.82541" lon="4.92988">
        <ele>175</ele>
        <time>2026-05-14T12:16:34+02:00</time>
      </trkpt>
      <trkpt lat="46.82539" lon="4.9299">
        <ele>175</ele>
        <time>2026-05-14T12:16:35+02:00</time>
      </trkpt>
      <trkpt lat="46.82537" lon="4.92994">
        <ele>174.90039</ele>
        <time>2026-05-14T12:16:36+02:00</time>
      </trkpt>
      <trkpt lat="46.82534" lon="4.92998">
        <ele>175</ele>
        <time>2026-05-14T12:16:37+02:00</time>
      </trkpt>
      <trkpt lat="46.82532" lon="4.93">
        <ele>175</ele>
        <time>2026-05-14T12:16:38+02:00</time>
      </trkpt>
      <trkpt lat="46.82528" lon="4.93005">
        <ele>175</ele>
        <time>2026-05-14T12:16:39+02:00</time>
      </trkpt>
      <trkpt lat="46.82525" lon="4.9301">
        <ele>175</ele>
        <time>2026-05-14T12:16:40+02:00</time>
      </trkpt>
      <trkpt lat="46.82521" lon="4.93016">
        <ele>175</ele>
        <time>2026-05-14T12:16:41+02:00</time>
      </trkpt>
      <trkpt lat="46.8252" lon="4.93018">
        <ele>175</ele>
        <time>2026-05-14T12:16:42+02:00</time>
      </trkpt>
      <trkpt lat="46.82517" lon="4.93022">
        <ele>175</ele>
        <time>2026-05-14T12:16:43+02:00</time>
      </trkpt>
      <trkpt lat="46.82514" lon="4.93026">
        <ele>175</ele>
        <time>2026-05-14T12:16:44+02:00</time>
      </trkpt>
      <trkpt lat="46.82511" lon="4.9303">
        <ele>175</ele>
        <time>2026-05-14T12:16:45+02:00</time>
      </trkpt>
      <trkpt lat="46.82508" lon="4.93034">
        <ele>175</ele>
        <time>2026-05-14T12:16:46+02:00</time>
      </trkpt>
      <trkpt lat="46.82504" lon="4.93039">
        <ele>175</ele>
        <time>2026-05-14T12:16:47+02:00</time>
      </trkpt>
      <trkpt lat="46.82499" lon="4.93046">
        <ele>175.10059</ele>
        <time>2026-05-14T12:16:48+02:00</time>
      </trkpt>
      <trkpt lat="46.82497" lon="4.93048">
        <ele>175.10059</ele>
        <time>2026-05-14T12:16:49+02:00</time>
      </trkpt>
      <trkpt lat="46.82494" lon="4.93052">
        <ele>175.10059</ele>
        <time>2026-05-14T12:16:50+02:00</time>
      </trkpt>
      <trkpt lat="46.82488" lon="4.93059">
        <ele>175.10059</ele>
        <time>2026-05-14T12:16:51+02:00</time>
      </trkpt>
      <trkpt lat="46.82486" lon="4.93062">
        <ele>175.10059</ele>
        <time>2026-05-14T12:16:52+02:00</time>
      </trkpt>
      <trkpt lat="46.82482" lon="4.93067">
        <ele>175.2002</ele>
        <time>2026-05-14T12:16:53+02:00</time>
      </trkpt>
      <trkpt lat="46.82477" lon="4.93073">
        <ele>175.2002</ele>
        <time>2026-05-14T12:16:54+02:00</time>
      </trkpt>
      <trkpt lat="46.82472" lon="4.93079">
        <ele>175.2998</ele>
        <time>2026-05-14T12:16:55+02:00</time>
      </trkpt>
      <trkpt lat="46.82467" lon="4.93084">
        <ele>175.2998</ele>
        <time>2026-05-14T12:16:56+02:00</time>
      </trkpt>
      <trkpt lat="46.82463" lon="4.9309">
        <ele>175.2998</ele>
        <time>2026-05-14T12:16:57+02:00</time>
      </trkpt>
      <trkpt lat="46.82456" lon="4.93098">
        <ele>175.2998</ele>
        <time>2026-05-14T12:16:58+02:00</time>
      </trkpt>
      <trkpt lat="46.82453" lon="4.93101">
        <ele>175.40039</ele>
        <time>2026-05-14T12:16:59+02:00</time>
      </trkpt>
      <trkpt lat="46.82449" lon="4.93106">
        <ele>175.40039</ele>
        <time>2026-05-14T12:17:00+02:00</time>
      </trkpt>
      <trkpt lat="46.82444" lon="4.93111">
        <ele>175.40039</ele>
        <time>2026-05-14T12:17:01+02:00</time>
      </trkpt>
      <trkpt lat="46.82437" lon="4.93119">
        <ele>175.40039</ele>
        <time>2026-05-14T12:17:02+02:00</time>
      </trkpt>
      <trkpt lat="46.82435" lon="4.93122">
        <ele>175.40039</ele>
        <time>2026-05-14T12:17:03+02:00</time>
      </trkpt>
      <trkpt lat="46.82431" lon="4.93127">
        <ele>175.2998</ele>
        <time>2026-05-14T12:17:04+02:00</time>
      </trkpt>
      <trkpt lat="46.82427" lon="4.93132">
        <ele>175.2002</ele>
        <time>2026-05-14T12:17:05+02:00</time>
      </trkpt>
      <trkpt lat="46.8242" lon="4.9314">
        <ele>175.2998</ele>
        <time>2026-05-14T12:17:06+02:00</time>
      </trkpt>
      <trkpt lat="46.82418" lon="4.93142">
        <ele>175.2002</ele>
        <time>2026-05-14T12:17:07+02:00</time>
      </trkpt>
      <trkpt lat="46.82414" lon="4.93148">
        <ele>175.2002</ele>
        <time>2026-05-14T12:17:08+02:00</time>
      </trkpt>
      <trkpt lat="46.82409" lon="4.93153">
        <ele>175.10059</ele>
        <time>2026-05-14T12:17:09+02:00</time>
      </trkpt>
      <trkpt lat="46.82403" lon="4.93161">
        <ele>175.10059</ele>
        <time>2026-05-14T12:17:10+02:00</time>
      </trkpt>
      <trkpt lat="46.82401" lon="4.93163">
        <ele>175.10059</ele>
        <time>2026-05-14T12:17:11+02:00</time>
      </trkpt>
      <trkpt lat="46.82396" lon="4.93168">
        <ele>175</ele>
        <time>2026-05-14T12:17:12+02:00</time>
      </trkpt>
      <trkpt lat="46.8239" lon="4.93177">
        <ele>175</ele>
        <time>2026-05-14T12:17:13+02:00</time>
      </trkpt>
      <trkpt lat="46.82388" lon="4.93179">
        <ele>175</ele>
        <time>2026-05-14T12:17:14+02:00</time>
      </trkpt>
      <trkpt lat="46.82384" lon="4.93185">
        <ele>175</ele>
        <time>2026-05-14T12:17:15+02:00</time>
      </trkpt>
      <trkpt lat="46.8238" lon="4.9319">
        <ele>175</ele>
        <time>2026-05-14T12:17:16+02:00</time>
      </trkpt>
      <trkpt lat="46.82373" lon="4.93199">
        <ele>175</ele>
        <time>2026-05-14T12:17:17+02:00</time>
      </trkpt>
      <trkpt lat="46.82371" lon="4.93202">
        <ele>175</ele>
        <time>2026-05-14T12:17:18+02:00</time>
      </trkpt>
      <trkpt lat="46.82367" lon="4.93207">
        <ele>175</ele>
        <time>2026-05-14T12:17:19+02:00</time>
      </trkpt>
      <trkpt lat="46.82362" lon="4.93213">
        <ele>175</ele>
        <time>2026-05-14T12:17:20+02:00</time>
      </trkpt>
      <trkpt lat="46.82359" lon="4.9322">
        <ele>175</ele>
        <time>2026-05-14T12:17:21+02:00</time>
      </trkpt>
      <trkpt lat="46.82354" lon="4.93226">
        <ele>175</ele>
        <time>2026-05-14T12:17:22+02:00</time>
      </trkpt>
      <trkpt lat="46.82351" lon="4.93232">
        <ele>175</ele>
        <time>2026-05-14T12:17:23+02:00</time>
      </trkpt>
      <trkpt lat="46.82346" lon="4.93242">
        <ele>175</ele>
        <time>2026-05-14T12:17:24+02:00</time>
      </trkpt>
      <trkpt lat="46.82344" lon="4.93246">
        <ele>175.10059</ele>
        <time>2026-05-14T12:17:25+02:00</time>
      </trkpt>
      <trkpt lat="46.82341" lon="4.93253">
        <ele>175.10059</ele>
        <time>2026-05-14T12:17:26+02:00</time>
      </trkpt>
      <trkpt lat="46.82336" lon="4.93264">
        <ele>175.2002</ele>
        <time>2026-05-14T12:17:27+02:00</time>
      </trkpt>
      <trkpt lat="46.82334" lon="4.93267">
        <ele>175.2002</ele>
        <time>2026-05-14T12:17:28+02:00</time>
      </trkpt>
      <trkpt lat="46.82331" lon="4.93274">
        <ele>175.2002</ele>
        <time>2026-05-14T12:17:29+02:00</time>
      </trkpt>
      <trkpt lat="46.82329" lon="4.9328">
        <ele>175.2998</ele>
        <time>2026-05-14T12:17:30+02:00</time>
      </trkpt>
      <trkpt lat="46.82325" lon="4.93287">
        <ele>175.40039</ele>
        <time>2026-05-14T12:17:31+02:00</time>
      </trkpt>
      <trkpt lat="46.82323" lon="4.93293">
        <ele>175.40039</ele>
        <time>2026-05-14T12:17:32+02:00</time>
      </trkpt>
      <trkpt lat="46.82321" lon="4.93299">
        <ele>175.5</ele>
        <time>2026-05-14T12:17:33+02:00</time>
      </trkpt>
      <trkpt lat="46.82317" lon="4.93308">
        <ele>175.60059</ele>
        <time>2026-05-14T12:17:34+02:00</time>
      </trkpt>
      <trkpt lat="46.82316" lon="4.93311">
        <ele>175.60059</ele>
        <time>2026-05-14T12:17:35+02:00</time>
      </trkpt>
      <trkpt lat="46.82315" lon="4.93317">
        <ele>175.7002</ele>
        <time>2026-05-14T12:17:36+02:00</time>
      </trkpt>
      <trkpt lat="46.82316" lon="4.93324">
        <ele>175.7998</ele>
        <time>2026-05-14T12:17:37+02:00</time>
      </trkpt>
      <trkpt lat="46.82317" lon="4.93331">
        <ele>175.90039</ele>
        <time>2026-05-14T12:17:38+02:00</time>
      </trkpt>
      <trkpt lat="46.82321" lon="4.93337">
        <ele>175.90039</ele>
        <time>2026-05-14T12:17:39+02:00</time>
      </trkpt>
      <trkpt lat="46.82324" lon="4.93343">
        <ele>175.90039</ele>
        <time>2026-05-14T12:17:40+02:00</time>
      </trkpt>
      <trkpt lat="46.82327" lon="4.93349">
        <ele>175.90039</ele>
        <time>2026-05-14T12:17:41+02:00</time>
      </trkpt>
      <trkpt lat="46.82331" lon="4.93356">
        <ele>175.90039</ele>
        <time>2026-05-14T12:17:42+02:00</time>
      </trkpt>
      <trkpt lat="46.82335" lon="4.93362">
        <ele>175.90039</ele>
        <time>2026-05-14T12:17:43+02:00</time>
      </trkpt>
      <trkpt lat="46.82341" lon="4.9337">
        <ele>175.7998</ele>
        <time>2026-05-14T12:17:44+02:00</time>
      </trkpt>
      <trkpt lat="46.82341" lon="4.9337">
        <ele>175.7998</ele>
        <time>2026-05-14T12:17:45+02:00</time>
      </trkpt>
      <trkpt lat="46.82347" lon="4.93378">
        <ele>175.7998</ele>
        <time>2026-05-14T12:17:46+02:00</time>
      </trkpt>
      <trkpt lat="46.82352" lon="4.93383">
        <ele>175.7002</ele>
        <time>2026-05-14T12:17:47+02:00</time>
      </trkpt>
      <trkpt lat="46.82357" lon="4.93388">
        <ele>175.60059</ele>
        <time>2026-05-14T12:17:48+02:00</time>
      </trkpt>
      <trkpt lat="46.82362" lon="4.93393">
        <ele>175.60059</ele>
        <time>2026-05-14T12:17:49+02:00</time>
      </trkpt>
      <trkpt lat="46.82366" lon="4.93399">
        <ele>175.60059</ele>
        <time>2026-05-14T12:17:50+02:00</time>
      </trkpt>
      <trkpt lat="46.82369" lon="4.93406">
        <ele>175.5</ele>
        <time>2026-05-14T12:17:51+02:00</time>
      </trkpt>
      <trkpt lat="46.82372" lon="4.93414">
        <ele>175.5</ele>
        <time>2026-05-14T12:17:52+02:00</time>
      </trkpt>
      <trkpt lat="46.82375" lon="4.93421">
        <ele>175.5</ele>
        <time>2026-05-14T12:17:53+02:00</time>
      </trkpt>
      <trkpt lat="46.8238" lon="4.93432">
        <ele>175.5</ele>
        <time>2026-05-14T12:17:54+02:00</time>
      </trkpt>
      <trkpt lat="46.8238" lon="4.93432">
        <ele>175.5</ele>
        <time>2026-05-14T12:17:55+02:00</time>
      </trkpt>
      <trkpt lat="46.82385" lon="4.93444">
        <ele>175.60059</ele>
        <time>2026-05-14T12:17:56+02:00</time>
      </trkpt>
      <trkpt lat="46.82388" lon="4.93451">
        <ele>175.60059</ele>
        <time>2026-05-14T12:17:57+02:00</time>
      </trkpt>
      <trkpt lat="46.82393" lon="4.93462">
        <ele>175.7002</ele>
        <time>2026-05-14T12:17:58+02:00</time>
      </trkpt>
      <trkpt lat="46.82394" lon="4.93466">
        <ele>175.7002</ele>
        <time>2026-05-14T12:17:59+02:00</time>
      </trkpt>
      <trkpt lat="46.82398" lon="4.93473">
        <ele>175.7002</ele>
        <time>2026-05-14T12:18:00+02:00</time>
      </trkpt>
      <trkpt lat="46.82401" lon="4.9348">
        <ele>175.7998</ele>
        <time>2026-05-14T12:18:01+02:00</time>
      </trkpt>
      <trkpt lat="46.82404" lon="4.93487">
        <ele>175.7998</ele>
        <time>2026-05-14T12:18:02+02:00</time>
      </trkpt>
      <trkpt lat="46.82407" lon="4.93495">
        <ele>175.90039</ele>
        <time>2026-05-14T12:18:03+02:00</time>
      </trkpt>
      <trkpt lat="46.82411" lon="4.93501">
        <ele>175.90039</ele>
        <time>2026-05-14T12:18:04+02:00</time>
      </trkpt>
      <trkpt lat="46.82416" lon="4.93512">
        <ele>175.7998</ele>
        <time>2026-05-14T12:18:05+02:00</time>
      </trkpt>
      <trkpt lat="46.82417" lon="4.93516">
        <ele>175.7998</ele>
        <time>2026-05-14T12:18:06+02:00</time>
      </trkpt>
      <trkpt lat="46.8242" lon="4.93523">
        <ele>175.7998</ele>
        <time>2026-05-14T12:18:07+02:00</time>
      </trkpt>
      <trkpt lat="46.82424" lon="4.93531">
        <ele>175.7998</ele>
        <time>2026-05-14T12:18:08+02:00</time>
      </trkpt>
      <trkpt lat="46.82427" lon="4.93538">
        <ele>175.7002</ele>
        <time>2026-05-14T12:18:09+02:00</time>
      </trkpt>
      <trkpt lat="46.8243" lon="4.93546">
        <ele>175.60059</ele>
        <time>2026-05-14T12:18:10+02:00</time>
      </trkpt>
      <trkpt lat="46.82433" lon="4.93553">
        <ele>175.5</ele>
        <time>2026-05-14T12:18:11+02:00</time>
      </trkpt>
      <trkpt lat="46.82437" lon="4.9356">
        <ele>175.5</ele>
        <time>2026-05-14T12:18:12+02:00</time>
      </trkpt>
      <trkpt lat="46.8244" lon="4.93567">
        <ele>175.40039</ele>
        <time>2026-05-14T12:18:13+02:00</time>
      </trkpt>
      <trkpt lat="46.82443" lon="4.93575">
        <ele>175.40039</ele>
        <time>2026-05-14T12:18:14+02:00</time>
      </trkpt>
      <trkpt lat="46.82448" lon="4.93586">
        <ele>175.2998</ele>
        <time>2026-05-14T12:18:15+02:00</time>
      </trkpt>
      <trkpt lat="46.82449" lon="4.9359">
        <ele>175.2998</ele>
        <time>2026-05-14T12:18:16+02:00</time>
      </trkpt>
      <trkpt lat="46.82453" lon="4.93597">
        <ele>175.2002</ele>
        <time>2026-05-14T12:18:17+02:00</time>
      </trkpt>
      <trkpt lat="46.82456" lon="4.93605">
        <ele>175.10059</ele>
        <time>2026-05-14T12:18:18+02:00</time>
      </trkpt>
      <trkpt lat="46.82459" lon="4.93613">
        <ele>175.10059</ele>
        <time>2026-05-14T12:18:19+02:00</time>
      </trkpt>
      <trkpt lat="46.82462" lon="4.93621">
        <ele>175.10059</ele>
        <time>2026-05-14T12:18:20+02:00</time>
      </trkpt>
      <trkpt lat="46.82466" lon="4.93629">
        <ele>175.10059</ele>
        <time>2026-05-14T12:18:21+02:00</time>
      </trkpt>
      <trkpt lat="46.82471" lon="4.93641">
        <ele>175.10059</ele>
        <time>2026-05-14T12:18:22+02:00</time>
      </trkpt>
      <trkpt lat="46.82472" lon="4.93645">
        <ele>175.10059</ele>
        <time>2026-05-14T12:18:23+02:00</time>
      </trkpt>
      <trkpt lat="46.82476" lon="4.93653">
        <ele>175.10059</ele>
        <time>2026-05-14T12:18:24+02:00</time>
      </trkpt>
      <trkpt lat="46.82481" lon="4.93664">
        <ele>175</ele>
        <time>2026-05-14T12:18:25+02:00</time>
      </trkpt>
      <trkpt lat="46.82481" lon="4.93664">
        <ele>175</ele>
        <time>2026-05-14T12:18:26+02:00</time>
      </trkpt>
      <trkpt lat="46.82486" lon="4.93676">
        <ele>175</ele>
        <time>2026-05-14T12:18:27+02:00</time>
      </trkpt>
      <trkpt lat="46.82489" lon="4.93684">
        <ele>174.90039</ele>
        <time>2026-05-14T12:18:28+02:00</time>
      </trkpt>
      <trkpt lat="46.82494" lon="4.93696">
        <ele>174.7998</ele>
        <time>2026-05-14T12:18:29+02:00</time>
      </trkpt>
      <trkpt lat="46.82495" lon="4.937">
        <ele>174.7998</ele>
        <time>2026-05-14T12:18:30+02:00</time>
      </trkpt>
      <trkpt lat="46.82498" lon="4.93708">
        <ele>174.7002</ele>
        <time>2026-05-14T12:18:31+02:00</time>
      </trkpt>
      <trkpt lat="46.82501" lon="4.93716">
        <ele>174.60059</ele>
        <time>2026-05-14T12:18:32+02:00</time>
      </trkpt>
      <trkpt lat="46.82504" lon="4.93724">
        <ele>174.60059</ele>
        <time>2026-05-14T12:18:33+02:00</time>
      </trkpt>
      <trkpt lat="46.82508" lon="4.93731">
        <ele>174.60059</ele>
        <time>2026-05-14T12:18:34+02:00</time>
      </trkpt>
      <trkpt lat="46.82511" lon="4.93739">
        <ele>174.60059</ele>
        <time>2026-05-14T12:18:35+02:00</time>
      </trkpt>
      <trkpt lat="46.82517" lon="4.9375">
        <ele>174.7002</ele>
        <time>2026-05-14T12:18:36+02:00</time>
      </trkpt>
      <trkpt lat="46.82519" lon="4.93753">
        <ele>174.7002</ele>
        <time>2026-05-14T12:18:37+02:00</time>
      </trkpt>
      <trkpt lat="46.82524" lon="4.93758">
        <ele>174.7998</ele>
        <time>2026-05-14T12:18:38+02:00</time>
      </trkpt>
      <trkpt lat="46.82533" lon="4.93765">
        <ele>175.10059</ele>
        <time>2026-05-14T12:18:39+02:00</time>
      </trkpt>
      <trkpt lat="46.82536" lon="4.93767">
        <ele>175.10059</ele>
        <time>2026-05-14T12:18:40+02:00</time>
      </trkpt>
      <trkpt lat="46.82542" lon="4.9377">
        <ele>175.2998</ele>
        <time>2026-05-14T12:18:41+02:00</time>
      </trkpt>
      <trkpt lat="46.82548" lon="4.93774">
        <ele>175.40039</ele>
        <time>2026-05-14T12:18:42+02:00</time>
      </trkpt>
      <trkpt lat="46.82557" lon="4.93778">
        <ele>175.60059</ele>
        <time>2026-05-14T12:18:43+02:00</time>
      </trkpt>
      <trkpt lat="46.8256" lon="4.9378">
        <ele>175.60059</ele>
        <time>2026-05-14T12:18:44+02:00</time>
      </trkpt>
      <trkpt lat="46.82566" lon="4.93783">
        <ele>175.7002</ele>
        <time>2026-05-14T12:18:45+02:00</time>
      </trkpt>
      <trkpt lat="46.82572" lon="4.93786">
        <ele>175.7998</ele>
        <time>2026-05-14T12:18:46+02:00</time>
      </trkpt>
      <trkpt lat="46.82578" lon="4.9379">
        <ele>175.7998</ele>
        <time>2026-05-14T12:18:47+02:00</time>
      </trkpt>
      <trkpt lat="46.82584" lon="4.93793">
        <ele>175.7998</ele>
        <time>2026-05-14T12:18:48+02:00</time>
      </trkpt>
      <trkpt lat="46.82589" lon="4.93797">
        <ele>175.7998</ele>
        <time>2026-05-14T12:18:49+02:00</time>
      </trkpt>
      <trkpt lat="46.82597" lon="4.93803">
        <ele>175.7998</ele>
        <time>2026-05-14T12:18:50+02:00</time>
      </trkpt>
      <trkpt lat="46.82599" lon="4.93805">
        <ele>175.7998</ele>
        <time>2026-05-14T12:18:51+02:00</time>
      </trkpt>
      <trkpt lat="46.82604" lon="4.93808">
        <ele>175.7002</ele>
        <time>2026-05-14T12:18:52+02:00</time>
      </trkpt>
      <trkpt lat="46.82609" lon="4.93811">
        <ele>175.60059</ele>
        <time>2026-05-14T12:18:53+02:00</time>
      </trkpt>
      <trkpt lat="46.82614" lon="4.93814">
        <ele>175.60059</ele>
        <time>2026-05-14T12:18:54+02:00</time>
      </trkpt>
      <trkpt lat="46.82618" lon="4.93817">
        <ele>175.60059</ele>
        <time>2026-05-14T12:18:55+02:00</time>
      </trkpt>
      <trkpt lat="46.82622" lon="4.93821">
        <ele>175.5</ele>
        <time>2026-05-14T12:18:56+02:00</time>
      </trkpt>
      <trkpt lat="46.82623" lon="4.93828">
        <ele>175.5</ele>
        <time>2026-05-14T12:18:57+02:00</time>
      </trkpt>
      <trkpt lat="46.82623" lon="4.93828">
        <ele>175.5</ele>
        <time>2026-05-14T12:18:58+02:00</time>
      </trkpt>
      <trkpt lat="46.8262" lon="4.93835">
        <ele>175.60059</ele>
        <time>2026-05-14T12:18:59+02:00</time>
      </trkpt>
      <trkpt lat="46.82617" lon="4.93838">
        <ele>175.60059</ele>
        <time>2026-05-14T12:19:00+02:00</time>
      </trkpt>
      <trkpt lat="46.82614" lon="4.93842">
        <ele>175.60059</ele>
        <time>2026-05-14T12:19:01+02:00</time>
      </trkpt>
      <trkpt lat="46.8261" lon="4.93848">
        <ele>175.60059</ele>
        <time>2026-05-14T12:19:02+02:00</time>
      </trkpt>
      <trkpt lat="46.82607" lon="4.93853">
        <ele>175.60059</ele>
        <time>2026-05-14T12:19:03+02:00</time>
      </trkpt>
      <trkpt lat="46.82601" lon="4.93862">
        <ele>175.60059</ele>
        <time>2026-05-14T12:19:04+02:00</time>
      </trkpt>
      <trkpt lat="46.82599" lon="4.93864">
        <ele>175.60059</ele>
        <time>2026-05-14T12:19:05+02:00</time>
      </trkpt>
      <trkpt lat="46.82596" lon="4.93869">
        <ele>175.5</ele>
        <time>2026-05-14T12:19:06+02:00</time>
      </trkpt>
      <trkpt lat="46.8259" lon="4.93877">
        <ele>175.5</ele>
        <time>2026-05-14T12:19:07+02:00</time>
      </trkpt>
      <trkpt lat="46.82589" lon="4.9388">
        <ele>175.40039</ele>
        <time>2026-05-14T12:19:08+02:00</time>
      </trkpt>
      <trkpt lat="46.82585" lon="4.93885">
        <ele>175.40039</ele>
        <time>2026-05-14T12:19:09+02:00</time>
      </trkpt>
      <trkpt lat="46.82581" lon="4.93891">
        <ele>175.2998</ele>
        <time>2026-05-14T12:19:10+02:00</time>
      </trkpt>
      <trkpt lat="46.82576" lon="4.93899">
        <ele>175.10059</ele>
        <time>2026-05-14T12:19:11+02:00</time>
      </trkpt>
      <trkpt lat="46.82574" lon="4.93902">
        <ele>175.10059</ele>
        <time>2026-05-14T12:19:12+02:00</time>
      </trkpt>
      <trkpt lat="46.8257" lon="4.93908">
        <ele>175</ele>
        <time>2026-05-14T12:19:13+02:00</time>
      </trkpt>
      <trkpt lat="46.82566" lon="4.93913">
        <ele>174.7998</ele>
        <time>2026-05-14T12:19:14+02:00</time>
      </trkpt>
      <trkpt lat="46.82563" lon="4.93919">
        <ele>174.7998</ele>
        <time>2026-05-14T12:19:15+02:00</time>
      </trkpt>
      <trkpt lat="46.82559" lon="4.93925">
        <ele>174.60059</ele>
        <time>2026-05-14T12:19:16+02:00</time>
      </trkpt>
      <trkpt lat="46.82555" lon="4.93931">
        <ele>174.5</ele>
        <time>2026-05-14T12:19:17+02:00</time>
      </trkpt>
      <trkpt lat="46.82549" lon="4.9394">
        <ele>174.2998</ele>
        <time>2026-05-14T12:19:18+02:00</time>
      </trkpt>
      <trkpt lat="46.82548" lon="4.93943">
        <ele>174.2998</ele>
        <time>2026-05-14T12:19:19+02:00</time>
      </trkpt>
      <trkpt lat="46.82544" lon="4.93949">
        <ele>174.2002</ele>
        <time>2026-05-14T12:19:20+02:00</time>
      </trkpt>
      <trkpt lat="46.82539" lon="4.93959">
        <ele>174</ele>
        <time>2026-05-14T12:19:21+02:00</time>
      </trkpt>
      <trkpt lat="46.82539" lon="4.93959">
        <ele>174</ele>
        <time>2026-05-14T12:19:22+02:00</time>
      </trkpt>
      <trkpt lat="46.82533" lon="4.93968">
        <ele>173.90039</ele>
        <time>2026-05-14T12:19:23+02:00</time>
      </trkpt>
      <trkpt lat="46.82529" lon="4.93973">
        <ele>173.7002</ele>
        <time>2026-05-14T12:19:24+02:00</time>
      </trkpt>
      <trkpt lat="46.82524" lon="4.93982">
        <ele>173.5</ele>
        <time>2026-05-14T12:19:25+02:00</time>
      </trkpt>
      <trkpt lat="46.82522" lon="4.93985">
        <ele>173.5</ele>
        <time>2026-05-14T12:19:26+02:00</time>
      </trkpt>
      <trkpt lat="46.82519" lon="4.93991">
        <ele>173.10059</ele>
        <time>2026-05-14T12:19:27+02:00</time>
      </trkpt>
      <trkpt lat="46.82515" lon="4.93998">
        <ele>173.10059</ele>
        <time>2026-05-14T12:19:28+02:00</time>
      </trkpt>
      <trkpt lat="46.82515" lon="4.93998">
        <ele>173.10059</ele>
        <time>2026-05-14T12:19:29+02:00</time>
      </trkpt>
      <trkpt lat="46.82512" lon="4.94004">
        <ele>172.7002</ele>
        <time>2026-05-14T12:19:30+02:00</time>
      </trkpt>
      <trkpt lat="46.82511" lon="4.94008">
        <ele>172.5</ele>
        <time>2026-05-14T12:19:31+02:00</time>
      </trkpt>
      <trkpt lat="46.82511" lon="4.94013">
        <ele>172.5</ele>
        <time>2026-05-14T12:19:32+02:00</time>
      </trkpt>
      <trkpt lat="46.82513" lon="4.94019">
        <ele>172.2998</ele>
        <time>2026-05-14T12:19:33+02:00</time>
      </trkpt>
      <trkpt lat="46.82516" lon="4.94023">
        <ele>172.5</ele>
        <time>2026-05-14T12:19:34+02:00</time>
      </trkpt>
      <trkpt lat="46.8252" lon="4.94028">
        <ele>172.2998</ele>
        <time>2026-05-14T12:19:35+02:00</time>
      </trkpt>
      <trkpt lat="46.82524" lon="4.94032">
        <ele>172.5</ele>
        <time>2026-05-14T12:19:36+02:00</time>
      </trkpt>
      <trkpt lat="46.82528" lon="4.94037">
        <ele>172.60059</ele>
        <time>2026-05-14T12:19:37+02:00</time>
      </trkpt>
      <trkpt lat="46.82532" lon="4.94042">
        <ele>172.60059</ele>
        <time>2026-05-14T12:19:38+02:00</time>
      </trkpt>
      <trkpt lat="46.82538" lon="4.9405">
        <ele>172.7998</ele>
        <time>2026-05-14T12:19:39+02:00</time>
      </trkpt>
      <trkpt lat="46.8254" lon="4.94052">
        <ele>172.5</ele>
        <time>2026-05-14T12:19:40+02:00</time>
      </trkpt>
      <trkpt lat="46.82545" lon="4.94057">
        <ele>172.7002</ele>
        <time>2026-05-14T12:19:41+02:00</time>
      </trkpt>
      <trkpt lat="46.82552" lon="4.94065">
        <ele>172.60059</ele>
        <time>2026-05-14T12:19:42+02:00</time>
      </trkpt>
      <trkpt lat="46.82554" lon="4.94068">
        <ele>172.40039</ele>
        <time>2026-05-14T12:19:43+02:00</time>
      </trkpt>
      <trkpt lat="46.82559" lon="4.94073">
        <ele>172.60059</ele>
        <time>2026-05-14T12:19:44+02:00</time>
      </trkpt>
      <trkpt lat="46.82564" lon="4.94079">
        <ele>172.5</ele>
        <time>2026-05-14T12:19:45+02:00</time>
      </trkpt>
      <trkpt lat="46.8257" lon="4.94087">
        <ele>172.2002</ele>
        <time>2026-05-14T12:19:46+02:00</time>
      </trkpt>
      <trkpt lat="46.82573" lon="4.9409">
        <ele>172.2998</ele>
        <time>2026-05-14T12:19:47+02:00</time>
      </trkpt>
      <trkpt lat="46.82578" lon="4.94095">
        <ele>171.90039</ele>
        <time>2026-05-14T12:19:48+02:00</time>
      </trkpt>
      <trkpt lat="46.82583" lon="4.94101">
        <ele>172</ele>
        <time>2026-05-14T12:19:49+02:00</time>
      </trkpt>
      <trkpt lat="46.82587" lon="4.94106">
        <ele>171.90039</ele>
        <time>2026-05-14T12:19:50+02:00</time>
      </trkpt>
      <trkpt lat="46.82592" lon="4.94112">
        <ele>172</ele>
        <time>2026-05-14T12:19:51+02:00</time>
      </trkpt>
      <trkpt lat="46.82597" lon="4.94118">
        <ele>172.2002</ele>
        <time>2026-05-14T12:19:52+02:00</time>
      </trkpt>
      <trkpt lat="46.82604" lon="4.94126">
        <ele>172.10059</ele>
        <time>2026-05-14T12:19:53+02:00</time>
      </trkpt>
      <trkpt lat="46.82606" lon="4.94129">
        <ele>171.90039</ele>
        <time>2026-05-14T12:19:54+02:00</time>
      </trkpt>
      <trkpt lat="46.8261" lon="4.94135">
        <ele>172.10059</ele>
        <time>2026-05-14T12:19:55+02:00</time>
      </trkpt>
      <trkpt lat="46.82615" lon="4.9414">
        <ele>172.60059</ele>
        <time>2026-05-14T12:19:56+02:00</time>
      </trkpt>
      <trkpt lat="46.8262" lon="4.94146">
        <ele>172.7998</ele>
        <time>2026-05-14T12:19:57+02:00</time>
      </trkpt>
      <trkpt lat="46.82624" lon="4.94153">
        <ele>173.7998</ele>
        <time>2026-05-14T12:19:58+02:00</time>
      </trkpt>
      <trkpt lat="46.82629" lon="4.94159">
        <ele>175.2002</ele>
        <time>2026-05-14T12:19:59+02:00</time>
      </trkpt>
      <trkpt lat="46.82634" lon="4.94165">
        <ele>175.60059</ele>
        <time>2026-05-14T12:20:00+02:00</time>
      </trkpt>
      <trkpt lat="46.82638" lon="4.94172">
        <ele>175</ele>
        <time>2026-05-14T12:20:01+02:00</time>
      </trkpt>
      <trkpt lat="46.82643" lon="4.94178">
        <ele>175</ele>
        <time>2026-05-14T12:20:02+02:00</time>
      </trkpt>
      <trkpt lat="46.82647" lon="4.94184">
        <ele>174.90039</ele>
        <time>2026-05-14T12:20:03+02:00</time>
      </trkpt>
      <trkpt lat="46.82655" lon="4.94193">
        <ele>175.5</ele>
        <time>2026-05-14T12:20:04+02:00</time>
      </trkpt>
      <trkpt lat="46.82657" lon="4.94196">
        <ele>175.60059</ele>
        <time>2026-05-14T12:20:05+02:00</time>
      </trkpt>
      <trkpt lat="46.82662" lon="4.94203">
        <ele>175.5</ele>
        <time>2026-05-14T12:20:06+02:00</time>
      </trkpt>
      <trkpt lat="46.82668" lon="4.94212">
        <ele>175.2002</ele>
        <time>2026-05-14T12:20:07+02:00</time>
      </trkpt>
      <trkpt lat="46.82671" lon="4.94216">
        <ele>174.90039</ele>
        <time>2026-05-14T12:20:08+02:00</time>
      </trkpt>
      <trkpt lat="46.82676" lon="4.94222">
        <ele>175.7002</ele>
        <time>2026-05-14T12:20:09+02:00</time>
      </trkpt>
      <trkpt lat="46.8268" lon="4.94228">
        <ele>176</ele>
        <time>2026-05-14T12:20:10+02:00</time>
      </trkpt>
      <trkpt lat="46.82688" lon="4.94238">
        <ele>175.10059</ele>
        <time>2026-05-14T12:20:11+02:00</time>
      </trkpt>
      <trkpt lat="46.8269" lon="4.94241">
        <ele>174</ele>
        <time>2026-05-14T12:20:12+02:00</time>
      </trkpt>
      <trkpt lat="46.82694" lon="4.94247">
        <ele>174</ele>
        <time>2026-05-14T12:20:13+02:00</time>
      </trkpt>
      <trkpt lat="46.82701" lon="4.94256">
        <ele>173.2998</ele>
        <time>2026-05-14T12:20:14+02:00</time>
      </trkpt>
      <trkpt lat="46.82704" lon="4.9426">
        <ele>173.60059</ele>
        <time>2026-05-14T12:20:15+02:00</time>
      </trkpt>
      <trkpt lat="46.82708" lon="4.94266">
        <ele>173.10059</ele>
        <time>2026-05-14T12:20:16+02:00</time>
      </trkpt>
      <trkpt lat="46.82712" lon="4.94272">
        <ele>173.2998</ele>
        <time>2026-05-14T12:20:17+02:00</time>
      </trkpt>
      <trkpt lat="46.82719" lon="4.94282">
        <ele>172.60059</ele>
        <time>2026-05-14T12:20:18+02:00</time>
      </trkpt>
      <trkpt lat="46.82721" lon="4.94285">
        <ele>173</ele>
        <time>2026-05-14T12:20:19+02:00</time>
      </trkpt>
      <trkpt lat="46.82726" lon="4.94292">
        <ele>173</ele>
        <time>2026-05-14T12:20:20+02:00</time>
      </trkpt>
      <trkpt lat="46.82733" lon="4.94301">
        <ele>172.7998</ele>
        <time>2026-05-14T12:20:21+02:00</time>
      </trkpt>
      <trkpt lat="46.82733" lon="4.94301">
        <ele>172.7998</ele>
        <time>2026-05-14T12:20:22+02:00</time>
      </trkpt>
      <trkpt lat="46.82739" lon="4.94311">
        <ele>172.7002</ele>
        <time>2026-05-14T12:20:23+02:00</time>
      </trkpt>
      <trkpt lat="46.82744" lon="4.94318">
        <ele>172.7998</ele>
        <time>2026-05-14T12:20:24+02:00</time>
      </trkpt>
      <trkpt lat="46.8275" lon="4.94327">
        <ele>172.7002</ele>
        <time>2026-05-14T12:20:25+02:00</time>
      </trkpt>
      <trkpt lat="46.82752" lon="4.9433">
        <ele>172.7002</ele>
        <time>2026-05-14T12:20:26+02:00</time>
      </trkpt>
      <trkpt lat="46.82757" lon="4.94337">
        <ele>172.60059</ele>
        <time>2026-05-14T12:20:27+02:00</time>
      </trkpt>
      <trkpt lat="46.82761" lon="4.94344">
        <ele>172.7002</ele>
        <time>2026-05-14T12:20:28+02:00</time>
      </trkpt>
      <trkpt lat="46.82766" lon="4.9435">
        <ele>172.7002</ele>
        <time>2026-05-14T12:20:29+02:00</time>
      </trkpt>
      <trkpt lat="46.8277" lon="4.94357">
        <ele>173.2998</ele>
        <time>2026-05-14T12:20:30+02:00</time>
      </trkpt>
      <trkpt lat="46.82774" lon="4.94364">
        <ele>174.10059</ele>
        <time>2026-05-14T12:20:31+02:00</time>
      </trkpt>
      <trkpt lat="46.82781" lon="4.94374">
        <ele>174.60059</ele>
        <time>2026-05-14T12:20:32+02:00</time>
      </trkpt>
      <trkpt lat="46.82783" lon="4.94378">
        <ele>174.7998</ele>
        <time>2026-05-14T12:20:33+02:00</time>
      </trkpt>
      <trkpt lat="46.82787" lon="4.94384">
        <ele>174.5</ele>
        <time>2026-05-14T12:20:34+02:00</time>
      </trkpt>
      <trkpt lat="46.82794" lon="4.94395">
        <ele>174.2002</ele>
        <time>2026-05-14T12:20:35+02:00</time>
      </trkpt>
      <trkpt lat="46.82796" lon="4.94399">
        <ele>174.40039</ele>
        <time>2026-05-14T12:20:36+02:00</time>
      </trkpt>
      <trkpt lat="46.828" lon="4.94406">
        <ele>174.5</ele>
        <time>2026-05-14T12:20:37+02:00</time>
      </trkpt>
      <trkpt lat="46.82805" lon="4.94413">
        <ele>174.5</ele>
        <time>2026-05-14T12:20:38+02:00</time>
      </trkpt>
      <trkpt lat="46.82809" lon="4.9442">
        <ele>173.7002</ele>
        <time>2026-05-14T12:20:39+02:00</time>
      </trkpt>
      <trkpt lat="46.82813" lon="4.94428">
        <ele>173</ele>
        <time>2026-05-14T12:20:40+02:00</time>
      </trkpt>
      <trkpt lat="46.82817" lon="4.94435">
        <ele>173.2002</ele>
        <time>2026-05-14T12:20:41+02:00</time>
      </trkpt>
      <trkpt lat="46.82823" lon="4.94447">
        <ele>172.90039</ele>
        <time>2026-05-14T12:20:42+02:00</time>
      </trkpt>
      <trkpt lat="46.82826" lon="4.94451">
        <ele>173.10059</ele>
        <time>2026-05-14T12:20:43+02:00</time>
      </trkpt>
      <trkpt lat="46.82829" lon="4.94458">
        <ele>172.7002</ele>
        <time>2026-05-14T12:20:44+02:00</time>
      </trkpt>
      <trkpt lat="46.82834" lon="4.94465">
        <ele>172.60059</ele>
        <time>2026-05-14T12:20:45+02:00</time>
      </trkpt>
      <trkpt lat="46.82836" lon="4.94469">
        <ele>172.60059</ele>
        <time>2026-05-14T12:20:46+02:00</time>
      </trkpt>
      <trkpt lat="46.82843" lon="4.94479">
        <ele>172.7002</ele>
        <time>2026-05-14T12:20:47+02:00</time>
      </trkpt>
      <trkpt lat="46.82847" lon="4.94486">
        <ele>172.7002</ele>
        <time>2026-05-14T12:20:48+02:00</time>
      </trkpt>
      <trkpt lat="46.82853" lon="4.94497">
        <ele>172.10059</ele>
        <time>2026-05-14T12:20:49+02:00</time>
      </trkpt>
      <trkpt lat="46.82856" lon="4.945">
        <ele>172.60059</ele>
        <time>2026-05-14T12:20:50+02:00</time>
      </trkpt>
      <trkpt lat="46.8286" lon="4.94507">
        <ele>172.40039</ele>
        <time>2026-05-14T12:20:51+02:00</time>
      </trkpt>
      <trkpt lat="46.82866" lon="4.94517">
        <ele>173.60059</ele>
        <time>2026-05-14T12:20:52+02:00</time>
      </trkpt>
      <trkpt lat="46.82868" lon="4.94521">
        <ele>174.60059</ele>
        <time>2026-05-14T12:20:53+02:00</time>
      </trkpt>
      <trkpt lat="46.82873" lon="4.94528">
        <ele>175.7002</ele>
        <time>2026-05-14T12:20:54+02:00</time>
      </trkpt>
      <trkpt lat="46.82876" lon="4.94535">
        <ele>176.10059</ele>
        <time>2026-05-14T12:20:55+02:00</time>
      </trkpt>
      <trkpt lat="46.8288" lon="4.94542">
        <ele>175.2998</ele>
        <time>2026-05-14T12:20:56+02:00</time>
      </trkpt>
      <trkpt lat="46.82884" lon="4.94549">
        <ele>174.2998</ele>
        <time>2026-05-14T12:20:57+02:00</time>
      </trkpt>
      <trkpt lat="46.82887" lon="4.94556">
        <ele>174.40039</ele>
        <time>2026-05-14T12:20:58+02:00</time>
      </trkpt>
      <trkpt lat="46.82893" lon="4.94567">
        <ele>174</ele>
        <time>2026-05-14T12:20:59+02:00</time>
      </trkpt>
      <trkpt lat="46.82895" lon="4.94571">
        <ele>174</ele>
        <time>2026-05-14T12:21:00+02:00</time>
      </trkpt>
      <trkpt lat="46.82899" lon="4.94578">
        <ele>173.7002</ele>
        <time>2026-05-14T12:21:01+02:00</time>
      </trkpt>
      <trkpt lat="46.82905" lon="4.94589">
        <ele>173</ele>
        <time>2026-05-14T12:21:02+02:00</time>
      </trkpt>
      <trkpt lat="46.82907" lon="4.94593">
        <ele>172.2998</ele>
        <time>2026-05-14T12:21:03+02:00</time>
      </trkpt>
      <trkpt lat="46.82911" lon="4.946">
        <ele>172.2998</ele>
        <time>2026-05-14T12:21:04+02:00</time>
      </trkpt>
      <trkpt lat="46.82916" lon="4.94611">
        <ele>172.2998</ele>
        <time>2026-05-14T12:21:05+02:00</time>
      </trkpt>
      <trkpt lat="46.82918" lon="4.94615">
        <ele>172.2998</ele>
        <time>2026-05-14T12:21:06+02:00</time>
      </trkpt>
      <trkpt lat="46.82921" lon="4.94622">
        <ele>172.10059</ele>
        <time>2026-05-14T12:21:07+02:00</time>
      </trkpt>
      <trkpt lat="46.82925" lon="4.9463">
        <ele>171.90039</ele>
        <time>2026-05-14T12:21:08+02:00</time>
      </trkpt>
      <trkpt lat="46.82931" lon="4.94641">
        <ele>171.90039</ele>
        <time>2026-05-14T12:21:09+02:00</time>
      </trkpt>
      <trkpt lat="46.82932" lon="4.94645">
        <ele>172</ele>
        <time>2026-05-14T12:21:10+02:00</time>
      </trkpt>
      <trkpt lat="46.82937" lon="4.94652">
        <ele>171.7998</ele>
        <time>2026-05-14T12:21:11+02:00</time>
      </trkpt>
      <trkpt lat="46.8294" lon="4.94659">
        <ele>171.90039</ele>
        <time>2026-05-14T12:21:12+02:00</time>
      </trkpt>
      <trkpt lat="46.82946" lon="4.94669">
        <ele>171.7998</ele>
        <time>2026-05-14T12:21:13+02:00</time>
      </trkpt>
      <trkpt lat="46.82948" lon="4.94673">
        <ele>171.7998</ele>
        <time>2026-05-14T12:21:14+02:00</time>
      </trkpt>
      <trkpt lat="46.82951" lon="4.9468">
        <ele>171.7998</ele>
        <time>2026-05-14T12:21:15+02:00</time>
      </trkpt>
      <trkpt lat="46.82958" lon="4.94689">
        <ele>171.7998</ele>
        <time>2026-05-14T12:21:16+02:00</time>
      </trkpt>
      <trkpt lat="46.82959" lon="4.94693">
        <ele>171.7998</ele>
        <time>2026-05-14T12:21:17+02:00</time>
      </trkpt>
      <trkpt lat="46.82963" lon="4.94699">
        <ele>171.7998</ele>
        <time>2026-05-14T12:21:18+02:00</time>
      </trkpt>
      <trkpt lat="46.82968" lon="4.94706">
        <ele>171.7998</ele>
        <time>2026-05-14T12:21:19+02:00</time>
      </trkpt>
      <trkpt lat="46.82973" lon="4.94715">
        <ele>171.90039</ele>
        <time>2026-05-14T12:21:20+02:00</time>
      </trkpt>
      <trkpt lat="46.82976" lon="4.94718">
        <ele>171.90039</ele>
        <time>2026-05-14T12:21:21+02:00</time>
      </trkpt>
      <trkpt lat="46.82979" lon="4.94724">
        <ele>171.7998</ele>
        <time>2026-05-14T12:21:22+02:00</time>
      </trkpt>
      <trkpt lat="46.82985" lon="4.94734">
        <ele>171.7998</ele>
        <time>2026-05-14T12:21:23+02:00</time>
      </trkpt>
      <trkpt lat="46.82985" lon="4.94734">
        <ele>171.7998</ele>
        <time>2026-05-14T12:21:24+02:00</time>
      </trkpt>
      <trkpt lat="46.82992" lon="4.94744">
        <ele>171.7998</ele>
        <time>2026-05-14T12:21:25+02:00</time>
      </trkpt>
      <trkpt lat="46.82996" lon="4.9475">
        <ele>171.90039</ele>
        <time>2026-05-14T12:21:26+02:00</time>
      </trkpt>
      <trkpt lat="46.83003" lon="4.9476">
        <ele>171.7998</ele>
        <time>2026-05-14T12:21:27+02:00</time>
      </trkpt>
      <trkpt lat="46.83005" lon="4.94764">
        <ele>171.90039</ele>
        <time>2026-05-14T12:21:28+02:00</time>
      </trkpt>
      <trkpt lat="46.83009" lon="4.9477">
        <ele>171.7998</ele>
        <time>2026-05-14T12:21:29+02:00</time>
      </trkpt>
      <trkpt lat="46.83016" lon="4.9478">
        <ele>171.90039</ele>
        <time>2026-05-14T12:21:30+02:00</time>
      </trkpt>
      <trkpt lat="46.83019" lon="4.94783">
        <ele>171.90039</ele>
        <time>2026-05-14T12:21:31+02:00</time>
      </trkpt>
      <trkpt lat="46.83023" lon="4.9479">
        <ele>171.90039</ele>
        <time>2026-05-14T12:21:32+02:00</time>
      </trkpt>
      <trkpt lat="46.83027" lon="4.94797">
        <ele>171.7998</ele>
        <time>2026-05-14T12:21:33+02:00</time>
      </trkpt>
      <trkpt lat="46.83034" lon="4.94806">
        <ele>171.7998</ele>
        <time>2026-05-14T12:21:34+02:00</time>
      </trkpt>
      <trkpt lat="46.83037" lon="4.9481">
        <ele>171.7998</ele>
        <time>2026-05-14T12:21:35+02:00</time>
      </trkpt>
      <trkpt lat="46.83041" lon="4.94816">
        <ele>171.7998</ele>
        <time>2026-05-14T12:21:36+02:00</time>
      </trkpt>
      <trkpt lat="46.83047" lon="4.94826">
        <ele>171.90039</ele>
        <time>2026-05-14T12:21:37+02:00</time>
      </trkpt>
      <trkpt lat="46.8305" lon="4.94829">
        <ele>172</ele>
        <time>2026-05-14T12:21:38+02:00</time>
      </trkpt>
      <trkpt lat="46.83054" lon="4.94836">
        <ele>171.90039</ele>
        <time>2026-05-14T12:21:39+02:00</time>
      </trkpt>
      <trkpt lat="46.83058" lon="4.94842">
        <ele>171.7998</ele>
        <time>2026-05-14T12:21:40+02:00</time>
      </trkpt>
      <trkpt lat="46.83066" lon="4.94853">
        <ele>171.7998</ele>
        <time>2026-05-14T12:21:41+02:00</time>
      </trkpt>
      <trkpt lat="46.83068" lon="4.94856">
        <ele>171.90039</ele>
        <time>2026-05-14T12:21:42+02:00</time>
      </trkpt>
      <trkpt lat="46.83072" lon="4.94863">
        <ele>171.7998</ele>
        <time>2026-05-14T12:21:43+02:00</time>
      </trkpt>
      <trkpt lat="46.83077" lon="4.94869">
        <ele>171.90039</ele>
        <time>2026-05-14T12:21:44+02:00</time>
      </trkpt>
      <trkpt lat="46.83079" lon="4.94872">
        <ele>171.90039</ele>
        <time>2026-05-14T12:21:45+02:00</time>
      </trkpt>
      <trkpt lat="46.83086" lon="4.94882">
        <ele>171.7998</ele>
        <time>2026-05-14T12:21:46+02:00</time>
      </trkpt>
      <trkpt lat="46.83093" lon="4.94892">
        <ele>171.7998</ele>
        <time>2026-05-14T12:21:47+02:00</time>
      </trkpt>
      <trkpt lat="46.83096" lon="4.94895">
        <ele>171.90039</ele>
        <time>2026-05-14T12:21:48+02:00</time>
      </trkpt>
      <trkpt lat="46.831" lon="4.94902">
        <ele>171.90039</ele>
        <time>2026-05-14T12:21:49+02:00</time>
      </trkpt>
      <trkpt lat="46.83104" lon="4.94909">
        <ele>171.7998</ele>
        <time>2026-05-14T12:21:50+02:00</time>
      </trkpt>
      <trkpt lat="46.83111" lon="4.94919">
        <ele>171.7998</ele>
        <time>2026-05-14T12:21:51+02:00</time>
      </trkpt>
      <trkpt lat="46.83113" lon="4.94922">
        <ele>171.7998</ele>
        <time>2026-05-14T12:21:52+02:00</time>
      </trkpt>
      <trkpt lat="46.83118" lon="4.94928">
        <ele>171.7998</ele>
        <time>2026-05-14T12:21:53+02:00</time>
      </trkpt>
      <trkpt lat="46.83122" lon="4.94934">
        <ele>171.90039</ele>
        <time>2026-05-14T12:21:54+02:00</time>
      </trkpt>
      <trkpt lat="46.83127" lon="4.9494">
        <ele>171.7998</ele>
        <time>2026-05-14T12:21:55+02:00</time>
      </trkpt>
      <trkpt lat="46.83132" lon="4.94946">
        <ele>171.7998</ele>
        <time>2026-05-14T12:21:56+02:00</time>
      </trkpt>
      <trkpt lat="46.83136" lon="4.94952">
        <ele>171.7998</ele>
        <time>2026-05-14T12:21:57+02:00</time>
      </trkpt>
      <trkpt lat="46.83143" lon="4.94962">
        <ele>171.90039</ele>
        <time>2026-05-14T12:21:58+02:00</time>
      </trkpt>
      <trkpt lat="46.83145" lon="4.94965">
        <ele>171.90039</ele>
        <time>2026-05-14T12:21:59+02:00</time>
      </trkpt>
      <trkpt lat="46.83149" lon="4.94971">
        <ele>171.7998</ele>
        <time>2026-05-14T12:22:00+02:00</time>
      </trkpt>
      <trkpt lat="46.83154" lon="4.94978">
        <ele>171.7998</ele>
        <time>2026-05-14T12:22:01+02:00</time>
      </trkpt>
      <trkpt lat="46.83161" lon="4.94988">
        <ele>171.7998</ele>
        <time>2026-05-14T12:22:02+02:00</time>
      </trkpt>
      <trkpt lat="46.83163" lon="4.94991">
        <ele>171.7998</ele>
        <time>2026-05-14T12:22:03+02:00</time>
      </trkpt>
      <trkpt lat="46.83167" lon="4.94998">
        <ele>171.90039</ele>
        <time>2026-05-14T12:22:04+02:00</time>
      </trkpt>
      <trkpt lat="46.83174" lon="4.95007">
        <ele>171.7998</ele>
        <time>2026-05-14T12:22:05+02:00</time>
      </trkpt>
      <trkpt lat="46.83177" lon="4.9501">
        <ele>171.7998</ele>
        <time>2026-05-14T12:22:06+02:00</time>
      </trkpt>
      <trkpt lat="46.83181" lon="4.95017">
        <ele>171.7998</ele>
        <time>2026-05-14T12:22:07+02:00</time>
      </trkpt>
      <trkpt lat="46.83185" lon="4.95022">
        <ele>171.90039</ele>
        <time>2026-05-14T12:22:08+02:00</time>
      </trkpt>
      <trkpt lat="46.83192" lon="4.95031">
        <ele>171.90039</ele>
        <time>2026-05-14T12:22:09+02:00</time>
      </trkpt>
      <trkpt lat="46.83194" lon="4.95034">
        <ele>171.90039</ele>
        <time>2026-05-14T12:22:10+02:00</time>
      </trkpt>
      <trkpt lat="46.83199" lon="4.95039">
        <ele>171.90039</ele>
        <time>2026-05-14T12:22:11+02:00</time>
      </trkpt>
      <trkpt lat="46.83204" lon="4.95045">
        <ele>171.7998</ele>
        <time>2026-05-14T12:22:12+02:00</time>
      </trkpt>
      <trkpt lat="46.83209" lon="4.95051">
        <ele>171.7998</ele>
        <time>2026-05-14T12:22:13+02:00</time>
      </trkpt>
      <trkpt lat="46.83214" lon="4.95056">
        <ele>171.90039</ele>
        <time>2026-05-14T12:22:14+02:00</time>
      </trkpt>
      <trkpt lat="46.83219" lon="4.95061">
        <ele>171.90039</ele>
        <time>2026-05-14T12:22:15+02:00</time>
      </trkpt>
      <trkpt lat="46.83227" lon="4.95069">
        <ele>171.7998</ele>
        <time>2026-05-14T12:22:16+02:00</time>
      </trkpt>
      <trkpt lat="46.83229" lon="4.95071">
        <ele>171.7998</ele>
        <time>2026-05-14T12:22:17+02:00</time>
      </trkpt>
      <trkpt lat="46.83234" lon="4.95076">
        <ele>171.7998</ele>
        <time>2026-05-14T12:22:18+02:00</time>
      </trkpt>
      <trkpt lat="46.83241" lon="4.95084">
        <ele>171.90039</ele>
        <time>2026-05-14T12:22:19+02:00</time>
      </trkpt>
      <trkpt lat="46.83243" lon="4.95087">
        <ele>171.90039</ele>
        <time>2026-05-14T12:22:20+02:00</time>
      </trkpt>
      <trkpt lat="46.83248" lon="4.95092">
        <ele>171.90039</ele>
        <time>2026-05-14T12:22:21+02:00</time>
      </trkpt>
      <trkpt lat="46.83253" lon="4.95098">
        <ele>171.7998</ele>
        <time>2026-05-14T12:22:22+02:00</time>
      </trkpt>
      <trkpt lat="46.8326" lon="4.95106">
        <ele>171.7998</ele>
        <time>2026-05-14T12:22:23+02:00</time>
      </trkpt>
      <trkpt lat="46.83263" lon="4.95109">
        <ele>171.90039</ele>
        <time>2026-05-14T12:22:24+02:00</time>
      </trkpt>
      <trkpt lat="46.83268" lon="4.95114">
        <ele>172.2002</ele>
        <time>2026-05-14T12:22:25+02:00</time>
      </trkpt>
      <trkpt lat="46.83273" lon="4.95119">
        <ele>172.7998</ele>
        <time>2026-05-14T12:22:26+02:00</time>
      </trkpt>
      <trkpt lat="46.83278" lon="4.95124">
        <ele>173.10059</ele>
        <time>2026-05-14T12:22:27+02:00</time>
      </trkpt>
      <trkpt lat="46.83283" lon="4.95129">
        <ele>173.10059</ele>
        <time>2026-05-14T12:22:28+02:00</time>
      </trkpt>
      <trkpt lat="46.83288" lon="4.95134">
        <ele>172.7998</ele>
        <time>2026-05-14T12:22:29+02:00</time>
      </trkpt>
      <trkpt lat="46.83294" lon="4.95143">
        <ele>172.40039</ele>
        <time>2026-05-14T12:22:30+02:00</time>
      </trkpt>
      <trkpt lat="46.83297" lon="4.95145">
        <ele>172.7002</ele>
        <time>2026-05-14T12:22:31+02:00</time>
      </trkpt>
      <trkpt lat="46.83301" lon="4.95151">
        <ele>172.7998</ele>
        <time>2026-05-14T12:22:32+02:00</time>
      </trkpt>
      <trkpt lat="46.83306" lon="4.95156">
        <ele>172.7998</ele>
        <time>2026-05-14T12:22:33+02:00</time>
      </trkpt>
      <trkpt lat="46.83312" lon="4.95164">
        <ele>172.7002</ele>
        <time>2026-05-14T12:22:34+02:00</time>
      </trkpt>
      <trkpt lat="46.83315" lon="4.95167">
        <ele>172.40039</ele>
        <time>2026-05-14T12:22:35+02:00</time>
      </trkpt>
      <trkpt lat="46.83319" lon="4.95173">
        <ele>172.5</ele>
        <time>2026-05-14T12:22:36+02:00</time>
      </trkpt>
      <trkpt lat="46.83326" lon="4.95181">
        <ele>172.5</ele>
        <time>2026-05-14T12:22:37+02:00</time>
      </trkpt>
      <trkpt lat="46.83328" lon="4.95184">
        <ele>172.2002</ele>
        <time>2026-05-14T12:22:38+02:00</time>
      </trkpt>
      <trkpt lat="46.83333" lon="4.9519">
        <ele>172.40039</ele>
        <time>2026-05-14T12:22:39+02:00</time>
      </trkpt>
      <trkpt lat="46.83338" lon="4.95196">
        <ele>172.5</ele>
        <time>2026-05-14T12:22:40+02:00</time>
      </trkpt>
      <trkpt lat="46.83344" lon="4.95205">
        <ele>172.7002</ele>
        <time>2026-05-14T12:22:41+02:00</time>
      </trkpt>
      <trkpt lat="46.83346" lon="4.95207">
        <ele>172.7002</ele>
        <time>2026-05-14T12:22:42+02:00</time>
      </trkpt>
      <trkpt lat="46.83351" lon="4.95213">
        <ele>173.10059</ele>
        <time>2026-05-14T12:22:43+02:00</time>
      </trkpt>
      <trkpt lat="46.83355" lon="4.95219">
        <ele>173</ele>
        <time>2026-05-14T12:22:44+02:00</time>
      </trkpt>
      <trkpt lat="46.83362" lon="4.95227">
        <ele>172.7002</ele>
        <time>2026-05-14T12:22:45+02:00</time>
      </trkpt>
      <trkpt lat="46.83364" lon="4.9523">
        <ele>172.7002</ele>
        <time>2026-05-14T12:22:46+02:00</time>
      </trkpt>
      <trkpt lat="46.83369" lon="4.95236">
        <ele>172.60059</ele>
        <time>2026-05-14T12:22:47+02:00</time>
      </trkpt>
      <trkpt lat="46.83373" lon="4.95242">
        <ele>173</ele>
        <time>2026-05-14T12:22:48+02:00</time>
      </trkpt>
      <trkpt lat="46.8338" lon="4.9525">
        <ele>173</ele>
        <time>2026-05-14T12:22:49+02:00</time>
      </trkpt>
      <trkpt lat="46.83382" lon="4.95253">
        <ele>172.60059</ele>
        <time>2026-05-14T12:22:50+02:00</time>
      </trkpt>
      <trkpt lat="46.83387" lon="4.95258">
        <ele>172.7002</ele>
        <time>2026-05-14T12:22:51+02:00</time>
      </trkpt>
      <trkpt lat="46.83391" lon="4.95264">
        <ele>172.5</ele>
        <time>2026-05-14T12:22:52+02:00</time>
      </trkpt>
      <trkpt lat="46.83398" lon="4.95272">
        <ele>172.5</ele>
        <time>2026-05-14T12:22:53+02:00</time>
      </trkpt>
      <trkpt lat="46.834" lon="4.95275">
        <ele>172.5</ele>
        <time>2026-05-14T12:22:54+02:00</time>
      </trkpt>
      <trkpt lat="46.83405" lon="4.95281">
        <ele>172.5</ele>
        <time>2026-05-14T12:22:55+02:00</time>
      </trkpt>
      <trkpt lat="46.83412" lon="4.95289">
        <ele>172.2998</ele>
        <time>2026-05-14T12:22:56+02:00</time>
      </trkpt>
      <trkpt lat="46.83412" lon="4.95289">
        <ele>172.2998</ele>
        <time>2026-05-14T12:22:57+02:00</time>
      </trkpt>
      <trkpt lat="46.83419" lon="4.95298">
        <ele>172.2002</ele>
        <time>2026-05-14T12:22:58+02:00</time>
      </trkpt>
      <trkpt lat="46.83424" lon="4.95303">
        <ele>172.2002</ele>
        <time>2026-05-14T12:22:59+02:00</time>
      </trkpt>
      <trkpt lat="46.83431" lon="4.95311">
        <ele>172.2998</ele>
        <time>2026-05-14T12:23:00+02:00</time>
      </trkpt>
      <trkpt lat="46.83433" lon="4.95314">
        <ele>172.2002</ele>
        <time>2026-05-14T12:23:01+02:00</time>
      </trkpt>
      <trkpt lat="46.83437" lon="4.9532">
        <ele>172.2998</ele>
        <time>2026-05-14T12:23:02+02:00</time>
      </trkpt>
      <trkpt lat="46.83442" lon="4.95325">
        <ele>172.2998</ele>
        <time>2026-05-14T12:23:03+02:00</time>
      </trkpt>
      <trkpt lat="46.83449" lon="4.95333">
        <ele>172.7998</ele>
        <time>2026-05-14T12:23:04+02:00</time>
      </trkpt>
      <trkpt lat="46.83451" lon="4.95336">
        <ele>172.7998</ele>
        <time>2026-05-14T12:23:05+02:00</time>
      </trkpt>
      <trkpt lat="46.83456" lon="4.95341">
        <ele>172.90039</ele>
        <time>2026-05-14T12:23:06+02:00</time>
      </trkpt>
      <trkpt lat="46.83461" lon="4.95346">
        <ele>173</ele>
        <time>2026-05-14T12:23:07+02:00</time>
      </trkpt>
      <trkpt lat="46.83465" lon="4.95351">
        <ele>173</ele>
        <time>2026-05-14T12:23:08+02:00</time>
      </trkpt>
      <trkpt lat="46.8347" lon="4.95356">
        <ele>173.2002</ele>
        <time>2026-05-14T12:23:09+02:00</time>
      </trkpt>
      <trkpt lat="46.83475" lon="4.95361">
        <ele>173.40039</ele>
        <time>2026-05-14T12:23:10+02:00</time>
      </trkpt>
      <trkpt lat="46.8348" lon="4.95366">
        <ele>173.5</ele>
        <time>2026-05-14T12:23:11+02:00</time>
      </trkpt>
      <trkpt lat="46.83487" lon="4.95374">
        <ele>173.10059</ele>
        <time>2026-05-14T12:23:12+02:00</time>
      </trkpt>
      <trkpt lat="46.8349" lon="4.95377">
        <ele>173.10059</ele>
        <time>2026-05-14T12:23:13+02:00</time>
      </trkpt>
      <trkpt lat="46.83495" lon="4.95382">
        <ele>173.10059</ele>
        <time>2026-05-14T12:23:14+02:00</time>
      </trkpt>
      <trkpt lat="46.83502" lon="4.9539">
        <ele>173.10059</ele>
        <time>2026-05-14T12:23:15+02:00</time>
      </trkpt>
      <trkpt lat="46.83505" lon="4.95393">
        <ele>173.10059</ele>
        <time>2026-05-14T12:23:16+02:00</time>
      </trkpt>
      <trkpt lat="46.8351" lon="4.95398">
        <ele>172.7998</ele>
        <time>2026-05-14T12:23:17+02:00</time>
      </trkpt>
      <trkpt lat="46.83517" lon="4.95406">
        <ele>172.7002</ele>
        <time>2026-05-14T12:23:18+02:00</time>
      </trkpt>
      <trkpt lat="46.83517" lon="4.95406">
        <ele>172.7002</ele>
        <time>2026-05-14T12:23:19+02:00</time>
      </trkpt>
      <trkpt lat="46.83524" lon="4.95414">
        <ele>172.60059</ele>
        <time>2026-05-14T12:23:20+02:00</time>
      </trkpt>
      <trkpt lat="46.8353" lon="4.95419">
        <ele>172.60059</ele>
        <time>2026-05-14T12:23:21+02:00</time>
      </trkpt>
      <trkpt lat="46.83535" lon="4.95423">
        <ele>172.60059</ele>
        <time>2026-05-14T12:23:22+02:00</time>
      </trkpt>
      <trkpt lat="46.8354" lon="4.95427">
        <ele>172.5</ele>
        <time>2026-05-14T12:23:23+02:00</time>
      </trkpt>
      <trkpt lat="46.83545" lon="4.95432">
        <ele>172.40039</ele>
        <time>2026-05-14T12:23:24+02:00</time>
      </trkpt>
      <trkpt lat="46.83553" lon="4.95439">
        <ele>172.2002</ele>
        <time>2026-05-14T12:23:25+02:00</time>
      </trkpt>
      <trkpt lat="46.83553" lon="4.95439">
        <ele>172.2002</ele>
        <time>2026-05-14T12:23:26+02:00</time>
      </trkpt>
      <trkpt lat="46.8356" lon="4.95448">
        <ele>171.7002</ele>
        <time>2026-05-14T12:23:27+02:00</time>
      </trkpt>
      <trkpt lat="46.83565" lon="4.95453">
        <ele>171.90039</ele>
        <time>2026-05-14T12:23:28+02:00</time>
      </trkpt>
      <trkpt lat="46.83569" lon="4.95458">
        <ele>171.7998</ele>
        <time>2026-05-14T12:23:29+02:00</time>
      </trkpt>
      <trkpt lat="46.83575" lon="4.95463">
        <ele>171.7002</ele>
        <time>2026-05-14T12:23:30+02:00</time>
      </trkpt>
      <trkpt lat="46.8358" lon="4.95468">
        <ele>171.7002</ele>
        <time>2026-05-14T12:23:31+02:00</time>
      </trkpt>
      <trkpt lat="46.83588" lon="4.95475">
        <ele>171.7998</ele>
        <time>2026-05-14T12:23:32+02:00</time>
      </trkpt>
      <trkpt lat="46.8359" lon="4.95477">
        <ele>171.7998</ele>
        <time>2026-05-14T12:23:33+02:00</time>
      </trkpt>
      <trkpt lat="46.83596" lon="4.95482">
        <ele>171.7002</ele>
        <time>2026-05-14T12:23:34+02:00</time>
      </trkpt>
      <trkpt lat="46.83603" lon="4.95489">
        <ele>171.7998</ele>
        <time>2026-05-14T12:23:35+02:00</time>
      </trkpt>
      <trkpt lat="46.83606" lon="4.95491">
        <ele>171.7998</ele>
        <time>2026-05-14T12:23:36+02:00</time>
      </trkpt>
      <trkpt lat="46.83611" lon="4.95497">
        <ele>172</ele>
        <time>2026-05-14T12:23:37+02:00</time>
      </trkpt>
      <trkpt lat="46.83615" lon="4.95502">
        <ele>172.10059</ele>
        <time>2026-05-14T12:23:38+02:00</time>
      </trkpt>
      <trkpt lat="46.83622" lon="4.95511">
        <ele>172.2002</ele>
        <time>2026-05-14T12:23:39+02:00</time>
      </trkpt>
      <trkpt lat="46.83625" lon="4.95514">
        <ele>172.10059</ele>
        <time>2026-05-14T12:23:40+02:00</time>
      </trkpt>
      <trkpt lat="46.8363" lon="4.95519">
        <ele>172.2998</ele>
        <time>2026-05-14T12:23:41+02:00</time>
      </trkpt>
      <trkpt lat="46.83637" lon="4.95527">
        <ele>172.5</ele>
        <time>2026-05-14T12:23:42+02:00</time>
      </trkpt>
      <trkpt lat="46.83639" lon="4.9553">
        <ele>172.5</ele>
        <time>2026-05-14T12:23:43+02:00</time>
      </trkpt>
      <trkpt lat="46.83644" lon="4.95535">
        <ele>172.60059</ele>
        <time>2026-05-14T12:23:44+02:00</time>
      </trkpt>
      <trkpt lat="46.83651" lon="4.95543">
        <ele>172.60059</ele>
        <time>2026-05-14T12:23:45+02:00</time>
      </trkpt>
      <trkpt lat="46.83654" lon="4.95546">
        <ele>172.7998</ele>
        <time>2026-05-14T12:23:46+02:00</time>
      </trkpt>
      <trkpt lat="46.83659" lon="4.95551">
        <ele>172.7998</ele>
        <time>2026-05-14T12:23:47+02:00</time>
      </trkpt>
      <trkpt lat="46.83663" lon="4.95557">
        <ele>172.90039</ele>
        <time>2026-05-14T12:23:48+02:00</time>
      </trkpt>
      <trkpt lat="46.8367" lon="4.95565">
        <ele>173.10059</ele>
        <time>2026-05-14T12:23:49+02:00</time>
      </trkpt>
      <trkpt lat="46.83672" lon="4.95568">
        <ele>173.10059</ele>
        <time>2026-05-14T12:23:50+02:00</time>
      </trkpt>
      <trkpt lat="46.83677" lon="4.95573">
        <ele>173.2998</ele>
        <time>2026-05-14T12:23:51+02:00</time>
      </trkpt>
      <trkpt lat="46.83682" lon="4.95579">
        <ele>173.2998</ele>
        <time>2026-05-14T12:23:52+02:00</time>
      </trkpt>
      <trkpt lat="46.83688" lon="4.95587">
        <ele>173.40039</ele>
        <time>2026-05-14T12:23:53+02:00</time>
      </trkpt>
      <trkpt lat="46.8369" lon="4.9559">
        <ele>173.40039</ele>
        <time>2026-05-14T12:23:54+02:00</time>
      </trkpt>
      <trkpt lat="46.83695" lon="4.95595">
        <ele>173.5</ele>
        <time>2026-05-14T12:23:55+02:00</time>
      </trkpt>
      <trkpt lat="46.83701" lon="4.95604">
        <ele>173.5</ele>
        <time>2026-05-14T12:23:56+02:00</time>
      </trkpt>
      <trkpt lat="46.83703" lon="4.95607">
        <ele>173.5</ele>
        <time>2026-05-14T12:23:57+02:00</time>
      </trkpt>
      <trkpt lat="46.83708" lon="4.95612">
        <ele>173.60059</ele>
        <time>2026-05-14T12:23:58+02:00</time>
      </trkpt>
      <trkpt lat="46.83712" lon="4.95617">
        <ele>173.5</ele>
        <time>2026-05-14T12:23:59+02:00</time>
      </trkpt>
      <trkpt lat="46.83718" lon="4.95626">
        <ele>173.5</ele>
        <time>2026-05-14T12:24:00+02:00</time>
      </trkpt>
      <trkpt lat="46.8372" lon="4.95628">
        <ele>173.5</ele>
        <time>2026-05-14T12:24:01+02:00</time>
      </trkpt>
      <trkpt lat="46.83724" lon="4.95634">
        <ele>173.5</ele>
        <time>2026-05-14T12:24:02+02:00</time>
      </trkpt>
      <trkpt lat="46.8373" lon="4.95643">
        <ele>173.2998</ele>
        <time>2026-05-14T12:24:03+02:00</time>
      </trkpt>
      <trkpt lat="46.83733" lon="4.95646">
        <ele>173.2998</ele>
        <time>2026-05-14T12:24:04+02:00</time>
      </trkpt>
      <trkpt lat="46.83737" lon="4.95653">
        <ele>173.2998</ele>
        <time>2026-05-14T12:24:05+02:00</time>
      </trkpt>
      <trkpt lat="46.83741" lon="4.95659">
        <ele>173.2002</ele>
        <time>2026-05-14T12:24:06+02:00</time>
      </trkpt>
      <trkpt lat="46.83747" lon="4.95668">
        <ele>173.10059</ele>
        <time>2026-05-14T12:24:07+02:00</time>
      </trkpt>
      <trkpt lat="46.83749" lon="4.95672">
        <ele>173.10059</ele>
        <time>2026-05-14T12:24:08+02:00</time>
      </trkpt>
      <trkpt lat="46.83753" lon="4.95678">
        <ele>173</ele>
        <time>2026-05-14T12:24:09+02:00</time>
      </trkpt>
      <trkpt lat="46.83758" lon="4.95684">
        <ele>173</ele>
        <time>2026-05-14T12:24:10+02:00</time>
      </trkpt>
      <trkpt lat="46.83764" lon="4.95694">
        <ele>172.90039</ele>
        <time>2026-05-14T12:24:11+02:00</time>
      </trkpt>
      <trkpt lat="46.83766" lon="4.95697">
        <ele>172.90039</ele>
        <time>2026-05-14T12:24:12+02:00</time>
      </trkpt>
      <trkpt lat="46.8377" lon="4.95703">
        <ele>172.90039</ele>
        <time>2026-05-14T12:24:13+02:00</time>
      </trkpt>
      <trkpt lat="46.83776" lon="4.95714">
        <ele>172.90039</ele>
        <time>2026-05-14T12:24:14+02:00</time>
      </trkpt>
      <trkpt lat="46.83778" lon="4.95717">
        <ele>172.90039</ele>
        <time>2026-05-14T12:24:15+02:00</time>
      </trkpt>
      <trkpt lat="46.83782" lon="4.95724">
        <ele>173</ele>
        <time>2026-05-14T12:24:16+02:00</time>
      </trkpt>
      <trkpt lat="46.83786" lon="4.95731">
        <ele>172.90039</ele>
        <time>2026-05-14T12:24:17+02:00</time>
      </trkpt>
      <trkpt lat="46.83793" lon="4.9574">
        <ele>173.10059</ele>
        <time>2026-05-14T12:24:18+02:00</time>
      </trkpt>
      <trkpt lat="46.83795" lon="4.95743">
        <ele>173.2998</ele>
        <time>2026-05-14T12:24:19+02:00</time>
      </trkpt>
      <trkpt lat="46.838" lon="4.95749">
        <ele>173.2998</ele>
        <time>2026-05-14T12:24:20+02:00</time>
      </trkpt>
      <trkpt lat="46.83807" lon="4.95757">
        <ele>173.40039</ele>
        <time>2026-05-14T12:24:21+02:00</time>
      </trkpt>
      <trkpt lat="46.83809" lon="4.9576">
        <ele>173.60059</ele>
        <time>2026-05-14T12:24:22+02:00</time>
      </trkpt>
      <trkpt lat="46.83814" lon="4.95765">
        <ele>173.5</ele>
        <time>2026-05-14T12:24:23+02:00</time>
      </trkpt>
      <trkpt lat="46.83819" lon="4.9577">
        <ele>173.7002</ele>
        <time>2026-05-14T12:24:24+02:00</time>
      </trkpt>
      <trkpt lat="46.83826" lon="4.95778">
        <ele>173.90039</ele>
        <time>2026-05-14T12:24:25+02:00</time>
      </trkpt>
      <trkpt lat="46.83828" lon="4.95781">
        <ele>173.90039</ele>
        <time>2026-05-14T12:24:26+02:00</time>
      </trkpt>
      <trkpt lat="46.83833" lon="4.95786">
        <ele>174.10059</ele>
        <time>2026-05-14T12:24:27+02:00</time>
      </trkpt>
      <trkpt lat="46.8384" lon="4.95794">
        <ele>174.2002</ele>
        <time>2026-05-14T12:24:28+02:00</time>
      </trkpt>
      <trkpt lat="46.83842" lon="4.95797">
        <ele>174</ele>
        <time>2026-05-14T12:24:29+02:00</time>
      </trkpt>
      <trkpt lat="46.83846" lon="4.95802">
        <ele>174.2002</ele>
        <time>2026-05-14T12:24:30+02:00</time>
      </trkpt>
      <trkpt lat="46.83853" lon="4.95809">
        <ele>174</ele>
        <time>2026-05-14T12:24:31+02:00</time>
      </trkpt>
      <trkpt lat="46.83853" lon="4.95809">
        <ele>174</ele>
        <time>2026-05-14T12:24:32+02:00</time>
      </trkpt>
      <trkpt lat="46.8386" lon="4.95816">
        <ele>173.90039</ele>
        <time>2026-05-14T12:24:33+02:00</time>
      </trkpt>
      <trkpt lat="46.83865" lon="4.95821">
        <ele>173.90039</ele>
        <time>2026-05-14T12:24:34+02:00</time>
      </trkpt>
      <trkpt lat="46.83871" lon="4.95828">
        <ele>173.90039</ele>
        <time>2026-05-14T12:24:35+02:00</time>
      </trkpt>
      <trkpt lat="46.83873" lon="4.9583">
        <ele>173.90039</ele>
        <time>2026-05-14T12:24:36+02:00</time>
      </trkpt>
      <trkpt lat="46.83878" lon="4.95835">
        <ele>173.7002</ele>
        <time>2026-05-14T12:24:37+02:00</time>
      </trkpt>
      <trkpt lat="46.83882" lon="4.9584">
        <ele>173.7998</ele>
        <time>2026-05-14T12:24:38+02:00</time>
      </trkpt>
      <trkpt lat="46.83885" lon="4.95842">
        <ele>173.7002</ele>
        <time>2026-05-14T12:24:39+02:00</time>
      </trkpt>
      <trkpt lat="46.83891" lon="4.9585">
        <ele>173.7002</ele>
        <time>2026-05-14T12:24:40+02:00</time>
      </trkpt>
      <trkpt lat="46.83895" lon="4.95855">
        <ele>173.7998</ele>
        <time>2026-05-14T12:24:41+02:00</time>
      </trkpt>
      <trkpt lat="46.83902" lon="4.95862">
        <ele>173.7998</ele>
        <time>2026-05-14T12:24:42+02:00</time>
      </trkpt>
      <trkpt lat="46.83904" lon="4.95865">
        <ele>173.7998</ele>
        <time>2026-05-14T12:24:43+02:00</time>
      </trkpt>
      <trkpt lat="46.83908" lon="4.9587">
        <ele>173.90039</ele>
        <time>2026-05-14T12:24:44+02:00</time>
      </trkpt>
      <trkpt lat="46.83912" lon="4.95874">
        <ele>174</ele>
        <time>2026-05-14T12:24:45+02:00</time>
      </trkpt>
      <trkpt lat="46.83918" lon="4.9588">
        <ele>174.10059</ele>
        <time>2026-05-14T12:24:46+02:00</time>
      </trkpt>
      <trkpt lat="46.83919" lon="4.95883">
        <ele>174.10059</ele>
        <time>2026-05-14T12:24:47+02:00</time>
      </trkpt>
      <trkpt lat="46.83922" lon="4.95887">
        <ele>174.2002</ele>
        <time>2026-05-14T12:24:48+02:00</time>
      </trkpt>
      <trkpt lat="46.83927" lon="4.95893">
        <ele>174.2002</ele>
        <time>2026-05-14T12:24:49+02:00</time>
      </trkpt>
      <trkpt lat="46.83928" lon="4.95895">
        <ele>174.2002</ele>
        <time>2026-05-14T12:24:50+02:00</time>
      </trkpt>
      <trkpt lat="46.83931" lon="4.95899">
        <ele>174.40039</ele>
        <time>2026-05-14T12:24:51+02:00</time>
      </trkpt>
      <trkpt lat="46.83934" lon="4.95902">
        <ele>174.40039</ele>
        <time>2026-05-14T12:24:52+02:00</time>
      </trkpt>
      <trkpt lat="46.83938" lon="4.95908">
        <ele>174.5</ele>
        <time>2026-05-14T12:24:53+02:00</time>
      </trkpt>
      <trkpt lat="46.8394" lon="4.95909">
        <ele>174.5</ele>
        <time>2026-05-14T12:24:54+02:00</time>
      </trkpt>
      <trkpt lat="46.83943" lon="4.95913">
        <ele>174.7002</ele>
        <time>2026-05-14T12:24:55+02:00</time>
      </trkpt>
      <trkpt lat="46.83947" lon="4.95917">
        <ele>174.7998</ele>
        <time>2026-05-14T12:24:56+02:00</time>
      </trkpt>
      <trkpt lat="46.83951" lon="4.95922">
        <ele>174.7002</ele>
        <time>2026-05-14T12:24:57+02:00</time>
      </trkpt>
      <trkpt lat="46.83954" lon="4.95927">
        <ele>174.7998</ele>
        <time>2026-05-14T12:24:58+02:00</time>
      </trkpt>
      <trkpt lat="46.83959" lon="4.95932">
        <ele>174.90039</ele>
        <time>2026-05-14T12:24:59+02:00</time>
      </trkpt>
      <trkpt lat="46.83965" lon="4.95939">
        <ele>174.90039</ele>
        <time>2026-05-14T12:25:00+02:00</time>
      </trkpt>
      <trkpt lat="46.83967" lon="4.95941">
        <ele>174.90039</ele>
        <time>2026-05-14T12:25:01+02:00</time>
      </trkpt>
      <trkpt lat="46.83972" lon="4.95945">
        <ele>175</ele>
        <time>2026-05-14T12:25:02+02:00</time>
      </trkpt>
      <trkpt lat="46.83977" lon="4.95949">
        <ele>174.90039</ele>
        <time>2026-05-14T12:25:03+02:00</time>
      </trkpt>
      <trkpt lat="46.83982" lon="4.95953">
        <ele>174.90039</ele>
        <time>2026-05-14T12:25:04+02:00</time>
      </trkpt>
      <trkpt lat="46.83987" lon="4.95957">
        <ele>174.90039</ele>
        <time>2026-05-14T12:25:05+02:00</time>
      </trkpt>
      <trkpt lat="46.83992" lon="4.95962">
        <ele>174.90039</ele>
        <time>2026-05-14T12:25:06+02:00</time>
      </trkpt>
      <trkpt lat="46.83997" lon="4.95966">
        <ele>174.7998</ele>
        <time>2026-05-14T12:25:07+02:00</time>
      </trkpt>
      <trkpt lat="46.84004" lon="4.95972">
        <ele>174.90039</ele>
        <time>2026-05-14T12:25:08+02:00</time>
      </trkpt>
      <trkpt lat="46.84006" lon="4.95975">
        <ele>174.7998</ele>
        <time>2026-05-14T12:25:09+02:00</time>
      </trkpt>
      <trkpt lat="46.84011" lon="4.95979">
        <ele>174.7998</ele>
        <time>2026-05-14T12:25:10+02:00</time>
      </trkpt>
      <trkpt lat="46.84018" lon="4.95986">
        <ele>174.90039</ele>
        <time>2026-05-14T12:25:11+02:00</time>
      </trkpt>
      <trkpt lat="46.84018" lon="4.95986">
        <ele>174.90039</ele>
        <time>2026-05-14T12:25:12+02:00</time>
      </trkpt>
      <trkpt lat="46.84026" lon="4.95992">
        <ele>174.90039</ele>
        <time>2026-05-14T12:25:13+02:00</time>
      </trkpt>
      <trkpt lat="46.84031" lon="4.95996">
        <ele>175</ele>
        <time>2026-05-14T12:25:14+02:00</time>
      </trkpt>
      <trkpt lat="46.84039" lon="4.96003">
        <ele>175</ele>
        <time>2026-05-14T12:25:15+02:00</time>
      </trkpt>
      <trkpt lat="46.84041" lon="4.96005">
        <ele>175</ele>
        <time>2026-05-14T12:25:16+02:00</time>
      </trkpt>
      <trkpt lat="46.84046" lon="4.96009">
        <ele>175</ele>
        <time>2026-05-14T12:25:17+02:00</time>
      </trkpt>
      <trkpt lat="46.84052" lon="4.96013">
        <ele>175.10059</ele>
        <time>2026-05-14T12:25:18+02:00</time>
      </trkpt>
      <trkpt lat="46.84059" lon="4.96019">
        <ele>175.2002</ele>
        <time>2026-05-14T12:25:19+02:00</time>
      </trkpt>
      <trkpt lat="46.84062" lon="4.96022">
        <ele>175.2002</ele>
        <time>2026-05-14T12:25:20+02:00</time>
      </trkpt>
      <trkpt lat="46.84067" lon="4.96026">
        <ele>175.10059</ele>
        <time>2026-05-14T12:25:21+02:00</time>
      </trkpt>
      <trkpt lat="46.84072" lon="4.9603">
        <ele>175.10059</ele>
        <time>2026-05-14T12:25:22+02:00</time>
      </trkpt>
      <trkpt lat="46.84077" lon="4.96035">
        <ele>174.90039</ele>
        <time>2026-05-14T12:25:23+02:00</time>
      </trkpt>
      <trkpt lat="46.84082" lon="4.96039">
        <ele>174.90039</ele>
        <time>2026-05-14T12:25:24+02:00</time>
      </trkpt>
      <trkpt lat="46.84087" lon="4.96044">
        <ele>174.7002</ele>
        <time>2026-05-14T12:25:25+02:00</time>
      </trkpt>
      <trkpt lat="46.84094" lon="4.9605">
        <ele>174.7998</ele>
        <time>2026-05-14T12:25:26+02:00</time>
      </trkpt>
      <trkpt lat="46.84097" lon="4.96052">
        <ele>174.7998</ele>
        <time>2026-05-14T12:25:27+02:00</time>
      </trkpt>
      <trkpt lat="46.84102" lon="4.96056">
        <ele>174.90039</ele>
        <time>2026-05-14T12:25:28+02:00</time>
      </trkpt>
      <trkpt lat="46.84107" lon="4.96061">
        <ele>174.7002</ele>
        <time>2026-05-14T12:25:29+02:00</time>
      </trkpt>
      <trkpt lat="46.84115" lon="4.96068">
        <ele>174.5</ele>
        <time>2026-05-14T12:25:30+02:00</time>
      </trkpt>
      <trkpt lat="46.84117" lon="4.9607">
        <ele>174.5</ele>
        <time>2026-05-14T12:25:31+02:00</time>
      </trkpt>
      <trkpt lat="46.84123" lon="4.96075">
        <ele>174.60059</ele>
        <time>2026-05-14T12:25:32+02:00</time>
      </trkpt>
      <trkpt lat="46.84129" lon="4.96082">
        <ele>174.60059</ele>
        <time>2026-05-14T12:25:33+02:00</time>
      </trkpt>
      <trkpt lat="46.84129" lon="4.96082">
        <ele>174.60059</ele>
        <time>2026-05-14T12:25:34+02:00</time>
      </trkpt>
      <trkpt lat="46.84137" lon="4.96089">
        <ele>175.10059</ele>
        <time>2026-05-14T12:25:35+02:00</time>
      </trkpt>
      <trkpt lat="46.84142" lon="4.96095">
        <ele>175</ele>
        <time>2026-05-14T12:25:36+02:00</time>
      </trkpt>
      <trkpt lat="46.84149" lon="4.96102">
        <ele>174.40039</ele>
        <time>2026-05-14T12:25:37+02:00</time>
      </trkpt>
      <trkpt lat="46.84152" lon="4.96105">
        <ele>174.40039</ele>
        <time>2026-05-14T12:25:38+02:00</time>
      </trkpt>
      <trkpt lat="46.84156" lon="4.9611">
        <ele>173.7998</ele>
        <time>2026-05-14T12:25:39+02:00</time>
      </trkpt>
      <trkpt lat="46.84164" lon="4.96117">
        <ele>173.90039</ele>
        <time>2026-05-14T12:25:40+02:00</time>
      </trkpt>
      <trkpt lat="46.84166" lon="4.96119">
        <ele>173.5</ele>
        <time>2026-05-14T12:25:41+02:00</time>
      </trkpt>
      <trkpt lat="46.84171" lon="4.96123">
        <ele>173.60059</ele>
        <time>2026-05-14T12:25:42+02:00</time>
      </trkpt>
      <trkpt lat="46.84177" lon="4.96128">
        <ele>173.2002</ele>
        <time>2026-05-14T12:25:43+02:00</time>
      </trkpt>
      <trkpt lat="46.84184" lon="4.96135">
        <ele>173.40039</ele>
        <time>2026-05-14T12:25:44+02:00</time>
      </trkpt>
      <trkpt lat="46.84187" lon="4.96137">
        <ele>173.10059</ele>
        <time>2026-05-14T12:25:45+02:00</time>
      </trkpt>
      <trkpt lat="46.84192" lon="4.96142">
        <ele>173.2998</ele>
        <time>2026-05-14T12:25:46+02:00</time>
      </trkpt>
      <trkpt lat="46.842" lon="4.96148">
        <ele>173.2002</ele>
        <time>2026-05-14T12:25:47+02:00</time>
      </trkpt>
      <trkpt lat="46.842" lon="4.96148">
        <ele>173.2002</ele>
        <time>2026-05-14T12:25:48+02:00</time>
      </trkpt>
      <trkpt lat="46.84208" lon="4.96155">
        <ele>172.90039</ele>
        <time>2026-05-14T12:25:49+02:00</time>
      </trkpt>
      <trkpt lat="46.84213" lon="4.9616">
        <ele>173</ele>
        <time>2026-05-14T12:25:50+02:00</time>
      </trkpt>
      <trkpt lat="46.8422" lon="4.96167">
        <ele>172.60059</ele>
        <time>2026-05-14T12:25:51+02:00</time>
      </trkpt>
      <trkpt lat="46.84223" lon="4.9617">
        <ele>172.90039</ele>
        <time>2026-05-14T12:25:52+02:00</time>
      </trkpt>
      <trkpt lat="46.84228" lon="4.96175">
        <ele>172.5</ele>
        <time>2026-05-14T12:25:53+02:00</time>
      </trkpt>
      <trkpt lat="46.84235" lon="4.96182">
        <ele>172.60059</ele>
        <time>2026-05-14T12:25:54+02:00</time>
      </trkpt>
      <trkpt lat="46.84237" lon="4.96185">
        <ele>172.60059</ele>
        <time>2026-05-14T12:25:55+02:00</time>
      </trkpt>
      <trkpt lat="46.84242" lon="4.9619">
        <ele>172.40039</ele>
        <time>2026-05-14T12:25:56+02:00</time>
      </trkpt>
      <trkpt lat="46.84248" lon="4.96195">
        <ele>172.40039</ele>
        <time>2026-05-14T12:25:57+02:00</time>
      </trkpt>
      <trkpt lat="46.84255" lon="4.96203">
        <ele>172.10059</ele>
        <time>2026-05-14T12:25:58+02:00</time>
      </trkpt>
      <trkpt lat="46.84258" lon="4.96205">
        <ele>171.90039</ele>
        <time>2026-05-14T12:25:59+02:00</time>
      </trkpt>
      <trkpt lat="46.84263" lon="4.9621">
        <ele>171.90039</ele>
        <time>2026-05-14T12:26:00+02:00</time>
      </trkpt>
      <trkpt lat="46.84272" lon="4.96216">
        <ele>171.7998</ele>
        <time>2026-05-14T12:26:01+02:00</time>
      </trkpt>
      <trkpt lat="46.84274" lon="4.96218">
        <ele>171.7998</ele>
        <time>2026-05-14T12:26:02+02:00</time>
      </trkpt>
      <trkpt lat="46.8428" lon="4.96222">
        <ele>171.7998</ele>
        <time>2026-05-14T12:26:03+02:00</time>
      </trkpt>
      <trkpt lat="46.84288" lon="4.96228">
        <ele>171.90039</ele>
        <time>2026-05-14T12:26:04+02:00</time>
      </trkpt>
      <trkpt lat="46.84288" lon="4.96228">
        <ele>171.90039</ele>
        <time>2026-05-14T12:26:05+02:00</time>
      </trkpt>
      <trkpt lat="46.84295" lon="4.96234">
        <ele>171.90039</ele>
        <time>2026-05-14T12:26:06+02:00</time>
      </trkpt>
      <trkpt lat="46.84301" lon="4.96237">
        <ele>171.90039</ele>
        <time>2026-05-14T12:26:07+02:00</time>
      </trkpt>
      <trkpt lat="46.84309" lon="4.9624">
        <ele>171.90039</ele>
        <time>2026-05-14T12:26:08+02:00</time>
      </trkpt>
      <trkpt lat="46.84312" lon="4.96241">
        <ele>171.7998</ele>
        <time>2026-05-14T12:26:09+02:00</time>
      </trkpt>
      <trkpt lat="46.84318" lon="4.96242">
        <ele>171.7998</ele>
        <time>2026-05-14T12:26:10+02:00</time>
      </trkpt>
      <trkpt lat="46.84323" lon="4.96244">
        <ele>171.7998</ele>
        <time>2026-05-14T12:26:11+02:00</time>
      </trkpt>
      <trkpt lat="46.84332" lon="4.96246">
        <ele>171.7998</ele>
        <time>2026-05-14T12:26:12+02:00</time>
      </trkpt>
      <trkpt lat="46.84335" lon="4.96247">
        <ele>172</ele>
        <time>2026-05-14T12:26:13+02:00</time>
      </trkpt>
      <trkpt lat="46.84341" lon="4.96248">
        <ele>172</ele>
        <time>2026-05-14T12:26:14+02:00</time>
      </trkpt>
      <trkpt lat="46.84347" lon="4.9625">
        <ele>172.2002</ele>
        <time>2026-05-14T12:26:15+02:00</time>
      </trkpt>
      <trkpt lat="46.84353" lon="4.96252">
        <ele>172.2002</ele>
        <time>2026-05-14T12:26:16+02:00</time>
      </trkpt>
      <trkpt lat="46.84358" lon="4.96254">
        <ele>172.2002</ele>
        <time>2026-05-14T12:26:17+02:00</time>
      </trkpt>
      <trkpt lat="46.84364" lon="4.96255">
        <ele>172.2002</ele>
        <time>2026-05-14T12:26:18+02:00</time>
      </trkpt>
      <trkpt lat="46.84373" lon="4.96258">
        <ele>172</ele>
        <time>2026-05-14T12:26:19+02:00</time>
      </trkpt>
      <trkpt lat="46.84376" lon="4.96259">
        <ele>172</ele>
        <time>2026-05-14T12:26:20+02:00</time>
      </trkpt>
      <trkpt lat="46.84381" lon="4.96261">
        <ele>172</ele>
        <time>2026-05-14T12:26:21+02:00</time>
      </trkpt>
      <trkpt lat="46.84387" lon="4.96262">
        <ele>171.90039</ele>
        <time>2026-05-14T12:26:22+02:00</time>
      </trkpt>
      <trkpt lat="46.84396" lon="4.96265">
        <ele>171.7998</ele>
        <time>2026-05-14T12:26:23+02:00</time>
      </trkpt>
      <trkpt lat="46.84398" lon="4.96265">
        <ele>171.7998</ele>
        <time>2026-05-14T12:26:24+02:00</time>
      </trkpt>
      <trkpt lat="46.84404" lon="4.96267">
        <ele>171.7998</ele>
        <time>2026-05-14T12:26:25+02:00</time>
      </trkpt>
      <trkpt lat="46.8441" lon="4.96269">
        <ele>171.7998</ele>
        <time>2026-05-14T12:26:26+02:00</time>
      </trkpt>
      <trkpt lat="46.84416" lon="4.9627">
        <ele>171.7002</ele>
        <time>2026-05-14T12:26:27+02:00</time>
      </trkpt>
      <trkpt lat="46.84421" lon="4.96272">
        <ele>171.7998</ele>
        <time>2026-05-14T12:26:28+02:00</time>
      </trkpt>
      <trkpt lat="46.84427" lon="4.96274">
        <ele>171.7998</ele>
        <time>2026-05-14T12:26:29+02:00</time>
      </trkpt>
      <trkpt lat="46.84435" lon="4.96276">
        <ele>172.10059</ele>
        <time>2026-05-14T12:26:30+02:00</time>
      </trkpt>
      <trkpt lat="46.84435" lon="4.96276">
        <ele>172.10059</ele>
        <time>2026-05-14T12:26:31+02:00</time>
      </trkpt>
      <trkpt lat="46.84444" lon="4.96278">
        <ele>172.2002</ele>
        <time>2026-05-14T12:26:32+02:00</time>
      </trkpt>
      <trkpt lat="46.8445" lon="4.9628">
        <ele>172.2002</ele>
        <time>2026-05-14T12:26:33+02:00</time>
      </trkpt>
      <trkpt lat="46.84459" lon="4.96282">
        <ele>171.90039</ele>
        <time>2026-05-14T12:26:34+02:00</time>
      </trkpt>
      <trkpt lat="46.84462" lon="4.96282">
        <ele>171.90039</ele>
        <time>2026-05-14T12:26:35+02:00</time>
      </trkpt>
      <trkpt lat="46.84468" lon="4.96284">
        <ele>171.90039</ele>
        <time>2026-05-14T12:26:36+02:00</time>
      </trkpt>
      <trkpt lat="46.84477" lon="4.96285">
        <ele>171.90039</ele>
        <time>2026-05-14T12:26:37+02:00</time>
      </trkpt>
      <trkpt lat="46.84479" lon="4.96286">
        <ele>171.90039</ele>
        <time>2026-05-14T12:26:38+02:00</time>
      </trkpt>
      <trkpt lat="46.84485" lon="4.96287">
        <ele>171.90039</ele>
        <time>2026-05-14T12:26:39+02:00</time>
      </trkpt>
      <trkpt lat="46.84491" lon="4.96287">
        <ele>171.90039</ele>
        <time>2026-05-14T12:26:40+02:00</time>
      </trkpt>
      <trkpt lat="46.84497" lon="4.96288">
        <ele>171.90039</ele>
        <time>2026-05-14T12:26:41+02:00</time>
      </trkpt>
      <trkpt lat="46.84503" lon="4.96287">
        <ele>171.90039</ele>
        <time>2026-05-14T12:26:42+02:00</time>
      </trkpt>
      <trkpt lat="46.84509" lon="4.96287">
        <ele>171.90039</ele>
        <time>2026-05-14T12:26:43+02:00</time>
      </trkpt>
      <trkpt lat="46.84517" lon="4.96286">
        <ele>171.90039</ele>
        <time>2026-05-14T12:26:44+02:00</time>
      </trkpt>
      <trkpt lat="46.8452" lon="4.96285">
        <ele>171.90039</ele>
        <time>2026-05-14T12:26:45+02:00</time>
      </trkpt>
      <trkpt lat="46.84526" lon="4.96284">
        <ele>171.90039</ele>
        <time>2026-05-14T12:26:46+02:00</time>
      </trkpt>
      <trkpt lat="46.84535" lon="4.96282">
        <ele>171.90039</ele>
        <time>2026-05-14T12:26:47+02:00</time>
      </trkpt>
      <trkpt lat="46.84537" lon="4.96281">
        <ele>172</ele>
        <time>2026-05-14T12:26:48+02:00</time>
      </trkpt>
      <trkpt lat="46.84543" lon="4.9628">
        <ele>172</ele>
        <time>2026-05-14T12:26:49+02:00</time>
      </trkpt>
      <trkpt lat="46.84548" lon="4.96278">
        <ele>171.90039</ele>
        <time>2026-05-14T12:26:50+02:00</time>
      </trkpt>
      <trkpt lat="46.84557" lon="4.96275">
        <ele>171.90039</ele>
        <time>2026-05-14T12:26:51+02:00</time>
      </trkpt>
      <trkpt lat="46.84559" lon="4.96274">
        <ele>171.90039</ele>
        <time>2026-05-14T12:26:52+02:00</time>
      </trkpt>
      <trkpt lat="46.84565" lon="4.96272">
        <ele>172.10059</ele>
        <time>2026-05-14T12:26:53+02:00</time>
      </trkpt>
      <trkpt lat="46.84573" lon="4.96269">
        <ele>172</ele>
        <time>2026-05-14T12:26:54+02:00</time>
      </trkpt>
      <trkpt lat="46.84576" lon="4.96268">
        <ele>172</ele>
        <time>2026-05-14T12:26:55+02:00</time>
      </trkpt>
      <trkpt lat="46.84582" lon="4.96266">
        <ele>172</ele>
        <time>2026-05-14T12:26:56+02:00</time>
      </trkpt>
      <trkpt lat="46.84587" lon="4.96264">
        <ele>172</ele>
        <time>2026-05-14T12:26:57+02:00</time>
      </trkpt>
      <trkpt lat="46.84596" lon="4.96262">
        <ele>171.90039</ele>
        <time>2026-05-14T12:26:58+02:00</time>
      </trkpt>
      <trkpt lat="46.84599" lon="4.96261">
        <ele>171.7998</ele>
        <time>2026-05-14T12:26:59+02:00</time>
      </trkpt>
      <trkpt lat="46.84604" lon="4.96259">
        <ele>171.7998</ele>
        <time>2026-05-14T12:27:00+02:00</time>
      </trkpt>
      <trkpt lat="46.84612" lon="4.96257">
        <ele>171.90039</ele>
        <time>2026-05-14T12:27:01+02:00</time>
      </trkpt>
      <trkpt lat="46.84615" lon="4.96256">
        <ele>171.90039</ele>
        <time>2026-05-14T12:27:02+02:00</time>
      </trkpt>
      <trkpt lat="46.84621" lon="4.96254">
        <ele>171.7998</ele>
        <time>2026-05-14T12:27:03+02:00</time>
      </trkpt>
      <trkpt lat="46.8463" lon="4.96252">
        <ele>171.7998</ele>
        <time>2026-05-14T12:27:04+02:00</time>
      </trkpt>
      <trkpt lat="46.84632" lon="4.96251">
        <ele>171.7998</ele>
        <time>2026-05-14T12:27:05+02:00</time>
      </trkpt>
      <trkpt lat="46.84638" lon="4.96249">
        <ele>171.7998</ele>
        <time>2026-05-14T12:27:06+02:00</time>
      </trkpt>
      <trkpt lat="46.84643" lon="4.96247">
        <ele>171.90039</ele>
        <time>2026-05-14T12:27:07+02:00</time>
      </trkpt>
      <trkpt lat="46.84652" lon="4.96244">
        <ele>171.90039</ele>
        <time>2026-05-14T12:27:08+02:00</time>
      </trkpt>
      <trkpt lat="46.84655" lon="4.96243">
        <ele>171.90039</ele>
        <time>2026-05-14T12:27:09+02:00</time>
      </trkpt>
      <trkpt lat="46.8466" lon="4.96241">
        <ele>171.90039</ele>
        <time>2026-05-14T12:27:10+02:00</time>
      </trkpt>
      <trkpt lat="46.84668" lon="4.96238">
        <ele>171.90039</ele>
        <time>2026-05-14T12:27:11+02:00</time>
      </trkpt>
      <trkpt lat="46.84671" lon="4.96237">
        <ele>171.90039</ele>
        <time>2026-05-14T12:27:12+02:00</time>
      </trkpt>
      <trkpt lat="46.84676" lon="4.96234">
        <ele>171.90039</ele>
        <time>2026-05-14T12:27:13+02:00</time>
      </trkpt>
      <trkpt lat="46.84682" lon="4.96232">
        <ele>171.90039</ele>
        <time>2026-05-14T12:27:14+02:00</time>
      </trkpt>
      <trkpt lat="46.84685" lon="4.96231">
        <ele>171.90039</ele>
        <time>2026-05-14T12:27:15+02:00</time>
      </trkpt>
      <trkpt lat="46.84693" lon="4.96227">
        <ele>172</ele>
        <time>2026-05-14T12:27:16+02:00</time>
      </trkpt>
      <trkpt lat="46.84699" lon="4.96225">
        <ele>172</ele>
        <time>2026-05-14T12:27:17+02:00</time>
      </trkpt>
      <trkpt lat="46.84707" lon="4.96222">
        <ele>172</ele>
        <time>2026-05-14T12:27:18+02:00</time>
      </trkpt>
      <trkpt lat="46.8471" lon="4.96221">
        <ele>172.2998</ele>
        <time>2026-05-14T12:27:19+02:00</time>
      </trkpt>
      <trkpt lat="46.84715" lon="4.96218">
        <ele>172.2998</ele>
        <time>2026-05-14T12:27:20+02:00</time>
      </trkpt>
      <trkpt lat="46.84723" lon="4.96215">
        <ele>172.2002</ele>
        <time>2026-05-14T12:27:21+02:00</time>
      </trkpt>
      <trkpt lat="46.84726" lon="4.96214">
        <ele>172.2002</ele>
        <time>2026-05-14T12:27:22+02:00</time>
      </trkpt>
      <trkpt lat="46.84732" lon="4.96211">
        <ele>172.60059</ele>
        <time>2026-05-14T12:27:23+02:00</time>
      </trkpt>
      <trkpt lat="46.8474" lon="4.96208">
        <ele>172.5</ele>
        <time>2026-05-14T12:27:24+02:00</time>
      </trkpt>
      <trkpt lat="46.84743" lon="4.96206">
        <ele>172.5</ele>
        <time>2026-05-14T12:27:25+02:00</time>
      </trkpt>
      <trkpt lat="46.84749" lon="4.96204">
        <ele>173</ele>
        <time>2026-05-14T12:27:26+02:00</time>
      </trkpt>
      <trkpt lat="46.84757" lon="4.962">
        <ele>173.10059</ele>
        <time>2026-05-14T12:27:27+02:00</time>
      </trkpt>
      <trkpt lat="46.8476" lon="4.96199">
        <ele>173.40039</ele>
        <time>2026-05-14T12:27:28+02:00</time>
      </trkpt>
      <trkpt lat="46.84765" lon="4.96196">
        <ele>173.7998</ele>
        <time>2026-05-14T12:27:29+02:00</time>
      </trkpt>
      <trkpt lat="46.84774" lon="4.96192">
        <ele>174.7002</ele>
        <time>2026-05-14T12:27:30+02:00</time>
      </trkpt>
      <trkpt lat="46.84776" lon="4.96191">
        <ele>175.10059</ele>
        <time>2026-05-14T12:27:31+02:00</time>
      </trkpt>
      <trkpt lat="46.84782" lon="4.96188">
        <ele>175.40039</ele>
        <time>2026-05-14T12:27:32+02:00</time>
      </trkpt>
      <trkpt lat="46.8479" lon="4.96184">
        <ele>175.5</ele>
        <time>2026-05-14T12:27:33+02:00</time>
      </trkpt>
      <trkpt lat="46.8479" lon="4.96184">
        <ele>175.5</ele>
        <time>2026-05-14T12:27:34+02:00</time>
      </trkpt>
      <trkpt lat="46.84799" lon="4.9618">
        <ele>175.2998</ele>
        <time>2026-05-14T12:27:35+02:00</time>
      </trkpt>
      <trkpt lat="46.84804" lon="4.96177">
        <ele>174.7002</ele>
        <time>2026-05-14T12:27:36+02:00</time>
      </trkpt>
      <trkpt lat="46.84813" lon="4.96173">
        <ele>174.10059</ele>
        <time>2026-05-14T12:27:37+02:00</time>
      </trkpt>
      <trkpt lat="46.84815" lon="4.96172">
        <ele>174.10059</ele>
        <time>2026-05-14T12:27:38+02:00</time>
      </trkpt>
      <trkpt lat="46.84821" lon="4.96169">
        <ele>173.90039</ele>
        <time>2026-05-14T12:27:39+02:00</time>
      </trkpt>
      <trkpt lat="46.84826" lon="4.96165">
        <ele>173.60059</ele>
        <time>2026-05-14T12:27:40+02:00</time>
      </trkpt>
      <trkpt lat="46.84835" lon="4.96161">
        <ele>173.7998</ele>
        <time>2026-05-14T12:27:41+02:00</time>
      </trkpt>
      <trkpt lat="46.84838" lon="4.9616">
        <ele>173.7998</ele>
        <time>2026-05-14T12:27:42+02:00</time>
      </trkpt>
      <trkpt lat="46.84843" lon="4.96157">
        <ele>173.60059</ele>
        <time>2026-05-14T12:27:43+02:00</time>
      </trkpt>
      <trkpt lat="46.84852" lon="4.96153">
        <ele>173.5</ele>
        <time>2026-05-14T12:27:44+02:00</time>
      </trkpt>
      <trkpt lat="46.84855" lon="4.96152">
        <ele>174</ele>
        <time>2026-05-14T12:27:45+02:00</time>
      </trkpt>
      <trkpt lat="46.8486" lon="4.9615">
        <ele>174</ele>
        <time>2026-05-14T12:27:46+02:00</time>
      </trkpt>
      <trkpt lat="46.84869" lon="4.96148">
        <ele>174</ele>
        <time>2026-05-14T12:27:47+02:00</time>
      </trkpt>
      <trkpt lat="46.84869" lon="4.96148">
        <ele>174</ele>
        <time>2026-05-14T12:27:48+02:00</time>
      </trkpt>
      <trkpt lat="46.84878" lon="4.96145">
        <ele>174</ele>
        <time>2026-05-14T12:27:49+02:00</time>
      </trkpt>
      <trkpt lat="46.84884" lon="4.96144">
        <ele>174.5</ele>
        <time>2026-05-14T12:27:50+02:00</time>
      </trkpt>
      <trkpt lat="46.84893" lon="4.96143">
        <ele>174.40039</ele>
        <time>2026-05-14T12:27:51+02:00</time>
      </trkpt>
      <trkpt lat="46.84896" lon="4.96143">
        <ele>174.40039</ele>
        <time>2026-05-14T12:27:52+02:00</time>
      </trkpt>
      <trkpt lat="46.84902" lon="4.96143">
        <ele>174.40039</ele>
        <time>2026-05-14T12:27:53+02:00</time>
      </trkpt>
      <trkpt lat="46.8491" lon="4.96142">
        <ele>174.2002</ele>
        <time>2026-05-14T12:27:54+02:00</time>
      </trkpt>
      <trkpt lat="46.84913" lon="4.96142">
        <ele>174.2002</ele>
        <time>2026-05-14T12:27:55+02:00</time>
      </trkpt>
      <trkpt lat="46.84919" lon="4.96142">
        <ele>174.10059</ele>
        <time>2026-05-14T12:27:56+02:00</time>
      </trkpt>
      <trkpt lat="46.84928" lon="4.96142">
        <ele>174</ele>
        <time>2026-05-14T12:27:57+02:00</time>
      </trkpt>
      <trkpt lat="46.84931" lon="4.96142">
        <ele>174</ele>
        <time>2026-05-14T12:27:58+02:00</time>
      </trkpt>
      <trkpt lat="46.84937" lon="4.96142">
        <ele>173.90039</ele>
        <time>2026-05-14T12:27:59+02:00</time>
      </trkpt>
      <trkpt lat="46.84947" lon="4.96142">
        <ele>173.7998</ele>
        <time>2026-05-14T12:28:00+02:00</time>
      </trkpt>
      <trkpt lat="46.8495" lon="4.96143">
        <ele>173.7998</ele>
        <time>2026-05-14T12:28:01+02:00</time>
      </trkpt>
      <trkpt lat="46.84956" lon="4.96143">
        <ele>173.7998</ele>
        <time>2026-05-14T12:28:02+02:00</time>
      </trkpt>
      <trkpt lat="46.84965" lon="4.96143">
        <ele>173.7002</ele>
        <time>2026-05-14T12:28:03+02:00</time>
      </trkpt>
      <trkpt lat="46.84968" lon="4.96144">
        <ele>173.7002</ele>
        <time>2026-05-14T12:28:04+02:00</time>
      </trkpt>
      <trkpt lat="46.84974" lon="4.96144">
        <ele>173.7002</ele>
        <time>2026-05-14T12:28:05+02:00</time>
      </trkpt>
      <trkpt lat="46.8498" lon="4.96145">
        <ele>173.40039</ele>
        <time>2026-05-14T12:28:06+02:00</time>
      </trkpt>
      <trkpt lat="46.84983" lon="4.96145">
        <ele>173.40039</ele>
        <time>2026-05-14T12:28:07+02:00</time>
      </trkpt>
      <trkpt lat="46.84993" lon="4.96146">
        <ele>173.60059</ele>
        <time>2026-05-14T12:28:08+02:00</time>
      </trkpt>
      <trkpt lat="46.84998" lon="4.96147">
        <ele>173.60059</ele>
        <time>2026-05-14T12:28:09+02:00</time>
      </trkpt>
      <trkpt lat="46.85008" lon="4.96148">
        <ele>173.7002</ele>
        <time>2026-05-14T12:28:10+02:00</time>
      </trkpt>
      <trkpt lat="46.85011" lon="4.96148">
        <ele>173.60059</ele>
        <time>2026-05-14T12:28:11+02:00</time>
      </trkpt>
      <trkpt lat="46.85017" lon="4.96149">
        <ele>173.60059</ele>
        <time>2026-05-14T12:28:12+02:00</time>
      </trkpt>
      <trkpt lat="46.85025" lon="4.9615">
        <ele>173.60059</ele>
        <time>2026-05-14T12:28:13+02:00</time>
      </trkpt>
      <trkpt lat="46.85028" lon="4.96151">
        <ele>173.7002</ele>
        <time>2026-05-14T12:28:14+02:00</time>
      </trkpt>
      <trkpt lat="46.85034" lon="4.96152">
        <ele>173.7998</ele>
        <time>2026-05-14T12:28:15+02:00</time>
      </trkpt>
      <trkpt lat="46.85043" lon="4.96153">
        <ele>173.40039</ele>
        <time>2026-05-14T12:28:16+02:00</time>
      </trkpt>
      <trkpt lat="46.85046" lon="4.96153">
        <ele>173.5</ele>
        <time>2026-05-14T12:28:17+02:00</time>
      </trkpt>
      <trkpt lat="46.85051" lon="4.96154">
        <ele>173.60059</ele>
        <time>2026-05-14T12:28:18+02:00</time>
      </trkpt>
      <trkpt lat="46.8506" lon="4.96157">
        <ele>173.7002</ele>
        <time>2026-05-14T12:28:19+02:00</time>
      </trkpt>
      <trkpt lat="46.85063" lon="4.96158">
        <ele>173.7998</ele>
        <time>2026-05-14T12:28:20+02:00</time>
      </trkpt>
      <trkpt lat="46.85068" lon="4.96159">
        <ele>173.7998</ele>
        <time>2026-05-14T12:28:21+02:00</time>
      </trkpt>
      <trkpt lat="46.85077" lon="4.96162">
        <ele>173.90039</ele>
        <time>2026-05-14T12:28:22+02:00</time>
      </trkpt>
      <trkpt lat="46.8508" lon="4.96163">
        <ele>173.90039</ele>
        <time>2026-05-14T12:28:23+02:00</time>
      </trkpt>
      <trkpt lat="46.85085" lon="4.96165">
        <ele>174.2002</ele>
        <time>2026-05-14T12:28:24+02:00</time>
      </trkpt>
      <trkpt lat="46.85093" lon="4.96168">
        <ele>174.7002</ele>
        <time>2026-05-14T12:28:25+02:00</time>
      </trkpt>
      <trkpt lat="46.85096" lon="4.9617">
        <ele>174.7002</ele>
        <time>2026-05-14T12:28:26+02:00</time>
      </trkpt>
      <trkpt lat="46.85102" lon="4.96172">
        <ele>174.2998</ele>
        <time>2026-05-14T12:28:27+02:00</time>
      </trkpt>
      <trkpt lat="46.8511" lon="4.96176">
        <ele>174.2002</ele>
        <time>2026-05-14T12:28:28+02:00</time>
      </trkpt>
      <trkpt lat="46.85113" lon="4.96177">
        <ele>174.2002</ele>
        <time>2026-05-14T12:28:29+02:00</time>
      </trkpt>
      <trkpt lat="46.85118" lon="4.9618">
        <ele>173.7998</ele>
        <time>2026-05-14T12:28:30+02:00</time>
      </trkpt>
      <trkpt lat="46.85124" lon="4.96183">
        <ele>173.7998</ele>
        <time>2026-05-14T12:28:31+02:00</time>
      </trkpt>
      <trkpt lat="46.85133" lon="4.96187">
        <ele>173.7998</ele>
        <time>2026-05-14T12:28:32+02:00</time>
      </trkpt>
      <trkpt lat="46.85135" lon="4.96188">
        <ele>173.5</ele>
        <time>2026-05-14T12:28:33+02:00</time>
      </trkpt>
      <trkpt lat="46.85141" lon="4.96191">
        <ele>173.7002</ele>
        <time>2026-05-14T12:28:34+02:00</time>
      </trkpt>
      <trkpt lat="46.8515" lon="4.96195">
        <ele>173.90039</ele>
        <time>2026-05-14T12:28:35+02:00</time>
      </trkpt>
      <trkpt lat="46.85152" lon="4.96197">
        <ele>173.7998</ele>
        <time>2026-05-14T12:28:36+02:00</time>
      </trkpt>
      <trkpt lat="46.85158" lon="4.962">
        <ele>174</ele>
        <time>2026-05-14T12:28:37+02:00</time>
      </trkpt>
      <trkpt lat="46.85164" lon="4.96203">
        <ele>174</ele>
        <time>2026-05-14T12:28:38+02:00</time>
      </trkpt>
      <trkpt lat="46.85169" lon="4.96206">
        <ele>173.5</ele>
        <time>2026-05-14T12:28:39+02:00</time>
      </trkpt>
      <trkpt lat="46.85175" lon="4.96209">
        <ele>173.5</ele>
        <time>2026-05-14T12:28:40+02:00</time>
      </trkpt>
      <trkpt lat="46.8518" lon="4.96212">
        <ele>173.5</ele>
        <time>2026-05-14T12:28:41+02:00</time>
      </trkpt>
      <trkpt lat="46.85189" lon="4.96217">
        <ele>173.10059</ele>
        <time>2026-05-14T12:28:42+02:00</time>
      </trkpt>
      <trkpt lat="46.85192" lon="4.96218">
        <ele>173.10059</ele>
        <time>2026-05-14T12:28:43+02:00</time>
      </trkpt>
      <trkpt lat="46.85198" lon="4.96221">
        <ele>173.2002</ele>
        <time>2026-05-14T12:28:44+02:00</time>
      </trkpt>
      <trkpt lat="46.85206" lon="4.96225">
        <ele>172.90039</ele>
        <time>2026-05-14T12:28:45+02:00</time>
      </trkpt>
      <trkpt lat="46.85209" lon="4.96227">
        <ele>172.90039</ele>
        <time>2026-05-14T12:28:46+02:00</time>
      </trkpt>
      <trkpt lat="46.85214" lon="4.9623">
        <ele>173</ele>
        <time>2026-05-14T12:28:47+02:00</time>
      </trkpt>
      <trkpt lat="46.85223" lon="4.96234">
        <ele>172.7998</ele>
        <time>2026-05-14T12:28:48+02:00</time>
      </trkpt>
      <trkpt lat="46.85225" lon="4.96236">
        <ele>172.7998</ele>
        <time>2026-05-14T12:28:49+02:00</time>
      </trkpt>
      <trkpt lat="46.85231" lon="4.96239">
        <ele>172.5</ele>
        <time>2026-05-14T12:28:50+02:00</time>
      </trkpt>
      <trkpt lat="46.85236" lon="4.96242">
        <ele>172.60059</ele>
        <time>2026-05-14T12:28:51+02:00</time>
      </trkpt>
      <trkpt lat="46.85245" lon="4.96246">
        <ele>172.60059</ele>
        <time>2026-05-14T12:28:52+02:00</time>
      </trkpt>
      <trkpt lat="46.85247" lon="4.96247">
        <ele>172.60059</ele>
        <time>2026-05-14T12:28:53+02:00</time>
      </trkpt>
      <trkpt lat="46.85253" lon="4.9625">
        <ele>172.40039</ele>
        <time>2026-05-14T12:28:54+02:00</time>
      </trkpt>
      <trkpt lat="46.85261" lon="4.96255">
        <ele>172.5</ele>
        <time>2026-05-14T12:28:55+02:00</time>
      </trkpt>
      <trkpt lat="46.85263" lon="4.96257">
        <ele>172.2998</ele>
        <time>2026-05-14T12:28:56+02:00</time>
      </trkpt>
      <trkpt lat="46.85269" lon="4.96259">
        <ele>172.5</ele>
        <time>2026-05-14T12:28:57+02:00</time>
      </trkpt>
      <trkpt lat="46.85277" lon="4.96264">
        <ele>172.60059</ele>
        <time>2026-05-14T12:28:58+02:00</time>
      </trkpt>
      <trkpt lat="46.85277" lon="4.96264">
        <ele>172.60059</ele>
        <time>2026-05-14T12:28:59+02:00</time>
      </trkpt>
      <trkpt lat="46.85285" lon="4.96268">
        <ele>172.5</ele>
        <time>2026-05-14T12:29:00+02:00</time>
      </trkpt>
      <trkpt lat="46.8529" lon="4.96271">
        <ele>172.60059</ele>
        <time>2026-05-14T12:29:01+02:00</time>
      </trkpt>
      <trkpt lat="46.85297" lon="4.96275">
        <ele>172.40039</ele>
        <time>2026-05-14T12:29:02+02:00</time>
      </trkpt>
      <trkpt lat="46.853" lon="4.96277">
        <ele>172.40039</ele>
        <time>2026-05-14T12:29:03+02:00</time>
      </trkpt>
      <trkpt lat="46.85305" lon="4.9628">
        <ele>172.5</ele>
        <time>2026-05-14T12:29:04+02:00</time>
      </trkpt>
      <trkpt lat="46.8531" lon="4.96283">
        <ele>172.2002</ele>
        <time>2026-05-14T12:29:05+02:00</time>
      </trkpt>
      <trkpt lat="46.85317" lon="4.96287">
        <ele>172.2002</ele>
        <time>2026-05-14T12:29:06+02:00</time>
      </trkpt>
      <trkpt lat="46.8532" lon="4.96288">
        <ele>172.2002</ele>
        <time>2026-05-14T12:29:07+02:00</time>
      </trkpt>
      <trkpt lat="46.85325" lon="4.96291">
        <ele>172</ele>
        <time>2026-05-14T12:29:08+02:00</time>
      </trkpt>
      <trkpt lat="46.85332" lon="4.96295">
        <ele>172</ele>
        <time>2026-05-14T12:29:09+02:00</time>
      </trkpt>
      <trkpt lat="46.85335" lon="4.96296">
        <ele>172</ele>
        <time>2026-05-14T12:29:10+02:00</time>
      </trkpt>
      <trkpt lat="46.8534" lon="4.96299">
        <ele>171.90039</ele>
        <time>2026-05-14T12:29:11+02:00</time>
      </trkpt>
      <trkpt lat="46.85349" lon="4.96303">
        <ele>171.90039</ele>
        <time>2026-05-14T12:29:12+02:00</time>
      </trkpt>
      <trkpt lat="46.85351" lon="4.96304">
        <ele>171.90039</ele>
        <time>2026-05-14T12:29:13+02:00</time>
      </trkpt>
      <trkpt lat="46.85357" lon="4.96306">
        <ele>171.90039</ele>
        <time>2026-05-14T12:29:14+02:00</time>
      </trkpt>
      <trkpt lat="46.85365" lon="4.96309">
        <ele>171.7998</ele>
        <time>2026-05-14T12:29:15+02:00</time>
      </trkpt>
      <trkpt lat="46.85368" lon="4.96309">
        <ele>171.7998</ele>
        <time>2026-05-14T12:29:16+02:00</time>
      </trkpt>
      <trkpt lat="46.85373" lon="4.9631">
        <ele>171.7998</ele>
        <time>2026-05-14T12:29:17+02:00</time>
      </trkpt>
      <trkpt lat="46.85382" lon="4.96311">
        <ele>171.90039</ele>
        <time>2026-05-14T12:29:18+02:00</time>
      </trkpt>
      <trkpt lat="46.85385" lon="4.96311">
        <ele>171.90039</ele>
        <time>2026-05-14T12:29:19+02:00</time>
      </trkpt>
      <trkpt lat="46.8539" lon="4.96312">
        <ele>171.90039</ele>
        <time>2026-05-14T12:29:20+02:00</time>
      </trkpt>
      <trkpt lat="46.85398" lon="4.96311">
        <ele>171.90039</ele>
        <time>2026-05-14T12:29:21+02:00</time>
      </trkpt>
      <trkpt lat="46.85401" lon="4.96311">
        <ele>171.90039</ele>
        <time>2026-05-14T12:29:22+02:00</time>
      </trkpt>
      <trkpt lat="46.85407" lon="4.96311">
        <ele>171.90039</ele>
        <time>2026-05-14T12:29:23+02:00</time>
      </trkpt>
      <trkpt lat="46.85412" lon="4.96311">
        <ele>171.90039</ele>
        <time>2026-05-14T12:29:24+02:00</time>
      </trkpt>
      <trkpt lat="46.8542" lon="4.96311">
        <ele>171.90039</ele>
        <time>2026-05-14T12:29:25+02:00</time>
      </trkpt>
      <trkpt lat="46.85423" lon="4.9631">
        <ele>171.90039</ele>
        <time>2026-05-14T12:29:26+02:00</time>
      </trkpt>
      <trkpt lat="46.85428" lon="4.9631">
        <ele>171.90039</ele>
        <time>2026-05-14T12:29:27+02:00</time>
      </trkpt>
      <trkpt lat="46.85436" lon="4.96309">
        <ele>171.90039</ele>
        <time>2026-05-14T12:29:28+02:00</time>
      </trkpt>
      <trkpt lat="46.85439" lon="4.96309">
        <ele>171.90039</ele>
        <time>2026-05-14T12:29:29+02:00</time>
      </trkpt>
      <trkpt lat="46.85444" lon="4.96308">
        <ele>171.90039</ele>
        <time>2026-05-14T12:29:30+02:00</time>
      </trkpt>
      <trkpt lat="46.8545" lon="4.96306">
        <ele>171.90039</ele>
        <time>2026-05-14T12:29:31+02:00</time>
      </trkpt>
      <trkpt lat="46.85459" lon="4.96304">
        <ele>171.90039</ele>
        <time>2026-05-14T12:29:32+02:00</time>
      </trkpt>
      <trkpt lat="46.85461" lon="4.96303">
        <ele>171.90039</ele>
        <time>2026-05-14T12:29:33+02:00</time>
      </trkpt>
      <trkpt lat="46.85467" lon="4.96301">
        <ele>171.90039</ele>
        <time>2026-05-14T12:29:34+02:00</time>
      </trkpt>
      <trkpt lat="46.85475" lon="4.96298">
        <ele>171.90039</ele>
        <time>2026-05-14T12:29:35+02:00</time>
      </trkpt>
      <trkpt lat="46.85478" lon="4.96296">
        <ele>171.90039</ele>
        <time>2026-05-14T12:29:36+02:00</time>
      </trkpt>
      <trkpt lat="46.85483" lon="4.96294">
        <ele>171.90039</ele>
        <time>2026-05-14T12:29:37+02:00</time>
      </trkpt>
      <trkpt lat="46.85487" lon="4.96292">
        <ele>171.90039</ele>
        <time>2026-05-14T12:29:38+02:00</time>
      </trkpt>
      <trkpt lat="46.85495" lon="4.96289">
        <ele>171.90039</ele>
        <time>2026-05-14T12:29:39+02:00</time>
      </trkpt>
      <trkpt lat="46.85497" lon="4.96288">
        <ele>171.90039</ele>
        <time>2026-05-14T12:29:40+02:00</time>
      </trkpt>
      <trkpt lat="46.85502" lon="4.96285">
        <ele>171.90039</ele>
        <time>2026-05-14T12:29:41+02:00</time>
      </trkpt>
      <trkpt lat="46.8551" lon="4.96281">
        <ele>172.10059</ele>
        <time>2026-05-14T12:29:42+02:00</time>
      </trkpt>
      <trkpt lat="46.85512" lon="4.96279">
        <ele>172.10059</ele>
        <time>2026-05-14T12:29:43+02:00</time>
      </trkpt>
      <trkpt lat="46.85516" lon="4.96276">
        <ele>172</ele>
        <time>2026-05-14T12:29:44+02:00</time>
      </trkpt>
      <trkpt lat="46.85523" lon="4.96271">
        <ele>172.2002</ele>
        <time>2026-05-14T12:29:45+02:00</time>
      </trkpt>
      <trkpt lat="46.85525" lon="4.96269">
        <ele>172.2002</ele>
        <time>2026-05-14T12:29:46+02:00</time>
      </trkpt>
      <trkpt lat="46.8553" lon="4.96266">
        <ele>172.2002</ele>
        <time>2026-05-14T12:29:47+02:00</time>
      </trkpt>
      <trkpt lat="46.85536" lon="4.96261">
        <ele>172.40039</ele>
        <time>2026-05-14T12:29:48+02:00</time>
      </trkpt>
      <trkpt lat="46.85538" lon="4.96259">
        <ele>172.40039</ele>
        <time>2026-05-14T12:29:49+02:00</time>
      </trkpt>
      <trkpt lat="46.85542" lon="4.96256">
        <ele>172.40039</ele>
        <time>2026-05-14T12:29:50+02:00</time>
      </trkpt>
      <trkpt lat="46.85548" lon="4.96251">
        <ele>172.5</ele>
        <time>2026-05-14T12:29:51+02:00</time>
      </trkpt>
      <trkpt lat="46.8555" lon="4.9625">
        <ele>172.2998</ele>
        <time>2026-05-14T12:29:52+02:00</time>
      </trkpt>
      <trkpt lat="46.85562" lon="4.96239">
        <ele>172.10059</ele>
        <time>2026-05-14T12:29:53+02:00</time>
      </trkpt>
      <trkpt lat="46.85569" lon="4.96234">
        <ele>172.2002</ele>
        <time>2026-05-14T12:29:54+02:00</time>
      </trkpt>
      <trkpt lat="46.85571" lon="4.96232">
        <ele>172.2002</ele>
        <time>2026-05-14T12:29:55+02:00</time>
      </trkpt>
      <trkpt lat="46.85575" lon="4.96228">
        <ele>172.2998</ele>
        <time>2026-05-14T12:29:56+02:00</time>
      </trkpt>
      <trkpt lat="46.85582" lon="4.96223">
        <ele>172.2998</ele>
        <time>2026-05-14T12:29:57+02:00</time>
      </trkpt>
      <trkpt lat="46.85587" lon="4.96219">
        <ele>172.40039</ele>
        <time>2026-05-14T12:29:58+02:00</time>
      </trkpt>
      <trkpt lat="46.85589" lon="4.96217">
        <ele>172.40039</ele>
        <time>2026-05-14T12:29:59+02:00</time>
      </trkpt>
      <trkpt lat="46.85594" lon="4.96213">
        <ele>172.2998</ele>
        <time>2026-05-14T12:30:00+02:00</time>
      </trkpt>
      <trkpt lat="46.856" lon="4.96206">
        <ele>172.40039</ele>
        <time>2026-05-14T12:30:01+02:00</time>
      </trkpt>
      <trkpt lat="46.85602" lon="4.96204">
        <ele>172.60059</ele>
        <time>2026-05-14T12:30:02+02:00</time>
      </trkpt>
      <trkpt lat="46.85607" lon="4.962">
        <ele>172.5</ele>
        <time>2026-05-14T12:30:03+02:00</time>
      </trkpt>
      <trkpt lat="46.85613" lon="4.96193">
        <ele>172.5</ele>
        <time>2026-05-14T12:30:04+02:00</time>
      </trkpt>
      <trkpt lat="46.85616" lon="4.96191">
        <ele>172.40039</ele>
        <time>2026-05-14T12:30:05+02:00</time>
      </trkpt>
      <trkpt lat="46.8562" lon="4.96187">
        <ele>172.5</ele>
        <time>2026-05-14T12:30:06+02:00</time>
      </trkpt>
      <trkpt lat="46.85626" lon="4.9618">
        <ele>172.5</ele>
        <time>2026-05-14T12:30:07+02:00</time>
      </trkpt>
      <trkpt lat="46.85629" lon="4.96178">
        <ele>172.60059</ele>
        <time>2026-05-14T12:30:08+02:00</time>
      </trkpt>
      <trkpt lat="46.85633" lon="4.96174">
        <ele>172.5</ele>
        <time>2026-05-14T12:30:09+02:00</time>
      </trkpt>
      <trkpt lat="46.8564" lon="4.96167">
        <ele>172.60059</ele>
        <time>2026-05-14T12:30:10+02:00</time>
      </trkpt>
      <trkpt lat="46.8564" lon="4.96167">
        <ele>172.60059</ele>
        <time>2026-05-14T12:30:11+02:00</time>
      </trkpt>
      <trkpt lat="46.85646" lon="4.96159">
        <ele>172.60059</ele>
        <time>2026-05-14T12:30:12+02:00</time>
      </trkpt>
      <trkpt lat="46.8565" lon="4.96154">
        <ele>172.5</ele>
        <time>2026-05-14T12:30:13+02:00</time>
      </trkpt>
      <trkpt lat="46.85655" lon="4.9615">
        <ele>172.60059</ele>
        <time>2026-05-14T12:30:14+02:00</time>
      </trkpt>
      <trkpt lat="46.85659" lon="4.96145">
        <ele>172.5</ele>
        <time>2026-05-14T12:30:15+02:00</time>
      </trkpt>
      <trkpt lat="46.85663" lon="4.9614">
        <ele>172.5</ele>
        <time>2026-05-14T12:30:16+02:00</time>
      </trkpt>
      <trkpt lat="46.85669" lon="4.96132">
        <ele>172.5</ele>
        <time>2026-05-14T12:30:17+02:00</time>
      </trkpt>
      <trkpt lat="46.85671" lon="4.9613">
        <ele>172.5</ele>
        <time>2026-05-14T12:30:18+02:00</time>
      </trkpt>
      <trkpt lat="46.85676" lon="4.96124">
        <ele>172.5</ele>
        <time>2026-05-14T12:30:19+02:00</time>
      </trkpt>
      <trkpt lat="46.85682" lon="4.96117">
        <ele>172.5</ele>
        <time>2026-05-14T12:30:20+02:00</time>
      </trkpt>
      <trkpt lat="46.85684" lon="4.96114">
        <ele>172.5</ele>
        <time>2026-05-14T12:30:21+02:00</time>
      </trkpt>
      <trkpt lat="46.85688" lon="4.96109">
        <ele>172.5</ele>
        <time>2026-05-14T12:30:22+02:00</time>
      </trkpt>
      <trkpt lat="46.85694" lon="4.96102">
        <ele>172.40039</ele>
        <time>2026-05-14T12:30:23+02:00</time>
      </trkpt>
      <trkpt lat="46.85696" lon="4.96099">
        <ele>172.5</ele>
        <time>2026-05-14T12:30:24+02:00</time>
      </trkpt>
      <trkpt lat="46.857" lon="4.96094">
        <ele>172.40039</ele>
        <time>2026-05-14T12:30:25+02:00</time>
      </trkpt>
      <trkpt lat="46.85706" lon="4.96086">
        <ele>172.40039</ele>
        <time>2026-05-14T12:30:26+02:00</time>
      </trkpt>
      <trkpt lat="46.85708" lon="4.96083">
        <ele>172.5</ele>
        <time>2026-05-14T12:30:27+02:00</time>
      </trkpt>
      <trkpt lat="46.85712" lon="4.96077">
        <ele>172.5</ele>
        <time>2026-05-14T12:30:28+02:00</time>
      </trkpt>
      <trkpt lat="46.85717" lon="4.96068">
        <ele>172.5</ele>
        <time>2026-05-14T12:30:29+02:00</time>
      </trkpt>
      <trkpt lat="46.85717" lon="4.96068">
        <ele>172.5</ele>
        <time>2026-05-14T12:30:30+02:00</time>
      </trkpt>
      <trkpt lat="46.85722" lon="4.96059">
        <ele>172.7002</ele>
        <time>2026-05-14T12:30:31+02:00</time>
      </trkpt>
      <trkpt lat="46.85727" lon="4.96049">
        <ele>173</ele>
        <time>2026-05-14T12:30:32+02:00</time>
      </trkpt>
      <trkpt lat="46.85728" lon="4.96046">
        <ele>173</ele>
        <time>2026-05-14T12:30:33+02:00</time>
      </trkpt>
      <trkpt lat="46.85731" lon="4.96039">
        <ele>173.2002</ele>
        <time>2026-05-14T12:30:34+02:00</time>
      </trkpt>
      <trkpt lat="46.85733" lon="4.96032">
        <ele>173</ele>
        <time>2026-05-14T12:30:35+02:00</time>
      </trkpt>
      <trkpt lat="46.85737" lon="4.96021">
        <ele>173.2002</ele>
        <time>2026-05-14T12:30:36+02:00</time>
      </trkpt>
      <trkpt lat="46.85738" lon="4.96018">
        <ele>172.90039</ele>
        <time>2026-05-14T12:30:37+02:00</time>
      </trkpt>
      <trkpt lat="46.8574" lon="4.9601">
        <ele>173</ele>
        <time>2026-05-14T12:30:38+02:00</time>
      </trkpt>
      <trkpt lat="46.85743" lon="4.96">
        <ele>173.2998</ele>
        <time>2026-05-14T12:30:39+02:00</time>
      </trkpt>
      <trkpt lat="46.85745" lon="4.95996">
        <ele>173.2998</ele>
        <time>2026-05-14T12:30:40+02:00</time>
      </trkpt>
      <trkpt lat="46.85747" lon="4.95989">
        <ele>173.60059</ele>
        <time>2026-05-14T12:30:41+02:00</time>
      </trkpt>
      <trkpt lat="46.85751" lon="4.95978">
        <ele>173.5</ele>
        <time>2026-05-14T12:30:42+02:00</time>
      </trkpt>
      <trkpt lat="46.85752" lon="4.95974">
        <ele>173.5</ele>
        <time>2026-05-14T12:30:43+02:00</time>
      </trkpt>
      <trkpt lat="46.85754" lon="4.95967">
        <ele>173.7002</ele>
        <time>2026-05-14T12:30:44+02:00</time>
      </trkpt>
      <trkpt lat="46.85758" lon="4.95957">
        <ele>173.60059</ele>
        <time>2026-05-14T12:30:45+02:00</time>
      </trkpt>
      <trkpt lat="46.8576" lon="4.9595">
        <ele>173.90039</ele>
        <time>2026-05-14T12:30:46+02:00</time>
      </trkpt>
      <trkpt lat="46.85761" lon="4.95947">
        <ele>173.60059</ele>
        <time>2026-05-14T12:30:47+02:00</time>
      </trkpt>
      <trkpt lat="46.85763" lon="4.9594">
        <ele>173.90039</ele>
        <time>2026-05-14T12:30:48+02:00</time>
      </trkpt>
      <trkpt lat="46.85766" lon="4.95934">
        <ele>174.10059</ele>
        <time>2026-05-14T12:30:49+02:00</time>
      </trkpt>
      <trkpt lat="46.85769" lon="4.95924">
        <ele>173.5</ele>
        <time>2026-05-14T12:30:50+02:00</time>
      </trkpt>
      <trkpt lat="46.8577" lon="4.95921">
        <ele>173.5</ele>
        <time>2026-05-14T12:30:51+02:00</time>
      </trkpt>
      <trkpt lat="46.85772" lon="4.95915">
        <ele>173.5</ele>
        <time>2026-05-14T12:30:52+02:00</time>
      </trkpt>
      <trkpt lat="46.85777" lon="4.95905">
        <ele>173</ele>
        <time>2026-05-14T12:30:53+02:00</time>
      </trkpt>
      <trkpt lat="46.85778" lon="4.95902">
        <ele>173</ele>
        <time>2026-05-14T12:30:54+02:00</time>
      </trkpt>
      <trkpt lat="46.85781" lon="4.95895">
        <ele>172.60059</ele>
        <time>2026-05-14T12:30:55+02:00</time>
      </trkpt>
      <trkpt lat="46.85784" lon="4.95888">
        <ele>172.60059</ele>
        <time>2026-05-14T12:30:56+02:00</time>
      </trkpt>
      <trkpt lat="46.85788" lon="4.95877">
        <ele>172.2002</ele>
        <time>2026-05-14T12:30:57+02:00</time>
      </trkpt>
      <trkpt lat="46.85789" lon="4.95874">
        <ele>172.2002</ele>
        <time>2026-05-14T12:30:58+02:00</time>
      </trkpt>
      <trkpt lat="46.85793" lon="4.95867">
        <ele>172.2002</ele>
        <time>2026-05-14T12:30:59+02:00</time>
      </trkpt>
      <trkpt lat="46.85796" lon="4.9586">
        <ele>172.2002</ele>
        <time>2026-05-14T12:31:00+02:00</time>
      </trkpt>
      <trkpt lat="46.85801" lon="4.9585">
        <ele>172.10059</ele>
        <time>2026-05-14T12:31:01+02:00</time>
      </trkpt>
      <trkpt lat="46.85802" lon="4.95847">
        <ele>172.10059</ele>
        <time>2026-05-14T12:31:02+02:00</time>
      </trkpt>
      <trkpt lat="46.85805" lon="4.95841">
        <ele>172.10059</ele>
        <time>2026-05-14T12:31:03+02:00</time>
      </trkpt>
      <trkpt lat="46.85809" lon="4.95831">
        <ele>172.2002</ele>
        <time>2026-05-14T12:31:04+02:00</time>
      </trkpt>
      <trkpt lat="46.85811" lon="4.95828">
        <ele>172.2002</ele>
        <time>2026-05-14T12:31:05+02:00</time>
      </trkpt>
      <trkpt lat="46.85814" lon="4.95821">
        <ele>172.2002</ele>
        <time>2026-05-14T12:31:06+02:00</time>
      </trkpt>
      <trkpt lat="46.85817" lon="4.95815">
        <ele>172.2002</ele>
        <time>2026-05-14T12:31:07+02:00</time>
      </trkpt>
      <trkpt lat="46.85818" lon="4.95812">
        <ele>172.2002</ele>
        <time>2026-05-14T12:31:08+02:00</time>
      </trkpt>
      <trkpt lat="46.85823" lon="4.95802">
        <ele>172.2002</ele>
        <time>2026-05-14T12:31:09+02:00</time>
      </trkpt>
      <trkpt lat="46.85829" lon="4.95793">
        <ele>172.5</ele>
        <time>2026-05-14T12:31:10+02:00</time>
      </trkpt>
      <trkpt lat="46.85832" lon="4.95787">
        <ele>172.90039</ele>
        <time>2026-05-14T12:31:11+02:00</time>
      </trkpt>
      <trkpt lat="46.85834" lon="4.95784">
        <ele>172.90039</ele>
        <time>2026-05-14T12:31:12+02:00</time>
      </trkpt>
      <trkpt lat="46.85838" lon="4.95778">
        <ele>173.40039</ele>
        <time>2026-05-14T12:31:13+02:00</time>
      </trkpt>
      <trkpt lat="46.85842" lon="4.95771">
        <ele>173.7998</ele>
        <time>2026-05-14T12:31:14+02:00</time>
      </trkpt>
      <trkpt lat="46.85848" lon="4.95763">
        <ele>174</ele>
        <time>2026-05-14T12:31:15+02:00</time>
      </trkpt>
      <trkpt lat="46.85852" lon="4.95757">
        <ele>174</ele>
        <time>2026-05-14T12:31:16+02:00</time>
      </trkpt>
      <trkpt lat="46.85854" lon="4.95754">
        <ele>174</ele>
        <time>2026-05-14T12:31:17+02:00</time>
      </trkpt>
      <trkpt lat="46.8586" lon="4.95746">
        <ele>174.10059</ele>
        <time>2026-05-14T12:31:18+02:00</time>
      </trkpt>
      <trkpt lat="46.85862" lon="4.95743">
        <ele>173.7998</ele>
        <time>2026-05-14T12:31:19+02:00</time>
      </trkpt>
      <trkpt lat="46.85868" lon="4.95734">
        <ele>173.7998</ele>
        <time>2026-05-14T12:31:20+02:00</time>
      </trkpt>
      <trkpt lat="46.8587" lon="4.95732">
        <ele>174.10059</ele>
        <time>2026-05-14T12:31:21+02:00</time>
      </trkpt>
      <trkpt lat="46.85876" lon="4.95723">
        <ele>174</ele>
        <time>2026-05-14T12:31:22+02:00</time>
      </trkpt>
      <trkpt lat="46.85878" lon="4.9572">
        <ele>174</ele>
        <time>2026-05-14T12:31:23+02:00</time>
      </trkpt>
      <trkpt lat="46.85882" lon="4.95714">
        <ele>174</ele>
        <time>2026-05-14T12:31:24+02:00</time>
      </trkpt>
      <trkpt lat="46.85888" lon="4.95706">
        <ele>174.10059</ele>
        <time>2026-05-14T12:31:25+02:00</time>
      </trkpt>
      <trkpt lat="46.8589" lon="4.95702">
        <ele>174.10059</ele>
        <time>2026-05-14T12:31:26+02:00</time>
      </trkpt>
      <trkpt lat="46.85894" lon="4.95697">
        <ele>174.10059</ele>
        <time>2026-05-14T12:31:27+02:00</time>
      </trkpt>
      <trkpt lat="46.859" lon="4.95688">
        <ele>174</ele>
        <time>2026-05-14T12:31:28+02:00</time>
      </trkpt>
      <trkpt lat="46.85902" lon="4.95686">
        <ele>173.7002</ele>
        <time>2026-05-14T12:31:29+02:00</time>
      </trkpt>
      <trkpt lat="46.85906" lon="4.9568">
        <ele>174.10059</ele>
        <time>2026-05-14T12:31:30+02:00</time>
      </trkpt>
      <trkpt lat="46.85912" lon="4.95673">
        <ele>173.7998</ele>
        <time>2026-05-14T12:31:31+02:00</time>
      </trkpt>
      <trkpt lat="46.85915" lon="4.95671">
        <ele>173.7998</ele>
        <time>2026-05-14T12:31:32+02:00</time>
      </trkpt>
      <trkpt lat="46.85919" lon="4.95666">
        <ele>173.7998</ele>
        <time>2026-05-14T12:31:33+02:00</time>
      </trkpt>
      <trkpt lat="46.85925" lon="4.95661">
        <ele>173.7998</ele>
        <time>2026-05-14T12:31:34+02:00</time>
      </trkpt>
      <trkpt lat="46.85928" lon="4.95659">
        <ele>173.5</ele>
        <time>2026-05-14T12:31:35+02:00</time>
      </trkpt>
      <trkpt lat="46.85932" lon="4.95655">
        <ele>173.5</ele>
        <time>2026-05-14T12:31:36+02:00</time>
      </trkpt>
      <trkpt lat="46.85939" lon="4.95649">
        <ele>173.2998</ele>
        <time>2026-05-14T12:31:37+02:00</time>
      </trkpt>
      <trkpt lat="46.85941" lon="4.95647">
        <ele>173.2998</ele>
        <time>2026-05-14T12:31:38+02:00</time>
      </trkpt>
      <trkpt lat="46.85946" lon="4.95644">
        <ele>173.2998</ele>
        <time>2026-05-14T12:31:39+02:00</time>
      </trkpt>
      <trkpt lat="46.8595" lon="4.9564">
        <ele>173.10059</ele>
        <time>2026-05-14T12:31:40+02:00</time>
      </trkpt>
      <trkpt lat="46.85957" lon="4.95634">
        <ele>173.10059</ele>
        <time>2026-05-14T12:31:41+02:00</time>
      </trkpt>
      <trkpt lat="46.85959" lon="4.95633">
        <ele>173.10059</ele>
        <time>2026-05-14T12:31:42+02:00</time>
      </trkpt>
      <trkpt lat="46.85963" lon="4.95629">
        <ele>173.2002</ele>
        <time>2026-05-14T12:31:43+02:00</time>
      </trkpt>
      <trkpt lat="46.8597" lon="4.95624">
        <ele>173.10059</ele>
        <time>2026-05-14T12:31:44+02:00</time>
      </trkpt>
      <trkpt lat="46.85972" lon="4.95622">
        <ele>173.10059</ele>
        <time>2026-05-14T12:31:45+02:00</time>
      </trkpt>
      <trkpt lat="46.85977" lon="4.95619">
        <ele>173.2998</ele>
        <time>2026-05-14T12:31:46+02:00</time>
      </trkpt>
      <trkpt lat="46.85982" lon="4.95616">
        <ele>173.10059</ele>
        <time>2026-05-14T12:31:47+02:00</time>
      </trkpt>
      <trkpt lat="46.85989" lon="4.95611">
        <ele>173.2998</ele>
        <time>2026-05-14T12:31:48+02:00</time>
      </trkpt>
      <trkpt lat="46.85991" lon="4.95609">
        <ele>173</ele>
        <time>2026-05-14T12:31:49+02:00</time>
      </trkpt>
      <trkpt lat="46.85996" lon="4.95606">
        <ele>172.7002</ele>
        <time>2026-05-14T12:31:50+02:00</time>
      </trkpt>
      <trkpt lat="46.86004" lon="4.95601">
        <ele>172.7002</ele>
        <time>2026-05-14T12:31:51+02:00</time>
      </trkpt>
      <trkpt lat="46.86006" lon="4.956">
        <ele>172.7002</ele>
        <time>2026-05-14T12:31:52+02:00</time>
      </trkpt>
      <trkpt lat="46.86011" lon="4.95596">
        <ele>172.5</ele>
        <time>2026-05-14T12:31:53+02:00</time>
      </trkpt>
      <trkpt lat="46.86016" lon="4.95593">
        <ele>172.7998</ele>
        <time>2026-05-14T12:31:54+02:00</time>
      </trkpt>
      <trkpt lat="46.86023" lon="4.95588">
        <ele>172.60059</ele>
        <time>2026-05-14T12:31:55+02:00</time>
      </trkpt>
      <trkpt lat="46.86025" lon="4.95586">
        <ele>173</ele>
        <time>2026-05-14T12:31:56+02:00</time>
      </trkpt>
      <trkpt lat="46.8603" lon="4.95583">
        <ele>172.7998</ele>
        <time>2026-05-14T12:31:57+02:00</time>
      </trkpt>
      <trkpt lat="46.86038" lon="4.95578">
        <ele>172.40039</ele>
        <time>2026-05-14T12:31:58+02:00</time>
      </trkpt>
      <trkpt lat="46.86043" lon="4.95574">
        <ele>172.40039</ele>
        <time>2026-05-14T12:31:59+02:00</time>
      </trkpt>
      <trkpt lat="46.86046" lon="4.95572">
        <ele>172.40039</ele>
        <time>2026-05-14T12:32:00+02:00</time>
      </trkpt>
      <trkpt lat="46.86051" lon="4.95569">
        <ele>172.40039</ele>
        <time>2026-05-14T12:32:01+02:00</time>
      </trkpt>
      <trkpt lat="46.86058" lon="4.95564">
        <ele>172.2002</ele>
        <time>2026-05-14T12:32:02+02:00</time>
      </trkpt>
      <trkpt lat="46.8606" lon="4.95562">
        <ele>172.2002</ele>
        <time>2026-05-14T12:32:03+02:00</time>
      </trkpt>
      <trkpt lat="46.86066" lon="4.95558">
        <ele>172.2998</ele>
        <time>2026-05-14T12:32:04+02:00</time>
      </trkpt>
      <trkpt lat="46.86071" lon="4.95554">
        <ele>172.2998</ele>
        <time>2026-05-14T12:32:05+02:00</time>
      </trkpt>
      <trkpt lat="46.86078" lon="4.95548">
        <ele>172.2998</ele>
        <time>2026-05-14T12:32:06+02:00</time>
      </trkpt>
      <trkpt lat="46.86081" lon="4.95546">
        <ele>172.2998</ele>
        <time>2026-05-14T12:32:07+02:00</time>
      </trkpt>
      <trkpt lat="46.86086" lon="4.95542">
        <ele>172.2998</ele>
        <time>2026-05-14T12:32:08+02:00</time>
      </trkpt>
      <trkpt lat="46.86093" lon="4.95536">
        <ele>172.10059</ele>
        <time>2026-05-14T12:32:09+02:00</time>
      </trkpt>
      <trkpt lat="46.86095" lon="4.95534">
        <ele>172.2998</ele>
        <time>2026-05-14T12:32:10+02:00</time>
      </trkpt>
      <trkpt lat="46.861" lon="4.95529">
        <ele>172.2002</ele>
        <time>2026-05-14T12:32:11+02:00</time>
      </trkpt>
      <trkpt lat="46.86108" lon="4.95523">
        <ele>172.2998</ele>
        <time>2026-05-14T12:32:12+02:00</time>
      </trkpt>
      <trkpt lat="46.8611" lon="4.95521">
        <ele>172.2998</ele>
        <time>2026-05-14T12:32:13+02:00</time>
      </trkpt>
      <trkpt lat="46.86115" lon="4.95517">
        <ele>172.60059</ele>
        <time>2026-05-14T12:32:14+02:00</time>
      </trkpt>
      <trkpt lat="46.8612" lon="4.95513">
        <ele>172.5</ele>
        <time>2026-05-14T12:32:15+02:00</time>
      </trkpt>
      <trkpt lat="46.86128" lon="4.95507">
        <ele>172.7998</ele>
        <time>2026-05-14T12:32:16+02:00</time>
      </trkpt>
      <trkpt lat="46.8613" lon="4.95505">
        <ele>172.7998</ele>
        <time>2026-05-14T12:32:17+02:00</time>
      </trkpt>
      <trkpt lat="46.86135" lon="4.95501">
        <ele>172.7002</ele>
        <time>2026-05-14T12:32:18+02:00</time>
      </trkpt>
      <trkpt lat="46.86142" lon="4.95495">
        <ele>172.90039</ele>
        <time>2026-05-14T12:32:19+02:00</time>
      </trkpt>
      <trkpt lat="46.86145" lon="4.95493">
        <ele>172.7998</ele>
        <time>2026-05-14T12:32:20+02:00</time>
      </trkpt>
      <trkpt lat="46.8615" lon="4.95489">
        <ele>172.90039</ele>
        <time>2026-05-14T12:32:21+02:00</time>
      </trkpt>
      <trkpt lat="46.86158" lon="4.95483">
        <ele>173.10059</ele>
        <time>2026-05-14T12:32:22+02:00</time>
      </trkpt>
      <trkpt lat="46.86163" lon="4.95479">
        <ele>173</ele>
        <time>2026-05-14T12:32:23+02:00</time>
      </trkpt>
      <trkpt lat="46.86166" lon="4.95477">
        <ele>172.7998</ele>
        <time>2026-05-14T12:32:24+02:00</time>
      </trkpt>
      <trkpt lat="46.86171" lon="4.95474">
        <ele>173.40039</ele>
        <time>2026-05-14T12:32:25+02:00</time>
      </trkpt>
      <trkpt lat="46.86179" lon="4.95469">
        <ele>173.10059</ele>
        <time>2026-05-14T12:32:26+02:00</time>
      </trkpt>
      <trkpt lat="46.86185" lon="4.95465">
        <ele>173.5</ele>
        <time>2026-05-14T12:32:27+02:00</time>
      </trkpt>
      <trkpt lat="46.86187" lon="4.95464">
        <ele>173.5</ele>
        <time>2026-05-14T12:32:28+02:00</time>
      </trkpt>
      <trkpt lat="46.86192" lon="4.9546">
        <ele>173.40039</ele>
        <time>2026-05-14T12:32:29+02:00</time>
      </trkpt>
      <trkpt lat="46.862" lon="4.95456">
        <ele>173.7002</ele>
        <time>2026-05-14T12:32:30+02:00</time>
      </trkpt>
      <trkpt lat="46.86202" lon="4.95454">
        <ele>173.5</ele>
        <time>2026-05-14T12:32:31+02:00</time>
      </trkpt>
      <trkpt lat="46.86207" lon="4.95451">
        <ele>173.5</ele>
        <time>2026-05-14T12:32:32+02:00</time>
      </trkpt>
      <trkpt lat="46.86215" lon="4.95447">
        <ele>173.60059</ele>
        <time>2026-05-14T12:32:33+02:00</time>
      </trkpt>
      <trkpt lat="46.86217" lon="4.95446">
        <ele>173.60059</ele>
        <time>2026-05-14T12:32:34+02:00</time>
      </trkpt>
      <trkpt lat="46.86221" lon="4.95444">
        <ele>173.40039</ele>
        <time>2026-05-14T12:32:35+02:00</time>
      </trkpt>
      <trkpt lat="46.86229" lon="4.95439">
        <ele>173.90039</ele>
        <time>2026-05-14T12:32:36+02:00</time>
      </trkpt>
      <trkpt lat="46.86231" lon="4.95438">
        <ele>173.7002</ele>
        <time>2026-05-14T12:32:37+02:00</time>
      </trkpt>
      <trkpt lat="46.86236" lon="4.95434">
        <ele>173.7002</ele>
        <time>2026-05-14T12:32:38+02:00</time>
      </trkpt>
      <trkpt lat="46.86242" lon="4.9543">
        <ele>174.2998</ele>
        <time>2026-05-14T12:32:39+02:00</time>
      </trkpt>
      <trkpt lat="46.86245" lon="4.95428">
        <ele>174.2002</ele>
        <time>2026-05-14T12:32:40+02:00</time>
      </trkpt>
      <trkpt lat="46.86249" lon="4.95425">
        <ele>174.10059</ele>
        <time>2026-05-14T12:32:41+02:00</time>
      </trkpt>
      <trkpt lat="46.86253" lon="4.95423">
        <ele>174.7998</ele>
        <time>2026-05-14T12:32:42+02:00</time>
      </trkpt>
      <trkpt lat="46.8626" lon="4.95419">
        <ele>174.90039</ele>
        <time>2026-05-14T12:32:43+02:00</time>
      </trkpt>
      <trkpt lat="46.86264" lon="4.95417">
        <ele>174.90039</ele>
        <time>2026-05-14T12:32:44+02:00</time>
      </trkpt>
      <trkpt lat="46.86268" lon="4.95415">
        <ele>175.10059</ele>
        <time>2026-05-14T12:32:45+02:00</time>
      </trkpt>
      <trkpt lat="46.86273" lon="4.95413">
        <ele>175.5</ele>
        <time>2026-05-14T12:32:46+02:00</time>
      </trkpt>
      <trkpt lat="46.86277" lon="4.95411">
        <ele>175.5</ele>
        <time>2026-05-14T12:32:47+02:00</time>
      </trkpt>
      <trkpt lat="46.86279" lon="4.95411">
        <ele>175.5</ele>
        <time>2026-05-14T12:32:48+02:00</time>
      </trkpt>
      <trkpt lat="46.86283" lon="4.95409">
        <ele>175.5</ele>
        <time>2026-05-14T12:32:49+02:00</time>
      </trkpt>
      <trkpt lat="46.8629" lon="4.95408">
        <ele>175.60059</ele>
        <time>2026-05-14T12:32:50+02:00</time>
      </trkpt>
      <trkpt lat="46.86294" lon="4.95407">
        <ele>175.60059</ele>
        <time>2026-05-14T12:32:51+02:00</time>
      </trkpt>
      <trkpt lat="46.86297" lon="4.95407">
        <ele>175.60059</ele>
        <time>2026-05-14T12:32:52+02:00</time>
      </trkpt>
      <trkpt lat="46.86305" lon="4.95408">
        <ele>175.5</ele>
        <time>2026-05-14T12:32:53+02:00</time>
      </trkpt>
      <trkpt lat="46.86308" lon="4.95408">
        <ele>175.5</ele>
        <time>2026-05-14T12:32:54+02:00</time>
      </trkpt>
      <trkpt lat="46.86313" lon="4.95408">
        <ele>175.40039</ele>
        <time>2026-05-14T12:32:55+02:00</time>
      </trkpt>
      <trkpt lat="46.86321" lon="4.95408">
        <ele>175.40039</ele>
        <time>2026-05-14T12:32:56+02:00</time>
      </trkpt>
      <trkpt lat="46.86327" lon="4.95407">
        <ele>175.40039</ele>
        <time>2026-05-14T12:32:57+02:00</time>
      </trkpt>
      <trkpt lat="46.8633" lon="4.95407">
        <ele>175.40039</ele>
        <time>2026-05-14T12:32:58+02:00</time>
      </trkpt>
      <trkpt lat="46.86338" lon="4.95406">
        <ele>175.40039</ele>
        <time>2026-05-14T12:32:59+02:00</time>
      </trkpt>
      <trkpt lat="46.8634" lon="4.95405">
        <ele>175.40039</ele>
        <time>2026-05-14T12:33:00+02:00</time>
      </trkpt>
      <trkpt lat="46.86345" lon="4.95404">
        <ele>175.40039</ele>
        <time>2026-05-14T12:33:01+02:00</time>
      </trkpt>
      <trkpt lat="46.86353" lon="4.95402">
        <ele>175.40039</ele>
        <time>2026-05-14T12:33:02+02:00</time>
      </trkpt>
      <trkpt lat="46.86356" lon="4.95402">
        <ele>175.40039</ele>
        <time>2026-05-14T12:33:03+02:00</time>
      </trkpt>
      <trkpt lat="46.86361" lon="4.954">
        <ele>175.40039</ele>
        <time>2026-05-14T12:33:04+02:00</time>
      </trkpt>
      <trkpt lat="46.86368" lon="4.95399">
        <ele>175.40039</ele>
        <time>2026-05-14T12:33:05+02:00</time>
      </trkpt>
      <trkpt lat="46.86373" lon="4.95398">
        <ele>175.40039</ele>
        <time>2026-05-14T12:33:06+02:00</time>
      </trkpt>
      <trkpt lat="46.86375" lon="4.95397">
        <ele>175.40039</ele>
        <time>2026-05-14T12:33:07+02:00</time>
      </trkpt>
      <trkpt lat="46.86379" lon="4.95396">
        <ele>175.40039</ele>
        <time>2026-05-14T12:33:08+02:00</time>
      </trkpt>
      <trkpt lat="46.86386" lon="4.95396">
        <ele>175.40039</ele>
        <time>2026-05-14T12:33:09+02:00</time>
      </trkpt>
      <trkpt lat="46.86388" lon="4.95395">
        <ele>175.40039</ele>
        <time>2026-05-14T12:33:10+02:00</time>
      </trkpt>
      <trkpt lat="46.86392" lon="4.95395">
        <ele>175.5</ele>
        <time>2026-05-14T12:33:11+02:00</time>
      </trkpt>
      <trkpt lat="46.86396" lon="4.95394">
        <ele>175.5</ele>
        <time>2026-05-14T12:33:12+02:00</time>
      </trkpt>
      <trkpt lat="46.86402" lon="4.95393">
        <ele>175.5</ele>
        <time>2026-05-14T12:33:13+02:00</time>
      </trkpt>
      <trkpt lat="46.86404" lon="4.95392">
        <ele>175.5</ele>
        <time>2026-05-14T12:33:14+02:00</time>
      </trkpt>
      <trkpt lat="46.86408" lon="4.95391">
        <ele>175.40039</ele>
        <time>2026-05-14T12:33:15+02:00</time>
      </trkpt>
      <trkpt lat="46.86415" lon="4.9539">
        <ele>175.2998</ele>
        <time>2026-05-14T12:33:16+02:00</time>
      </trkpt>
      <trkpt lat="46.86417" lon="4.9539">
        <ele>175.2998</ele>
        <time>2026-05-14T12:33:17+02:00</time>
      </trkpt>
      <trkpt lat="46.86422" lon="4.9539">
        <ele>175.2002</ele>
        <time>2026-05-14T12:33:18+02:00</time>
      </trkpt>
      <trkpt lat="46.86429" lon="4.9539">
        <ele>175</ele>
        <time>2026-05-14T12:33:19+02:00</time>
      </trkpt>
      <trkpt lat="46.86434" lon="4.9539">
        <ele>174.90039</ele>
        <time>2026-05-14T12:33:20+02:00</time>
      </trkpt>
      <trkpt lat="46.86437" lon="4.9539">
        <ele>174.90039</ele>
        <time>2026-05-14T12:33:21+02:00</time>
      </trkpt>
      <trkpt lat="46.86442" lon="4.9539">
        <ele>175</ele>
        <time>2026-05-14T12:33:22+02:00</time>
      </trkpt>
      <trkpt lat="46.86447" lon="4.9539">
        <ele>175</ele>
        <time>2026-05-14T12:33:23+02:00</time>
      </trkpt>
      <trkpt lat="46.86454" lon="4.9539">
        <ele>175</ele>
        <time>2026-05-14T12:33:24+02:00</time>
      </trkpt>
      <trkpt lat="46.86456" lon="4.95389">
        <ele>175</ele>
        <time>2026-05-14T12:33:25+02:00</time>
      </trkpt>
      <trkpt lat="46.86461" lon="4.95389">
        <ele>175.10059</ele>
        <time>2026-05-14T12:33:26+02:00</time>
      </trkpt>
      <trkpt lat="46.86469" lon="4.9539">
        <ele>175.2002</ele>
        <time>2026-05-14T12:33:27+02:00</time>
      </trkpt>
      <trkpt lat="46.86471" lon="4.9539">
        <ele>175.2002</ele>
        <time>2026-05-14T12:33:28+02:00</time>
      </trkpt>
      <trkpt lat="46.86476" lon="4.9539">
        <ele>175.2002</ele>
        <time>2026-05-14T12:33:29+02:00</time>
      </trkpt>
      <trkpt lat="46.86481" lon="4.95391">
        <ele>175.2998</ele>
        <time>2026-05-14T12:33:30+02:00</time>
      </trkpt>
      <trkpt lat="46.86489" lon="4.95392">
        <ele>175.2998</ele>
        <time>2026-05-14T12:33:31+02:00</time>
      </trkpt>
      <trkpt lat="46.86494" lon="4.95393">
        <ele>175.2998</ele>
        <time>2026-05-14T12:33:32+02:00</time>
      </trkpt>
      <trkpt lat="46.86497" lon="4.95393">
        <ele>175.2998</ele>
        <time>2026-05-14T12:33:33+02:00</time>
      </trkpt>
      <trkpt lat="46.86504" lon="4.95395">
        <ele>175.2002</ele>
        <time>2026-05-14T12:33:34+02:00</time>
      </trkpt>
      <trkpt lat="46.8651" lon="4.95396">
        <ele>175.10059</ele>
        <time>2026-05-14T12:33:35+02:00</time>
      </trkpt>
      <trkpt lat="46.86513" lon="4.95396">
        <ele>175</ele>
        <time>2026-05-14T12:33:36+02:00</time>
      </trkpt>
      <trkpt lat="46.86517" lon="4.95398">
        <ele>175</ele>
        <time>2026-05-14T12:33:37+02:00</time>
      </trkpt>
      <trkpt lat="46.86525" lon="4.95399">
        <ele>174.7002</ele>
        <time>2026-05-14T12:33:38+02:00</time>
      </trkpt>
      <trkpt lat="46.86528" lon="4.954">
        <ele>174.7002</ele>
        <time>2026-05-14T12:33:39+02:00</time>
      </trkpt>
      <trkpt lat="46.86533" lon="4.95401">
        <ele>174.60059</ele>
        <time>2026-05-14T12:33:40+02:00</time>
      </trkpt>
      <trkpt lat="46.86538" lon="4.95403">
        <ele>174.40039</ele>
        <time>2026-05-14T12:33:41+02:00</time>
      </trkpt>
      <trkpt lat="46.86546" lon="4.95406">
        <ele>174.2998</ele>
        <time>2026-05-14T12:33:42+02:00</time>
      </trkpt>
      <trkpt lat="46.86548" lon="4.95407">
        <ele>174.2998</ele>
        <time>2026-05-14T12:33:43+02:00</time>
      </trkpt>
      <trkpt lat="46.86553" lon="4.9541">
        <ele>174.2998</ele>
        <time>2026-05-14T12:33:44+02:00</time>
      </trkpt>
      <trkpt lat="46.86558" lon="4.95413">
        <ele>174.2002</ele>
        <time>2026-05-14T12:33:45+02:00</time>
      </trkpt>
      <trkpt lat="46.86566" lon="4.95417">
        <ele>174.10059</ele>
        <time>2026-05-14T12:33:46+02:00</time>
      </trkpt>
      <trkpt lat="46.86568" lon="4.95418">
        <ele>174.10059</ele>
        <time>2026-05-14T12:33:47+02:00</time>
      </trkpt>
      <trkpt lat="46.86573" lon="4.95421">
        <ele>174.10059</ele>
        <time>2026-05-14T12:33:48+02:00</time>
      </trkpt>
      <trkpt lat="46.8658" lon="4.95425">
        <ele>174.10059</ele>
        <time>2026-05-14T12:33:49+02:00</time>
      </trkpt>
      <trkpt lat="46.86583" lon="4.95426">
        <ele>174.2002</ele>
        <time>2026-05-14T12:33:50+02:00</time>
      </trkpt>
      <trkpt lat="46.86588" lon="4.95429">
        <ele>174.2002</ele>
        <time>2026-05-14T12:33:51+02:00</time>
      </trkpt>
      <trkpt lat="46.86593" lon="4.95432">
        <ele>174.5</ele>
        <time>2026-05-14T12:33:52+02:00</time>
      </trkpt>
      <trkpt lat="46.866" lon="4.95436">
        <ele>174.7002</ele>
        <time>2026-05-14T12:33:53+02:00</time>
      </trkpt>
      <trkpt lat="46.86603" lon="4.95437">
        <ele>174.7002</ele>
        <time>2026-05-14T12:33:54+02:00</time>
      </trkpt>
      <trkpt lat="46.86607" lon="4.9544">
        <ele>174.7998</ele>
        <time>2026-05-14T12:33:55+02:00</time>
      </trkpt>
      <trkpt lat="46.86615" lon="4.95444">
        <ele>175.2002</ele>
        <time>2026-05-14T12:33:56+02:00</time>
      </trkpt>
      <trkpt lat="46.86618" lon="4.95446">
        <ele>175.2998</ele>
        <time>2026-05-14T12:33:57+02:00</time>
      </trkpt>
      <trkpt lat="46.86623" lon="4.95449">
        <ele>175.2998</ele>
        <time>2026-05-14T12:33:58+02:00</time>
      </trkpt>
      <trkpt lat="46.86631" lon="4.95455">
        <ele>175.60059</ele>
        <time>2026-05-14T12:33:59+02:00</time>
      </trkpt>
      <trkpt lat="46.86637" lon="4.9546">
        <ele>175.7002</ele>
        <time>2026-05-14T12:34:00+02:00</time>
      </trkpt>
      <trkpt lat="46.8664" lon="4.95462">
        <ele>175.7002</ele>
        <time>2026-05-14T12:34:01+02:00</time>
      </trkpt>
      <trkpt lat="46.86648" lon="4.95471">
        <ele>175.90039</ele>
        <time>2026-05-14T12:34:02+02:00</time>
      </trkpt>
      <trkpt lat="46.86654" lon="4.95477">
        <ele>176</ele>
        <time>2026-05-14T12:34:03+02:00</time>
      </trkpt>
      <trkpt lat="46.86656" lon="4.9548">
        <ele>176</ele>
        <time>2026-05-14T12:34:04+02:00</time>
      </trkpt>
      <trkpt lat="46.86664" lon="4.95488">
        <ele>176</ele>
        <time>2026-05-14T12:34:05+02:00</time>
      </trkpt>
      <trkpt lat="46.86669" lon="4.95494">
        <ele>176</ele>
        <time>2026-05-14T12:34:06+02:00</time>
      </trkpt>
      <trkpt lat="46.86674" lon="4.95501">
        <ele>175.90039</ele>
        <time>2026-05-14T12:34:07+02:00</time>
      </trkpt>
      <trkpt lat="46.86678" lon="4.95507">
        <ele>175.90039</ele>
        <time>2026-05-14T12:34:08+02:00</time>
      </trkpt>
      <trkpt lat="46.86683" lon="4.95514">
        <ele>175.7998</ele>
        <time>2026-05-14T12:34:09+02:00</time>
      </trkpt>
      <trkpt lat="46.86688" lon="4.95521">
        <ele>175.7998</ele>
        <time>2026-05-14T12:34:10+02:00</time>
      </trkpt>
      <trkpt lat="46.86692" lon="4.95527">
        <ele>175.7998</ele>
        <time>2026-05-14T12:34:11+02:00</time>
      </trkpt>
      <trkpt lat="46.86694" lon="4.95531">
        <ele>175.7998</ele>
        <time>2026-05-14T12:34:12+02:00</time>
      </trkpt>
      <trkpt lat="46.86701" lon="4.95541">
        <ele>175.7002</ele>
        <time>2026-05-14T12:34:13+02:00</time>
      </trkpt>
      <trkpt lat="46.86705" lon="4.95548">
        <ele>175.60059</ele>
        <time>2026-05-14T12:34:14+02:00</time>
      </trkpt>
      <trkpt lat="46.86709" lon="4.95555">
        <ele>175.2998</ele>
        <time>2026-05-14T12:34:15+02:00</time>
      </trkpt>
      <trkpt lat="46.86713" lon="4.95561">
        <ele>175.10059</ele>
        <time>2026-05-14T12:34:16+02:00</time>
      </trkpt>
      <trkpt lat="46.86717" lon="4.95568">
        <ele>175.10059</ele>
        <time>2026-05-14T12:34:17+02:00</time>
      </trkpt>
      <trkpt lat="46.86719" lon="4.95571">
        <ele>175</ele>
        <time>2026-05-14T12:34:18+02:00</time>
      </trkpt>
      <trkpt lat="46.86726" lon="4.95581">
        <ele>175.2002</ele>
        <time>2026-05-14T12:34:19+02:00</time>
      </trkpt>
      <trkpt lat="46.8673" lon="4.95588">
        <ele>175.2002</ele>
        <time>2026-05-14T12:34:20+02:00</time>
      </trkpt>
      <trkpt lat="46.86734" lon="4.95595">
        <ele>174.90039</ele>
        <time>2026-05-14T12:34:21+02:00</time>
      </trkpt>
      <trkpt lat="46.86738" lon="4.95602">
        <ele>175.2002</ele>
        <time>2026-05-14T12:34:22+02:00</time>
      </trkpt>
      <trkpt lat="46.86742" lon="4.95609">
        <ele>175.40039</ele>
        <time>2026-05-14T12:34:23+02:00</time>
      </trkpt>
      <trkpt lat="46.86746" lon="4.95617">
        <ele>175.40039</ele>
        <time>2026-05-14T12:34:24+02:00</time>
      </trkpt>
      <trkpt lat="46.86751" lon="4.95624">
        <ele>176</ele>
        <time>2026-05-14T12:34:25+02:00</time>
      </trkpt>
      <trkpt lat="46.86754" lon="4.9563">
        <ele>176.7998</ele>
        <time>2026-05-14T12:34:26+02:00</time>
      </trkpt>
      <trkpt lat="46.86759" lon="4.95637">
        <ele>177.2002</ele>
        <time>2026-05-14T12:34:27+02:00</time>
      </trkpt>
      <trkpt lat="46.86763" lon="4.95644">
        <ele>177.2998</ele>
        <time>2026-05-14T12:34:28+02:00</time>
      </trkpt>
      <trkpt lat="46.86767" lon="4.95651">
        <ele>177.2998</ele>
        <time>2026-05-14T12:34:29+02:00</time>
      </trkpt>
      <trkpt lat="46.86768" lon="4.95655">
        <ele>177.2998</ele>
        <time>2026-05-14T12:34:30+02:00</time>
      </trkpt>
      <trkpt lat="46.86774" lon="4.95665">
        <ele>176.90039</ele>
        <time>2026-05-14T12:34:31+02:00</time>
      </trkpt>
      <trkpt lat="46.86778" lon="4.95672">
        <ele>177.40039</ele>
        <time>2026-05-14T12:34:32+02:00</time>
      </trkpt>
      <trkpt lat="46.8678" lon="4.95675">
        <ele>177.40039</ele>
        <time>2026-05-14T12:34:33+02:00</time>
      </trkpt>
      <trkpt lat="46.86786" lon="4.95685">
        <ele>177.5</ele>
        <time>2026-05-14T12:34:34+02:00</time>
      </trkpt>
      <trkpt lat="46.86788" lon="4.95689">
        <ele>177.2998</ele>
        <time>2026-05-14T12:34:35+02:00</time>
      </trkpt>
      <trkpt lat="46.86792" lon="4.95696">
        <ele>177.2002</ele>
        <time>2026-05-14T12:34:36+02:00</time>
      </trkpt>
      <trkpt lat="46.86798" lon="4.95706">
        <ele>176.7002</ele>
        <time>2026-05-14T12:34:37+02:00</time>
      </trkpt>
      <trkpt lat="46.86802" lon="4.95712">
        <ele>176.10059</ele>
        <time>2026-05-14T12:34:38+02:00</time>
      </trkpt>
      <trkpt lat="46.86804" lon="4.95715">
        <ele>176.10059</ele>
        <time>2026-05-14T12:34:39+02:00</time>
      </trkpt>
      <trkpt lat="46.86809" lon="4.95726">
        <ele>175.5</ele>
        <time>2026-05-14T12:34:40+02:00</time>
      </trkpt>
      <trkpt lat="46.86813" lon="4.95733">
        <ele>175.2998</ele>
        <time>2026-05-14T12:34:41+02:00</time>
      </trkpt>
      <trkpt lat="46.86816" lon="4.95741">
        <ele>175</ele>
        <time>2026-05-14T12:34:42+02:00</time>
      </trkpt>
      <trkpt lat="46.86819" lon="4.95748">
        <ele>174.90039</ele>
        <time>2026-05-14T12:34:43+02:00</time>
      </trkpt>
      <trkpt lat="46.86822" lon="4.95756">
        <ele>174.7002</ele>
        <time>2026-05-14T12:34:44+02:00</time>
      </trkpt>
      <trkpt lat="46.86825" lon="4.95764">
        <ele>174.7002</ele>
        <time>2026-05-14T12:34:45+02:00</time>
      </trkpt>
      <trkpt lat="46.86828" lon="4.95771">
        <ele>174.5</ele>
        <time>2026-05-14T12:34:46+02:00</time>
      </trkpt>
      <trkpt lat="46.86831" lon="4.95779">
        <ele>174.2998</ele>
        <time>2026-05-14T12:34:47+02:00</time>
      </trkpt>
      <trkpt lat="46.86834" lon="4.95786">
        <ele>173.7998</ele>
        <time>2026-05-14T12:34:48+02:00</time>
      </trkpt>
      <trkpt lat="46.86838" lon="4.95794">
        <ele>173.40039</ele>
        <time>2026-05-14T12:34:49+02:00</time>
      </trkpt>
      <trkpt lat="46.86841" lon="4.95802">
        <ele>173.2002</ele>
        <time>2026-05-14T12:34:50+02:00</time>
      </trkpt>
      <trkpt lat="46.86843" lon="4.95809">
        <ele>173.2002</ele>
        <time>2026-05-14T12:34:51+02:00</time>
      </trkpt>
      <trkpt lat="46.86846" lon="4.95817">
        <ele>173</ele>
        <time>2026-05-14T12:34:52+02:00</time>
      </trkpt>
      <trkpt lat="46.86849" lon="4.95824">
        <ele>173</ele>
        <time>2026-05-14T12:34:53+02:00</time>
      </trkpt>
      <trkpt lat="46.86852" lon="4.95831">
        <ele>172.7998</ele>
        <time>2026-05-14T12:34:54+02:00</time>
      </trkpt>
      <trkpt lat="46.86855" lon="4.95839">
        <ele>172.7998</ele>
        <time>2026-05-14T12:34:55+02:00</time>
      </trkpt>
      <trkpt lat="46.86858" lon="4.95846">
        <ele>172.7002</ele>
        <time>2026-05-14T12:34:56+02:00</time>
      </trkpt>
      <trkpt lat="46.86862" lon="4.95854">
        <ele>172.7002</ele>
        <time>2026-05-14T12:34:57+02:00</time>
      </trkpt>
      <trkpt lat="46.86865" lon="4.95861">
        <ele>172.90039</ele>
        <time>2026-05-14T12:34:58+02:00</time>
      </trkpt>
      <trkpt lat="46.86867" lon="4.95868">
        <ele>172.7998</ele>
        <time>2026-05-14T12:34:59+02:00</time>
      </trkpt>
      <trkpt lat="46.86871" lon="4.95876">
        <ele>172.90039</ele>
        <time>2026-05-14T12:35:00+02:00</time>
      </trkpt>
      <trkpt lat="46.86874" lon="4.95883">
        <ele>172.90039</ele>
        <time>2026-05-14T12:35:01+02:00</time>
      </trkpt>
      <trkpt lat="46.86877" lon="4.95891">
        <ele>173</ele>
        <time>2026-05-14T12:35:02+02:00</time>
      </trkpt>
      <trkpt lat="46.8688" lon="4.95899">
        <ele>172.90039</ele>
        <time>2026-05-14T12:35:03+02:00</time>
      </trkpt>
      <trkpt lat="46.86883" lon="4.95906">
        <ele>173.10059</ele>
        <time>2026-05-14T12:35:04+02:00</time>
      </trkpt>
      <trkpt lat="46.86886" lon="4.95914">
        <ele>173.10059</ele>
        <time>2026-05-14T12:35:05+02:00</time>
      </trkpt>
      <trkpt lat="46.86889" lon="4.95921">
        <ele>173.5</ele>
        <time>2026-05-14T12:35:06+02:00</time>
      </trkpt>
      <trkpt lat="46.86892" lon="4.95928">
        <ele>173.40039</ele>
        <time>2026-05-14T12:35:07+02:00</time>
      </trkpt>
      <trkpt lat="46.86895" lon="4.95935">
        <ele>173.7998</ele>
        <time>2026-05-14T12:35:08+02:00</time>
      </trkpt>
      <trkpt lat="46.86897" lon="4.95942">
        <ele>173.7998</ele>
        <time>2026-05-14T12:35:09+02:00</time>
      </trkpt>
      <trkpt lat="46.869" lon="4.95949">
        <ele>174.2998</ele>
        <time>2026-05-14T12:35:10+02:00</time>
      </trkpt>
      <trkpt lat="46.86902" lon="4.95952">
        <ele>174.2998</ele>
        <time>2026-05-14T12:35:11+02:00</time>
      </trkpt>
      <trkpt lat="46.86906" lon="4.95962">
        <ele>174.60059</ele>
        <time>2026-05-14T12:35:12+02:00</time>
      </trkpt>
      <trkpt lat="46.86909" lon="4.95967">
        <ele>174.2998</ele>
        <time>2026-05-14T12:35:13+02:00</time>
      </trkpt>
      <trkpt lat="46.86913" lon="4.95972">
        <ele>174.5</ele>
        <time>2026-05-14T12:35:14+02:00</time>
      </trkpt>
      <trkpt lat="46.86918" lon="4.95975">
        <ele>174.40039</ele>
        <time>2026-05-14T12:35:15+02:00</time>
      </trkpt>
      <trkpt lat="46.86922" lon="4.95979">
        <ele>174.40039</ele>
        <time>2026-05-14T12:35:16+02:00</time>
      </trkpt>
      <trkpt lat="46.86926" lon="4.95981">
        <ele>174.60059</ele>
        <time>2026-05-14T12:35:17+02:00</time>
      </trkpt>
      <trkpt lat="46.86929" lon="4.95982">
        <ele>174.7002</ele>
        <time>2026-05-14T12:35:18+02:00</time>
      </trkpt>
      <trkpt lat="46.86936" lon="4.95985">
        <ele>174.7998</ele>
        <time>2026-05-14T12:35:19+02:00</time>
      </trkpt>
      <trkpt lat="46.86941" lon="4.95988">
        <ele>174.7002</ele>
        <time>2026-05-14T12:35:20+02:00</time>
      </trkpt>
      <trkpt lat="46.86946" lon="4.9599">
        <ele>174.60059</ele>
        <time>2026-05-14T12:35:21+02:00</time>
      </trkpt>
      <trkpt lat="46.86949" lon="4.9599">
        <ele>174.60059</ele>
        <time>2026-05-14T12:35:22+02:00</time>
      </trkpt>
      <trkpt lat="46.86957" lon="4.95994">
        <ele>174.5</ele>
        <time>2026-05-14T12:35:23+02:00</time>
      </trkpt>
      <trkpt lat="46.86962" lon="4.95996">
        <ele>174.40039</ele>
        <time>2026-05-14T12:35:24+02:00</time>
      </trkpt>
      <trkpt lat="46.86968" lon="4.95999">
        <ele>174.2998</ele>
        <time>2026-05-14T12:35:25+02:00</time>
      </trkpt>
      <trkpt lat="46.86973" lon="4.96002">
        <ele>174.2998</ele>
        <time>2026-05-14T12:35:26+02:00</time>
      </trkpt>
      <trkpt lat="46.86978" lon="4.96007">
        <ele>174.2002</ele>
        <time>2026-05-14T12:35:27+02:00</time>
      </trkpt>
      <trkpt lat="46.8698" lon="4.96008">
        <ele>174.2002</ele>
        <time>2026-05-14T12:35:28+02:00</time>
      </trkpt>
      <trkpt lat="46.86987" lon="4.96014">
        <ele>174.10059</ele>
        <time>2026-05-14T12:35:29+02:00</time>
      </trkpt>
      <trkpt lat="46.86991" lon="4.96018">
        <ele>174.10059</ele>
        <time>2026-05-14T12:35:30+02:00</time>
      </trkpt>
      <trkpt lat="46.86994" lon="4.9602">
        <ele>174</ele>
        <time>2026-05-14T12:35:31+02:00</time>
      </trkpt>
      <trkpt lat="46.87" lon="4.96026">
        <ele>174</ele>
        <time>2026-05-14T12:35:32+02:00</time>
      </trkpt>
      <trkpt lat="46.87002" lon="4.96028">
        <ele>174</ele>
        <time>2026-05-14T12:35:33+02:00</time>
      </trkpt>
      <trkpt lat="46.87008" lon="4.96036">
        <ele>174</ele>
        <time>2026-05-14T12:35:34+02:00</time>
      </trkpt>
      <trkpt lat="46.87012" lon="4.96041">
        <ele>174</ele>
        <time>2026-05-14T12:35:35+02:00</time>
      </trkpt>
      <trkpt lat="46.87014" lon="4.96044">
        <ele>174</ele>
        <time>2026-05-14T12:35:36+02:00</time>
      </trkpt>
      <trkpt lat="46.8702" lon="4.9605">
        <ele>174</ele>
        <time>2026-05-14T12:35:37+02:00</time>
      </trkpt>
      <trkpt lat="46.87024" lon="4.96052">
        <ele>174</ele>
        <time>2026-05-14T12:35:38+02:00</time>
      </trkpt>
      <trkpt lat="46.87027" lon="4.96054">
        <ele>174</ele>
        <time>2026-05-14T12:35:39+02:00</time>
      </trkpt>
      <trkpt lat="46.87032" lon="4.96056">
        <ele>173.90039</ele>
        <time>2026-05-14T12:35:40+02:00</time>
      </trkpt>
      <trkpt lat="46.87037" lon="4.96059">
        <ele>174</ele>
        <time>2026-05-14T12:35:41+02:00</time>
      </trkpt>
      <trkpt lat="46.87039" lon="4.9606">
        <ele>174</ele>
        <time>2026-05-14T12:35:42+02:00</time>
      </trkpt>
      <trkpt lat="46.87044" lon="4.96064">
        <ele>173.90039</ele>
        <time>2026-05-14T12:35:43+02:00</time>
      </trkpt>
      <trkpt lat="46.8705" lon="4.96074">
        <ele>174</ele>
        <time>2026-05-14T12:35:44+02:00</time>
      </trkpt>
      <trkpt lat="46.87052" lon="4.96081">
        <ele>174.10059</ele>
        <time>2026-05-14T12:35:45+02:00</time>
      </trkpt>
      <trkpt lat="46.87052" lon="4.96085">
        <ele>174.2998</ele>
        <time>2026-05-14T12:35:46+02:00</time>
      </trkpt>
      <trkpt lat="46.87052" lon="4.96093">
        <ele>174.40039</ele>
        <time>2026-05-14T12:35:47+02:00</time>
      </trkpt>
      <trkpt lat="46.87048" lon="4.96103">
        <ele>174.5</ele>
        <time>2026-05-14T12:35:48+02:00</time>
      </trkpt>
      <trkpt lat="46.87046" lon="4.96109">
        <ele>174.40039</ele>
        <time>2026-05-14T12:35:49+02:00</time>
      </trkpt>
      <trkpt lat="46.87043" lon="4.96115">
        <ele>174.5</ele>
        <time>2026-05-14T12:35:50+02:00</time>
      </trkpt>
      <trkpt lat="46.87042" lon="4.96118">
        <ele>174.5</ele>
        <time>2026-05-14T12:35:51+02:00</time>
      </trkpt>
      <trkpt lat="46.87037" lon="4.96127">
        <ele>174.60059</ele>
        <time>2026-05-14T12:35:52+02:00</time>
      </trkpt>
      <trkpt lat="46.87035" lon="4.96133">
        <ele>174.7002</ele>
        <time>2026-05-14T12:35:53+02:00</time>
      </trkpt>
      <trkpt lat="46.87032" lon="4.96139">
        <ele>174.7002</ele>
        <time>2026-05-14T12:35:54+02:00</time>
      </trkpt>
      <trkpt lat="46.8703" lon="4.96142">
        <ele>174.7002</ele>
        <time>2026-05-14T12:35:55+02:00</time>
      </trkpt>
      <trkpt lat="46.87025" lon="4.96152">
        <ele>174.7002</ele>
        <time>2026-05-14T12:35:56+02:00</time>
      </trkpt>
      <trkpt lat="46.87024" lon="4.96156">
        <ele>174.7002</ele>
        <time>2026-05-14T12:35:57+02:00</time>
      </trkpt>
      <trkpt lat="46.87021" lon="4.96162">
        <ele>174.60059</ele>
        <time>2026-05-14T12:35:58+02:00</time>
      </trkpt>
      <trkpt lat="46.87017" lon="4.96173">
        <ele>174.5</ele>
        <time>2026-05-14T12:35:59+02:00</time>
      </trkpt>
      <trkpt lat="46.87014" lon="4.96179">
        <ele>174.10059</ele>
        <time>2026-05-14T12:36:00+02:00</time>
      </trkpt>
      <trkpt lat="46.87011" lon="4.96186">
        <ele>174.10059</ele>
        <time>2026-05-14T12:36:01+02:00</time>
      </trkpt>
      <trkpt lat="46.87008" lon="4.96193">
        <ele>173.60059</ele>
        <time>2026-05-14T12:36:02+02:00</time>
      </trkpt>
      <trkpt lat="46.87005" lon="4.962">
        <ele>173</ele>
        <time>2026-05-14T12:36:03+02:00</time>
      </trkpt>
      <trkpt lat="46.87001" lon="4.96206">
        <ele>172.7002</ele>
        <time>2026-05-14T12:36:04+02:00</time>
      </trkpt>
      <trkpt lat="46.86998" lon="4.96213">
        <ele>172.2002</ele>
        <time>2026-05-14T12:36:05+02:00</time>
      </trkpt>
      <trkpt lat="46.86997" lon="4.96216">
        <ele>172.2002</ele>
        <time>2026-05-14T12:36:06+02:00</time>
      </trkpt>
      <trkpt lat="46.86994" lon="4.96226">
        <ele>172.10059</ele>
        <time>2026-05-14T12:36:07+02:00</time>
      </trkpt>
      <trkpt lat="46.86994" lon="4.96232">
        <ele>172.10059</ele>
        <time>2026-05-14T12:36:08+02:00</time>
      </trkpt>
      <trkpt lat="46.86994" lon="4.96238">
        <ele>172.10059</ele>
        <time>2026-05-14T12:36:09+02:00</time>
      </trkpt>
      <trkpt lat="46.86996" lon="4.96243">
        <ele>172.10059</ele>
        <time>2026-05-14T12:36:10+02:00</time>
      </trkpt>
      <trkpt lat="46.86999" lon="4.96247">
        <ele>172.2998</ele>
        <time>2026-05-14T12:36:11+02:00</time>
      </trkpt>
      <trkpt lat="46.87002" lon="4.9625">
        <ele>172.2002</ele>
        <time>2026-05-14T12:36:12+02:00</time>
      </trkpt>
      <trkpt lat="46.87005" lon="4.96253">
        <ele>172.2002</ele>
        <time>2026-05-14T12:36:13+02:00</time>
      </trkpt>
      <trkpt lat="46.87008" lon="4.96257">
        <ele>172.10059</ele>
        <time>2026-05-14T12:36:14+02:00</time>
      </trkpt>
      <trkpt lat="46.87012" lon="4.96261">
        <ele>172.2998</ele>
        <time>2026-05-14T12:36:15+02:00</time>
      </trkpt>
      <trkpt lat="46.87015" lon="4.96266">
        <ele>172</ele>
        <time>2026-05-14T12:36:16+02:00</time>
      </trkpt>
      <trkpt lat="46.87019" lon="4.9627">
        <ele>172.2002</ele>
        <time>2026-05-14T12:36:17+02:00</time>
      </trkpt>
      <trkpt lat="46.87023" lon="4.96274">
        <ele>172.40039</ele>
        <time>2026-05-14T12:36:18+02:00</time>
      </trkpt>
      <trkpt lat="46.87026" lon="4.96278">
        <ele>172.40039</ele>
        <time>2026-05-14T12:36:19+02:00</time>
      </trkpt>
      <trkpt lat="46.8703" lon="4.96283">
        <ele>172.2998</ele>
        <time>2026-05-14T12:36:20+02:00</time>
      </trkpt>
      <trkpt lat="46.87034" lon="4.96287">
        <ele>172.2998</ele>
        <time>2026-05-14T12:36:21+02:00</time>
      </trkpt>
      <trkpt lat="46.87037" lon="4.96291">
        <ele>172.2002</ele>
        <time>2026-05-14T12:36:22+02:00</time>
      </trkpt>
      <trkpt lat="46.87041" lon="4.96296">
        <ele>172.40039</ele>
        <time>2026-05-14T12:36:23+02:00</time>
      </trkpt>
      <trkpt lat="46.87045" lon="4.963">
        <ele>172.10059</ele>
        <time>2026-05-14T12:36:24+02:00</time>
      </trkpt>
      <trkpt lat="46.87049" lon="4.96305">
        <ele>172.2998</ele>
        <time>2026-05-14T12:36:25+02:00</time>
      </trkpt>
      <trkpt lat="46.87053" lon="4.96309">
        <ele>172.2998</ele>
        <time>2026-05-14T12:36:26+02:00</time>
      </trkpt>
      <trkpt lat="46.87057" lon="4.96313">
        <ele>172.2998</ele>
        <time>2026-05-14T12:36:27+02:00</time>
      </trkpt>
      <trkpt lat="46.87061" lon="4.96318">
        <ele>172.2002</ele>
        <time>2026-05-14T12:36:28+02:00</time>
      </trkpt>
      <trkpt lat="46.87065" lon="4.96321">
        <ele>172.2998</ele>
        <time>2026-05-14T12:36:29+02:00</time>
      </trkpt>
      <trkpt lat="46.87069" lon="4.96325">
        <ele>172</ele>
        <time>2026-05-14T12:36:30+02:00</time>
      </trkpt>
      <trkpt lat="46.87073" lon="4.96328">
        <ele>172</ele>
        <time>2026-05-14T12:36:31+02:00</time>
      </trkpt>
      <trkpt lat="46.87077" lon="4.96331">
        <ele>171.90039</ele>
        <time>2026-05-14T12:36:32+02:00</time>
      </trkpt>
      <trkpt lat="46.87081" lon="4.96334">
        <ele>171.7998</ele>
        <time>2026-05-14T12:36:33+02:00</time>
      </trkpt>
      <trkpt lat="46.87085" lon="4.96337">
        <ele>171.90039</ele>
        <time>2026-05-14T12:36:34+02:00</time>
      </trkpt>
      <trkpt lat="46.87089" lon="4.9634">
        <ele>172</ele>
        <time>2026-05-14T12:36:35+02:00</time>
      </trkpt>
      <trkpt lat="46.87093" lon="4.96343">
        <ele>171.90039</ele>
        <time>2026-05-14T12:36:36+02:00</time>
      </trkpt>
      <trkpt lat="46.87097" lon="4.96346">
        <ele>172</ele>
        <time>2026-05-14T12:36:37+02:00</time>
      </trkpt>
      <trkpt lat="46.87102" lon="4.96349">
        <ele>172.2002</ele>
        <time>2026-05-14T12:36:38+02:00</time>
      </trkpt>
      <trkpt lat="46.87106" lon="4.96352">
        <ele>172.10059</ele>
        <time>2026-05-14T12:36:39+02:00</time>
      </trkpt>
      <trkpt lat="46.87111" lon="4.96355">
        <ele>172.10059</ele>
        <time>2026-05-14T12:36:40+02:00</time>
      </trkpt>
      <trkpt lat="46.87116" lon="4.96358">
        <ele>172.10059</ele>
        <time>2026-05-14T12:36:41+02:00</time>
      </trkpt>
      <trkpt lat="46.8712" lon="4.9636">
        <ele>171.90039</ele>
        <time>2026-05-14T12:36:42+02:00</time>
      </trkpt>
      <trkpt lat="46.87125" lon="4.96363">
        <ele>171.90039</ele>
        <time>2026-05-14T12:36:43+02:00</time>
      </trkpt>
      <trkpt lat="46.8713" lon="4.96364">
        <ele>171.90039</ele>
        <time>2026-05-14T12:36:44+02:00</time>
      </trkpt>
      <trkpt lat="46.87135" lon="4.96366">
        <ele>172</ele>
        <time>2026-05-14T12:36:45+02:00</time>
      </trkpt>
      <trkpt lat="46.8714" lon="4.96368">
        <ele>171.90039</ele>
        <time>2026-05-14T12:36:46+02:00</time>
      </trkpt>
      <trkpt lat="46.87145" lon="4.96369">
        <ele>172.10059</ele>
        <time>2026-05-14T12:36:47+02:00</time>
      </trkpt>
      <trkpt lat="46.8715" lon="4.9637">
        <ele>172.2998</ele>
        <time>2026-05-14T12:36:48+02:00</time>
      </trkpt>
      <trkpt lat="46.87155" lon="4.96371">
        <ele>172.40039</ele>
        <time>2026-05-14T12:36:49+02:00</time>
      </trkpt>
      <trkpt lat="46.8716" lon="4.96372">
        <ele>172.5</ele>
        <time>2026-05-14T12:36:50+02:00</time>
      </trkpt>
      <trkpt lat="46.87166" lon="4.96372">
        <ele>172.5</ele>
        <time>2026-05-14T12:36:51+02:00</time>
      </trkpt>
      <trkpt lat="46.87171" lon="4.96373">
        <ele>172.5</ele>
        <time>2026-05-14T12:36:52+02:00</time>
      </trkpt>
      <trkpt lat="46.87177" lon="4.96373">
        <ele>172.5</ele>
        <time>2026-05-14T12:36:53+02:00</time>
      </trkpt>
      <trkpt lat="46.87182" lon="4.96373">
        <ele>172.5</ele>
        <time>2026-05-14T12:36:54+02:00</time>
      </trkpt>
      <trkpt lat="46.87187" lon="4.96372">
        <ele>172.5</ele>
        <time>2026-05-14T12:36:55+02:00</time>
      </trkpt>
      <trkpt lat="46.87193" lon="4.96372">
        <ele>172.5</ele>
        <time>2026-05-14T12:36:56+02:00</time>
      </trkpt>
      <trkpt lat="46.87198" lon="4.96372">
        <ele>172.5</ele>
        <time>2026-05-14T12:36:57+02:00</time>
      </trkpt>
      <trkpt lat="46.87203" lon="4.96371">
        <ele>172.5</ele>
        <time>2026-05-14T12:36:58+02:00</time>
      </trkpt>
      <trkpt lat="46.87207" lon="4.9637">
        <ele>172.40039</ele>
        <time>2026-05-14T12:36:59+02:00</time>
      </trkpt>
      <trkpt lat="46.87211" lon="4.96369">
        <ele>172.40039</ele>
        <time>2026-05-14T12:37:00+02:00</time>
      </trkpt>
      <trkpt lat="46.87216" lon="4.96368">
        <ele>172.40039</ele>
        <time>2026-05-14T12:37:01+02:00</time>
      </trkpt>
      <trkpt lat="46.8722" lon="4.96368">
        <ele>172.40039</ele>
        <time>2026-05-14T12:37:02+02:00</time>
      </trkpt>
      <trkpt lat="46.87225" lon="4.96366">
        <ele>172.7998</ele>
        <time>2026-05-14T12:37:03+02:00</time>
      </trkpt>
      <trkpt lat="46.87229" lon="4.96365">
        <ele>172.7998</ele>
        <time>2026-05-14T12:37:04+02:00</time>
      </trkpt>
      <trkpt lat="46.87234" lon="4.96363">
        <ele>172.7002</ele>
        <time>2026-05-14T12:37:05+02:00</time>
      </trkpt>
      <trkpt lat="46.87239" lon="4.96362">
        <ele>172.7002</ele>
        <time>2026-05-14T12:37:06+02:00</time>
      </trkpt>
      <trkpt lat="46.87243" lon="4.9636">
        <ele>172.7002</ele>
        <time>2026-05-14T12:37:07+02:00</time>
      </trkpt>
      <trkpt lat="46.87245" lon="4.96359">
        <ele>172.7002</ele>
        <time>2026-05-14T12:37:08+02:00</time>
      </trkpt>
      <trkpt lat="46.87251" lon="4.96354">
        <ele>173.10059</ele>
        <time>2026-05-14T12:37:09+02:00</time>
      </trkpt>
      <trkpt lat="46.87255" lon="4.96351">
        <ele>173</ele>
        <time>2026-05-14T12:37:10+02:00</time>
      </trkpt>
      <trkpt lat="46.87259" lon="4.96347">
        <ele>173.40039</ele>
        <time>2026-05-14T12:37:11+02:00</time>
      </trkpt>
      <trkpt lat="46.87264" lon="4.96343">
        <ele>173.40039</ele>
        <time>2026-05-14T12:37:12+02:00</time>
      </trkpt>
      <trkpt lat="46.87269" lon="4.96339">
        <ele>174</ele>
        <time>2026-05-14T12:37:13+02:00</time>
      </trkpt>
      <trkpt lat="46.87274" lon="4.96335">
        <ele>173.7998</ele>
        <time>2026-05-14T12:37:14+02:00</time>
      </trkpt>
      <trkpt lat="46.87279" lon="4.96331">
        <ele>174.2998</ele>
        <time>2026-05-14T12:37:15+02:00</time>
      </trkpt>
      <trkpt lat="46.87284" lon="4.96328">
        <ele>174.2002</ele>
        <time>2026-05-14T12:37:16+02:00</time>
      </trkpt>
      <trkpt lat="46.87289" lon="4.96324">
        <ele>174.40039</ele>
        <time>2026-05-14T12:37:17+02:00</time>
      </trkpt>
      <trkpt lat="46.87294" lon="4.9632">
        <ele>174.10059</ele>
        <time>2026-05-14T12:37:18+02:00</time>
      </trkpt>
      <trkpt lat="46.87299" lon="4.96316">
        <ele>173.7998</ele>
        <time>2026-05-14T12:37:19+02:00</time>
      </trkpt>
      <trkpt lat="46.87304" lon="4.96312">
        <ele>174</ele>
        <time>2026-05-14T12:37:20+02:00</time>
      </trkpt>
      <trkpt lat="46.87309" lon="4.96308">
        <ele>173.7002</ele>
        <time>2026-05-14T12:37:21+02:00</time>
      </trkpt>
      <trkpt lat="46.87314" lon="4.96304">
        <ele>173.7998</ele>
        <time>2026-05-14T12:37:22+02:00</time>
      </trkpt>
      <trkpt lat="46.87318" lon="4.963">
        <ele>173.60059</ele>
        <time>2026-05-14T12:37:23+02:00</time>
      </trkpt>
      <trkpt lat="46.87323" lon="4.96296">
        <ele>173.7998</ele>
        <time>2026-05-14T12:37:24+02:00</time>
      </trkpt>
      <trkpt lat="46.87328" lon="4.96292">
        <ele>173.7002</ele>
        <time>2026-05-14T12:37:25+02:00</time>
      </trkpt>
      <trkpt lat="46.87333" lon="4.96288">
        <ele>174</ele>
        <time>2026-05-14T12:37:26+02:00</time>
      </trkpt>
      <trkpt lat="46.87337" lon="4.96284">
        <ele>173.7998</ele>
        <time>2026-05-14T12:37:27+02:00</time>
      </trkpt>
      <trkpt lat="46.87342" lon="4.9628">
        <ele>173.7998</ele>
        <time>2026-05-14T12:37:28+02:00</time>
      </trkpt>
      <trkpt lat="46.87346" lon="4.96276">
        <ele>173.5</ele>
        <time>2026-05-14T12:37:29+02:00</time>
      </trkpt>
      <trkpt lat="46.87351" lon="4.96272">
        <ele>173.7998</ele>
        <time>2026-05-14T12:37:30+02:00</time>
      </trkpt>
      <trkpt lat="46.87355" lon="4.96268">
        <ele>173.5</ele>
        <time>2026-05-14T12:37:31+02:00</time>
      </trkpt>
      <trkpt lat="46.87359" lon="4.96263">
        <ele>173.60059</ele>
        <time>2026-05-14T12:37:32+02:00</time>
      </trkpt>
      <trkpt lat="46.87363" lon="4.96259">
        <ele>173.2998</ele>
        <time>2026-05-14T12:37:33+02:00</time>
      </trkpt>
      <trkpt lat="46.87367" lon="4.96254">
        <ele>173.60059</ele>
        <time>2026-05-14T12:37:34+02:00</time>
      </trkpt>
      <trkpt lat="46.87371" lon="4.96249">
        <ele>173.2998</ele>
        <time>2026-05-14T12:37:35+02:00</time>
      </trkpt>
      <trkpt lat="46.87375" lon="4.96245">
        <ele>173.2998</ele>
        <time>2026-05-14T12:37:36+02:00</time>
      </trkpt>
      <trkpt lat="46.87379" lon="4.9624">
        <ele>173.2998</ele>
        <time>2026-05-14T12:37:37+02:00</time>
      </trkpt>
      <trkpt lat="46.87383" lon="4.96235">
        <ele>173.40039</ele>
        <time>2026-05-14T12:37:38+02:00</time>
      </trkpt>
      <trkpt lat="46.87386" lon="4.96229">
        <ele>173.7002</ele>
        <time>2026-05-14T12:37:39+02:00</time>
      </trkpt>
      <trkpt lat="46.8739" lon="4.96224">
        <ele>173.60059</ele>
        <time>2026-05-14T12:37:40+02:00</time>
      </trkpt>
      <trkpt lat="46.87393" lon="4.96219">
        <ele>173.7998</ele>
        <time>2026-05-14T12:37:41+02:00</time>
      </trkpt>
      <trkpt lat="46.87396" lon="4.96213">
        <ele>173.7998</ele>
        <time>2026-05-14T12:37:42+02:00</time>
      </trkpt>
      <trkpt lat="46.87399" lon="4.96207">
        <ele>173.7998</ele>
        <time>2026-05-14T12:37:43+02:00</time>
      </trkpt>
      <trkpt lat="46.87403" lon="4.96201">
        <ele>174</ele>
        <time>2026-05-14T12:37:44+02:00</time>
      </trkpt>
      <trkpt lat="46.87406" lon="4.96195">
        <ele>173.7998</ele>
        <time>2026-05-14T12:37:45+02:00</time>
      </trkpt>
      <trkpt lat="46.87409" lon="4.96189">
        <ele>173.7998</ele>
        <time>2026-05-14T12:37:46+02:00</time>
      </trkpt>
      <trkpt lat="46.87412" lon="4.96183">
        <ele>173.7002</ele>
        <time>2026-05-14T12:37:47+02:00</time>
      </trkpt>
      <trkpt lat="46.87415" lon="4.96177">
        <ele>173.90039</ele>
        <time>2026-05-14T12:37:48+02:00</time>
      </trkpt>
      <trkpt lat="46.87418" lon="4.96171">
        <ele>173.7002</ele>
        <time>2026-05-14T12:37:49+02:00</time>
      </trkpt>
      <trkpt lat="46.87421" lon="4.96165">
        <ele>173.7998</ele>
        <time>2026-05-14T12:37:50+02:00</time>
      </trkpt>
      <trkpt lat="46.87424" lon="4.96159">
        <ele>173.60059</ele>
        <time>2026-05-14T12:37:51+02:00</time>
      </trkpt>
      <trkpt lat="46.87427" lon="4.96153">
        <ele>173.60059</ele>
        <time>2026-05-14T12:37:52+02:00</time>
      </trkpt>
      <trkpt lat="46.8743" lon="4.96147">
        <ele>173.5</ele>
        <time>2026-05-14T12:37:53+02:00</time>
      </trkpt>
      <trkpt lat="46.87433" lon="4.96141">
        <ele>173.5</ele>
        <time>2026-05-14T12:37:54+02:00</time>
      </trkpt>
      <trkpt lat="46.87436" lon="4.96135">
        <ele>173.40039</ele>
        <time>2026-05-14T12:37:55+02:00</time>
      </trkpt>
      <trkpt lat="46.87439" lon="4.96129">
        <ele>173.40039</ele>
        <time>2026-05-14T12:37:56+02:00</time>
      </trkpt>
      <trkpt lat="46.87443" lon="4.96123">
        <ele>173.10059</ele>
        <time>2026-05-14T12:37:57+02:00</time>
      </trkpt>
      <trkpt lat="46.87446" lon="4.96117">
        <ele>172.7998</ele>
        <time>2026-05-14T12:37:58+02:00</time>
      </trkpt>
      <trkpt lat="46.87449" lon="4.96111">
        <ele>172.7998</ele>
        <time>2026-05-14T12:37:59+02:00</time>
      </trkpt>
      <trkpt lat="46.87453" lon="4.96105">
        <ele>172.60059</ele>
        <time>2026-05-14T12:38:00+02:00</time>
      </trkpt>
      <trkpt lat="46.87457" lon="4.96099">
        <ele>172.60059</ele>
        <time>2026-05-14T12:38:01+02:00</time>
      </trkpt>
      <trkpt lat="46.8746" lon="4.96093">
        <ele>172.60059</ele>
        <time>2026-05-14T12:38:02+02:00</time>
      </trkpt>
      <trkpt lat="46.87463" lon="4.96087">
        <ele>172.7002</ele>
        <time>2026-05-14T12:38:03+02:00</time>
      </trkpt>
      <trkpt lat="46.87467" lon="4.96081">
        <ele>172.7998</ele>
        <time>2026-05-14T12:38:04+02:00</time>
      </trkpt>
      <trkpt lat="46.8747" lon="4.96075">
        <ele>172.90039</ele>
        <time>2026-05-14T12:38:05+02:00</time>
      </trkpt>
      <trkpt lat="46.87473" lon="4.96069">
        <ele>172.90039</ele>
        <time>2026-05-14T12:38:06+02:00</time>
      </trkpt>
      <trkpt lat="46.87477" lon="4.96063">
        <ele>173</ele>
        <time>2026-05-14T12:38:07+02:00</time>
      </trkpt>
      <trkpt lat="46.8748" lon="4.96057">
        <ele>173.40039</ele>
        <time>2026-05-14T12:38:08+02:00</time>
      </trkpt>
      <trkpt lat="46.87484" lon="4.96051">
        <ele>173.2002</ele>
        <time>2026-05-14T12:38:09+02:00</time>
      </trkpt>
      <trkpt lat="46.87488" lon="4.96045">
        <ele>173.40039</ele>
        <time>2026-05-14T12:38:10+02:00</time>
      </trkpt>
      <trkpt lat="46.87491" lon="4.9604">
        <ele>173.7002</ele>
        <time>2026-05-14T12:38:11+02:00</time>
      </trkpt>
      <trkpt lat="46.87494" lon="4.96034">
        <ele>173.2998</ele>
        <time>2026-05-14T12:38:12+02:00</time>
      </trkpt>
      <trkpt lat="46.87497" lon="4.96029">
        <ele>173.60059</ele>
        <time>2026-05-14T12:38:13+02:00</time>
      </trkpt>
      <trkpt lat="46.87501" lon="4.96025">
        <ele>173.40039</ele>
        <time>2026-05-14T12:38:14+02:00</time>
      </trkpt>
      <trkpt lat="46.87503" lon="4.9602">
        <ele>173.7998</ele>
        <time>2026-05-14T12:38:15+02:00</time>
      </trkpt>
      <trkpt lat="46.87506" lon="4.96015">
        <ele>173.90039</ele>
        <time>2026-05-14T12:38:16+02:00</time>
      </trkpt>
      <trkpt lat="46.87509" lon="4.96011">
        <ele>173.90039</ele>
        <time>2026-05-14T12:38:17+02:00</time>
      </trkpt>
      <trkpt lat="46.87511" lon="4.96007">
        <ele>173.5</ele>
        <time>2026-05-14T12:38:18+02:00</time>
      </trkpt>
      <trkpt lat="46.87513" lon="4.96002">
        <ele>173.7998</ele>
        <time>2026-05-14T12:38:19+02:00</time>
      </trkpt>
      <trkpt lat="46.87515" lon="4.95998">
        <ele>174</ele>
        <time>2026-05-14T12:38:20+02:00</time>
      </trkpt>
      <trkpt lat="46.87518" lon="4.95994">
        <ele>173.5</ele>
        <time>2026-05-14T12:38:21+02:00</time>
      </trkpt>
      <trkpt lat="46.8752" lon="4.9599">
        <ele>173.5</ele>
        <time>2026-05-14T12:38:22+02:00</time>
      </trkpt>
      <trkpt lat="46.87523" lon="4.95987">
        <ele>173.5</ele>
        <time>2026-05-14T12:38:23+02:00</time>
      </trkpt>
      <trkpt lat="46.87525" lon="4.95983">
        <ele>173.5</ele>
        <time>2026-05-14T12:38:24+02:00</time>
      </trkpt>
      <trkpt lat="46.87527" lon="4.95979">
        <ele>173.7998</ele>
        <time>2026-05-14T12:38:25+02:00</time>
      </trkpt>
      <trkpt lat="46.8753" lon="4.95975">
        <ele>173.40039</ele>
        <time>2026-05-14T12:38:26+02:00</time>
      </trkpt>
      <trkpt lat="46.87531" lon="4.95972">
        <ele>173.60059</ele>
        <time>2026-05-14T12:38:27+02:00</time>
      </trkpt>
      <trkpt lat="46.87534" lon="4.95968">
        <ele>173.10059</ele>
        <time>2026-05-14T12:38:28+02:00</time>
      </trkpt>
      <trkpt lat="46.87536" lon="4.95965">
        <ele>173.10059</ele>
        <time>2026-05-14T12:38:29+02:00</time>
      </trkpt>
      <trkpt lat="46.87538" lon="4.95962">
        <ele>173.2002</ele>
        <time>2026-05-14T12:38:30+02:00</time>
      </trkpt>
      <trkpt lat="46.87541" lon="4.95958">
        <ele>172.90039</ele>
        <time>2026-05-14T12:38:31+02:00</time>
      </trkpt>
      <trkpt lat="46.87542" lon="4.95955">
        <ele>173.10059</ele>
        <time>2026-05-14T12:38:32+02:00</time>
      </trkpt>
      <trkpt lat="46.87545" lon="4.95952">
        <ele>172.90039</ele>
        <time>2026-05-14T12:38:33+02:00</time>
      </trkpt>
      <trkpt lat="46.87547" lon="4.95948">
        <ele>172.90039</ele>
        <time>2026-05-14T12:38:34+02:00</time>
      </trkpt>
      <trkpt lat="46.87549" lon="4.95945">
        <ele>173</ele>
        <time>2026-05-14T12:38:35+02:00</time>
      </trkpt>
      <trkpt lat="46.87551" lon="4.95942">
        <ele>172.7002</ele>
        <time>2026-05-14T12:38:36+02:00</time>
      </trkpt>
      <trkpt lat="46.87552" lon="4.95939">
        <ele>172.7002</ele>
        <time>2026-05-14T12:38:37+02:00</time>
      </trkpt>
      <trkpt lat="46.87554" lon="4.95936">
        <ele>172.7998</ele>
        <time>2026-05-14T12:38:38+02:00</time>
      </trkpt>
      <trkpt lat="46.87555" lon="4.95933">
        <ele>172.7998</ele>
        <time>2026-05-14T12:38:39+02:00</time>
      </trkpt>
      <trkpt lat="46.87557" lon="4.95931">
        <ele>172.5</ele>
        <time>2026-05-14T12:38:40+02:00</time>
      </trkpt>
      <trkpt lat="46.87558" lon="4.95928">
        <ele>172.60059</ele>
        <time>2026-05-14T12:38:41+02:00</time>
      </trkpt>
      <trkpt lat="46.8756" lon="4.95925">
        <ele>172.60059</ele>
        <time>2026-05-14T12:38:42+02:00</time>
      </trkpt>
      <trkpt lat="46.87561" lon="4.95922">
        <ele>172.60059</ele>
        <time>2026-05-14T12:38:43+02:00</time>
      </trkpt>
      <trkpt lat="46.87562" lon="4.95919">
        <ele>172.60059</ele>
        <time>2026-05-14T12:38:44+02:00</time>
      </trkpt>
      <trkpt lat="46.87564" lon="4.95916">
        <ele>172.40039</ele>
        <time>2026-05-14T12:38:45+02:00</time>
      </trkpt>
      <trkpt lat="46.87565" lon="4.95914">
        <ele>172.40039</ele>
        <time>2026-05-14T12:38:46+02:00</time>
      </trkpt>
      <trkpt lat="46.87566" lon="4.95911">
        <ele>172.5</ele>
        <time>2026-05-14T12:38:47+02:00</time>
      </trkpt>
      <trkpt lat="46.87567" lon="4.9591">
        <ele>172.5</ele>
        <time>2026-05-14T12:38:48+02:00</time>
      </trkpt>
      <trkpt lat="46.87567" lon="4.95909">
        <ele>172.5</ele>
        <time>2026-05-14T12:38:49+02:00</time>
      </trkpt>
      <trkpt lat="46.87567" lon="4.95909">
        <ele>172.5</ele>
        <time>2026-05-14T12:38:50+02:00</time>
      </trkpt>
      <trkpt lat="46.87567" lon="4.95909">
        <ele>172.5</ele>
        <time>2026-05-14T12:38:51+02:00</time>
      </trkpt>
      <trkpt lat="46.87567" lon="4.95909">
        <ele>172.5</ele>
        <time>2026-05-14T12:38:52+02:00</time>
      </trkpt>
      <trkpt lat="46.87579" lon="4.95889">
        <ele>172.2002</ele>
        <time>2026-05-14T12:41:51+02:00</time>
      </trkpt>
      <trkpt lat="46.87581" lon="4.95886">
        <ele>172.10059</ele>
        <time>2026-05-14T12:41:52+02:00</time>
      </trkpt>
      <trkpt lat="46.87583" lon="4.95883">
        <ele>172.10059</ele>
        <time>2026-05-14T12:41:53+02:00</time>
      </trkpt>
      <trkpt lat="46.87584" lon="4.95879">
        <ele>172.10059</ele>
        <time>2026-05-14T12:41:54+02:00</time>
      </trkpt>
      <trkpt lat="46.87586" lon="4.95875">
        <ele>172.10059</ele>
        <time>2026-05-14T12:41:55+02:00</time>
      </trkpt>
      <trkpt lat="46.87588" lon="4.95871">
        <ele>172</ele>
        <time>2026-05-14T12:41:56+02:00</time>
      </trkpt>
      <trkpt lat="46.87591" lon="4.95867">
        <ele>172</ele>
        <time>2026-05-14T12:41:57+02:00</time>
      </trkpt>
      <trkpt lat="46.87592" lon="4.95863">
        <ele>172</ele>
        <time>2026-05-14T12:41:58+02:00</time>
      </trkpt>
      <trkpt lat="46.87595" lon="4.95859">
        <ele>172</ele>
        <time>2026-05-14T12:41:59+02:00</time>
      </trkpt>
      <trkpt lat="46.87597" lon="4.95854">
        <ele>172</ele>
        <time>2026-05-14T12:42:00+02:00</time>
      </trkpt>
      <trkpt lat="46.87598" lon="4.95849">
        <ele>172</ele>
        <time>2026-05-14T12:42:01+02:00</time>
      </trkpt>
      <trkpt lat="46.876" lon="4.95844">
        <ele>172</ele>
        <time>2026-05-14T12:42:02+02:00</time>
      </trkpt>
      <trkpt lat="46.87603" lon="4.95839">
        <ele>172</ele>
        <time>2026-05-14T12:42:03+02:00</time>
      </trkpt>
      <trkpt lat="46.87605" lon="4.95835">
        <ele>172.10059</ele>
        <time>2026-05-14T12:42:04+02:00</time>
      </trkpt>
      <trkpt lat="46.87608" lon="4.9583">
        <ele>172.10059</ele>
        <time>2026-05-14T12:42:05+02:00</time>
      </trkpt>
      <trkpt lat="46.8761" lon="4.95825">
        <ele>172.10059</ele>
        <time>2026-05-14T12:42:06+02:00</time>
      </trkpt>
      <trkpt lat="46.87613" lon="4.9582">
        <ele>172.10059</ele>
        <time>2026-05-14T12:42:07+02:00</time>
      </trkpt>
      <trkpt lat="46.87615" lon="4.95815">
        <ele>172.2002</ele>
        <time>2026-05-14T12:42:08+02:00</time>
      </trkpt>
      <trkpt lat="46.87618" lon="4.9581">
        <ele>172.2002</ele>
        <time>2026-05-14T12:42:09+02:00</time>
      </trkpt>
      <trkpt lat="46.8762" lon="4.95805">
        <ele>172.2998</ele>
        <time>2026-05-14T12:42:10+02:00</time>
      </trkpt>
      <trkpt lat="46.87623" lon="4.95799">
        <ele>172.2998</ele>
        <time>2026-05-14T12:42:11+02:00</time>
      </trkpt>
      <trkpt lat="46.87625" lon="4.95794">
        <ele>172.2998</ele>
        <time>2026-05-14T12:42:12+02:00</time>
      </trkpt>
      <trkpt lat="46.87628" lon="4.95788">
        <ele>172.40039</ele>
        <time>2026-05-14T12:42:13+02:00</time>
      </trkpt>
      <trkpt lat="46.87631" lon="4.95783">
        <ele>172.60059</ele>
        <time>2026-05-14T12:42:14+02:00</time>
      </trkpt>
      <trkpt lat="46.87634" lon="4.95777">
        <ele>172.5</ele>
        <time>2026-05-14T12:42:15+02:00</time>
      </trkpt>
      <trkpt lat="46.87637" lon="4.95771">
        <ele>172.7002</ele>
        <time>2026-05-14T12:42:16+02:00</time>
      </trkpt>
      <trkpt lat="46.87639" lon="4.95765">
        <ele>172.7002</ele>
        <time>2026-05-14T12:42:17+02:00</time>
      </trkpt>
      <trkpt lat="46.87642" lon="4.95759">
        <ele>172.7002</ele>
        <time>2026-05-14T12:42:18+02:00</time>
      </trkpt>
      <trkpt lat="46.87645" lon="4.95753">
        <ele>172.7002</ele>
        <time>2026-05-14T12:42:19+02:00</time>
      </trkpt>
      <trkpt lat="46.87649" lon="4.95747">
        <ele>172.7998</ele>
        <time>2026-05-14T12:42:20+02:00</time>
      </trkpt>
      <trkpt lat="46.87652" lon="4.95741">
        <ele>172.7002</ele>
        <time>2026-05-14T12:42:21+02:00</time>
      </trkpt>
      <trkpt lat="46.87655" lon="4.95735">
        <ele>172.7998</ele>
        <time>2026-05-14T12:42:22+02:00</time>
      </trkpt>
      <trkpt lat="46.87658" lon="4.95729">
        <ele>172.7998</ele>
        <time>2026-05-14T12:42:23+02:00</time>
      </trkpt>
      <trkpt lat="46.87661" lon="4.95723">
        <ele>172.90039</ele>
        <time>2026-05-14T12:42:24+02:00</time>
      </trkpt>
      <trkpt lat="46.87665" lon="4.95717">
        <ele>172.7002</ele>
        <time>2026-05-14T12:42:25+02:00</time>
      </trkpt>
      <trkpt lat="46.87668" lon="4.95711">
        <ele>172.7998</ele>
        <time>2026-05-14T12:42:26+02:00</time>
      </trkpt>
      <trkpt lat="46.87671" lon="4.95704">
        <ele>172.7998</ele>
        <time>2026-05-14T12:42:27+02:00</time>
      </trkpt>
      <trkpt lat="46.87674" lon="4.95698">
        <ele>172.7002</ele>
        <time>2026-05-14T12:42:28+02:00</time>
      </trkpt>
      <trkpt lat="46.87678" lon="4.95692">
        <ele>172.7998</ele>
        <time>2026-05-14T12:42:29+02:00</time>
      </trkpt>
      <trkpt lat="46.87681" lon="4.95686">
        <ele>172.7002</ele>
        <time>2026-05-14T12:42:30+02:00</time>
      </trkpt>
      <trkpt lat="46.87685" lon="4.9568">
        <ele>172.90039</ele>
        <time>2026-05-14T12:42:31+02:00</time>
      </trkpt>
      <trkpt lat="46.87688" lon="4.95673">
        <ele>172.7002</ele>
        <time>2026-05-14T12:42:32+02:00</time>
      </trkpt>
      <trkpt lat="46.87692" lon="4.95667">
        <ele>172.7998</ele>
        <time>2026-05-14T12:42:33+02:00</time>
      </trkpt>
      <trkpt lat="46.87695" lon="4.9566">
        <ele>172.90039</ele>
        <time>2026-05-14T12:42:34+02:00</time>
      </trkpt>
      <trkpt lat="46.87698" lon="4.95654">
        <ele>172.7998</ele>
        <time>2026-05-14T12:42:35+02:00</time>
      </trkpt>
      <trkpt lat="46.87702" lon="4.95648">
        <ele>172.7998</ele>
        <time>2026-05-14T12:42:36+02:00</time>
      </trkpt>
      <trkpt lat="46.87705" lon="4.95641">
        <ele>172.7998</ele>
        <time>2026-05-14T12:42:37+02:00</time>
      </trkpt>
      <trkpt lat="46.87708" lon="4.95634">
        <ele>173.10059</ele>
        <time>2026-05-14T12:42:38+02:00</time>
      </trkpt>
      <trkpt lat="46.87711" lon="4.95627">
        <ele>173.10059</ele>
        <time>2026-05-14T12:42:39+02:00</time>
      </trkpt>
      <trkpt lat="46.87715" lon="4.95621">
        <ele>172.90039</ele>
        <time>2026-05-14T12:42:40+02:00</time>
      </trkpt>
      <trkpt lat="46.87718" lon="4.95614">
        <ele>173</ele>
        <time>2026-05-14T12:42:41+02:00</time>
      </trkpt>
      <trkpt lat="46.87721" lon="4.95608">
        <ele>172.90039</ele>
        <time>2026-05-14T12:42:42+02:00</time>
      </trkpt>
      <trkpt lat="46.87725" lon="4.95601">
        <ele>173.10059</ele>
        <time>2026-05-14T12:42:43+02:00</time>
      </trkpt>
      <trkpt lat="46.87728" lon="4.95595">
        <ele>172.90039</ele>
        <time>2026-05-14T12:42:44+02:00</time>
      </trkpt>
      <trkpt lat="46.87732" lon="4.95588">
        <ele>173.10059</ele>
        <time>2026-05-14T12:42:45+02:00</time>
      </trkpt>
      <trkpt lat="46.87735" lon="4.95582">
        <ele>173.10059</ele>
        <time>2026-05-14T12:42:46+02:00</time>
      </trkpt>
      <trkpt lat="46.87739" lon="4.95575">
        <ele>172.90039</ele>
        <time>2026-05-14T12:42:47+02:00</time>
      </trkpt>
      <trkpt lat="46.87743" lon="4.95569">
        <ele>173.10059</ele>
        <time>2026-05-14T12:42:48+02:00</time>
      </trkpt>
      <trkpt lat="46.87747" lon="4.95562">
        <ele>172.90039</ele>
        <time>2026-05-14T12:42:49+02:00</time>
      </trkpt>
      <trkpt lat="46.87751" lon="4.95557">
        <ele>172.90039</ele>
        <time>2026-05-14T12:42:50+02:00</time>
      </trkpt>
      <trkpt lat="46.87755" lon="4.9555">
        <ele>173</ele>
        <time>2026-05-14T12:42:51+02:00</time>
      </trkpt>
      <trkpt lat="46.87758" lon="4.95544">
        <ele>172.7998</ele>
        <time>2026-05-14T12:42:52+02:00</time>
      </trkpt>
      <trkpt lat="46.87762" lon="4.95538">
        <ele>172.7002</ele>
        <time>2026-05-14T12:42:53+02:00</time>
      </trkpt>
      <trkpt lat="46.87766" lon="4.95532">
        <ele>172.7998</ele>
        <time>2026-05-14T12:42:54+02:00</time>
      </trkpt>
      <trkpt lat="46.87771" lon="4.95525">
        <ele>172.7998</ele>
        <time>2026-05-14T12:42:55+02:00</time>
      </trkpt>
      <trkpt lat="46.87774" lon="4.9552">
        <ele>172.7002</ele>
        <time>2026-05-14T12:42:56+02:00</time>
      </trkpt>
      <trkpt lat="46.87779" lon="4.95514">
        <ele>173</ele>
        <time>2026-05-14T12:42:57+02:00</time>
      </trkpt>
      <trkpt lat="46.87782" lon="4.95507">
        <ele>173.2002</ele>
        <time>2026-05-14T12:42:58+02:00</time>
      </trkpt>
      <trkpt lat="46.87787" lon="4.95501">
        <ele>173.2002</ele>
        <time>2026-05-14T12:42:59+02:00</time>
      </trkpt>
      <trkpt lat="46.8779" lon="4.95496">
        <ele>173.60059</ele>
        <time>2026-05-14T12:43:00+02:00</time>
      </trkpt>
      <trkpt lat="46.87795" lon="4.9549">
        <ele>173.90039</ele>
        <time>2026-05-14T12:43:01+02:00</time>
      </trkpt>
      <trkpt lat="46.87799" lon="4.95485">
        <ele>173.7002</ele>
        <time>2026-05-14T12:43:02+02:00</time>
      </trkpt>
      <trkpt lat="46.87803" lon="4.95479">
        <ele>174.2002</ele>
        <time>2026-05-14T12:43:03+02:00</time>
      </trkpt>
      <trkpt lat="46.87807" lon="4.95474">
        <ele>174.5</ele>
        <time>2026-05-14T12:43:04+02:00</time>
      </trkpt>
      <trkpt lat="46.87812" lon="4.95469">
        <ele>174.2002</ele>
        <time>2026-05-14T12:43:05+02:00</time>
      </trkpt>
      <trkpt lat="46.87817" lon="4.95464">
        <ele>174.5</ele>
        <time>2026-05-14T12:43:06+02:00</time>
      </trkpt>
      <trkpt lat="46.87821" lon="4.95459">
        <ele>174.2002</ele>
        <time>2026-05-14T12:43:07+02:00</time>
      </trkpt>
      <trkpt lat="46.87826" lon="4.95454">
        <ele>174.7002</ele>
        <time>2026-05-14T12:43:08+02:00</time>
      </trkpt>
      <trkpt lat="46.87831" lon="4.9545">
        <ele>174.2998</ele>
        <time>2026-05-14T12:43:09+02:00</time>
      </trkpt>
      <trkpt lat="46.87835" lon="4.95444">
        <ele>174.2998</ele>
        <time>2026-05-14T12:43:10+02:00</time>
      </trkpt>
      <trkpt lat="46.8784" lon="4.95439">
        <ele>174.5</ele>
        <time>2026-05-14T12:43:11+02:00</time>
      </trkpt>
      <trkpt lat="46.87845" lon="4.95434">
        <ele>174.10059</ele>
        <time>2026-05-14T12:43:12+02:00</time>
      </trkpt>
      <trkpt lat="46.87849" lon="4.95428">
        <ele>174.60059</ele>
        <time>2026-05-14T12:43:13+02:00</time>
      </trkpt>
      <trkpt lat="46.87853" lon="4.95423">
        <ele>174.5</ele>
        <time>2026-05-14T12:43:14+02:00</time>
      </trkpt>
      <trkpt lat="46.87857" lon="4.95417">
        <ele>174</ele>
        <time>2026-05-14T12:43:15+02:00</time>
      </trkpt>
      <trkpt lat="46.87861" lon="4.95411">
        <ele>174.5</ele>
        <time>2026-05-14T12:43:16+02:00</time>
      </trkpt>
      <trkpt lat="46.87864" lon="4.95406">
        <ele>174.40039</ele>
        <time>2026-05-14T12:43:17+02:00</time>
      </trkpt>
      <trkpt lat="46.87869" lon="4.954">
        <ele>173.90039</ele>
        <time>2026-05-14T12:43:18+02:00</time>
      </trkpt>
      <trkpt lat="46.87873" lon="4.95394">
        <ele>174.2998</ele>
        <time>2026-05-14T12:43:19+02:00</time>
      </trkpt>
      <trkpt lat="46.87877" lon="4.95389">
        <ele>173.7002</ele>
        <time>2026-05-14T12:43:20+02:00</time>
      </trkpt>
      <trkpt lat="46.87881" lon="4.95384">
        <ele>173.5</ele>
        <time>2026-05-14T12:43:21+02:00</time>
      </trkpt>
      <trkpt lat="46.87885" lon="4.95378">
        <ele>173.90039</ele>
        <time>2026-05-14T12:43:22+02:00</time>
      </trkpt>
      <trkpt lat="46.87888" lon="4.95373">
        <ele>173.5</ele>
        <time>2026-05-14T12:43:23+02:00</time>
      </trkpt>
      <trkpt lat="46.87892" lon="4.95367">
        <ele>173.40039</ele>
        <time>2026-05-14T12:43:24+02:00</time>
      </trkpt>
      <trkpt lat="46.87896" lon="4.95362">
        <ele>173.7002</ele>
        <time>2026-05-14T12:43:25+02:00</time>
      </trkpt>
      <trkpt lat="46.87899" lon="4.95358">
        <ele>173.2002</ele>
        <time>2026-05-14T12:43:26+02:00</time>
      </trkpt>
      <trkpt lat="46.87902" lon="4.95353">
        <ele>173.5</ele>
        <time>2026-05-14T12:43:27+02:00</time>
      </trkpt>
      <trkpt lat="46.87905" lon="4.95349">
        <ele>173.10059</ele>
        <time>2026-05-14T12:43:28+02:00</time>
      </trkpt>
      <trkpt lat="46.87908" lon="4.95345">
        <ele>173.40039</ele>
        <time>2026-05-14T12:43:29+02:00</time>
      </trkpt>
      <trkpt lat="46.87911" lon="4.95341">
        <ele>173.10059</ele>
        <time>2026-05-14T12:43:30+02:00</time>
      </trkpt>
      <trkpt lat="46.87913" lon="4.95337">
        <ele>173.5</ele>
        <time>2026-05-14T12:43:31+02:00</time>
      </trkpt>
      <trkpt lat="46.87916" lon="4.95333">
        <ele>173.2002</ele>
        <time>2026-05-14T12:43:32+02:00</time>
      </trkpt>
      <trkpt lat="46.87919" lon="4.95328">
        <ele>173.5</ele>
        <time>2026-05-14T12:43:33+02:00</time>
      </trkpt>
      <trkpt lat="46.87922" lon="4.95324">
        <ele>173.2998</ele>
        <time>2026-05-14T12:43:34+02:00</time>
      </trkpt>
      <trkpt lat="46.87925" lon="4.95319">
        <ele>173.60059</ele>
        <time>2026-05-14T12:43:35+02:00</time>
      </trkpt>
      <trkpt lat="46.87928" lon="4.95315">
        <ele>173.2998</ele>
        <time>2026-05-14T12:43:36+02:00</time>
      </trkpt>
      <trkpt lat="46.8793" lon="4.95311">
        <ele>173.5</ele>
        <time>2026-05-14T12:43:37+02:00</time>
      </trkpt>
      <trkpt lat="46.87933" lon="4.95307">
        <ele>173.2002</ele>
        <time>2026-05-14T12:43:38+02:00</time>
      </trkpt>
      <trkpt lat="46.87935" lon="4.95303">
        <ele>173.40039</ele>
        <time>2026-05-14T12:43:39+02:00</time>
      </trkpt>
      <trkpt lat="46.87937" lon="4.95299">
        <ele>173.40039</ele>
        <time>2026-05-14T12:43:40+02:00</time>
      </trkpt>
      <trkpt lat="46.8794" lon="4.95296">
        <ele>173.2002</ele>
        <time>2026-05-14T12:43:41+02:00</time>
      </trkpt>
      <trkpt lat="46.87941" lon="4.95293">
        <ele>173.40039</ele>
        <time>2026-05-14T12:43:42+02:00</time>
      </trkpt>
      <trkpt lat="46.87944" lon="4.95289">
        <ele>173.2002</ele>
        <time>2026-05-14T12:43:43+02:00</time>
      </trkpt>
      <trkpt lat="46.87946" lon="4.95286">
        <ele>173.40039</ele>
        <time>2026-05-14T12:43:44+02:00</time>
      </trkpt>
      <trkpt lat="46.87948" lon="4.95283">
        <ele>173.40039</ele>
        <time>2026-05-14T12:43:45+02:00</time>
      </trkpt>
      <trkpt lat="46.8795" lon="4.9528">
        <ele>173.2002</ele>
        <time>2026-05-14T12:43:46+02:00</time>
      </trkpt>
      <trkpt lat="46.87951" lon="4.95277">
        <ele>173.40039</ele>
        <time>2026-05-14T12:43:47+02:00</time>
      </trkpt>
      <trkpt lat="46.87953" lon="4.95275">
        <ele>173.40039</ele>
        <time>2026-05-14T12:43:48+02:00</time>
      </trkpt>
      <trkpt lat="46.87955" lon="4.95273">
        <ele>173.40039</ele>
        <time>2026-05-14T12:43:49+02:00</time>
      </trkpt>
      <trkpt lat="46.87957" lon="4.9527">
        <ele>173.10059</ele>
        <time>2026-05-14T12:43:50+02:00</time>
      </trkpt>
      <trkpt lat="46.87959" lon="4.95268">
        <ele>173.2998</ele>
        <time>2026-05-14T12:43:51+02:00</time>
      </trkpt>
      <trkpt lat="46.8796" lon="4.95265">
        <ele>173.2998</ele>
        <time>2026-05-14T12:43:52+02:00</time>
      </trkpt>
      <trkpt lat="46.87962" lon="4.95263">
        <ele>173.10059</ele>
        <time>2026-05-14T12:43:53+02:00</time>
      </trkpt>
      <trkpt lat="46.87963" lon="4.9526">
        <ele>173.40039</ele>
        <time>2026-05-14T12:43:54+02:00</time>
      </trkpt>
      <trkpt lat="46.87964" lon="4.95258">
        <ele>173.40039</ele>
        <time>2026-05-14T12:43:55+02:00</time>
      </trkpt>
      <trkpt lat="46.87966" lon="4.95257">
        <ele>173.40039</ele>
        <time>2026-05-14T12:43:56+02:00</time>
      </trkpt>
      <trkpt lat="46.87966" lon="4.95257">
        <ele>173.40039</ele>
        <time>2026-05-14T12:43:57+02:00</time>
      </trkpt>
      <trkpt lat="46.87966" lon="4.95257">
        <ele>173.40039</ele>
        <time>2026-05-14T12:43:58+02:00</time>
      </trkpt>
      <trkpt lat="46.87966" lon="4.95257">
        <ele>173.40039</ele>
        <time>2026-05-14T12:43:59+02:00</time>
      </trkpt>
      <trkpt lat="46.87966" lon="4.95257">
        <ele>173.40039</ele>
        <time>2026-05-14T12:44:00+02:00</time>
      </trkpt>
      <trkpt lat="46.87976" lon="4.95244">
        <ele>173.2002</ele>
        <time>2026-05-14T12:44:55+02:00</time>
      </trkpt>
      <trkpt lat="46.87978" lon="4.95242">
        <ele>173.40039</ele>
        <time>2026-05-14T12:44:56+02:00</time>
      </trkpt>
      <trkpt lat="46.8798" lon="4.9524">
        <ele>173.10059</ele>
        <time>2026-05-14T12:44:57+02:00</time>
      </trkpt>
      <trkpt lat="46.87982" lon="4.95237">
        <ele>173.10059</ele>
        <time>2026-05-14T12:44:58+02:00</time>
      </trkpt>
      <trkpt lat="46.87985" lon="4.95234">
        <ele>173.2002</ele>
        <time>2026-05-14T12:44:59+02:00</time>
      </trkpt>
      <trkpt lat="46.87989" lon="4.95231">
        <ele>173.2002</ele>
        <time>2026-05-14T12:45:00+02:00</time>
      </trkpt>
      <trkpt lat="46.87992" lon="4.95227">
        <ele>173</ele>
        <time>2026-05-14T12:45:01+02:00</time>
      </trkpt>
      <trkpt lat="46.87996" lon="4.95224">
        <ele>173.2998</ele>
        <time>2026-05-14T12:45:02+02:00</time>
      </trkpt>
      <trkpt lat="46.88" lon="4.9522">
        <ele>173</ele>
        <time>2026-05-14T12:45:03+02:00</time>
      </trkpt>
      <trkpt lat="46.88004" lon="4.95217">
        <ele>173</ele>
        <time>2026-05-14T12:45:04+02:00</time>
      </trkpt>
      <trkpt lat="46.88007" lon="4.95213">
        <ele>173</ele>
        <time>2026-05-14T12:45:05+02:00</time>
      </trkpt>
      <trkpt lat="46.88011" lon="4.95209">
        <ele>172.7002</ele>
        <time>2026-05-14T12:45:06+02:00</time>
      </trkpt>
      <trkpt lat="46.88015" lon="4.95205">
        <ele>172.7998</ele>
        <time>2026-05-14T12:45:07+02:00</time>
      </trkpt>
      <trkpt lat="46.88019" lon="4.95202">
        <ele>172.7998</ele>
        <time>2026-05-14T12:45:08+02:00</time>
      </trkpt>
      <trkpt lat="46.88023" lon="4.95198">
        <ele>173</ele>
        <time>2026-05-14T12:45:09+02:00</time>
      </trkpt>
      <trkpt lat="46.88027" lon="4.95195">
        <ele>172.7998</ele>
        <time>2026-05-14T12:45:10+02:00</time>
      </trkpt>
      <trkpt lat="46.88032" lon="4.95192">
        <ele>172.7002</ele>
        <time>2026-05-14T12:45:11+02:00</time>
      </trkpt>
      <trkpt lat="46.88036" lon="4.95189">
        <ele>173</ele>
        <time>2026-05-14T12:45:12+02:00</time>
      </trkpt>
      <trkpt lat="46.8804" lon="4.95186">
        <ele>172.7998</ele>
        <time>2026-05-14T12:45:13+02:00</time>
      </trkpt>
      <trkpt lat="46.88044" lon="4.95183">
        <ele>172.90039</ele>
        <time>2026-05-14T12:45:14+02:00</time>
      </trkpt>
      <trkpt lat="46.88047" lon="4.9518">
        <ele>172.90039</ele>
        <time>2026-05-14T12:45:15+02:00</time>
      </trkpt>
      <trkpt lat="46.88051" lon="4.95177">
        <ele>172.60059</ele>
        <time>2026-05-14T12:45:16+02:00</time>
      </trkpt>
      <trkpt lat="46.88054" lon="4.95175">
        <ele>172.60059</ele>
        <time>2026-05-14T12:45:17+02:00</time>
      </trkpt>
      <trkpt lat="46.88057" lon="4.95173">
        <ele>172.7002</ele>
        <time>2026-05-14T12:45:18+02:00</time>
      </trkpt>
      <trkpt lat="46.8806" lon="4.95172">
        <ele>172.7002</ele>
        <time>2026-05-14T12:45:19+02:00</time>
      </trkpt>
      <trkpt lat="46.88062" lon="4.9517">
        <ele>172.5</ele>
        <time>2026-05-14T12:45:20+02:00</time>
      </trkpt>
      <trkpt lat="46.88065" lon="4.9517">
        <ele>172.5</ele>
        <time>2026-05-14T12:45:21+02:00</time>
      </trkpt>
      <trkpt lat="46.88067" lon="4.95168">
        <ele>172.5</ele>
        <time>2026-05-14T12:45:22+02:00</time>
      </trkpt>
      <trkpt lat="46.88069" lon="4.95167">
        <ele>172.40039</ele>
        <time>2026-05-14T12:45:23+02:00</time>
      </trkpt>
      <trkpt lat="46.88069" lon="4.95166">
        <ele>172.40039</ele>
        <time>2026-05-14T12:45:24+02:00</time>
      </trkpt>
      <trkpt lat="46.88069" lon="4.95166">
        <ele>172.40039</ele>
        <time>2026-05-14T12:45:25+02:00</time>
      </trkpt>
      <trkpt lat="46.88069" lon="4.95166">
        <ele>172.40039</ele>
        <time>2026-05-14T12:45:26+02:00</time>
      </trkpt>
      <trkpt lat="46.88069" lon="4.95166">
        <ele>172.40039</ele>
        <time>2026-05-14T12:45:27+02:00</time>
      </trkpt>
      <trkpt lat="46.88085" lon="4.95154">
        <ele>172.7002</ele>
        <time>2026-05-14T12:47:25+02:00</time>
      </trkpt>
      <trkpt lat="46.88087" lon="4.95153">
        <ele>172.7002</ele>
        <time>2026-05-14T12:47:26+02:00</time>
      </trkpt>
      <trkpt lat="46.88089" lon="4.95152">
        <ele>172.7002</ele>
        <time>2026-05-14T12:47:27+02:00</time>
      </trkpt>
      <trkpt lat="46.88091" lon="4.95152">
        <ele>172.5</ele>
        <time>2026-05-14T12:47:28+02:00</time>
      </trkpt>
      <trkpt lat="46.88093" lon="4.95151">
        <ele>172.5</ele>
        <time>2026-05-14T12:47:29+02:00</time>
      </trkpt>
      <trkpt lat="46.88095" lon="4.95149">
        <ele>172.5</ele>
        <time>2026-05-14T12:47:30+02:00</time>
      </trkpt>
      <trkpt lat="46.88098" lon="4.95148">
        <ele>172.5</ele>
        <time>2026-05-14T12:47:31+02:00</time>
      </trkpt>
      <trkpt lat="46.881" lon="4.95146">
        <ele>172.5</ele>
        <time>2026-05-14T12:47:32+02:00</time>
      </trkpt>
      <trkpt lat="46.88102" lon="4.95145">
        <ele>172.5</ele>
        <time>2026-05-14T12:47:33+02:00</time>
      </trkpt>
      <trkpt lat="46.88106" lon="4.95143">
        <ele>172.2002</ele>
        <time>2026-05-14T12:47:34+02:00</time>
      </trkpt>
      <trkpt lat="46.88108" lon="4.95141">
        <ele>172.10059</ele>
        <time>2026-05-14T12:47:35+02:00</time>
      </trkpt>
      <trkpt lat="46.88111" lon="4.95139">
        <ele>172.40039</ele>
        <time>2026-05-14T12:47:36+02:00</time>
      </trkpt>
      <trkpt lat="46.88114" lon="4.95137">
        <ele>172.2998</ele>
        <time>2026-05-14T12:47:37+02:00</time>
      </trkpt>
      <trkpt lat="46.88117" lon="4.95135">
        <ele>172.2998</ele>
        <time>2026-05-14T12:47:38+02:00</time>
      </trkpt>
      <trkpt lat="46.88119" lon="4.95133">
        <ele>172.2998</ele>
        <time>2026-05-14T12:47:39+02:00</time>
      </trkpt>
      <trkpt lat="46.88122" lon="4.95131">
        <ele>172.60059</ele>
        <time>2026-05-14T12:47:40+02:00</time>
      </trkpt>
      <trkpt lat="46.88125" lon="4.95128">
        <ele>172.60059</ele>
        <time>2026-05-14T12:47:41+02:00</time>
      </trkpt>
      <trkpt lat="46.88128" lon="4.95126">
        <ele>172.5</ele>
        <time>2026-05-14T12:47:42+02:00</time>
      </trkpt>
      <trkpt lat="46.88132" lon="4.95124">
        <ele>172.40039</ele>
        <time>2026-05-14T12:47:43+02:00</time>
      </trkpt>
      <trkpt lat="46.88135" lon="4.95122">
        <ele>172.7002</ele>
        <time>2026-05-14T12:47:44+02:00</time>
      </trkpt>
      <trkpt lat="46.88139" lon="4.9512">
        <ele>172.40039</ele>
        <time>2026-05-14T12:47:45+02:00</time>
      </trkpt>
      <trkpt lat="46.88142" lon="4.95117">
        <ele>172.40039</ele>
        <time>2026-05-14T12:47:46+02:00</time>
      </trkpt>
      <trkpt lat="46.88146" lon="4.95114">
        <ele>172.40039</ele>
        <time>2026-05-14T12:47:47+02:00</time>
      </trkpt>
      <trkpt lat="46.88149" lon="4.95112">
        <ele>172.40039</ele>
        <time>2026-05-14T12:47:48+02:00</time>
      </trkpt>
      <trkpt lat="46.88153" lon="4.95109">
        <ele>172.10059</ele>
        <time>2026-05-14T12:47:49+02:00</time>
      </trkpt>
      <trkpt lat="46.88157" lon="4.95107">
        <ele>172</ele>
        <time>2026-05-14T12:47:50+02:00</time>
      </trkpt>
      <trkpt lat="46.88161" lon="4.95104">
        <ele>172.2998</ele>
        <time>2026-05-14T12:47:51+02:00</time>
      </trkpt>
      <trkpt lat="46.88165" lon="4.95102">
        <ele>172.2998</ele>
        <time>2026-05-14T12:47:52+02:00</time>
      </trkpt>
      <trkpt lat="46.88169" lon="4.951">
        <ele>172.2998</ele>
        <time>2026-05-14T12:47:53+02:00</time>
      </trkpt>
      <trkpt lat="46.88174" lon="4.95097">
        <ele>172.7002</ele>
        <time>2026-05-14T12:47:54+02:00</time>
      </trkpt>
      <trkpt lat="46.88178" lon="4.95095">
        <ele>172.7002</ele>
        <time>2026-05-14T12:47:55+02:00</time>
      </trkpt>
      <trkpt lat="46.88182" lon="4.95093">
        <ele>172.60059</ele>
        <time>2026-05-14T12:47:56+02:00</time>
      </trkpt>
      <trkpt lat="46.88186" lon="4.9509">
        <ele>172.60059</ele>
        <time>2026-05-14T12:47:57+02:00</time>
      </trkpt>
      <trkpt lat="46.88191" lon="4.95088">
        <ele>173</ele>
        <time>2026-05-14T12:47:58+02:00</time>
      </trkpt>
      <trkpt lat="46.88195" lon="4.95086">
        <ele>173</ele>
        <time>2026-05-14T12:47:59+02:00</time>
      </trkpt>
      <trkpt lat="46.88199" lon="4.95084">
        <ele>172.7998</ele>
        <time>2026-05-14T12:48:00+02:00</time>
      </trkpt>
      <trkpt lat="46.88203" lon="4.95082">
        <ele>172.60059</ele>
        <time>2026-05-14T12:48:01+02:00</time>
      </trkpt>
      <trkpt lat="46.88208" lon="4.95079">
        <ele>172.5</ele>
        <time>2026-05-14T12:48:02+02:00</time>
      </trkpt>
      <trkpt lat="46.88212" lon="4.95077">
        <ele>172.5</ele>
        <time>2026-05-14T12:48:03+02:00</time>
      </trkpt>
      <trkpt lat="46.88217" lon="4.95075">
        <ele>172.10059</ele>
        <time>2026-05-14T12:48:04+02:00</time>
      </trkpt>
      <trkpt lat="46.88221" lon="4.95073">
        <ele>171.90039</ele>
        <time>2026-05-14T12:48:05+02:00</time>
      </trkpt>
      <trkpt lat="46.88226" lon="4.9507">
        <ele>172.2002</ele>
        <time>2026-05-14T12:48:06+02:00</time>
      </trkpt>
      <trkpt lat="46.8823" lon="4.95069">
        <ele>172.2002</ele>
        <time>2026-05-14T12:48:07+02:00</time>
      </trkpt>
      <trkpt lat="46.88235" lon="4.95067">
        <ele>172.10059</ele>
        <time>2026-05-14T12:48:08+02:00</time>
      </trkpt>
      <trkpt lat="46.88239" lon="4.95065">
        <ele>172.10059</ele>
        <time>2026-05-14T12:48:09+02:00</time>
      </trkpt>
      <trkpt lat="46.88244" lon="4.95063">
        <ele>172.10059</ele>
        <time>2026-05-14T12:48:10+02:00</time>
      </trkpt>
      <trkpt lat="46.88249" lon="4.95061">
        <ele>172.60059</ele>
        <time>2026-05-14T12:48:11+02:00</time>
      </trkpt>
      <trkpt lat="46.88253" lon="4.95059">
        <ele>172.5</ele>
        <time>2026-05-14T12:48:12+02:00</time>
      </trkpt>
      <trkpt lat="46.88258" lon="4.95057">
        <ele>172.5</ele>
        <time>2026-05-14T12:48:13+02:00</time>
      </trkpt>
      <trkpt lat="46.88262" lon="4.95055">
        <ele>172.5</ele>
        <time>2026-05-14T12:48:14+02:00</time>
      </trkpt>
      <trkpt lat="46.88267" lon="4.95053">
        <ele>173.2998</ele>
        <time>2026-05-14T12:48:15+02:00</time>
      </trkpt>
      <trkpt lat="46.88271" lon="4.95051">
        <ele>173.2998</ele>
        <time>2026-05-14T12:48:16+02:00</time>
      </trkpt>
      <trkpt lat="46.88276" lon="4.95049">
        <ele>173.40039</ele>
        <time>2026-05-14T12:48:17+02:00</time>
      </trkpt>
      <trkpt lat="46.88281" lon="4.95047">
        <ele>173.5</ele>
        <time>2026-05-14T12:48:18+02:00</time>
      </trkpt>
      <trkpt lat="46.88286" lon="4.95046">
        <ele>173.60059</ele>
        <time>2026-05-14T12:48:19+02:00</time>
      </trkpt>
      <trkpt lat="46.88291" lon="4.95044">
        <ele>174.90039</ele>
        <time>2026-05-14T12:48:20+02:00</time>
      </trkpt>
      <trkpt lat="46.88295" lon="4.95042">
        <ele>174.90039</ele>
        <time>2026-05-14T12:48:21+02:00</time>
      </trkpt>
      <trkpt lat="46.883" lon="4.9504">
        <ele>175</ele>
        <time>2026-05-14T12:48:22+02:00</time>
      </trkpt>
      <trkpt lat="46.88305" lon="4.95039">
        <ele>175</ele>
        <time>2026-05-14T12:48:23+02:00</time>
      </trkpt>
      <trkpt lat="46.8831" lon="4.95037">
        <ele>176.2002</ele>
        <time>2026-05-14T12:48:24+02:00</time>
      </trkpt>
      <trkpt lat="46.88315" lon="4.95035">
        <ele>176.60059</ele>
        <time>2026-05-14T12:48:25+02:00</time>
      </trkpt>
      <trkpt lat="46.8832" lon="4.95034">
        <ele>177</ele>
        <time>2026-05-14T12:48:26+02:00</time>
      </trkpt>
      <trkpt lat="46.88324" lon="4.95032">
        <ele>177</ele>
        <time>2026-05-14T12:48:27+02:00</time>
      </trkpt>
      <trkpt lat="46.88329" lon="4.9503">
        <ele>177.10059</ele>
        <time>2026-05-14T12:48:28+02:00</time>
      </trkpt>
      <trkpt lat="46.88334" lon="4.95029">
        <ele>176.7998</ele>
        <time>2026-05-14T12:48:29+02:00</time>
      </trkpt>
      <trkpt lat="46.88338" lon="4.95028">
        <ele>176.10059</ele>
        <time>2026-05-14T12:48:30+02:00</time>
      </trkpt>
      <trkpt lat="46.88343" lon="4.95026">
        <ele>174.40039</ele>
        <time>2026-05-14T12:48:31+02:00</time>
      </trkpt>
      <trkpt lat="46.88347" lon="4.95025">
        <ele>174.40039</ele>
        <time>2026-05-14T12:48:32+02:00</time>
      </trkpt>
      <trkpt lat="46.88352" lon="4.95023">
        <ele>172.90039</ele>
        <time>2026-05-14T12:48:33+02:00</time>
      </trkpt>
      <trkpt lat="46.88357" lon="4.95022">
        <ele>172.40039</ele>
        <time>2026-05-14T12:48:34+02:00</time>
      </trkpt>
      <trkpt lat="46.88361" lon="4.95021">
        <ele>172.2998</ele>
        <time>2026-05-14T12:48:35+02:00</time>
      </trkpt>
      <trkpt lat="46.88366" lon="4.95019">
        <ele>173.2998</ele>
        <time>2026-05-14T12:48:36+02:00</time>
      </trkpt>
      <trkpt lat="46.88371" lon="4.95018">
        <ele>173.10059</ele>
        <time>2026-05-14T12:48:37+02:00</time>
      </trkpt>
      <trkpt lat="46.88375" lon="4.95017">
        <ele>172.90039</ele>
        <time>2026-05-14T12:48:38+02:00</time>
      </trkpt>
      <trkpt lat="46.88379" lon="4.95016">
        <ele>172.7998</ele>
        <time>2026-05-14T12:48:39+02:00</time>
      </trkpt>
      <trkpt lat="46.88384" lon="4.95015">
        <ele>172.7998</ele>
        <time>2026-05-14T12:48:40+02:00</time>
      </trkpt>
      <trkpt lat="46.88389" lon="4.95014">
        <ele>172.7998</ele>
        <time>2026-05-14T12:48:41+02:00</time>
      </trkpt>
      <trkpt lat="46.88392" lon="4.95012">
        <ele>172.7002</ele>
        <time>2026-05-14T12:48:42+02:00</time>
      </trkpt>
      <trkpt lat="46.88397" lon="4.95012">
        <ele>172.60059</ele>
        <time>2026-05-14T12:48:43+02:00</time>
      </trkpt>
      <trkpt lat="46.88401" lon="4.95011">
        <ele>174</ele>
        <time>2026-05-14T12:48:44+02:00</time>
      </trkpt>
      <trkpt lat="46.88405" lon="4.9501">
        <ele>173.90039</ele>
        <time>2026-05-14T12:48:45+02:00</time>
      </trkpt>
      <trkpt lat="46.8841" lon="4.95009">
        <ele>173.90039</ele>
        <time>2026-05-14T12:48:46+02:00</time>
      </trkpt>
      <trkpt lat="46.88415" lon="4.95008">
        <ele>173.7998</ele>
        <time>2026-05-14T12:48:47+02:00</time>
      </trkpt>
      <trkpt lat="46.88419" lon="4.95007">
        <ele>173.7998</ele>
        <time>2026-05-14T12:48:48+02:00</time>
      </trkpt>
      <trkpt lat="46.88422" lon="4.95006">
        <ele>173.7998</ele>
        <time>2026-05-14T12:48:49+02:00</time>
      </trkpt>
      <trkpt lat="46.88425" lon="4.95005">
        <ele>173.7998</ele>
        <time>2026-05-14T12:48:50+02:00</time>
      </trkpt>
      <trkpt lat="46.88427" lon="4.95005">
        <ele>173.7998</ele>
        <time>2026-05-14T12:48:51+02:00</time>
      </trkpt>
      <trkpt lat="46.8843" lon="4.95004">
        <ele>173.7998</ele>
        <time>2026-05-14T12:48:52+02:00</time>
      </trkpt>
      <trkpt lat="46.88433" lon="4.95004">
        <ele>173.7998</ele>
        <time>2026-05-14T12:48:53+02:00</time>
      </trkpt>
      <trkpt lat="46.88435" lon="4.95004">
        <ele>173.7998</ele>
        <time>2026-05-14T12:48:54+02:00</time>
      </trkpt>
      <trkpt lat="46.88438" lon="4.95003">
        <ele>173.7998</ele>
        <time>2026-05-14T12:48:55+02:00</time>
      </trkpt>
      <trkpt lat="46.8844" lon="4.95003">
        <ele>173.7998</ele>
        <time>2026-05-14T12:48:56+02:00</time>
      </trkpt>
      <trkpt lat="46.88443" lon="4.95002">
        <ele>175.5</ele>
        <time>2026-05-14T12:48:57+02:00</time>
      </trkpt>
      <trkpt lat="46.88444" lon="4.95003">
        <ele>173.90039</ele>
        <time>2026-05-14T12:48:58+02:00</time>
      </trkpt>
      <trkpt lat="46.88444" lon="4.95003">
        <ele>173.90039</ele>
        <time>2026-05-14T12:48:59+02:00</time>
      </trkpt>
      <trkpt lat="46.88444" lon="4.95003">
        <ele>173.90039</ele>
        <time>2026-05-14T12:49:00+02:00</time>
      </trkpt>
      <trkpt lat="46.88444" lon="4.95003">
        <ele>173.90039</ele>
        <time>2026-05-14T12:49:01+02:00</time>
      </trkpt>
      <trkpt lat="46.88444" lon="4.95003">
        <ele>173.90039</ele>
        <time>2026-05-14T12:49:02+02:00</time>
      </trkpt>
      <trkpt lat="46.88436" lon="4.95004">
        <ele>173.7998</ele>
        <time>2026-05-14T12:49:19+02:00</time>
      </trkpt>
      <trkpt lat="46.88435" lon="4.95004">
        <ele>173.7998</ele>
        <time>2026-05-14T12:49:20+02:00</time>
      </trkpt>
      <trkpt lat="46.88434" lon="4.95004">
        <ele>173.7998</ele>
        <time>2026-05-14T12:49:21+02:00</time>
      </trkpt>
      <trkpt lat="46.88434" lon="4.95003">
        <ele>173.7998</ele>
        <time>2026-05-14T12:49:22+02:00</time>
      </trkpt>
      <trkpt lat="46.88432" lon="4.95003">
        <ele>173.7998</ele>
        <time>2026-05-14T12:49:23+02:00</time>
      </trkpt>
      <trkpt lat="46.88431" lon="4.95003">
        <ele>173.7998</ele>
        <time>2026-05-14T12:49:24+02:00</time>
      </trkpt>
      <trkpt lat="46.88434" lon="4.94991">
        <ele>177.2998</ele>
        <time>2026-05-14T12:50:23+02:00</time>
      </trkpt>
      <trkpt lat="46.88434" lon="4.94988">
        <ele>177.2998</ele>
        <time>2026-05-14T12:50:24+02:00</time>
      </trkpt>
      <trkpt lat="46.88434" lon="4.94984">
        <ele>179.5</ele>
        <time>2026-05-14T12:50:25+02:00</time>
      </trkpt>
      <trkpt lat="46.88434" lon="4.94981">
        <ele>179.5</ele>
        <time>2026-05-14T12:50:26+02:00</time>
      </trkpt>
      <trkpt lat="46.88434" lon="4.94978">
        <ele>179.5</ele>
        <time>2026-05-14T12:50:27+02:00</time>
      </trkpt>
      <trkpt lat="46.88434" lon="4.94974">
        <ele>182.10059</ele>
        <time>2026-05-14T12:50:28+02:00</time>
      </trkpt>
      <trkpt lat="46.88434" lon="4.9497">
        <ele>182.10059</ele>
        <time>2026-05-14T12:50:29+02:00</time>
      </trkpt>
      <trkpt lat="46.88434" lon="4.94966">
        <ele>184.60059</ele>
        <time>2026-05-14T12:50:30+02:00</time>
      </trkpt>
      <trkpt lat="46.88434" lon="4.94963">
        <ele>184.60059</ele>
        <time>2026-05-14T12:50:31+02:00</time>
      </trkpt>
      <trkpt lat="46.88434" lon="4.94959">
        <ele>186.10059</ele>
        <time>2026-05-14T12:50:32+02:00</time>
      </trkpt>
      <trkpt lat="46.88434" lon="4.94955">
        <ele>186.10059</ele>
        <time>2026-05-14T12:50:33+02:00</time>
      </trkpt>
      <trkpt lat="46.88433" lon="4.94952">
        <ele>186.10059</ele>
        <time>2026-05-14T12:50:34+02:00</time>
      </trkpt>
      <trkpt lat="46.88432" lon="4.94951">
        <ele>186.2998</ele>
        <time>2026-05-14T12:50:35+02:00</time>
      </trkpt>
      <trkpt lat="46.88431" lon="4.94952">
        <ele>186.10059</ele>
        <time>2026-05-14T12:50:36+02:00</time>
      </trkpt>
      <trkpt lat="46.88432" lon="4.94953">
        <ele>186.10059</ele>
        <time>2026-05-14T12:50:37+02:00</time>
      </trkpt>
      <trkpt lat="46.88432" lon="4.94955">
        <ele>186.10059</ele>
        <time>2026-05-14T12:50:38+02:00</time>
      </trkpt>
      <trkpt lat="46.88433" lon="4.94958">
        <ele>186.10059</ele>
        <time>2026-05-14T12:50:39+02:00</time>
      </trkpt>
      <trkpt lat="46.88434" lon="4.94961">
        <ele>184.60059</ele>
        <time>2026-05-14T12:50:40+02:00</time>
      </trkpt>
      <trkpt lat="46.88435" lon="4.94965">
        <ele>184.60059</ele>
        <time>2026-05-14T12:50:41+02:00</time>
      </trkpt>
      <trkpt lat="46.88435" lon="4.94968">
        <ele>184.60059</ele>
        <time>2026-05-14T12:50:42+02:00</time>
      </trkpt>
      <trkpt lat="46.88435" lon="4.94971">
        <ele>182.10059</ele>
        <time>2026-05-14T12:50:43+02:00</time>
      </trkpt>
      <trkpt lat="46.88435" lon="4.94973">
        <ele>182.10059</ele>
        <time>2026-05-14T12:50:44+02:00</time>
      </trkpt>
      <trkpt lat="46.88435" lon="4.94975">
        <ele>182.10059</ele>
        <time>2026-05-14T12:50:45+02:00</time>
      </trkpt>
      <trkpt lat="46.88435" lon="4.94978">
        <ele>179.5</ele>
        <time>2026-05-14T12:50:46+02:00</time>
      </trkpt>
      <trkpt lat="46.88435" lon="4.9498">
        <ele>179.5</ele>
        <time>2026-05-14T12:50:47+02:00</time>
      </trkpt>
      <trkpt lat="46.88435" lon="4.94982">
        <ele>179.5</ele>
        <time>2026-05-14T12:50:48+02:00</time>
      </trkpt>
      <trkpt lat="46.88435" lon="4.94985">
        <ele>179.5</ele>
        <time>2026-05-14T12:50:49+02:00</time>
      </trkpt>
      <trkpt lat="46.88435" lon="4.94987">
        <ele>177.2998</ele>
        <time>2026-05-14T12:50:50+02:00</time>
      </trkpt>
      <trkpt lat="46.88435" lon="4.9499">
        <ele>177.2998</ele>
        <time>2026-05-14T12:50:51+02:00</time>
      </trkpt>
      <trkpt lat="46.88435" lon="4.94992">
        <ele>177.2998</ele>
        <time>2026-05-14T12:50:52+02:00</time>
      </trkpt>
      <trkpt lat="46.88435" lon="4.94998">
        <ele>175.5</ele>
        <time>2026-05-14T12:50:53+02:00</time>
      </trkpt>
      <trkpt lat="46.88436" lon="4.95">
        <ele>175.5</ele>
        <time>2026-05-14T12:50:54+02:00</time>
      </trkpt>
      <trkpt lat="46.88438" lon="4.95001">
        <ele>175.5</ele>
        <time>2026-05-14T12:50:55+02:00</time>
      </trkpt>
      <trkpt lat="46.8844" lon="4.95001">
        <ele>175.5</ele>
        <time>2026-05-14T12:50:56+02:00</time>
      </trkpt>
      <trkpt lat="46.88443" lon="4.95002">
        <ele>175.5</ele>
        <time>2026-05-14T12:50:57+02:00</time>
      </trkpt>
      <trkpt lat="46.88445" lon="4.95003">
        <ele>173.90039</ele>
        <time>2026-05-14T12:50:58+02:00</time>
      </trkpt>
      <trkpt lat="46.88448" lon="4.95003">
        <ele>173.90039</ele>
        <time>2026-05-14T12:50:59+02:00</time>
      </trkpt>
      <trkpt lat="46.88452" lon="4.95004">
        <ele>174</ele>
        <time>2026-05-14T12:51:00+02:00</time>
      </trkpt>
      <trkpt lat="46.88455" lon="4.95005">
        <ele>174.2002</ele>
        <time>2026-05-14T12:51:01+02:00</time>
      </trkpt>
      <trkpt lat="46.88459" lon="4.95006">
        <ele>174.2002</ele>
        <time>2026-05-14T12:51:02+02:00</time>
      </trkpt>
      <trkpt lat="46.88463" lon="4.95007">
        <ele>174.40039</ele>
        <time>2026-05-14T12:51:03+02:00</time>
      </trkpt>
      <trkpt lat="46.88467" lon="4.95008">
        <ele>174.5</ele>
        <time>2026-05-14T12:51:04+02:00</time>
      </trkpt>
      <trkpt lat="46.88471" lon="4.95009">
        <ele>174.5</ele>
        <time>2026-05-14T12:51:05+02:00</time>
      </trkpt>
      <trkpt lat="46.88476" lon="4.9501">
        <ele>174.7998</ele>
        <time>2026-05-14T12:51:06+02:00</time>
      </trkpt>
      <trkpt lat="46.8848" lon="4.95011">
        <ele>175</ele>
        <time>2026-05-14T12:51:07+02:00</time>
      </trkpt>
      <trkpt lat="46.88484" lon="4.95011">
        <ele>175.2998</ele>
        <time>2026-05-14T12:51:08+02:00</time>
      </trkpt>
      <trkpt lat="46.88489" lon="4.95012">
        <ele>174.2998</ele>
        <time>2026-05-14T12:51:09+02:00</time>
      </trkpt>
      <trkpt lat="46.88494" lon="4.95013">
        <ele>174.60059</ele>
        <time>2026-05-14T12:51:10+02:00</time>
      </trkpt>
      <trkpt lat="46.88498" lon="4.95015">
        <ele>174.90039</ele>
        <time>2026-05-14T12:51:11+02:00</time>
      </trkpt>
      <trkpt lat="46.88503" lon="4.95015">
        <ele>175.2998</ele>
        <time>2026-05-14T12:51:12+02:00</time>
      </trkpt>
      <trkpt lat="46.88508" lon="4.95017">
        <ele>175.7002</ele>
        <time>2026-05-14T12:51:13+02:00</time>
      </trkpt>
      <trkpt lat="46.88512" lon="4.95018">
        <ele>175.7002</ele>
        <time>2026-05-14T12:51:14+02:00</time>
      </trkpt>
      <trkpt lat="46.88517" lon="4.95019">
        <ele>176.10059</ele>
        <time>2026-05-14T12:51:15+02:00</time>
      </trkpt>
      <trkpt lat="46.88521" lon="4.95019">
        <ele>176.5</ele>
        <time>2026-05-14T12:51:16+02:00</time>
      </trkpt>
      <trkpt lat="46.88526" lon="4.9502">
        <ele>175.2002</ele>
        <time>2026-05-14T12:51:17+02:00</time>
      </trkpt>
      <trkpt lat="46.8853" lon="4.95021">
        <ele>175.2002</ele>
        <time>2026-05-14T12:51:18+02:00</time>
      </trkpt>
      <trkpt lat="46.88535" lon="4.95021">
        <ele>175.5</ele>
        <time>2026-05-14T12:51:19+02:00</time>
      </trkpt>
      <trkpt lat="46.88541" lon="4.95022">
        <ele>175.7002</ele>
        <time>2026-05-14T12:51:20+02:00</time>
      </trkpt>
      <trkpt lat="46.88547" lon="4.95023">
        <ele>176</ele>
        <time>2026-05-14T12:51:21+02:00</time>
      </trkpt>
      <trkpt lat="46.88551" lon="4.95024">
        <ele>176.2002</ele>
        <time>2026-05-14T12:51:22+02:00</time>
      </trkpt>
      <trkpt lat="46.88556" lon="4.95025">
        <ele>176.2998</ele>
        <time>2026-05-14T12:51:23+02:00</time>
      </trkpt>
      <trkpt lat="46.88562" lon="4.95026">
        <ele>176.60059</ele>
        <time>2026-05-14T12:51:24+02:00</time>
      </trkpt>
      <trkpt lat="46.88567" lon="4.95027">
        <ele>176.90039</ele>
        <time>2026-05-14T12:51:25+02:00</time>
      </trkpt>
      <trkpt lat="46.88572" lon="4.95028">
        <ele>176.90039</ele>
        <time>2026-05-14T12:51:26+02:00</time>
      </trkpt>
      <trkpt lat="46.88578" lon="4.9503">
        <ele>173.40039</ele>
        <time>2026-05-14T12:51:27+02:00</time>
      </trkpt>
      <trkpt lat="46.88583" lon="4.95031">
        <ele>173.40039</ele>
        <time>2026-05-14T12:51:28+02:00</time>
      </trkpt>
      <trkpt lat="46.88589" lon="4.95032">
        <ele>172.7998</ele>
        <time>2026-05-14T12:51:29+02:00</time>
      </trkpt>
      <trkpt lat="46.88594" lon="4.95033">
        <ele>172.7998</ele>
        <time>2026-05-14T12:51:30+02:00</time>
      </trkpt>
      <trkpt lat="46.886" lon="4.95034">
        <ele>172.5</ele>
        <time>2026-05-14T12:51:31+02:00</time>
      </trkpt>
      <trkpt lat="46.88605" lon="4.95036">
        <ele>172.2998</ele>
        <time>2026-05-14T12:51:32+02:00</time>
      </trkpt>
      <trkpt lat="46.88611" lon="4.95037">
        <ele>172.2002</ele>
        <time>2026-05-14T12:51:33+02:00</time>
      </trkpt>
      <trkpt lat="46.88616" lon="4.95038">
        <ele>171.7002</ele>
        <time>2026-05-14T12:51:34+02:00</time>
      </trkpt>
      <trkpt lat="46.88622" lon="4.9504">
        <ele>171.7002</ele>
        <time>2026-05-14T12:51:35+02:00</time>
      </trkpt>
      <trkpt lat="46.88627" lon="4.95041">
        <ele>171.7002</ele>
        <time>2026-05-14T12:51:36+02:00</time>
      </trkpt>
      <trkpt lat="46.88632" lon="4.95042">
        <ele>171.60059</ele>
        <time>2026-05-14T12:51:37+02:00</time>
      </trkpt>
      <trkpt lat="46.88637" lon="4.95044">
        <ele>171.60059</ele>
        <time>2026-05-14T12:51:38+02:00</time>
      </trkpt>
      <trkpt lat="46.88641" lon="4.95045">
        <ele>171.60059</ele>
        <time>2026-05-14T12:51:39+02:00</time>
      </trkpt>
      <trkpt lat="46.88646" lon="4.95047">
        <ele>171.60059</ele>
        <time>2026-05-14T12:51:40+02:00</time>
      </trkpt>
      <trkpt lat="46.88651" lon="4.95048">
        <ele>171.5</ele>
        <time>2026-05-14T12:51:41+02:00</time>
      </trkpt>
      <trkpt lat="46.88656" lon="4.9505">
        <ele>171.2998</ele>
        <time>2026-05-14T12:51:42+02:00</time>
      </trkpt>
      <trkpt lat="46.88661" lon="4.95051">
        <ele>171.10059</ele>
        <time>2026-05-14T12:51:43+02:00</time>
      </trkpt>
      <trkpt lat="46.88665" lon="4.95053">
        <ele>171.10059</ele>
        <time>2026-05-14T12:51:44+02:00</time>
      </trkpt>
      <trkpt lat="46.8867" lon="4.95054">
        <ele>171.2998</ele>
        <time>2026-05-14T12:51:45+02:00</time>
      </trkpt>
      <trkpt lat="46.88674" lon="4.95055">
        <ele>171.90039</ele>
        <time>2026-05-14T12:51:46+02:00</time>
      </trkpt>
      <trkpt lat="46.88678" lon="4.95057">
        <ele>172.2002</ele>
        <time>2026-05-14T12:51:47+02:00</time>
      </trkpt>
      <trkpt lat="46.88683" lon="4.95058">
        <ele>172.2002</ele>
        <time>2026-05-14T12:51:48+02:00</time>
      </trkpt>
      <trkpt lat="46.88687" lon="4.9506">
        <ele>172.40039</ele>
        <time>2026-05-14T12:51:49+02:00</time>
      </trkpt>
      <trkpt lat="46.88691" lon="4.95061">
        <ele>172.5</ele>
        <time>2026-05-14T12:51:50+02:00</time>
      </trkpt>
      <trkpt lat="46.88695" lon="4.95063">
        <ele>171.40039</ele>
        <time>2026-05-14T12:51:51+02:00</time>
      </trkpt>
      <trkpt lat="46.88699" lon="4.95064">
        <ele>171.40039</ele>
        <time>2026-05-14T12:51:52+02:00</time>
      </trkpt>
      <trkpt lat="46.88703" lon="4.95065">
        <ele>171.40039</ele>
        <time>2026-05-14T12:51:53+02:00</time>
      </trkpt>
      <trkpt lat="46.88707" lon="4.95066">
        <ele>171.5</ele>
        <time>2026-05-14T12:51:54+02:00</time>
      </trkpt>
      <trkpt lat="46.88712" lon="4.95068">
        <ele>171.5</ele>
        <time>2026-05-14T12:51:55+02:00</time>
      </trkpt>
      <trkpt lat="46.88716" lon="4.95069">
        <ele>171.60059</ele>
        <time>2026-05-14T12:51:56+02:00</time>
      </trkpt>
      <trkpt lat="46.8872" lon="4.95071">
        <ele>171.5</ele>
        <time>2026-05-14T12:51:57+02:00</time>
      </trkpt>
      <trkpt lat="46.88725" lon="4.95073">
        <ele>171.40039</ele>
        <time>2026-05-14T12:51:58+02:00</time>
      </trkpt>
      <trkpt lat="46.8873" lon="4.95075">
        <ele>171.40039</ele>
        <time>2026-05-14T12:51:59+02:00</time>
      </trkpt>
      <trkpt lat="46.88735" lon="4.95077">
        <ele>171.40039</ele>
        <time>2026-05-14T12:52:00+02:00</time>
      </trkpt>
      <trkpt lat="46.8874" lon="4.95079">
        <ele>171.5</ele>
        <time>2026-05-14T12:52:01+02:00</time>
      </trkpt>
      <trkpt lat="46.88745" lon="4.95081">
        <ele>171.90039</ele>
        <time>2026-05-14T12:52:02+02:00</time>
      </trkpt>
      <trkpt lat="46.8875" lon="4.95083">
        <ele>172</ele>
        <time>2026-05-14T12:52:03+02:00</time>
      </trkpt>
      <trkpt lat="46.88754" lon="4.95085">
        <ele>172.10059</ele>
        <time>2026-05-14T12:52:04+02:00</time>
      </trkpt>
      <trkpt lat="46.88759" lon="4.95087">
        <ele>172.10059</ele>
        <time>2026-05-14T12:52:05+02:00</time>
      </trkpt>
      <trkpt lat="46.88763" lon="4.95088">
        <ele>172.10059</ele>
        <time>2026-05-14T12:52:06+02:00</time>
      </trkpt>
      <trkpt lat="46.88767" lon="4.9509">
        <ele>171.7002</ele>
        <time>2026-05-14T12:52:07+02:00</time>
      </trkpt>
      <trkpt lat="46.88772" lon="4.95092">
        <ele>171.5</ele>
        <time>2026-05-14T12:52:08+02:00</time>
      </trkpt>
      <trkpt lat="46.88776" lon="4.95094">
        <ele>171.5</ele>
        <time>2026-05-14T12:52:09+02:00</time>
      </trkpt>
      <trkpt lat="46.8878" lon="4.95096">
        <ele>171.40039</ele>
        <time>2026-05-14T12:52:10+02:00</time>
      </trkpt>
      <trkpt lat="46.88785" lon="4.95098">
        <ele>171.5</ele>
        <time>2026-05-14T12:52:11+02:00</time>
      </trkpt>
      <trkpt lat="46.88789" lon="4.951">
        <ele>171.7998</ele>
        <time>2026-05-14T12:52:12+02:00</time>
      </trkpt>
      <trkpt lat="46.88793" lon="4.95102">
        <ele>171.7998</ele>
        <time>2026-05-14T12:52:13+02:00</time>
      </trkpt>
      <trkpt lat="46.88798" lon="4.95104">
        <ele>172.2002</ele>
        <time>2026-05-14T12:52:14+02:00</time>
      </trkpt>
      <trkpt lat="46.88802" lon="4.95105">
        <ele>172.7002</ele>
        <time>2026-05-14T12:52:15+02:00</time>
      </trkpt>
      <trkpt lat="46.88807" lon="4.95107">
        <ele>172.2002</ele>
        <time>2026-05-14T12:52:16+02:00</time>
      </trkpt>
      <trkpt lat="46.88812" lon="4.95108">
        <ele>172.2002</ele>
        <time>2026-05-14T12:52:17+02:00</time>
      </trkpt>
      <trkpt lat="46.88816" lon="4.9511">
        <ele>172.2002</ele>
        <time>2026-05-14T12:52:18+02:00</time>
      </trkpt>
      <trkpt lat="46.88821" lon="4.95111">
        <ele>172</ele>
        <time>2026-05-14T12:52:19+02:00</time>
      </trkpt>
      <trkpt lat="46.88826" lon="4.95112">
        <ele>172</ele>
        <time>2026-05-14T12:52:20+02:00</time>
      </trkpt>
      <trkpt lat="46.8883" lon="4.95113">
        <ele>172.2998</ele>
        <time>2026-05-14T12:52:21+02:00</time>
      </trkpt>
      <trkpt lat="46.88835" lon="4.95114">
        <ele>172.2998</ele>
        <time>2026-05-14T12:52:22+02:00</time>
      </trkpt>
      <trkpt lat="46.88839" lon="4.95116">
        <ele>172.2002</ele>
        <time>2026-05-14T12:52:23+02:00</time>
      </trkpt>
      <trkpt lat="46.88843" lon="4.95119">
        <ele>173.2002</ele>
        <time>2026-05-14T12:52:24+02:00</time>
      </trkpt>
      <trkpt lat="46.88847" lon="4.95122">
        <ele>173.2002</ele>
        <time>2026-05-14T12:52:25+02:00</time>
      </trkpt>
      <trkpt lat="46.88852" lon="4.95125">
        <ele>173.10059</ele>
        <time>2026-05-14T12:52:26+02:00</time>
      </trkpt>
      <trkpt lat="46.88856" lon="4.95129">
        <ele>173.60059</ele>
        <time>2026-05-14T12:52:27+02:00</time>
      </trkpt>
      <trkpt lat="46.88861" lon="4.95132">
        <ele>172.40039</ele>
        <time>2026-05-14T12:52:28+02:00</time>
      </trkpt>
      <trkpt lat="46.88866" lon="4.95136">
        <ele>172.2998</ele>
        <time>2026-05-14T12:52:29+02:00</time>
      </trkpt>
      <trkpt lat="46.8887" lon="4.95139">
        <ele>172.2998</ele>
        <time>2026-05-14T12:52:30+02:00</time>
      </trkpt>
      <trkpt lat="46.88875" lon="4.95143">
        <ele>171.7002</ele>
        <time>2026-05-14T12:52:31+02:00</time>
      </trkpt>
      <trkpt lat="46.8888" lon="4.95146">
        <ele>172</ele>
        <time>2026-05-14T12:52:32+02:00</time>
      </trkpt>
      <trkpt lat="46.88884" lon="4.95149">
        <ele>172</ele>
        <time>2026-05-14T12:52:33+02:00</time>
      </trkpt>
      <trkpt lat="46.88889" lon="4.95151">
        <ele>172.7998</ele>
        <time>2026-05-14T12:52:34+02:00</time>
      </trkpt>
      <trkpt lat="46.88893" lon="4.95155">
        <ele>172.7998</ele>
        <time>2026-05-14T12:52:35+02:00</time>
      </trkpt>
      <trkpt lat="46.88898" lon="4.95157">
        <ele>173.7002</ele>
        <time>2026-05-14T12:52:36+02:00</time>
      </trkpt>
      <trkpt lat="46.88902" lon="4.9516">
        <ele>172.90039</ele>
        <time>2026-05-14T12:52:37+02:00</time>
      </trkpt>
      <trkpt lat="46.88907" lon="4.95163">
        <ele>172.90039</ele>
        <time>2026-05-14T12:52:38+02:00</time>
      </trkpt>
      <trkpt lat="46.88912" lon="4.95166">
        <ele>171.7002</ele>
        <time>2026-05-14T12:52:39+02:00</time>
      </trkpt>
      <trkpt lat="46.88917" lon="4.9517">
        <ele>171.7002</ele>
        <time>2026-05-14T12:52:40+02:00</time>
      </trkpt>
      <trkpt lat="46.88921" lon="4.95173">
        <ele>171.7998</ele>
        <time>2026-05-14T12:52:41+02:00</time>
      </trkpt>
      <trkpt lat="46.88926" lon="4.95176">
        <ele>171.60059</ele>
        <time>2026-05-14T12:52:42+02:00</time>
      </trkpt>
      <trkpt lat="46.88931" lon="4.95179">
        <ele>172.2002</ele>
        <time>2026-05-14T12:52:43+02:00</time>
      </trkpt>
      <trkpt lat="46.88935" lon="4.95182">
        <ele>172.2002</ele>
        <time>2026-05-14T12:52:44+02:00</time>
      </trkpt>
      <trkpt lat="46.88939" lon="4.95185">
        <ele>172.5</ele>
        <time>2026-05-14T12:52:45+02:00</time>
      </trkpt>
      <trkpt lat="46.88944" lon="4.95188">
        <ele>173</ele>
        <time>2026-05-14T12:52:46+02:00</time>
      </trkpt>
      <trkpt lat="46.88949" lon="4.95191">
        <ele>173.40039</ele>
        <time>2026-05-14T12:52:47+02:00</time>
      </trkpt>
      <trkpt lat="46.88954" lon="4.95193">
        <ele>172.10059</ele>
        <time>2026-05-14T12:52:48+02:00</time>
      </trkpt>
      <trkpt lat="46.88958" lon="4.95197">
        <ele>172.10059</ele>
        <time>2026-05-14T12:52:49+02:00</time>
      </trkpt>
      <trkpt lat="46.88964" lon="4.952">
        <ele>172</ele>
        <time>2026-05-14T12:52:50+02:00</time>
      </trkpt>
      <trkpt lat="46.88969" lon="4.95203">
        <ele>171.5</ele>
        <time>2026-05-14T12:52:51+02:00</time>
      </trkpt>
      <trkpt lat="46.88974" lon="4.95205">
        <ele>171.7002</ele>
        <time>2026-05-14T12:52:52+02:00</time>
      </trkpt>
      <trkpt lat="46.88978" lon="4.95208">
        <ele>172.5</ele>
        <time>2026-05-14T12:52:53+02:00</time>
      </trkpt>
      <trkpt lat="46.88983" lon="4.95211">
        <ele>172.7002</ele>
        <time>2026-05-14T12:52:54+02:00</time>
      </trkpt>
      <trkpt lat="46.88987" lon="4.95214">
        <ele>172.7002</ele>
        <time>2026-05-14T12:52:55+02:00</time>
      </trkpt>
      <trkpt lat="46.88991" lon="4.95216">
        <ele>173.2998</ele>
        <time>2026-05-14T12:52:56+02:00</time>
      </trkpt>
      <trkpt lat="46.88995" lon="4.95219">
        <ele>172.5</ele>
        <time>2026-05-14T12:52:57+02:00</time>
      </trkpt>
      <trkpt lat="46.89" lon="4.95222">
        <ele>172.40039</ele>
        <time>2026-05-14T12:52:58+02:00</time>
      </trkpt>
      <trkpt lat="46.89004" lon="4.95226">
        <ele>172</ele>
        <time>2026-05-14T12:52:59+02:00</time>
      </trkpt>
      <trkpt lat="46.8901" lon="4.9523">
        <ele>172</ele>
        <time>2026-05-14T12:53:00+02:00</time>
      </trkpt>
      <trkpt lat="46.89015" lon="4.95234">
        <ele>171.90039</ele>
        <time>2026-05-14T12:53:01+02:00</time>
      </trkpt>
      <trkpt lat="46.8902" lon="4.95237">
        <ele>171.5</ele>
        <time>2026-05-14T12:53:02+02:00</time>
      </trkpt>
      <trkpt lat="46.89025" lon="4.95239">
        <ele>171.40039</ele>
        <time>2026-05-14T12:53:03+02:00</time>
      </trkpt>
      <trkpt lat="46.8903" lon="4.9524">
        <ele>171.2998</ele>
        <time>2026-05-14T12:53:04+02:00</time>
      </trkpt>
      <trkpt lat="46.89036" lon="4.95241">
        <ele>171.40039</ele>
        <time>2026-05-14T12:53:05+02:00</time>
      </trkpt>
      <trkpt lat="46.89041" lon="4.95242">
        <ele>171.60059</ele>
        <time>2026-05-14T12:53:06+02:00</time>
      </trkpt>
      <trkpt lat="46.89045" lon="4.95242">
        <ele>171.60059</ele>
        <time>2026-05-14T12:53:07+02:00</time>
      </trkpt>
      <trkpt lat="46.8905" lon="4.95241">
        <ele>172.10059</ele>
        <time>2026-05-14T12:53:08+02:00</time>
      </trkpt>
      <trkpt lat="46.89055" lon="4.9524">
        <ele>172.7998</ele>
        <time>2026-05-14T12:53:09+02:00</time>
      </trkpt>
      <trkpt lat="46.8906" lon="4.9524">
        <ele>173.40039</ele>
        <time>2026-05-14T12:53:10+02:00</time>
      </trkpt>
      <trkpt lat="46.89065" lon="4.9524">
        <ele>173.5</ele>
        <time>2026-05-14T12:53:11+02:00</time>
      </trkpt>
      <trkpt lat="46.89071" lon="4.95242">
        <ele>173.60059</ele>
        <time>2026-05-14T12:53:12+02:00</time>
      </trkpt>
      <trkpt lat="46.89076" lon="4.95246">
        <ele>172.5</ele>
        <time>2026-05-14T12:53:13+02:00</time>
      </trkpt>
      <trkpt lat="46.8908" lon="4.9525">
        <ele>172.40039</ele>
        <time>2026-05-14T12:53:14+02:00</time>
      </trkpt>
      <trkpt lat="46.89083" lon="4.95255">
        <ele>171.90039</ele>
        <time>2026-05-14T12:53:15+02:00</time>
      </trkpt>
      <trkpt lat="46.89086" lon="4.95261">
        <ele>171.60059</ele>
        <time>2026-05-14T12:53:16+02:00</time>
      </trkpt>
      <trkpt lat="46.89088" lon="4.95265">
        <ele>171.5</ele>
        <time>2026-05-14T12:53:17+02:00</time>
      </trkpt>
      <trkpt lat="46.89091" lon="4.95269">
        <ele>171.60059</ele>
        <time>2026-05-14T12:53:18+02:00</time>
      </trkpt>
      <trkpt lat="46.89095" lon="4.95273">
        <ele>171.5</ele>
        <time>2026-05-14T12:53:19+02:00</time>
      </trkpt>
      <trkpt lat="46.89099" lon="4.95277">
        <ele>171.5</ele>
        <time>2026-05-14T12:53:20+02:00</time>
      </trkpt>
      <trkpt lat="46.89103" lon="4.95281">
        <ele>171.90039</ele>
        <time>2026-05-14T12:53:21+02:00</time>
      </trkpt>
      <trkpt lat="46.89108" lon="4.95285">
        <ele>171.90039</ele>
        <time>2026-05-14T12:53:22+02:00</time>
      </trkpt>
      <trkpt lat="46.89113" lon="4.95289">
        <ele>171.90039</ele>
        <time>2026-05-14T12:53:23+02:00</time>
      </trkpt>
      <trkpt lat="46.89118" lon="4.95294">
        <ele>171.60059</ele>
        <time>2026-05-14T12:53:24+02:00</time>
      </trkpt>
      <trkpt lat="46.89122" lon="4.95297">
        <ele>171.7002</ele>
        <time>2026-05-14T12:53:25+02:00</time>
      </trkpt>
      <trkpt lat="46.89127" lon="4.95301">
        <ele>171.5</ele>
        <time>2026-05-14T12:53:26+02:00</time>
      </trkpt>
      <trkpt lat="46.89132" lon="4.95304">
        <ele>171.7998</ele>
        <time>2026-05-14T12:53:27+02:00</time>
      </trkpt>
      <trkpt lat="46.89137" lon="4.95308">
        <ele>171.7998</ele>
        <time>2026-05-14T12:53:28+02:00</time>
      </trkpt>
      <trkpt lat="46.89141" lon="4.95311">
        <ele>171.7998</ele>
        <time>2026-05-14T12:53:29+02:00</time>
      </trkpt>
      <trkpt lat="46.89146" lon="4.95314">
        <ele>171.7002</ele>
        <time>2026-05-14T12:53:30+02:00</time>
      </trkpt>
      <trkpt lat="46.89151" lon="4.95317">
        <ele>171.60059</ele>
        <time>2026-05-14T12:53:31+02:00</time>
      </trkpt>
      <trkpt lat="46.89156" lon="4.9532">
        <ele>171.7998</ele>
        <time>2026-05-14T12:53:32+02:00</time>
      </trkpt>
      <trkpt lat="46.89161" lon="4.95324">
        <ele>171.7998</ele>
        <time>2026-05-14T12:53:33+02:00</time>
      </trkpt>
      <trkpt lat="46.89167" lon="4.95327">
        <ele>172.5</ele>
        <time>2026-05-14T12:53:34+02:00</time>
      </trkpt>
      <trkpt lat="46.89172" lon="4.95331">
        <ele>172.2998</ele>
        <time>2026-05-14T12:53:35+02:00</time>
      </trkpt>
      <trkpt lat="46.89178" lon="4.95335">
        <ele>172.7998</ele>
        <time>2026-05-14T12:53:36+02:00</time>
      </trkpt>
      <trkpt lat="46.89183" lon="4.9534">
        <ele>172.60059</ele>
        <time>2026-05-14T12:53:37+02:00</time>
      </trkpt>
      <trkpt lat="46.89188" lon="4.95345">
        <ele>173.7998</ele>
        <time>2026-05-14T12:53:38+02:00</time>
      </trkpt>
      <trkpt lat="46.89192" lon="4.95353">
        <ele>172.7998</ele>
        <time>2026-05-14T12:53:39+02:00</time>
      </trkpt>
      <trkpt lat="46.89195" lon="4.95361">
        <ele>172.7002</ele>
        <time>2026-05-14T12:53:40+02:00</time>
      </trkpt>
      <trkpt lat="46.89198" lon="4.95369">
        <ele>171.90039</ele>
        <time>2026-05-14T12:53:41+02:00</time>
      </trkpt>
      <trkpt lat="46.89202" lon="4.95378">
        <ele>171.7998</ele>
        <time>2026-05-14T12:53:42+02:00</time>
      </trkpt>
      <trkpt lat="46.89206" lon="4.95387">
        <ele>171.7998</ele>
        <time>2026-05-14T12:53:43+02:00</time>
      </trkpt>
      <trkpt lat="46.89211" lon="4.95396">
        <ele>171.90039</ele>
        <time>2026-05-14T12:53:44+02:00</time>
      </trkpt>
      <trkpt lat="46.89216" lon="4.95404">
        <ele>171.7998</ele>
        <time>2026-05-14T12:53:45+02:00</time>
      </trkpt>
      <trkpt lat="46.89221" lon="4.95412">
        <ele>171.5</ele>
        <time>2026-05-14T12:53:46+02:00</time>
      </trkpt>
      <trkpt lat="46.89227" lon="4.95421">
        <ele>171.5</ele>
        <time>2026-05-14T12:53:47+02:00</time>
      </trkpt>
      <trkpt lat="46.89232" lon="4.9543">
        <ele>171.7998</ele>
        <time>2026-05-14T12:53:48+02:00</time>
      </trkpt>
      <trkpt lat="46.89237" lon="4.95438">
        <ele>171.7002</ele>
        <time>2026-05-14T12:53:49+02:00</time>
      </trkpt>
      <trkpt lat="46.89242" lon="4.95447">
        <ele>171.40039</ele>
        <time>2026-05-14T12:53:50+02:00</time>
      </trkpt>
      <trkpt lat="46.89247" lon="4.95455">
        <ele>171.40039</ele>
        <time>2026-05-14T12:53:51+02:00</time>
      </trkpt>
      <trkpt lat="46.89251" lon="4.95463">
        <ele>171.60059</ele>
        <time>2026-05-14T12:53:52+02:00</time>
      </trkpt>
      <trkpt lat="46.89255" lon="4.95471">
        <ele>172</ele>
        <time>2026-05-14T12:53:53+02:00</time>
      </trkpt>
      <trkpt lat="46.89258" lon="4.9548">
        <ele>172.2002</ele>
        <time>2026-05-14T12:53:54+02:00</time>
      </trkpt>
      <trkpt lat="46.89261" lon="4.95488">
        <ele>172</ele>
        <time>2026-05-14T12:53:55+02:00</time>
      </trkpt>
      <trkpt lat="46.89265" lon="4.95496">
        <ele>171.7002</ele>
        <time>2026-05-14T12:53:56+02:00</time>
      </trkpt>
      <trkpt lat="46.89269" lon="4.95503">
        <ele>171.60059</ele>
        <time>2026-05-14T12:53:57+02:00</time>
      </trkpt>
      <trkpt lat="46.89273" lon="4.9551">
        <ele>171.5</ele>
        <time>2026-05-14T12:53:58+02:00</time>
      </trkpt>
      <trkpt lat="46.89277" lon="4.95518">
        <ele>171.7998</ele>
        <time>2026-05-14T12:53:59+02:00</time>
      </trkpt>
      <trkpt lat="46.89281" lon="4.95525">
        <ele>171.7998</ele>
        <time>2026-05-14T12:54:00+02:00</time>
      </trkpt>
      <trkpt lat="46.89285" lon="4.95532">
        <ele>172.2002</ele>
        <time>2026-05-14T12:54:01+02:00</time>
      </trkpt>
      <trkpt lat="46.89288" lon="4.9554">
        <ele>172.40039</ele>
        <time>2026-05-14T12:54:02+02:00</time>
      </trkpt>
      <trkpt lat="46.89291" lon="4.95548">
        <ele>172.10059</ele>
        <time>2026-05-14T12:54:03+02:00</time>
      </trkpt>
      <trkpt lat="46.89293" lon="4.95556">
        <ele>171.7998</ele>
        <time>2026-05-14T12:54:04+02:00</time>
      </trkpt>
      <trkpt lat="46.89295" lon="4.95564">
        <ele>171.60059</ele>
        <time>2026-05-14T12:54:05+02:00</time>
      </trkpt>
      <trkpt lat="46.89297" lon="4.95573">
        <ele>171.60059</ele>
        <time>2026-05-14T12:54:06+02:00</time>
      </trkpt>
      <trkpt lat="46.89299" lon="4.95581">
        <ele>171.7002</ele>
        <time>2026-05-14T12:54:07+02:00</time>
      </trkpt>
      <trkpt lat="46.89301" lon="4.9559">
        <ele>171.7998</ele>
        <time>2026-05-14T12:54:08+02:00</time>
      </trkpt>
      <trkpt lat="46.89303" lon="4.95598">
        <ele>171.7998</ele>
        <time>2026-05-14T12:54:09+02:00</time>
      </trkpt>
      <trkpt lat="46.89305" lon="4.95606">
        <ele>172</ele>
        <time>2026-05-14T12:54:10+02:00</time>
      </trkpt>
      <trkpt lat="46.89306" lon="4.95615">
        <ele>172</ele>
        <time>2026-05-14T12:54:11+02:00</time>
      </trkpt>
      <trkpt lat="46.89308" lon="4.95623">
        <ele>172</ele>
        <time>2026-05-14T12:54:12+02:00</time>
      </trkpt>
      <trkpt lat="46.8931" lon="4.95631">
        <ele>172</ele>
        <time>2026-05-14T12:54:13+02:00</time>
      </trkpt>
      <trkpt lat="46.89312" lon="4.95639">
        <ele>172.2002</ele>
        <time>2026-05-14T12:54:14+02:00</time>
      </trkpt>
      <trkpt lat="46.89313" lon="4.95649">
        <ele>172.2002</ele>
        <time>2026-05-14T12:54:15+02:00</time>
      </trkpt>
      <trkpt lat="46.89314" lon="4.95658">
        <ele>172.2002</ele>
        <time>2026-05-14T12:54:16+02:00</time>
      </trkpt>
      <trkpt lat="46.89316" lon="4.95667">
        <ele>172.10059</ele>
        <time>2026-05-14T12:54:17+02:00</time>
      </trkpt>
      <trkpt lat="46.89317" lon="4.95677">
        <ele>172.5</ele>
        <time>2026-05-14T12:54:18+02:00</time>
      </trkpt>
      <trkpt lat="46.89319" lon="4.95686">
        <ele>172.40039</ele>
        <time>2026-05-14T12:54:19+02:00</time>
      </trkpt>
      <trkpt lat="46.89321" lon="4.95695">
        <ele>172.2998</ele>
        <time>2026-05-14T12:54:20+02:00</time>
      </trkpt>
      <trkpt lat="46.89323" lon="4.95705">
        <ele>172.40039</ele>
        <time>2026-05-14T12:54:21+02:00</time>
      </trkpt>
      <trkpt lat="46.89325" lon="4.95714">
        <ele>172.10059</ele>
        <time>2026-05-14T12:54:22+02:00</time>
      </trkpt>
      <trkpt lat="46.89326" lon="4.95724">
        <ele>171.7998</ele>
        <time>2026-05-14T12:54:23+02:00</time>
      </trkpt>
      <trkpt lat="46.89328" lon="4.95734">
        <ele>171.7998</ele>
        <time>2026-05-14T12:54:24+02:00</time>
      </trkpt>
      <trkpt lat="46.8933" lon="4.95743">
        <ele>171.90039</ele>
        <time>2026-05-14T12:54:25+02:00</time>
      </trkpt>
      <trkpt lat="46.89332" lon="4.95753">
        <ele>171.90039</ele>
        <time>2026-05-14T12:54:26+02:00</time>
      </trkpt>
      <trkpt lat="46.89334" lon="4.95762">
        <ele>172</ele>
        <time>2026-05-14T12:54:27+02:00</time>
      </trkpt>
      <trkpt lat="46.89335" lon="4.95771">
        <ele>172</ele>
        <time>2026-05-14T12:54:28+02:00</time>
      </trkpt>
      <trkpt lat="46.89337" lon="4.95781">
        <ele>172</ele>
        <time>2026-05-14T12:54:29+02:00</time>
      </trkpt>
      <trkpt lat="46.89338" lon="4.95791">
        <ele>172</ele>
        <time>2026-05-14T12:54:30+02:00</time>
      </trkpt>
      <trkpt lat="46.8934" lon="4.958">
        <ele>172</ele>
        <time>2026-05-14T12:54:31+02:00</time>
      </trkpt>
      <trkpt lat="46.89341" lon="4.9581">
        <ele>172</ele>
        <time>2026-05-14T12:54:32+02:00</time>
      </trkpt>
      <trkpt lat="46.89342" lon="4.95819">
        <ele>172</ele>
        <time>2026-05-14T12:54:33+02:00</time>
      </trkpt>
      <trkpt lat="46.89343" lon="4.95829">
        <ele>172</ele>
        <time>2026-05-14T12:54:34+02:00</time>
      </trkpt>
      <trkpt lat="46.89345" lon="4.95838">
        <ele>172</ele>
        <time>2026-05-14T12:54:35+02:00</time>
      </trkpt>
      <trkpt lat="46.89346" lon="4.95848">
        <ele>172.10059</ele>
        <time>2026-05-14T12:54:36+02:00</time>
      </trkpt>
      <trkpt lat="46.89346" lon="4.95857">
        <ele>172.10059</ele>
        <time>2026-05-14T12:54:37+02:00</time>
      </trkpt>
      <trkpt lat="46.89348" lon="4.95866">
        <ele>172.10059</ele>
        <time>2026-05-14T12:54:38+02:00</time>
      </trkpt>
      <trkpt lat="46.89348" lon="4.95875">
        <ele>172.10059</ele>
        <time>2026-05-14T12:54:39+02:00</time>
      </trkpt>
      <trkpt lat="46.89349" lon="4.95885">
        <ele>172.10059</ele>
        <time>2026-05-14T12:54:40+02:00</time>
      </trkpt>
      <trkpt lat="46.8935" lon="4.95894">
        <ele>172.10059</ele>
        <time>2026-05-14T12:54:41+02:00</time>
      </trkpt>
      <trkpt lat="46.89351" lon="4.95903">
        <ele>172.10059</ele>
        <time>2026-05-14T12:54:42+02:00</time>
      </trkpt>
      <trkpt lat="46.89353" lon="4.95912">
        <ele>172.2002</ele>
        <time>2026-05-14T12:54:43+02:00</time>
      </trkpt>
      <trkpt lat="46.89354" lon="4.95921">
        <ele>172.2002</ele>
        <time>2026-05-14T12:54:44+02:00</time>
      </trkpt>
      <trkpt lat="46.89354" lon="4.9593">
        <ele>172</ele>
        <time>2026-05-14T12:54:45+02:00</time>
      </trkpt>
      <trkpt lat="46.89356" lon="4.95939">
        <ele>171.90039</ele>
        <time>2026-05-14T12:54:46+02:00</time>
      </trkpt>
      <trkpt lat="46.89356" lon="4.95948">
        <ele>171.90039</ele>
        <time>2026-05-14T12:54:47+02:00</time>
      </trkpt>
      <trkpt lat="46.89357" lon="4.95958">
        <ele>171.90039</ele>
        <time>2026-05-14T12:54:48+02:00</time>
      </trkpt>
      <trkpt lat="46.89358" lon="4.95968">
        <ele>171.7998</ele>
        <time>2026-05-14T12:54:49+02:00</time>
      </trkpt>
      <trkpt lat="46.89359" lon="4.95977">
        <ele>171.90039</ele>
        <time>2026-05-14T12:54:50+02:00</time>
      </trkpt>
      <trkpt lat="46.8936" lon="4.95986">
        <ele>171.90039</ele>
        <time>2026-05-14T12:54:51+02:00</time>
      </trkpt>
      <trkpt lat="46.89361" lon="4.95996">
        <ele>171.90039</ele>
        <time>2026-05-14T12:54:52+02:00</time>
      </trkpt>
      <trkpt lat="46.89361" lon="4.96005">
        <ele>171.90039</ele>
        <time>2026-05-14T12:54:53+02:00</time>
      </trkpt>
      <trkpt lat="46.89362" lon="4.96014">
        <ele>171.90039</ele>
        <time>2026-05-14T12:54:54+02:00</time>
      </trkpt>
      <trkpt lat="46.89362" lon="4.96023">
        <ele>171.90039</ele>
        <time>2026-05-14T12:54:55+02:00</time>
      </trkpt>
      <trkpt lat="46.89363" lon="4.96033">
        <ele>171.90039</ele>
        <time>2026-05-14T12:54:56+02:00</time>
      </trkpt>
      <trkpt lat="46.89363" lon="4.96042">
        <ele>171.90039</ele>
        <time>2026-05-14T12:54:57+02:00</time>
      </trkpt>
      <trkpt lat="46.89363" lon="4.96051">
        <ele>171.90039</ele>
        <time>2026-05-14T12:54:58+02:00</time>
      </trkpt>
      <trkpt lat="46.89364" lon="4.96061">
        <ele>171.90039</ele>
        <time>2026-05-14T12:54:59+02:00</time>
      </trkpt>
      <trkpt lat="46.89364" lon="4.9607">
        <ele>171.90039</ele>
        <time>2026-05-14T12:55:00+02:00</time>
      </trkpt>
      <trkpt lat="46.89365" lon="4.9608">
        <ele>171.90039</ele>
        <time>2026-05-14T12:55:01+02:00</time>
      </trkpt>
      <trkpt lat="46.89365" lon="4.96089">
        <ele>171.90039</ele>
        <time>2026-05-14T12:55:02+02:00</time>
      </trkpt>
      <trkpt lat="46.89366" lon="4.96098">
        <ele>171.90039</ele>
        <time>2026-05-14T12:55:03+02:00</time>
      </trkpt>
      <trkpt lat="46.89366" lon="4.96107">
        <ele>171.90039</ele>
        <time>2026-05-14T12:55:04+02:00</time>
      </trkpt>
      <trkpt lat="46.89366" lon="4.96117">
        <ele>171.90039</ele>
        <time>2026-05-14T12:55:05+02:00</time>
      </trkpt>
      <trkpt lat="46.89367" lon="4.96126">
        <ele>171.90039</ele>
        <time>2026-05-14T12:55:06+02:00</time>
      </trkpt>
      <trkpt lat="46.89367" lon="4.96135">
        <ele>171.90039</ele>
        <time>2026-05-14T12:55:07+02:00</time>
      </trkpt>
      <trkpt lat="46.89367" lon="4.96145">
        <ele>171.90039</ele>
        <time>2026-05-14T12:55:08+02:00</time>
      </trkpt>
      <trkpt lat="46.89368" lon="4.96154">
        <ele>171.90039</ele>
        <time>2026-05-14T12:55:09+02:00</time>
      </trkpt>
      <trkpt lat="46.89368" lon="4.96163">
        <ele>171.90039</ele>
        <time>2026-05-14T12:55:10+02:00</time>
      </trkpt>
      <trkpt lat="46.89369" lon="4.96172">
        <ele>171.90039</ele>
        <time>2026-05-14T12:55:11+02:00</time>
      </trkpt>
      <trkpt lat="46.89369" lon="4.96181">
        <ele>171.90039</ele>
        <time>2026-05-14T12:55:12+02:00</time>
      </trkpt>
      <trkpt lat="46.8937" lon="4.9619">
        <ele>171.90039</ele>
        <time>2026-05-14T12:55:13+02:00</time>
      </trkpt>
      <trkpt lat="46.8937" lon="4.96199">
        <ele>171.90039</ele>
        <time>2026-05-14T12:55:14+02:00</time>
      </trkpt>
      <trkpt lat="46.89371" lon="4.96209">
        <ele>171.90039</ele>
        <time>2026-05-14T12:55:15+02:00</time>
      </trkpt>
      <trkpt lat="46.89372" lon="4.96218">
        <ele>171.90039</ele>
        <time>2026-05-14T12:55:16+02:00</time>
      </trkpt>
      <trkpt lat="46.89373" lon="4.96227">
        <ele>171.90039</ele>
        <time>2026-05-14T12:55:17+02:00</time>
      </trkpt>
      <trkpt lat="46.89374" lon="4.96236">
        <ele>171.90039</ele>
        <time>2026-05-14T12:55:18+02:00</time>
      </trkpt>
      <trkpt lat="46.89374" lon="4.96245">
        <ele>171.90039</ele>
        <time>2026-05-14T12:55:19+02:00</time>
      </trkpt>
      <trkpt lat="46.89375" lon="4.96255">
        <ele>171.90039</ele>
        <time>2026-05-14T12:55:20+02:00</time>
      </trkpt>
      <trkpt lat="46.89376" lon="4.96264">
        <ele>171.90039</ele>
        <time>2026-05-14T12:55:21+02:00</time>
      </trkpt>
      <trkpt lat="46.89377" lon="4.96273">
        <ele>171.90039</ele>
        <time>2026-05-14T12:55:22+02:00</time>
      </trkpt>
      <trkpt lat="46.89378" lon="4.96283">
        <ele>171.90039</ele>
        <time>2026-05-14T12:55:23+02:00</time>
      </trkpt>
      <trkpt lat="46.89378" lon="4.96292">
        <ele>171.90039</ele>
        <time>2026-05-14T12:55:24+02:00</time>
      </trkpt>
      <trkpt lat="46.89379" lon="4.96301">
        <ele>171.7998</ele>
        <time>2026-05-14T12:55:25+02:00</time>
      </trkpt>
      <trkpt lat="46.8938" lon="4.96311">
        <ele>171.7998</ele>
        <time>2026-05-14T12:55:26+02:00</time>
      </trkpt>
      <trkpt lat="46.89381" lon="4.9632">
        <ele>172</ele>
        <time>2026-05-14T12:55:27+02:00</time>
      </trkpt>
      <trkpt lat="46.89382" lon="4.9633">
        <ele>172</ele>
        <time>2026-05-14T12:55:28+02:00</time>
      </trkpt>
      <trkpt lat="46.89383" lon="4.96339">
        <ele>171.90039</ele>
        <time>2026-05-14T12:55:29+02:00</time>
      </trkpt>
      <trkpt lat="46.89383" lon="4.96348">
        <ele>171.90039</ele>
        <time>2026-05-14T12:55:30+02:00</time>
      </trkpt>
      <trkpt lat="46.89385" lon="4.96357">
        <ele>171.90039</ele>
        <time>2026-05-14T12:55:31+02:00</time>
      </trkpt>
      <trkpt lat="46.89385" lon="4.96366">
        <ele>171.90039</ele>
        <time>2026-05-14T12:55:32+02:00</time>
      </trkpt>
      <trkpt lat="46.89386" lon="4.96375">
        <ele>171.90039</ele>
        <time>2026-05-14T12:55:33+02:00</time>
      </trkpt>
      <trkpt lat="46.89388" lon="4.96383">
        <ele>172</ele>
        <time>2026-05-14T12:55:34+02:00</time>
      </trkpt>
      <trkpt lat="46.89389" lon="4.96392">
        <ele>172</ele>
        <time>2026-05-14T12:55:35+02:00</time>
      </trkpt>
      <trkpt lat="46.89391" lon="4.964">
        <ele>172</ele>
        <time>2026-05-14T12:55:36+02:00</time>
      </trkpt>
      <trkpt lat="46.89393" lon="4.96408">
        <ele>171.90039</ele>
        <time>2026-05-14T12:55:37+02:00</time>
      </trkpt>
      <trkpt lat="46.89395" lon="4.96416">
        <ele>171.90039</ele>
        <time>2026-05-14T12:55:38+02:00</time>
      </trkpt>
      <trkpt lat="46.89396" lon="4.96424">
        <ele>171.90039</ele>
        <time>2026-05-14T12:55:39+02:00</time>
      </trkpt>
      <trkpt lat="46.89399" lon="4.96431">
        <ele>171.90039</ele>
        <time>2026-05-14T12:55:40+02:00</time>
      </trkpt>
      <trkpt lat="46.89401" lon="4.96438">
        <ele>171.90039</ele>
        <time>2026-05-14T12:55:41+02:00</time>
      </trkpt>
      <trkpt lat="46.89404" lon="4.96444">
        <ele>171.90039</ele>
        <time>2026-05-14T12:55:42+02:00</time>
      </trkpt>
      <trkpt lat="46.89406" lon="4.96451">
        <ele>171.90039</ele>
        <time>2026-05-14T12:55:43+02:00</time>
      </trkpt>
      <trkpt lat="46.89407" lon="4.96457">
        <ele>172</ele>
        <time>2026-05-14T12:55:44+02:00</time>
      </trkpt>
      <trkpt lat="46.89408" lon="4.96464">
        <ele>172</ele>
        <time>2026-05-14T12:55:45+02:00</time>
      </trkpt>
      <trkpt lat="46.89407" lon="4.96471">
        <ele>172</ele>
        <time>2026-05-14T12:55:46+02:00</time>
      </trkpt>
      <trkpt lat="46.89407" lon="4.96478">
        <ele>172</ele>
        <time>2026-05-14T12:55:47+02:00</time>
      </trkpt>
      <trkpt lat="46.89408" lon="4.96486">
        <ele>172</ele>
        <time>2026-05-14T12:55:48+02:00</time>
      </trkpt>
      <trkpt lat="46.89409" lon="4.96493">
        <ele>172</ele>
        <time>2026-05-14T12:55:49+02:00</time>
      </trkpt>
      <trkpt lat="46.89411" lon="4.965">
        <ele>172</ele>
        <time>2026-05-14T12:55:50+02:00</time>
      </trkpt>
      <trkpt lat="46.89414" lon="4.96507">
        <ele>172</ele>
        <time>2026-05-14T12:55:51+02:00</time>
      </trkpt>
      <trkpt lat="46.89417" lon="4.96514">
        <ele>172</ele>
        <time>2026-05-14T12:55:52+02:00</time>
      </trkpt>
      <trkpt lat="46.89421" lon="4.96521">
        <ele>172</ele>
        <time>2026-05-14T12:55:53+02:00</time>
      </trkpt>
      <trkpt lat="46.89424" lon="4.96528">
        <ele>171.90039</ele>
        <time>2026-05-14T12:55:54+02:00</time>
      </trkpt>
      <trkpt lat="46.89427" lon="4.96536">
        <ele>171.90039</ele>
        <time>2026-05-14T12:55:55+02:00</time>
      </trkpt>
      <trkpt lat="46.8943" lon="4.96543">
        <ele>171.90039</ele>
        <time>2026-05-14T12:55:56+02:00</time>
      </trkpt>
      <trkpt lat="46.89433" lon="4.96551">
        <ele>171.90039</ele>
        <time>2026-05-14T12:55:57+02:00</time>
      </trkpt>
      <trkpt lat="46.89436" lon="4.96558">
        <ele>172</ele>
        <time>2026-05-14T12:55:58+02:00</time>
      </trkpt>
      <trkpt lat="46.8944" lon="4.96566">
        <ele>172</ele>
        <time>2026-05-14T12:55:59+02:00</time>
      </trkpt>
      <trkpt lat="46.89443" lon="4.96574">
        <ele>172</ele>
        <time>2026-05-14T12:56:00+02:00</time>
      </trkpt>
      <trkpt lat="46.89446" lon="4.96583">
        <ele>171.90039</ele>
        <time>2026-05-14T12:56:01+02:00</time>
      </trkpt>
      <trkpt lat="46.89449" lon="4.96591">
        <ele>171.90039</ele>
        <time>2026-05-14T12:56:02+02:00</time>
      </trkpt>
      <trkpt lat="46.89453" lon="4.96599">
        <ele>171.90039</ele>
        <time>2026-05-14T12:56:03+02:00</time>
      </trkpt>
      <trkpt lat="46.89456" lon="4.96608">
        <ele>171.90039</ele>
        <time>2026-05-14T12:56:04+02:00</time>
      </trkpt>
      <trkpt lat="46.89459" lon="4.96616">
        <ele>171.90039</ele>
        <time>2026-05-14T12:56:05+02:00</time>
      </trkpt>
      <trkpt lat="46.89463" lon="4.96624">
        <ele>172</ele>
        <time>2026-05-14T12:56:06+02:00</time>
      </trkpt>
      <trkpt lat="46.89466" lon="4.96633">
        <ele>172</ele>
        <time>2026-05-14T12:56:07+02:00</time>
      </trkpt>
      <trkpt lat="46.8947" lon="4.96641">
        <ele>171.90039</ele>
        <time>2026-05-14T12:56:08+02:00</time>
      </trkpt>
      <trkpt lat="46.89473" lon="4.96649">
        <ele>172</ele>
        <time>2026-05-14T12:56:09+02:00</time>
      </trkpt>
      <trkpt lat="46.89476" lon="4.96657">
        <ele>171.90039</ele>
        <time>2026-05-14T12:56:10+02:00</time>
      </trkpt>
      <trkpt lat="46.8948" lon="4.96665">
        <ele>172</ele>
        <time>2026-05-14T12:56:11+02:00</time>
      </trkpt>
      <trkpt lat="46.89483" lon="4.96673">
        <ele>172</ele>
        <time>2026-05-14T12:56:12+02:00</time>
      </trkpt>
      <trkpt lat="46.89487" lon="4.9668">
        <ele>172</ele>
        <time>2026-05-14T12:56:13+02:00</time>
      </trkpt>
      <trkpt lat="46.89491" lon="4.96688">
        <ele>172</ele>
        <time>2026-05-14T12:56:14+02:00</time>
      </trkpt>
      <trkpt lat="46.89494" lon="4.96695">
        <ele>172</ele>
        <time>2026-05-14T12:56:15+02:00</time>
      </trkpt>
      <trkpt lat="46.89498" lon="4.96703">
        <ele>172</ele>
        <time>2026-05-14T12:56:16+02:00</time>
      </trkpt>
      <trkpt lat="46.89502" lon="4.9671">
        <ele>171.90039</ele>
        <time>2026-05-14T12:56:17+02:00</time>
      </trkpt>
      <trkpt lat="46.89506" lon="4.96717">
        <ele>172</ele>
        <time>2026-05-14T12:56:18+02:00</time>
      </trkpt>
      <trkpt lat="46.8951" lon="4.96725">
        <ele>172</ele>
        <time>2026-05-14T12:56:19+02:00</time>
      </trkpt>
      <trkpt lat="46.89514" lon="4.96732">
        <ele>172</ele>
        <time>2026-05-14T12:56:20+02:00</time>
      </trkpt>
      <trkpt lat="46.89518" lon="4.96739">
        <ele>172</ele>
        <time>2026-05-14T12:56:21+02:00</time>
      </trkpt>
      <trkpt lat="46.89522" lon="4.96746">
        <ele>171.90039</ele>
        <time>2026-05-14T12:56:22+02:00</time>
      </trkpt>
      <trkpt lat="46.89526" lon="4.96754">
        <ele>171.90039</ele>
        <time>2026-05-14T12:56:23+02:00</time>
      </trkpt>
      <trkpt lat="46.8953" lon="4.96761">
        <ele>171.90039</ele>
        <time>2026-05-14T12:56:24+02:00</time>
      </trkpt>
      <trkpt lat="46.89533" lon="4.96769">
        <ele>171.90039</ele>
        <time>2026-05-14T12:56:25+02:00</time>
      </trkpt>
      <trkpt lat="46.89536" lon="4.96776">
        <ele>172</ele>
        <time>2026-05-14T12:56:26+02:00</time>
      </trkpt>
      <trkpt lat="46.89539" lon="4.96783">
        <ele>172</ele>
        <time>2026-05-14T12:56:27+02:00</time>
      </trkpt>
      <trkpt lat="46.89543" lon="4.9679">
        <ele>172</ele>
        <time>2026-05-14T12:56:28+02:00</time>
      </trkpt>
      <trkpt lat="46.89546" lon="4.96798">
        <ele>171.90039</ele>
        <time>2026-05-14T12:56:29+02:00</time>
      </trkpt>
      <trkpt lat="46.89549" lon="4.96806">
        <ele>171.90039</ele>
        <time>2026-05-14T12:56:30+02:00</time>
      </trkpt>
      <trkpt lat="46.89552" lon="4.96814">
        <ele>171.90039</ele>
        <time>2026-05-14T12:56:31+02:00</time>
      </trkpt>
      <trkpt lat="46.89555" lon="4.96821">
        <ele>171.90039</ele>
        <time>2026-05-14T12:56:32+02:00</time>
      </trkpt>
      <trkpt lat="46.89558" lon="4.96829">
        <ele>171.90039</ele>
        <time>2026-05-14T12:56:33+02:00</time>
      </trkpt>
      <trkpt lat="46.89562" lon="4.96837">
        <ele>171.90039</ele>
        <time>2026-05-14T12:56:34+02:00</time>
      </trkpt>
      <trkpt lat="46.89565" lon="4.96845">
        <ele>172</ele>
        <time>2026-05-14T12:56:35+02:00</time>
      </trkpt>
      <trkpt lat="46.8957" lon="4.96852">
        <ele>171.90039</ele>
        <time>2026-05-14T12:56:36+02:00</time>
      </trkpt>
      <trkpt lat="46.89574" lon="4.96859">
        <ele>171.90039</ele>
        <time>2026-05-14T12:56:37+02:00</time>
      </trkpt>
      <trkpt lat="46.89578" lon="4.96866">
        <ele>171.90039</ele>
        <time>2026-05-14T12:56:38+02:00</time>
      </trkpt>
      <trkpt lat="46.89583" lon="4.96873">
        <ele>171.90039</ele>
        <time>2026-05-14T12:56:39+02:00</time>
      </trkpt>
      <trkpt lat="46.89587" lon="4.96879">
        <ele>172</ele>
        <time>2026-05-14T12:56:40+02:00</time>
      </trkpt>
      <trkpt lat="46.89591" lon="4.96885">
        <ele>172</ele>
        <time>2026-05-14T12:56:41+02:00</time>
      </trkpt>
      <trkpt lat="46.89594" lon="4.96891">
        <ele>171.90039</ele>
        <time>2026-05-14T12:56:42+02:00</time>
      </trkpt>
      <trkpt lat="46.89597" lon="4.96897">
        <ele>171.90039</ele>
        <time>2026-05-14T12:56:43+02:00</time>
      </trkpt>
      <trkpt lat="46.89601" lon="4.96904">
        <ele>171.90039</ele>
        <time>2026-05-14T12:56:44+02:00</time>
      </trkpt>
      <trkpt lat="46.89604" lon="4.96911">
        <ele>171.90039</ele>
        <time>2026-05-14T12:56:45+02:00</time>
      </trkpt>
      <trkpt lat="46.89608" lon="4.96919">
        <ele>171.90039</ele>
        <time>2026-05-14T12:56:46+02:00</time>
      </trkpt>
      <trkpt lat="46.89612" lon="4.96926">
        <ele>171.90039</ele>
        <time>2026-05-14T12:56:47+02:00</time>
      </trkpt>
      <trkpt lat="46.89616" lon="4.96933">
        <ele>172</ele>
        <time>2026-05-14T12:56:48+02:00</time>
      </trkpt>
      <trkpt lat="46.8962" lon="4.9694">
        <ele>172</ele>
        <time>2026-05-14T12:56:49+02:00</time>
      </trkpt>
      <trkpt lat="46.89625" lon="4.96946">
        <ele>171.90039</ele>
        <time>2026-05-14T12:56:50+02:00</time>
      </trkpt>
      <trkpt lat="46.89629" lon="4.96953">
        <ele>171.7998</ele>
        <time>2026-05-14T12:56:51+02:00</time>
      </trkpt>
      <trkpt lat="46.89634" lon="4.9696">
        <ele>171.90039</ele>
        <time>2026-05-14T12:56:52+02:00</time>
      </trkpt>
      <trkpt lat="46.89638" lon="4.96966">
        <ele>171.90039</ele>
        <time>2026-05-14T12:56:53+02:00</time>
      </trkpt>
      <trkpt lat="46.89643" lon="4.96973">
        <ele>172</ele>
        <time>2026-05-14T12:56:54+02:00</time>
      </trkpt>
      <trkpt lat="46.89648" lon="4.9698">
        <ele>171.90039</ele>
        <time>2026-05-14T12:56:55+02:00</time>
      </trkpt>
      <trkpt lat="46.89653" lon="4.96987">
        <ele>171.90039</ele>
        <time>2026-05-14T12:56:56+02:00</time>
      </trkpt>
      <trkpt lat="46.89658" lon="4.96994">
        <ele>171.90039</ele>
        <time>2026-05-14T12:56:57+02:00</time>
      </trkpt>
      <trkpt lat="46.89663" lon="4.97">
        <ele>171.90039</ele>
        <time>2026-05-14T12:56:58+02:00</time>
      </trkpt>
      <trkpt lat="46.89668" lon="4.97007">
        <ele>172</ele>
        <time>2026-05-14T12:56:59+02:00</time>
      </trkpt>
      <trkpt lat="46.89673" lon="4.97014">
        <ele>171.90039</ele>
        <time>2026-05-14T12:57:00+02:00</time>
      </trkpt>
      <trkpt lat="46.89678" lon="4.97021">
        <ele>171.90039</ele>
        <time>2026-05-14T12:57:01+02:00</time>
      </trkpt>
      <trkpt lat="46.89683" lon="4.97027">
        <ele>171.90039</ele>
        <time>2026-05-14T12:57:02+02:00</time>
      </trkpt>
      <trkpt lat="46.89687" lon="4.97034">
        <ele>172</ele>
        <time>2026-05-14T12:57:03+02:00</time>
      </trkpt>
      <trkpt lat="46.89692" lon="4.97041">
        <ele>171.90039</ele>
        <time>2026-05-14T12:57:04+02:00</time>
      </trkpt>
      <trkpt lat="46.89697" lon="4.97047">
        <ele>171.90039</ele>
        <time>2026-05-14T12:57:05+02:00</time>
      </trkpt>
      <trkpt lat="46.89702" lon="4.97054">
        <ele>171.90039</ele>
        <time>2026-05-14T12:57:06+02:00</time>
      </trkpt>
      <trkpt lat="46.89706" lon="4.9706">
        <ele>171.90039</ele>
        <time>2026-05-14T12:57:07+02:00</time>
      </trkpt>
      <trkpt lat="46.89711" lon="4.97066">
        <ele>172</ele>
        <time>2026-05-14T12:57:08+02:00</time>
      </trkpt>
      <trkpt lat="46.89715" lon="4.97073">
        <ele>172</ele>
        <time>2026-05-14T12:57:09+02:00</time>
      </trkpt>
      <trkpt lat="46.8972" lon="4.97079">
        <ele>171.90039</ele>
        <time>2026-05-14T12:57:10+02:00</time>
      </trkpt>
      <trkpt lat="46.89724" lon="4.97085">
        <ele>171.7998</ele>
        <time>2026-05-14T12:57:11+02:00</time>
      </trkpt>
      <trkpt lat="46.89728" lon="4.97091">
        <ele>171.90039</ele>
        <time>2026-05-14T12:57:12+02:00</time>
      </trkpt>
      <trkpt lat="46.89732" lon="4.97097">
        <ele>171.90039</ele>
        <time>2026-05-14T12:57:13+02:00</time>
      </trkpt>
      <trkpt lat="46.89736" lon="4.97103">
        <ele>172</ele>
        <time>2026-05-14T12:57:14+02:00</time>
      </trkpt>
      <trkpt lat="46.8974" lon="4.97109">
        <ele>172</ele>
        <time>2026-05-14T12:57:15+02:00</time>
      </trkpt>
      <trkpt lat="46.89744" lon="4.97116">
        <ele>172</ele>
        <time>2026-05-14T12:57:16+02:00</time>
      </trkpt>
      <trkpt lat="46.89747" lon="4.97122">
        <ele>172</ele>
        <time>2026-05-14T12:57:17+02:00</time>
      </trkpt>
      <trkpt lat="46.89751" lon="4.97128">
        <ele>171.90039</ele>
        <time>2026-05-14T12:57:18+02:00</time>
      </trkpt>
      <trkpt lat="46.89755" lon="4.97135">
        <ele>171.7998</ele>
        <time>2026-05-14T12:57:19+02:00</time>
      </trkpt>
      <trkpt lat="46.89758" lon="4.9714">
        <ele>171.90039</ele>
        <time>2026-05-14T12:57:20+02:00</time>
      </trkpt>
      <trkpt lat="46.89763" lon="4.97145">
        <ele>171.90039</ele>
        <time>2026-05-14T12:57:21+02:00</time>
      </trkpt>
      <trkpt lat="46.89769" lon="4.97148">
        <ele>172.10059</ele>
        <time>2026-05-14T12:57:22+02:00</time>
      </trkpt>
      <trkpt lat="46.89774" lon="4.97149">
        <ele>172</ele>
        <time>2026-05-14T12:57:23+02:00</time>
      </trkpt>
      <trkpt lat="46.8978" lon="4.97147">
        <ele>172.60059</ele>
        <time>2026-05-14T12:57:24+02:00</time>
      </trkpt>
      <trkpt lat="46.89786" lon="4.97146">
        <ele>172.90039</ele>
        <time>2026-05-14T12:57:25+02:00</time>
      </trkpt>
      <trkpt lat="46.89792" lon="4.97145">
        <ele>173.2998</ele>
        <time>2026-05-14T12:57:26+02:00</time>
      </trkpt>
      <trkpt lat="46.89797" lon="4.97144">
        <ele>173.2998</ele>
        <time>2026-05-14T12:57:27+02:00</time>
      </trkpt>
      <trkpt lat="46.89803" lon="4.97144">
        <ele>173.7002</ele>
        <time>2026-05-14T12:57:28+02:00</time>
      </trkpt>
      <trkpt lat="46.89808" lon="4.97143">
        <ele>174</ele>
        <time>2026-05-14T12:57:29+02:00</time>
      </trkpt>
      <trkpt lat="46.89814" lon="4.97141">
        <ele>174.40039</ele>
        <time>2026-05-14T12:57:30+02:00</time>
      </trkpt>
      <trkpt lat="46.89819" lon="4.9714">
        <ele>174.7002</ele>
        <time>2026-05-14T12:57:31+02:00</time>
      </trkpt>
      <trkpt lat="46.89825" lon="4.97138">
        <ele>175.40039</ele>
        <time>2026-05-14T12:57:32+02:00</time>
      </trkpt>
      <trkpt lat="46.89831" lon="4.97137">
        <ele>175.60059</ele>
        <time>2026-05-14T12:57:33+02:00</time>
      </trkpt>
      <trkpt lat="46.89837" lon="4.97136">
        <ele>175.7002</ele>
        <time>2026-05-14T12:57:34+02:00</time>
      </trkpt>
      <trkpt lat="46.89843" lon="4.97135">
        <ele>175.60059</ele>
        <time>2026-05-14T12:57:35+02:00</time>
      </trkpt>
      <trkpt lat="46.89849" lon="4.97134">
        <ele>175.60059</ele>
        <time>2026-05-14T12:57:36+02:00</time>
      </trkpt>
      <trkpt lat="46.89855" lon="4.97133">
        <ele>175.5</ele>
        <time>2026-05-14T12:57:37+02:00</time>
      </trkpt>
      <trkpt lat="46.89861" lon="4.97132">
        <ele>175.40039</ele>
        <time>2026-05-14T12:57:38+02:00</time>
      </trkpt>
      <trkpt lat="46.89867" lon="4.97131">
        <ele>175.40039</ele>
        <time>2026-05-14T12:57:39+02:00</time>
      </trkpt>
      <trkpt lat="46.89873" lon="4.97129">
        <ele>175.2998</ele>
        <time>2026-05-14T12:57:40+02:00</time>
      </trkpt>
      <trkpt lat="46.89879" lon="4.97128">
        <ele>175.2002</ele>
        <time>2026-05-14T12:57:41+02:00</time>
      </trkpt>
      <trkpt lat="46.89885" lon="4.97127">
        <ele>175.10059</ele>
        <time>2026-05-14T12:57:42+02:00</time>
      </trkpt>
      <trkpt lat="46.8989" lon="4.97126">
        <ele>175</ele>
        <time>2026-05-14T12:57:43+02:00</time>
      </trkpt>
      <trkpt lat="46.89897" lon="4.97124">
        <ele>174.90039</ele>
        <time>2026-05-14T12:57:44+02:00</time>
      </trkpt>
      <trkpt lat="46.89902" lon="4.97123">
        <ele>174.90039</ele>
        <time>2026-05-14T12:57:45+02:00</time>
      </trkpt>
      <trkpt lat="46.89908" lon="4.97122">
        <ele>175</ele>
        <time>2026-05-14T12:57:46+02:00</time>
      </trkpt>
      <trkpt lat="46.89914" lon="4.97121">
        <ele>175</ele>
        <time>2026-05-14T12:57:47+02:00</time>
      </trkpt>
      <trkpt lat="46.8992" lon="4.97119">
        <ele>175.10059</ele>
        <time>2026-05-14T12:57:48+02:00</time>
      </trkpt>
      <trkpt lat="46.89926" lon="4.97118">
        <ele>175.2002</ele>
        <time>2026-05-14T12:57:49+02:00</time>
      </trkpt>
      <trkpt lat="46.89932" lon="4.97117">
        <ele>175.40039</ele>
        <time>2026-05-14T12:57:50+02:00</time>
      </trkpt>
      <trkpt lat="46.89937" lon="4.97116">
        <ele>175.60059</ele>
        <time>2026-05-14T12:57:51+02:00</time>
      </trkpt>
      <trkpt lat="46.89943" lon="4.97114">
        <ele>175.90039</ele>
        <time>2026-05-14T12:57:52+02:00</time>
      </trkpt>
      <trkpt lat="46.89949" lon="4.97113">
        <ele>176.10059</ele>
        <time>2026-05-14T12:57:53+02:00</time>
      </trkpt>
      <trkpt lat="46.89955" lon="4.97112">
        <ele>176.40039</ele>
        <time>2026-05-14T12:57:54+02:00</time>
      </trkpt>
      <trkpt lat="46.8996" lon="4.9711">
        <ele>176.60059</ele>
        <time>2026-05-14T12:57:55+02:00</time>
      </trkpt>
      <trkpt lat="46.89966" lon="4.97109">
        <ele>176.7998</ele>
        <time>2026-05-14T12:57:56+02:00</time>
      </trkpt>
      <trkpt lat="46.89971" lon="4.97108">
        <ele>177</ele>
        <time>2026-05-14T12:57:57+02:00</time>
      </trkpt>
      <trkpt lat="46.89977" lon="4.97107">
        <ele>177.2002</ele>
        <time>2026-05-14T12:57:58+02:00</time>
      </trkpt>
      <trkpt lat="46.89982" lon="4.97105">
        <ele>177.40039</ele>
        <time>2026-05-14T12:57:59+02:00</time>
      </trkpt>
      <trkpt lat="46.89988" lon="4.97105">
        <ele>177.60059</ele>
        <time>2026-05-14T12:58:00+02:00</time>
      </trkpt>
      <trkpt lat="46.89993" lon="4.97103">
        <ele>177.7002</ele>
        <time>2026-05-14T12:58:01+02:00</time>
      </trkpt>
      <trkpt lat="46.89999" lon="4.97102">
        <ele>177.7998</ele>
        <time>2026-05-14T12:58:02+02:00</time>
      </trkpt>
      <trkpt lat="46.90004" lon="4.97101">
        <ele>177.90039</ele>
        <time>2026-05-14T12:58:03+02:00</time>
      </trkpt>
      <trkpt lat="46.90009" lon="4.97099">
        <ele>178</ele>
        <time>2026-05-14T12:58:04+02:00</time>
      </trkpt>
      <trkpt lat="46.90014" lon="4.97098">
        <ele>178</ele>
        <time>2026-05-14T12:58:05+02:00</time>
      </trkpt>
      <trkpt lat="46.9002" lon="4.97097">
        <ele>178</ele>
        <time>2026-05-14T12:58:06+02:00</time>
      </trkpt>
      <trkpt lat="46.90025" lon="4.97095">
        <ele>178.2002</ele>
        <time>2026-05-14T12:58:07+02:00</time>
      </trkpt>
      <trkpt lat="46.90031" lon="4.97094">
        <ele>178.2998</ele>
        <time>2026-05-14T12:58:08+02:00</time>
      </trkpt>
      <trkpt lat="46.90036" lon="4.97093">
        <ele>178.40039</ele>
        <time>2026-05-14T12:58:09+02:00</time>
      </trkpt>
      <trkpt lat="46.90041" lon="4.97092">
        <ele>178.5</ele>
        <time>2026-05-14T12:58:10+02:00</time>
      </trkpt>
      <trkpt lat="46.90047" lon="4.9709">
        <ele>178.60059</ele>
        <time>2026-05-14T12:58:11+02:00</time>
      </trkpt>
      <trkpt lat="46.90052" lon="4.97089">
        <ele>178.7002</ele>
        <time>2026-05-14T12:58:12+02:00</time>
      </trkpt>
      <trkpt lat="46.90058" lon="4.97088">
        <ele>178.7998</ele>
        <time>2026-05-14T12:58:13+02:00</time>
      </trkpt>
      <trkpt lat="46.90062" lon="4.97087">
        <ele>178.90039</ele>
        <time>2026-05-14T12:58:14+02:00</time>
      </trkpt>
      <trkpt lat="46.90067" lon="4.97086">
        <ele>178.90039</ele>
        <time>2026-05-14T12:58:15+02:00</time>
      </trkpt>
      <trkpt lat="46.90071" lon="4.97086">
        <ele>179.10059</ele>
        <time>2026-05-14T12:58:16+02:00</time>
      </trkpt>
      <trkpt lat="46.90075" lon="4.97084">
        <ele>179.2002</ele>
        <time>2026-05-14T12:58:17+02:00</time>
      </trkpt>
      <trkpt lat="46.90079" lon="4.97083">
        <ele>179.40039</ele>
        <time>2026-05-14T12:58:18+02:00</time>
      </trkpt>
      <trkpt lat="46.90082" lon="4.97083">
        <ele>179.40039</ele>
        <time>2026-05-14T12:58:19+02:00</time>
      </trkpt>
      <trkpt lat="46.90085" lon="4.97086">
        <ele>179.60059</ele>
        <time>2026-05-14T12:58:20+02:00</time>
      </trkpt>
      <trkpt lat="46.90087" lon="4.97091">
        <ele>179.5</ele>
        <time>2026-05-14T12:58:21+02:00</time>
      </trkpt>
      <trkpt lat="46.90088" lon="4.97096">
        <ele>179.5</ele>
        <time>2026-05-14T12:58:22+02:00</time>
      </trkpt>
      <trkpt lat="46.9009" lon="4.97102">
        <ele>179.5</ele>
        <time>2026-05-14T12:58:23+02:00</time>
      </trkpt>
      <trkpt lat="46.90091" lon="4.97108">
        <ele>179.60059</ele>
        <time>2026-05-14T12:58:24+02:00</time>
      </trkpt>
      <trkpt lat="46.90093" lon="4.97115">
        <ele>179.5</ele>
        <time>2026-05-14T12:58:25+02:00</time>
      </trkpt>
      <trkpt lat="46.90096" lon="4.97121">
        <ele>179.5</ele>
        <time>2026-05-14T12:58:26+02:00</time>
      </trkpt>
      <trkpt lat="46.90098" lon="4.97128">
        <ele>179.60059</ele>
        <time>2026-05-14T12:58:27+02:00</time>
      </trkpt>
      <trkpt lat="46.90101" lon="4.97134">
        <ele>179.5</ele>
        <time>2026-05-14T12:58:28+02:00</time>
      </trkpt>
      <trkpt lat="46.90103" lon="4.97141">
        <ele>179.60059</ele>
        <time>2026-05-14T12:58:29+02:00</time>
      </trkpt>
      <trkpt lat="46.90105" lon="4.97149">
        <ele>179.40039</ele>
        <time>2026-05-14T12:58:30+02:00</time>
      </trkpt>
      <trkpt lat="46.90107" lon="4.97157">
        <ele>179.40039</ele>
        <time>2026-05-14T12:58:31+02:00</time>
      </trkpt>
      <trkpt lat="46.90109" lon="4.97165">
        <ele>179.5</ele>
        <time>2026-05-14T12:58:32+02:00</time>
      </trkpt>
      <trkpt lat="46.90112" lon="4.97173">
        <ele>179.40039</ele>
        <time>2026-05-14T12:58:33+02:00</time>
      </trkpt>
      <trkpt lat="46.90114" lon="4.97182">
        <ele>179.2002</ele>
        <time>2026-05-14T12:58:34+02:00</time>
      </trkpt>
      <trkpt lat="46.90116" lon="4.9719">
        <ele>179.2002</ele>
        <time>2026-05-14T12:58:35+02:00</time>
      </trkpt>
      <trkpt lat="46.90119" lon="4.97199">
        <ele>179</ele>
        <time>2026-05-14T12:58:36+02:00</time>
      </trkpt>
      <trkpt lat="46.90122" lon="4.97208">
        <ele>179</ele>
        <time>2026-05-14T12:58:37+02:00</time>
      </trkpt>
      <trkpt lat="46.90124" lon="4.97217">
        <ele>178.7998</ele>
        <time>2026-05-14T12:58:38+02:00</time>
      </trkpt>
      <trkpt lat="46.90127" lon="4.97226">
        <ele>178.60059</ele>
        <time>2026-05-14T12:58:39+02:00</time>
      </trkpt>
      <trkpt lat="46.9013" lon="4.97235">
        <ele>178.40039</ele>
        <time>2026-05-14T12:58:40+02:00</time>
      </trkpt>
      <trkpt lat="46.90133" lon="4.97244">
        <ele>178.60059</ele>
        <time>2026-05-14T12:58:41+02:00</time>
      </trkpt>
      <trkpt lat="46.90136" lon="4.97253">
        <ele>178.5</ele>
        <time>2026-05-14T12:58:42+02:00</time>
      </trkpt>
      <trkpt lat="46.9014" lon="4.97262">
        <ele>178.7998</ele>
        <time>2026-05-14T12:58:43+02:00</time>
      </trkpt>
      <trkpt lat="46.90143" lon="4.97271">
        <ele>178.7998</ele>
        <time>2026-05-14T12:58:44+02:00</time>
      </trkpt>
      <trkpt lat="46.90145" lon="4.9728">
        <ele>179.10059</ele>
        <time>2026-05-14T12:58:45+02:00</time>
      </trkpt>
      <trkpt lat="46.90148" lon="4.97289">
        <ele>179.2002</ele>
        <time>2026-05-14T12:58:46+02:00</time>
      </trkpt>
      <trkpt lat="46.90151" lon="4.97299">
        <ele>179.40039</ele>
        <time>2026-05-14T12:58:47+02:00</time>
      </trkpt>
      <trkpt lat="46.90152" lon="4.97308">
        <ele>179.5</ele>
        <time>2026-05-14T12:58:48+02:00</time>
      </trkpt>
      <trkpt lat="46.90155" lon="4.97318">
        <ele>179.60059</ele>
        <time>2026-05-14T12:58:49+02:00</time>
      </trkpt>
      <trkpt lat="46.90157" lon="4.97327">
        <ele>179.90039</ele>
        <time>2026-05-14T12:58:50+02:00</time>
      </trkpt>
      <trkpt lat="46.90159" lon="4.97337">
        <ele>180.10059</ele>
        <time>2026-05-14T12:58:51+02:00</time>
      </trkpt>
      <trkpt lat="46.90161" lon="4.97346">
        <ele>180.7998</ele>
        <time>2026-05-14T12:58:52+02:00</time>
      </trkpt>
      <trkpt lat="46.90163" lon="4.97356">
        <ele>181</ele>
        <time>2026-05-14T12:58:53+02:00</time>
      </trkpt>
      <trkpt lat="46.90165" lon="4.97365">
        <ele>181.2998</ele>
        <time>2026-05-14T12:58:54+02:00</time>
      </trkpt>
      <trkpt lat="46.90167" lon="4.97374">
        <ele>181.60059</ele>
        <time>2026-05-14T12:58:55+02:00</time>
      </trkpt>
      <trkpt lat="46.90169" lon="4.97384">
        <ele>181.7998</ele>
        <time>2026-05-14T12:58:56+02:00</time>
      </trkpt>
      <trkpt lat="46.90172" lon="4.97393">
        <ele>181.90039</ele>
        <time>2026-05-14T12:58:57+02:00</time>
      </trkpt>
      <trkpt lat="46.90173" lon="4.97402">
        <ele>182</ele>
        <time>2026-05-14T12:58:58+02:00</time>
      </trkpt>
      <trkpt lat="46.90176" lon="4.97412">
        <ele>182</ele>
        <time>2026-05-14T12:58:59+02:00</time>
      </trkpt>
      <trkpt lat="46.90178" lon="4.97421">
        <ele>181.7998</ele>
        <time>2026-05-14T12:59:00+02:00</time>
      </trkpt>
      <trkpt lat="46.9018" lon="4.9743">
        <ele>181.7002</ele>
        <time>2026-05-14T12:59:01+02:00</time>
      </trkpt>
      <trkpt lat="46.90181" lon="4.9744">
        <ele>181.2998</ele>
        <time>2026-05-14T12:59:02+02:00</time>
      </trkpt>
      <trkpt lat="46.90184" lon="4.97449">
        <ele>180.7002</ele>
        <time>2026-05-14T12:59:03+02:00</time>
      </trkpt>
      <trkpt lat="46.90186" lon="4.97458">
        <ele>180.7002</ele>
        <time>2026-05-14T12:59:04+02:00</time>
      </trkpt>
      <trkpt lat="46.90188" lon="4.97468">
        <ele>180.5</ele>
        <time>2026-05-14T12:59:05+02:00</time>
      </trkpt>
      <trkpt lat="46.9019" lon="4.97477">
        <ele>180.2002</ele>
        <time>2026-05-14T12:59:06+02:00</time>
      </trkpt>
      <trkpt lat="46.90193" lon="4.97486">
        <ele>180.5</ele>
        <time>2026-05-14T12:59:07+02:00</time>
      </trkpt>
      <trkpt lat="46.90194" lon="4.97496">
        <ele>180.2998</ele>
        <time>2026-05-14T12:59:08+02:00</time>
      </trkpt>
      <trkpt lat="46.90196" lon="4.97505">
        <ele>180.2998</ele>
        <time>2026-05-14T12:59:09+02:00</time>
      </trkpt>
      <trkpt lat="46.90198" lon="4.97514">
        <ele>180.7002</ele>
        <time>2026-05-14T12:59:10+02:00</time>
      </trkpt>
      <trkpt lat="46.90201" lon="4.97523">
        <ele>180.7002</ele>
        <time>2026-05-14T12:59:11+02:00</time>
      </trkpt>
      <trkpt lat="46.90202" lon="4.97531">
        <ele>180.90039</ele>
        <time>2026-05-14T12:59:12+02:00</time>
      </trkpt>
      <trkpt lat="46.90204" lon="4.9754">
        <ele>181.40039</ele>
        <time>2026-05-14T12:59:13+02:00</time>
      </trkpt>
      <trkpt lat="46.90206" lon="4.97548">
        <ele>181.5</ele>
        <time>2026-05-14T12:59:14+02:00</time>
      </trkpt>
      <trkpt lat="46.90209" lon="4.97557">
        <ele>181.7998</ele>
        <time>2026-05-14T12:59:15+02:00</time>
      </trkpt>
      <trkpt lat="46.9021" lon="4.97566">
        <ele>181.7998</ele>
        <time>2026-05-14T12:59:16+02:00</time>
      </trkpt>
      <trkpt lat="46.90212" lon="4.97575">
        <ele>181.7002</ele>
        <time>2026-05-14T12:59:17+02:00</time>
      </trkpt>
      <trkpt lat="46.90214" lon="4.97584">
        <ele>181.7002</ele>
        <time>2026-05-14T12:59:18+02:00</time>
      </trkpt>
      <trkpt lat="46.90216" lon="4.97593">
        <ele>181.60059</ele>
        <time>2026-05-14T12:59:19+02:00</time>
      </trkpt>
      <trkpt lat="46.90218" lon="4.97602">
        <ele>181.40039</ele>
        <time>2026-05-14T12:59:20+02:00</time>
      </trkpt>
      <trkpt lat="46.9022" lon="4.97612">
        <ele>181.10059</ele>
        <time>2026-05-14T12:59:21+02:00</time>
      </trkpt>
      <trkpt lat="46.90223" lon="4.97621">
        <ele>181</ele>
        <time>2026-05-14T12:59:22+02:00</time>
      </trkpt>
      <trkpt lat="46.90225" lon="4.97631">
        <ele>180.7998</ele>
        <time>2026-05-14T12:59:23+02:00</time>
      </trkpt>
      <trkpt lat="46.90228" lon="4.97641">
        <ele>180.7002</ele>
        <time>2026-05-14T12:59:24+02:00</time>
      </trkpt>
      <trkpt lat="46.90231" lon="4.9765">
        <ele>180.60059</ele>
        <time>2026-05-14T12:59:25+02:00</time>
      </trkpt>
      <trkpt lat="46.90234" lon="4.97658">
        <ele>180.5</ele>
        <time>2026-05-14T12:59:26+02:00</time>
      </trkpt>
      <trkpt lat="46.90237" lon="4.97665">
        <ele>180.2998</ele>
        <time>2026-05-14T12:59:27+02:00</time>
      </trkpt>
      <trkpt lat="46.90239" lon="4.97672">
        <ele>180.5</ele>
        <time>2026-05-14T12:59:28+02:00</time>
      </trkpt>
      <trkpt lat="46.90242" lon="4.97678">
        <ele>180.2998</ele>
        <time>2026-05-14T12:59:29+02:00</time>
      </trkpt>
      <trkpt lat="46.90244" lon="4.97685">
        <ele>180.2998</ele>
        <time>2026-05-14T12:59:30+02:00</time>
      </trkpt>
      <trkpt lat="46.90246" lon="4.97691">
        <ele>180.2002</ele>
        <time>2026-05-14T12:59:31+02:00</time>
      </trkpt>
      <trkpt lat="46.90248" lon="4.97697">
        <ele>180.2002</ele>
        <time>2026-05-14T12:59:32+02:00</time>
      </trkpt>
      <trkpt lat="46.90249" lon="4.97704">
        <ele>180</ele>
        <time>2026-05-14T12:59:33+02:00</time>
      </trkpt>
      <trkpt lat="46.90249" lon="4.97711">
        <ele>179.90039</ele>
        <time>2026-05-14T12:59:34+02:00</time>
      </trkpt>
      <trkpt lat="46.90249" lon="4.97718">
        <ele>179.7002</ele>
        <time>2026-05-14T12:59:35+02:00</time>
      </trkpt>
      <trkpt lat="46.9025" lon="4.97726">
        <ele>179.7002</ele>
        <time>2026-05-14T12:59:36+02:00</time>
      </trkpt>
      <trkpt lat="46.9025" lon="4.97734">
        <ele>179.60059</ele>
        <time>2026-05-14T12:59:37+02:00</time>
      </trkpt>
      <trkpt lat="46.90251" lon="4.97742">
        <ele>179.5</ele>
        <time>2026-05-14T12:59:38+02:00</time>
      </trkpt>
      <trkpt lat="46.90253" lon="4.97751">
        <ele>179.5</ele>
        <time>2026-05-14T12:59:39+02:00</time>
      </trkpt>
      <trkpt lat="46.90255" lon="4.9776">
        <ele>179.5</ele>
        <time>2026-05-14T12:59:40+02:00</time>
      </trkpt>
      <trkpt lat="46.90257" lon="4.97769">
        <ele>179.5</ele>
        <time>2026-05-14T12:59:41+02:00</time>
      </trkpt>
      <trkpt lat="46.90259" lon="4.97778">
        <ele>179.40039</ele>
        <time>2026-05-14T12:59:42+02:00</time>
      </trkpt>
      <trkpt lat="46.90261" lon="4.97788">
        <ele>179.5</ele>
        <time>2026-05-14T12:59:43+02:00</time>
      </trkpt>
      <trkpt lat="46.90264" lon="4.97797">
        <ele>179.40039</ele>
        <time>2026-05-14T12:59:44+02:00</time>
      </trkpt>
      <trkpt lat="46.90267" lon="4.97806">
        <ele>179.5</ele>
        <time>2026-05-14T12:59:45+02:00</time>
      </trkpt>
      <trkpt lat="46.90269" lon="4.97815">
        <ele>179.40039</ele>
        <time>2026-05-14T12:59:46+02:00</time>
      </trkpt>
      <trkpt lat="46.90272" lon="4.97824">
        <ele>179.40039</ele>
        <time>2026-05-14T12:59:47+02:00</time>
      </trkpt>
      <trkpt lat="46.90274" lon="4.97833">
        <ele>179.40039</ele>
        <time>2026-05-14T12:59:48+02:00</time>
      </trkpt>
      <trkpt lat="46.90276" lon="4.97842">
        <ele>179.40039</ele>
        <time>2026-05-14T12:59:49+02:00</time>
      </trkpt>
      <trkpt lat="46.90278" lon="4.9785">
        <ele>179.40039</ele>
        <time>2026-05-14T12:59:50+02:00</time>
      </trkpt>
      <trkpt lat="46.9028" lon="4.97859">
        <ele>179.5</ele>
        <time>2026-05-14T12:59:51+02:00</time>
      </trkpt>
      <trkpt lat="46.90282" lon="4.97867">
        <ele>179.60059</ele>
        <time>2026-05-14T12:59:52+02:00</time>
      </trkpt>
      <trkpt lat="46.90284" lon="4.97875">
        <ele>179.60059</ele>
        <time>2026-05-14T12:59:53+02:00</time>
      </trkpt>
      <trkpt lat="46.90285" lon="4.97883">
        <ele>179.7002</ele>
        <time>2026-05-14T12:59:54+02:00</time>
      </trkpt>
      <trkpt lat="46.90286" lon="4.97891">
        <ele>179.7002</ele>
        <time>2026-05-14T12:59:55+02:00</time>
      </trkpt>
      <trkpt lat="46.90287" lon="4.97898">
        <ele>179.60059</ele>
        <time>2026-05-14T12:59:56+02:00</time>
      </trkpt>
      <trkpt lat="46.90288" lon="4.97905">
        <ele>179.5</ele>
        <time>2026-05-14T12:59:57+02:00</time>
      </trkpt>
      <trkpt lat="46.90288" lon="4.97911">
        <ele>179.5</ele>
        <time>2026-05-14T12:59:58+02:00</time>
      </trkpt>
      <trkpt lat="46.90289" lon="4.97917">
        <ele>179.2998</ele>
        <time>2026-05-14T12:59:59+02:00</time>
      </trkpt>
      <trkpt lat="46.9029" lon="4.97922">
        <ele>179.2002</ele>
        <time>2026-05-14T13:00:00+02:00</time>
      </trkpt>
      <trkpt lat="46.90291" lon="4.97927">
        <ele>179.2002</ele>
        <time>2026-05-14T13:00:01+02:00</time>
      </trkpt>
      <trkpt lat="46.90291" lon="4.97931">
        <ele>178.90039</ele>
        <time>2026-05-14T13:00:02+02:00</time>
      </trkpt>
      <trkpt lat="46.90291" lon="4.97936">
        <ele>178.90039</ele>
        <time>2026-05-14T13:00:03+02:00</time>
      </trkpt>
      <trkpt lat="46.90292" lon="4.9794">
        <ele>178.7002</ele>
        <time>2026-05-14T13:00:04+02:00</time>
      </trkpt>
      <trkpt lat="46.90292" lon="4.97943">
        <ele>178.7002</ele>
        <time>2026-05-14T13:00:05+02:00</time>
      </trkpt>
      <trkpt lat="46.90292" lon="4.97947">
        <ele>178.5</ele>
        <time>2026-05-14T13:00:06+02:00</time>
      </trkpt>
      <trkpt lat="46.90293" lon="4.9795">
        <ele>178.5</ele>
        <time>2026-05-14T13:00:07+02:00</time>
      </trkpt>
      <trkpt lat="46.90293" lon="4.97954">
        <ele>178.5</ele>
        <time>2026-05-14T13:00:08+02:00</time>
      </trkpt>
      <trkpt lat="46.90294" lon="4.97957">
        <ele>178.2002</ele>
        <time>2026-05-14T13:00:09+02:00</time>
      </trkpt>
      <trkpt lat="46.90296" lon="4.97958">
        <ele>178.40039</ele>
        <time>2026-05-14T13:00:10+02:00</time>
      </trkpt>
      <trkpt lat="46.90297" lon="4.97957">
        <ele>178.40039</ele>
        <time>2026-05-14T13:00:11+02:00</time>
      </trkpt>
      <trkpt lat="46.90297" lon="4.97955">
        <ele>178.60059</ele>
        <time>2026-05-14T13:00:12+02:00</time>
      </trkpt>
      <trkpt lat="46.90296" lon="4.97952">
        <ele>178.60059</ele>
        <time>2026-05-14T13:00:13+02:00</time>
      </trkpt>
      <trkpt lat="46.90295" lon="4.9795">
        <ele>178.5</ele>
        <time>2026-05-14T13:00:14+02:00</time>
      </trkpt>
      <trkpt lat="46.90294" lon="4.97948">
        <ele>178.5</ele>
        <time>2026-05-14T13:00:15+02:00</time>
      </trkpt>
      <trkpt lat="46.90294" lon="4.97947">
        <ele>178.5</ele>
        <time>2026-05-14T13:00:16+02:00</time>
      </trkpt>
      <trkpt lat="46.90294" lon="4.97945">
        <ele>178.7002</ele>
        <time>2026-05-14T13:00:17+02:00</time>
      </trkpt>
      <trkpt lat="46.90294" lon="4.97945">
        <ele>178.7002</ele>
        <time>2026-05-14T13:00:18+02:00</time>
      </trkpt>
      <trkpt lat="46.90294" lon="4.97945">
        <ele>178.7002</ele>
        <time>2026-05-14T13:00:19+02:00</time>
      </trkpt>
      <trkpt lat="46.90294" lon="4.97945">
        <ele>178.7002</ele>
        <time>2026-05-14T13:00:20+02:00</time>
      </trkpt>
      <trkpt lat="46.90294" lon="4.97945">
        <ele>178.7002</ele>
        <time>2026-05-14T13:00:21+02:00</time>
      </trkpt>
      <trkpt lat="46.90296" lon="4.97978">
        <ele>177.90039</ele>
        <time>2026-05-14T13:01:44+02:00</time>
      </trkpt>
      <trkpt lat="46.90296" lon="4.97983">
        <ele>177.7002</ele>
        <time>2026-05-14T13:01:45+02:00</time>
      </trkpt>
      <trkpt lat="46.90297" lon="4.97987">
        <ele>177.7002</ele>
        <time>2026-05-14T13:01:46+02:00</time>
      </trkpt>
      <trkpt lat="46.90297" lon="4.97992">
        <ele>177.60059</ele>
        <time>2026-05-14T13:01:47+02:00</time>
      </trkpt>
      <trkpt lat="46.90298" lon="4.97997">
        <ele>177.60059</ele>
        <time>2026-05-14T13:01:48+02:00</time>
      </trkpt>
      <trkpt lat="46.90298" lon="4.98002">
        <ele>177.5</ele>
        <time>2026-05-14T13:01:49+02:00</time>
      </trkpt>
      <trkpt lat="46.90299" lon="4.98007">
        <ele>177.40039</ele>
        <time>2026-05-14T13:01:50+02:00</time>
      </trkpt>
      <trkpt lat="46.90299" lon="4.98012">
        <ele>177.40039</ele>
        <time>2026-05-14T13:01:51+02:00</time>
      </trkpt>
      <trkpt lat="46.90299" lon="4.98016">
        <ele>177.40039</ele>
        <time>2026-05-14T13:01:52+02:00</time>
      </trkpt>
      <trkpt lat="46.90299" lon="4.98022">
        <ele>177.40039</ele>
        <time>2026-05-14T13:01:53+02:00</time>
      </trkpt>
      <trkpt lat="46.903" lon="4.98028">
        <ele>177.2998</ele>
        <time>2026-05-14T13:01:54+02:00</time>
      </trkpt>
      <trkpt lat="46.90301" lon="4.98034">
        <ele>177.2998</ele>
        <time>2026-05-14T13:01:55+02:00</time>
      </trkpt>
      <trkpt lat="46.90301" lon="4.98041">
        <ele>177.2998</ele>
        <time>2026-05-14T13:01:56+02:00</time>
      </trkpt>
      <trkpt lat="46.90301" lon="4.98048">
        <ele>177.2998</ele>
        <time>2026-05-14T13:01:57+02:00</time>
      </trkpt>
      <trkpt lat="46.90302" lon="4.98055">
        <ele>177.40039</ele>
        <time>2026-05-14T13:01:58+02:00</time>
      </trkpt>
      <trkpt lat="46.90302" lon="4.98062">
        <ele>177.40039</ele>
        <time>2026-05-14T13:01:59+02:00</time>
      </trkpt>
      <trkpt lat="46.90303" lon="4.9807">
        <ele>177.2998</ele>
        <time>2026-05-14T13:02:00+02:00</time>
      </trkpt>
      <trkpt lat="46.90304" lon="4.98077">
        <ele>177.2002</ele>
        <time>2026-05-14T13:02:01+02:00</time>
      </trkpt>
      <trkpt lat="46.90305" lon="4.98085">
        <ele>177</ele>
        <time>2026-05-14T13:02:02+02:00</time>
      </trkpt>
      <trkpt lat="46.90305" lon="4.98093">
        <ele>176.90039</ele>
        <time>2026-05-14T13:02:03+02:00</time>
      </trkpt>
      <trkpt lat="46.90305" lon="4.98101">
        <ele>176.90039</ele>
        <time>2026-05-14T13:02:04+02:00</time>
      </trkpt>
      <trkpt lat="46.90305" lon="4.98109">
        <ele>176.7998</ele>
        <time>2026-05-14T13:02:05+02:00</time>
      </trkpt>
      <trkpt lat="46.90305" lon="4.98117">
        <ele>176.7998</ele>
        <time>2026-05-14T13:02:06+02:00</time>
      </trkpt>
      <trkpt lat="46.90305" lon="4.98126">
        <ele>176.7002</ele>
        <time>2026-05-14T13:02:07+02:00</time>
      </trkpt>
      <trkpt lat="46.90306" lon="4.98134">
        <ele>176.60059</ele>
        <time>2026-05-14T13:02:08+02:00</time>
      </trkpt>
      <trkpt lat="46.90307" lon="4.98142">
        <ele>176.60059</ele>
        <time>2026-05-14T13:02:09+02:00</time>
      </trkpt>
      <trkpt lat="46.90307" lon="4.98151">
        <ele>176.5</ele>
        <time>2026-05-14T13:02:10+02:00</time>
      </trkpt>
      <trkpt lat="46.90307" lon="4.98159">
        <ele>176.5</ele>
        <time>2026-05-14T13:02:11+02:00</time>
      </trkpt>
      <trkpt lat="46.90307" lon="4.98168">
        <ele>176.5</ele>
        <time>2026-05-14T13:02:12+02:00</time>
      </trkpt>
      <trkpt lat="46.90307" lon="4.98177">
        <ele>176.40039</ele>
        <time>2026-05-14T13:02:13+02:00</time>
      </trkpt>
      <trkpt lat="46.90307" lon="4.98185">
        <ele>176.2998</ele>
        <time>2026-05-14T13:02:14+02:00</time>
      </trkpt>
      <trkpt lat="46.90307" lon="4.98193">
        <ele>176.2998</ele>
        <time>2026-05-14T13:02:15+02:00</time>
      </trkpt>
      <trkpt lat="46.90306" lon="4.98202">
        <ele>176.2998</ele>
        <time>2026-05-14T13:02:16+02:00</time>
      </trkpt>
      <trkpt lat="46.90305" lon="4.9821">
        <ele>176.2002</ele>
        <time>2026-05-14T13:02:17+02:00</time>
      </trkpt>
      <trkpt lat="46.90305" lon="4.98218">
        <ele>176.2002</ele>
        <time>2026-05-14T13:02:18+02:00</time>
      </trkpt>
      <trkpt lat="46.90305" lon="4.98226">
        <ele>176.2002</ele>
        <time>2026-05-14T13:02:19+02:00</time>
      </trkpt>
      <trkpt lat="46.90305" lon="4.98234">
        <ele>176.2002</ele>
        <time>2026-05-14T13:02:20+02:00</time>
      </trkpt>
      <trkpt lat="46.90305" lon="4.98242">
        <ele>176.10059</ele>
        <time>2026-05-14T13:02:21+02:00</time>
      </trkpt>
      <trkpt lat="46.90305" lon="4.98249">
        <ele>176.10059</ele>
        <time>2026-05-14T13:02:22+02:00</time>
      </trkpt>
      <trkpt lat="46.90305" lon="4.98256">
        <ele>176.10059</ele>
        <time>2026-05-14T13:02:23+02:00</time>
      </trkpt>
      <trkpt lat="46.90307" lon="4.98263">
        <ele>176.10059</ele>
        <time>2026-05-14T13:02:24+02:00</time>
      </trkpt>
      <trkpt lat="46.90309" lon="4.9827">
        <ele>176.5</ele>
        <time>2026-05-14T13:02:25+02:00</time>
      </trkpt>
      <trkpt lat="46.9031" lon="4.98277">
        <ele>176.5</ele>
        <time>2026-05-14T13:02:26+02:00</time>
      </trkpt>
      <trkpt lat="46.90311" lon="4.98285">
        <ele>176.5</ele>
        <time>2026-05-14T13:02:27+02:00</time>
      </trkpt>
      <trkpt lat="46.90312" lon="4.98293">
        <ele>176.5</ele>
        <time>2026-05-14T13:02:28+02:00</time>
      </trkpt>
      <trkpt lat="46.90313" lon="4.98302">
        <ele>176.40039</ele>
        <time>2026-05-14T13:02:29+02:00</time>
      </trkpt>
      <trkpt lat="46.90314" lon="4.98311">
        <ele>176.60059</ele>
        <time>2026-05-14T13:02:30+02:00</time>
      </trkpt>
      <trkpt lat="46.90316" lon="4.98319">
        <ele>176.5</ele>
        <time>2026-05-14T13:02:31+02:00</time>
      </trkpt>
      <trkpt lat="46.90317" lon="4.98328">
        <ele>176.40039</ele>
        <time>2026-05-14T13:02:32+02:00</time>
      </trkpt>
      <trkpt lat="46.90318" lon="4.98337">
        <ele>176.2998</ele>
        <time>2026-05-14T13:02:33+02:00</time>
      </trkpt>
      <trkpt lat="46.90319" lon="4.98345">
        <ele>176.2998</ele>
        <time>2026-05-14T13:02:34+02:00</time>
      </trkpt>
      <trkpt lat="46.90321" lon="4.98354">
        <ele>176.60059</ele>
        <time>2026-05-14T13:02:35+02:00</time>
      </trkpt>
      <trkpt lat="46.90322" lon="4.98363">
        <ele>176.40039</ele>
        <time>2026-05-14T13:02:36+02:00</time>
      </trkpt>
      <trkpt lat="46.90324" lon="4.98372">
        <ele>176.2998</ele>
        <time>2026-05-14T13:02:37+02:00</time>
      </trkpt>
      <trkpt lat="46.90325" lon="4.98381">
        <ele>176.10059</ele>
        <time>2026-05-14T13:02:38+02:00</time>
      </trkpt>
      <trkpt lat="46.90327" lon="4.98389">
        <ele>176.2998</ele>
        <time>2026-05-14T13:02:39+02:00</time>
      </trkpt>
      <trkpt lat="46.90329" lon="4.98398">
        <ele>176.10059</ele>
        <time>2026-05-14T13:02:40+02:00</time>
      </trkpt>
      <trkpt lat="46.9033" lon="4.98407">
        <ele>176</ele>
        <time>2026-05-14T13:02:41+02:00</time>
      </trkpt>
      <trkpt lat="46.90333" lon="4.98416">
        <ele>176.2002</ele>
        <time>2026-05-14T13:02:42+02:00</time>
      </trkpt>
      <trkpt lat="46.90334" lon="4.98424">
        <ele>176.10059</ele>
        <time>2026-05-14T13:02:43+02:00</time>
      </trkpt>
      <trkpt lat="46.90337" lon="4.98433">
        <ele>176.40039</ele>
        <time>2026-05-14T13:02:44+02:00</time>
      </trkpt>
      <trkpt lat="46.90339" lon="4.98441">
        <ele>176.40039</ele>
        <time>2026-05-14T13:02:45+02:00</time>
      </trkpt>
      <trkpt lat="46.90341" lon="4.9845">
        <ele>176.40039</ele>
        <time>2026-05-14T13:02:46+02:00</time>
      </trkpt>
      <trkpt lat="46.90343" lon="4.98459">
        <ele>176.7998</ele>
        <time>2026-05-14T13:02:47+02:00</time>
      </trkpt>
      <trkpt lat="46.90345" lon="4.98467">
        <ele>176.7002</ele>
        <time>2026-05-14T13:02:48+02:00</time>
      </trkpt>
      <trkpt lat="46.90347" lon="4.98476">
        <ele>176.7002</ele>
        <time>2026-05-14T13:02:49+02:00</time>
      </trkpt>
      <trkpt lat="46.90349" lon="4.98485">
        <ele>177.10059</ele>
        <time>2026-05-14T13:02:50+02:00</time>
      </trkpt>
      <trkpt lat="46.90351" lon="4.98493">
        <ele>177.2002</ele>
        <time>2026-05-14T13:02:51+02:00</time>
      </trkpt>
      <trkpt lat="46.90352" lon="4.98502">
        <ele>177.2998</ele>
        <time>2026-05-14T13:02:52+02:00</time>
      </trkpt>
      <trkpt lat="46.90354" lon="4.98511">
        <ele>177.40039</ele>
        <time>2026-05-14T13:02:53+02:00</time>
      </trkpt>
      <trkpt lat="46.90356" lon="4.9852">
        <ele>177.90039</ele>
        <time>2026-05-14T13:02:54+02:00</time>
      </trkpt>
      <trkpt lat="46.90357" lon="4.98529">
        <ele>178</ele>
        <time>2026-05-14T13:02:55+02:00</time>
      </trkpt>
      <trkpt lat="46.90358" lon="4.98538">
        <ele>178</ele>
        <time>2026-05-14T13:02:56+02:00</time>
      </trkpt>
      <trkpt lat="46.9036" lon="4.98547">
        <ele>178.10059</ele>
        <time>2026-05-14T13:02:57+02:00</time>
      </trkpt>
      <trkpt lat="46.90361" lon="4.98556">
        <ele>178.60059</ele>
        <time>2026-05-14T13:02:58+02:00</time>
      </trkpt>
      <trkpt lat="46.90362" lon="4.98565">
        <ele>178.60059</ele>
        <time>2026-05-14T13:02:59+02:00</time>
      </trkpt>
      <trkpt lat="46.90363" lon="4.98574">
        <ele>178.60059</ele>
        <time>2026-05-14T13:03:00+02:00</time>
      </trkpt>
      <trkpt lat="46.90364" lon="4.98583">
        <ele>178.60059</ele>
        <time>2026-05-14T13:03:01+02:00</time>
      </trkpt>
      <trkpt lat="46.90365" lon="4.98592">
        <ele>178.60059</ele>
        <time>2026-05-14T13:03:02+02:00</time>
      </trkpt>
      <trkpt lat="46.90366" lon="4.98601">
        <ele>178.5</ele>
        <time>2026-05-14T13:03:03+02:00</time>
      </trkpt>
      <trkpt lat="46.90366" lon="4.9861">
        <ele>178.40039</ele>
        <time>2026-05-14T13:03:04+02:00</time>
      </trkpt>
      <trkpt lat="46.90367" lon="4.98619">
        <ele>178.60059</ele>
        <time>2026-05-14T13:03:05+02:00</time>
      </trkpt>
      <trkpt lat="46.90368" lon="4.98629">
        <ele>178.5</ele>
        <time>2026-05-14T13:03:06+02:00</time>
      </trkpt>
      <trkpt lat="46.9037" lon="4.98638">
        <ele>178.40039</ele>
        <time>2026-05-14T13:03:07+02:00</time>
      </trkpt>
      <trkpt lat="46.90371" lon="4.98647">
        <ele>178.2998</ele>
        <time>2026-05-14T13:03:08+02:00</time>
      </trkpt>
      <trkpt lat="46.90372" lon="4.98656">
        <ele>178.2002</ele>
        <time>2026-05-14T13:03:09+02:00</time>
      </trkpt>
      <trkpt lat="46.90373" lon="4.98665">
        <ele>178.2998</ele>
        <time>2026-05-14T13:03:10+02:00</time>
      </trkpt>
      <trkpt lat="46.90373" lon="4.98673">
        <ele>178.2002</ele>
        <time>2026-05-14T13:03:11+02:00</time>
      </trkpt>
      <trkpt lat="46.90375" lon="4.98682">
        <ele>178.10059</ele>
        <time>2026-05-14T13:03:12+02:00</time>
      </trkpt>
      <trkpt lat="46.90376" lon="4.98691">
        <ele>178</ele>
        <time>2026-05-14T13:03:13+02:00</time>
      </trkpt>
      <trkpt lat="46.90376" lon="4.98699">
        <ele>177.90039</ele>
        <time>2026-05-14T13:03:14+02:00</time>
      </trkpt>
      <trkpt lat="46.90378" lon="4.98707">
        <ele>177.90039</ele>
        <time>2026-05-14T13:03:15+02:00</time>
      </trkpt>
      <trkpt lat="46.9038" lon="4.98715">
        <ele>177.7998</ele>
        <time>2026-05-14T13:03:16+02:00</time>
      </trkpt>
      <trkpt lat="46.90382" lon="4.98723">
        <ele>177.7002</ele>
        <time>2026-05-14T13:03:17+02:00</time>
      </trkpt>
      <trkpt lat="46.90384" lon="4.98731">
        <ele>177.60059</ele>
        <time>2026-05-14T13:03:18+02:00</time>
      </trkpt>
      <trkpt lat="46.90386" lon="4.98739">
        <ele>177.60059</ele>
        <time>2026-05-14T13:03:19+02:00</time>
      </trkpt>
      <trkpt lat="46.90389" lon="4.98746">
        <ele>177.5</ele>
        <time>2026-05-14T13:03:20+02:00</time>
      </trkpt>
      <trkpt lat="46.90391" lon="4.98753">
        <ele>177.60059</ele>
        <time>2026-05-14T13:03:21+02:00</time>
      </trkpt>
      <trkpt lat="46.90394" lon="4.98761">
        <ele>177.5</ele>
        <time>2026-05-14T13:03:22+02:00</time>
      </trkpt>
      <trkpt lat="46.90396" lon="4.98768">
        <ele>177.5</ele>
        <time>2026-05-14T13:03:23+02:00</time>
      </trkpt>
      <trkpt lat="46.90399" lon="4.98776">
        <ele>177.5</ele>
        <time>2026-05-14T13:03:24+02:00</time>
      </trkpt>
      <trkpt lat="46.90401" lon="4.98783">
        <ele>177.40039</ele>
        <time>2026-05-14T13:03:25+02:00</time>
      </trkpt>
      <trkpt lat="46.90403" lon="4.98789">
        <ele>177.40039</ele>
        <time>2026-05-14T13:03:26+02:00</time>
      </trkpt>
      <trkpt lat="46.90405" lon="4.98796">
        <ele>177.40039</ele>
        <time>2026-05-14T13:03:27+02:00</time>
      </trkpt>
      <trkpt lat="46.90407" lon="4.98802">
        <ele>177.40039</ele>
        <time>2026-05-14T13:03:28+02:00</time>
      </trkpt>
      <trkpt lat="46.9041" lon="4.98809">
        <ele>177.40039</ele>
        <time>2026-05-14T13:03:29+02:00</time>
      </trkpt>
      <trkpt lat="46.90412" lon="4.98815">
        <ele>177.40039</ele>
        <time>2026-05-14T13:03:30+02:00</time>
      </trkpt>
      <trkpt lat="46.90414" lon="4.98822">
        <ele>177.5</ele>
        <time>2026-05-14T13:03:31+02:00</time>
      </trkpt>
      <trkpt lat="46.90416" lon="4.98829">
        <ele>177.40039</ele>
        <time>2026-05-14T13:03:32+02:00</time>
      </trkpt>
      <trkpt lat="46.90417" lon="4.98836">
        <ele>177.40039</ele>
        <time>2026-05-14T13:03:33+02:00</time>
      </trkpt>
      <trkpt lat="46.90419" lon="4.98843">
        <ele>177.40039</ele>
        <time>2026-05-14T13:03:34+02:00</time>
      </trkpt>
      <trkpt lat="46.90421" lon="4.9885">
        <ele>177.5</ele>
        <time>2026-05-14T13:03:35+02:00</time>
      </trkpt>
      <trkpt lat="46.90423" lon="4.98857">
        <ele>177.60059</ele>
        <time>2026-05-14T13:03:36+02:00</time>
      </trkpt>
      <trkpt lat="46.90424" lon="4.98864">
        <ele>177.60059</ele>
        <time>2026-05-14T13:03:37+02:00</time>
      </trkpt>
      <trkpt lat="46.90426" lon="4.98871">
        <ele>177.90039</ele>
        <time>2026-05-14T13:03:38+02:00</time>
      </trkpt>
      <trkpt lat="46.90427" lon="4.98878">
        <ele>178.10059</ele>
        <time>2026-05-14T13:03:39+02:00</time>
      </trkpt>
      <trkpt lat="46.90429" lon="4.98885">
        <ele>178.2998</ele>
        <time>2026-05-14T13:03:40+02:00</time>
      </trkpt>
      <trkpt lat="46.9043" lon="4.98892">
        <ele>178.40039</ele>
        <time>2026-05-14T13:03:41+02:00</time>
      </trkpt>
      <trkpt lat="46.90432" lon="4.989">
        <ele>178.7002</ele>
        <time>2026-05-14T13:03:42+02:00</time>
      </trkpt>
      <trkpt lat="46.90433" lon="4.98907">
        <ele>178.7002</ele>
        <time>2026-05-14T13:03:43+02:00</time>
      </trkpt>
      <trkpt lat="46.90434" lon="4.98914">
        <ele>178.90039</ele>
        <time>2026-05-14T13:03:44+02:00</time>
      </trkpt>
      <trkpt lat="46.90436" lon="4.98921">
        <ele>179</ele>
        <time>2026-05-14T13:03:45+02:00</time>
      </trkpt>
      <trkpt lat="46.90437" lon="4.98927">
        <ele>179.2002</ele>
        <time>2026-05-14T13:03:46+02:00</time>
      </trkpt>
      <trkpt lat="46.90438" lon="4.98934">
        <ele>179.40039</ele>
        <time>2026-05-14T13:03:47+02:00</time>
      </trkpt>
      <trkpt lat="46.9044" lon="4.98942">
        <ele>179.40039</ele>
        <time>2026-05-14T13:03:48+02:00</time>
      </trkpt>
      <trkpt lat="46.90441" lon="4.98949">
        <ele>179.5</ele>
        <time>2026-05-14T13:03:49+02:00</time>
      </trkpt>
      <trkpt lat="46.90442" lon="4.98956">
        <ele>179.5</ele>
        <time>2026-05-14T13:03:50+02:00</time>
      </trkpt>
      <trkpt lat="46.90443" lon="4.98963">
        <ele>179.7002</ele>
        <time>2026-05-14T13:03:51+02:00</time>
      </trkpt>
      <trkpt lat="46.90445" lon="4.98969">
        <ele>179.7002</ele>
        <time>2026-05-14T13:03:52+02:00</time>
      </trkpt>
      <trkpt lat="46.90446" lon="4.98977">
        <ele>179.7998</ele>
        <time>2026-05-14T13:03:53+02:00</time>
      </trkpt>
      <trkpt lat="46.90447" lon="4.98984">
        <ele>179.7998</ele>
        <time>2026-05-14T13:03:54+02:00</time>
      </trkpt>
      <trkpt lat="46.90449" lon="4.98991">
        <ele>179.7998</ele>
        <time>2026-05-14T13:03:55+02:00</time>
      </trkpt>
      <trkpt lat="46.9045" lon="4.98997">
        <ele>179.7998</ele>
        <time>2026-05-14T13:03:56+02:00</time>
      </trkpt>
      <trkpt lat="46.90451" lon="4.99005">
        <ele>179.7002</ele>
        <time>2026-05-14T13:03:57+02:00</time>
      </trkpt>
      <trkpt lat="46.90452" lon="4.99011">
        <ele>179.7002</ele>
        <time>2026-05-14T13:03:58+02:00</time>
      </trkpt>
      <trkpt lat="46.90453" lon="4.99018">
        <ele>179.60059</ele>
        <time>2026-05-14T13:03:59+02:00</time>
      </trkpt>
      <trkpt lat="46.90455" lon="4.99024">
        <ele>179.5</ele>
        <time>2026-05-14T13:04:00+02:00</time>
      </trkpt>
      <trkpt lat="46.90456" lon="4.9903">
        <ele>179.2998</ele>
        <time>2026-05-14T13:04:01+02:00</time>
      </trkpt>
      <trkpt lat="46.90457" lon="4.99035">
        <ele>179.2998</ele>
        <time>2026-05-14T13:04:02+02:00</time>
      </trkpt>
      <trkpt lat="46.90458" lon="4.9904">
        <ele>179.10059</ele>
        <time>2026-05-14T13:04:03+02:00</time>
      </trkpt>
      <trkpt lat="46.90459" lon="4.99045">
        <ele>179.10059</ele>
        <time>2026-05-14T13:04:04+02:00</time>
      </trkpt>
      <trkpt lat="46.90461" lon="4.9905">
        <ele>179.10059</ele>
        <time>2026-05-14T13:04:05+02:00</time>
      </trkpt>
      <trkpt lat="46.90462" lon="4.99056">
        <ele>179</ele>
        <time>2026-05-14T13:04:06+02:00</time>
      </trkpt>
      <trkpt lat="46.90464" lon="4.99062">
        <ele>179</ele>
        <time>2026-05-14T13:04:07+02:00</time>
      </trkpt>
      <trkpt lat="46.90465" lon="4.99069">
        <ele>178.7998</ele>
        <time>2026-05-14T13:04:08+02:00</time>
      </trkpt>
      <trkpt lat="46.90466" lon="4.99075">
        <ele>178.7998</ele>
        <time>2026-05-14T13:04:09+02:00</time>
      </trkpt>
      <trkpt lat="46.90467" lon="4.99082">
        <ele>178.7002</ele>
        <time>2026-05-14T13:04:10+02:00</time>
      </trkpt>
      <trkpt lat="46.90468" lon="4.99089">
        <ele>178.5</ele>
        <time>2026-05-14T13:04:11+02:00</time>
      </trkpt>
      <trkpt lat="46.90469" lon="4.99097">
        <ele>178.2998</ele>
        <time>2026-05-14T13:04:12+02:00</time>
      </trkpt>
      <trkpt lat="46.90471" lon="4.99104">
        <ele>178.2998</ele>
        <time>2026-05-14T13:04:13+02:00</time>
      </trkpt>
      <trkpt lat="46.90472" lon="4.99111">
        <ele>178.40039</ele>
        <time>2026-05-14T13:04:14+02:00</time>
      </trkpt>
      <trkpt lat="46.90474" lon="4.99119">
        <ele>178.2998</ele>
        <time>2026-05-14T13:04:15+02:00</time>
      </trkpt>
      <trkpt lat="46.90475" lon="4.99127">
        <ele>178.10059</ele>
        <time>2026-05-14T13:04:16+02:00</time>
      </trkpt>
      <trkpt lat="46.90477" lon="4.99134">
        <ele>178</ele>
        <time>2026-05-14T13:04:17+02:00</time>
      </trkpt>
      <trkpt lat="46.90478" lon="4.99141">
        <ele>178.10059</ele>
        <time>2026-05-14T13:04:18+02:00</time>
      </trkpt>
      <trkpt lat="46.9048" lon="4.99149">
        <ele>177.90039</ele>
        <time>2026-05-14T13:04:19+02:00</time>
      </trkpt>
      <trkpt lat="46.90481" lon="4.99157">
        <ele>177.7002</ele>
        <time>2026-05-14T13:04:20+02:00</time>
      </trkpt>
      <trkpt lat="46.90483" lon="4.99165">
        <ele>177.7002</ele>
        <time>2026-05-14T13:04:21+02:00</time>
      </trkpt>
      <trkpt lat="46.90484" lon="4.99173">
        <ele>177.90039</ele>
        <time>2026-05-14T13:04:22+02:00</time>
      </trkpt>
      <trkpt lat="46.90485" lon="4.99181">
        <ele>177.7002</ele>
        <time>2026-05-14T13:04:23+02:00</time>
      </trkpt>
      <trkpt lat="46.90486" lon="4.99189">
        <ele>177.5</ele>
        <time>2026-05-14T13:04:24+02:00</time>
      </trkpt>
      <trkpt lat="46.90488" lon="4.99197">
        <ele>177.2998</ele>
        <time>2026-05-14T13:04:25+02:00</time>
      </trkpt>
      <trkpt lat="46.90489" lon="4.99204">
        <ele>177.2998</ele>
        <time>2026-05-14T13:04:26+02:00</time>
      </trkpt>
      <trkpt lat="46.9049" lon="4.99211">
        <ele>177.40039</ele>
        <time>2026-05-14T13:04:27+02:00</time>
      </trkpt>
      <trkpt lat="46.9049" lon="4.99219">
        <ele>177.40039</ele>
        <time>2026-05-14T13:04:28+02:00</time>
      </trkpt>
      <trkpt lat="46.90491" lon="4.99226">
        <ele>177.40039</ele>
        <time>2026-05-14T13:04:29+02:00</time>
      </trkpt>
      <trkpt lat="46.90492" lon="4.99233">
        <ele>177.40039</ele>
        <time>2026-05-14T13:04:30+02:00</time>
      </trkpt>
      <trkpt lat="46.90493" lon="4.99241">
        <ele>177.40039</ele>
        <time>2026-05-14T13:04:31+02:00</time>
      </trkpt>
      <trkpt lat="46.90494" lon="4.99248">
        <ele>177.5</ele>
        <time>2026-05-14T13:04:32+02:00</time>
      </trkpt>
      <trkpt lat="46.90494" lon="4.99257">
        <ele>177.5</ele>
        <time>2026-05-14T13:04:33+02:00</time>
      </trkpt>
      <trkpt lat="46.90494" lon="4.99265">
        <ele>177.60059</ele>
        <time>2026-05-14T13:04:34+02:00</time>
      </trkpt>
      <trkpt lat="46.90494" lon="4.99273">
        <ele>177.7002</ele>
        <time>2026-05-14T13:04:35+02:00</time>
      </trkpt>
      <trkpt lat="46.90494" lon="4.99281">
        <ele>177.7998</ele>
        <time>2026-05-14T13:04:36+02:00</time>
      </trkpt>
      <trkpt lat="46.90495" lon="4.99289">
        <ele>177.90039</ele>
        <time>2026-05-14T13:04:37+02:00</time>
      </trkpt>
      <trkpt lat="46.90495" lon="4.99297">
        <ele>178</ele>
        <time>2026-05-14T13:04:38+02:00</time>
      </trkpt>
      <trkpt lat="46.90495" lon="4.99304">
        <ele>178.10059</ele>
        <time>2026-05-14T13:04:39+02:00</time>
      </trkpt>
      <trkpt lat="46.90495" lon="4.99312">
        <ele>178.2002</ele>
        <time>2026-05-14T13:04:40+02:00</time>
      </trkpt>
      <trkpt lat="46.90495" lon="4.9932">
        <ele>178.2002</ele>
        <time>2026-05-14T13:04:41+02:00</time>
      </trkpt>
      <trkpt lat="46.90495" lon="4.99328">
        <ele>178.2998</ele>
        <time>2026-05-14T13:04:42+02:00</time>
      </trkpt>
      <trkpt lat="46.90494" lon="4.99335">
        <ele>178.40039</ele>
        <time>2026-05-14T13:04:43+02:00</time>
      </trkpt>
      <trkpt lat="46.90494" lon="4.99343">
        <ele>178.40039</ele>
        <time>2026-05-14T13:04:44+02:00</time>
      </trkpt>
      <trkpt lat="46.90494" lon="4.99351">
        <ele>178.5</ele>
        <time>2026-05-14T13:04:45+02:00</time>
      </trkpt>
      <trkpt lat="46.90493" lon="4.99359">
        <ele>178.5</ele>
        <time>2026-05-14T13:04:46+02:00</time>
      </trkpt>
      <trkpt lat="46.90493" lon="4.99367">
        <ele>178.5</ele>
        <time>2026-05-14T13:04:47+02:00</time>
      </trkpt>
      <trkpt lat="46.90492" lon="4.99375">
        <ele>178.5</ele>
        <time>2026-05-14T13:04:48+02:00</time>
      </trkpt>
      <trkpt lat="46.90491" lon="4.99383">
        <ele>178.60059</ele>
        <time>2026-05-14T13:04:49+02:00</time>
      </trkpt>
      <trkpt lat="46.9049" lon="4.99391">
        <ele>178.60059</ele>
        <time>2026-05-14T13:04:50+02:00</time>
      </trkpt>
      <trkpt lat="46.90489" lon="4.994">
        <ele>178.40039</ele>
        <time>2026-05-14T13:04:51+02:00</time>
      </trkpt>
      <trkpt lat="46.90489" lon="4.99408">
        <ele>178.40039</ele>
        <time>2026-05-14T13:04:52+02:00</time>
      </trkpt>
      <trkpt lat="46.90488" lon="4.99416">
        <ele>178.40039</ele>
        <time>2026-05-14T13:04:53+02:00</time>
      </trkpt>
      <trkpt lat="46.90488" lon="4.99424">
        <ele>178.40039</ele>
        <time>2026-05-14T13:04:54+02:00</time>
      </trkpt>
      <trkpt lat="46.90487" lon="4.99432">
        <ele>178.40039</ele>
        <time>2026-05-14T13:04:55+02:00</time>
      </trkpt>
      <trkpt lat="46.90487" lon="4.9944">
        <ele>178.40039</ele>
        <time>2026-05-14T13:04:56+02:00</time>
      </trkpt>
      <trkpt lat="46.90487" lon="4.99448">
        <ele>178.40039</ele>
        <time>2026-05-14T13:04:57+02:00</time>
      </trkpt>
      <trkpt lat="46.90487" lon="4.99456">
        <ele>178.5</ele>
        <time>2026-05-14T13:04:58+02:00</time>
      </trkpt>
      <trkpt lat="46.90487" lon="4.99465">
        <ele>178.5</ele>
        <time>2026-05-14T13:04:59+02:00</time>
      </trkpt>
      <trkpt lat="46.90486" lon="4.99473">
        <ele>178.5</ele>
        <time>2026-05-14T13:05:00+02:00</time>
      </trkpt>
      <trkpt lat="46.90486" lon="4.9948">
        <ele>178.60059</ele>
        <time>2026-05-14T13:05:01+02:00</time>
      </trkpt>
      <trkpt lat="46.90486" lon="4.99488">
        <ele>178.60059</ele>
        <time>2026-05-14T13:05:02+02:00</time>
      </trkpt>
      <trkpt lat="46.90485" lon="4.99496">
        <ele>178.60059</ele>
        <time>2026-05-14T13:05:03+02:00</time>
      </trkpt>
      <trkpt lat="46.90484" lon="4.99504">
        <ele>178.60059</ele>
        <time>2026-05-14T13:05:04+02:00</time>
      </trkpt>
      <trkpt lat="46.90483" lon="4.99511">
        <ele>178.5</ele>
        <time>2026-05-14T13:05:05+02:00</time>
      </trkpt>
      <trkpt lat="46.90482" lon="4.99519">
        <ele>178.5</ele>
        <time>2026-05-14T13:05:06+02:00</time>
      </trkpt>
      <trkpt lat="46.90479" lon="4.99526">
        <ele>178.5</ele>
        <time>2026-05-14T13:05:07+02:00</time>
      </trkpt>
      <trkpt lat="46.90477" lon="4.99532">
        <ele>178.2998</ele>
        <time>2026-05-14T13:05:08+02:00</time>
      </trkpt>
      <trkpt lat="46.90475" lon="4.99539">
        <ele>178.2002</ele>
        <time>2026-05-14T13:05:09+02:00</time>
      </trkpt>
      <trkpt lat="46.90472" lon="4.99546">
        <ele>178.2002</ele>
        <time>2026-05-14T13:05:10+02:00</time>
      </trkpt>
      <trkpt lat="46.90469" lon="4.99553">
        <ele>177.90039</ele>
        <time>2026-05-14T13:05:11+02:00</time>
      </trkpt>
      <trkpt lat="46.90467" lon="4.9956">
        <ele>177.90039</ele>
        <time>2026-05-14T13:05:12+02:00</time>
      </trkpt>
      <trkpt lat="46.90465" lon="4.99567">
        <ele>177.7002</ele>
        <time>2026-05-14T13:05:13+02:00</time>
      </trkpt>
      <trkpt lat="46.90462" lon="4.99574">
        <ele>177.7002</ele>
        <time>2026-05-14T13:05:14+02:00</time>
      </trkpt>
      <trkpt lat="46.9046" lon="4.99581">
        <ele>177.60059</ele>
        <time>2026-05-14T13:05:15+02:00</time>
      </trkpt>
      <trkpt lat="46.90457" lon="4.99588">
        <ele>177.7002</ele>
        <time>2026-05-14T13:05:16+02:00</time>
      </trkpt>
      <trkpt lat="46.90455" lon="4.99594">
        <ele>177.7002</ele>
        <time>2026-05-14T13:05:17+02:00</time>
      </trkpt>
      <trkpt lat="46.90452" lon="4.996">
        <ele>177.60059</ele>
        <time>2026-05-14T13:05:18+02:00</time>
      </trkpt>
      <trkpt lat="46.9045" lon="4.99606">
        <ele>177.7998</ele>
        <time>2026-05-14T13:05:19+02:00</time>
      </trkpt>
      <trkpt lat="46.90447" lon="4.99612">
        <ele>177.7998</ele>
        <time>2026-05-14T13:05:20+02:00</time>
      </trkpt>
      <trkpt lat="46.90445" lon="4.99618">
        <ele>177.7998</ele>
        <time>2026-05-14T13:05:21+02:00</time>
      </trkpt>
      <trkpt lat="46.90442" lon="4.99624">
        <ele>177.90039</ele>
        <time>2026-05-14T13:05:22+02:00</time>
      </trkpt>
      <trkpt lat="46.90439" lon="4.9963">
        <ele>178.10059</ele>
        <time>2026-05-14T13:05:23+02:00</time>
      </trkpt>
      <trkpt lat="46.90436" lon="4.99637">
        <ele>178</ele>
        <time>2026-05-14T13:05:24+02:00</time>
      </trkpt>
      <trkpt lat="46.90433" lon="4.99644">
        <ele>178.10059</ele>
        <time>2026-05-14T13:05:25+02:00</time>
      </trkpt>
      <trkpt lat="46.9043" lon="4.9965">
        <ele>178.2002</ele>
        <time>2026-05-14T13:05:26+02:00</time>
      </trkpt>
      <trkpt lat="46.90427" lon="4.99657">
        <ele>178.2998</ele>
        <time>2026-05-14T13:05:27+02:00</time>
      </trkpt>
      <trkpt lat="46.90423" lon="4.99663">
        <ele>178.2002</ele>
        <time>2026-05-14T13:05:28+02:00</time>
      </trkpt>
      <trkpt lat="46.9042" lon="4.99669">
        <ele>178.2998</ele>
        <time>2026-05-14T13:05:29+02:00</time>
      </trkpt>
      <trkpt lat="46.90417" lon="4.99675">
        <ele>178.2002</ele>
        <time>2026-05-14T13:05:30+02:00</time>
      </trkpt>
      <trkpt lat="46.90413" lon="4.99681">
        <ele>178</ele>
        <time>2026-05-14T13:05:31+02:00</time>
      </trkpt>
      <trkpt lat="46.9041" lon="4.99687">
        <ele>178</ele>
        <time>2026-05-14T13:05:32+02:00</time>
      </trkpt>
      <trkpt lat="46.90405" lon="4.99693">
        <ele>177.90039</ele>
        <time>2026-05-14T13:05:33+02:00</time>
      </trkpt>
      <trkpt lat="46.90402" lon="4.99699">
        <ele>177.7998</ele>
        <time>2026-05-14T13:05:34+02:00</time>
      </trkpt>
      <trkpt lat="46.90398" lon="4.99704">
        <ele>177.7002</ele>
        <time>2026-05-14T13:05:35+02:00</time>
      </trkpt>
      <trkpt lat="46.90394" lon="4.9971">
        <ele>177.40039</ele>
        <time>2026-05-14T13:05:36+02:00</time>
      </trkpt>
      <trkpt lat="46.90391" lon="4.99715">
        <ele>177.2998</ele>
        <time>2026-05-14T13:05:37+02:00</time>
      </trkpt>
      <trkpt lat="46.90387" lon="4.9972">
        <ele>177.10059</ele>
        <time>2026-05-14T13:05:38+02:00</time>
      </trkpt>
      <trkpt lat="46.90383" lon="4.99726">
        <ele>176.7998</ele>
        <time>2026-05-14T13:05:39+02:00</time>
      </trkpt>
      <trkpt lat="46.90379" lon="4.99731">
        <ele>176.7998</ele>
        <time>2026-05-14T13:05:40+02:00</time>
      </trkpt>
      <trkpt lat="46.90375" lon="4.99736">
        <ele>176.5</ele>
        <time>2026-05-14T13:05:41+02:00</time>
      </trkpt>
      <trkpt lat="46.9037" lon="4.99742">
        <ele>176.2998</ele>
        <time>2026-05-14T13:05:42+02:00</time>
      </trkpt>
      <trkpt lat="46.90366" lon="4.99747">
        <ele>176.10059</ele>
        <time>2026-05-14T13:05:43+02:00</time>
      </trkpt>
      <trkpt lat="46.90362" lon="4.99753">
        <ele>176.2002</ele>
        <time>2026-05-14T13:05:44+02:00</time>
      </trkpt>
      <trkpt lat="46.90358" lon="4.99758">
        <ele>176</ele>
        <time>2026-05-14T13:05:45+02:00</time>
      </trkpt>
      <trkpt lat="46.90354" lon="4.99763">
        <ele>175.90039</ele>
        <time>2026-05-14T13:05:46+02:00</time>
      </trkpt>
      <trkpt lat="46.9035" lon="4.99769">
        <ele>175.7998</ele>
        <time>2026-05-14T13:05:47+02:00</time>
      </trkpt>
      <trkpt lat="46.90346" lon="4.99773">
        <ele>175.60059</ele>
        <time>2026-05-14T13:05:48+02:00</time>
      </trkpt>
      <trkpt lat="46.90342" lon="4.99777">
        <ele>175.2998</ele>
        <time>2026-05-14T13:05:49+02:00</time>
      </trkpt>
      <trkpt lat="46.90339" lon="4.99781">
        <ele>175.2998</ele>
        <time>2026-05-14T13:05:50+02:00</time>
      </trkpt>
      <trkpt lat="46.90336" lon="4.99785">
        <ele>174.90039</ele>
        <time>2026-05-14T13:05:51+02:00</time>
      </trkpt>
      <trkpt lat="46.90333" lon="4.9979">
        <ele>174.90039</ele>
        <time>2026-05-14T13:05:52+02:00</time>
      </trkpt>
      <trkpt lat="46.90333" lon="4.99795">
        <ele>174.7002</ele>
        <time>2026-05-14T13:05:53+02:00</time>
      </trkpt>
      <trkpt lat="46.90334" lon="4.99798">
        <ele>174.7002</ele>
        <time>2026-05-14T13:05:54+02:00</time>
      </trkpt>
      <trkpt lat="46.90336" lon="4.99802">
        <ele>174.5</ele>
        <time>2026-05-14T13:05:55+02:00</time>
      </trkpt>
      <trkpt lat="46.90338" lon="4.99805">
        <ele>174.7002</ele>
        <time>2026-05-14T13:05:56+02:00</time>
      </trkpt>
      <trkpt lat="46.9034" lon="4.99808">
        <ele>174.7002</ele>
        <time>2026-05-14T13:05:57+02:00</time>
      </trkpt>
      <trkpt lat="46.90343" lon="4.99812">
        <ele>174.60059</ele>
        <time>2026-05-14T13:05:58+02:00</time>
      </trkpt>
      <trkpt lat="46.90345" lon="4.99816">
        <ele>174.60059</ele>
        <time>2026-05-14T13:05:59+02:00</time>
      </trkpt>
      <trkpt lat="46.90348" lon="4.9982">
        <ele>174.40039</ele>
        <time>2026-05-14T13:06:00+02:00</time>
      </trkpt>
      <trkpt lat="46.9035" lon="4.99824">
        <ele>174.7002</ele>
        <time>2026-05-14T13:06:01+02:00</time>
      </trkpt>
      <trkpt lat="46.90354" lon="4.99828">
        <ele>174.40039</ele>
        <time>2026-05-14T13:06:02+02:00</time>
      </trkpt>
      <trkpt lat="46.90357" lon="4.99832">
        <ele>174.7002</ele>
        <time>2026-05-14T13:06:03+02:00</time>
      </trkpt>
      <trkpt lat="46.90359" lon="4.99836">
        <ele>174.5</ele>
        <time>2026-05-14T13:06:04+02:00</time>
      </trkpt>
      <trkpt lat="46.9036" lon="4.9984">
        <ele>174.5</ele>
        <time>2026-05-14T13:06:05+02:00</time>
      </trkpt>
      <trkpt lat="46.90358" lon="4.99844">
        <ele>174.2002</ele>
        <time>2026-05-14T13:06:06+02:00</time>
      </trkpt>
      <trkpt lat="46.90357" lon="4.99849">
        <ele>174.2002</ele>
        <time>2026-05-14T13:06:07+02:00</time>
      </trkpt>
      <trkpt lat="46.90355" lon="4.99856">
        <ele>173.90039</ele>
        <time>2026-05-14T13:06:08+02:00</time>
      </trkpt>
      <trkpt lat="46.90353" lon="4.99864">
        <ele>173.7002</ele>
        <time>2026-05-14T13:06:09+02:00</time>
      </trkpt>
      <trkpt lat="46.90353" lon="4.99872">
        <ele>173.7002</ele>
        <time>2026-05-14T13:06:10+02:00</time>
      </trkpt>
      <trkpt lat="46.90354" lon="4.9988">
        <ele>173.7002</ele>
        <time>2026-05-14T13:06:11+02:00</time>
      </trkpt>
      <trkpt lat="46.90362" lon="4.99903">
        <ele>173.7998</ele>
        <time>2026-05-14T13:06:12+02:00</time>
      </trkpt>
      <trkpt lat="46.90365" lon="4.99909">
        <ele>173.7998</ele>
        <time>2026-05-14T13:06:13+02:00</time>
      </trkpt>
      <trkpt lat="46.90369" lon="4.99915">
        <ele>173.7998</ele>
        <time>2026-05-14T13:06:14+02:00</time>
      </trkpt>
      <trkpt lat="46.90373" lon="4.99922">
        <ele>173.7998</ele>
        <time>2026-05-14T13:06:15+02:00</time>
      </trkpt>
      <trkpt lat="46.90376" lon="4.99928">
        <ele>173.7998</ele>
        <time>2026-05-14T13:06:16+02:00</time>
      </trkpt>
      <trkpt lat="46.90379" lon="4.99934">
        <ele>173.7998</ele>
        <time>2026-05-14T13:06:17+02:00</time>
      </trkpt>
      <trkpt lat="46.90383" lon="4.9994">
        <ele>173.7998</ele>
        <time>2026-05-14T13:06:18+02:00</time>
      </trkpt>
      <trkpt lat="46.90386" lon="4.99946">
        <ele>173.7998</ele>
        <time>2026-05-14T13:06:19+02:00</time>
      </trkpt>
      <trkpt lat="46.9039" lon="4.99953">
        <ele>173.7998</ele>
        <time>2026-05-14T13:06:20+02:00</time>
      </trkpt>
      <trkpt lat="46.90394" lon="4.99959">
        <ele>173.7998</ele>
        <time>2026-05-14T13:06:21+02:00</time>
      </trkpt>
      <trkpt lat="46.90397" lon="4.99966">
        <ele>173.7998</ele>
        <time>2026-05-14T13:06:22+02:00</time>
      </trkpt>
      <trkpt lat="46.904" lon="4.99972">
        <ele>173.7998</ele>
        <time>2026-05-14T13:06:23+02:00</time>
      </trkpt>
      <trkpt lat="46.90404" lon="4.99979">
        <ele>173.90039</ele>
        <time>2026-05-14T13:06:24+02:00</time>
      </trkpt>
      <trkpt lat="46.90408" lon="4.99985">
        <ele>173.7998</ele>
        <time>2026-05-14T13:06:25+02:00</time>
      </trkpt>
      <trkpt lat="46.90412" lon="4.99992">
        <ele>173.7998</ele>
        <time>2026-05-14T13:06:26+02:00</time>
      </trkpt>
      <trkpt lat="46.90415" lon="4.99998">
        <ele>173.90039</ele>
        <time>2026-05-14T13:06:27+02:00</time>
      </trkpt>
      <trkpt lat="46.90419" lon="5.00005">
        <ele>173.90039</ele>
        <time>2026-05-14T13:06:28+02:00</time>
      </trkpt>
      <trkpt lat="46.90423" lon="5.00011">
        <ele>173.90039</ele>
        <time>2026-05-14T13:06:29+02:00</time>
      </trkpt>
      <trkpt lat="46.90426" lon="5.00017">
        <ele>173.90039</ele>
        <time>2026-05-14T13:06:30+02:00</time>
      </trkpt>
      <trkpt lat="46.9043" lon="5.00024">
        <ele>173.90039</ele>
        <time>2026-05-14T13:06:31+02:00</time>
      </trkpt>
      <trkpt lat="46.90434" lon="5.0003">
        <ele>173.90039</ele>
        <time>2026-05-14T13:06:32+02:00</time>
      </trkpt>
      <trkpt lat="46.90437" lon="5.00036">
        <ele>173.90039</ele>
        <time>2026-05-14T13:06:33+02:00</time>
      </trkpt>
      <trkpt lat="46.90441" lon="5.00043">
        <ele>173.90039</ele>
        <time>2026-05-14T13:06:34+02:00</time>
      </trkpt>
      <trkpt lat="46.90444" lon="5.00049">
        <ele>173.90039</ele>
        <time>2026-05-14T13:06:35+02:00</time>
      </trkpt>
      <trkpt lat="46.90448" lon="5.00055">
        <ele>173.90039</ele>
        <time>2026-05-14T13:06:36+02:00</time>
      </trkpt>
      <trkpt lat="46.90452" lon="5.00061">
        <ele>173.90039</ele>
        <time>2026-05-14T13:06:37+02:00</time>
      </trkpt>
      <trkpt lat="46.90455" lon="5.00067">
        <ele>173.90039</ele>
        <time>2026-05-14T13:06:38+02:00</time>
      </trkpt>
      <trkpt lat="46.90459" lon="5.00073">
        <ele>173.90039</ele>
        <time>2026-05-14T13:06:39+02:00</time>
      </trkpt>
      <trkpt lat="46.90462" lon="5.00078">
        <ele>173.90039</ele>
        <time>2026-05-14T13:06:40+02:00</time>
      </trkpt>
      <trkpt lat="46.90465" lon="5.00084">
        <ele>173.90039</ele>
        <time>2026-05-14T13:06:41+02:00</time>
      </trkpt>
      <trkpt lat="46.90469" lon="5.00089">
        <ele>173.90039</ele>
        <time>2026-05-14T13:06:42+02:00</time>
      </trkpt>
      <trkpt lat="46.90473" lon="5.00096">
        <ele>173.90039</ele>
        <time>2026-05-14T13:06:43+02:00</time>
      </trkpt>
      <trkpt lat="46.90476" lon="5.00102">
        <ele>173.90039</ele>
        <time>2026-05-14T13:06:44+02:00</time>
      </trkpt>
      <trkpt lat="46.9048" lon="5.00108">
        <ele>173.90039</ele>
        <time>2026-05-14T13:06:45+02:00</time>
      </trkpt>
      <trkpt lat="46.90484" lon="5.00115">
        <ele>173.90039</ele>
        <time>2026-05-14T13:06:46+02:00</time>
      </trkpt>
      <trkpt lat="46.90487" lon="5.00121">
        <ele>173.90039</ele>
        <time>2026-05-14T13:06:47+02:00</time>
      </trkpt>
      <trkpt lat="46.90491" lon="5.00127">
        <ele>173.90039</ele>
        <time>2026-05-14T13:06:48+02:00</time>
      </trkpt>
      <trkpt lat="46.90494" lon="5.00132">
        <ele>173.90039</ele>
        <time>2026-05-14T13:06:49+02:00</time>
      </trkpt>
      <trkpt lat="46.90497" lon="5.00138">
        <ele>173.90039</ele>
        <time>2026-05-14T13:06:50+02:00</time>
      </trkpt>
      <trkpt lat="46.905" lon="5.00144">
        <ele>173.90039</ele>
        <time>2026-05-14T13:06:51+02:00</time>
      </trkpt>
      <trkpt lat="46.90503" lon="5.0015">
        <ele>173.90039</ele>
        <time>2026-05-14T13:06:52+02:00</time>
      </trkpt>
      <trkpt lat="46.90507" lon="5.00155">
        <ele>173.90039</ele>
        <time>2026-05-14T13:06:53+02:00</time>
      </trkpt>
      <trkpt lat="46.9051" lon="5.00161">
        <ele>173.90039</ele>
        <time>2026-05-14T13:06:54+02:00</time>
      </trkpt>
      <trkpt lat="46.90514" lon="5.00167">
        <ele>173.90039</ele>
        <time>2026-05-14T13:06:55+02:00</time>
      </trkpt>
      <trkpt lat="46.90517" lon="5.00173">
        <ele>173.90039</ele>
        <time>2026-05-14T13:06:56+02:00</time>
      </trkpt>
      <trkpt lat="46.90521" lon="5.00179">
        <ele>174</ele>
        <time>2026-05-14T13:06:57+02:00</time>
      </trkpt>
      <trkpt lat="46.90524" lon="5.00185">
        <ele>174</ele>
        <time>2026-05-14T13:06:58+02:00</time>
      </trkpt>
      <trkpt lat="46.90528" lon="5.00191">
        <ele>174</ele>
        <time>2026-05-14T13:06:59+02:00</time>
      </trkpt>
      <trkpt lat="46.90532" lon="5.00197">
        <ele>174</ele>
        <time>2026-05-14T13:07:00+02:00</time>
      </trkpt>
      <trkpt lat="46.90535" lon="5.00204">
        <ele>174</ele>
        <time>2026-05-14T13:07:01+02:00</time>
      </trkpt>
      <trkpt lat="46.90539" lon="5.0021">
        <ele>174</ele>
        <time>2026-05-14T13:07:02+02:00</time>
      </trkpt>
      <trkpt lat="46.90542" lon="5.00216">
        <ele>174</ele>
        <time>2026-05-14T13:07:03+02:00</time>
      </trkpt>
      <trkpt lat="46.90546" lon="5.00222">
        <ele>174</ele>
        <time>2026-05-14T13:07:04+02:00</time>
      </trkpt>
      <trkpt lat="46.9055" lon="5.00228">
        <ele>174</ele>
        <time>2026-05-14T13:07:05+02:00</time>
      </trkpt>
      <trkpt lat="46.90553" lon="5.00234">
        <ele>174</ele>
        <time>2026-05-14T13:07:06+02:00</time>
      </trkpt>
      <trkpt lat="46.90557" lon="5.00241">
        <ele>174</ele>
        <time>2026-05-14T13:07:07+02:00</time>
      </trkpt>
      <trkpt lat="46.90561" lon="5.00247">
        <ele>174</ele>
        <time>2026-05-14T13:07:08+02:00</time>
      </trkpt>
      <trkpt lat="46.90564" lon="5.00253">
        <ele>174</ele>
        <time>2026-05-14T13:07:09+02:00</time>
      </trkpt>
      <trkpt lat="46.90568" lon="5.0026">
        <ele>173.90039</ele>
        <time>2026-05-14T13:07:10+02:00</time>
      </trkpt>
      <trkpt lat="46.90572" lon="5.00266">
        <ele>174</ele>
        <time>2026-05-14T13:07:11+02:00</time>
      </trkpt>
      <trkpt lat="46.90576" lon="5.00272">
        <ele>174</ele>
        <time>2026-05-14T13:07:12+02:00</time>
      </trkpt>
      <trkpt lat="46.90579" lon="5.00279">
        <ele>174</ele>
        <time>2026-05-14T13:07:13+02:00</time>
      </trkpt>
      <trkpt lat="46.90583" lon="5.00285">
        <ele>174</ele>
        <time>2026-05-14T13:07:14+02:00</time>
      </trkpt>
      <trkpt lat="46.90587" lon="5.00291">
        <ele>174</ele>
        <time>2026-05-14T13:07:15+02:00</time>
      </trkpt>
      <trkpt lat="46.90591" lon="5.00297">
        <ele>173.90039</ele>
        <time>2026-05-14T13:07:16+02:00</time>
      </trkpt>
      <trkpt lat="46.90595" lon="5.00303">
        <ele>174</ele>
        <time>2026-05-14T13:07:17+02:00</time>
      </trkpt>
      <trkpt lat="46.90599" lon="5.0031">
        <ele>174</ele>
        <time>2026-05-14T13:07:18+02:00</time>
      </trkpt>
      <trkpt lat="46.90603" lon="5.00316">
        <ele>174</ele>
        <time>2026-05-14T13:07:19+02:00</time>
      </trkpt>
      <trkpt lat="46.90606" lon="5.00322">
        <ele>174</ele>
        <time>2026-05-14T13:07:20+02:00</time>
      </trkpt>
      <trkpt lat="46.9061" lon="5.00328">
        <ele>174</ele>
        <time>2026-05-14T13:07:21+02:00</time>
      </trkpt>
      <trkpt lat="46.90613" lon="5.00333">
        <ele>173.90039</ele>
        <time>2026-05-14T13:07:22+02:00</time>
      </trkpt>
      <trkpt lat="46.90616" lon="5.00339">
        <ele>173.90039</ele>
        <time>2026-05-14T13:07:23+02:00</time>
      </trkpt>
      <trkpt lat="46.90618" lon="5.00345">
        <ele>173.90039</ele>
        <time>2026-05-14T13:07:24+02:00</time>
      </trkpt>
      <trkpt lat="46.9062" lon="5.00351">
        <ele>173.90039</ele>
        <time>2026-05-14T13:07:25+02:00</time>
      </trkpt>
      <trkpt lat="46.90623" lon="5.00356">
        <ele>173.90039</ele>
        <time>2026-05-14T13:07:26+02:00</time>
      </trkpt>
      <trkpt lat="46.90627" lon="5.00361">
        <ele>174</ele>
        <time>2026-05-14T13:07:27+02:00</time>
      </trkpt>
      <trkpt lat="46.9063" lon="5.00366">
        <ele>174</ele>
        <time>2026-05-14T13:07:28+02:00</time>
      </trkpt>
      <trkpt lat="46.90634" lon="5.00372">
        <ele>174</ele>
        <time>2026-05-14T13:07:29+02:00</time>
      </trkpt>
      <trkpt lat="46.90637" lon="5.00378">
        <ele>173.90039</ele>
        <time>2026-05-14T13:07:30+02:00</time>
      </trkpt>
      <trkpt lat="46.9064" lon="5.00384">
        <ele>173.90039</ele>
        <time>2026-05-14T13:07:31+02:00</time>
      </trkpt>
      <trkpt lat="46.90644" lon="5.00391">
        <ele>173.90039</ele>
        <time>2026-05-14T13:07:32+02:00</time>
      </trkpt>
      <trkpt lat="46.90647" lon="5.00398">
        <ele>174</ele>
        <time>2026-05-14T13:07:33+02:00</time>
      </trkpt>
      <trkpt lat="46.90651" lon="5.00405">
        <ele>174</ele>
        <time>2026-05-14T13:07:34+02:00</time>
      </trkpt>
      <trkpt lat="46.90654" lon="5.00412">
        <ele>174</ele>
        <time>2026-05-14T13:07:35+02:00</time>
      </trkpt>
      <trkpt lat="46.90658" lon="5.00419">
        <ele>174</ele>
        <time>2026-05-14T13:07:36+02:00</time>
      </trkpt>
      <trkpt lat="46.90661" lon="5.00425">
        <ele>174</ele>
        <time>2026-05-14T13:07:37+02:00</time>
      </trkpt>
      <trkpt lat="46.90666" lon="5.0043">
        <ele>174</ele>
        <time>2026-05-14T13:07:38+02:00</time>
      </trkpt>
      <trkpt lat="46.9067" lon="5.00435">
        <ele>174</ele>
        <time>2026-05-14T13:07:39+02:00</time>
      </trkpt>
      <trkpt lat="46.90674" lon="5.00439">
        <ele>174</ele>
        <time>2026-05-14T13:07:40+02:00</time>
      </trkpt>
      <trkpt lat="46.90677" lon="5.00445">
        <ele>174</ele>
        <time>2026-05-14T13:07:41+02:00</time>
      </trkpt>
      <trkpt lat="46.90681" lon="5.0045">
        <ele>174</ele>
        <time>2026-05-14T13:07:42+02:00</time>
      </trkpt>
      <trkpt lat="46.90684" lon="5.00455">
        <ele>174</ele>
        <time>2026-05-14T13:07:43+02:00</time>
      </trkpt>
      <trkpt lat="46.90687" lon="5.0046">
        <ele>174</ele>
        <time>2026-05-14T13:07:44+02:00</time>
      </trkpt>
      <trkpt lat="46.9069" lon="5.00467">
        <ele>173.90039</ele>
        <time>2026-05-14T13:07:45+02:00</time>
      </trkpt>
      <trkpt lat="46.90692" lon="5.00473">
        <ele>174</ele>
        <time>2026-05-14T13:07:46+02:00</time>
      </trkpt>
      <trkpt lat="46.90695" lon="5.00479">
        <ele>174</ele>
        <time>2026-05-14T13:07:47+02:00</time>
      </trkpt>
      <trkpt lat="46.90697" lon="5.00486">
        <ele>174</ele>
        <time>2026-05-14T13:07:48+02:00</time>
      </trkpt>
      <trkpt lat="46.907" lon="5.00493">
        <ele>174</ele>
        <time>2026-05-14T13:07:49+02:00</time>
      </trkpt>
      <trkpt lat="46.90703" lon="5.005">
        <ele>174</ele>
        <time>2026-05-14T13:07:50+02:00</time>
      </trkpt>
      <trkpt lat="46.90705" lon="5.00507">
        <ele>174</ele>
        <time>2026-05-14T13:07:51+02:00</time>
      </trkpt>
      <trkpt lat="46.90708" lon="5.00513">
        <ele>174</ele>
        <time>2026-05-14T13:07:52+02:00</time>
      </trkpt>
      <trkpt lat="46.90711" lon="5.0052">
        <ele>174</ele>
        <time>2026-05-14T13:07:53+02:00</time>
      </trkpt>
      <trkpt lat="46.90713" lon="5.00527">
        <ele>173.90039</ele>
        <time>2026-05-14T13:07:54+02:00</time>
      </trkpt>
      <trkpt lat="46.90716" lon="5.00534">
        <ele>174</ele>
        <time>2026-05-14T13:07:55+02:00</time>
      </trkpt>
      <trkpt lat="46.90718" lon="5.00541">
        <ele>174</ele>
        <time>2026-05-14T13:07:56+02:00</time>
      </trkpt>
      <trkpt lat="46.9072" lon="5.00548">
        <ele>174</ele>
        <time>2026-05-14T13:07:57+02:00</time>
      </trkpt>
      <trkpt lat="46.90722" lon="5.00555">
        <ele>174</ele>
        <time>2026-05-14T13:07:58+02:00</time>
      </trkpt>
      <trkpt lat="46.90725" lon="5.00562">
        <ele>174</ele>
        <time>2026-05-14T13:07:59+02:00</time>
      </trkpt>
      <trkpt lat="46.90727" lon="5.00569">
        <ele>174</ele>
        <time>2026-05-14T13:08:00+02:00</time>
      </trkpt>
      <trkpt lat="46.90729" lon="5.00576">
        <ele>174</ele>
        <time>2026-05-14T13:08:01+02:00</time>
      </trkpt>
      <trkpt lat="46.9073" lon="5.00581">
        <ele>174</ele>
        <time>2026-05-14T13:08:02+02:00</time>
      </trkpt>
      <trkpt lat="46.90732" lon="5.00586">
        <ele>174</ele>
        <time>2026-05-14T13:08:03+02:00</time>
      </trkpt>
      <trkpt lat="46.90732" lon="5.00589">
        <ele>174</ele>
        <time>2026-05-14T13:08:04+02:00</time>
      </trkpt>
      <trkpt lat="46.90733" lon="5.00592">
        <ele>174</ele>
        <time>2026-05-14T13:08:05+02:00</time>
      </trkpt>
      <trkpt lat="46.90734" lon="5.00595">
        <ele>174</ele>
        <time>2026-05-14T13:08:06+02:00</time>
      </trkpt>
      <trkpt lat="46.90735" lon="5.00597">
        <ele>174</ele>
        <time>2026-05-14T13:08:07+02:00</time>
      </trkpt>
      <trkpt lat="46.90736" lon="5.00597">
        <ele>174</ele>
        <time>2026-05-14T13:08:08+02:00</time>
      </trkpt>
      <trkpt lat="46.90737" lon="5.00597">
        <ele>174</ele>
        <time>2026-05-14T13:08:09+02:00</time>
      </trkpt>
      <trkpt lat="46.90737" lon="5.00596">
        <ele>174</ele>
        <time>2026-05-14T13:08:10+02:00</time>
      </trkpt>
      <trkpt lat="46.90736" lon="5.00595">
        <ele>174</ele>
        <time>2026-05-14T13:08:11+02:00</time>
      </trkpt>
      <trkpt lat="46.90731" lon="5.00583">
        <ele>174</ele>
        <time>2026-05-14T13:08:15+02:00</time>
      </trkpt>
      <trkpt lat="46.9073" lon="5.0058">
        <ele>174</ele>
        <time>2026-05-14T13:08:16+02:00</time>
      </trkpt>
      <trkpt lat="46.90729" lon="5.00577">
        <ele>174</ele>
        <time>2026-05-14T13:08:17+02:00</time>
      </trkpt>
      <trkpt lat="46.90728" lon="5.00572">
        <ele>174</ele>
        <time>2026-05-14T13:08:18+02:00</time>
      </trkpt>
      <trkpt lat="46.90727" lon="5.00568">
        <ele>174</ele>
        <time>2026-05-14T13:08:19+02:00</time>
      </trkpt>
      <trkpt lat="46.90726" lon="5.00563">
        <ele>174</ele>
        <time>2026-05-14T13:08:20+02:00</time>
      </trkpt>
      <trkpt lat="46.90725" lon="5.00557">
        <ele>174</ele>
        <time>2026-05-14T13:08:21+02:00</time>
      </trkpt>
      <trkpt lat="46.90724" lon="5.00552">
        <ele>174</ele>
        <time>2026-05-14T13:08:22+02:00</time>
      </trkpt>
      <trkpt lat="46.90724" lon="5.00546">
        <ele>174</ele>
        <time>2026-05-14T13:08:23+02:00</time>
      </trkpt>
      <trkpt lat="46.90723" lon="5.0054">
        <ele>174</ele>
        <time>2026-05-14T13:08:24+02:00</time>
      </trkpt>
      <trkpt lat="46.90722" lon="5.00534">
        <ele>173.90039</ele>
        <time>2026-05-14T13:08:25+02:00</time>
      </trkpt>
      <trkpt lat="46.90721" lon="5.00527">
        <ele>173.90039</ele>
        <time>2026-05-14T13:08:26+02:00</time>
      </trkpt>
      <trkpt lat="46.9072" lon="5.00521">
        <ele>173.90039</ele>
        <time>2026-05-14T13:08:27+02:00</time>
      </trkpt>
      <trkpt lat="46.90718" lon="5.00515">
        <ele>173.90039</ele>
        <time>2026-05-14T13:08:28+02:00</time>
      </trkpt>
      <trkpt lat="46.90717" lon="5.00508">
        <ele>173.90039</ele>
        <time>2026-05-14T13:08:29+02:00</time>
      </trkpt>
      <trkpt lat="46.90716" lon="5.00501">
        <ele>173.90039</ele>
        <time>2026-05-14T13:08:30+02:00</time>
      </trkpt>
      <trkpt lat="46.90715" lon="5.00495">
        <ele>173.90039</ele>
        <time>2026-05-14T13:08:31+02:00</time>
      </trkpt>
      <trkpt lat="46.90714" lon="5.00488">
        <ele>173.90039</ele>
        <time>2026-05-14T13:08:32+02:00</time>
      </trkpt>
      <trkpt lat="46.90713" lon="5.00481">
        <ele>173.90039</ele>
        <time>2026-05-14T13:08:33+02:00</time>
      </trkpt>
      <trkpt lat="46.90711" lon="5.00474">
        <ele>174</ele>
        <time>2026-05-14T13:08:34+02:00</time>
      </trkpt>
      <trkpt lat="46.9071" lon="5.00467">
        <ele>174</ele>
        <time>2026-05-14T13:08:35+02:00</time>
      </trkpt>
      <trkpt lat="46.90709" lon="5.0046">
        <ele>174.10059</ele>
        <time>2026-05-14T13:08:36+02:00</time>
      </trkpt>
      <trkpt lat="46.90708" lon="5.00453">
        <ele>174.2002</ele>
        <time>2026-05-14T13:08:37+02:00</time>
      </trkpt>
      <trkpt lat="46.90707" lon="5.00446">
        <ele>174.2002</ele>
        <time>2026-05-14T13:08:38+02:00</time>
      </trkpt>
      <trkpt lat="46.90706" lon="5.00439">
        <ele>173.90039</ele>
        <time>2026-05-14T13:08:39+02:00</time>
      </trkpt>
      <trkpt lat="46.90705" lon="5.00432">
        <ele>173.90039</ele>
        <time>2026-05-14T13:08:40+02:00</time>
      </trkpt>
      <trkpt lat="46.90704" lon="5.00425">
        <ele>174</ele>
        <time>2026-05-14T13:08:41+02:00</time>
      </trkpt>
      <trkpt lat="46.90704" lon="5.00417">
        <ele>174.40039</ele>
        <time>2026-05-14T13:08:42+02:00</time>
      </trkpt>
      <trkpt lat="46.90704" lon="5.0041">
        <ele>175</ele>
        <time>2026-05-14T13:08:43+02:00</time>
      </trkpt>
      <trkpt lat="46.90704" lon="5.00403">
        <ele>175</ele>
        <time>2026-05-14T13:08:44+02:00</time>
      </trkpt>
      <trkpt lat="46.90706" lon="5.00396">
        <ele>175.60059</ele>
        <time>2026-05-14T13:08:45+02:00</time>
      </trkpt>
      <trkpt lat="46.90708" lon="5.00389">
        <ele>176.5</ele>
        <time>2026-05-14T13:08:46+02:00</time>
      </trkpt>
      <trkpt lat="46.90709" lon="5.00382">
        <ele>177</ele>
        <time>2026-05-14T13:08:47+02:00</time>
      </trkpt>
      <trkpt lat="46.90712" lon="5.00375">
        <ele>177.60059</ele>
        <time>2026-05-14T13:08:48+02:00</time>
      </trkpt>
      <trkpt lat="46.90716" lon="5.00368">
        <ele>178</ele>
        <time>2026-05-14T13:08:49+02:00</time>
      </trkpt>
      <trkpt lat="46.90719" lon="5.00362">
        <ele>179.10059</ele>
        <time>2026-05-14T13:08:50+02:00</time>
      </trkpt>
      <trkpt lat="46.90723" lon="5.00356">
        <ele>179.5</ele>
        <time>2026-05-14T13:08:51+02:00</time>
      </trkpt>
      <trkpt lat="46.90727" lon="5.0035">
        <ele>179.60059</ele>
        <time>2026-05-14T13:08:52+02:00</time>
      </trkpt>
      <trkpt lat="46.9073" lon="5.00344">
        <ele>179.7998</ele>
        <time>2026-05-14T13:08:53+02:00</time>
      </trkpt>
      <trkpt lat="46.90734" lon="5.00338">
        <ele>179.90039</ele>
        <time>2026-05-14T13:08:54+02:00</time>
      </trkpt>
      <trkpt lat="46.90737" lon="5.00332">
        <ele>180</ele>
        <time>2026-05-14T13:08:55+02:00</time>
      </trkpt>
      <trkpt lat="46.90741" lon="5.00326">
        <ele>180</ele>
        <time>2026-05-14T13:08:56+02:00</time>
      </trkpt>
      <trkpt lat="46.90744" lon="5.00321">
        <ele>180</ele>
        <time>2026-05-14T13:08:57+02:00</time>
      </trkpt>
      <trkpt lat="46.90747" lon="5.00315">
        <ele>180.10059</ele>
        <time>2026-05-14T13:08:58+02:00</time>
      </trkpt>
      <trkpt lat="46.9075" lon="5.00309">
        <ele>179.90039</ele>
        <time>2026-05-14T13:08:59+02:00</time>
      </trkpt>
      <trkpt lat="46.90753" lon="5.00303">
        <ele>179.90039</ele>
        <time>2026-05-14T13:09:00+02:00</time>
      </trkpt>
      <trkpt lat="46.90756" lon="5.00297">
        <ele>179.7002</ele>
        <time>2026-05-14T13:09:01+02:00</time>
      </trkpt>
      <trkpt lat="46.90759" lon="5.00291">
        <ele>179.7002</ele>
        <time>2026-05-14T13:09:02+02:00</time>
      </trkpt>
      <trkpt lat="46.90761" lon="5.00284">
        <ele>179.5</ele>
        <time>2026-05-14T13:09:03+02:00</time>
      </trkpt>
      <trkpt lat="46.90763" lon="5.00277">
        <ele>179.5</ele>
        <time>2026-05-14T13:09:04+02:00</time>
      </trkpt>
      <trkpt lat="46.90765" lon="5.00269">
        <ele>179.2002</ele>
        <time>2026-05-14T13:09:05+02:00</time>
      </trkpt>
      <trkpt lat="46.90766" lon="5.00262">
        <ele>179.2002</ele>
        <time>2026-05-14T13:09:06+02:00</time>
      </trkpt>
      <trkpt lat="46.90767" lon="5.00255">
        <ele>179.2002</ele>
        <time>2026-05-14T13:09:07+02:00</time>
      </trkpt>
      <trkpt lat="46.90767" lon="5.00249">
        <ele>179.2002</ele>
        <time>2026-05-14T13:09:08+02:00</time>
      </trkpt>
      <trkpt lat="46.90767" lon="5.00242">
        <ele>179.2002</ele>
        <time>2026-05-14T13:09:09+02:00</time>
      </trkpt>
      <trkpt lat="46.90766" lon="5.00235">
        <ele>179.2002</ele>
        <time>2026-05-14T13:09:10+02:00</time>
      </trkpt>
      <trkpt lat="46.90765" lon="5.00229">
        <ele>179.2002</ele>
        <time>2026-05-14T13:09:11+02:00</time>
      </trkpt>
      <trkpt lat="46.90763" lon="5.00224">
        <ele>179.2998</ele>
        <time>2026-05-14T13:09:12+02:00</time>
      </trkpt>
      <trkpt lat="46.90761" lon="5.0022">
        <ele>179.2998</ele>
        <time>2026-05-14T13:09:13+02:00</time>
      </trkpt>
      <trkpt lat="46.90758" lon="5.00215">
        <ele>179.40039</ele>
        <time>2026-05-14T13:09:14+02:00</time>
      </trkpt>
      <trkpt lat="46.90756" lon="5.00211">
        <ele>179.2998</ele>
        <time>2026-05-14T13:09:15+02:00</time>
      </trkpt>
      <trkpt lat="46.90753" lon="5.00207">
        <ele>179.40039</ele>
        <time>2026-05-14T13:09:16+02:00</time>
      </trkpt>
      <trkpt lat="46.9075" lon="5.00203">
        <ele>179.2998</ele>
        <time>2026-05-14T13:09:17+02:00</time>
      </trkpt>
      <trkpt lat="46.90747" lon="5.00199">
        <ele>179.40039</ele>
        <time>2026-05-14T13:09:18+02:00</time>
      </trkpt>
      <trkpt lat="46.90744" lon="5.00196">
        <ele>179.40039</ele>
        <time>2026-05-14T13:09:19+02:00</time>
      </trkpt>
      <trkpt lat="46.9074" lon="5.00193">
        <ele>179.2998</ele>
        <time>2026-05-14T13:09:20+02:00</time>
      </trkpt>
      <trkpt lat="46.90737" lon="5.00189">
        <ele>179.2998</ele>
        <time>2026-05-14T13:09:21+02:00</time>
      </trkpt>
      <trkpt lat="46.90733" lon="5.00186">
        <ele>179.2998</ele>
        <time>2026-05-14T13:09:22+02:00</time>
      </trkpt>
      <trkpt lat="46.9073" lon="5.00183">
        <ele>179.2998</ele>
        <time>2026-05-14T13:09:23+02:00</time>
      </trkpt>
      <trkpt lat="46.90727" lon="5.00179">
        <ele>179.2998</ele>
        <time>2026-05-14T13:09:24+02:00</time>
      </trkpt>
      <trkpt lat="46.90723" lon="5.00175">
        <ele>179.2002</ele>
        <time>2026-05-14T13:09:25+02:00</time>
      </trkpt>
      <trkpt lat="46.90719" lon="5.00171">
        <ele>179.2002</ele>
        <time>2026-05-14T13:09:26+02:00</time>
      </trkpt>
      <trkpt lat="46.90715" lon="5.00166">
        <ele>179.10059</ele>
        <time>2026-05-14T13:09:27+02:00</time>
      </trkpt>
      <trkpt lat="46.9071" lon="5.00162">
        <ele>179.10059</ele>
        <time>2026-05-14T13:09:28+02:00</time>
      </trkpt>
      <trkpt lat="46.90706" lon="5.00157">
        <ele>179</ele>
        <time>2026-05-14T13:09:29+02:00</time>
      </trkpt>
      <trkpt lat="46.90703" lon="5.00153">
        <ele>179</ele>
        <time>2026-05-14T13:09:30+02:00</time>
      </trkpt>
      <trkpt lat="46.90699" lon="5.00148">
        <ele>178.90039</ele>
        <time>2026-05-14T13:09:31+02:00</time>
      </trkpt>
      <trkpt lat="46.90696" lon="5.00143">
        <ele>178.7002</ele>
        <time>2026-05-14T13:09:32+02:00</time>
      </trkpt>
      <trkpt lat="46.90692" lon="5.00137">
        <ele>178.7002</ele>
        <time>2026-05-14T13:09:33+02:00</time>
      </trkpt>
      <trkpt lat="46.90689" lon="5.00131">
        <ele>178.60059</ele>
        <time>2026-05-14T13:09:34+02:00</time>
      </trkpt>
      <trkpt lat="46.90686" lon="5.00124">
        <ele>178.5</ele>
        <time>2026-05-14T13:09:35+02:00</time>
      </trkpt>
      <trkpt lat="46.90684" lon="5.00118">
        <ele>178.40039</ele>
        <time>2026-05-14T13:09:36+02:00</time>
      </trkpt>
      <trkpt lat="46.90682" lon="5.00111">
        <ele>178.40039</ele>
        <time>2026-05-14T13:09:37+02:00</time>
      </trkpt>
      <trkpt lat="46.9068" lon="5.00104">
        <ele>178.2998</ele>
        <time>2026-05-14T13:09:38+02:00</time>
      </trkpt>
      <trkpt lat="46.90678" lon="5.00097">
        <ele>178.2002</ele>
        <time>2026-05-14T13:09:39+02:00</time>
      </trkpt>
      <trkpt lat="46.90676" lon="5.0009">
        <ele>178.2002</ele>
        <time>2026-05-14T13:09:40+02:00</time>
      </trkpt>
      <trkpt lat="46.90675" lon="5.00083">
        <ele>178.10059</ele>
        <time>2026-05-14T13:09:41+02:00</time>
      </trkpt>
      <trkpt lat="46.90672" lon="5.00076">
        <ele>178.10059</ele>
        <time>2026-05-14T13:09:42+02:00</time>
      </trkpt>
      <trkpt lat="46.90671" lon="5.00068">
        <ele>178</ele>
        <time>2026-05-14T13:09:43+02:00</time>
      </trkpt>
      <trkpt lat="46.90669" lon="5.00062">
        <ele>178.10059</ele>
        <time>2026-05-14T13:09:44+02:00</time>
      </trkpt>
      <trkpt lat="46.90668" lon="5.00055">
        <ele>178.10059</ele>
        <time>2026-05-14T13:09:45+02:00</time>
      </trkpt>
      <trkpt lat="46.90666" lon="5.00049">
        <ele>178.10059</ele>
        <time>2026-05-14T13:09:46+02:00</time>
      </trkpt>
      <trkpt lat="46.90664" lon="5.00043">
        <ele>178.10059</ele>
        <time>2026-05-14T13:09:47+02:00</time>
      </trkpt>
      <trkpt lat="46.90663" lon="5.00036">
        <ele>178.10059</ele>
        <time>2026-05-14T13:09:48+02:00</time>
      </trkpt>
      <trkpt lat="46.90662" lon="5.0003">
        <ele>178.10059</ele>
        <time>2026-05-14T13:09:49+02:00</time>
      </trkpt>
      <trkpt lat="46.9066" lon="5.00024">
        <ele>178.10059</ele>
        <time>2026-05-14T13:09:50+02:00</time>
      </trkpt>
      <trkpt lat="46.90659" lon="5.00017">
        <ele>178.2002</ele>
        <time>2026-05-14T13:09:51+02:00</time>
      </trkpt>
      <trkpt lat="46.90657" lon="5.00012">
        <ele>178.2002</ele>
        <time>2026-05-14T13:09:52+02:00</time>
      </trkpt>
      <trkpt lat="46.90655" lon="5.00005">
        <ele>178.2002</ele>
        <time>2026-05-14T13:09:53+02:00</time>
      </trkpt>
      <trkpt lat="46.90653" lon="4.99999">
        <ele>178.2002</ele>
        <time>2026-05-14T13:09:54+02:00</time>
      </trkpt>
      <trkpt lat="46.90651" lon="4.99993">
        <ele>178.2002</ele>
        <time>2026-05-14T13:09:55+02:00</time>
      </trkpt>
      <trkpt lat="46.9065" lon="4.99986">
        <ele>178.10059</ele>
        <time>2026-05-14T13:09:56+02:00</time>
      </trkpt>
      <trkpt lat="46.90648" lon="4.99979">
        <ele>178</ele>
        <time>2026-05-14T13:09:57+02:00</time>
      </trkpt>
      <trkpt lat="46.90646" lon="4.99972">
        <ele>178</ele>
        <time>2026-05-14T13:09:58+02:00</time>
      </trkpt>
      <trkpt lat="46.90645" lon="4.99966">
        <ele>178</ele>
        <time>2026-05-14T13:09:59+02:00</time>
      </trkpt>
      <trkpt lat="46.90643" lon="4.99959">
        <ele>177.90039</ele>
        <time>2026-05-14T13:10:00+02:00</time>
      </trkpt>
      <trkpt lat="46.90641" lon="4.99951">
        <ele>177.90039</ele>
        <time>2026-05-14T13:10:01+02:00</time>
      </trkpt>
      <trkpt lat="46.90639" lon="4.99944">
        <ele>177.7998</ele>
        <time>2026-05-14T13:10:02+02:00</time>
      </trkpt>
      <trkpt lat="46.90638" lon="4.99937">
        <ele>177.7002</ele>
        <time>2026-05-14T13:10:03+02:00</time>
      </trkpt>
      <trkpt lat="46.90636" lon="4.99929">
        <ele>177.7002</ele>
        <time>2026-05-14T13:10:04+02:00</time>
      </trkpt>
      <trkpt lat="46.90634" lon="4.99921">
        <ele>177.7002</ele>
        <time>2026-05-14T13:10:05+02:00</time>
      </trkpt>
      <trkpt lat="46.90632" lon="4.99913">
        <ele>177.7002</ele>
        <time>2026-05-14T13:10:06+02:00</time>
      </trkpt>
      <trkpt lat="46.9063" lon="4.99906">
        <ele>177.90039</ele>
        <time>2026-05-14T13:10:07+02:00</time>
      </trkpt>
      <trkpt lat="46.90628" lon="4.99898">
        <ele>178</ele>
        <time>2026-05-14T13:10:08+02:00</time>
      </trkpt>
      <trkpt lat="46.90626" lon="4.99891">
        <ele>178.2002</ele>
        <time>2026-05-14T13:10:09+02:00</time>
      </trkpt>
      <trkpt lat="46.90624" lon="4.99883">
        <ele>178.40039</ele>
        <time>2026-05-14T13:10:10+02:00</time>
      </trkpt>
      <trkpt lat="46.90622" lon="4.99875">
        <ele>178.60059</ele>
        <time>2026-05-14T13:10:11+02:00</time>
      </trkpt>
      <trkpt lat="46.9062" lon="4.99867">
        <ele>178.7998</ele>
        <time>2026-05-14T13:10:12+02:00</time>
      </trkpt>
      <trkpt lat="46.90618" lon="4.99859">
        <ele>179.10059</ele>
        <time>2026-05-14T13:10:13+02:00</time>
      </trkpt>
      <trkpt lat="46.90616" lon="4.99852">
        <ele>179.2998</ele>
        <time>2026-05-14T13:10:14+02:00</time>
      </trkpt>
      <trkpt lat="46.90614" lon="4.99844">
        <ele>179.2998</ele>
        <time>2026-05-14T13:10:15+02:00</time>
      </trkpt>
      <trkpt lat="46.90612" lon="4.99836">
        <ele>179.5</ele>
        <time>2026-05-14T13:10:16+02:00</time>
      </trkpt>
      <trkpt lat="46.9061" lon="4.99828">
        <ele>179.7002</ele>
        <time>2026-05-14T13:10:17+02:00</time>
      </trkpt>
      <trkpt lat="46.90608" lon="4.9982">
        <ele>179.7998</ele>
        <time>2026-05-14T13:10:18+02:00</time>
      </trkpt>
      <trkpt lat="46.90606" lon="4.99813">
        <ele>179.90039</ele>
        <time>2026-05-14T13:10:19+02:00</time>
      </trkpt>
      <trkpt lat="46.90604" lon="4.99805">
        <ele>180</ele>
        <time>2026-05-14T13:10:20+02:00</time>
      </trkpt>
      <trkpt lat="46.90602" lon="4.99798">
        <ele>180.10059</ele>
        <time>2026-05-14T13:10:21+02:00</time>
      </trkpt>
      <trkpt lat="46.906" lon="4.9979">
        <ele>180.2998</ele>
        <time>2026-05-14T13:10:22+02:00</time>
      </trkpt>
      <trkpt lat="46.90598" lon="4.99783">
        <ele>180.40039</ele>
        <time>2026-05-14T13:10:23+02:00</time>
      </trkpt>
      <trkpt lat="46.90596" lon="4.99776">
        <ele>180.40039</ele>
        <time>2026-05-14T13:10:24+02:00</time>
      </trkpt>
      <trkpt lat="46.90594" lon="4.99769">
        <ele>180.5</ele>
        <time>2026-05-14T13:10:25+02:00</time>
      </trkpt>
      <trkpt lat="46.90592" lon="4.99762">
        <ele>180.60059</ele>
        <time>2026-05-14T13:10:26+02:00</time>
      </trkpt>
      <trkpt lat="46.9059" lon="4.99755">
        <ele>180.60059</ele>
        <time>2026-05-14T13:10:27+02:00</time>
      </trkpt>
      <trkpt lat="46.90589" lon="4.99747">
        <ele>180.60059</ele>
        <time>2026-05-14T13:10:28+02:00</time>
      </trkpt>
      <trkpt lat="46.90587" lon="4.9974">
        <ele>180.60059</ele>
        <time>2026-05-14T13:10:29+02:00</time>
      </trkpt>
      <trkpt lat="46.90585" lon="4.99733">
        <ele>180.60059</ele>
        <time>2026-05-14T13:10:30+02:00</time>
      </trkpt>
      <trkpt lat="46.90584" lon="4.99725">
        <ele>180.60059</ele>
        <time>2026-05-14T13:10:31+02:00</time>
      </trkpt>
      <trkpt lat="46.90582" lon="4.99718">
        <ele>180.60059</ele>
        <time>2026-05-14T13:10:32+02:00</time>
      </trkpt>
      <trkpt lat="46.9058" lon="4.9971">
        <ele>180.5</ele>
        <time>2026-05-14T13:10:33+02:00</time>
      </trkpt>
      <trkpt lat="46.90578" lon="4.99703">
        <ele>180.40039</ele>
        <time>2026-05-14T13:10:34+02:00</time>
      </trkpt>
      <trkpt lat="46.90576" lon="4.99696">
        <ele>180.2998</ele>
        <time>2026-05-14T13:10:35+02:00</time>
      </trkpt>
      <trkpt lat="46.90574" lon="4.99688">
        <ele>180.2002</ele>
        <time>2026-05-14T13:10:36+02:00</time>
      </trkpt>
      <trkpt lat="46.90572" lon="4.99681">
        <ele>180.2002</ele>
        <time>2026-05-14T13:10:37+02:00</time>
      </trkpt>
      <trkpt lat="46.90571" lon="4.99674">
        <ele>180.10059</ele>
        <time>2026-05-14T13:10:38+02:00</time>
      </trkpt>
      <trkpt lat="46.90569" lon="4.99666">
        <ele>180.10059</ele>
        <time>2026-05-14T13:10:39+02:00</time>
      </trkpt>
      <trkpt lat="46.90567" lon="4.99659">
        <ele>180.10059</ele>
        <time>2026-05-14T13:10:40+02:00</time>
      </trkpt>
      <trkpt lat="46.90565" lon="4.99652">
        <ele>180.10059</ele>
        <time>2026-05-14T13:10:41+02:00</time>
      </trkpt>
      <trkpt lat="46.90563" lon="4.99645">
        <ele>180.10059</ele>
        <time>2026-05-14T13:10:42+02:00</time>
      </trkpt>
      <trkpt lat="46.90561" lon="4.99638">
        <ele>180.10059</ele>
        <time>2026-05-14T13:10:43+02:00</time>
      </trkpt>
      <trkpt lat="46.90559" lon="4.9963">
        <ele>180</ele>
        <time>2026-05-14T13:10:44+02:00</time>
      </trkpt>
      <trkpt lat="46.90557" lon="4.99623">
        <ele>180.10059</ele>
        <time>2026-05-14T13:10:45+02:00</time>
      </trkpt>
      <trkpt lat="46.90555" lon="4.99616">
        <ele>180.10059</ele>
        <time>2026-05-14T13:10:46+02:00</time>
      </trkpt>
      <trkpt lat="46.90553" lon="4.99608">
        <ele>180</ele>
        <time>2026-05-14T13:10:47+02:00</time>
      </trkpt>
      <trkpt lat="46.90552" lon="4.99601">
        <ele>180.10059</ele>
        <time>2026-05-14T13:10:48+02:00</time>
      </trkpt>
      <trkpt lat="46.9055" lon="4.99594">
        <ele>180.10059</ele>
        <time>2026-05-14T13:10:49+02:00</time>
      </trkpt>
      <trkpt lat="46.90549" lon="4.99587">
        <ele>180.10059</ele>
        <time>2026-05-14T13:10:50+02:00</time>
      </trkpt>
      <trkpt lat="46.90548" lon="4.9958">
        <ele>180</ele>
        <time>2026-05-14T13:10:51+02:00</time>
      </trkpt>
      <trkpt lat="46.90547" lon="4.99573">
        <ele>180</ele>
        <time>2026-05-14T13:10:52+02:00</time>
      </trkpt>
      <trkpt lat="46.90547" lon="4.99566">
        <ele>179.90039</ele>
        <time>2026-05-14T13:10:53+02:00</time>
      </trkpt>
      <trkpt lat="46.90547" lon="4.99559">
        <ele>179.90039</ele>
        <time>2026-05-14T13:10:54+02:00</time>
      </trkpt>
      <trkpt lat="46.90548" lon="4.99552">
        <ele>179.90039</ele>
        <time>2026-05-14T13:10:55+02:00</time>
      </trkpt>
      <trkpt lat="46.90548" lon="4.99545">
        <ele>179.90039</ele>
        <time>2026-05-14T13:10:56+02:00</time>
      </trkpt>
      <trkpt lat="46.90549" lon="4.99537">
        <ele>180</ele>
        <time>2026-05-14T13:10:57+02:00</time>
      </trkpt>
      <trkpt lat="46.9055" lon="4.9953">
        <ele>180</ele>
        <time>2026-05-14T13:10:58+02:00</time>
      </trkpt>
      <trkpt lat="46.90551" lon="4.99522">
        <ele>179.90039</ele>
        <time>2026-05-14T13:10:59+02:00</time>
      </trkpt>
      <trkpt lat="46.90551" lon="4.99514">
        <ele>179.90039</ele>
        <time>2026-05-14T13:11:00+02:00</time>
      </trkpt>
      <trkpt lat="46.90552" lon="4.99507">
        <ele>179.7998</ele>
        <time>2026-05-14T13:11:01+02:00</time>
      </trkpt>
      <trkpt lat="46.90552" lon="4.99499">
        <ele>179.7002</ele>
        <time>2026-05-14T13:11:02+02:00</time>
      </trkpt>
      <trkpt lat="46.90553" lon="4.99491">
        <ele>179.60059</ele>
        <time>2026-05-14T13:11:03+02:00</time>
      </trkpt>
      <trkpt lat="46.90553" lon="4.99484">
        <ele>179.60059</ele>
        <time>2026-05-14T13:11:04+02:00</time>
      </trkpt>
      <trkpt lat="46.90553" lon="4.99476">
        <ele>179.5</ele>
        <time>2026-05-14T13:11:05+02:00</time>
      </trkpt>
      <trkpt lat="46.90554" lon="4.99469">
        <ele>179.40039</ele>
        <time>2026-05-14T13:11:06+02:00</time>
      </trkpt>
      <trkpt lat="46.90555" lon="4.99461">
        <ele>179.2002</ele>
        <time>2026-05-14T13:11:07+02:00</time>
      </trkpt>
      <trkpt lat="46.90555" lon="4.99454">
        <ele>179.10059</ele>
        <time>2026-05-14T13:11:08+02:00</time>
      </trkpt>
      <trkpt lat="46.90555" lon="4.99447">
        <ele>179</ele>
        <time>2026-05-14T13:11:09+02:00</time>
      </trkpt>
      <trkpt lat="46.90556" lon="4.9944">
        <ele>178.7998</ele>
        <time>2026-05-14T13:11:10+02:00</time>
      </trkpt>
      <trkpt lat="46.90556" lon="4.99433">
        <ele>178.7998</ele>
        <time>2026-05-14T13:11:11+02:00</time>
      </trkpt>
      <trkpt lat="46.90557" lon="4.99426">
        <ele>178.7998</ele>
        <time>2026-05-14T13:11:12+02:00</time>
      </trkpt>
      <trkpt lat="46.90557" lon="4.9942">
        <ele>178.7002</ele>
        <time>2026-05-14T13:11:13+02:00</time>
      </trkpt>
      <trkpt lat="46.90557" lon="4.99414">
        <ele>178.7998</ele>
        <time>2026-05-14T13:11:14+02:00</time>
      </trkpt>
      <trkpt lat="46.90557" lon="4.99408">
        <ele>178.7998</ele>
        <time>2026-05-14T13:11:15+02:00</time>
      </trkpt>
      <trkpt lat="46.90556" lon="4.99403">
        <ele>178.90039</ele>
        <time>2026-05-14T13:11:16+02:00</time>
      </trkpt>
      <trkpt lat="46.90555" lon="4.99399">
        <ele>178.90039</ele>
        <time>2026-05-14T13:11:17+02:00</time>
      </trkpt>
      <trkpt lat="46.90554" lon="4.99395">
        <ele>179</ele>
        <time>2026-05-14T13:11:18+02:00</time>
      </trkpt>
      <trkpt lat="46.90553" lon="4.9939">
        <ele>179</ele>
        <time>2026-05-14T13:11:19+02:00</time>
      </trkpt>
      <trkpt lat="46.90555" lon="4.99386">
        <ele>179.2002</ele>
        <time>2026-05-14T13:11:20+02:00</time>
      </trkpt>
      <trkpt lat="46.90556" lon="4.99383">
        <ele>179.2002</ele>
        <time>2026-05-14T13:11:21+02:00</time>
      </trkpt>
      <trkpt lat="46.90557" lon="4.9938">
        <ele>179.40039</ele>
        <time>2026-05-14T13:11:22+02:00</time>
      </trkpt>
      <trkpt lat="46.90558" lon="4.99379">
        <ele>179.40039</ele>
        <time>2026-05-14T13:11:23+02:00</time>
      </trkpt>
      <trkpt lat="46.90558" lon="4.99378">
        <ele>179.40039</ele>
        <time>2026-05-14T13:11:24+02:00</time>
      </trkpt>
      <trkpt lat="46.90558" lon="4.99378">
        <ele>179.40039</ele>
        <time>2026-05-14T13:11:25+02:00</time>
      </trkpt>
      <trkpt lat="46.90558" lon="4.99378">
        <ele>179.40039</ele>
        <time>2026-05-14T13:11:26+02:00</time>
      </trkpt>
      <trkpt lat="46.90558" lon="4.99378">
        <ele>179.40039</ele>
        <time>2026-05-14T13:11:27+02:00</time>
      </trkpt>
      <trkpt lat="46.90546" lon="4.99387">
        <ele>179.2002</ele>
        <time>2026-05-14T13:11:36+02:00</time>
      </trkpt>
      <trkpt lat="46.90545" lon="4.99391">
        <ele>179</ele>
        <time>2026-05-14T13:11:37+02:00</time>
      </trkpt>
      <trkpt lat="46.90544" lon="4.99396">
        <ele>179</ele>
        <time>2026-05-14T13:11:38+02:00</time>
      </trkpt>
      <trkpt lat="46.90543" lon="4.994">
        <ele>178.90039</ele>
        <time>2026-05-14T13:11:39+02:00</time>
      </trkpt>
      <trkpt lat="46.9054" lon="4.99405">
        <ele>179</ele>
        <time>2026-05-14T13:11:40+02:00</time>
      </trkpt>
      <trkpt lat="46.90539" lon="4.9941">
        <ele>178.90039</ele>
        <time>2026-05-14T13:11:41+02:00</time>
      </trkpt>
      <trkpt lat="46.90537" lon="4.99416">
        <ele>178.90039</ele>
        <time>2026-05-14T13:11:42+02:00</time>
      </trkpt>
      <trkpt lat="46.90535" lon="4.99422">
        <ele>178.90039</ele>
        <time>2026-05-14T13:11:43+02:00</time>
      </trkpt>
      <trkpt lat="46.90534" lon="4.99428">
        <ele>178.90039</ele>
        <time>2026-05-14T13:11:44+02:00</time>
      </trkpt>
      <trkpt lat="46.90532" lon="4.99434">
        <ele>179</ele>
        <time>2026-05-14T13:11:45+02:00</time>
      </trkpt>
      <trkpt lat="46.90531" lon="4.9944">
        <ele>179</ele>
        <time>2026-05-14T13:11:46+02:00</time>
      </trkpt>
      <trkpt lat="46.90529" lon="4.99446">
        <ele>179.10059</ele>
        <time>2026-05-14T13:11:47+02:00</time>
      </trkpt>
      <trkpt lat="46.90527" lon="4.99452">
        <ele>179.10059</ele>
        <time>2026-05-14T13:11:48+02:00</time>
      </trkpt>
      <trkpt lat="46.90526" lon="4.99459">
        <ele>179.2002</ele>
        <time>2026-05-14T13:11:49+02:00</time>
      </trkpt>
      <trkpt lat="46.90523" lon="4.99465">
        <ele>179.2002</ele>
        <time>2026-05-14T13:11:50+02:00</time>
      </trkpt>
      <trkpt lat="46.90521" lon="4.99473">
        <ele>179.2002</ele>
        <time>2026-05-14T13:11:51+02:00</time>
      </trkpt>
      <trkpt lat="46.90519" lon="4.9948">
        <ele>179.2998</ele>
        <time>2026-05-14T13:11:52+02:00</time>
      </trkpt>
      <trkpt lat="46.90518" lon="4.99487">
        <ele>179.2002</ele>
        <time>2026-05-14T13:11:53+02:00</time>
      </trkpt>
      <trkpt lat="46.90516" lon="4.99494">
        <ele>179.2998</ele>
        <time>2026-05-14T13:11:54+02:00</time>
      </trkpt>
      <trkpt lat="46.90513" lon="4.99502">
        <ele>179.2998</ele>
        <time>2026-05-14T13:11:55+02:00</time>
      </trkpt>
      <trkpt lat="46.90511" lon="4.99509">
        <ele>179.2002</ele>
        <time>2026-05-14T13:11:56+02:00</time>
      </trkpt>
      <trkpt lat="46.90509" lon="4.99517">
        <ele>179.2002</ele>
        <time>2026-05-14T13:11:57+02:00</time>
      </trkpt>
      <trkpt lat="46.90506" lon="4.99524">
        <ele>179.10059</ele>
        <time>2026-05-14T13:11:58+02:00</time>
      </trkpt>
      <trkpt lat="46.90504" lon="4.99531">
        <ele>179.10059</ele>
        <time>2026-05-14T13:11:59+02:00</time>
      </trkpt>
      <trkpt lat="46.90502" lon="4.99539">
        <ele>179</ele>
        <time>2026-05-14T13:12:00+02:00</time>
      </trkpt>
      <trkpt lat="46.90499" lon="4.99546">
        <ele>178.90039</ele>
        <time>2026-05-14T13:12:01+02:00</time>
      </trkpt>
      <trkpt lat="46.90497" lon="4.99554">
        <ele>178.7998</ele>
        <time>2026-05-14T13:12:02+02:00</time>
      </trkpt>
      <trkpt lat="46.90494" lon="4.99561">
        <ele>178.60059</ele>
        <time>2026-05-14T13:12:03+02:00</time>
      </trkpt>
      <trkpt lat="46.90492" lon="4.99569">
        <ele>178.60059</ele>
        <time>2026-05-14T13:12:04+02:00</time>
      </trkpt>
      <trkpt lat="46.90489" lon="4.99576">
        <ele>178.40039</ele>
        <time>2026-05-14T13:12:05+02:00</time>
      </trkpt>
      <trkpt lat="46.90486" lon="4.99584">
        <ele>178.40039</ele>
        <time>2026-05-14T13:12:06+02:00</time>
      </trkpt>
      <trkpt lat="46.90484" lon="4.99591">
        <ele>178.40039</ele>
        <time>2026-05-14T13:12:07+02:00</time>
      </trkpt>
      <trkpt lat="46.9048" lon="4.99598">
        <ele>178.2998</ele>
        <time>2026-05-14T13:12:08+02:00</time>
      </trkpt>
      <trkpt lat="46.90477" lon="4.99605">
        <ele>178.2998</ele>
        <time>2026-05-14T13:12:09+02:00</time>
      </trkpt>
      <trkpt lat="46.90474" lon="4.99613">
        <ele>178.40039</ele>
        <time>2026-05-14T13:12:10+02:00</time>
      </trkpt>
      <trkpt lat="46.90471" lon="4.9962">
        <ele>178.2998</ele>
        <time>2026-05-14T13:12:11+02:00</time>
      </trkpt>
      <trkpt lat="46.90467" lon="4.99627">
        <ele>178.40039</ele>
        <time>2026-05-14T13:12:12+02:00</time>
      </trkpt>
      <trkpt lat="46.90464" lon="4.99634">
        <ele>178.40039</ele>
        <time>2026-05-14T13:12:13+02:00</time>
      </trkpt>
      <trkpt lat="46.9046" lon="4.99642">
        <ele>178.5</ele>
        <time>2026-05-14T13:12:14+02:00</time>
      </trkpt>
      <trkpt lat="46.90457" lon="4.99649">
        <ele>178.60059</ele>
        <time>2026-05-14T13:12:15+02:00</time>
      </trkpt>
      <trkpt lat="46.90453" lon="4.99656">
        <ele>178.60059</ele>
        <time>2026-05-14T13:12:16+02:00</time>
      </trkpt>
      <trkpt lat="46.9045" lon="4.99663">
        <ele>178.60059</ele>
        <time>2026-05-14T13:12:17+02:00</time>
      </trkpt>
      <trkpt lat="46.90446" lon="4.9967">
        <ele>178.60059</ele>
        <time>2026-05-14T13:12:18+02:00</time>
      </trkpt>
      <trkpt lat="46.90442" lon="4.99677">
        <ele>178.5</ele>
        <time>2026-05-14T13:12:19+02:00</time>
      </trkpt>
      <trkpt lat="46.90438" lon="4.99684">
        <ele>178.60059</ele>
        <time>2026-05-14T13:12:20+02:00</time>
      </trkpt>
      <trkpt lat="46.90434" lon="4.99691">
        <ele>178.5</ele>
        <time>2026-05-14T13:12:21+02:00</time>
      </trkpt>
      <trkpt lat="46.90431" lon="4.99698">
        <ele>178.5</ele>
        <time>2026-05-14T13:12:22+02:00</time>
      </trkpt>
      <trkpt lat="46.90426" lon="4.99705">
        <ele>178.40039</ele>
        <time>2026-05-14T13:12:23+02:00</time>
      </trkpt>
      <trkpt lat="46.90422" lon="4.99712">
        <ele>178.2998</ele>
        <time>2026-05-14T13:12:24+02:00</time>
      </trkpt>
      <trkpt lat="46.90418" lon="4.99718">
        <ele>178.10059</ele>
        <time>2026-05-14T13:12:25+02:00</time>
      </trkpt>
      <trkpt lat="46.90414" lon="4.99725">
        <ele>178.10059</ele>
        <time>2026-05-14T13:12:26+02:00</time>
      </trkpt>
      <trkpt lat="46.9041" lon="4.99731">
        <ele>177.90039</ele>
        <time>2026-05-14T13:12:27+02:00</time>
      </trkpt>
      <trkpt lat="46.90405" lon="4.99738">
        <ele>177.60059</ele>
        <time>2026-05-14T13:12:28+02:00</time>
      </trkpt>
      <trkpt lat="46.90401" lon="4.99744">
        <ele>177.40039</ele>
        <time>2026-05-14T13:12:29+02:00</time>
      </trkpt>
      <trkpt lat="46.90397" lon="4.99751">
        <ele>177.2998</ele>
        <time>2026-05-14T13:12:30+02:00</time>
      </trkpt>
      <trkpt lat="46.90392" lon="4.99757">
        <ele>177.10059</ele>
        <time>2026-05-14T13:12:31+02:00</time>
      </trkpt>
      <trkpt lat="46.90388" lon="4.99763">
        <ele>176.7998</ele>
        <time>2026-05-14T13:12:32+02:00</time>
      </trkpt>
      <trkpt lat="46.90383" lon="4.99769">
        <ele>176.60059</ele>
        <time>2026-05-14T13:12:33+02:00</time>
      </trkpt>
      <trkpt lat="46.90379" lon="4.99775">
        <ele>176.7002</ele>
        <time>2026-05-14T13:12:34+02:00</time>
      </trkpt>
      <trkpt lat="46.90375" lon="4.99781">
        <ele>176.5</ele>
        <time>2026-05-14T13:12:35+02:00</time>
      </trkpt>
      <trkpt lat="46.9037" lon="4.99787">
        <ele>176.2002</ele>
        <time>2026-05-14T13:12:36+02:00</time>
      </trkpt>
      <trkpt lat="46.90367" lon="4.99791">
        <ele>176.2002</ele>
        <time>2026-05-14T13:12:37+02:00</time>
      </trkpt>
      <trkpt lat="46.90365" lon="4.99793">
        <ele>175.7998</ele>
        <time>2026-05-14T13:12:38+02:00</time>
      </trkpt>
      <trkpt lat="46.90365" lon="4.99793">
        <ele>175.7998</ele>
        <time>2026-05-14T13:12:39+02:00</time>
      </trkpt>
      <trkpt lat="46.90365" lon="4.99793">
        <ele>175.7998</ele>
        <time>2026-05-14T13:12:40+02:00</time>
      </trkpt>
      <trkpt lat="46.90365" lon="4.99793">
        <ele>175.7998</ele>
        <time>2026-05-14T13:12:41+02:00</time>
      </trkpt>
      <trkpt lat="46.90365" lon="4.99793">
        <ele>175.7998</ele>
        <time>2026-05-14T13:12:42+02:00</time>
      </trkpt>
      <trkpt lat="46.90365" lon="4.99793">
        <ele>175.7998</ele>
        <time>2026-05-14T13:12:43+02:00</time>
      </trkpt>
      <trkpt lat="46.90355" lon="4.99806">
        <ele>175.2998</ele>
        <time>2026-05-14T13:14:40+02:00</time>
      </trkpt>
      <trkpt lat="46.90353" lon="4.99809">
        <ele>175.10059</ele>
        <time>2026-05-14T13:14:41+02:00</time>
      </trkpt>
      <trkpt lat="46.9035" lon="4.99812">
        <ele>174.90039</ele>
        <time>2026-05-14T13:14:42+02:00</time>
      </trkpt>
      <trkpt lat="46.90348" lon="4.99815">
        <ele>174.60059</ele>
        <time>2026-05-14T13:14:43+02:00</time>
      </trkpt>
      <trkpt lat="46.90345" lon="4.99819">
        <ele>174.40039</ele>
        <time>2026-05-14T13:14:44+02:00</time>
      </trkpt>
      <trkpt lat="46.90342" lon="4.99823">
        <ele>174.2002</ele>
        <time>2026-05-14T13:14:45+02:00</time>
      </trkpt>
      <trkpt lat="46.90339" lon="4.99828">
        <ele>173.90039</ele>
        <time>2026-05-14T13:14:46+02:00</time>
      </trkpt>
      <trkpt lat="46.90336" lon="4.99832">
        <ele>173.7998</ele>
        <time>2026-05-14T13:14:47+02:00</time>
      </trkpt>
      <trkpt lat="46.90333" lon="4.99837">
        <ele>173.7002</ele>
        <time>2026-05-14T13:14:48+02:00</time>
      </trkpt>
      <trkpt lat="46.9033" lon="4.99842">
        <ele>173.7002</ele>
        <time>2026-05-14T13:14:49+02:00</time>
      </trkpt>
      <trkpt lat="46.90327" lon="4.99847">
        <ele>173.7002</ele>
        <time>2026-05-14T13:14:50+02:00</time>
      </trkpt>
      <trkpt lat="46.90324" lon="4.99852">
        <ele>173.7002</ele>
        <time>2026-05-14T13:14:51+02:00</time>
      </trkpt>
      <trkpt lat="46.9032" lon="4.99857">
        <ele>173.7002</ele>
        <time>2026-05-14T13:14:52+02:00</time>
      </trkpt>
      <trkpt lat="46.90317" lon="4.99862">
        <ele>173.7998</ele>
        <time>2026-05-14T13:14:53+02:00</time>
      </trkpt>
      <trkpt lat="46.90314" lon="4.99868">
        <ele>173.7998</ele>
        <time>2026-05-14T13:14:54+02:00</time>
      </trkpt>
      <trkpt lat="46.9031" lon="4.99873">
        <ele>173.7998</ele>
        <time>2026-05-14T13:14:55+02:00</time>
      </trkpt>
      <trkpt lat="46.90307" lon="4.99878">
        <ele>173.7002</ele>
        <time>2026-05-14T13:14:56+02:00</time>
      </trkpt>
      <trkpt lat="46.90304" lon="4.99884">
        <ele>173.7002</ele>
        <time>2026-05-14T13:14:57+02:00</time>
      </trkpt>
      <trkpt lat="46.90301" lon="4.9989">
        <ele>173.7002</ele>
        <time>2026-05-14T13:14:58+02:00</time>
      </trkpt>
      <trkpt lat="46.90297" lon="4.99896">
        <ele>173.7002</ele>
        <time>2026-05-14T13:14:59+02:00</time>
      </trkpt>
      <trkpt lat="46.90292" lon="4.99902">
        <ele>173.7002</ele>
        <time>2026-05-14T13:15:00+02:00</time>
      </trkpt>
      <trkpt lat="46.90289" lon="4.99907">
        <ele>173.7002</ele>
        <time>2026-05-14T13:15:01+02:00</time>
      </trkpt>
      <trkpt lat="46.90285" lon="4.99913">
        <ele>173.7002</ele>
        <time>2026-05-14T13:15:02+02:00</time>
      </trkpt>
      <trkpt lat="46.90281" lon="4.99919">
        <ele>173.7002</ele>
        <time>2026-05-14T13:15:03+02:00</time>
      </trkpt>
      <trkpt lat="46.90278" lon="4.99925">
        <ele>173.7002</ele>
        <time>2026-05-14T13:15:04+02:00</time>
      </trkpt>
      <trkpt lat="46.90274" lon="4.99931">
        <ele>173.7002</ele>
        <time>2026-05-14T13:15:05+02:00</time>
      </trkpt>
      <trkpt lat="46.9027" lon="4.99937">
        <ele>173.7002</ele>
        <time>2026-05-14T13:15:06+02:00</time>
      </trkpt>
      <trkpt lat="46.90266" lon="4.99944">
        <ele>173.7002</ele>
        <time>2026-05-14T13:15:07+02:00</time>
      </trkpt>
      <trkpt lat="46.90261" lon="4.9995">
        <ele>173.7002</ele>
        <time>2026-05-14T13:15:08+02:00</time>
      </trkpt>
      <trkpt lat="46.90258" lon="4.99957">
        <ele>173.7002</ele>
        <time>2026-05-14T13:15:09+02:00</time>
      </trkpt>
      <trkpt lat="46.90253" lon="4.99964">
        <ele>173.7002</ele>
        <time>2026-05-14T13:15:10+02:00</time>
      </trkpt>
      <trkpt lat="46.90249" lon="4.99971">
        <ele>173.7002</ele>
        <time>2026-05-14T13:15:11+02:00</time>
      </trkpt>
      <trkpt lat="46.90245" lon="4.99977">
        <ele>173.7002</ele>
        <time>2026-05-14T13:15:12+02:00</time>
      </trkpt>
      <trkpt lat="46.90242" lon="4.99983">
        <ele>173.7998</ele>
        <time>2026-05-14T13:15:13+02:00</time>
      </trkpt>
      <trkpt lat="46.90238" lon="4.9999">
        <ele>173.7998</ele>
        <time>2026-05-14T13:15:14+02:00</time>
      </trkpt>
      <trkpt lat="46.90234" lon="4.99997">
        <ele>173.7998</ele>
        <time>2026-05-14T13:15:15+02:00</time>
      </trkpt>
      <trkpt lat="46.9023" lon="5.00004">
        <ele>174.10059</ele>
        <time>2026-05-14T13:15:16+02:00</time>
      </trkpt>
      <trkpt lat="46.90225" lon="5.00011">
        <ele>174.40039</ele>
        <time>2026-05-14T13:15:17+02:00</time>
      </trkpt>
      <trkpt lat="46.90221" lon="5.00017">
        <ele>174.5</ele>
        <time>2026-05-14T13:15:18+02:00</time>
      </trkpt>
      <trkpt lat="46.90215" lon="5.00025">
        <ele>174.7998</ele>
        <time>2026-05-14T13:15:19+02:00</time>
      </trkpt>
      <trkpt lat="46.9021" lon="5.00032">
        <ele>174.90039</ele>
        <time>2026-05-14T13:15:20+02:00</time>
      </trkpt>
      <trkpt lat="46.90206" lon="5.00039">
        <ele>175.7002</ele>
        <time>2026-05-14T13:15:21+02:00</time>
      </trkpt>
      <trkpt lat="46.90201" lon="5.00046">
        <ele>177.40039</ele>
        <time>2026-05-14T13:15:22+02:00</time>
      </trkpt>
      <trkpt lat="46.90196" lon="5.00053">
        <ele>178.90039</ele>
        <time>2026-05-14T13:15:23+02:00</time>
      </trkpt>
      <trkpt lat="46.90191" lon="5.00059">
        <ele>179</ele>
        <time>2026-05-14T13:15:24+02:00</time>
      </trkpt>
      <trkpt lat="46.90186" lon="5.00067">
        <ele>179.10059</ele>
        <time>2026-05-14T13:15:25+02:00</time>
      </trkpt>
      <trkpt lat="46.90181" lon="5.00074">
        <ele>179.2002</ele>
        <time>2026-05-14T13:15:26+02:00</time>
      </trkpt>
      <trkpt lat="46.90176" lon="5.00081">
        <ele>179.2002</ele>
        <time>2026-05-14T13:15:27+02:00</time>
      </trkpt>
      <trkpt lat="46.9017" lon="5.00089">
        <ele>179.2002</ele>
        <time>2026-05-14T13:15:28+02:00</time>
      </trkpt>
      <trkpt lat="46.90165" lon="5.00097">
        <ele>179.10059</ele>
        <time>2026-05-14T13:15:29+02:00</time>
      </trkpt>
      <trkpt lat="46.90161" lon="5.00105">
        <ele>179.10059</ele>
        <time>2026-05-14T13:15:30+02:00</time>
      </trkpt>
      <trkpt lat="46.90156" lon="5.00113">
        <ele>179.10059</ele>
        <time>2026-05-14T13:15:31+02:00</time>
      </trkpt>
      <trkpt lat="46.90151" lon="5.00121">
        <ele>179</ele>
        <time>2026-05-14T13:15:32+02:00</time>
      </trkpt>
      <trkpt lat="46.90146" lon="5.00129">
        <ele>179</ele>
        <time>2026-05-14T13:15:33+02:00</time>
      </trkpt>
      <trkpt lat="46.90141" lon="5.00137">
        <ele>179</ele>
        <time>2026-05-14T13:15:34+02:00</time>
      </trkpt>
      <trkpt lat="46.90136" lon="5.00145">
        <ele>179.10059</ele>
        <time>2026-05-14T13:15:35+02:00</time>
      </trkpt>
      <trkpt lat="46.90131" lon="5.00152">
        <ele>179.2002</ele>
        <time>2026-05-14T13:15:36+02:00</time>
      </trkpt>
      <trkpt lat="46.90127" lon="5.0016">
        <ele>179.2002</ele>
        <time>2026-05-14T13:15:37+02:00</time>
      </trkpt>
      <trkpt lat="46.90122" lon="5.00168">
        <ele>179.2002</ele>
        <time>2026-05-14T13:15:38+02:00</time>
      </trkpt>
      <trkpt lat="46.90117" lon="5.00176">
        <ele>179.2002</ele>
        <time>2026-05-14T13:15:39+02:00</time>
      </trkpt>
      <trkpt lat="46.90113" lon="5.00183">
        <ele>179.2002</ele>
        <time>2026-05-14T13:15:40+02:00</time>
      </trkpt>
      <trkpt lat="46.90109" lon="5.00191">
        <ele>179.2002</ele>
        <time>2026-05-14T13:15:41+02:00</time>
      </trkpt>
      <trkpt lat="46.90106" lon="5.002">
        <ele>179.2998</ele>
        <time>2026-05-14T13:15:42+02:00</time>
      </trkpt>
      <trkpt lat="46.90102" lon="5.00208">
        <ele>179.40039</ele>
        <time>2026-05-14T13:15:43+02:00</time>
      </trkpt>
      <trkpt lat="46.90098" lon="5.00217">
        <ele>179.40039</ele>
        <time>2026-05-14T13:15:44+02:00</time>
      </trkpt>
      <trkpt lat="46.90095" lon="5.00226">
        <ele>179.40039</ele>
        <time>2026-05-14T13:15:45+02:00</time>
      </trkpt>
      <trkpt lat="46.90091" lon="5.00235">
        <ele>179.40039</ele>
        <time>2026-05-14T13:15:46+02:00</time>
      </trkpt>
      <trkpt lat="46.90088" lon="5.00245">
        <ele>179.2998</ele>
        <time>2026-05-14T13:15:47+02:00</time>
      </trkpt>
      <trkpt lat="46.90085" lon="5.00255">
        <ele>179.2002</ele>
        <time>2026-05-14T13:15:48+02:00</time>
      </trkpt>
      <trkpt lat="46.90082" lon="5.00265">
        <ele>178.90039</ele>
        <time>2026-05-14T13:15:49+02:00</time>
      </trkpt>
      <trkpt lat="46.90079" lon="5.00275">
        <ele>178.7998</ele>
        <time>2026-05-14T13:15:50+02:00</time>
      </trkpt>
      <trkpt lat="46.90077" lon="5.00285">
        <ele>178.60059</ele>
        <time>2026-05-14T13:15:51+02:00</time>
      </trkpt>
      <trkpt lat="46.90074" lon="5.00296">
        <ele>178.5</ele>
        <time>2026-05-14T13:15:52+02:00</time>
      </trkpt>
      <trkpt lat="46.90072" lon="5.00306">
        <ele>178.40039</ele>
        <time>2026-05-14T13:15:53+02:00</time>
      </trkpt>
      <trkpt lat="46.9007" lon="5.00317">
        <ele>178.2002</ele>
        <time>2026-05-14T13:15:54+02:00</time>
      </trkpt>
      <trkpt lat="46.90068" lon="5.00328">
        <ele>178.10059</ele>
        <time>2026-05-14T13:15:55+02:00</time>
      </trkpt>
      <trkpt lat="46.90066" lon="5.00339">
        <ele>178</ele>
        <time>2026-05-14T13:15:56+02:00</time>
      </trkpt>
      <trkpt lat="46.90064" lon="5.00351">
        <ele>177.7002</ele>
        <time>2026-05-14T13:15:57+02:00</time>
      </trkpt>
      <trkpt lat="46.90063" lon="5.00362">
        <ele>177.5</ele>
        <time>2026-05-14T13:15:58+02:00</time>
      </trkpt>
      <trkpt lat="46.90062" lon="5.00374">
        <ele>177.2998</ele>
        <time>2026-05-14T13:15:59+02:00</time>
      </trkpt>
      <trkpt lat="46.90061" lon="5.00385">
        <ele>177</ele>
        <time>2026-05-14T13:16:00+02:00</time>
      </trkpt>
      <trkpt lat="46.90061" lon="5.00397">
        <ele>176.7998</ele>
        <time>2026-05-14T13:16:01+02:00</time>
      </trkpt>
      <trkpt lat="46.9006" lon="5.00408">
        <ele>176.60059</ele>
        <time>2026-05-14T13:16:02+02:00</time>
      </trkpt>
      <trkpt lat="46.9006" lon="5.0042">
        <ele>176.40039</ele>
        <time>2026-05-14T13:16:03+02:00</time>
      </trkpt>
      <trkpt lat="46.9006" lon="5.00431">
        <ele>176.40039</ele>
        <time>2026-05-14T13:16:04+02:00</time>
      </trkpt>
      <trkpt lat="46.90061" lon="5.00442">
        <ele>176.40039</ele>
        <time>2026-05-14T13:16:05+02:00</time>
      </trkpt>
      <trkpt lat="46.90061" lon="5.00453">
        <ele>176.40039</ele>
        <time>2026-05-14T13:16:06+02:00</time>
      </trkpt>
      <trkpt lat="46.90062" lon="5.00464">
        <ele>176.2998</ele>
        <time>2026-05-14T13:16:07+02:00</time>
      </trkpt>
      <trkpt lat="46.90062" lon="5.00475">
        <ele>176.2998</ele>
        <time>2026-05-14T13:16:08+02:00</time>
      </trkpt>
      <trkpt lat="46.90064" lon="5.00487">
        <ele>176.2998</ele>
        <time>2026-05-14T13:16:09+02:00</time>
      </trkpt>
      <trkpt lat="46.90065" lon="5.00498">
        <ele>176.40039</ele>
        <time>2026-05-14T13:16:10+02:00</time>
      </trkpt>
      <trkpt lat="46.90067" lon="5.00509">
        <ele>176.5</ele>
        <time>2026-05-14T13:16:11+02:00</time>
      </trkpt>
      <trkpt lat="46.90069" lon="5.0052">
        <ele>176.5</ele>
        <time>2026-05-14T13:16:12+02:00</time>
      </trkpt>
      <trkpt lat="46.90071" lon="5.00531">
        <ele>176.7002</ele>
        <time>2026-05-14T13:16:13+02:00</time>
      </trkpt>
      <trkpt lat="46.90073" lon="5.00542">
        <ele>176.7998</ele>
        <time>2026-05-14T13:16:14+02:00</time>
      </trkpt>
      <trkpt lat="46.90076" lon="5.00552">
        <ele>176.7998</ele>
        <time>2026-05-14T13:16:15+02:00</time>
      </trkpt>
      <trkpt lat="46.90078" lon="5.00563">
        <ele>176.90039</ele>
        <time>2026-05-14T13:16:16+02:00</time>
      </trkpt>
      <trkpt lat="46.90082" lon="5.00573">
        <ele>177</ele>
        <time>2026-05-14T13:16:17+02:00</time>
      </trkpt>
      <trkpt lat="46.90085" lon="5.00584">
        <ele>177.10059</ele>
        <time>2026-05-14T13:16:18+02:00</time>
      </trkpt>
      <trkpt lat="46.90088" lon="5.00594">
        <ele>177</ele>
        <time>2026-05-14T13:16:19+02:00</time>
      </trkpt>
      <trkpt lat="46.90091" lon="5.00604">
        <ele>177</ele>
        <time>2026-05-14T13:16:20+02:00</time>
      </trkpt>
      <trkpt lat="46.90095" lon="5.00614">
        <ele>176.90039</ele>
        <time>2026-05-14T13:16:21+02:00</time>
      </trkpt>
      <trkpt lat="46.90098" lon="5.00624">
        <ele>176.90039</ele>
        <time>2026-05-14T13:16:22+02:00</time>
      </trkpt>
      <trkpt lat="46.90101" lon="5.00634">
        <ele>176.7002</ele>
        <time>2026-05-14T13:16:23+02:00</time>
      </trkpt>
      <trkpt lat="46.90104" lon="5.00644">
        <ele>176.60059</ele>
        <time>2026-05-14T13:16:24+02:00</time>
      </trkpt>
      <trkpt lat="46.90107" lon="5.00654">
        <ele>176.5</ele>
        <time>2026-05-14T13:16:25+02:00</time>
      </trkpt>
      <trkpt lat="46.90111" lon="5.00664">
        <ele>176.5</ele>
        <time>2026-05-14T13:16:26+02:00</time>
      </trkpt>
      <trkpt lat="46.90114" lon="5.00674">
        <ele>176.2998</ele>
        <time>2026-05-14T13:16:27+02:00</time>
      </trkpt>
      <trkpt lat="46.90117" lon="5.00684">
        <ele>176.2998</ele>
        <time>2026-05-14T13:16:28+02:00</time>
      </trkpt>
      <trkpt lat="46.90121" lon="5.00694">
        <ele>176</ele>
        <time>2026-05-14T13:16:29+02:00</time>
      </trkpt>
      <trkpt lat="46.90124" lon="5.00705">
        <ele>175.7998</ele>
        <time>2026-05-14T13:16:30+02:00</time>
      </trkpt>
      <trkpt lat="46.90127" lon="5.00715">
        <ele>175.7002</ele>
        <time>2026-05-14T13:16:31+02:00</time>
      </trkpt>
      <trkpt lat="46.90131" lon="5.00725">
        <ele>175.60059</ele>
        <time>2026-05-14T13:16:32+02:00</time>
      </trkpt>
      <trkpt lat="46.90134" lon="5.00735">
        <ele>175.5</ele>
        <time>2026-05-14T13:16:33+02:00</time>
      </trkpt>
      <trkpt lat="46.90137" lon="5.00746">
        <ele>175.2002</ele>
        <time>2026-05-14T13:16:34+02:00</time>
      </trkpt>
      <trkpt lat="46.90141" lon="5.00756">
        <ele>175.2002</ele>
        <time>2026-05-14T13:16:35+02:00</time>
      </trkpt>
      <trkpt lat="46.90144" lon="5.00766">
        <ele>175.2002</ele>
        <time>2026-05-14T13:16:36+02:00</time>
      </trkpt>
      <trkpt lat="46.90148" lon="5.00776">
        <ele>175.10059</ele>
        <time>2026-05-14T13:16:37+02:00</time>
      </trkpt>
      <trkpt lat="46.90151" lon="5.00786">
        <ele>175.10059</ele>
        <time>2026-05-14T13:16:38+02:00</time>
      </trkpt>
      <trkpt lat="46.90154" lon="5.00797">
        <ele>175.2002</ele>
        <time>2026-05-14T13:16:39+02:00</time>
      </trkpt>
      <trkpt lat="46.90157" lon="5.00807">
        <ele>175.2002</ele>
        <time>2026-05-14T13:16:40+02:00</time>
      </trkpt>
      <trkpt lat="46.9016" lon="5.00817">
        <ele>175.2002</ele>
        <time>2026-05-14T13:16:41+02:00</time>
      </trkpt>
      <trkpt lat="46.90163" lon="5.00827">
        <ele>175.40039</ele>
        <time>2026-05-14T13:16:42+02:00</time>
      </trkpt>
      <trkpt lat="46.90166" lon="5.00838">
        <ele>175.40039</ele>
        <time>2026-05-14T13:16:43+02:00</time>
      </trkpt>
      <trkpt lat="46.90169" lon="5.00848">
        <ele>175.7002</ele>
        <time>2026-05-14T13:16:44+02:00</time>
      </trkpt>
      <trkpt lat="46.90172" lon="5.00858">
        <ele>175.7002</ele>
        <time>2026-05-14T13:16:45+02:00</time>
      </trkpt>
      <trkpt lat="46.90175" lon="5.00869">
        <ele>175.90039</ele>
        <time>2026-05-14T13:16:46+02:00</time>
      </trkpt>
      <trkpt lat="46.90178" lon="5.0088">
        <ele>176</ele>
        <time>2026-05-14T13:16:47+02:00</time>
      </trkpt>
      <trkpt lat="46.90181" lon="5.00891">
        <ele>176.2998</ele>
        <time>2026-05-14T13:16:48+02:00</time>
      </trkpt>
      <trkpt lat="46.90183" lon="5.00901">
        <ele>176.40039</ele>
        <time>2026-05-14T13:16:49+02:00</time>
      </trkpt>
      <trkpt lat="46.90185" lon="5.00912">
        <ele>176.60059</ele>
        <time>2026-05-14T13:16:50+02:00</time>
      </trkpt>
      <trkpt lat="46.90187" lon="5.00923">
        <ele>176.7002</ele>
        <time>2026-05-14T13:16:51+02:00</time>
      </trkpt>
      <trkpt lat="46.90189" lon="5.00934">
        <ele>176.7002</ele>
        <time>2026-05-14T13:16:52+02:00</time>
      </trkpt>
      <trkpt lat="46.90191" lon="5.00946">
        <ele>176.90039</ele>
        <time>2026-05-14T13:16:53+02:00</time>
      </trkpt>
      <trkpt lat="46.90192" lon="5.00957">
        <ele>176.7998</ele>
        <time>2026-05-14T13:16:54+02:00</time>
      </trkpt>
      <trkpt lat="46.90193" lon="5.00968">
        <ele>176.7998</ele>
        <time>2026-05-14T13:16:55+02:00</time>
      </trkpt>
      <trkpt lat="46.90194" lon="5.00979">
        <ele>176.7998</ele>
        <time>2026-05-14T13:16:56+02:00</time>
      </trkpt>
      <trkpt lat="46.90194" lon="5.0099">
        <ele>176.7998</ele>
        <time>2026-05-14T13:16:57+02:00</time>
      </trkpt>
      <trkpt lat="46.90194" lon="5.01001">
        <ele>176.7002</ele>
        <time>2026-05-14T13:16:58+02:00</time>
      </trkpt>
      <trkpt lat="46.90195" lon="5.01013">
        <ele>176.60059</ele>
        <time>2026-05-14T13:16:59+02:00</time>
      </trkpt>
      <trkpt lat="46.90195" lon="5.01024">
        <ele>176.5</ele>
        <time>2026-05-14T13:17:00+02:00</time>
      </trkpt>
      <trkpt lat="46.90194" lon="5.01035">
        <ele>176.40039</ele>
        <time>2026-05-14T13:17:01+02:00</time>
      </trkpt>
      <trkpt lat="46.90194" lon="5.01047">
        <ele>176.2002</ele>
        <time>2026-05-14T13:17:02+02:00</time>
      </trkpt>
      <trkpt lat="46.90193" lon="5.01058">
        <ele>176</ele>
        <time>2026-05-14T13:17:03+02:00</time>
      </trkpt>
      <trkpt lat="46.90192" lon="5.01069">
        <ele>175.90039</ele>
        <time>2026-05-14T13:17:04+02:00</time>
      </trkpt>
      <trkpt lat="46.90191" lon="5.0108">
        <ele>175.7998</ele>
        <time>2026-05-14T13:17:05+02:00</time>
      </trkpt>
      <trkpt lat="46.90189" lon="5.01091">
        <ele>175.7998</ele>
        <time>2026-05-14T13:17:06+02:00</time>
      </trkpt>
      <trkpt lat="46.90188" lon="5.01102">
        <ele>175.7002</ele>
        <time>2026-05-14T13:17:07+02:00</time>
      </trkpt>
      <trkpt lat="46.90186" lon="5.01113">
        <ele>175.7002</ele>
        <time>2026-05-14T13:17:08+02:00</time>
      </trkpt>
      <trkpt lat="46.90184" lon="5.01124">
        <ele>175.7002</ele>
        <time>2026-05-14T13:17:09+02:00</time>
      </trkpt>
      <trkpt lat="46.90181" lon="5.01134">
        <ele>175.7002</ele>
        <time>2026-05-14T13:17:10+02:00</time>
      </trkpt>
      <trkpt lat="46.90178" lon="5.01144">
        <ele>175.7002</ele>
        <time>2026-05-14T13:17:11+02:00</time>
      </trkpt>
      <trkpt lat="46.90176" lon="5.01155">
        <ele>175.7002</ele>
        <time>2026-05-14T13:17:12+02:00</time>
      </trkpt>
      <trkpt lat="46.90173" lon="5.01165">
        <ele>175.60059</ele>
        <time>2026-05-14T13:17:13+02:00</time>
      </trkpt>
      <trkpt lat="46.9017" lon="5.01174">
        <ele>175.60059</ele>
        <time>2026-05-14T13:17:14+02:00</time>
      </trkpt>
      <trkpt lat="46.90167" lon="5.01184">
        <ele>175.5</ele>
        <time>2026-05-14T13:17:15+02:00</time>
      </trkpt>
      <trkpt lat="46.90164" lon="5.01193">
        <ele>175.5</ele>
        <time>2026-05-14T13:17:16+02:00</time>
      </trkpt>
      <trkpt lat="46.90161" lon="5.01202">
        <ele>175.40039</ele>
        <time>2026-05-14T13:17:17+02:00</time>
      </trkpt>
      <trkpt lat="46.90157" lon="5.01211">
        <ele>175.40039</ele>
        <time>2026-05-14T13:17:18+02:00</time>
      </trkpt>
      <trkpt lat="46.90153" lon="5.0122">
        <ele>175.2998</ele>
        <time>2026-05-14T13:17:19+02:00</time>
      </trkpt>
      <trkpt lat="46.90149" lon="5.01229">
        <ele>175.2998</ele>
        <time>2026-05-14T13:17:20+02:00</time>
      </trkpt>
      <trkpt lat="46.90145" lon="5.01237">
        <ele>175.2002</ele>
        <time>2026-05-14T13:17:21+02:00</time>
      </trkpt>
      <trkpt lat="46.90141" lon="5.01246">
        <ele>175.2002</ele>
        <time>2026-05-14T13:17:22+02:00</time>
      </trkpt>
      <trkpt lat="46.90137" lon="5.01255">
        <ele>175.10059</ele>
        <time>2026-05-14T13:17:23+02:00</time>
      </trkpt>
      <trkpt lat="46.90132" lon="5.01263">
        <ele>175.10059</ele>
        <time>2026-05-14T13:17:24+02:00</time>
      </trkpt>
      <trkpt lat="46.90128" lon="5.01272">
        <ele>175.10059</ele>
        <time>2026-05-14T13:17:25+02:00</time>
      </trkpt>
      <trkpt lat="46.90124" lon="5.0128">
        <ele>175.10059</ele>
        <time>2026-05-14T13:17:26+02:00</time>
      </trkpt>
      <trkpt lat="46.9012" lon="5.01288">
        <ele>175.10059</ele>
        <time>2026-05-14T13:17:27+02:00</time>
      </trkpt>
      <trkpt lat="46.90115" lon="5.01296">
        <ele>175.10059</ele>
        <time>2026-05-14T13:17:28+02:00</time>
      </trkpt>
      <trkpt lat="46.90112" lon="5.01304">
        <ele>175.10059</ele>
        <time>2026-05-14T13:17:29+02:00</time>
      </trkpt>
      <trkpt lat="46.90107" lon="5.01312">
        <ele>175.2002</ele>
        <time>2026-05-14T13:17:30+02:00</time>
      </trkpt>
      <trkpt lat="46.90103" lon="5.0132">
        <ele>175.2998</ele>
        <time>2026-05-14T13:17:31+02:00</time>
      </trkpt>
      <trkpt lat="46.90099" lon="5.01328">
        <ele>175.2998</ele>
        <time>2026-05-14T13:17:32+02:00</time>
      </trkpt>
      <trkpt lat="46.90095" lon="5.01336">
        <ele>175.5</ele>
        <time>2026-05-14T13:17:33+02:00</time>
      </trkpt>
      <trkpt lat="46.90091" lon="5.01344">
        <ele>175.7002</ele>
        <time>2026-05-14T13:17:34+02:00</time>
      </trkpt>
      <trkpt lat="46.90087" lon="5.01351">
        <ele>176</ele>
        <time>2026-05-14T13:17:35+02:00</time>
      </trkpt>
      <trkpt lat="46.90083" lon="5.0136">
        <ele>176.2002</ele>
        <time>2026-05-14T13:17:36+02:00</time>
      </trkpt>
      <trkpt lat="46.90078" lon="5.01368">
        <ele>176.40039</ele>
        <time>2026-05-14T13:17:37+02:00</time>
      </trkpt>
      <trkpt lat="46.90074" lon="5.01375">
        <ele>176.60059</ele>
        <time>2026-05-14T13:17:38+02:00</time>
      </trkpt>
      <trkpt lat="46.9007" lon="5.01383">
        <ele>176.7998</ele>
        <time>2026-05-14T13:17:39+02:00</time>
      </trkpt>
      <trkpt lat="46.90066" lon="5.01391">
        <ele>176.7998</ele>
        <time>2026-05-14T13:17:40+02:00</time>
      </trkpt>
      <trkpt lat="46.90062" lon="5.01399">
        <ele>177</ele>
        <time>2026-05-14T13:17:41+02:00</time>
      </trkpt>
      <trkpt lat="46.90058" lon="5.01407">
        <ele>176.90039</ele>
        <time>2026-05-14T13:17:42+02:00</time>
      </trkpt>
      <trkpt lat="46.90053" lon="5.01415">
        <ele>176.7998</ele>
        <time>2026-05-14T13:17:43+02:00</time>
      </trkpt>
      <trkpt lat="46.90049" lon="5.01423">
        <ele>176.60059</ele>
        <time>2026-05-14T13:17:44+02:00</time>
      </trkpt>
      <trkpt lat="46.90045" lon="5.01431">
        <ele>176.60059</ele>
        <time>2026-05-14T13:17:45+02:00</time>
      </trkpt>
      <trkpt lat="46.90041" lon="5.01439">
        <ele>176.40039</ele>
        <time>2026-05-14T13:17:46+02:00</time>
      </trkpt>
      <trkpt lat="46.90037" lon="5.01447">
        <ele>176.2002</ele>
        <time>2026-05-14T13:17:47+02:00</time>
      </trkpt>
      <trkpt lat="46.90033" lon="5.01455">
        <ele>176.10059</ele>
        <time>2026-05-14T13:17:48+02:00</time>
      </trkpt>
      <trkpt lat="46.90028" lon="5.01462">
        <ele>175.7998</ele>
        <time>2026-05-14T13:17:49+02:00</time>
      </trkpt>
      <trkpt lat="46.90024" lon="5.0147">
        <ele>175.7002</ele>
        <time>2026-05-14T13:17:50+02:00</time>
      </trkpt>
      <trkpt lat="46.9002" lon="5.01478">
        <ele>175.5</ele>
        <time>2026-05-14T13:17:51+02:00</time>
      </trkpt>
      <trkpt lat="46.90016" lon="5.01487">
        <ele>175.5</ele>
        <time>2026-05-14T13:17:52+02:00</time>
      </trkpt>
      <trkpt lat="46.90012" lon="5.01494">
        <ele>175.5</ele>
        <time>2026-05-14T13:17:53+02:00</time>
      </trkpt>
      <trkpt lat="46.90008" lon="5.01503">
        <ele>175.60059</ele>
        <time>2026-05-14T13:17:54+02:00</time>
      </trkpt>
      <trkpt lat="46.90003" lon="5.0151">
        <ele>175.7002</ele>
        <time>2026-05-14T13:17:55+02:00</time>
      </trkpt>
      <trkpt lat="46.89999" lon="5.01518">
        <ele>175.7998</ele>
        <time>2026-05-14T13:17:56+02:00</time>
      </trkpt>
      <trkpt lat="46.89995" lon="5.01526">
        <ele>176</ele>
        <time>2026-05-14T13:17:57+02:00</time>
      </trkpt>
      <trkpt lat="46.89991" lon="5.01535">
        <ele>176.10059</ele>
        <time>2026-05-14T13:17:58+02:00</time>
      </trkpt>
      <trkpt lat="46.89987" lon="5.01543">
        <ele>176.10059</ele>
        <time>2026-05-14T13:17:59+02:00</time>
      </trkpt>
      <trkpt lat="46.89982" lon="5.01551">
        <ele>176.2998</ele>
        <time>2026-05-14T13:18:00+02:00</time>
      </trkpt>
      <trkpt lat="46.89978" lon="5.01559">
        <ele>176.40039</ele>
        <time>2026-05-14T13:18:01+02:00</time>
      </trkpt>
      <trkpt lat="46.89974" lon="5.01567">
        <ele>176.5</ele>
        <time>2026-05-14T13:18:02+02:00</time>
      </trkpt>
      <trkpt lat="46.8997" lon="5.01575">
        <ele>176.5</ele>
        <time>2026-05-14T13:18:03+02:00</time>
      </trkpt>
      <trkpt lat="46.89965" lon="5.01583">
        <ele>176.40039</ele>
        <time>2026-05-14T13:18:04+02:00</time>
      </trkpt>
      <trkpt lat="46.89961" lon="5.01591">
        <ele>176.2998</ele>
        <time>2026-05-14T13:18:05+02:00</time>
      </trkpt>
      <trkpt lat="46.89957" lon="5.01599">
        <ele>176.2002</ele>
        <time>2026-05-14T13:18:06+02:00</time>
      </trkpt>
      <trkpt lat="46.89953" lon="5.01607">
        <ele>176</ele>
        <time>2026-05-14T13:18:07+02:00</time>
      </trkpt>
      <trkpt lat="46.89948" lon="5.01615">
        <ele>175.7998</ele>
        <time>2026-05-14T13:18:08+02:00</time>
      </trkpt>
      <trkpt lat="46.89944" lon="5.01623">
        <ele>175.60059</ele>
        <time>2026-05-14T13:18:09+02:00</time>
      </trkpt>
      <trkpt lat="46.8994" lon="5.01631">
        <ele>175.40039</ele>
        <time>2026-05-14T13:18:10+02:00</time>
      </trkpt>
      <trkpt lat="46.89936" lon="5.01638">
        <ele>175.2998</ele>
        <time>2026-05-14T13:18:11+02:00</time>
      </trkpt>
      <trkpt lat="46.89932" lon="5.01646">
        <ele>175.2998</ele>
        <time>2026-05-14T13:18:12+02:00</time>
      </trkpt>
      <trkpt lat="46.89927" lon="5.01654">
        <ele>175.2002</ele>
        <time>2026-05-14T13:18:13+02:00</time>
      </trkpt>
      <trkpt lat="46.89924" lon="5.01662">
        <ele>175.10059</ele>
        <time>2026-05-14T13:18:14+02:00</time>
      </trkpt>
      <trkpt lat="46.89919" lon="5.0167">
        <ele>175.10059</ele>
        <time>2026-05-14T13:18:15+02:00</time>
      </trkpt>
      <trkpt lat="46.89914" lon="5.01678">
        <ele>175.10059</ele>
        <time>2026-05-14T13:18:16+02:00</time>
      </trkpt>
      <trkpt lat="46.8991" lon="5.01687">
        <ele>175.2002</ele>
        <time>2026-05-14T13:18:17+02:00</time>
      </trkpt>
      <trkpt lat="46.89906" lon="5.01695">
        <ele>175.2002</ele>
        <time>2026-05-14T13:18:18+02:00</time>
      </trkpt>
      <trkpt lat="46.89901" lon="5.01703">
        <ele>175.2002</ele>
        <time>2026-05-14T13:18:19+02:00</time>
      </trkpt>
      <trkpt lat="46.89897" lon="5.01712">
        <ele>175.2998</ele>
        <time>2026-05-14T13:18:20+02:00</time>
      </trkpt>
      <trkpt lat="46.89893" lon="5.0172">
        <ele>175.2998</ele>
        <time>2026-05-14T13:18:21+02:00</time>
      </trkpt>
      <trkpt lat="46.89889" lon="5.01728">
        <ele>175.2002</ele>
        <time>2026-05-14T13:18:22+02:00</time>
      </trkpt>
      <trkpt lat="46.89884" lon="5.01737">
        <ele>175</ele>
        <time>2026-05-14T13:18:23+02:00</time>
      </trkpt>
      <trkpt lat="46.8988" lon="5.01745">
        <ele>175.10059</ele>
        <time>2026-05-14T13:18:24+02:00</time>
      </trkpt>
      <trkpt lat="46.89876" lon="5.01753">
        <ele>175</ele>
        <time>2026-05-14T13:18:25+02:00</time>
      </trkpt>
      <trkpt lat="46.89871" lon="5.01761">
        <ele>175</ele>
        <time>2026-05-14T13:18:26+02:00</time>
      </trkpt>
      <trkpt lat="46.89867" lon="5.01769">
        <ele>175</ele>
        <time>2026-05-14T13:18:27+02:00</time>
      </trkpt>
      <trkpt lat="46.89863" lon="5.01777">
        <ele>175.2002</ele>
        <time>2026-05-14T13:18:28+02:00</time>
      </trkpt>
      <trkpt lat="46.89858" lon="5.01785">
        <ele>175.2998</ele>
        <time>2026-05-14T13:18:29+02:00</time>
      </trkpt>
      <trkpt lat="46.89854" lon="5.01793">
        <ele>175.2998</ele>
        <time>2026-05-14T13:18:30+02:00</time>
      </trkpt>
      <trkpt lat="46.8985" lon="5.01801">
        <ele>175.40039</ele>
        <time>2026-05-14T13:18:31+02:00</time>
      </trkpt>
      <trkpt lat="46.89846" lon="5.01809">
        <ele>175.40039</ele>
        <time>2026-05-14T13:18:32+02:00</time>
      </trkpt>
      <trkpt lat="46.89842" lon="5.01817">
        <ele>175.5</ele>
        <time>2026-05-14T13:18:33+02:00</time>
      </trkpt>
      <trkpt lat="46.89837" lon="5.01825">
        <ele>175.60059</ele>
        <time>2026-05-14T13:18:34+02:00</time>
      </trkpt>
      <trkpt lat="46.89833" lon="5.01834">
        <ele>175.7998</ele>
        <time>2026-05-14T13:18:35+02:00</time>
      </trkpt>
      <trkpt lat="46.89829" lon="5.01842">
        <ele>175.7998</ele>
        <time>2026-05-14T13:18:36+02:00</time>
      </trkpt>
      <trkpt lat="46.89824" lon="5.0185">
        <ele>175.7998</ele>
        <time>2026-05-14T13:18:37+02:00</time>
      </trkpt>
      <trkpt lat="46.8982" lon="5.01858">
        <ele>175.7002</ele>
        <time>2026-05-14T13:18:38+02:00</time>
      </trkpt>
      <trkpt lat="46.89816" lon="5.01866">
        <ele>175.7998</ele>
        <time>2026-05-14T13:18:39+02:00</time>
      </trkpt>
      <trkpt lat="46.89811" lon="5.01874">
        <ele>175.7002</ele>
        <time>2026-05-14T13:18:40+02:00</time>
      </trkpt>
      <trkpt lat="46.89807" lon="5.01882">
        <ele>175.60059</ele>
        <time>2026-05-14T13:18:41+02:00</time>
      </trkpt>
      <trkpt lat="46.89803" lon="5.01891">
        <ele>175.60059</ele>
        <time>2026-05-14T13:18:42+02:00</time>
      </trkpt>
      <trkpt lat="46.89799" lon="5.01898">
        <ele>175.7002</ele>
        <time>2026-05-14T13:18:43+02:00</time>
      </trkpt>
      <trkpt lat="46.89795" lon="5.01907">
        <ele>175.60059</ele>
        <time>2026-05-14T13:18:44+02:00</time>
      </trkpt>
      <trkpt lat="46.89792" lon="5.01915">
        <ele>175.7002</ele>
        <time>2026-05-14T13:18:45+02:00</time>
      </trkpt>
      <trkpt lat="46.89789" lon="5.01923">
        <ele>175.7002</ele>
        <time>2026-05-14T13:18:46+02:00</time>
      </trkpt>
      <trkpt lat="46.89785" lon="5.01931">
        <ele>175.7002</ele>
        <time>2026-05-14T13:18:47+02:00</time>
      </trkpt>
      <trkpt lat="46.89782" lon="5.01939">
        <ele>175.7998</ele>
        <time>2026-05-14T13:18:48+02:00</time>
      </trkpt>
      <trkpt lat="46.89779" lon="5.01947">
        <ele>175.7998</ele>
        <time>2026-05-14T13:18:49+02:00</time>
      </trkpt>
      <trkpt lat="46.89776" lon="5.01955">
        <ele>175.7998</ele>
        <time>2026-05-14T13:18:50+02:00</time>
      </trkpt>
      <trkpt lat="46.89773" lon="5.01962">
        <ele>175.7998</ele>
        <time>2026-05-14T13:18:51+02:00</time>
      </trkpt>
      <trkpt lat="46.8977" lon="5.0197">
        <ele>175.90039</ele>
        <time>2026-05-14T13:18:52+02:00</time>
      </trkpt>
      <trkpt lat="46.89768" lon="5.01977">
        <ele>175.90039</ele>
        <time>2026-05-14T13:18:53+02:00</time>
      </trkpt>
      <trkpt lat="46.89765" lon="5.01984">
        <ele>176</ele>
        <time>2026-05-14T13:18:54+02:00</time>
      </trkpt>
      <trkpt lat="46.89763" lon="5.01991">
        <ele>176.10059</ele>
        <time>2026-05-14T13:18:55+02:00</time>
      </trkpt>
      <trkpt lat="46.8976" lon="5.01998">
        <ele>176.2998</ele>
        <time>2026-05-14T13:18:56+02:00</time>
      </trkpt>
      <trkpt lat="46.89757" lon="5.02005">
        <ele>176.2998</ele>
        <time>2026-05-14T13:18:57+02:00</time>
      </trkpt>
      <trkpt lat="46.89755" lon="5.02012">
        <ele>176.40039</ele>
        <time>2026-05-14T13:18:58+02:00</time>
      </trkpt>
      <trkpt lat="46.89752" lon="5.02018">
        <ele>176.5</ele>
        <time>2026-05-14T13:18:59+02:00</time>
      </trkpt>
      <trkpt lat="46.8975" lon="5.02024">
        <ele>176.7002</ele>
        <time>2026-05-14T13:19:00+02:00</time>
      </trkpt>
      <trkpt lat="46.89748" lon="5.02031">
        <ele>176.7002</ele>
        <time>2026-05-14T13:19:01+02:00</time>
      </trkpt>
      <trkpt lat="46.89746" lon="5.02037">
        <ele>176.90039</ele>
        <time>2026-05-14T13:19:02+02:00</time>
      </trkpt>
      <trkpt lat="46.89744" lon="5.02044">
        <ele>177.10059</ele>
        <time>2026-05-14T13:19:03+02:00</time>
      </trkpt>
      <trkpt lat="46.89741" lon="5.0205">
        <ele>177.2998</ele>
        <time>2026-05-14T13:19:04+02:00</time>
      </trkpt>
      <trkpt lat="46.89739" lon="5.02055">
        <ele>177.2998</ele>
        <time>2026-05-14T13:19:05+02:00</time>
      </trkpt>
      <trkpt lat="46.89737" lon="5.02062">
        <ele>177.40039</ele>
        <time>2026-05-14T13:19:06+02:00</time>
      </trkpt>
      <trkpt lat="46.89735" lon="5.02068">
        <ele>177.60059</ele>
        <time>2026-05-14T13:19:07+02:00</time>
      </trkpt>
      <trkpt lat="46.89732" lon="5.02074">
        <ele>177.60059</ele>
        <time>2026-05-14T13:19:08+02:00</time>
      </trkpt>
      <trkpt lat="46.89729" lon="5.0208">
        <ele>177.7002</ele>
        <time>2026-05-14T13:19:09+02:00</time>
      </trkpt>
      <trkpt lat="46.89727" lon="5.02088">
        <ele>177.7998</ele>
        <time>2026-05-14T13:19:10+02:00</time>
      </trkpt>
      <trkpt lat="46.89724" lon="5.02095">
        <ele>177.90039</ele>
        <time>2026-05-14T13:19:11+02:00</time>
      </trkpt>
      <trkpt lat="46.89721" lon="5.02103">
        <ele>177.90039</ele>
        <time>2026-05-14T13:19:12+02:00</time>
      </trkpt>
      <trkpt lat="46.89718" lon="5.0211">
        <ele>177.90039</ele>
        <time>2026-05-14T13:19:13+02:00</time>
      </trkpt>
      <trkpt lat="46.89715" lon="5.02118">
        <ele>177.90039</ele>
        <time>2026-05-14T13:19:14+02:00</time>
      </trkpt>
      <trkpt lat="46.89712" lon="5.02126">
        <ele>177.90039</ele>
        <time>2026-05-14T13:19:15+02:00</time>
      </trkpt>
      <trkpt lat="46.89708" lon="5.02134">
        <ele>178</ele>
        <time>2026-05-14T13:19:16+02:00</time>
      </trkpt>
      <trkpt lat="46.89705" lon="5.02142">
        <ele>178</ele>
        <time>2026-05-14T13:19:17+02:00</time>
      </trkpt>
      <trkpt lat="46.89702" lon="5.0215">
        <ele>178.10059</ele>
        <time>2026-05-14T13:19:18+02:00</time>
      </trkpt>
      <trkpt lat="46.89698" lon="5.02159">
        <ele>178.10059</ele>
        <time>2026-05-14T13:19:19+02:00</time>
      </trkpt>
      <trkpt lat="46.89695" lon="5.02167">
        <ele>178.2002</ele>
        <time>2026-05-14T13:19:20+02:00</time>
      </trkpt>
      <trkpt lat="46.89692" lon="5.02176">
        <ele>178.2998</ele>
        <time>2026-05-14T13:19:21+02:00</time>
      </trkpt>
      <trkpt lat="46.8969" lon="5.02185">
        <ele>178.40039</ele>
        <time>2026-05-14T13:19:22+02:00</time>
      </trkpt>
      <trkpt lat="46.89687" lon="5.02193">
        <ele>178.60059</ele>
        <time>2026-05-14T13:19:23+02:00</time>
      </trkpt>
      <trkpt lat="46.89685" lon="5.02202">
        <ele>178.7002</ele>
        <time>2026-05-14T13:19:24+02:00</time>
      </trkpt>
      <trkpt lat="46.89682" lon="5.02211">
        <ele>178.90039</ele>
        <time>2026-05-14T13:19:25+02:00</time>
      </trkpt>
      <trkpt lat="46.89679" lon="5.02219">
        <ele>179.10059</ele>
        <time>2026-05-14T13:19:26+02:00</time>
      </trkpt>
      <trkpt lat="46.89677" lon="5.02228">
        <ele>179.2002</ele>
        <time>2026-05-14T13:19:27+02:00</time>
      </trkpt>
      <trkpt lat="46.89675" lon="5.02237">
        <ele>179.40039</ele>
        <time>2026-05-14T13:19:28+02:00</time>
      </trkpt>
      <trkpt lat="46.89672" lon="5.02246">
        <ele>179.5</ele>
        <time>2026-05-14T13:19:29+02:00</time>
      </trkpt>
      <trkpt lat="46.89668" lon="5.02254">
        <ele>179.7002</ele>
        <time>2026-05-14T13:19:30+02:00</time>
      </trkpt>
      <trkpt lat="46.89665" lon="5.02263">
        <ele>179.7998</ele>
        <time>2026-05-14T13:19:31+02:00</time>
      </trkpt>
      <trkpt lat="46.89662" lon="5.02271">
        <ele>179.7998</ele>
        <time>2026-05-14T13:19:32+02:00</time>
      </trkpt>
      <trkpt lat="46.89658" lon="5.02279">
        <ele>179.90039</ele>
        <time>2026-05-14T13:19:33+02:00</time>
      </trkpt>
      <trkpt lat="46.89655" lon="5.02286">
        <ele>180</ele>
        <time>2026-05-14T13:19:34+02:00</time>
      </trkpt>
      <trkpt lat="46.89652" lon="5.02293">
        <ele>180</ele>
        <time>2026-05-14T13:19:35+02:00</time>
      </trkpt>
      <trkpt lat="46.89648" lon="5.02299">
        <ele>180.10059</ele>
        <time>2026-05-14T13:19:36+02:00</time>
      </trkpt>
      <trkpt lat="46.89644" lon="5.02306">
        <ele>180.10059</ele>
        <time>2026-05-14T13:19:37+02:00</time>
      </trkpt>
      <trkpt lat="46.8964" lon="5.02312">
        <ele>180.2002</ele>
        <time>2026-05-14T13:19:38+02:00</time>
      </trkpt>
      <trkpt lat="46.89637" lon="5.02318">
        <ele>180.2998</ele>
        <time>2026-05-14T13:19:39+02:00</time>
      </trkpt>
      <trkpt lat="46.89633" lon="5.02325">
        <ele>180.5</ele>
        <time>2026-05-14T13:19:40+02:00</time>
      </trkpt>
      <trkpt lat="46.8963" lon="5.02331">
        <ele>180.5</ele>
        <time>2026-05-14T13:19:41+02:00</time>
      </trkpt>
      <trkpt lat="46.89627" lon="5.02336">
        <ele>180.7002</ele>
        <time>2026-05-14T13:19:42+02:00</time>
      </trkpt>
      <trkpt lat="46.89624" lon="5.02342">
        <ele>180.90039</ele>
        <time>2026-05-14T13:19:43+02:00</time>
      </trkpt>
      <trkpt lat="46.8962" lon="5.02347">
        <ele>181</ele>
        <time>2026-05-14T13:19:44+02:00</time>
      </trkpt>
      <trkpt lat="46.89617" lon="5.02351">
        <ele>181.10059</ele>
        <time>2026-05-14T13:19:45+02:00</time>
      </trkpt>
      <trkpt lat="46.89614" lon="5.02355">
        <ele>181.2002</ele>
        <time>2026-05-14T13:19:46+02:00</time>
      </trkpt>
      <trkpt lat="46.89611" lon="5.0236">
        <ele>181.2998</ele>
        <time>2026-05-14T13:19:47+02:00</time>
      </trkpt>
      <trkpt lat="46.89608" lon="5.02364">
        <ele>181.40039</ele>
        <time>2026-05-14T13:19:48+02:00</time>
      </trkpt>
      <trkpt lat="46.89604" lon="5.02369">
        <ele>181.60059</ele>
        <time>2026-05-14T13:19:49+02:00</time>
      </trkpt>
      <trkpt lat="46.89601" lon="5.02373">
        <ele>181.60059</ele>
        <time>2026-05-14T13:19:50+02:00</time>
      </trkpt>
      <trkpt lat="46.89596" lon="5.02376">
        <ele>181.90039</ele>
        <time>2026-05-14T13:19:51+02:00</time>
      </trkpt>
      <trkpt lat="46.89592" lon="5.0238">
        <ele>181.90039</ele>
        <time>2026-05-14T13:19:52+02:00</time>
      </trkpt>
      <trkpt lat="46.89589" lon="5.02384">
        <ele>181.90039</ele>
        <time>2026-05-14T13:19:53+02:00</time>
      </trkpt>
      <trkpt lat="46.89585" lon="5.02388">
        <ele>182.10059</ele>
        <time>2026-05-14T13:19:54+02:00</time>
      </trkpt>
      <trkpt lat="46.89583" lon="5.02392">
        <ele>182.10059</ele>
        <time>2026-05-14T13:19:55+02:00</time>
      </trkpt>
      <trkpt lat="46.8958" lon="5.02396">
        <ele>182.2002</ele>
        <time>2026-05-14T13:19:56+02:00</time>
      </trkpt>
      <trkpt lat="46.89578" lon="5.024">
        <ele>182.2002</ele>
        <time>2026-05-14T13:19:57+02:00</time>
      </trkpt>
      <trkpt lat="46.89575" lon="5.02404">
        <ele>182.40039</ele>
        <time>2026-05-14T13:19:58+02:00</time>
      </trkpt>
      <trkpt lat="46.89572" lon="5.02408">
        <ele>182.2998</ele>
        <time>2026-05-14T13:19:59+02:00</time>
      </trkpt>
      <trkpt lat="46.8957" lon="5.02413">
        <ele>182.40039</ele>
        <time>2026-05-14T13:20:00+02:00</time>
      </trkpt>
      <trkpt lat="46.89569" lon="5.02416">
        <ele>182.40039</ele>
        <time>2026-05-14T13:20:01+02:00</time>
      </trkpt>
      <trkpt lat="46.89569" lon="5.02419">
        <ele>182.5</ele>
        <time>2026-05-14T13:20:02+02:00</time>
      </trkpt>
      <trkpt lat="46.89568" lon="5.02421">
        <ele>182.60059</ele>
        <time>2026-05-14T13:20:03+02:00</time>
      </trkpt>
      <trkpt lat="46.89568" lon="5.02422">
        <ele>182.60059</ele>
        <time>2026-05-14T13:20:04+02:00</time>
      </trkpt>
      <trkpt lat="46.89568" lon="5.02423">
        <ele>182.60059</ele>
        <time>2026-05-14T13:20:05+02:00</time>
      </trkpt>
      <trkpt lat="46.89568" lon="5.02423">
        <ele>182.60059</ele>
        <time>2026-05-14T13:20:06+02:00</time>
      </trkpt>
      <trkpt lat="46.89569" lon="5.02425">
        <ele>182.5</ele>
        <time>2026-05-14T13:20:07+02:00</time>
      </trkpt>
      <trkpt lat="46.89571" lon="5.02427">
        <ele>182.5</ele>
        <time>2026-05-14T13:20:08+02:00</time>
      </trkpt>
      <trkpt lat="46.89573" lon="5.02429">
        <ele>182.60059</ele>
        <time>2026-05-14T13:20:09+02:00</time>
      </trkpt>
      <trkpt lat="46.89575" lon="5.02431">
        <ele>182.60059</ele>
        <time>2026-05-14T13:20:10+02:00</time>
      </trkpt>
      <trkpt lat="46.89577" lon="5.02434">
        <ele>182.60059</ele>
        <time>2026-05-14T13:20:11+02:00</time>
      </trkpt>
      <trkpt lat="46.89579" lon="5.02436">
        <ele>182.60059</ele>
        <time>2026-05-14T13:20:12+02:00</time>
      </trkpt>
      <trkpt lat="46.89581" lon="5.02438">
        <ele>182.60059</ele>
        <time>2026-05-14T13:20:13+02:00</time>
      </trkpt>
      <trkpt lat="46.89582" lon="5.0244">
        <ele>182.60059</ele>
        <time>2026-05-14T13:20:14+02:00</time>
      </trkpt>
      <trkpt lat="46.89583" lon="5.02441">
        <ele>182.60059</ele>
        <time>2026-05-14T13:20:15+02:00</time>
      </trkpt>
      <trkpt lat="46.89584" lon="5.02443">
        <ele>182.60059</ele>
        <time>2026-05-14T13:20:16+02:00</time>
      </trkpt>
      <trkpt lat="46.89585" lon="5.02443">
        <ele>182.60059</ele>
        <time>2026-05-14T13:20:17+02:00</time>
      </trkpt>
      <trkpt lat="46.89585" lon="5.02443">
        <ele>182.60059</ele>
        <time>2026-05-14T13:20:18+02:00</time>
      </trkpt>
      <trkpt lat="46.89585" lon="5.02443">
        <ele>182.60059</ele>
        <time>2026-05-14T13:20:19+02:00</time>
      </trkpt>
      <trkpt lat="46.89585" lon="5.02443">
        <ele>182.60059</ele>
        <time>2026-05-14T13:20:20+02:00</time>
      </trkpt>
      <trkpt lat="46.89585" lon="5.02443">
        <ele>182.60059</ele>
        <time>2026-05-14T13:20:21+02:00</time>
      </trkpt>
      <trkpt lat="46.8957" lon="5.02429">
        <ele>182.60059</ele>
        <time>2026-05-14T13:23:36+02:00</time>
      </trkpt>
      <trkpt lat="46.89567" lon="5.02428">
        <ele>182.7002</ele>
        <time>2026-05-14T13:23:37+02:00</time>
      </trkpt>
      <trkpt lat="46.89565" lon="5.02426">
        <ele>182.60059</ele>
        <time>2026-05-14T13:23:38+02:00</time>
      </trkpt>
      <trkpt lat="46.89563" lon="5.02425">
        <ele>182.60059</ele>
        <time>2026-05-14T13:23:39+02:00</time>
      </trkpt>
      <trkpt lat="46.89561" lon="5.02424">
        <ele>182.5</ele>
        <time>2026-05-14T13:23:40+02:00</time>
      </trkpt>
      <trkpt lat="46.89559" lon="5.02422">
        <ele>182.5</ele>
        <time>2026-05-14T13:23:41+02:00</time>
      </trkpt>
      <trkpt lat="46.89557" lon="5.02421">
        <ele>182.5</ele>
        <time>2026-05-14T13:23:42+02:00</time>
      </trkpt>
      <trkpt lat="46.89555" lon="5.0242">
        <ele>182.5</ele>
        <time>2026-05-14T13:23:43+02:00</time>
      </trkpt>
      <trkpt lat="46.89553" lon="5.02418">
        <ele>182.10059</ele>
        <time>2026-05-14T13:23:44+02:00</time>
      </trkpt>
      <trkpt lat="46.89552" lon="5.02417">
        <ele>182.10059</ele>
        <time>2026-05-14T13:23:45+02:00</time>
      </trkpt>
      <trkpt lat="46.89551" lon="5.02416">
        <ele>182.10059</ele>
        <time>2026-05-14T13:23:46+02:00</time>
      </trkpt>
      <trkpt lat="46.89549" lon="5.02415">
        <ele>181.90039</ele>
        <time>2026-05-14T13:23:47+02:00</time>
      </trkpt>
      <trkpt lat="46.89548" lon="5.02414">
        <ele>181.90039</ele>
        <time>2026-05-14T13:23:48+02:00</time>
      </trkpt>
      <trkpt lat="46.89547" lon="5.02414">
        <ele>181.90039</ele>
        <time>2026-05-14T13:23:49+02:00</time>
      </trkpt>
      <trkpt lat="46.89547" lon="5.02414">
        <ele>181.90039</ele>
        <time>2026-05-14T13:23:50+02:00</time>
      </trkpt>
      <trkpt lat="46.89527" lon="5.02409">
        <ele>181</ele>
        <time>2026-05-14T13:24:17+02:00</time>
      </trkpt>
      <trkpt lat="46.89525" lon="5.02408">
        <ele>181</ele>
        <time>2026-05-14T13:24:18+02:00</time>
      </trkpt>
      <trkpt lat="46.89522" lon="5.02406">
        <ele>181</ele>
        <time>2026-05-14T13:24:19+02:00</time>
      </trkpt>
      <trkpt lat="46.89519" lon="5.02405">
        <ele>180.7998</ele>
        <time>2026-05-14T13:24:20+02:00</time>
      </trkpt>
      <trkpt lat="46.89517" lon="5.02404">
        <ele>180.7998</ele>
        <time>2026-05-14T13:24:21+02:00</time>
      </trkpt>
      <trkpt lat="46.89514" lon="5.02404">
        <ele>180.60059</ele>
        <time>2026-05-14T13:24:22+02:00</time>
      </trkpt>
      <trkpt lat="46.8951" lon="5.02403">
        <ele>180.40039</ele>
        <time>2026-05-14T13:24:23+02:00</time>
      </trkpt>
      <trkpt lat="46.89508" lon="5.02403">
        <ele>180.40039</ele>
        <time>2026-05-14T13:24:24+02:00</time>
      </trkpt>
      <trkpt lat="46.89506" lon="5.02403">
        <ele>180.40039</ele>
        <time>2026-05-14T13:24:25+02:00</time>
      </trkpt>
      <trkpt lat="46.89504" lon="5.02404">
        <ele>180.2998</ele>
        <time>2026-05-14T13:24:26+02:00</time>
      </trkpt>
      <trkpt lat="46.89502" lon="5.02406">
        <ele>180.2998</ele>
        <time>2026-05-14T13:24:27+02:00</time>
      </trkpt>
      <trkpt lat="46.89502" lon="5.02408">
        <ele>180.2998</ele>
        <time>2026-05-14T13:24:28+02:00</time>
      </trkpt>
      <trkpt lat="46.89503" lon="5.02409">
        <ele>180.2998</ele>
        <time>2026-05-14T13:24:29+02:00</time>
      </trkpt>
      <trkpt lat="46.89505" lon="5.02409">
        <ele>180.40039</ele>
        <time>2026-05-14T13:24:30+02:00</time>
      </trkpt>
      <trkpt lat="46.89506" lon="5.02409">
        <ele>180.40039</ele>
        <time>2026-05-14T13:24:31+02:00</time>
      </trkpt>
      <trkpt lat="46.89507" lon="5.02409">
        <ele>180.40039</ele>
        <time>2026-05-14T13:24:32+02:00</time>
      </trkpt>
      <trkpt lat="46.89508" lon="5.02409">
        <ele>180.40039</ele>
        <time>2026-05-14T13:24:33+02:00</time>
      </trkpt>
      <trkpt lat="46.89509" lon="5.02408">
        <ele>180.40039</ele>
        <time>2026-05-14T13:24:34+02:00</time>
      </trkpt>
      <trkpt lat="46.89509" lon="5.02408">
        <ele>180.40039</ele>
        <time>2026-05-14T13:24:35+02:00</time>
      </trkpt>
      <trkpt lat="46.89511" lon="5.02407">
        <ele>180.60059</ele>
        <time>2026-05-14T13:24:36+02:00</time>
      </trkpt>
      <trkpt lat="46.89513" lon="5.02407">
        <ele>180.60059</ele>
        <time>2026-05-14T13:24:37+02:00</time>
      </trkpt>
      <trkpt lat="46.89515" lon="5.02407">
        <ele>180.60059</ele>
        <time>2026-05-14T13:24:38+02:00</time>
      </trkpt>
      <trkpt lat="46.89517" lon="5.02408">
        <ele>180.7998</ele>
        <time>2026-05-14T13:24:39+02:00</time>
      </trkpt>
      <trkpt lat="46.89518" lon="5.02409">
        <ele>180.7998</ele>
        <time>2026-05-14T13:24:40+02:00</time>
      </trkpt>
      <trkpt lat="46.89521" lon="5.02411">
        <ele>181</ele>
        <time>2026-05-14T13:24:41+02:00</time>
      </trkpt>
      <trkpt lat="46.89523" lon="5.02413">
        <ele>181.2002</ele>
        <time>2026-05-14T13:24:42+02:00</time>
      </trkpt>
      <trkpt lat="46.89526" lon="5.02415">
        <ele>181.2002</ele>
        <time>2026-05-14T13:24:43+02:00</time>
      </trkpt>
      <trkpt lat="46.89528" lon="5.02416">
        <ele>181.40039</ele>
        <time>2026-05-14T13:24:44+02:00</time>
      </trkpt>
      <trkpt lat="46.89531" lon="5.02419">
        <ele>181.7002</ele>
        <time>2026-05-14T13:24:45+02:00</time>
      </trkpt>
      <trkpt lat="46.89535" lon="5.02421">
        <ele>181.90039</ele>
        <time>2026-05-14T13:24:46+02:00</time>
      </trkpt>
      <trkpt lat="46.89538" lon="5.02422">
        <ele>181.90039</ele>
        <time>2026-05-14T13:24:47+02:00</time>
      </trkpt>
      <trkpt lat="46.89541" lon="5.02424">
        <ele>182.10059</ele>
        <time>2026-05-14T13:24:48+02:00</time>
      </trkpt>
      <trkpt lat="46.89543" lon="5.02426">
        <ele>182.10059</ele>
        <time>2026-05-14T13:24:49+02:00</time>
      </trkpt>
      <trkpt lat="46.89546" lon="5.02428">
        <ele>182.5</ele>
        <time>2026-05-14T13:24:50+02:00</time>
      </trkpt>
      <trkpt lat="46.89548" lon="5.02431">
        <ele>182.5</ele>
        <time>2026-05-14T13:24:51+02:00</time>
      </trkpt>
      <trkpt lat="46.8955" lon="5.02433">
        <ele>182.5</ele>
        <time>2026-05-14T13:24:52+02:00</time>
      </trkpt>
      <trkpt lat="46.89551" lon="5.02433">
        <ele>182.7002</ele>
        <time>2026-05-14T13:24:53+02:00</time>
      </trkpt>
      <trkpt lat="46.89554" lon="5.02431">
        <ele>182.7002</ele>
        <time>2026-05-14T13:24:54+02:00</time>
      </trkpt>
      <trkpt lat="46.89556" lon="5.02427">
        <ele>182.5</ele>
        <time>2026-05-14T13:24:55+02:00</time>
      </trkpt>
      <trkpt lat="46.89559" lon="5.02421">
        <ele>182.5</ele>
        <time>2026-05-14T13:24:56+02:00</time>
      </trkpt>
      <trkpt lat="46.89564" lon="5.02415">
        <ele>182.40039</ele>
        <time>2026-05-14T13:24:57+02:00</time>
      </trkpt>
      <trkpt lat="46.89567" lon="5.02408">
        <ele>182.2002</ele>
        <time>2026-05-14T13:24:58+02:00</time>
      </trkpt>
      <trkpt lat="46.89571" lon="5.02402">
        <ele>182.2998</ele>
        <time>2026-05-14T13:24:59+02:00</time>
      </trkpt>
      <trkpt lat="46.89575" lon="5.02396">
        <ele>182.2002</ele>
        <time>2026-05-14T13:25:00+02:00</time>
      </trkpt>
      <trkpt lat="46.89578" lon="5.02389">
        <ele>182.10059</ele>
        <time>2026-05-14T13:25:01+02:00</time>
      </trkpt>
      <trkpt lat="46.89581" lon="5.02384">
        <ele>181.90039</ele>
        <time>2026-05-14T13:25:02+02:00</time>
      </trkpt>
      <trkpt lat="46.89585" lon="5.02381">
        <ele>181.90039</ele>
        <time>2026-05-14T13:25:03+02:00</time>
      </trkpt>
      <trkpt lat="46.8959" lon="5.0238">
        <ele>181.90039</ele>
        <time>2026-05-14T13:25:04+02:00</time>
      </trkpt>
      <trkpt lat="46.89594" lon="5.02382">
        <ele>181.90039</ele>
        <time>2026-05-14T13:25:05+02:00</time>
      </trkpt>
      <trkpt lat="46.89597" lon="5.02384">
        <ele>181.90039</ele>
        <time>2026-05-14T13:25:06+02:00</time>
      </trkpt>
      <trkpt lat="46.89601" lon="5.02387">
        <ele>182</ele>
        <time>2026-05-14T13:25:07+02:00</time>
      </trkpt>
      <trkpt lat="46.89603" lon="5.0239">
        <ele>182</ele>
        <time>2026-05-14T13:25:08+02:00</time>
      </trkpt>
      <trkpt lat="46.89607" lon="5.02393">
        <ele>182</ele>
        <time>2026-05-14T13:25:09+02:00</time>
      </trkpt>
      <trkpt lat="46.8961" lon="5.02396">
        <ele>181.90039</ele>
        <time>2026-05-14T13:25:10+02:00</time>
      </trkpt>
      <trkpt lat="46.89614" lon="5.02399">
        <ele>181.90039</ele>
        <time>2026-05-14T13:25:11+02:00</time>
      </trkpt>
      <trkpt lat="46.89618" lon="5.02402">
        <ele>181.90039</ele>
        <time>2026-05-14T13:25:12+02:00</time>
      </trkpt>
      <trkpt lat="46.89621" lon="5.02405">
        <ele>181.90039</ele>
        <time>2026-05-14T13:25:13+02:00</time>
      </trkpt>
      <trkpt lat="46.89625" lon="5.02408">
        <ele>181.7002</ele>
        <time>2026-05-14T13:25:14+02:00</time>
      </trkpt>
      <trkpt lat="46.89628" lon="5.02411">
        <ele>181.5</ele>
        <time>2026-05-14T13:25:15+02:00</time>
      </trkpt>
      <trkpt lat="46.89631" lon="5.02414">
        <ele>181.5</ele>
        <time>2026-05-14T13:25:16+02:00</time>
      </trkpt>
      <trkpt lat="46.89633" lon="5.02416">
        <ele>181.40039</ele>
        <time>2026-05-14T13:25:17+02:00</time>
      </trkpt>
      <trkpt lat="46.89634" lon="5.02418">
        <ele>181.40039</ele>
        <time>2026-05-14T13:25:18+02:00</time>
      </trkpt>
      <trkpt lat="46.89635" lon="5.0242">
        <ele>181.2998</ele>
        <time>2026-05-14T13:25:19+02:00</time>
      </trkpt>
      <trkpt lat="46.89636" lon="5.0242">
        <ele>181.2998</ele>
        <time>2026-05-14T13:25:20+02:00</time>
      </trkpt>
      <trkpt lat="46.89636" lon="5.0242">
        <ele>181.2998</ele>
        <time>2026-05-14T13:25:21+02:00</time>
      </trkpt>
      <trkpt lat="46.89636" lon="5.0242">
        <ele>181.2998</ele>
        <time>2026-05-14T13:25:22+02:00</time>
      </trkpt>
      <trkpt lat="46.89636" lon="5.0242">
        <ele>181.2998</ele>
        <time>2026-05-14T13:25:23+02:00</time>
      </trkpt>
      <trkpt lat="46.89641" lon="5.02448">
        <ele>180.7998</ele>
        <time>2026-05-14T13:28:06+02:00</time>
      </trkpt>
      <trkpt lat="46.89642" lon="5.0245">
        <ele>180.7998</ele>
        <time>2026-05-14T13:28:07+02:00</time>
      </trkpt>
      <trkpt lat="46.89644" lon="5.02453">
        <ele>180.60059</ele>
        <time>2026-05-14T13:28:08+02:00</time>
      </trkpt>
      <trkpt lat="46.89645" lon="5.02456">
        <ele>180.40039</ele>
        <time>2026-05-14T13:28:09+02:00</time>
      </trkpt>
      <trkpt lat="46.89647" lon="5.02459">
        <ele>180.40039</ele>
        <time>2026-05-14T13:28:10+02:00</time>
      </trkpt>
      <trkpt lat="46.89649" lon="5.02463">
        <ele>180</ele>
        <time>2026-05-14T13:28:11+02:00</time>
      </trkpt>
      <trkpt lat="46.89651" lon="5.02466">
        <ele>179.90039</ele>
        <time>2026-05-14T13:28:12+02:00</time>
      </trkpt>
      <trkpt lat="46.89653" lon="5.02469">
        <ele>179.90039</ele>
        <time>2026-05-14T13:28:13+02:00</time>
      </trkpt>
      <trkpt lat="46.89654" lon="5.02472">
        <ele>179.10059</ele>
        <time>2026-05-14T13:28:14+02:00</time>
      </trkpt>
      <trkpt lat="46.89655" lon="5.02474">
        <ele>179.10059</ele>
        <time>2026-05-14T13:28:15+02:00</time>
      </trkpt>
      <trkpt lat="46.89657" lon="5.02475">
        <ele>179</ele>
        <time>2026-05-14T13:28:16+02:00</time>
      </trkpt>
      <trkpt lat="46.89657" lon="5.02476">
        <ele>179</ele>
        <time>2026-05-14T13:28:17+02:00</time>
      </trkpt>
      <trkpt lat="46.89658" lon="5.02476">
        <ele>179</ele>
        <time>2026-05-14T13:28:18+02:00</time>
      </trkpt>
      <trkpt lat="46.89658" lon="5.02476">
        <ele>179</ele>
        <time>2026-05-14T13:28:19+02:00</time>
      </trkpt>
      <trkpt lat="46.89658" lon="5.02476">
        <ele>179</ele>
        <time>2026-05-14T13:28:20+02:00</time>
      </trkpt>
      <trkpt lat="46.89658" lon="5.02476">
        <ele>179</ele>
        <time>2026-05-14T14:11:13+02:00</time>
      </trkpt>
      <trkpt lat="46.89658" lon="5.02476">
        <ele>179</ele>
        <time>2026-05-14T14:11:14+02:00</time>
      </trkpt>
      <trkpt lat="46.89658" lon="5.02476">
        <ele>179</ele>
        <time>2026-05-14T14:11:15+02:00</time>
      </trkpt>
      <trkpt lat="46.89658" lon="5.02476">
        <ele>179</ele>
        <time>2026-05-14T14:11:16+02:00</time>
      </trkpt>
      <trkpt lat="46.89658" lon="5.02476">
        <ele>179</ele>
        <time>2026-05-14T14:11:17+02:00</time>
      </trkpt>
      <trkpt lat="46.89658" lon="5.02476">
        <ele>179</ele>
        <time>2026-05-14T14:11:18+02:00</time>
      </trkpt>
      <trkpt lat="46.89658" lon="5.02476">
        <ele>179</ele>
        <time>2026-05-14T14:11:19+02:00</time>
      </trkpt>
      <trkpt lat="46.89658" lon="5.02476">
        <ele>179</ele>
        <time>2026-05-14T14:11:20+02:00</time>
      </trkpt>
      <trkpt lat="46.89658" lon="5.02476">
        <ele>179</ele>
        <time>2026-05-14T14:11:21+02:00</time>
      </trkpt>
      <trkpt lat="46.89658" lon="5.02476">
        <ele>179</ele>
        <time>2026-05-14T14:11:22+02:00</time>
      </trkpt>
      <trkpt lat="46.89658" lon="5.02476">
        <ele>179</ele>
        <time>2026-05-14T14:11:23+02:00</time>
      </trkpt>
      <trkpt lat="46.89658" lon="5.02476">
        <ele>179</ele>
        <time>2026-05-14T14:11:24+02:00</time>
      </trkpt>
      <trkpt lat="46.89658" lon="5.02476">
        <ele>179</ele>
        <time>2026-05-14T14:11:25+02:00</time>
      </trkpt>
      <trkpt lat="46.89658" lon="5.02476">
        <ele>179</ele>
        <time>2026-05-14T14:11:26+02:00</time>
      </trkpt>
      <trkpt lat="46.89658" lon="5.02476">
        <ele>179</ele>
        <time>2026-05-14T14:11:27+02:00</time>
      </trkpt>
      <trkpt lat="46.89658" lon="5.02476">
        <ele>179</ele>
        <time>2026-05-14T14:11:28+02:00</time>
      </trkpt>
      <trkpt lat="46.89658" lon="5.02476">
        <ele>179</ele>
        <time>2026-05-14T14:11:29+02:00</time>
      </trkpt>
      <trkpt lat="46.89658" lon="5.02476">
        <ele>179</ele>
        <time>2026-05-14T14:11:30+02:00</time>
      </trkpt>
      <trkpt lat="46.89658" lon="5.02476">
        <ele>179</ele>
        <time>2026-05-14T14:11:31+02:00</time>
      </trkpt>
      <trkpt lat="46.89658" lon="5.02476">
        <ele>179</ele>
        <time>2026-05-14T14:11:32+02:00</time>
      </trkpt>
      <trkpt lat="46.89658" lon="5.02476">
        <ele>179</ele>
        <time>2026-05-14T14:11:33+02:00</time>
      </trkpt>
      <trkpt lat="46.89658" lon="5.02476">
        <ele>179</ele>
        <time>2026-05-14T14:11:34+02:00</time>
      </trkpt>
      <trkpt lat="46.89658" lon="5.02476">
        <ele>179</ele>
        <time>2026-05-14T14:11:35+02:00</time>
      </trkpt>
      <trkpt lat="46.89658" lon="5.02476">
        <ele>179</ele>
        <time>2026-05-14T14:11:36+02:00</time>
      </trkpt>
      <trkpt lat="46.89658" lon="5.02476">
        <ele>179</ele>
        <time>2026-05-14T14:11:37+02:00</time>
      </trkpt>
      <trkpt lat="46.89658" lon="5.02476">
        <ele>179</ele>
        <time>2026-05-14T14:11:38+02:00</time>
      </trkpt>
      <trkpt lat="46.89658" lon="5.02476">
        <ele>179</ele>
        <time>2026-05-14T14:11:39+02:00</time>
      </trkpt>
      <trkpt lat="46.89658" lon="5.02476">
        <ele>179</ele>
        <time>2026-05-14T14:11:40+02:00</time>
      </trkpt>
      <trkpt lat="46.89658" lon="5.02476">
        <ele>179</ele>
        <time>2026-05-14T14:11:41+02:00</time>
      </trkpt>
      <trkpt lat="46.89658" lon="5.02476">
        <ele>179</ele>
        <time>2026-05-14T14:11:42+02:00</time>
      </trkpt>
      <trkpt lat="46.89622" lon="5.02467">
        <ele>181</ele>
        <time>2026-05-14T14:11:43+02:00</time>
      </trkpt>
      <trkpt lat="46.89621" lon="5.02469">
        <ele>181.2002</ele>
        <time>2026-05-14T14:11:44+02:00</time>
      </trkpt>
      <trkpt lat="46.89619" lon="5.0247">
        <ele>181.2002</ele>
        <time>2026-05-14T14:11:45+02:00</time>
      </trkpt>
      <trkpt lat="46.89617" lon="5.02471">
        <ele>180.5</ele>
        <time>2026-05-14T14:11:46+02:00</time>
      </trkpt>
      <trkpt lat="46.89616" lon="5.02471">
        <ele>180.5</ele>
        <time>2026-05-14T14:11:47+02:00</time>
      </trkpt>
      <trkpt lat="46.89614" lon="5.0247">
        <ele>181.5</ele>
        <time>2026-05-14T14:11:48+02:00</time>
      </trkpt>
      <trkpt lat="46.89613" lon="5.02469">
        <ele>181.5</ele>
        <time>2026-05-14T14:11:49+02:00</time>
      </trkpt>
      <trkpt lat="46.89611" lon="5.02468">
        <ele>181.5</ele>
        <time>2026-05-14T14:11:50+02:00</time>
      </trkpt>
      <trkpt lat="46.89609" lon="5.02467">
        <ele>181.7998</ele>
        <time>2026-05-14T14:11:51+02:00</time>
      </trkpt>
      <trkpt lat="46.89607" lon="5.02466">
        <ele>181.7998</ele>
        <time>2026-05-14T14:11:52+02:00</time>
      </trkpt>
      <trkpt lat="46.89605" lon="5.02464">
        <ele>181.7998</ele>
        <time>2026-05-14T14:11:53+02:00</time>
      </trkpt>
      <trkpt lat="46.89603" lon="5.02463">
        <ele>182</ele>
        <time>2026-05-14T14:11:54+02:00</time>
      </trkpt>
      <trkpt lat="46.89601" lon="5.02462">
        <ele>182</ele>
        <time>2026-05-14T14:11:55+02:00</time>
      </trkpt>
      <trkpt lat="46.89599" lon="5.0246">
        <ele>182.10059</ele>
        <time>2026-05-14T14:11:56+02:00</time>
      </trkpt>
      <trkpt lat="46.89597" lon="5.0246">
        <ele>182.2998</ele>
        <time>2026-05-14T14:11:57+02:00</time>
      </trkpt>
      <trkpt lat="46.89594" lon="5.02461">
        <ele>182.2998</ele>
        <time>2026-05-14T14:11:58+02:00</time>
      </trkpt>
      <trkpt lat="46.89593" lon="5.02462">
        <ele>182.2002</ele>
        <time>2026-05-14T14:11:59+02:00</time>
      </trkpt>
      <trkpt lat="46.89592" lon="5.02464">
        <ele>182.40039</ele>
        <time>2026-05-14T14:12:00+02:00</time>
      </trkpt>
      <trkpt lat="46.89591" lon="5.02466">
        <ele>182.40039</ele>
        <time>2026-05-14T14:12:01+02:00</time>
      </trkpt>
      <trkpt lat="46.8959" lon="5.02468">
        <ele>182.40039</ele>
        <time>2026-05-14T14:12:02+02:00</time>
      </trkpt>
      <trkpt lat="46.89589" lon="5.0247">
        <ele>182.40039</ele>
        <time>2026-05-14T14:12:03+02:00</time>
      </trkpt>
      <trkpt lat="46.89589" lon="5.02472">
        <ele>181.90039</ele>
        <time>2026-05-14T14:12:04+02:00</time>
      </trkpt>
      <trkpt lat="46.89589" lon="5.02473">
        <ele>181.90039</ele>
        <time>2026-05-14T14:12:05+02:00</time>
      </trkpt>
      <trkpt lat="46.89589" lon="5.02475">
        <ele>181.90039</ele>
        <time>2026-05-14T14:12:06+02:00</time>
      </trkpt>
      <trkpt lat="46.89589" lon="5.02477">
        <ele>181.90039</ele>
        <time>2026-05-14T14:12:07+02:00</time>
      </trkpt>
      <trkpt lat="46.89588" lon="5.0248">
        <ele>180.60059</ele>
        <time>2026-05-14T14:12:08+02:00</time>
      </trkpt>
      <trkpt lat="46.89587" lon="5.02482">
        <ele>180.60059</ele>
        <time>2026-05-14T14:12:09+02:00</time>
      </trkpt>
      <trkpt lat="46.89588" lon="5.02481">
        <ele>180.60059</ele>
        <time>2026-05-14T14:12:10+02:00</time>
      </trkpt>
      <trkpt lat="46.89588" lon="5.02478">
        <ele>181.90039</ele>
        <time>2026-05-14T14:12:11+02:00</time>
      </trkpt>
      <trkpt lat="46.89588" lon="5.02476">
        <ele>181.90039</ele>
        <time>2026-05-14T14:12:12+02:00</time>
      </trkpt>
      <trkpt lat="46.89589" lon="5.02474">
        <ele>181.90039</ele>
        <time>2026-05-14T14:12:13+02:00</time>
      </trkpt>
      <trkpt lat="46.8959" lon="5.02471">
        <ele>181.90039</ele>
        <time>2026-05-14T14:12:14+02:00</time>
      </trkpt>
      <trkpt lat="46.89591" lon="5.02469">
        <ele>182.40039</ele>
        <time>2026-05-14T14:12:15+02:00</time>
      </trkpt>
      <trkpt lat="46.89592" lon="5.02466">
        <ele>182.40039</ele>
        <time>2026-05-14T14:12:16+02:00</time>
      </trkpt>
      <trkpt lat="46.89593" lon="5.02464">
        <ele>182.2002</ele>
        <time>2026-05-14T14:12:17+02:00</time>
      </trkpt>
      <trkpt lat="46.89592" lon="5.02461">
        <ele>182.5</ele>
        <time>2026-05-14T14:12:18+02:00</time>
      </trkpt>
      <trkpt lat="46.89592" lon="5.02459">
        <ele>182.5</ele>
        <time>2026-05-14T14:12:19+02:00</time>
      </trkpt>
      <trkpt lat="46.8959" lon="5.02458">
        <ele>182.5</ele>
        <time>2026-05-14T14:12:20+02:00</time>
      </trkpt>
      <trkpt lat="46.89588" lon="5.02456">
        <ele>182.5</ele>
        <time>2026-05-14T14:12:21+02:00</time>
      </trkpt>
      <trkpt lat="46.89586" lon="5.02454">
        <ele>182.60059</ele>
        <time>2026-05-14T14:12:22+02:00</time>
      </trkpt>
      <trkpt lat="46.89584" lon="5.02452">
        <ele>182.7002</ele>
        <time>2026-05-14T14:12:23+02:00</time>
      </trkpt>
      <trkpt lat="46.89582" lon="5.0245">
        <ele>182.7002</ele>
        <time>2026-05-14T14:12:24+02:00</time>
      </trkpt>
      <trkpt lat="46.89579" lon="5.02448">
        <ele>182.60059</ele>
        <time>2026-05-14T14:12:25+02:00</time>
      </trkpt>
      <trkpt lat="46.89577" lon="5.02445">
        <ele>182.60059</ele>
        <time>2026-05-14T14:12:26+02:00</time>
      </trkpt>
      <trkpt lat="46.89574" lon="5.02442">
        <ele>182.60059</ele>
        <time>2026-05-14T14:12:27+02:00</time>
      </trkpt>
      <trkpt lat="46.8957" lon="5.0244">
        <ele>182.60059</ele>
        <time>2026-05-14T14:12:28+02:00</time>
      </trkpt>
      <trkpt lat="46.89566" lon="5.02437">
        <ele>182.5</ele>
        <time>2026-05-14T14:12:29+02:00</time>
      </trkpt>
      <trkpt lat="46.89561" lon="5.02435">
        <ele>182.7002</ele>
        <time>2026-05-14T14:12:30+02:00</time>
      </trkpt>
      <trkpt lat="46.89557" lon="5.02431">
        <ele>182.7002</ele>
        <time>2026-05-14T14:12:31+02:00</time>
      </trkpt>
      <trkpt lat="46.89552" lon="5.02427">
        <ele>182.5</ele>
        <time>2026-05-14T14:12:32+02:00</time>
      </trkpt>
      <trkpt lat="46.89547" lon="5.02424">
        <ele>182.2998</ele>
        <time>2026-05-14T14:12:33+02:00</time>
      </trkpt>
      <trkpt lat="46.89542" lon="5.02422">
        <ele>182.10059</ele>
        <time>2026-05-14T14:12:34+02:00</time>
      </trkpt>
      <trkpt lat="46.89536" lon="5.02418">
        <ele>181.5</ele>
        <time>2026-05-14T14:12:35+02:00</time>
      </trkpt>
      <trkpt lat="46.89531" lon="5.02415">
        <ele>181.40039</ele>
        <time>2026-05-14T14:12:36+02:00</time>
      </trkpt>
      <trkpt lat="46.89525" lon="5.02413">
        <ele>181.2002</ele>
        <time>2026-05-14T14:12:37+02:00</time>
      </trkpt>
      <trkpt lat="46.8952" lon="5.02411">
        <ele>181</ele>
        <time>2026-05-14T14:12:38+02:00</time>
      </trkpt>
      <trkpt lat="46.89514" lon="5.02408">
        <ele>180.60059</ele>
        <time>2026-05-14T14:12:39+02:00</time>
      </trkpt>
      <trkpt lat="46.89509" lon="5.02406">
        <ele>180.40039</ele>
        <time>2026-05-14T14:12:40+02:00</time>
      </trkpt>
      <trkpt lat="46.89503" lon="5.02403">
        <ele>180.2998</ele>
        <time>2026-05-14T14:12:41+02:00</time>
      </trkpt>
      <trkpt lat="46.89496" lon="5.024">
        <ele>179.90039</ele>
        <time>2026-05-14T14:12:42+02:00</time>
      </trkpt>
      <trkpt lat="46.8949" lon="5.02398">
        <ele>179.7998</ele>
        <time>2026-05-14T14:12:43+02:00</time>
      </trkpt>
      <trkpt lat="46.89485" lon="5.02395">
        <ele>179.7002</ele>
        <time>2026-05-14T14:12:44+02:00</time>
      </trkpt>
      <trkpt lat="46.89481" lon="5.02394">
        <ele>179.7002</ele>
        <time>2026-05-14T14:12:45+02:00</time>
      </trkpt>
      <trkpt lat="46.89476" lon="5.02393">
        <ele>179.60059</ele>
        <time>2026-05-14T14:12:46+02:00</time>
      </trkpt>
      <trkpt lat="46.89472" lon="5.02393">
        <ele>179.5</ele>
        <time>2026-05-14T14:12:47+02:00</time>
      </trkpt>
      <trkpt lat="46.89468" lon="5.02395">
        <ele>179.40039</ele>
        <time>2026-05-14T14:12:48+02:00</time>
      </trkpt>
      <trkpt lat="46.89465" lon="5.02399">
        <ele>179.40039</ele>
        <time>2026-05-14T14:12:49+02:00</time>
      </trkpt>
      <trkpt lat="46.89464" lon="5.02404">
        <ele>179.60059</ele>
        <time>2026-05-14T14:12:50+02:00</time>
      </trkpt>
      <trkpt lat="46.89462" lon="5.02408">
        <ele>179.5</ele>
        <time>2026-05-14T14:12:51+02:00</time>
      </trkpt>
      <trkpt lat="46.89462" lon="5.02413">
        <ele>179.60059</ele>
        <time>2026-05-14T14:12:52+02:00</time>
      </trkpt>
      <trkpt lat="46.89461" lon="5.02417">
        <ele>179.60059</ele>
        <time>2026-05-14T14:12:53+02:00</time>
      </trkpt>
      <trkpt lat="46.89459" lon="5.02422">
        <ele>179.7002</ele>
        <time>2026-05-14T14:12:54+02:00</time>
      </trkpt>
      <trkpt lat="46.89459" lon="5.02427">
        <ele>179.7002</ele>
        <time>2026-05-14T14:12:55+02:00</time>
      </trkpt>
      <trkpt lat="46.89458" lon="5.02433">
        <ele>179.7998</ele>
        <time>2026-05-14T14:12:56+02:00</time>
      </trkpt>
      <trkpt lat="46.89458" lon="5.02439">
        <ele>179.90039</ele>
        <time>2026-05-14T14:12:57+02:00</time>
      </trkpt>
      <trkpt lat="46.89457" lon="5.02445">
        <ele>179.7998</ele>
        <time>2026-05-14T14:12:58+02:00</time>
      </trkpt>
      <trkpt lat="46.89457" lon="5.02452">
        <ele>179.7998</ele>
        <time>2026-05-14T14:12:59+02:00</time>
      </trkpt>
      <trkpt lat="46.89457" lon="5.02458">
        <ele>179.2002</ele>
        <time>2026-05-14T14:13:00+02:00</time>
      </trkpt>
      <trkpt lat="46.89457" lon="5.02464">
        <ele>178.2002</ele>
        <time>2026-05-14T14:13:01+02:00</time>
      </trkpt>
      <trkpt lat="46.89457" lon="5.02471">
        <ele>177.2002</ele>
        <time>2026-05-14T14:13:02+02:00</time>
      </trkpt>
      <trkpt lat="46.89457" lon="5.02477">
        <ele>177.2002</ele>
        <time>2026-05-14T14:13:03+02:00</time>
      </trkpt>
      <trkpt lat="46.89457" lon="5.02483">
        <ele>176.2998</ele>
        <time>2026-05-14T14:13:04+02:00</time>
      </trkpt>
      <trkpt lat="46.89457" lon="5.0249">
        <ele>175.60059</ele>
        <time>2026-05-14T14:13:05+02:00</time>
      </trkpt>
      <trkpt lat="46.89457" lon="5.02497">
        <ele>174.90039</ele>
        <time>2026-05-14T14:13:06+02:00</time>
      </trkpt>
      <trkpt lat="46.89457" lon="5.02504">
        <ele>174.90039</ele>
        <time>2026-05-14T14:13:07+02:00</time>
      </trkpt>
      <trkpt lat="46.89457" lon="5.0251">
        <ele>174.40039</ele>
        <time>2026-05-14T14:13:08+02:00</time>
      </trkpt>
      <trkpt lat="46.89456" lon="5.02517">
        <ele>174.2002</ele>
        <time>2026-05-14T14:13:09+02:00</time>
      </trkpt>
      <trkpt lat="46.89456" lon="5.02523">
        <ele>174.10059</ele>
        <time>2026-05-14T14:13:10+02:00</time>
      </trkpt>
      <trkpt lat="46.89456" lon="5.0253">
        <ele>174.10059</ele>
        <time>2026-05-14T14:13:11+02:00</time>
      </trkpt>
      <trkpt lat="46.89456" lon="5.02537">
        <ele>174.10059</ele>
        <time>2026-05-14T14:13:12+02:00</time>
      </trkpt>
      <trkpt lat="46.89455" lon="5.02544">
        <ele>174.2002</ele>
        <time>2026-05-14T14:13:13+02:00</time>
      </trkpt>
      <trkpt lat="46.89455" lon="5.02551">
        <ele>174.2002</ele>
        <time>2026-05-14T14:13:14+02:00</time>
      </trkpt>
      <trkpt lat="46.89454" lon="5.02559">
        <ele>174.2002</ele>
        <time>2026-05-14T14:13:15+02:00</time>
      </trkpt>
      <trkpt lat="46.89454" lon="5.02566">
        <ele>174.2002</ele>
        <time>2026-05-14T14:13:16+02:00</time>
      </trkpt>
      <trkpt lat="46.89454" lon="5.02573">
        <ele>174.2002</ele>
        <time>2026-05-14T14:13:17+02:00</time>
      </trkpt>
      <trkpt lat="46.89454" lon="5.02581">
        <ele>174.2002</ele>
        <time>2026-05-14T14:13:18+02:00</time>
      </trkpt>
      <trkpt lat="46.89454" lon="5.02588">
        <ele>174.2002</ele>
        <time>2026-05-14T14:13:19+02:00</time>
      </trkpt>
      <trkpt lat="46.89454" lon="5.02596">
        <ele>174.2002</ele>
        <time>2026-05-14T14:13:20+02:00</time>
      </trkpt>
      <trkpt lat="46.89453" lon="5.02603">
        <ele>174.2002</ele>
        <time>2026-05-14T14:13:21+02:00</time>
      </trkpt>
      <trkpt lat="46.89453" lon="5.02611">
        <ele>174.2002</ele>
        <time>2026-05-14T14:13:22+02:00</time>
      </trkpt>
      <trkpt lat="46.89452" lon="5.02619">
        <ele>174.2998</ele>
        <time>2026-05-14T14:13:23+02:00</time>
      </trkpt>
      <trkpt lat="46.89452" lon="5.02627">
        <ele>174.40039</ele>
        <time>2026-05-14T14:13:24+02:00</time>
      </trkpt>
      <trkpt lat="46.89452" lon="5.02635">
        <ele>174.60059</ele>
        <time>2026-05-14T14:13:25+02:00</time>
      </trkpt>
      <trkpt lat="46.89452" lon="5.02643">
        <ele>174.7998</ele>
        <time>2026-05-14T14:13:26+02:00</time>
      </trkpt>
      <trkpt lat="46.89452" lon="5.02651">
        <ele>175.10059</ele>
        <time>2026-05-14T14:13:27+02:00</time>
      </trkpt>
      <trkpt lat="46.89451" lon="5.0266">
        <ele>175.5</ele>
        <time>2026-05-14T14:13:28+02:00</time>
      </trkpt>
      <trkpt lat="46.89451" lon="5.02669">
        <ele>175.7998</ele>
        <time>2026-05-14T14:13:29+02:00</time>
      </trkpt>
      <trkpt lat="46.89451" lon="5.02677">
        <ele>176.10059</ele>
        <time>2026-05-14T14:13:30+02:00</time>
      </trkpt>
      <trkpt lat="46.89451" lon="5.02686">
        <ele>176.40039</ele>
        <time>2026-05-14T14:13:31+02:00</time>
      </trkpt>
      <trkpt lat="46.8945" lon="5.02695">
        <ele>176.60059</ele>
        <time>2026-05-14T14:13:32+02:00</time>
      </trkpt>
      <trkpt lat="46.8945" lon="5.02705">
        <ele>176.7998</ele>
        <time>2026-05-14T14:13:33+02:00</time>
      </trkpt>
      <trkpt lat="46.89452" lon="5.02715">
        <ele>176.90039</ele>
        <time>2026-05-14T14:13:34+02:00</time>
      </trkpt>
      <trkpt lat="46.89454" lon="5.02724">
        <ele>177</ele>
        <time>2026-05-14T14:13:35+02:00</time>
      </trkpt>
      <trkpt lat="46.89459" lon="5.02733">
        <ele>177.10059</ele>
        <time>2026-05-14T14:13:36+02:00</time>
      </trkpt>
      <trkpt lat="46.89464" lon="5.0274">
        <ele>177.2002</ele>
        <time>2026-05-14T14:13:37+02:00</time>
      </trkpt>
      <trkpt lat="46.89469" lon="5.02746">
        <ele>177.2998</ele>
        <time>2026-05-14T14:13:38+02:00</time>
      </trkpt>
      <trkpt lat="46.89475" lon="5.02752">
        <ele>177.40039</ele>
        <time>2026-05-14T14:13:39+02:00</time>
      </trkpt>
      <trkpt lat="46.89481" lon="5.02758">
        <ele>177.5</ele>
        <time>2026-05-14T14:13:40+02:00</time>
      </trkpt>
      <trkpt lat="46.89487" lon="5.02764">
        <ele>177.60059</ele>
        <time>2026-05-14T14:13:41+02:00</time>
      </trkpt>
      <trkpt lat="46.89493" lon="5.0277">
        <ele>177.7002</ele>
        <time>2026-05-14T14:13:42+02:00</time>
      </trkpt>
      <trkpt lat="46.89499" lon="5.02775">
        <ele>177.7002</ele>
        <time>2026-05-14T14:13:43+02:00</time>
      </trkpt>
      <trkpt lat="46.89504" lon="5.02781">
        <ele>177.60059</ele>
        <time>2026-05-14T14:13:44+02:00</time>
      </trkpt>
      <trkpt lat="46.8951" lon="5.02787">
        <ele>177.60059</ele>
        <time>2026-05-14T14:13:45+02:00</time>
      </trkpt>
      <trkpt lat="46.89516" lon="5.02792">
        <ele>177.60059</ele>
        <time>2026-05-14T14:13:46+02:00</time>
      </trkpt>
      <trkpt lat="46.89521" lon="5.02799">
        <ele>177.40039</ele>
        <time>2026-05-14T14:13:47+02:00</time>
      </trkpt>
      <trkpt lat="46.89526" lon="5.02805">
        <ele>177.40039</ele>
        <time>2026-05-14T14:13:48+02:00</time>
      </trkpt>
      <trkpt lat="46.89531" lon="5.02813">
        <ele>177.40039</ele>
        <time>2026-05-14T14:13:49+02:00</time>
      </trkpt>
      <trkpt lat="46.89535" lon="5.02821">
        <ele>177.2998</ele>
        <time>2026-05-14T14:13:50+02:00</time>
      </trkpt>
      <trkpt lat="46.8954" lon="5.02828">
        <ele>177.2002</ele>
        <time>2026-05-14T14:13:51+02:00</time>
      </trkpt>
      <trkpt lat="46.89544" lon="5.02837">
        <ele>177.2002</ele>
        <time>2026-05-14T14:13:52+02:00</time>
      </trkpt>
      <trkpt lat="46.89548" lon="5.02845">
        <ele>177.2002</ele>
        <time>2026-05-14T14:13:53+02:00</time>
      </trkpt>
      <trkpt lat="46.89552" lon="5.02853">
        <ele>177.2002</ele>
        <time>2026-05-14T14:13:54+02:00</time>
      </trkpt>
      <trkpt lat="46.89556" lon="5.02861">
        <ele>177.2002</ele>
        <time>2026-05-14T14:13:55+02:00</time>
      </trkpt>
      <trkpt lat="46.8956" lon="5.02868">
        <ele>177.2998</ele>
        <time>2026-05-14T14:13:56+02:00</time>
      </trkpt>
      <trkpt lat="46.89564" lon="5.02876">
        <ele>177.5</ele>
        <time>2026-05-14T14:13:57+02:00</time>
      </trkpt>
      <trkpt lat="46.89568" lon="5.02883">
        <ele>177.60059</ele>
        <time>2026-05-14T14:13:58+02:00</time>
      </trkpt>
      <trkpt lat="46.89573" lon="5.02891">
        <ele>177.7002</ele>
        <time>2026-05-14T14:13:59+02:00</time>
      </trkpt>
      <trkpt lat="46.89577" lon="5.02897">
        <ele>177.7998</ele>
        <time>2026-05-14T14:14:00+02:00</time>
      </trkpt>
      <trkpt lat="46.89581" lon="5.02904">
        <ele>178</ele>
        <time>2026-05-14T14:14:01+02:00</time>
      </trkpt>
      <trkpt lat="46.89586" lon="5.0291">
        <ele>178.10059</ele>
        <time>2026-05-14T14:14:02+02:00</time>
      </trkpt>
      <trkpt lat="46.89591" lon="5.02916">
        <ele>178.10059</ele>
        <time>2026-05-14T14:14:03+02:00</time>
      </trkpt>
      <trkpt lat="46.89596" lon="5.02922">
        <ele>178.2998</ele>
        <time>2026-05-14T14:14:04+02:00</time>
      </trkpt>
      <trkpt lat="46.896" lon="5.02929">
        <ele>178.40039</ele>
        <time>2026-05-14T14:14:05+02:00</time>
      </trkpt>
      <trkpt lat="46.89602" lon="5.02937">
        <ele>178.40039</ele>
        <time>2026-05-14T14:14:06+02:00</time>
      </trkpt>
      <trkpt lat="46.89603" lon="5.02946">
        <ele>178.5</ele>
        <time>2026-05-14T14:14:07+02:00</time>
      </trkpt>
      <trkpt lat="46.89601" lon="5.02954">
        <ele>178.5</ele>
        <time>2026-05-14T14:14:08+02:00</time>
      </trkpt>
      <trkpt lat="46.89599" lon="5.02961">
        <ele>178.5</ele>
        <time>2026-05-14T14:14:09+02:00</time>
      </trkpt>
      <trkpt lat="46.89596" lon="5.02969">
        <ele>178.5</ele>
        <time>2026-05-14T14:14:10+02:00</time>
      </trkpt>
      <trkpt lat="46.89594" lon="5.02977">
        <ele>178.5</ele>
        <time>2026-05-14T14:14:11+02:00</time>
      </trkpt>
      <trkpt lat="46.89591" lon="5.02984">
        <ele>178.60059</ele>
        <time>2026-05-14T14:14:12+02:00</time>
      </trkpt>
      <trkpt lat="46.89588" lon="5.02991">
        <ele>178.60059</ele>
        <time>2026-05-14T14:14:13+02:00</time>
      </trkpt>
      <trkpt lat="46.89585" lon="5.02999">
        <ele>178.60059</ele>
        <time>2026-05-14T14:14:14+02:00</time>
      </trkpt>
      <trkpt lat="46.89582" lon="5.03006">
        <ele>178.60059</ele>
        <time>2026-05-14T14:14:15+02:00</time>
      </trkpt>
      <trkpt lat="46.89579" lon="5.03013">
        <ele>178.5</ele>
        <time>2026-05-14T14:14:16+02:00</time>
      </trkpt>
      <trkpt lat="46.89576" lon="5.03019">
        <ele>178.5</ele>
        <time>2026-05-14T14:14:17+02:00</time>
      </trkpt>
      <trkpt lat="46.89573" lon="5.03025">
        <ele>178.5</ele>
        <time>2026-05-14T14:14:18+02:00</time>
      </trkpt>
      <trkpt lat="46.8957" lon="5.03031">
        <ele>178.40039</ele>
        <time>2026-05-14T14:14:19+02:00</time>
      </trkpt>
      <trkpt lat="46.89568" lon="5.03038">
        <ele>178.40039</ele>
        <time>2026-05-14T14:14:20+02:00</time>
      </trkpt>
      <trkpt lat="46.89565" lon="5.03044">
        <ele>178.40039</ele>
        <time>2026-05-14T14:14:21+02:00</time>
      </trkpt>
      <trkpt lat="46.89562" lon="5.03051">
        <ele>178.2998</ele>
        <time>2026-05-14T14:14:22+02:00</time>
      </trkpt>
      <trkpt lat="46.89559" lon="5.03057">
        <ele>178.2998</ele>
        <time>2026-05-14T14:14:23+02:00</time>
      </trkpt>
      <trkpt lat="46.89557" lon="5.03064">
        <ele>178.2998</ele>
        <time>2026-05-14T14:14:24+02:00</time>
      </trkpt>
      <trkpt lat="46.89554" lon="5.03072">
        <ele>178.2998</ele>
        <time>2026-05-14T14:14:25+02:00</time>
      </trkpt>
      <trkpt lat="46.89552" lon="5.03079">
        <ele>178.2998</ele>
        <time>2026-05-14T14:14:26+02:00</time>
      </trkpt>
      <trkpt lat="46.8955" lon="5.03086">
        <ele>178.40039</ele>
        <time>2026-05-14T14:14:27+02:00</time>
      </trkpt>
      <trkpt lat="46.89547" lon="5.03094">
        <ele>178.5</ele>
        <time>2026-05-14T14:14:28+02:00</time>
      </trkpt>
      <trkpt lat="46.89546" lon="5.03101">
        <ele>178.60059</ele>
        <time>2026-05-14T14:14:29+02:00</time>
      </trkpt>
      <trkpt lat="46.89543" lon="5.03108">
        <ele>178.7998</ele>
        <time>2026-05-14T14:14:30+02:00</time>
      </trkpt>
      <trkpt lat="46.89542" lon="5.03115">
        <ele>179</ele>
        <time>2026-05-14T14:14:31+02:00</time>
      </trkpt>
      <trkpt lat="46.8954" lon="5.03123">
        <ele>179.10059</ele>
        <time>2026-05-14T14:14:32+02:00</time>
      </trkpt>
      <trkpt lat="46.89539" lon="5.03131">
        <ele>179.10059</ele>
        <time>2026-05-14T14:14:33+02:00</time>
      </trkpt>
      <trkpt lat="46.89538" lon="5.03138">
        <ele>179.10059</ele>
        <time>2026-05-14T14:14:34+02:00</time>
      </trkpt>
      <trkpt lat="46.89536" lon="5.03143">
        <ele>179.2002</ele>
        <time>2026-05-14T14:14:35+02:00</time>
      </trkpt>
      <trkpt lat="46.89536" lon="5.03149">
        <ele>179.2998</ele>
        <time>2026-05-14T14:14:36+02:00</time>
      </trkpt>
      <trkpt lat="46.89535" lon="5.03153">
        <ele>179.2998</ele>
        <time>2026-05-14T14:14:37+02:00</time>
      </trkpt>
      <trkpt lat="46.89535" lon="5.03158">
        <ele>179.2998</ele>
        <time>2026-05-14T14:14:38+02:00</time>
      </trkpt>
      <trkpt lat="46.89535" lon="5.03162">
        <ele>179.2998</ele>
        <time>2026-05-14T14:14:39+02:00</time>
      </trkpt>
      <trkpt lat="46.89534" lon="5.03166">
        <ele>179.2998</ele>
        <time>2026-05-14T14:14:40+02:00</time>
      </trkpt>
      <trkpt lat="46.89533" lon="5.0317">
        <ele>179.10059</ele>
        <time>2026-05-14T14:14:41+02:00</time>
      </trkpt>
      <trkpt lat="46.89533" lon="5.03174">
        <ele>179.10059</ele>
        <time>2026-05-14T14:14:42+02:00</time>
      </trkpt>
      <trkpt lat="46.89532" lon="5.03178">
        <ele>179.10059</ele>
        <time>2026-05-14T14:14:43+02:00</time>
      </trkpt>
      <trkpt lat="46.89531" lon="5.03183">
        <ele>179</ele>
        <time>2026-05-14T14:14:44+02:00</time>
      </trkpt>
      <trkpt lat="46.89531" lon="5.03189">
        <ele>179</ele>
        <time>2026-05-14T14:14:45+02:00</time>
      </trkpt>
      <trkpt lat="46.89531" lon="5.03194">
        <ele>178.90039</ele>
        <time>2026-05-14T14:14:46+02:00</time>
      </trkpt>
      <trkpt lat="46.8953" lon="5.032">
        <ele>178.7998</ele>
        <time>2026-05-14T14:14:47+02:00</time>
      </trkpt>
      <trkpt lat="46.89529" lon="5.03206">
        <ele>178.7998</ele>
        <time>2026-05-14T14:14:48+02:00</time>
      </trkpt>
      <trkpt lat="46.89528" lon="5.03212">
        <ele>178.7002</ele>
        <time>2026-05-14T14:14:49+02:00</time>
      </trkpt>
      <trkpt lat="46.89528" lon="5.03219">
        <ele>178.5</ele>
        <time>2026-05-14T14:14:50+02:00</time>
      </trkpt>
      <trkpt lat="46.89527" lon="5.03225">
        <ele>178.40039</ele>
        <time>2026-05-14T14:14:51+02:00</time>
      </trkpt>
      <trkpt lat="46.89526" lon="5.03232">
        <ele>178.2998</ele>
        <time>2026-05-14T14:14:52+02:00</time>
      </trkpt>
      <trkpt lat="46.89525" lon="5.03238">
        <ele>178.2002</ele>
        <time>2026-05-14T14:14:53+02:00</time>
      </trkpt>
      <trkpt lat="46.89523" lon="5.03245">
        <ele>178.10059</ele>
        <time>2026-05-14T14:14:54+02:00</time>
      </trkpt>
      <trkpt lat="46.89522" lon="5.03252">
        <ele>178</ele>
        <time>2026-05-14T14:14:55+02:00</time>
      </trkpt>
      <trkpt lat="46.89521" lon="5.03259">
        <ele>178</ele>
        <time>2026-05-14T14:14:56+02:00</time>
      </trkpt>
      <trkpt lat="46.8952" lon="5.03266">
        <ele>177.90039</ele>
        <time>2026-05-14T14:14:57+02:00</time>
      </trkpt>
      <trkpt lat="46.89518" lon="5.03273">
        <ele>177.7998</ele>
        <time>2026-05-14T14:14:58+02:00</time>
      </trkpt>
      <trkpt lat="46.89517" lon="5.0328">
        <ele>177.7002</ele>
        <time>2026-05-14T14:14:59+02:00</time>
      </trkpt>
      <trkpt lat="46.89516" lon="5.03288">
        <ele>177.60059</ele>
        <time>2026-05-14T14:15:00+02:00</time>
      </trkpt>
      <trkpt lat="46.89515" lon="5.03295">
        <ele>177.5</ele>
        <time>2026-05-14T14:15:01+02:00</time>
      </trkpt>
      <trkpt lat="46.89514" lon="5.03303">
        <ele>177.40039</ele>
        <time>2026-05-14T14:15:02+02:00</time>
      </trkpt>
      <trkpt lat="46.89513" lon="5.03311">
        <ele>177.40039</ele>
        <time>2026-05-14T14:15:03+02:00</time>
      </trkpt>
      <trkpt lat="46.89513" lon="5.03318">
        <ele>177.2998</ele>
        <time>2026-05-14T14:15:04+02:00</time>
      </trkpt>
      <trkpt lat="46.89513" lon="5.03326">
        <ele>177.2002</ele>
        <time>2026-05-14T14:15:05+02:00</time>
      </trkpt>
      <trkpt lat="46.89513" lon="5.03334">
        <ele>177.2002</ele>
        <time>2026-05-14T14:15:06+02:00</time>
      </trkpt>
      <trkpt lat="46.89513" lon="5.03342">
        <ele>177.10059</ele>
        <time>2026-05-14T14:15:07+02:00</time>
      </trkpt>
      <trkpt lat="46.89514" lon="5.0335">
        <ele>177.10059</ele>
        <time>2026-05-14T14:15:08+02:00</time>
      </trkpt>
      <trkpt lat="46.89515" lon="5.03358">
        <ele>177.10059</ele>
        <time>2026-05-14T14:15:09+02:00</time>
      </trkpt>
      <trkpt lat="46.89516" lon="5.03367">
        <ele>177.10059</ele>
        <time>2026-05-14T14:15:10+02:00</time>
      </trkpt>
      <trkpt lat="46.89517" lon="5.03375">
        <ele>177.10059</ele>
        <time>2026-05-14T14:15:11+02:00</time>
      </trkpt>
      <trkpt lat="46.89518" lon="5.03384">
        <ele>177.10059</ele>
        <time>2026-05-14T14:15:12+02:00</time>
      </trkpt>
      <trkpt lat="46.89519" lon="5.03392">
        <ele>177.10059</ele>
        <time>2026-05-14T14:15:13+02:00</time>
      </trkpt>
      <trkpt lat="46.8952" lon="5.03401">
        <ele>177.10059</ele>
        <time>2026-05-14T14:15:14+02:00</time>
      </trkpt>
      <trkpt lat="46.89521" lon="5.03409">
        <ele>177.10059</ele>
        <time>2026-05-14T14:15:15+02:00</time>
      </trkpt>
      <trkpt lat="46.89522" lon="5.03418">
        <ele>177.2002</ele>
        <time>2026-05-14T14:15:16+02:00</time>
      </trkpt>
      <trkpt lat="46.89523" lon="5.03426">
        <ele>177.2002</ele>
        <time>2026-05-14T14:15:17+02:00</time>
      </trkpt>
      <trkpt lat="46.89525" lon="5.03434">
        <ele>177.2002</ele>
        <time>2026-05-14T14:15:18+02:00</time>
      </trkpt>
      <trkpt lat="46.89526" lon="5.03443">
        <ele>177.2998</ele>
        <time>2026-05-14T14:15:19+02:00</time>
      </trkpt>
      <trkpt lat="46.89527" lon="5.03451">
        <ele>177.2998</ele>
        <time>2026-05-14T14:15:20+02:00</time>
      </trkpt>
      <trkpt lat="46.89528" lon="5.03459">
        <ele>177.40039</ele>
        <time>2026-05-14T14:15:21+02:00</time>
      </trkpt>
      <trkpt lat="46.89529" lon="5.03468">
        <ele>177.40039</ele>
        <time>2026-05-14T14:15:22+02:00</time>
      </trkpt>
      <trkpt lat="46.8953" lon="5.03477">
        <ele>177.40039</ele>
        <time>2026-05-14T14:15:23+02:00</time>
      </trkpt>
      <trkpt lat="46.89531" lon="5.03486">
        <ele>177.5</ele>
        <time>2026-05-14T14:15:24+02:00</time>
      </trkpt>
      <trkpt lat="46.89533" lon="5.03495">
        <ele>177.5</ele>
        <time>2026-05-14T14:15:25+02:00</time>
      </trkpt>
      <trkpt lat="46.89534" lon="5.03504">
        <ele>177.60059</ele>
        <time>2026-05-14T14:15:26+02:00</time>
      </trkpt>
      <trkpt lat="46.89535" lon="5.03513">
        <ele>177.60059</ele>
        <time>2026-05-14T14:15:27+02:00</time>
      </trkpt>
      <trkpt lat="46.89536" lon="5.03521">
        <ele>177.60059</ele>
        <time>2026-05-14T14:15:28+02:00</time>
      </trkpt>
      <trkpt lat="46.89538" lon="5.0353">
        <ele>177.60059</ele>
        <time>2026-05-14T14:15:29+02:00</time>
      </trkpt>
      <trkpt lat="46.89539" lon="5.03538">
        <ele>177.60059</ele>
        <time>2026-05-14T14:15:30+02:00</time>
      </trkpt>
      <trkpt lat="46.8954" lon="5.03547">
        <ele>177.7002</ele>
        <time>2026-05-14T14:15:31+02:00</time>
      </trkpt>
      <trkpt lat="46.89542" lon="5.03556">
        <ele>177.7002</ele>
        <time>2026-05-14T14:15:32+02:00</time>
      </trkpt>
      <trkpt lat="46.89543" lon="5.03565">
        <ele>177.7002</ele>
        <time>2026-05-14T14:15:33+02:00</time>
      </trkpt>
      <trkpt lat="46.89544" lon="5.03574">
        <ele>177.60059</ele>
        <time>2026-05-14T14:15:34+02:00</time>
      </trkpt>
      <trkpt lat="46.89545" lon="5.03583">
        <ele>177.60059</ele>
        <time>2026-05-14T14:15:35+02:00</time>
      </trkpt>
      <trkpt lat="46.89547" lon="5.03592">
        <ele>177.5</ele>
        <time>2026-05-14T14:15:36+02:00</time>
      </trkpt>
      <trkpt lat="46.89548" lon="5.03601">
        <ele>177.40039</ele>
        <time>2026-05-14T14:15:37+02:00</time>
      </trkpt>
      <trkpt lat="46.89549" lon="5.0361">
        <ele>177.2002</ele>
        <time>2026-05-14T14:15:38+02:00</time>
      </trkpt>
      <trkpt lat="46.89551" lon="5.0362">
        <ele>177.10059</ele>
        <time>2026-05-14T14:15:39+02:00</time>
      </trkpt>
      <trkpt lat="46.89552" lon="5.03629">
        <ele>176.7002</ele>
        <time>2026-05-14T14:15:40+02:00</time>
      </trkpt>
      <trkpt lat="46.89553" lon="5.03637">
        <ele>176.7002</ele>
        <time>2026-05-14T14:15:41+02:00</time>
      </trkpt>
      <trkpt lat="46.89554" lon="5.03646">
        <ele>176.40039</ele>
        <time>2026-05-14T14:15:42+02:00</time>
      </trkpt>
      <trkpt lat="46.89555" lon="5.03656">
        <ele>176.2002</ele>
        <time>2026-05-14T14:15:43+02:00</time>
      </trkpt>
      <trkpt lat="46.89557" lon="5.03664">
        <ele>176.10059</ele>
        <time>2026-05-14T14:15:44+02:00</time>
      </trkpt>
      <trkpt lat="46.89559" lon="5.03673">
        <ele>175.90039</ele>
        <time>2026-05-14T14:15:45+02:00</time>
      </trkpt>
      <trkpt lat="46.8956" lon="5.03683">
        <ele>175.7002</ele>
        <time>2026-05-14T14:15:46+02:00</time>
      </trkpt>
      <trkpt lat="46.89561" lon="5.03692">
        <ele>175.60059</ele>
        <time>2026-05-14T14:15:47+02:00</time>
      </trkpt>
      <trkpt lat="46.89563" lon="5.03701">
        <ele>175.40039</ele>
        <time>2026-05-14T14:15:48+02:00</time>
      </trkpt>
      <trkpt lat="46.89564" lon="5.0371">
        <ele>175.2002</ele>
        <time>2026-05-14T14:15:49+02:00</time>
      </trkpt>
      <trkpt lat="46.89565" lon="5.03719">
        <ele>175</ele>
        <time>2026-05-14T14:15:50+02:00</time>
      </trkpt>
      <trkpt lat="46.89567" lon="5.03729">
        <ele>174.90039</ele>
        <time>2026-05-14T14:15:51+02:00</time>
      </trkpt>
      <trkpt lat="46.89568" lon="5.03738">
        <ele>174.7998</ele>
        <time>2026-05-14T14:15:52+02:00</time>
      </trkpt>
      <trkpt lat="46.8957" lon="5.03747">
        <ele>174.7002</ele>
        <time>2026-05-14T14:15:53+02:00</time>
      </trkpt>
      <trkpt lat="46.89571" lon="5.03757">
        <ele>174.60059</ele>
        <time>2026-05-14T14:15:54+02:00</time>
      </trkpt>
      <trkpt lat="46.89572" lon="5.03766">
        <ele>174.60059</ele>
        <time>2026-05-14T14:15:55+02:00</time>
      </trkpt>
      <trkpt lat="46.89573" lon="5.03775">
        <ele>174.7002</ele>
        <time>2026-05-14T14:15:56+02:00</time>
      </trkpt>
      <trkpt lat="46.89575" lon="5.03785">
        <ele>174.7998</ele>
        <time>2026-05-14T14:15:57+02:00</time>
      </trkpt>
      <trkpt lat="46.89576" lon="5.03794">
        <ele>174.7998</ele>
        <time>2026-05-14T14:15:58+02:00</time>
      </trkpt>
      <trkpt lat="46.89577" lon="5.03803">
        <ele>174.90039</ele>
        <time>2026-05-14T14:15:59+02:00</time>
      </trkpt>
      <trkpt lat="46.89579" lon="5.03812">
        <ele>175</ele>
        <time>2026-05-14T14:16:00+02:00</time>
      </trkpt>
      <trkpt lat="46.8958" lon="5.03821">
        <ele>175.10059</ele>
        <time>2026-05-14T14:16:01+02:00</time>
      </trkpt>
      <trkpt lat="46.89581" lon="5.03831">
        <ele>175.2002</ele>
        <time>2026-05-14T14:16:02+02:00</time>
      </trkpt>
      <trkpt lat="46.89583" lon="5.0384">
        <ele>175.2998</ele>
        <time>2026-05-14T14:16:03+02:00</time>
      </trkpt>
      <trkpt lat="46.89584" lon="5.0385">
        <ele>175.2998</ele>
        <time>2026-05-14T14:16:04+02:00</time>
      </trkpt>
      <trkpt lat="46.89586" lon="5.03859">
        <ele>175.40039</ele>
        <time>2026-05-14T14:16:05+02:00</time>
      </trkpt>
      <trkpt lat="46.89587" lon="5.03869">
        <ele>175.5</ele>
        <time>2026-05-14T14:16:06+02:00</time>
      </trkpt>
      <trkpt lat="46.89589" lon="5.03878">
        <ele>175.60059</ele>
        <time>2026-05-14T14:16:07+02:00</time>
      </trkpt>
      <trkpt lat="46.8959" lon="5.03888">
        <ele>175.7002</ele>
        <time>2026-05-14T14:16:08+02:00</time>
      </trkpt>
      <trkpt lat="46.89592" lon="5.03898">
        <ele>175.7998</ele>
        <time>2026-05-14T14:16:09+02:00</time>
      </trkpt>
      <trkpt lat="46.89594" lon="5.03907">
        <ele>175.7998</ele>
        <time>2026-05-14T14:16:10+02:00</time>
      </trkpt>
      <trkpt lat="46.89595" lon="5.03917">
        <ele>175.7998</ele>
        <time>2026-05-14T14:16:11+02:00</time>
      </trkpt>
      <trkpt lat="46.89597" lon="5.03927">
        <ele>175.7998</ele>
        <time>2026-05-14T14:16:12+02:00</time>
      </trkpt>
      <trkpt lat="46.89599" lon="5.03936">
        <ele>175.7998</ele>
        <time>2026-05-14T14:16:13+02:00</time>
      </trkpt>
      <trkpt lat="46.89601" lon="5.03947">
        <ele>175.7002</ele>
        <time>2026-05-14T14:16:14+02:00</time>
      </trkpt>
      <trkpt lat="46.89602" lon="5.03956">
        <ele>175.7002</ele>
        <time>2026-05-14T14:16:15+02:00</time>
      </trkpt>
      <trkpt lat="46.89604" lon="5.03966">
        <ele>175.60059</ele>
        <time>2026-05-14T14:16:16+02:00</time>
      </trkpt>
      <trkpt lat="46.89606" lon="5.03976">
        <ele>175.60059</ele>
        <time>2026-05-14T14:16:17+02:00</time>
      </trkpt>
      <trkpt lat="46.89608" lon="5.03986">
        <ele>175.60059</ele>
        <time>2026-05-14T14:16:18+02:00</time>
      </trkpt>
      <trkpt lat="46.8961" lon="5.03996">
        <ele>175.5</ele>
        <time>2026-05-14T14:16:19+02:00</time>
      </trkpt>
      <trkpt lat="46.89612" lon="5.04007">
        <ele>175.60059</ele>
        <time>2026-05-14T14:16:20+02:00</time>
      </trkpt>
      <trkpt lat="46.89614" lon="5.04017">
        <ele>175.7002</ele>
        <time>2026-05-14T14:16:21+02:00</time>
      </trkpt>
      <trkpt lat="46.89616" lon="5.04027">
        <ele>175.7002</ele>
        <time>2026-05-14T14:16:22+02:00</time>
      </trkpt>
      <trkpt lat="46.89618" lon="5.04038">
        <ele>175.7998</ele>
        <time>2026-05-14T14:16:23+02:00</time>
      </trkpt>
      <trkpt lat="46.8962" lon="5.04048">
        <ele>176</ele>
        <time>2026-05-14T14:16:24+02:00</time>
      </trkpt>
      <trkpt lat="46.89622" lon="5.04058">
        <ele>176</ele>
        <time>2026-05-14T14:16:25+02:00</time>
      </trkpt>
      <trkpt lat="46.89624" lon="5.04068">
        <ele>176.2002</ele>
        <time>2026-05-14T14:16:26+02:00</time>
      </trkpt>
      <trkpt lat="46.89626" lon="5.04078">
        <ele>176.2998</ele>
        <time>2026-05-14T14:16:27+02:00</time>
      </trkpt>
      <trkpt lat="46.89628" lon="5.04087">
        <ele>176.2002</ele>
        <time>2026-05-14T14:16:28+02:00</time>
      </trkpt>
      <trkpt lat="46.89629" lon="5.04097">
        <ele>176.40039</ele>
        <time>2026-05-14T14:16:29+02:00</time>
      </trkpt>
      <trkpt lat="46.89631" lon="5.04107">
        <ele>176.5</ele>
        <time>2026-05-14T14:16:30+02:00</time>
      </trkpt>
      <trkpt lat="46.89633" lon="5.04117">
        <ele>176.5</ele>
        <time>2026-05-14T14:16:31+02:00</time>
      </trkpt>
      <trkpt lat="46.89635" lon="5.04127">
        <ele>176.7002</ele>
        <time>2026-05-14T14:16:32+02:00</time>
      </trkpt>
      <trkpt lat="46.89637" lon="5.04137">
        <ele>176.7998</ele>
        <time>2026-05-14T14:16:33+02:00</time>
      </trkpt>
      <trkpt lat="46.89639" lon="5.04147">
        <ele>176.7998</ele>
        <time>2026-05-14T14:16:34+02:00</time>
      </trkpt>
      <trkpt lat="46.89641" lon="5.04157">
        <ele>176.7998</ele>
        <time>2026-05-14T14:16:35+02:00</time>
      </trkpt>
      <trkpt lat="46.89644" lon="5.04166">
        <ele>176.7998</ele>
        <time>2026-05-14T14:16:36+02:00</time>
      </trkpt>
      <trkpt lat="46.89646" lon="5.04176">
        <ele>176.7002</ele>
        <time>2026-05-14T14:16:37+02:00</time>
      </trkpt>
      <trkpt lat="46.89647" lon="5.04186">
        <ele>176.60059</ele>
        <time>2026-05-14T14:16:38+02:00</time>
      </trkpt>
      <trkpt lat="46.8965" lon="5.04196">
        <ele>176.2998</ele>
        <time>2026-05-14T14:16:39+02:00</time>
      </trkpt>
      <trkpt lat="46.89652" lon="5.04206">
        <ele>176.10059</ele>
        <time>2026-05-14T14:16:40+02:00</time>
      </trkpt>
      <trkpt lat="46.89654" lon="5.04216">
        <ele>175.90039</ele>
        <time>2026-05-14T14:16:41+02:00</time>
      </trkpt>
      <trkpt lat="46.89656" lon="5.04226">
        <ele>175.7002</ele>
        <time>2026-05-14T14:16:42+02:00</time>
      </trkpt>
      <trkpt lat="46.89658" lon="5.04236">
        <ele>175.5</ele>
        <time>2026-05-14T14:16:43+02:00</time>
      </trkpt>
      <trkpt lat="46.8966" lon="5.04247">
        <ele>175.2002</ele>
        <time>2026-05-14T14:16:44+02:00</time>
      </trkpt>
      <trkpt lat="46.89662" lon="5.04257">
        <ele>175.10059</ele>
        <time>2026-05-14T14:16:45+02:00</time>
      </trkpt>
      <trkpt lat="46.89665" lon="5.04267">
        <ele>174.90039</ele>
        <time>2026-05-14T14:16:46+02:00</time>
      </trkpt>
      <trkpt lat="46.89667" lon="5.04278">
        <ele>174.7998</ele>
        <time>2026-05-14T14:16:47+02:00</time>
      </trkpt>
      <trkpt lat="46.89669" lon="5.04288">
        <ele>174.7002</ele>
        <time>2026-05-14T14:16:48+02:00</time>
      </trkpt>
      <trkpt lat="46.89671" lon="5.04298">
        <ele>174.60059</ele>
        <time>2026-05-14T14:16:49+02:00</time>
      </trkpt>
      <trkpt lat="46.89673" lon="5.04308">
        <ele>174.40039</ele>
        <time>2026-05-14T14:16:50+02:00</time>
      </trkpt>
      <trkpt lat="46.89676" lon="5.04318">
        <ele>174.2998</ele>
        <time>2026-05-14T14:16:51+02:00</time>
      </trkpt>
      <trkpt lat="46.89678" lon="5.04328">
        <ele>174.2998</ele>
        <time>2026-05-14T14:16:52+02:00</time>
      </trkpt>
      <trkpt lat="46.8968" lon="5.04338">
        <ele>174.2998</ele>
        <time>2026-05-14T14:16:53+02:00</time>
      </trkpt>
      <trkpt lat="46.89682" lon="5.04347">
        <ele>174.2998</ele>
        <time>2026-05-14T14:16:54+02:00</time>
      </trkpt>
      <trkpt lat="46.89684" lon="5.04357">
        <ele>174.40039</ele>
        <time>2026-05-14T14:16:55+02:00</time>
      </trkpt>
      <trkpt lat="46.89687" lon="5.04367">
        <ele>174.40039</ele>
        <time>2026-05-14T14:16:56+02:00</time>
      </trkpt>
      <trkpt lat="46.89689" lon="5.04376">
        <ele>174.5</ele>
        <time>2026-05-14T14:16:57+02:00</time>
      </trkpt>
      <trkpt lat="46.89691" lon="5.04386">
        <ele>174.60059</ele>
        <time>2026-05-14T14:16:58+02:00</time>
      </trkpt>
      <trkpt lat="46.89692" lon="5.04396">
        <ele>174.60059</ele>
        <time>2026-05-14T14:16:59+02:00</time>
      </trkpt>
      <trkpt lat="46.89694" lon="5.04405">
        <ele>174.60059</ele>
        <time>2026-05-14T14:17:00+02:00</time>
      </trkpt>
      <trkpt lat="46.89696" lon="5.04415">
        <ele>174.60059</ele>
        <time>2026-05-14T14:17:01+02:00</time>
      </trkpt>
      <trkpt lat="46.89698" lon="5.04425">
        <ele>174.60059</ele>
        <time>2026-05-14T14:17:02+02:00</time>
      </trkpt>
      <trkpt lat="46.897" lon="5.04435">
        <ele>174.60059</ele>
        <time>2026-05-14T14:17:03+02:00</time>
      </trkpt>
      <trkpt lat="46.89702" lon="5.04445">
        <ele>174.60059</ele>
        <time>2026-05-14T14:17:04+02:00</time>
      </trkpt>
      <trkpt lat="46.89705" lon="5.04455">
        <ele>174.60059</ele>
        <time>2026-05-14T14:17:05+02:00</time>
      </trkpt>
      <trkpt lat="46.89707" lon="5.04465">
        <ele>174.60059</ele>
        <time>2026-05-14T14:17:06+02:00</time>
      </trkpt>
      <trkpt lat="46.89709" lon="5.04474">
        <ele>174.60059</ele>
        <time>2026-05-14T14:17:07+02:00</time>
      </trkpt>
      <trkpt lat="46.89711" lon="5.04484">
        <ele>174.7002</ele>
        <time>2026-05-14T14:17:08+02:00</time>
      </trkpt>
      <trkpt lat="46.89713" lon="5.04494">
        <ele>174.60059</ele>
        <time>2026-05-14T14:17:09+02:00</time>
      </trkpt>
      <trkpt lat="46.89715" lon="5.04504">
        <ele>174.60059</ele>
        <time>2026-05-14T14:17:10+02:00</time>
      </trkpt>
      <trkpt lat="46.89718" lon="5.04513">
        <ele>174.5</ele>
        <time>2026-05-14T14:17:11+02:00</time>
      </trkpt>
      <trkpt lat="46.8972" lon="5.04523">
        <ele>174.40039</ele>
        <time>2026-05-14T14:17:12+02:00</time>
      </trkpt>
      <trkpt lat="46.89722" lon="5.04533">
        <ele>174.40039</ele>
        <time>2026-05-14T14:17:13+02:00</time>
      </trkpt>
      <trkpt lat="46.89724" lon="5.04542">
        <ele>174.2998</ele>
        <time>2026-05-14T14:17:14+02:00</time>
      </trkpt>
      <trkpt lat="46.89726" lon="5.04551">
        <ele>174.2002</ele>
        <time>2026-05-14T14:17:15+02:00</time>
      </trkpt>
      <trkpt lat="46.89728" lon="5.04561">
        <ele>174.10059</ele>
        <time>2026-05-14T14:17:16+02:00</time>
      </trkpt>
      <trkpt lat="46.89731" lon="5.04571">
        <ele>174.10059</ele>
        <time>2026-05-14T14:17:17+02:00</time>
      </trkpt>
      <trkpt lat="46.89732" lon="5.0458">
        <ele>174</ele>
        <time>2026-05-14T14:17:18+02:00</time>
      </trkpt>
      <trkpt lat="46.89734" lon="5.0459">
        <ele>174</ele>
        <time>2026-05-14T14:17:19+02:00</time>
      </trkpt>
      <trkpt lat="46.89737" lon="5.046">
        <ele>174</ele>
        <time>2026-05-14T14:17:20+02:00</time>
      </trkpt>
      <trkpt lat="46.89739" lon="5.04609">
        <ele>174</ele>
        <time>2026-05-14T14:17:21+02:00</time>
      </trkpt>
      <trkpt lat="46.89741" lon="5.04619">
        <ele>174.10059</ele>
        <time>2026-05-14T14:17:22+02:00</time>
      </trkpt>
      <trkpt lat="46.89743" lon="5.04629">
        <ele>174.10059</ele>
        <time>2026-05-14T14:17:23+02:00</time>
      </trkpt>
      <trkpt lat="46.89745" lon="5.04639">
        <ele>174.10059</ele>
        <time>2026-05-14T14:17:24+02:00</time>
      </trkpt>
      <trkpt lat="46.89748" lon="5.04649">
        <ele>174.10059</ele>
        <time>2026-05-14T14:17:25+02:00</time>
      </trkpt>
      <trkpt lat="46.8975" lon="5.04659">
        <ele>174.2002</ele>
        <time>2026-05-14T14:17:26+02:00</time>
      </trkpt>
      <trkpt lat="46.89752" lon="5.04669">
        <ele>174.2002</ele>
        <time>2026-05-14T14:17:27+02:00</time>
      </trkpt>
      <trkpt lat="46.89754" lon="5.04679">
        <ele>174.2002</ele>
        <time>2026-05-14T14:17:28+02:00</time>
      </trkpt>
      <trkpt lat="46.89756" lon="5.04689">
        <ele>174.2002</ele>
        <time>2026-05-14T14:17:29+02:00</time>
      </trkpt>
      <trkpt lat="46.89758" lon="5.04699">
        <ele>174.10059</ele>
        <time>2026-05-14T14:17:30+02:00</time>
      </trkpt>
      <trkpt lat="46.8976" lon="5.04709">
        <ele>174.10059</ele>
        <time>2026-05-14T14:17:31+02:00</time>
      </trkpt>
      <trkpt lat="46.89763" lon="5.04719">
        <ele>174.10059</ele>
        <time>2026-05-14T14:17:32+02:00</time>
      </trkpt>
      <trkpt lat="46.89765" lon="5.04729">
        <ele>174.10059</ele>
        <time>2026-05-14T14:17:33+02:00</time>
      </trkpt>
      <trkpt lat="46.89768" lon="5.04739">
        <ele>174.10059</ele>
        <time>2026-05-14T14:17:34+02:00</time>
      </trkpt>
      <trkpt lat="46.89769" lon="5.0475">
        <ele>174.10059</ele>
        <time>2026-05-14T14:17:35+02:00</time>
      </trkpt>
      <trkpt lat="46.89771" lon="5.0476">
        <ele>174.10059</ele>
        <time>2026-05-14T14:17:36+02:00</time>
      </trkpt>
      <trkpt lat="46.89774" lon="5.0477">
        <ele>174.10059</ele>
        <time>2026-05-14T14:17:37+02:00</time>
      </trkpt>
      <trkpt lat="46.89776" lon="5.0478">
        <ele>174.10059</ele>
        <time>2026-05-14T14:17:38+02:00</time>
      </trkpt>
      <trkpt lat="46.89778" lon="5.0479">
        <ele>174.10059</ele>
        <time>2026-05-14T14:17:39+02:00</time>
      </trkpt>
      <trkpt lat="46.89781" lon="5.04801">
        <ele>174.10059</ele>
        <time>2026-05-14T14:17:40+02:00</time>
      </trkpt>
      <trkpt lat="46.89783" lon="5.04811">
        <ele>174.10059</ele>
        <time>2026-05-14T14:17:41+02:00</time>
      </trkpt>
      <trkpt lat="46.89785" lon="5.04821">
        <ele>174.10059</ele>
        <time>2026-05-14T14:17:42+02:00</time>
      </trkpt>
      <trkpt lat="46.89787" lon="5.04832">
        <ele>174.2002</ele>
        <time>2026-05-14T14:17:43+02:00</time>
      </trkpt>
      <trkpt lat="46.89789" lon="5.04842">
        <ele>174.2002</ele>
        <time>2026-05-14T14:17:44+02:00</time>
      </trkpt>
      <trkpt lat="46.89792" lon="5.04852">
        <ele>174.2998</ele>
        <time>2026-05-14T14:17:45+02:00</time>
      </trkpt>
      <trkpt lat="46.89794" lon="5.04862">
        <ele>174.2998</ele>
        <time>2026-05-14T14:17:46+02:00</time>
      </trkpt>
      <trkpt lat="46.89795" lon="5.04873">
        <ele>174.40039</ele>
        <time>2026-05-14T14:17:47+02:00</time>
      </trkpt>
      <trkpt lat="46.89798" lon="5.04883">
        <ele>174.60059</ele>
        <time>2026-05-14T14:17:48+02:00</time>
      </trkpt>
      <trkpt lat="46.89799" lon="5.04894">
        <ele>174.60059</ele>
        <time>2026-05-14T14:17:49+02:00</time>
      </trkpt>
      <trkpt lat="46.89801" lon="5.04904">
        <ele>174.7002</ele>
        <time>2026-05-14T14:17:50+02:00</time>
      </trkpt>
      <trkpt lat="46.89803" lon="5.04915">
        <ele>174.7002</ele>
        <time>2026-05-14T14:17:51+02:00</time>
      </trkpt>
      <trkpt lat="46.89805" lon="5.04925">
        <ele>174.7998</ele>
        <time>2026-05-14T14:17:52+02:00</time>
      </trkpt>
      <trkpt lat="46.89806" lon="5.04936">
        <ele>174.7998</ele>
        <time>2026-05-14T14:17:53+02:00</time>
      </trkpt>
      <trkpt lat="46.89808" lon="5.04946">
        <ele>174.7998</ele>
        <time>2026-05-14T14:17:54+02:00</time>
      </trkpt>
      <trkpt lat="46.8981" lon="5.04957">
        <ele>174.90039</ele>
        <time>2026-05-14T14:17:55+02:00</time>
      </trkpt>
      <trkpt lat="46.89811" lon="5.04968">
        <ele>174.90039</ele>
        <time>2026-05-14T14:17:56+02:00</time>
      </trkpt>
      <trkpt lat="46.89813" lon="5.04978">
        <ele>174.90039</ele>
        <time>2026-05-14T14:17:57+02:00</time>
      </trkpt>
      <trkpt lat="46.89815" lon="5.04989">
        <ele>174.90039</ele>
        <time>2026-05-14T14:17:58+02:00</time>
      </trkpt>
      <trkpt lat="46.89816" lon="5.05">
        <ele>174.90039</ele>
        <time>2026-05-14T14:17:59+02:00</time>
      </trkpt>
      <trkpt lat="46.89818" lon="5.05011">
        <ele>174.7998</ele>
        <time>2026-05-14T14:18:00+02:00</time>
      </trkpt>
      <trkpt lat="46.89819" lon="5.05021">
        <ele>174.7002</ele>
        <time>2026-05-14T14:18:01+02:00</time>
      </trkpt>
      <trkpt lat="46.89821" lon="5.05032">
        <ele>174.7002</ele>
        <time>2026-05-14T14:18:02+02:00</time>
      </trkpt>
      <trkpt lat="46.89823" lon="5.05042">
        <ele>174.60059</ele>
        <time>2026-05-14T14:18:03+02:00</time>
      </trkpt>
      <trkpt lat="46.89824" lon="5.05052">
        <ele>174.5</ele>
        <time>2026-05-14T14:18:04+02:00</time>
      </trkpt>
      <trkpt lat="46.89826" lon="5.05063">
        <ele>174.5</ele>
        <time>2026-05-14T14:18:05+02:00</time>
      </trkpt>
      <trkpt lat="46.89827" lon="5.05073">
        <ele>174.40039</ele>
        <time>2026-05-14T14:18:06+02:00</time>
      </trkpt>
      <trkpt lat="46.89829" lon="5.05083">
        <ele>174.40039</ele>
        <time>2026-05-14T14:18:07+02:00</time>
      </trkpt>
      <trkpt lat="46.89831" lon="5.05093">
        <ele>174.5</ele>
        <time>2026-05-14T14:18:08+02:00</time>
      </trkpt>
      <trkpt lat="46.89833" lon="5.05104">
        <ele>174.5</ele>
        <time>2026-05-14T14:18:09+02:00</time>
      </trkpt>
      <trkpt lat="46.89835" lon="5.05114">
        <ele>174.7002</ele>
        <time>2026-05-14T14:18:10+02:00</time>
      </trkpt>
      <trkpt lat="46.89837" lon="5.05125">
        <ele>174.7002</ele>
        <time>2026-05-14T14:18:11+02:00</time>
      </trkpt>
      <trkpt lat="46.89839" lon="5.05135">
        <ele>174.7998</ele>
        <time>2026-05-14T14:18:12+02:00</time>
      </trkpt>
      <trkpt lat="46.89841" lon="5.05145">
        <ele>174.90039</ele>
        <time>2026-05-14T14:18:13+02:00</time>
      </trkpt>
      <trkpt lat="46.89843" lon="5.05156">
        <ele>175</ele>
        <time>2026-05-14T14:18:14+02:00</time>
      </trkpt>
      <trkpt lat="46.89845" lon="5.05166">
        <ele>175.10059</ele>
        <time>2026-05-14T14:18:15+02:00</time>
      </trkpt>
      <trkpt lat="46.89848" lon="5.05176">
        <ele>175.10059</ele>
        <time>2026-05-14T14:18:16+02:00</time>
      </trkpt>
      <trkpt lat="46.8985" lon="5.05187">
        <ele>175.10059</ele>
        <time>2026-05-14T14:18:17+02:00</time>
      </trkpt>
      <trkpt lat="46.89852" lon="5.05197">
        <ele>175.10059</ele>
        <time>2026-05-14T14:18:18+02:00</time>
      </trkpt>
      <trkpt lat="46.89855" lon="5.05207">
        <ele>175.10059</ele>
        <time>2026-05-14T14:18:19+02:00</time>
      </trkpt>
      <trkpt lat="46.89857" lon="5.05217">
        <ele>175.10059</ele>
        <time>2026-05-14T14:18:20+02:00</time>
      </trkpt>
      <trkpt lat="46.8986" lon="5.05227">
        <ele>175.10059</ele>
        <time>2026-05-14T14:18:21+02:00</time>
      </trkpt>
      <trkpt lat="46.89861" lon="5.05238">
        <ele>175.10059</ele>
        <time>2026-05-14T14:18:22+02:00</time>
      </trkpt>
      <trkpt lat="46.89864" lon="5.05248">
        <ele>175.10059</ele>
        <time>2026-05-14T14:18:23+02:00</time>
      </trkpt>
      <trkpt lat="46.89866" lon="5.05258">
        <ele>175</ele>
        <time>2026-05-14T14:18:24+02:00</time>
      </trkpt>
      <trkpt lat="46.89868" lon="5.05268">
        <ele>175</ele>
        <time>2026-05-14T14:18:25+02:00</time>
      </trkpt>
      <trkpt lat="46.89871" lon="5.05279">
        <ele>174.90039</ele>
        <time>2026-05-14T14:18:26+02:00</time>
      </trkpt>
      <trkpt lat="46.89873" lon="5.05289">
        <ele>174.90039</ele>
        <time>2026-05-14T14:18:27+02:00</time>
      </trkpt>
      <trkpt lat="46.89876" lon="5.05299">
        <ele>174.7998</ele>
        <time>2026-05-14T14:18:28+02:00</time>
      </trkpt>
      <trkpt lat="46.89878" lon="5.05309">
        <ele>174.7002</ele>
        <time>2026-05-14T14:18:29+02:00</time>
      </trkpt>
      <trkpt lat="46.8988" lon="5.05319">
        <ele>174.60059</ele>
        <time>2026-05-14T14:18:30+02:00</time>
      </trkpt>
      <trkpt lat="46.89882" lon="5.0533">
        <ele>174.5</ele>
        <time>2026-05-14T14:18:31+02:00</time>
      </trkpt>
      <trkpt lat="46.89885" lon="5.0534">
        <ele>174.40039</ele>
        <time>2026-05-14T14:18:32+02:00</time>
      </trkpt>
      <trkpt lat="46.89887" lon="5.0535">
        <ele>174.2998</ele>
        <time>2026-05-14T14:18:33+02:00</time>
      </trkpt>
      <trkpt lat="46.8989" lon="5.0536">
        <ele>174.2998</ele>
        <time>2026-05-14T14:18:34+02:00</time>
      </trkpt>
      <trkpt lat="46.89892" lon="5.05371">
        <ele>174.2002</ele>
        <time>2026-05-14T14:18:35+02:00</time>
      </trkpt>
      <trkpt lat="46.89894" lon="5.05381">
        <ele>174.2002</ele>
        <time>2026-05-14T14:18:36+02:00</time>
      </trkpt>
      <trkpt lat="46.89897" lon="5.05391">
        <ele>174.2002</ele>
        <time>2026-05-14T14:18:37+02:00</time>
      </trkpt>
      <trkpt lat="46.89899" lon="5.05401">
        <ele>174.10059</ele>
        <time>2026-05-14T14:18:38+02:00</time>
      </trkpt>
      <trkpt lat="46.89901" lon="5.05412">
        <ele>174.10059</ele>
        <time>2026-05-14T14:18:39+02:00</time>
      </trkpt>
      <trkpt lat="46.89903" lon="5.05422">
        <ele>174.10059</ele>
        <time>2026-05-14T14:18:40+02:00</time>
      </trkpt>
      <trkpt lat="46.89906" lon="5.05432">
        <ele>174.10059</ele>
        <time>2026-05-14T14:18:41+02:00</time>
      </trkpt>
      <trkpt lat="46.89908" lon="5.05442">
        <ele>174.2002</ele>
        <time>2026-05-14T14:18:42+02:00</time>
      </trkpt>
      <trkpt lat="46.8991" lon="5.05452">
        <ele>174.2002</ele>
        <time>2026-05-14T14:18:43+02:00</time>
      </trkpt>
      <trkpt lat="46.89913" lon="5.05462">
        <ele>174.2002</ele>
        <time>2026-05-14T14:18:44+02:00</time>
      </trkpt>
      <trkpt lat="46.89915" lon="5.05473">
        <ele>174.2998</ele>
        <time>2026-05-14T14:18:45+02:00</time>
      </trkpt>
      <trkpt lat="46.89917" lon="5.05483">
        <ele>174.2998</ele>
        <time>2026-05-14T14:18:46+02:00</time>
      </trkpt>
      <trkpt lat="46.89919" lon="5.05494">
        <ele>174.2998</ele>
        <time>2026-05-14T14:18:47+02:00</time>
      </trkpt>
      <trkpt lat="46.89922" lon="5.05504">
        <ele>174.40039</ele>
        <time>2026-05-14T14:18:48+02:00</time>
      </trkpt>
      <trkpt lat="46.89924" lon="5.05514">
        <ele>174.40039</ele>
        <time>2026-05-14T14:18:49+02:00</time>
      </trkpt>
      <trkpt lat="46.89926" lon="5.05525">
        <ele>174.5</ele>
        <time>2026-05-14T14:18:50+02:00</time>
      </trkpt>
      <trkpt lat="46.89928" lon="5.05535">
        <ele>174.60059</ele>
        <time>2026-05-14T14:18:51+02:00</time>
      </trkpt>
      <trkpt lat="46.8993" lon="5.05546">
        <ele>174.60059</ele>
        <time>2026-05-14T14:18:52+02:00</time>
      </trkpt>
      <trkpt lat="46.89932" lon="5.05556">
        <ele>174.60059</ele>
        <time>2026-05-14T14:18:53+02:00</time>
      </trkpt>
      <trkpt lat="46.89934" lon="5.05566">
        <ele>174.7002</ele>
        <time>2026-05-14T14:18:54+02:00</time>
      </trkpt>
      <trkpt lat="46.89936" lon="5.05577">
        <ele>174.60059</ele>
        <time>2026-05-14T14:18:55+02:00</time>
      </trkpt>
      <trkpt lat="46.89937" lon="5.05587">
        <ele>174.5</ele>
        <time>2026-05-14T14:18:56+02:00</time>
      </trkpt>
      <trkpt lat="46.89939" lon="5.05598">
        <ele>174.60059</ele>
        <time>2026-05-14T14:18:57+02:00</time>
      </trkpt>
      <trkpt lat="46.89941" lon="5.05609">
        <ele>174.5</ele>
        <time>2026-05-14T14:18:58+02:00</time>
      </trkpt>
      <trkpt lat="46.89943" lon="5.05619">
        <ele>174.40039</ele>
        <time>2026-05-14T14:18:59+02:00</time>
      </trkpt>
      <trkpt lat="46.89944" lon="5.0563">
        <ele>174.2998</ele>
        <time>2026-05-14T14:19:00+02:00</time>
      </trkpt>
      <trkpt lat="46.89945" lon="5.05641">
        <ele>174.2002</ele>
        <time>2026-05-14T14:19:01+02:00</time>
      </trkpt>
      <trkpt lat="46.89946" lon="5.05652">
        <ele>174.10059</ele>
        <time>2026-05-14T14:19:02+02:00</time>
      </trkpt>
      <trkpt lat="46.89948" lon="5.05663">
        <ele>174</ele>
        <time>2026-05-14T14:19:03+02:00</time>
      </trkpt>
      <trkpt lat="46.89948" lon="5.05674">
        <ele>174</ele>
        <time>2026-05-14T14:19:04+02:00</time>
      </trkpt>
      <trkpt lat="46.89949" lon="5.05686">
        <ele>174</ele>
        <time>2026-05-14T14:19:05+02:00</time>
      </trkpt>
      <trkpt lat="46.8995" lon="5.05697">
        <ele>174.10059</ele>
        <time>2026-05-14T14:19:06+02:00</time>
      </trkpt>
      <trkpt lat="46.8995" lon="5.05708">
        <ele>174.10059</ele>
        <time>2026-05-14T14:19:07+02:00</time>
      </trkpt>
      <trkpt lat="46.89951" lon="5.05719">
        <ele>174.10059</ele>
        <time>2026-05-14T14:19:08+02:00</time>
      </trkpt>
      <trkpt lat="46.89951" lon="5.0573">
        <ele>174.10059</ele>
        <time>2026-05-14T14:19:09+02:00</time>
      </trkpt>
      <trkpt lat="46.89951" lon="5.05741">
        <ele>174.10059</ele>
        <time>2026-05-14T14:19:10+02:00</time>
      </trkpt>
      <trkpt lat="46.89951" lon="5.05753">
        <ele>174.10059</ele>
        <time>2026-05-14T14:19:11+02:00</time>
      </trkpt>
      <trkpt lat="46.89951" lon="5.05764">
        <ele>174.10059</ele>
        <time>2026-05-14T14:19:12+02:00</time>
      </trkpt>
      <trkpt lat="46.89952" lon="5.05775">
        <ele>174.10059</ele>
        <time>2026-05-14T14:19:13+02:00</time>
      </trkpt>
      <trkpt lat="46.89952" lon="5.05787">
        <ele>174.10059</ele>
        <time>2026-05-14T14:19:14+02:00</time>
      </trkpt>
      <trkpt lat="46.89953" lon="5.05798">
        <ele>174.10059</ele>
        <time>2026-05-14T14:19:15+02:00</time>
      </trkpt>
      <trkpt lat="46.89953" lon="5.05809">
        <ele>174.10059</ele>
        <time>2026-05-14T14:19:16+02:00</time>
      </trkpt>
      <trkpt lat="46.89953" lon="5.0582">
        <ele>174.2002</ele>
        <time>2026-05-14T14:19:17+02:00</time>
      </trkpt>
      <trkpt lat="46.89953" lon="5.05832">
        <ele>174.2002</ele>
        <time>2026-05-14T14:19:18+02:00</time>
      </trkpt>
      <trkpt lat="46.89954" lon="5.05843">
        <ele>174.2998</ele>
        <time>2026-05-14T14:19:19+02:00</time>
      </trkpt>
      <trkpt lat="46.89954" lon="5.05854">
        <ele>174.40039</ele>
        <time>2026-05-14T14:19:20+02:00</time>
      </trkpt>
      <trkpt lat="46.89955" lon="5.05864">
        <ele>174.5</ele>
        <time>2026-05-14T14:19:21+02:00</time>
      </trkpt>
      <trkpt lat="46.89955" lon="5.05875">
        <ele>174.60059</ele>
        <time>2026-05-14T14:19:22+02:00</time>
      </trkpt>
      <trkpt lat="46.89955" lon="5.05886">
        <ele>174.7002</ele>
        <time>2026-05-14T14:19:23+02:00</time>
      </trkpt>
      <trkpt lat="46.89955" lon="5.05897">
        <ele>174.90039</ele>
        <time>2026-05-14T14:19:24+02:00</time>
      </trkpt>
      <trkpt lat="46.89956" lon="5.05908">
        <ele>175</ele>
        <time>2026-05-14T14:19:25+02:00</time>
      </trkpt>
      <trkpt lat="46.89956" lon="5.05919">
        <ele>175</ele>
        <time>2026-05-14T14:19:26+02:00</time>
      </trkpt>
      <trkpt lat="46.89956" lon="5.0593">
        <ele>175.10059</ele>
        <time>2026-05-14T14:19:27+02:00</time>
      </trkpt>
      <trkpt lat="46.89956" lon="5.05941">
        <ele>175.10059</ele>
        <time>2026-05-14T14:19:28+02:00</time>
      </trkpt>
      <trkpt lat="46.89957" lon="5.05952">
        <ele>175.10059</ele>
        <time>2026-05-14T14:19:29+02:00</time>
      </trkpt>
      <trkpt lat="46.89958" lon="5.05964">
        <ele>175.10059</ele>
        <time>2026-05-14T14:19:30+02:00</time>
      </trkpt>
      <trkpt lat="46.89958" lon="5.05975">
        <ele>175.10059</ele>
        <time>2026-05-14T14:19:31+02:00</time>
      </trkpt>
      <trkpt lat="46.89958" lon="5.05986">
        <ele>175.10059</ele>
        <time>2026-05-14T14:19:32+02:00</time>
      </trkpt>
      <trkpt lat="46.89958" lon="5.05998">
        <ele>175.10059</ele>
        <time>2026-05-14T14:19:33+02:00</time>
      </trkpt>
      <trkpt lat="46.89959" lon="5.0601">
        <ele>175</ele>
        <time>2026-05-14T14:19:34+02:00</time>
      </trkpt>
      <trkpt lat="46.89959" lon="5.06021">
        <ele>175</ele>
        <time>2026-05-14T14:19:35+02:00</time>
      </trkpt>
      <trkpt lat="46.89959" lon="5.06033">
        <ele>174.90039</ele>
        <time>2026-05-14T14:19:36+02:00</time>
      </trkpt>
      <trkpt lat="46.89959" lon="5.06044">
        <ele>174.90039</ele>
        <time>2026-05-14T14:19:37+02:00</time>
      </trkpt>
      <trkpt lat="46.8996" lon="5.06055">
        <ele>174.7998</ele>
        <time>2026-05-14T14:19:38+02:00</time>
      </trkpt>
      <trkpt lat="46.8996" lon="5.06067">
        <ele>174.7002</ele>
        <time>2026-05-14T14:19:39+02:00</time>
      </trkpt>
      <trkpt lat="46.89961" lon="5.06078">
        <ele>174.7002</ele>
        <time>2026-05-14T14:19:40+02:00</time>
      </trkpt>
      <trkpt lat="46.89961" lon="5.06089">
        <ele>174.7002</ele>
        <time>2026-05-14T14:19:41+02:00</time>
      </trkpt>
      <trkpt lat="46.89961" lon="5.061">
        <ele>174.7998</ele>
        <time>2026-05-14T14:19:42+02:00</time>
      </trkpt>
      <trkpt lat="46.89961" lon="5.06112">
        <ele>174.7998</ele>
        <time>2026-05-14T14:19:43+02:00</time>
      </trkpt>
      <trkpt lat="46.89962" lon="5.06123">
        <ele>174.90039</ele>
        <time>2026-05-14T14:19:44+02:00</time>
      </trkpt>
      <trkpt lat="46.89962" lon="5.06134">
        <ele>175</ele>
        <time>2026-05-14T14:19:45+02:00</time>
      </trkpt>
      <trkpt lat="46.89963" lon="5.06145">
        <ele>175</ele>
        <time>2026-05-14T14:19:46+02:00</time>
      </trkpt>
      <trkpt lat="46.89963" lon="5.06157">
        <ele>175</ele>
        <time>2026-05-14T14:19:47+02:00</time>
      </trkpt>
      <trkpt lat="46.89963" lon="5.06168">
        <ele>175</ele>
        <time>2026-05-14T14:19:48+02:00</time>
      </trkpt>
      <trkpt lat="46.89963" lon="5.0618">
        <ele>175</ele>
        <time>2026-05-14T14:19:49+02:00</time>
      </trkpt>
      <trkpt lat="46.89964" lon="5.06191">
        <ele>175</ele>
        <time>2026-05-14T14:19:50+02:00</time>
      </trkpt>
      <trkpt lat="46.89964" lon="5.06203">
        <ele>174.90039</ele>
        <time>2026-05-14T14:19:51+02:00</time>
      </trkpt>
      <trkpt lat="46.89965" lon="5.06214">
        <ele>174.90039</ele>
        <time>2026-05-14T14:19:52+02:00</time>
      </trkpt>
      <trkpt lat="46.89965" lon="5.06225">
        <ele>174.7998</ele>
        <time>2026-05-14T14:19:53+02:00</time>
      </trkpt>
      <trkpt lat="46.89965" lon="5.06236">
        <ele>174.7998</ele>
        <time>2026-05-14T14:19:54+02:00</time>
      </trkpt>
      <trkpt lat="46.89966" lon="5.06248">
        <ele>174.7998</ele>
        <time>2026-05-14T14:19:55+02:00</time>
      </trkpt>
      <trkpt lat="46.89966" lon="5.0626">
        <ele>174.7998</ele>
        <time>2026-05-14T14:19:56+02:00</time>
      </trkpt>
      <trkpt lat="46.89966" lon="5.06271">
        <ele>174.7998</ele>
        <time>2026-05-14T14:19:57+02:00</time>
      </trkpt>
      <trkpt lat="46.89967" lon="5.06282">
        <ele>174.90039</ele>
        <time>2026-05-14T14:19:58+02:00</time>
      </trkpt>
      <trkpt lat="46.89967" lon="5.06294">
        <ele>174.90039</ele>
        <time>2026-05-14T14:19:59+02:00</time>
      </trkpt>
      <trkpt lat="46.89967" lon="5.06305">
        <ele>175</ele>
        <time>2026-05-14T14:20:00+02:00</time>
      </trkpt>
      <trkpt lat="46.89967" lon="5.06316">
        <ele>175</ele>
        <time>2026-05-14T14:20:01+02:00</time>
      </trkpt>
      <trkpt lat="46.89968" lon="5.06327">
        <ele>175</ele>
        <time>2026-05-14T14:20:02+02:00</time>
      </trkpt>
      <trkpt lat="46.89968" lon="5.06338">
        <ele>175</ele>
        <time>2026-05-14T14:20:03+02:00</time>
      </trkpt>
      <trkpt lat="46.89968" lon="5.0635">
        <ele>174.7998</ele>
        <time>2026-05-14T14:20:04+02:00</time>
      </trkpt>
      <trkpt lat="46.89969" lon="5.06361">
        <ele>174.7002</ele>
        <time>2026-05-14T14:20:05+02:00</time>
      </trkpt>
      <trkpt lat="46.89969" lon="5.06372">
        <ele>174.60059</ele>
        <time>2026-05-14T14:20:06+02:00</time>
      </trkpt>
      <trkpt lat="46.8997" lon="5.06383">
        <ele>174.5</ele>
        <time>2026-05-14T14:20:07+02:00</time>
      </trkpt>
      <trkpt lat="46.8997" lon="5.06395">
        <ele>174.40039</ele>
        <time>2026-05-14T14:20:08+02:00</time>
      </trkpt>
      <trkpt lat="46.8997" lon="5.06406">
        <ele>174.2998</ele>
        <time>2026-05-14T14:20:09+02:00</time>
      </trkpt>
      <trkpt lat="46.89971" lon="5.06417">
        <ele>174.2998</ele>
        <time>2026-05-14T14:20:10+02:00</time>
      </trkpt>
      <trkpt lat="46.89971" lon="5.06429">
        <ele>174.40039</ele>
        <time>2026-05-14T14:20:11+02:00</time>
      </trkpt>
      <trkpt lat="46.89971" lon="5.0644">
        <ele>174.40039</ele>
        <time>2026-05-14T14:20:12+02:00</time>
      </trkpt>
      <trkpt lat="46.89971" lon="5.06451">
        <ele>174.5</ele>
        <time>2026-05-14T14:20:13+02:00</time>
      </trkpt>
      <trkpt lat="46.89972" lon="5.06463">
        <ele>174.7002</ele>
        <time>2026-05-14T14:20:14+02:00</time>
      </trkpt>
      <trkpt lat="46.89972" lon="5.06474">
        <ele>174.7998</ele>
        <time>2026-05-14T14:20:15+02:00</time>
      </trkpt>
      <trkpt lat="46.89973" lon="5.06486">
        <ele>174.90039</ele>
        <time>2026-05-14T14:20:16+02:00</time>
      </trkpt>
      <trkpt lat="46.89973" lon="5.06498">
        <ele>174.90039</ele>
        <time>2026-05-14T14:20:17+02:00</time>
      </trkpt>
      <trkpt lat="46.89974" lon="5.06509">
        <ele>174.90039</ele>
        <time>2026-05-14T14:20:18+02:00</time>
      </trkpt>
      <trkpt lat="46.89974" lon="5.06521">
        <ele>174.7998</ele>
        <time>2026-05-14T14:20:19+02:00</time>
      </trkpt>
      <trkpt lat="46.89975" lon="5.06533">
        <ele>174.60059</ele>
        <time>2026-05-14T14:20:20+02:00</time>
      </trkpt>
      <trkpt lat="46.89975" lon="5.06545">
        <ele>174.5</ele>
        <time>2026-05-14T14:20:21+02:00</time>
      </trkpt>
      <trkpt lat="46.89975" lon="5.06556">
        <ele>174.40039</ele>
        <time>2026-05-14T14:20:22+02:00</time>
      </trkpt>
      <trkpt lat="46.89976" lon="5.06568">
        <ele>174.2998</ele>
        <time>2026-05-14T14:20:23+02:00</time>
      </trkpt>
      <trkpt lat="46.89976" lon="5.0658">
        <ele>174.2998</ele>
        <time>2026-05-14T14:20:24+02:00</time>
      </trkpt>
      <trkpt lat="46.89977" lon="5.06592">
        <ele>174.2998</ele>
        <time>2026-05-14T14:20:25+02:00</time>
      </trkpt>
      <trkpt lat="46.89977" lon="5.06604">
        <ele>174.40039</ele>
        <time>2026-05-14T14:20:26+02:00</time>
      </trkpt>
      <trkpt lat="46.89977" lon="5.06616">
        <ele>174.60059</ele>
        <time>2026-05-14T14:20:27+02:00</time>
      </trkpt>
      <trkpt lat="46.89978" lon="5.06628">
        <ele>174.7002</ele>
        <time>2026-05-14T14:20:28+02:00</time>
      </trkpt>
      <trkpt lat="46.89979" lon="5.0664">
        <ele>174.7998</ele>
        <time>2026-05-14T14:20:29+02:00</time>
      </trkpt>
      <trkpt lat="46.89979" lon="5.06652">
        <ele>175</ele>
        <time>2026-05-14T14:20:30+02:00</time>
      </trkpt>
      <trkpt lat="46.8998" lon="5.06664">
        <ele>175.10059</ele>
        <time>2026-05-14T14:20:31+02:00</time>
      </trkpt>
      <trkpt lat="46.8998" lon="5.06676">
        <ele>175.40039</ele>
        <time>2026-05-14T14:20:32+02:00</time>
      </trkpt>
      <trkpt lat="46.89981" lon="5.06688">
        <ele>175.5</ele>
        <time>2026-05-14T14:20:33+02:00</time>
      </trkpt>
      <trkpt lat="46.89982" lon="5.067">
        <ele>175.60059</ele>
        <time>2026-05-14T14:20:34+02:00</time>
      </trkpt>
      <trkpt lat="46.89982" lon="5.06711">
        <ele>175.7998</ele>
        <time>2026-05-14T14:20:35+02:00</time>
      </trkpt>
      <trkpt lat="46.89982" lon="5.06723">
        <ele>175.90039</ele>
        <time>2026-05-14T14:20:36+02:00</time>
      </trkpt>
      <trkpt lat="46.89983" lon="5.06735">
        <ele>176</ele>
        <time>2026-05-14T14:20:37+02:00</time>
      </trkpt>
      <trkpt lat="46.89983" lon="5.06747">
        <ele>176.2002</ele>
        <time>2026-05-14T14:20:38+02:00</time>
      </trkpt>
      <trkpt lat="46.89983" lon="5.06759">
        <ele>176.2002</ele>
        <time>2026-05-14T14:20:39+02:00</time>
      </trkpt>
      <trkpt lat="46.89984" lon="5.06771">
        <ele>176.2002</ele>
        <time>2026-05-14T14:20:40+02:00</time>
      </trkpt>
      <trkpt lat="46.89985" lon="5.06783">
        <ele>176.2002</ele>
        <time>2026-05-14T14:20:41+02:00</time>
      </trkpt>
      <trkpt lat="46.89985" lon="5.06795">
        <ele>176.2002</ele>
        <time>2026-05-14T14:20:42+02:00</time>
      </trkpt>
      <trkpt lat="46.89986" lon="5.06807">
        <ele>176.10059</ele>
        <time>2026-05-14T14:20:43+02:00</time>
      </trkpt>
      <trkpt lat="46.89986" lon="5.06819">
        <ele>176.10059</ele>
        <time>2026-05-14T14:20:44+02:00</time>
      </trkpt>
      <trkpt lat="46.89987" lon="5.06831">
        <ele>176</ele>
        <time>2026-05-14T14:20:45+02:00</time>
      </trkpt>
      <trkpt lat="46.89987" lon="5.06844">
        <ele>175.90039</ele>
        <time>2026-05-14T14:20:46+02:00</time>
      </trkpt>
      <trkpt lat="46.89988" lon="5.06856">
        <ele>175.7002</ele>
        <time>2026-05-14T14:20:47+02:00</time>
      </trkpt>
      <trkpt lat="46.89988" lon="5.06867">
        <ele>175.60059</ele>
        <time>2026-05-14T14:20:48+02:00</time>
      </trkpt>
      <trkpt lat="46.89988" lon="5.0688">
        <ele>175.5</ele>
        <time>2026-05-14T14:20:49+02:00</time>
      </trkpt>
      <trkpt lat="46.89989" lon="5.06891">
        <ele>175.2998</ele>
        <time>2026-05-14T14:20:50+02:00</time>
      </trkpt>
      <trkpt lat="46.8999" lon="5.06903">
        <ele>175.2002</ele>
        <time>2026-05-14T14:20:51+02:00</time>
      </trkpt>
      <trkpt lat="46.8999" lon="5.06914">
        <ele>175.10059</ele>
        <time>2026-05-14T14:20:52+02:00</time>
      </trkpt>
      <trkpt lat="46.89991" lon="5.06926">
        <ele>174.90039</ele>
        <time>2026-05-14T14:20:53+02:00</time>
      </trkpt>
      <trkpt lat="46.89991" lon="5.06937">
        <ele>174.7998</ele>
        <time>2026-05-14T14:20:54+02:00</time>
      </trkpt>
      <trkpt lat="46.89992" lon="5.06949">
        <ele>174.7002</ele>
        <time>2026-05-14T14:20:55+02:00</time>
      </trkpt>
      <trkpt lat="46.89992" lon="5.0696">
        <ele>174.5</ele>
        <time>2026-05-14T14:20:56+02:00</time>
      </trkpt>
      <trkpt lat="46.89992" lon="5.06972">
        <ele>174.40039</ele>
        <time>2026-05-14T14:20:57+02:00</time>
      </trkpt>
      <trkpt lat="46.89993" lon="5.06983">
        <ele>174.2998</ele>
        <time>2026-05-14T14:20:58+02:00</time>
      </trkpt>
      <trkpt lat="46.89993" lon="5.06995">
        <ele>174.2002</ele>
        <time>2026-05-14T14:20:59+02:00</time>
      </trkpt>
      <trkpt lat="46.89994" lon="5.07006">
        <ele>174.2002</ele>
        <time>2026-05-14T14:21:00+02:00</time>
      </trkpt>
      <trkpt lat="46.89994" lon="5.07018">
        <ele>174.10059</ele>
        <time>2026-05-14T14:21:01+02:00</time>
      </trkpt>
      <trkpt lat="46.89995" lon="5.0703">
        <ele>174.10059</ele>
        <time>2026-05-14T14:21:02+02:00</time>
      </trkpt>
      <trkpt lat="46.89995" lon="5.07041">
        <ele>174.10059</ele>
        <time>2026-05-14T14:21:03+02:00</time>
      </trkpt>
      <trkpt lat="46.89996" lon="5.07052">
        <ele>174.2002</ele>
        <time>2026-05-14T14:21:04+02:00</time>
      </trkpt>
      <trkpt lat="46.89996" lon="5.07064">
        <ele>174.2002</ele>
        <time>2026-05-14T14:21:05+02:00</time>
      </trkpt>
      <trkpt lat="46.89996" lon="5.07075">
        <ele>174.2998</ele>
        <time>2026-05-14T14:21:06+02:00</time>
      </trkpt>
      <trkpt lat="46.89996" lon="5.07087">
        <ele>174.40039</ele>
        <time>2026-05-14T14:21:07+02:00</time>
      </trkpt>
      <trkpt lat="46.89996" lon="5.07098">
        <ele>174.7002</ele>
        <time>2026-05-14T14:21:08+02:00</time>
      </trkpt>
      <trkpt lat="46.89996" lon="5.0711">
        <ele>174.7998</ele>
        <time>2026-05-14T14:21:09+02:00</time>
      </trkpt>
      <trkpt lat="46.89995" lon="5.07122">
        <ele>175</ele>
        <time>2026-05-14T14:21:10+02:00</time>
      </trkpt>
      <trkpt lat="46.89993" lon="5.07133">
        <ele>175.40039</ele>
        <time>2026-05-14T14:21:11+02:00</time>
      </trkpt>
      <trkpt lat="46.89991" lon="5.07145">
        <ele>175.5</ele>
        <time>2026-05-14T14:21:12+02:00</time>
      </trkpt>
      <trkpt lat="46.89988" lon="5.07156">
        <ele>175.7002</ele>
        <time>2026-05-14T14:21:13+02:00</time>
      </trkpt>
      <trkpt lat="46.89985" lon="5.07166">
        <ele>176.10059</ele>
        <time>2026-05-14T14:21:14+02:00</time>
      </trkpt>
      <trkpt lat="46.89982" lon="5.07176">
        <ele>176.2002</ele>
        <time>2026-05-14T14:21:15+02:00</time>
      </trkpt>
      <trkpt lat="46.89978" lon="5.07186">
        <ele>176.40039</ele>
        <time>2026-05-14T14:21:16+02:00</time>
      </trkpt>
      <trkpt lat="46.89974" lon="5.07196">
        <ele>176.60059</ele>
        <time>2026-05-14T14:21:17+02:00</time>
      </trkpt>
      <trkpt lat="46.8997" lon="5.07205">
        <ele>176.7002</ele>
        <time>2026-05-14T14:21:18+02:00</time>
      </trkpt>
      <trkpt lat="46.89966" lon="5.07215">
        <ele>176.90039</ele>
        <time>2026-05-14T14:21:19+02:00</time>
      </trkpt>
      <trkpt lat="46.89961" lon="5.07224">
        <ele>177.10059</ele>
        <time>2026-05-14T14:21:20+02:00</time>
      </trkpt>
      <trkpt lat="46.89957" lon="5.07234">
        <ele>177.40039</ele>
        <time>2026-05-14T14:21:21+02:00</time>
      </trkpt>
      <trkpt lat="46.89953" lon="5.07243">
        <ele>177.5</ele>
        <time>2026-05-14T14:21:22+02:00</time>
      </trkpt>
      <trkpt lat="46.89949" lon="5.07253">
        <ele>177.60059</ele>
        <time>2026-05-14T14:21:23+02:00</time>
      </trkpt>
      <trkpt lat="46.89945" lon="5.07262">
        <ele>177.7002</ele>
        <time>2026-05-14T14:21:24+02:00</time>
      </trkpt>
      <trkpt lat="46.89941" lon="5.07272">
        <ele>177.7998</ele>
        <time>2026-05-14T14:21:25+02:00</time>
      </trkpt>
      <trkpt lat="46.89937" lon="5.07282">
        <ele>177.7998</ele>
        <time>2026-05-14T14:21:26+02:00</time>
      </trkpt>
      <trkpt lat="46.89934" lon="5.07293">
        <ele>177.7998</ele>
        <time>2026-05-14T14:21:27+02:00</time>
      </trkpt>
      <trkpt lat="46.8993" lon="5.07303">
        <ele>177.7998</ele>
        <time>2026-05-14T14:21:28+02:00</time>
      </trkpt>
      <trkpt lat="46.89928" lon="5.07314">
        <ele>177.7998</ele>
        <time>2026-05-14T14:21:29+02:00</time>
      </trkpt>
      <trkpt lat="46.89925" lon="5.07325">
        <ele>177.7998</ele>
        <time>2026-05-14T14:21:30+02:00</time>
      </trkpt>
      <trkpt lat="46.89923" lon="5.07336">
        <ele>177.7002</ele>
        <time>2026-05-14T14:21:31+02:00</time>
      </trkpt>
      <trkpt lat="46.89921" lon="5.07348">
        <ele>177.60059</ele>
        <time>2026-05-14T14:21:32+02:00</time>
      </trkpt>
      <trkpt lat="46.8992" lon="5.07359">
        <ele>177.5</ele>
        <time>2026-05-14T14:21:33+02:00</time>
      </trkpt>
      <trkpt lat="46.89919" lon="5.0737">
        <ele>177.5</ele>
        <time>2026-05-14T14:21:34+02:00</time>
      </trkpt>
      <trkpt lat="46.89918" lon="5.07381">
        <ele>177.2998</ele>
        <time>2026-05-14T14:21:35+02:00</time>
      </trkpt>
      <trkpt lat="46.89918" lon="5.07392">
        <ele>177.10059</ele>
        <time>2026-05-14T14:21:36+02:00</time>
      </trkpt>
      <trkpt lat="46.89917" lon="5.07404">
        <ele>177</ele>
        <time>2026-05-14T14:21:37+02:00</time>
      </trkpt>
      <trkpt lat="46.89916" lon="5.07415">
        <ele>176.7998</ele>
        <time>2026-05-14T14:21:38+02:00</time>
      </trkpt>
      <trkpt lat="46.89916" lon="5.07427">
        <ele>176.7002</ele>
        <time>2026-05-14T14:21:39+02:00</time>
      </trkpt>
      <trkpt lat="46.89915" lon="5.07438">
        <ele>176.5</ele>
        <time>2026-05-14T14:21:40+02:00</time>
      </trkpt>
      <trkpt lat="46.89914" lon="5.0745">
        <ele>176.2998</ele>
        <time>2026-05-14T14:21:41+02:00</time>
      </trkpt>
      <trkpt lat="46.89913" lon="5.07462">
        <ele>176.10059</ele>
        <time>2026-05-14T14:21:42+02:00</time>
      </trkpt>
      <trkpt lat="46.89913" lon="5.07473">
        <ele>176</ele>
        <time>2026-05-14T14:21:43+02:00</time>
      </trkpt>
      <trkpt lat="46.89912" lon="5.07484">
        <ele>175.7002</ele>
        <time>2026-05-14T14:21:44+02:00</time>
      </trkpt>
      <trkpt lat="46.89911" lon="5.07494">
        <ele>175.60059</ele>
        <time>2026-05-14T14:21:45+02:00</time>
      </trkpt>
      <trkpt lat="46.89911" lon="5.07504">
        <ele>175.5</ele>
        <time>2026-05-14T14:21:46+02:00</time>
      </trkpt>
      <trkpt lat="46.89911" lon="5.07513">
        <ele>175.40039</ele>
        <time>2026-05-14T14:21:47+02:00</time>
      </trkpt>
      <trkpt lat="46.89912" lon="5.07523">
        <ele>175.2998</ele>
        <time>2026-05-14T14:21:48+02:00</time>
      </trkpt>
      <trkpt lat="46.89911" lon="5.07532">
        <ele>175.2998</ele>
        <time>2026-05-14T14:21:49+02:00</time>
      </trkpt>
      <trkpt lat="46.8991" lon="5.07542">
        <ele>175.2002</ele>
        <time>2026-05-14T14:21:50+02:00</time>
      </trkpt>
      <trkpt lat="46.89909" lon="5.07553">
        <ele>175</ele>
        <time>2026-05-14T14:21:51+02:00</time>
      </trkpt>
      <trkpt lat="46.89908" lon="5.07563">
        <ele>174.7998</ele>
        <time>2026-05-14T14:21:52+02:00</time>
      </trkpt>
      <trkpt lat="46.89908" lon="5.07574">
        <ele>174.7998</ele>
        <time>2026-05-14T14:21:53+02:00</time>
      </trkpt>
      <trkpt lat="46.89908" lon="5.07585">
        <ele>174.7998</ele>
        <time>2026-05-14T14:21:54+02:00</time>
      </trkpt>
      <trkpt lat="46.89909" lon="5.07596">
        <ele>174.90039</ele>
        <time>2026-05-14T14:21:55+02:00</time>
      </trkpt>
      <trkpt lat="46.8991" lon="5.07607">
        <ele>174.90039</ele>
        <time>2026-05-14T14:21:56+02:00</time>
      </trkpt>
      <trkpt lat="46.89913" lon="5.07618">
        <ele>174.7998</ele>
        <time>2026-05-14T14:21:57+02:00</time>
      </trkpt>
      <trkpt lat="46.89917" lon="5.07628">
        <ele>174.7998</ele>
        <time>2026-05-14T14:21:58+02:00</time>
      </trkpt>
      <trkpt lat="46.89921" lon="5.07637">
        <ele>174.7998</ele>
        <time>2026-05-14T14:21:59+02:00</time>
      </trkpt>
      <trkpt lat="46.89925" lon="5.07646">
        <ele>174.7998</ele>
        <time>2026-05-14T14:22:00+02:00</time>
      </trkpt>
      <trkpt lat="46.89929" lon="5.07654">
        <ele>174.7998</ele>
        <time>2026-05-14T14:22:01+02:00</time>
      </trkpt>
      <trkpt lat="46.89933" lon="5.07662">
        <ele>174.7998</ele>
        <time>2026-05-14T14:22:02+02:00</time>
      </trkpt>
      <trkpt lat="46.89937" lon="5.07669">
        <ele>174.7998</ele>
        <time>2026-05-14T14:22:03+02:00</time>
      </trkpt>
      <trkpt lat="46.8994" lon="5.07675">
        <ele>174.7998</ele>
        <time>2026-05-14T14:22:04+02:00</time>
      </trkpt>
      <trkpt lat="46.89942" lon="5.07681">
        <ele>174.7998</ele>
        <time>2026-05-14T14:22:05+02:00</time>
      </trkpt>
      <trkpt lat="46.89944" lon="5.07686">
        <ele>174.7998</ele>
        <time>2026-05-14T14:22:06+02:00</time>
      </trkpt>
      <trkpt lat="46.89945" lon="5.07688">
        <ele>174.7998</ele>
        <time>2026-05-14T14:22:07+02:00</time>
      </trkpt>
      <trkpt lat="46.89945" lon="5.07689">
        <ele>174.7998</ele>
        <time>2026-05-14T14:22:08+02:00</time>
      </trkpt>
      <trkpt lat="46.89945" lon="5.07688">
        <ele>174.7998</ele>
        <time>2026-05-14T14:22:09+02:00</time>
      </trkpt>
      <trkpt lat="46.89945" lon="5.07688">
        <ele>174.7998</ele>
        <time>2026-05-14T14:22:10+02:00</time>
      </trkpt>
      <trkpt lat="46.89945" lon="5.07688">
        <ele>174.7998</ele>
        <time>2026-05-14T14:22:11+02:00</time>
      </trkpt>
      <trkpt lat="46.89945" lon="5.07688">
        <ele>174.7998</ele>
        <time>2026-05-14T14:22:12+02:00</time>
      </trkpt>
      <trkpt lat="46.89955" lon="5.07703">
        <ele>174.7998</ele>
        <time>2026-05-14T14:24:05+02:00</time>
      </trkpt>
      <trkpt lat="46.89956" lon="5.07706">
        <ele>174.7998</ele>
        <time>2026-05-14T14:24:06+02:00</time>
      </trkpt>
      <trkpt lat="46.89958" lon="5.0771">
        <ele>174.7998</ele>
        <time>2026-05-14T14:24:07+02:00</time>
      </trkpt>
      <trkpt lat="46.8996" lon="5.07714">
        <ele>174.7998</ele>
        <time>2026-05-14T14:24:08+02:00</time>
      </trkpt>
      <trkpt lat="46.89962" lon="5.07719">
        <ele>174.7998</ele>
        <time>2026-05-14T14:24:09+02:00</time>
      </trkpt>
      <trkpt lat="46.89964" lon="5.07723">
        <ele>174.7998</ele>
        <time>2026-05-14T14:24:10+02:00</time>
      </trkpt>
      <trkpt lat="46.89967" lon="5.07729">
        <ele>174.7998</ele>
        <time>2026-05-14T14:24:11+02:00</time>
      </trkpt>
      <trkpt lat="46.89971" lon="5.07734">
        <ele>174.7002</ele>
        <time>2026-05-14T14:24:12+02:00</time>
      </trkpt>
      <trkpt lat="46.89973" lon="5.0774">
        <ele>174.7002</ele>
        <time>2026-05-14T14:24:13+02:00</time>
      </trkpt>
      <trkpt lat="46.89976" lon="5.07746">
        <ele>174.7998</ele>
        <time>2026-05-14T14:24:14+02:00</time>
      </trkpt>
      <trkpt lat="46.89979" lon="5.07753">
        <ele>174.7998</ele>
        <time>2026-05-14T14:24:15+02:00</time>
      </trkpt>
      <trkpt lat="46.89982" lon="5.07759">
        <ele>174.90039</ele>
        <time>2026-05-14T14:24:16+02:00</time>
      </trkpt>
      <trkpt lat="46.89985" lon="5.07765">
        <ele>174.90039</ele>
        <time>2026-05-14T14:24:17+02:00</time>
      </trkpt>
      <trkpt lat="46.89988" lon="5.07771">
        <ele>174.90039</ele>
        <time>2026-05-14T14:24:18+02:00</time>
      </trkpt>
      <trkpt lat="46.89992" lon="5.07777">
        <ele>174.7998</ele>
        <time>2026-05-14T14:24:19+02:00</time>
      </trkpt>
      <trkpt lat="46.89995" lon="5.07784">
        <ele>174.7998</ele>
        <time>2026-05-14T14:24:20+02:00</time>
      </trkpt>
      <trkpt lat="46.89998" lon="5.0779">
        <ele>174.7998</ele>
        <time>2026-05-14T14:24:21+02:00</time>
      </trkpt>
      <trkpt lat="46.90001" lon="5.07796">
        <ele>174.7002</ele>
        <time>2026-05-14T14:24:22+02:00</time>
      </trkpt>
      <trkpt lat="46.90004" lon="5.07802">
        <ele>174.7998</ele>
        <time>2026-05-14T14:24:23+02:00</time>
      </trkpt>
      <trkpt lat="46.90007" lon="5.07807">
        <ele>174.7998</ele>
        <time>2026-05-14T14:24:24+02:00</time>
      </trkpt>
      <trkpt lat="46.90011" lon="5.07813">
        <ele>175</ele>
        <time>2026-05-14T14:24:25+02:00</time>
      </trkpt>
      <trkpt lat="46.90013" lon="5.07819">
        <ele>174.90039</ele>
        <time>2026-05-14T14:24:26+02:00</time>
      </trkpt>
      <trkpt lat="46.90017" lon="5.07825">
        <ele>175.10059</ele>
        <time>2026-05-14T14:24:27+02:00</time>
      </trkpt>
      <trkpt lat="46.9002" lon="5.07832">
        <ele>175</ele>
        <time>2026-05-14T14:24:28+02:00</time>
      </trkpt>
      <trkpt lat="46.90023" lon="5.07838">
        <ele>174.90039</ele>
        <time>2026-05-14T14:24:29+02:00</time>
      </trkpt>
      <trkpt lat="46.90026" lon="5.07844">
        <ele>174.90039</ele>
        <time>2026-05-14T14:24:30+02:00</time>
      </trkpt>
      <trkpt lat="46.9003" lon="5.07851">
        <ele>174.90039</ele>
        <time>2026-05-14T14:24:31+02:00</time>
      </trkpt>
      <trkpt lat="46.90033" lon="5.07858">
        <ele>175</ele>
        <time>2026-05-14T14:24:32+02:00</time>
      </trkpt>
      <trkpt lat="46.90037" lon="5.07864">
        <ele>174.90039</ele>
        <time>2026-05-14T14:24:33+02:00</time>
      </trkpt>
      <trkpt lat="46.9004" lon="5.07871">
        <ele>174.7998</ele>
        <time>2026-05-14T14:24:34+02:00</time>
      </trkpt>
      <trkpt lat="46.90044" lon="5.07878">
        <ele>174.7998</ele>
        <time>2026-05-14T14:24:35+02:00</time>
      </trkpt>
      <trkpt lat="46.90048" lon="5.07885">
        <ele>174.7998</ele>
        <time>2026-05-14T14:24:36+02:00</time>
      </trkpt>
      <trkpt lat="46.90051" lon="5.07892">
        <ele>174.7998</ele>
        <time>2026-05-14T14:24:37+02:00</time>
      </trkpt>
      <trkpt lat="46.90055" lon="5.07899">
        <ele>174.7998</ele>
        <time>2026-05-14T14:24:38+02:00</time>
      </trkpt>
      <trkpt lat="46.90059" lon="5.07907">
        <ele>174.90039</ele>
        <time>2026-05-14T14:24:39+02:00</time>
      </trkpt>
      <trkpt lat="46.90062" lon="5.07914">
        <ele>175.10059</ele>
        <time>2026-05-14T14:24:40+02:00</time>
      </trkpt>
      <trkpt lat="46.90066" lon="5.07921">
        <ele>175</ele>
        <time>2026-05-14T14:24:41+02:00</time>
      </trkpt>
      <trkpt lat="46.90069" lon="5.07928">
        <ele>175.10059</ele>
        <time>2026-05-14T14:24:42+02:00</time>
      </trkpt>
      <trkpt lat="46.90073" lon="5.07936">
        <ele>175</ele>
        <time>2026-05-14T14:24:43+02:00</time>
      </trkpt>
      <trkpt lat="46.90076" lon="5.07943">
        <ele>174.7998</ele>
        <time>2026-05-14T14:24:44+02:00</time>
      </trkpt>
      <trkpt lat="46.9008" lon="5.07951">
        <ele>174.90039</ele>
        <time>2026-05-14T14:24:45+02:00</time>
      </trkpt>
      <trkpt lat="46.90083" lon="5.07958">
        <ele>174.7998</ele>
        <time>2026-05-14T14:24:46+02:00</time>
      </trkpt>
      <trkpt lat="46.90087" lon="5.07966">
        <ele>174.7998</ele>
        <time>2026-05-14T14:24:47+02:00</time>
      </trkpt>
      <trkpt lat="46.9009" lon="5.07973">
        <ele>174.7998</ele>
        <time>2026-05-14T14:24:48+02:00</time>
      </trkpt>
      <trkpt lat="46.90093" lon="5.07981">
        <ele>174.7002</ele>
        <time>2026-05-14T14:24:49+02:00</time>
      </trkpt>
      <trkpt lat="46.90096" lon="5.07989">
        <ele>174.7002</ele>
        <time>2026-05-14T14:24:50+02:00</time>
      </trkpt>
      <trkpt lat="46.901" lon="5.07996">
        <ele>174.7998</ele>
        <time>2026-05-14T14:24:51+02:00</time>
      </trkpt>
      <trkpt lat="46.90104" lon="5.08004">
        <ele>174.90039</ele>
        <time>2026-05-14T14:24:52+02:00</time>
      </trkpt>
      <trkpt lat="46.90107" lon="5.08011">
        <ele>174.90039</ele>
        <time>2026-05-14T14:24:53+02:00</time>
      </trkpt>
      <trkpt lat="46.9011" lon="5.08019">
        <ele>174.90039</ele>
        <time>2026-05-14T14:24:54+02:00</time>
      </trkpt>
      <trkpt lat="46.90114" lon="5.08026">
        <ele>174.90039</ele>
        <time>2026-05-14T14:24:55+02:00</time>
      </trkpt>
      <trkpt lat="46.90117" lon="5.08035">
        <ele>174.7998</ele>
        <time>2026-05-14T14:24:56+02:00</time>
      </trkpt>
      <trkpt lat="46.90122" lon="5.08043">
        <ele>174.7002</ele>
        <time>2026-05-14T14:24:57+02:00</time>
      </trkpt>
      <trkpt lat="46.90126" lon="5.0805">
        <ele>174.7998</ele>
        <time>2026-05-14T14:24:58+02:00</time>
      </trkpt>
      <trkpt lat="46.9013" lon="5.08058">
        <ele>174.90039</ele>
        <time>2026-05-14T14:24:59+02:00</time>
      </trkpt>
      <trkpt lat="46.90134" lon="5.08065">
        <ele>175</ele>
        <time>2026-05-14T14:25:00+02:00</time>
      </trkpt>
      <trkpt lat="46.90138" lon="5.08072">
        <ele>175.2998</ele>
        <time>2026-05-14T14:25:01+02:00</time>
      </trkpt>
      <trkpt lat="46.90143" lon="5.08079">
        <ele>175.10059</ele>
        <time>2026-05-14T14:25:02+02:00</time>
      </trkpt>
      <trkpt lat="46.90148" lon="5.08086">
        <ele>175.10059</ele>
        <time>2026-05-14T14:25:03+02:00</time>
      </trkpt>
      <trkpt lat="46.90152" lon="5.08093">
        <ele>174.90039</ele>
        <time>2026-05-14T14:25:04+02:00</time>
      </trkpt>
      <trkpt lat="46.90157" lon="5.08099">
        <ele>175.2002</ele>
        <time>2026-05-14T14:25:05+02:00</time>
      </trkpt>
      <trkpt lat="46.90162" lon="5.08106">
        <ele>175.5</ele>
        <time>2026-05-14T14:25:06+02:00</time>
      </trkpt>
      <trkpt lat="46.90166" lon="5.08113">
        <ele>175.10059</ele>
        <time>2026-05-14T14:25:07+02:00</time>
      </trkpt>
      <trkpt lat="46.9017" lon="5.0812">
        <ele>175</ele>
        <time>2026-05-14T14:25:08+02:00</time>
      </trkpt>
      <trkpt lat="46.90175" lon="5.08128">
        <ele>174.90039</ele>
        <time>2026-05-14T14:25:09+02:00</time>
      </trkpt>
      <trkpt lat="46.9018" lon="5.08135">
        <ele>175</ele>
        <time>2026-05-14T14:25:10+02:00</time>
      </trkpt>
      <trkpt lat="46.90184" lon="5.08143">
        <ele>175</ele>
        <time>2026-05-14T14:25:11+02:00</time>
      </trkpt>
      <trkpt lat="46.90188" lon="5.08151">
        <ele>175.2998</ele>
        <time>2026-05-14T14:25:12+02:00</time>
      </trkpt>
      <trkpt lat="46.90193" lon="5.08158">
        <ele>175.60059</ele>
        <time>2026-05-14T14:25:13+02:00</time>
      </trkpt>
      <trkpt lat="46.90197" lon="5.08165">
        <ele>175.7002</ele>
        <time>2026-05-14T14:25:14+02:00</time>
      </trkpt>
      <trkpt lat="46.90202" lon="5.08172">
        <ele>175.40039</ele>
        <time>2026-05-14T14:25:15+02:00</time>
      </trkpt>
      <trkpt lat="46.90207" lon="5.08178">
        <ele>175.40039</ele>
        <time>2026-05-14T14:25:16+02:00</time>
      </trkpt>
      <trkpt lat="46.90213" lon="5.08183">
        <ele>175.7002</ele>
        <time>2026-05-14T14:25:17+02:00</time>
      </trkpt>
      <trkpt lat="46.90218" lon="5.08189">
        <ele>175.7998</ele>
        <time>2026-05-14T14:25:18+02:00</time>
      </trkpt>
      <trkpt lat="46.90223" lon="5.08194">
        <ele>176.2002</ele>
        <time>2026-05-14T14:25:19+02:00</time>
      </trkpt>
      <trkpt lat="46.90228" lon="5.082">
        <ele>176.40039</ele>
        <time>2026-05-14T14:25:20+02:00</time>
      </trkpt>
      <trkpt lat="46.90233" lon="5.08207">
        <ele>176.5</ele>
        <time>2026-05-14T14:25:21+02:00</time>
      </trkpt>
      <trkpt lat="46.90238" lon="5.08212">
        <ele>176.7998</ele>
        <time>2026-05-14T14:25:22+02:00</time>
      </trkpt>
      <trkpt lat="46.90243" lon="5.08218">
        <ele>176.7002</ele>
        <time>2026-05-14T14:25:23+02:00</time>
      </trkpt>
      <trkpt lat="46.90248" lon="5.08225">
        <ele>176.40039</ele>
        <time>2026-05-14T14:25:24+02:00</time>
      </trkpt>
      <trkpt lat="46.90253" lon="5.08231">
        <ele>176.2998</ele>
        <time>2026-05-14T14:25:25+02:00</time>
      </trkpt>
      <trkpt lat="46.90258" lon="5.08237">
        <ele>176.5</ele>
        <time>2026-05-14T14:25:26+02:00</time>
      </trkpt>
      <trkpt lat="46.90263" lon="5.08243">
        <ele>176.5</ele>
        <time>2026-05-14T14:25:27+02:00</time>
      </trkpt>
      <trkpt lat="46.90268" lon="5.08249">
        <ele>176.40039</ele>
        <time>2026-05-14T14:25:28+02:00</time>
      </trkpt>
      <trkpt lat="46.90273" lon="5.08255">
        <ele>176.5</ele>
        <time>2026-05-14T14:25:29+02:00</time>
      </trkpt>
      <trkpt lat="46.90278" lon="5.08261">
        <ele>176.2998</ele>
        <time>2026-05-14T14:25:30+02:00</time>
      </trkpt>
      <trkpt lat="46.90284" lon="5.08267">
        <ele>176.2998</ele>
        <time>2026-05-14T14:25:31+02:00</time>
      </trkpt>
      <trkpt lat="46.90289" lon="5.08272">
        <ele>176.5</ele>
        <time>2026-05-14T14:25:32+02:00</time>
      </trkpt>
      <trkpt lat="46.90295" lon="5.08277">
        <ele>176.5</ele>
        <time>2026-05-14T14:25:33+02:00</time>
      </trkpt>
      <trkpt lat="46.90301" lon="5.08282">
        <ele>176.40039</ele>
        <time>2026-05-14T14:25:34+02:00</time>
      </trkpt>
      <trkpt lat="46.90306" lon="5.08287">
        <ele>176.7002</ele>
        <time>2026-05-14T14:25:35+02:00</time>
      </trkpt>
      <trkpt lat="46.90312" lon="5.08291">
        <ele>176.7998</ele>
        <time>2026-05-14T14:25:36+02:00</time>
      </trkpt>
      <trkpt lat="46.90317" lon="5.08296">
        <ele>177</ele>
        <time>2026-05-14T14:25:37+02:00</time>
      </trkpt>
      <trkpt lat="46.90322" lon="5.08301">
        <ele>177</ele>
        <time>2026-05-14T14:25:38+02:00</time>
      </trkpt>
      <trkpt lat="46.90327" lon="5.08305">
        <ele>177.2002</ele>
        <time>2026-05-14T14:25:39+02:00</time>
      </trkpt>
      <trkpt lat="46.90332" lon="5.08309">
        <ele>177.40039</ele>
        <time>2026-05-14T14:25:40+02:00</time>
      </trkpt>
      <trkpt lat="46.90337" lon="5.08313">
        <ele>177.7002</ele>
        <time>2026-05-14T14:25:41+02:00</time>
      </trkpt>
      <trkpt lat="46.90342" lon="5.08317">
        <ele>177.60059</ele>
        <time>2026-05-14T14:25:42+02:00</time>
      </trkpt>
      <trkpt lat="46.90346" lon="5.08321">
        <ele>177.7998</ele>
        <time>2026-05-14T14:25:43+02:00</time>
      </trkpt>
      <trkpt lat="46.90351" lon="5.08325">
        <ele>177.7002</ele>
        <time>2026-05-14T14:25:44+02:00</time>
      </trkpt>
      <trkpt lat="46.90355" lon="5.08328">
        <ele>177.7998</ele>
        <time>2026-05-14T14:25:45+02:00</time>
      </trkpt>
      <trkpt lat="46.9036" lon="5.08331">
        <ele>177.7998</ele>
        <time>2026-05-14T14:25:46+02:00</time>
      </trkpt>
      <trkpt lat="46.90363" lon="5.08335">
        <ele>177.90039</ele>
        <time>2026-05-14T14:25:47+02:00</time>
      </trkpt>
      <trkpt lat="46.90367" lon="5.08338">
        <ele>178</ele>
        <time>2026-05-14T14:25:48+02:00</time>
      </trkpt>
      <trkpt lat="46.9037" lon="5.08341">
        <ele>178</ele>
        <time>2026-05-14T14:25:49+02:00</time>
      </trkpt>
      <trkpt lat="46.90373" lon="5.08343">
        <ele>178</ele>
        <time>2026-05-14T14:25:50+02:00</time>
      </trkpt>
      <trkpt lat="46.90376" lon="5.08346">
        <ele>178</ele>
        <time>2026-05-14T14:25:51+02:00</time>
      </trkpt>
      <trkpt lat="46.90379" lon="5.08348">
        <ele>177.90039</ele>
        <time>2026-05-14T14:25:52+02:00</time>
      </trkpt>
      <trkpt lat="46.90383" lon="5.0835">
        <ele>177.5</ele>
        <time>2026-05-14T14:25:53+02:00</time>
      </trkpt>
      <trkpt lat="46.90386" lon="5.08353">
        <ele>177.40039</ele>
        <time>2026-05-14T14:25:54+02:00</time>
      </trkpt>
      <trkpt lat="46.9039" lon="5.08356">
        <ele>177.40039</ele>
        <time>2026-05-14T14:25:55+02:00</time>
      </trkpt>
      <trkpt lat="46.90394" lon="5.08361">
        <ele>176.7998</ele>
        <time>2026-05-14T14:25:56+02:00</time>
      </trkpt>
      <trkpt lat="46.90399" lon="5.08365">
        <ele>176.7998</ele>
        <time>2026-05-14T14:25:57+02:00</time>
      </trkpt>
      <trkpt lat="46.90403" lon="5.08369">
        <ele>176.2002</ele>
        <time>2026-05-14T14:25:58+02:00</time>
      </trkpt>
      <trkpt lat="46.90408" lon="5.08374">
        <ele>176.2002</ele>
        <time>2026-05-14T14:25:59+02:00</time>
      </trkpt>
      <trkpt lat="46.90414" lon="5.08378">
        <ele>175.7998</ele>
        <time>2026-05-14T14:26:00+02:00</time>
      </trkpt>
      <trkpt lat="46.9042" lon="5.08382">
        <ele>175.7998</ele>
        <time>2026-05-14T14:26:01+02:00</time>
      </trkpt>
      <trkpt lat="46.90425" lon="5.08386">
        <ele>175.40039</ele>
        <time>2026-05-14T14:26:02+02:00</time>
      </trkpt>
      <trkpt lat="46.9043" lon="5.0839">
        <ele>175.40039</ele>
        <time>2026-05-14T14:26:03+02:00</time>
      </trkpt>
      <trkpt lat="46.90435" lon="5.08395">
        <ele>175</ele>
        <time>2026-05-14T14:26:04+02:00</time>
      </trkpt>
      <trkpt lat="46.9044" lon="5.08398">
        <ele>175</ele>
        <time>2026-05-14T14:26:05+02:00</time>
      </trkpt>
      <trkpt lat="46.90445" lon="5.08402">
        <ele>174.90039</ele>
        <time>2026-05-14T14:26:06+02:00</time>
      </trkpt>
      <trkpt lat="46.9045" lon="5.08405">
        <ele>174.90039</ele>
        <time>2026-05-14T14:26:07+02:00</time>
      </trkpt>
      <trkpt lat="46.90454" lon="5.08408">
        <ele>174.90039</ele>
        <time>2026-05-14T14:26:08+02:00</time>
      </trkpt>
      <trkpt lat="46.9046" lon="5.0841">
        <ele>174.90039</ele>
        <time>2026-05-14T14:26:09+02:00</time>
      </trkpt>
      <trkpt lat="46.90464" lon="5.08413">
        <ele>174.90039</ele>
        <time>2026-05-14T14:26:10+02:00</time>
      </trkpt>
      <trkpt lat="46.90469" lon="5.08416">
        <ele>174.90039</ele>
        <time>2026-05-14T14:26:11+02:00</time>
      </trkpt>
      <trkpt lat="46.90474" lon="5.08419">
        <ele>174.90039</ele>
        <time>2026-05-14T14:26:12+02:00</time>
      </trkpt>
      <trkpt lat="46.90479" lon="5.08422">
        <ele>174.90039</ele>
        <time>2026-05-14T14:26:13+02:00</time>
      </trkpt>
      <trkpt lat="46.90484" lon="5.08424">
        <ele>174.90039</ele>
        <time>2026-05-14T14:26:14+02:00</time>
      </trkpt>
      <trkpt lat="46.90489" lon="5.08425">
        <ele>174.90039</ele>
        <time>2026-05-14T14:26:15+02:00</time>
      </trkpt>
      <trkpt lat="46.90495" lon="5.08426">
        <ele>174.90039</ele>
        <time>2026-05-14T14:26:16+02:00</time>
      </trkpt>
      <trkpt lat="46.905" lon="5.08426">
        <ele>174.90039</ele>
        <time>2026-05-14T14:26:17+02:00</time>
      </trkpt>
      <trkpt lat="46.90505" lon="5.08425">
        <ele>174.90039</ele>
        <time>2026-05-14T14:26:18+02:00</time>
      </trkpt>
      <trkpt lat="46.9051" lon="5.08424">
        <ele>174.90039</ele>
        <time>2026-05-14T14:26:19+02:00</time>
      </trkpt>
      <trkpt lat="46.90516" lon="5.08423">
        <ele>174.90039</ele>
        <time>2026-05-14T14:26:20+02:00</time>
      </trkpt>
      <trkpt lat="46.90521" lon="5.08422">
        <ele>174.90039</ele>
        <time>2026-05-14T14:26:21+02:00</time>
      </trkpt>
      <trkpt lat="46.90526" lon="5.08421">
        <ele>174.90039</ele>
        <time>2026-05-14T14:26:22+02:00</time>
      </trkpt>
      <trkpt lat="46.90531" lon="5.08419">
        <ele>174.90039</ele>
        <time>2026-05-14T14:26:23+02:00</time>
      </trkpt>
      <trkpt lat="46.90537" lon="5.08418">
        <ele>174.90039</ele>
        <time>2026-05-14T14:26:24+02:00</time>
      </trkpt>
      <trkpt lat="46.90542" lon="5.08416">
        <ele>174.90039</ele>
        <time>2026-05-14T14:26:25+02:00</time>
      </trkpt>
      <trkpt lat="46.90547" lon="5.08414">
        <ele>174.90039</ele>
        <time>2026-05-14T14:26:26+02:00</time>
      </trkpt>
      <trkpt lat="46.90553" lon="5.08411">
        <ele>174.90039</ele>
        <time>2026-05-14T14:26:27+02:00</time>
      </trkpt>
      <trkpt lat="46.90558" lon="5.08409">
        <ele>174.90039</ele>
        <time>2026-05-14T14:26:28+02:00</time>
      </trkpt>
      <trkpt lat="46.90563" lon="5.08406">
        <ele>174.90039</ele>
        <time>2026-05-14T14:26:29+02:00</time>
      </trkpt>
      <trkpt lat="46.90569" lon="5.08403">
        <ele>174.90039</ele>
        <time>2026-05-14T14:26:30+02:00</time>
      </trkpt>
      <trkpt lat="46.90574" lon="5.084">
        <ele>174.90039</ele>
        <time>2026-05-14T14:26:31+02:00</time>
      </trkpt>
      <trkpt lat="46.90579" lon="5.08397">
        <ele>174.90039</ele>
        <time>2026-05-14T14:26:32+02:00</time>
      </trkpt>
      <trkpt lat="46.90584" lon="5.08394">
        <ele>174.90039</ele>
        <time>2026-05-14T14:26:33+02:00</time>
      </trkpt>
      <trkpt lat="46.90589" lon="5.08391">
        <ele>175</ele>
        <time>2026-05-14T14:26:34+02:00</time>
      </trkpt>
      <trkpt lat="46.90593" lon="5.08389">
        <ele>175</ele>
        <time>2026-05-14T14:26:35+02:00</time>
      </trkpt>
      <trkpt lat="46.90598" lon="5.08386">
        <ele>175</ele>
        <time>2026-05-14T14:26:36+02:00</time>
      </trkpt>
      <trkpt lat="46.90603" lon="5.08384">
        <ele>175</ele>
        <time>2026-05-14T14:26:37+02:00</time>
      </trkpt>
      <trkpt lat="46.90608" lon="5.08381">
        <ele>175</ele>
        <time>2026-05-14T14:26:38+02:00</time>
      </trkpt>
      <trkpt lat="46.90612" lon="5.08379">
        <ele>175</ele>
        <time>2026-05-14T14:26:39+02:00</time>
      </trkpt>
      <trkpt lat="46.90617" lon="5.08376">
        <ele>175</ele>
        <time>2026-05-14T14:26:40+02:00</time>
      </trkpt>
      <trkpt lat="46.90621" lon="5.08374">
        <ele>175.10059</ele>
        <time>2026-05-14T14:26:41+02:00</time>
      </trkpt>
      <trkpt lat="46.90626" lon="5.08372">
        <ele>175</ele>
        <time>2026-05-14T14:26:42+02:00</time>
      </trkpt>
      <trkpt lat="46.90631" lon="5.08369">
        <ele>175</ele>
        <time>2026-05-14T14:26:43+02:00</time>
      </trkpt>
      <trkpt lat="46.90636" lon="5.08367">
        <ele>175</ele>
        <time>2026-05-14T14:26:44+02:00</time>
      </trkpt>
      <trkpt lat="46.90641" lon="5.08365">
        <ele>175.10059</ele>
        <time>2026-05-14T14:26:45+02:00</time>
      </trkpt>
      <trkpt lat="46.90646" lon="5.08362">
        <ele>175</ele>
        <time>2026-05-14T14:26:46+02:00</time>
      </trkpt>
      <trkpt lat="46.90651" lon="5.08359">
        <ele>175</ele>
        <time>2026-05-14T14:26:47+02:00</time>
      </trkpt>
      <trkpt lat="46.90656" lon="5.08356">
        <ele>175</ele>
        <time>2026-05-14T14:26:48+02:00</time>
      </trkpt>
      <trkpt lat="46.90661" lon="5.08354">
        <ele>175</ele>
        <time>2026-05-14T14:26:49+02:00</time>
      </trkpt>
      <trkpt lat="46.90667" lon="5.08351">
        <ele>175</ele>
        <time>2026-05-14T14:26:50+02:00</time>
      </trkpt>
      <trkpt lat="46.90671" lon="5.08349">
        <ele>175</ele>
        <time>2026-05-14T14:26:51+02:00</time>
      </trkpt>
      <trkpt lat="46.90676" lon="5.08346">
        <ele>175</ele>
        <time>2026-05-14T14:26:52+02:00</time>
      </trkpt>
      <trkpt lat="46.90681" lon="5.08343">
        <ele>175</ele>
        <time>2026-05-14T14:26:53+02:00</time>
      </trkpt>
      <trkpt lat="46.90686" lon="5.08341">
        <ele>174.90039</ele>
        <time>2026-05-14T14:26:54+02:00</time>
      </trkpt>
      <trkpt lat="46.90691" lon="5.08338">
        <ele>174.90039</ele>
        <time>2026-05-14T14:26:55+02:00</time>
      </trkpt>
      <trkpt lat="46.90696" lon="5.08335">
        <ele>174.90039</ele>
        <time>2026-05-14T14:26:56+02:00</time>
      </trkpt>
      <trkpt lat="46.907" lon="5.08333">
        <ele>174.90039</ele>
        <time>2026-05-14T14:26:57+02:00</time>
      </trkpt>
      <trkpt lat="46.90705" lon="5.0833">
        <ele>174.90039</ele>
        <time>2026-05-14T14:26:58+02:00</time>
      </trkpt>
      <trkpt lat="46.9071" lon="5.08328">
        <ele>174.90039</ele>
        <time>2026-05-14T14:26:59+02:00</time>
      </trkpt>
      <trkpt lat="46.90714" lon="5.08325">
        <ele>174.90039</ele>
        <time>2026-05-14T14:27:00+02:00</time>
      </trkpt>
      <trkpt lat="46.90719" lon="5.08323">
        <ele>174.7998</ele>
        <time>2026-05-14T14:27:01+02:00</time>
      </trkpt>
      <trkpt lat="46.90724" lon="5.08321">
        <ele>174.7998</ele>
        <time>2026-05-14T14:27:02+02:00</time>
      </trkpt>
      <trkpt lat="46.90729" lon="5.08318">
        <ele>174.7998</ele>
        <time>2026-05-14T14:27:03+02:00</time>
      </trkpt>
      <trkpt lat="46.90733" lon="5.08316">
        <ele>174.7998</ele>
        <time>2026-05-14T14:27:04+02:00</time>
      </trkpt>
      <trkpt lat="46.90738" lon="5.08313">
        <ele>174.7002</ele>
        <time>2026-05-14T14:27:05+02:00</time>
      </trkpt>
      <trkpt lat="46.90744" lon="5.08311">
        <ele>174.7002</ele>
        <time>2026-05-14T14:27:06+02:00</time>
      </trkpt>
      <trkpt lat="46.90749" lon="5.08308">
        <ele>174.7002</ele>
        <time>2026-05-14T14:27:07+02:00</time>
      </trkpt>
      <trkpt lat="46.90754" lon="5.08306">
        <ele>174.60059</ele>
        <time>2026-05-14T14:27:08+02:00</time>
      </trkpt>
      <trkpt lat="46.90759" lon="5.08303">
        <ele>174.60059</ele>
        <time>2026-05-14T14:27:09+02:00</time>
      </trkpt>
      <trkpt lat="46.90765" lon="5.08301">
        <ele>174.7002</ele>
        <time>2026-05-14T14:27:10+02:00</time>
      </trkpt>
      <trkpt lat="46.9077" lon="5.083">
        <ele>174.7002</ele>
        <time>2026-05-14T14:27:11+02:00</time>
      </trkpt>
      <trkpt lat="46.90775" lon="5.08298">
        <ele>174.7002</ele>
        <time>2026-05-14T14:27:12+02:00</time>
      </trkpt>
      <trkpt lat="46.9078" lon="5.08296">
        <ele>174.60059</ele>
        <time>2026-05-14T14:27:13+02:00</time>
      </trkpt>
      <trkpt lat="46.90786" lon="5.08295">
        <ele>174.7002</ele>
        <time>2026-05-14T14:27:14+02:00</time>
      </trkpt>
      <trkpt lat="46.90791" lon="5.08294">
        <ele>174.7998</ele>
        <time>2026-05-14T14:27:15+02:00</time>
      </trkpt>
      <trkpt lat="46.90797" lon="5.08293">
        <ele>174.7998</ele>
        <time>2026-05-14T14:27:16+02:00</time>
      </trkpt>
      <trkpt lat="46.90803" lon="5.08293">
        <ele>174.90039</ele>
        <time>2026-05-14T14:27:17+02:00</time>
      </trkpt>
      <trkpt lat="46.90809" lon="5.08292">
        <ele>174.90039</ele>
        <time>2026-05-14T14:27:18+02:00</time>
      </trkpt>
      <trkpt lat="46.90827" lon="5.0829">
        <ele>174.90039</ele>
        <time>2026-05-14T14:27:19+02:00</time>
      </trkpt>
      <trkpt lat="46.90832" lon="5.0829">
        <ele>174.90039</ele>
        <time>2026-05-14T14:27:20+02:00</time>
      </trkpt>
      <trkpt lat="46.90838" lon="5.0829">
        <ele>175</ele>
        <time>2026-05-14T14:27:21+02:00</time>
      </trkpt>
      <trkpt lat="46.90843" lon="5.08289">
        <ele>175</ele>
        <time>2026-05-14T14:27:22+02:00</time>
      </trkpt>
      <trkpt lat="46.90849" lon="5.08289">
        <ele>175</ele>
        <time>2026-05-14T14:27:23+02:00</time>
      </trkpt>
      <trkpt lat="46.90855" lon="5.08288">
        <ele>175</ele>
        <time>2026-05-14T14:27:24+02:00</time>
      </trkpt>
      <trkpt lat="46.90861" lon="5.08288">
        <ele>175</ele>
        <time>2026-05-14T14:27:25+02:00</time>
      </trkpt>
      <trkpt lat="46.90867" lon="5.08288">
        <ele>175</ele>
        <time>2026-05-14T14:27:26+02:00</time>
      </trkpt>
      <trkpt lat="46.90873" lon="5.08288">
        <ele>175</ele>
        <time>2026-05-14T14:27:27+02:00</time>
      </trkpt>
      <trkpt lat="46.90878" lon="5.08288">
        <ele>175</ele>
        <time>2026-05-14T14:27:28+02:00</time>
      </trkpt>
      <trkpt lat="46.90884" lon="5.08288">
        <ele>175</ele>
        <time>2026-05-14T14:27:29+02:00</time>
      </trkpt>
      <trkpt lat="46.90889" lon="5.08288">
        <ele>175</ele>
        <time>2026-05-14T14:27:30+02:00</time>
      </trkpt>
      <trkpt lat="46.90895" lon="5.08288">
        <ele>175</ele>
        <time>2026-05-14T14:27:31+02:00</time>
      </trkpt>
      <trkpt lat="46.909" lon="5.08289">
        <ele>175</ele>
        <time>2026-05-14T14:27:32+02:00</time>
      </trkpt>
      <trkpt lat="46.90906" lon="5.0829">
        <ele>175</ele>
        <time>2026-05-14T14:27:33+02:00</time>
      </trkpt>
      <trkpt lat="46.90911" lon="5.08292">
        <ele>175</ele>
        <time>2026-05-14T14:27:34+02:00</time>
      </trkpt>
      <trkpt lat="46.90916" lon="5.08293">
        <ele>175</ele>
        <time>2026-05-14T14:27:35+02:00</time>
      </trkpt>
      <trkpt lat="46.90922" lon="5.08294">
        <ele>174.90039</ele>
        <time>2026-05-14T14:27:36+02:00</time>
      </trkpt>
      <trkpt lat="46.90927" lon="5.08296">
        <ele>174.90039</ele>
        <time>2026-05-14T14:27:37+02:00</time>
      </trkpt>
      <trkpt lat="46.90932" lon="5.08297">
        <ele>174.90039</ele>
        <time>2026-05-14T14:27:38+02:00</time>
      </trkpt>
      <trkpt lat="46.90938" lon="5.08298">
        <ele>174.90039</ele>
        <time>2026-05-14T14:27:39+02:00</time>
      </trkpt>
      <trkpt lat="46.90943" lon="5.08299">
        <ele>174.90039</ele>
        <time>2026-05-14T14:27:40+02:00</time>
      </trkpt>
      <trkpt lat="46.90948" lon="5.083">
        <ele>174.90039</ele>
        <time>2026-05-14T14:27:41+02:00</time>
      </trkpt>
      <trkpt lat="46.90954" lon="5.08302">
        <ele>174.90039</ele>
        <time>2026-05-14T14:27:42+02:00</time>
      </trkpt>
      <trkpt lat="46.90959" lon="5.08303">
        <ele>175</ele>
        <time>2026-05-14T14:27:43+02:00</time>
      </trkpt>
      <trkpt lat="46.90964" lon="5.08304">
        <ele>175</ele>
        <time>2026-05-14T14:27:44+02:00</time>
      </trkpt>
      <trkpt lat="46.90969" lon="5.08305">
        <ele>175</ele>
        <time>2026-05-14T14:27:45+02:00</time>
      </trkpt>
      <trkpt lat="46.90974" lon="5.08306">
        <ele>175</ele>
        <time>2026-05-14T14:27:46+02:00</time>
      </trkpt>
      <trkpt lat="46.90979" lon="5.08308">
        <ele>175</ele>
        <time>2026-05-14T14:27:47+02:00</time>
      </trkpt>
      <trkpt lat="46.90984" lon="5.08309">
        <ele>175</ele>
        <time>2026-05-14T14:27:48+02:00</time>
      </trkpt>
      <trkpt lat="46.9099" lon="5.0831">
        <ele>175</ele>
        <time>2026-05-14T14:27:49+02:00</time>
      </trkpt>
      <trkpt lat="46.90995" lon="5.08311">
        <ele>175</ele>
        <time>2026-05-14T14:27:50+02:00</time>
      </trkpt>
      <trkpt lat="46.91" lon="5.08313">
        <ele>175</ele>
        <time>2026-05-14T14:27:51+02:00</time>
      </trkpt>
      <trkpt lat="46.91005" lon="5.08314">
        <ele>175</ele>
        <time>2026-05-14T14:27:52+02:00</time>
      </trkpt>
      <trkpt lat="46.91011" lon="5.08316">
        <ele>175</ele>
        <time>2026-05-14T14:27:53+02:00</time>
      </trkpt>
      <trkpt lat="46.91016" lon="5.08317">
        <ele>175</ele>
        <time>2026-05-14T14:27:54+02:00</time>
      </trkpt>
      <trkpt lat="46.91021" lon="5.08319">
        <ele>175</ele>
        <time>2026-05-14T14:27:55+02:00</time>
      </trkpt>
      <trkpt lat="46.91026" lon="5.08321">
        <ele>175</ele>
        <time>2026-05-14T14:27:56+02:00</time>
      </trkpt>
      <trkpt lat="46.91031" lon="5.08323">
        <ele>175</ele>
        <time>2026-05-14T14:27:57+02:00</time>
      </trkpt>
      <trkpt lat="46.91037" lon="5.08325">
        <ele>175</ele>
        <time>2026-05-14T14:27:58+02:00</time>
      </trkpt>
      <trkpt lat="46.91042" lon="5.08327">
        <ele>175</ele>
        <time>2026-05-14T14:27:59+02:00</time>
      </trkpt>
      <trkpt lat="46.91047" lon="5.08329">
        <ele>175.10059</ele>
        <time>2026-05-14T14:28:00+02:00</time>
      </trkpt>
      <trkpt lat="46.91052" lon="5.08332">
        <ele>175.10059</ele>
        <time>2026-05-14T14:28:01+02:00</time>
      </trkpt>
      <trkpt lat="46.91058" lon="5.08334">
        <ele>175.10059</ele>
        <time>2026-05-14T14:28:02+02:00</time>
      </trkpt>
      <trkpt lat="46.91063" lon="5.08337">
        <ele>175.2002</ele>
        <time>2026-05-14T14:28:03+02:00</time>
      </trkpt>
      <trkpt lat="46.91068" lon="5.08339">
        <ele>175.2998</ele>
        <time>2026-05-14T14:28:04+02:00</time>
      </trkpt>
      <trkpt lat="46.91073" lon="5.08342">
        <ele>175.2998</ele>
        <time>2026-05-14T14:28:05+02:00</time>
      </trkpt>
      <trkpt lat="46.91078" lon="5.08345">
        <ele>175.40039</ele>
        <time>2026-05-14T14:28:06+02:00</time>
      </trkpt>
      <trkpt lat="46.91084" lon="5.08348">
        <ele>175.60059</ele>
        <time>2026-05-14T14:28:07+02:00</time>
      </trkpt>
      <trkpt lat="46.91089" lon="5.0835">
        <ele>175.7002</ele>
        <time>2026-05-14T14:28:08+02:00</time>
      </trkpt>
      <trkpt lat="46.91094" lon="5.08353">
        <ele>175.90039</ele>
        <time>2026-05-14T14:28:09+02:00</time>
      </trkpt>
      <trkpt lat="46.91099" lon="5.08356">
        <ele>175.90039</ele>
        <time>2026-05-14T14:28:10+02:00</time>
      </trkpt>
      <trkpt lat="46.91104" lon="5.08358">
        <ele>176</ele>
        <time>2026-05-14T14:28:11+02:00</time>
      </trkpt>
      <trkpt lat="46.91109" lon="5.08361">
        <ele>176.10059</ele>
        <time>2026-05-14T14:28:12+02:00</time>
      </trkpt>
      <trkpt lat="46.91114" lon="5.08365">
        <ele>176.2998</ele>
        <time>2026-05-14T14:28:13+02:00</time>
      </trkpt>
      <trkpt lat="46.91119" lon="5.08368">
        <ele>176.5</ele>
        <time>2026-05-14T14:28:14+02:00</time>
      </trkpt>
      <trkpt lat="46.91124" lon="5.08371">
        <ele>176.7998</ele>
        <time>2026-05-14T14:28:15+02:00</time>
      </trkpt>
      <trkpt lat="46.91129" lon="5.08374">
        <ele>177</ele>
        <time>2026-05-14T14:28:16+02:00</time>
      </trkpt>
      <trkpt lat="46.91134" lon="5.08377">
        <ele>176.90039</ele>
        <time>2026-05-14T14:28:17+02:00</time>
      </trkpt>
      <trkpt lat="46.91139" lon="5.0838">
        <ele>177.10059</ele>
        <time>2026-05-14T14:28:18+02:00</time>
      </trkpt>
      <trkpt lat="46.91144" lon="5.08383">
        <ele>177.2002</ele>
        <time>2026-05-14T14:28:19+02:00</time>
      </trkpt>
      <trkpt lat="46.91148" lon="5.08387">
        <ele>177.2002</ele>
        <time>2026-05-14T14:28:20+02:00</time>
      </trkpt>
      <trkpt lat="46.91153" lon="5.08391">
        <ele>177.2998</ele>
        <time>2026-05-14T14:28:21+02:00</time>
      </trkpt>
      <trkpt lat="46.91158" lon="5.08395">
        <ele>177.2998</ele>
        <time>2026-05-14T14:28:22+02:00</time>
      </trkpt>
      <trkpt lat="46.91163" lon="5.08398">
        <ele>177.2998</ele>
        <time>2026-05-14T14:28:23+02:00</time>
      </trkpt>
      <trkpt lat="46.91168" lon="5.08403">
        <ele>177.2002</ele>
        <time>2026-05-14T14:28:24+02:00</time>
      </trkpt>
      <trkpt lat="46.91173" lon="5.08406">
        <ele>177.2998</ele>
        <time>2026-05-14T14:28:25+02:00</time>
      </trkpt>
      <trkpt lat="46.91177" lon="5.0841">
        <ele>177.2002</ele>
        <time>2026-05-14T14:28:26+02:00</time>
      </trkpt>
      <trkpt lat="46.91182" lon="5.08415">
        <ele>177.2998</ele>
        <time>2026-05-14T14:28:27+02:00</time>
      </trkpt>
      <trkpt lat="46.91187" lon="5.08419">
        <ele>177.2002</ele>
        <time>2026-05-14T14:28:28+02:00</time>
      </trkpt>
      <trkpt lat="46.91191" lon="5.08424">
        <ele>177.2002</ele>
        <time>2026-05-14T14:28:29+02:00</time>
      </trkpt>
      <trkpt lat="46.91196" lon="5.08429">
        <ele>177.2002</ele>
        <time>2026-05-14T14:28:30+02:00</time>
      </trkpt>
      <trkpt lat="46.91201" lon="5.08434">
        <ele>177.2998</ele>
        <time>2026-05-14T14:28:31+02:00</time>
      </trkpt>
      <trkpt lat="46.91205" lon="5.08438">
        <ele>177.2002</ele>
        <time>2026-05-14T14:28:32+02:00</time>
      </trkpt>
      <trkpt lat="46.9121" lon="5.08443">
        <ele>177.2002</ele>
        <time>2026-05-14T14:28:33+02:00</time>
      </trkpt>
      <trkpt lat="46.91215" lon="5.08448">
        <ele>177.2002</ele>
        <time>2026-05-14T14:28:34+02:00</time>
      </trkpt>
      <trkpt lat="46.9122" lon="5.08453">
        <ele>177.10059</ele>
        <time>2026-05-14T14:28:35+02:00</time>
      </trkpt>
      <trkpt lat="46.91224" lon="5.08457">
        <ele>177.2002</ele>
        <time>2026-05-14T14:28:36+02:00</time>
      </trkpt>
      <trkpt lat="46.91229" lon="5.08462">
        <ele>177.2002</ele>
        <time>2026-05-14T14:28:37+02:00</time>
      </trkpt>
      <trkpt lat="46.91234" lon="5.08467">
        <ele>177.2002</ele>
        <time>2026-05-14T14:28:38+02:00</time>
      </trkpt>
      <trkpt lat="46.91239" lon="5.08472">
        <ele>177.2002</ele>
        <time>2026-05-14T14:28:39+02:00</time>
      </trkpt>
      <trkpt lat="46.91243" lon="5.08477">
        <ele>177.2998</ele>
        <time>2026-05-14T14:28:40+02:00</time>
      </trkpt>
      <trkpt lat="46.91248" lon="5.08481">
        <ele>177.2002</ele>
        <time>2026-05-14T14:28:41+02:00</time>
      </trkpt>
      <trkpt lat="46.91252" lon="5.08486">
        <ele>177.2998</ele>
        <time>2026-05-14T14:28:42+02:00</time>
      </trkpt>
      <trkpt lat="46.91257" lon="5.08491">
        <ele>177.2002</ele>
        <time>2026-05-14T14:28:43+02:00</time>
      </trkpt>
      <trkpt lat="46.91261" lon="5.08495">
        <ele>177.2998</ele>
        <time>2026-05-14T14:28:44+02:00</time>
      </trkpt>
      <trkpt lat="46.91266" lon="5.085">
        <ele>177.2998</ele>
        <time>2026-05-14T14:28:45+02:00</time>
      </trkpt>
      <trkpt lat="46.91271" lon="5.08504">
        <ele>177.2998</ele>
        <time>2026-05-14T14:28:46+02:00</time>
      </trkpt>
      <trkpt lat="46.91276" lon="5.08509">
        <ele>177.40039</ele>
        <time>2026-05-14T14:28:47+02:00</time>
      </trkpt>
      <trkpt lat="46.9128" lon="5.08514">
        <ele>177.2998</ele>
        <time>2026-05-14T14:28:48+02:00</time>
      </trkpt>
      <trkpt lat="46.91285" lon="5.08518">
        <ele>177.40039</ele>
        <time>2026-05-14T14:28:49+02:00</time>
      </trkpt>
      <trkpt lat="46.91289" lon="5.08523">
        <ele>177.2998</ele>
        <time>2026-05-14T14:28:50+02:00</time>
      </trkpt>
      <trkpt lat="46.91293" lon="5.08527">
        <ele>177.40039</ele>
        <time>2026-05-14T14:28:51+02:00</time>
      </trkpt>
      <trkpt lat="46.91298" lon="5.08532">
        <ele>177.2998</ele>
        <time>2026-05-14T14:28:52+02:00</time>
      </trkpt>
      <trkpt lat="46.91302" lon="5.08537">
        <ele>177.40039</ele>
        <time>2026-05-14T14:28:53+02:00</time>
      </trkpt>
      <trkpt lat="46.91307" lon="5.08541">
        <ele>177.40039</ele>
        <time>2026-05-14T14:28:54+02:00</time>
      </trkpt>
      <trkpt lat="46.91311" lon="5.08545">
        <ele>177.40039</ele>
        <time>2026-05-14T14:28:55+02:00</time>
      </trkpt>
      <trkpt lat="46.91316" lon="5.0855">
        <ele>177.2998</ele>
        <time>2026-05-14T14:28:56+02:00</time>
      </trkpt>
      <trkpt lat="46.9132" lon="5.08554">
        <ele>177.2998</ele>
        <time>2026-05-14T14:28:57+02:00</time>
      </trkpt>
      <trkpt lat="46.91325" lon="5.08559">
        <ele>177.10059</ele>
        <time>2026-05-14T14:28:58+02:00</time>
      </trkpt>
      <trkpt lat="46.9133" lon="5.08563">
        <ele>177.10059</ele>
        <time>2026-05-14T14:28:59+02:00</time>
      </trkpt>
      <trkpt lat="46.91334" lon="5.08567">
        <ele>177</ele>
        <time>2026-05-14T14:29:00+02:00</time>
      </trkpt>
      <trkpt lat="46.91338" lon="5.08571">
        <ele>177</ele>
        <time>2026-05-14T14:29:01+02:00</time>
      </trkpt>
      <trkpt lat="46.91343" lon="5.08576">
        <ele>176.7998</ele>
        <time>2026-05-14T14:29:02+02:00</time>
      </trkpt>
      <trkpt lat="46.91347" lon="5.08581">
        <ele>176.7002</ele>
        <time>2026-05-14T14:29:03+02:00</time>
      </trkpt>
      <trkpt lat="46.91351" lon="5.08585">
        <ele>176.60059</ele>
        <time>2026-05-14T14:29:04+02:00</time>
      </trkpt>
      <trkpt lat="46.91356" lon="5.08589">
        <ele>176.5</ele>
        <time>2026-05-14T14:29:05+02:00</time>
      </trkpt>
      <trkpt lat="46.9136" lon="5.08594">
        <ele>176.2998</ele>
        <time>2026-05-14T14:29:06+02:00</time>
      </trkpt>
      <trkpt lat="46.91364" lon="5.08598">
        <ele>176.2998</ele>
        <time>2026-05-14T14:29:07+02:00</time>
      </trkpt>
      <trkpt lat="46.91369" lon="5.08603">
        <ele>176.2002</ele>
        <time>2026-05-14T14:29:08+02:00</time>
      </trkpt>
      <trkpt lat="46.91374" lon="5.08608">
        <ele>176.10059</ele>
        <time>2026-05-14T14:29:09+02:00</time>
      </trkpt>
      <trkpt lat="46.91378" lon="5.08613">
        <ele>176.10059</ele>
        <time>2026-05-14T14:29:10+02:00</time>
      </trkpt>
      <trkpt lat="46.91382" lon="5.08618">
        <ele>176</ele>
        <time>2026-05-14T14:29:11+02:00</time>
      </trkpt>
      <trkpt lat="46.91386" lon="5.08623">
        <ele>176</ele>
        <time>2026-05-14T14:29:12+02:00</time>
      </trkpt>
      <trkpt lat="46.91391" lon="5.08628">
        <ele>176</ele>
        <time>2026-05-14T14:29:13+02:00</time>
      </trkpt>
      <trkpt lat="46.91395" lon="5.08633">
        <ele>176.10059</ele>
        <time>2026-05-14T14:29:14+02:00</time>
      </trkpt>
      <trkpt lat="46.91399" lon="5.08638">
        <ele>176.10059</ele>
        <time>2026-05-14T14:29:15+02:00</time>
      </trkpt>
      <trkpt lat="46.91403" lon="5.08643">
        <ele>176.10059</ele>
        <time>2026-05-14T14:29:16+02:00</time>
      </trkpt>
      <trkpt lat="46.91408" lon="5.08648">
        <ele>176.10059</ele>
        <time>2026-05-14T14:29:17+02:00</time>
      </trkpt>
      <trkpt lat="46.91412" lon="5.08653">
        <ele>176</ele>
        <time>2026-05-14T14:29:18+02:00</time>
      </trkpt>
      <trkpt lat="46.91416" lon="5.08658">
        <ele>176.10059</ele>
        <time>2026-05-14T14:29:19+02:00</time>
      </trkpt>
      <trkpt lat="46.9142" lon="5.08663">
        <ele>176</ele>
        <time>2026-05-14T14:29:20+02:00</time>
      </trkpt>
      <trkpt lat="46.91424" lon="5.08668">
        <ele>176.10059</ele>
        <time>2026-05-14T14:29:21+02:00</time>
      </trkpt>
      <trkpt lat="46.91429" lon="5.08673">
        <ele>176.2998</ele>
        <time>2026-05-14T14:29:22+02:00</time>
      </trkpt>
      <trkpt lat="46.91433" lon="5.08678">
        <ele>176.2002</ele>
        <time>2026-05-14T14:29:23+02:00</time>
      </trkpt>
      <trkpt lat="46.91437" lon="5.08683">
        <ele>176.40039</ele>
        <time>2026-05-14T14:29:24+02:00</time>
      </trkpt>
      <trkpt lat="46.91441" lon="5.08688">
        <ele>176.40039</ele>
        <time>2026-05-14T14:29:25+02:00</time>
      </trkpt>
      <trkpt lat="46.91446" lon="5.08693">
        <ele>176.40039</ele>
        <time>2026-05-14T14:29:26+02:00</time>
      </trkpt>
      <trkpt lat="46.9145" lon="5.08699">
        <ele>176.40039</ele>
        <time>2026-05-14T14:29:27+02:00</time>
      </trkpt>
      <trkpt lat="46.91454" lon="5.08704">
        <ele>176.40039</ele>
        <time>2026-05-14T14:29:28+02:00</time>
      </trkpt>
      <trkpt lat="46.91458" lon="5.08709">
        <ele>176.7002</ele>
        <time>2026-05-14T14:29:29+02:00</time>
      </trkpt>
      <trkpt lat="46.91462" lon="5.08714">
        <ele>176.40039</ele>
        <time>2026-05-14T14:29:30+02:00</time>
      </trkpt>
      <trkpt lat="46.91466" lon="5.08719">
        <ele>176.2998</ele>
        <time>2026-05-14T14:29:31+02:00</time>
      </trkpt>
      <trkpt lat="46.9147" lon="5.08724">
        <ele>176.40039</ele>
        <time>2026-05-14T14:29:32+02:00</time>
      </trkpt>
      <trkpt lat="46.91475" lon="5.08729">
        <ele>176.2002</ele>
        <time>2026-05-14T14:29:33+02:00</time>
      </trkpt>
      <trkpt lat="46.91479" lon="5.08734">
        <ele>176.2002</ele>
        <time>2026-05-14T14:29:34+02:00</time>
      </trkpt>
      <trkpt lat="46.91483" lon="5.08739">
        <ele>176</ele>
        <time>2026-05-14T14:29:35+02:00</time>
      </trkpt>
      <trkpt lat="46.91487" lon="5.08744">
        <ele>176.2002</ele>
        <time>2026-05-14T14:29:36+02:00</time>
      </trkpt>
      <trkpt lat="46.91492" lon="5.08749">
        <ele>176.2002</ele>
        <time>2026-05-14T14:29:37+02:00</time>
      </trkpt>
      <trkpt lat="46.91496" lon="5.08754">
        <ele>175.90039</ele>
        <time>2026-05-14T14:29:38+02:00</time>
      </trkpt>
      <trkpt lat="46.91501" lon="5.08758">
        <ele>176.10059</ele>
        <time>2026-05-14T14:29:39+02:00</time>
      </trkpt>
      <trkpt lat="46.91506" lon="5.08762">
        <ele>175.90039</ele>
        <time>2026-05-14T14:29:40+02:00</time>
      </trkpt>
      <trkpt lat="46.91511" lon="5.08765">
        <ele>176</ele>
        <time>2026-05-14T14:29:41+02:00</time>
      </trkpt>
      <trkpt lat="46.91517" lon="5.08768">
        <ele>176.10059</ele>
        <time>2026-05-14T14:29:42+02:00</time>
      </trkpt>
      <trkpt lat="46.91522" lon="5.08769">
        <ele>176.2002</ele>
        <time>2026-05-14T14:29:43+02:00</time>
      </trkpt>
      <trkpt lat="46.91528" lon="5.0877">
        <ele>176.40039</ele>
        <time>2026-05-14T14:29:44+02:00</time>
      </trkpt>
      <trkpt lat="46.91533" lon="5.0877">
        <ele>176.40039</ele>
        <time>2026-05-14T14:29:45+02:00</time>
      </trkpt>
      <trkpt lat="46.91539" lon="5.0877">
        <ele>176.90039</ele>
        <time>2026-05-14T14:29:46+02:00</time>
      </trkpt>
      <trkpt lat="46.91544" lon="5.08769">
        <ele>176.90039</ele>
        <time>2026-05-14T14:29:47+02:00</time>
      </trkpt>
      <trkpt lat="46.9155" lon="5.08768">
        <ele>177.2998</ele>
        <time>2026-05-14T14:29:48+02:00</time>
      </trkpt>
      <trkpt lat="46.91556" lon="5.08767">
        <ele>177.60059</ele>
        <time>2026-05-14T14:29:49+02:00</time>
      </trkpt>
      <trkpt lat="46.91561" lon="5.08765">
        <ele>177.90039</ele>
        <time>2026-05-14T14:29:50+02:00</time>
      </trkpt>
      <trkpt lat="46.91567" lon="5.08765">
        <ele>178</ele>
        <time>2026-05-14T14:29:51+02:00</time>
      </trkpt>
      <trkpt lat="46.91572" lon="5.08764">
        <ele>178</ele>
        <time>2026-05-14T14:29:52+02:00</time>
      </trkpt>
      <trkpt lat="46.91578" lon="5.08764">
        <ele>178.10059</ele>
        <time>2026-05-14T14:29:53+02:00</time>
      </trkpt>
      <trkpt lat="46.91584" lon="5.08766">
        <ele>178.2002</ele>
        <time>2026-05-14T14:29:54+02:00</time>
      </trkpt>
      <trkpt lat="46.91589" lon="5.08768">
        <ele>178.2998</ele>
        <time>2026-05-14T14:29:55+02:00</time>
      </trkpt>
      <trkpt lat="46.91594" lon="5.0877">
        <ele>178.5</ele>
        <time>2026-05-14T14:29:56+02:00</time>
      </trkpt>
      <trkpt lat="46.91599" lon="5.08773">
        <ele>178.7002</ele>
        <time>2026-05-14T14:29:57+02:00</time>
      </trkpt>
      <trkpt lat="46.91604" lon="5.08776">
        <ele>179</ele>
        <time>2026-05-14T14:29:58+02:00</time>
      </trkpt>
      <trkpt lat="46.9161" lon="5.08779">
        <ele>179.2998</ele>
        <time>2026-05-14T14:29:59+02:00</time>
      </trkpt>
      <trkpt lat="46.91615" lon="5.08782">
        <ele>179.2998</ele>
        <time>2026-05-14T14:30:00+02:00</time>
      </trkpt>
      <trkpt lat="46.9162" lon="5.08785">
        <ele>179.2998</ele>
        <time>2026-05-14T14:30:01+02:00</time>
      </trkpt>
      <trkpt lat="46.91625" lon="5.08789">
        <ele>179</ele>
        <time>2026-05-14T14:30:02+02:00</time>
      </trkpt>
      <trkpt lat="46.9163" lon="5.08792">
        <ele>179</ele>
        <time>2026-05-14T14:30:03+02:00</time>
      </trkpt>
      <trkpt lat="46.91635" lon="5.08795">
        <ele>179</ele>
        <time>2026-05-14T14:30:04+02:00</time>
      </trkpt>
      <trkpt lat="46.9164" lon="5.08797">
        <ele>178.5</ele>
        <time>2026-05-14T14:30:05+02:00</time>
      </trkpt>
      <trkpt lat="46.91645" lon="5.088">
        <ele>178.60059</ele>
        <time>2026-05-14T14:30:06+02:00</time>
      </trkpt>
      <trkpt lat="46.9165" lon="5.08803">
        <ele>178.60059</ele>
        <time>2026-05-14T14:30:07+02:00</time>
      </trkpt>
      <trkpt lat="46.91655" lon="5.08806">
        <ele>178.2998</ele>
        <time>2026-05-14T14:30:08+02:00</time>
      </trkpt>
      <trkpt lat="46.9166" lon="5.08808">
        <ele>178.7002</ele>
        <time>2026-05-14T14:30:09+02:00</time>
      </trkpt>
      <trkpt lat="46.91666" lon="5.0881">
        <ele>179.2002</ele>
        <time>2026-05-14T14:30:10+02:00</time>
      </trkpt>
      <trkpt lat="46.91671" lon="5.08811">
        <ele>179.60059</ele>
        <time>2026-05-14T14:30:11+02:00</time>
      </trkpt>
      <trkpt lat="46.91677" lon="5.08812">
        <ele>179.7998</ele>
        <time>2026-05-14T14:30:12+02:00</time>
      </trkpt>
      <trkpt lat="46.91682" lon="5.08813">
        <ele>179.7002</ele>
        <time>2026-05-14T14:30:13+02:00</time>
      </trkpt>
      <trkpt lat="46.91688" lon="5.08814">
        <ele>179.7002</ele>
        <time>2026-05-14T14:30:14+02:00</time>
      </trkpt>
      <trkpt lat="46.91693" lon="5.08815">
        <ele>179.7002</ele>
        <time>2026-05-14T14:30:15+02:00</time>
      </trkpt>
      <trkpt lat="46.91699" lon="5.08815">
        <ele>179.7998</ele>
        <time>2026-05-14T14:30:16+02:00</time>
      </trkpt>
      <trkpt lat="46.91705" lon="5.08816">
        <ele>179.7998</ele>
        <time>2026-05-14T14:30:17+02:00</time>
      </trkpt>
      <trkpt lat="46.9171" lon="5.08817">
        <ele>179.90039</ele>
        <time>2026-05-14T14:30:18+02:00</time>
      </trkpt>
      <trkpt lat="46.91716" lon="5.08818">
        <ele>179.90039</ele>
        <time>2026-05-14T14:30:19+02:00</time>
      </trkpt>
      <trkpt lat="46.91722" lon="5.08818">
        <ele>180</ele>
        <time>2026-05-14T14:30:20+02:00</time>
      </trkpt>
      <trkpt lat="46.91728" lon="5.08819">
        <ele>180.10059</ele>
        <time>2026-05-14T14:30:21+02:00</time>
      </trkpt>
      <trkpt lat="46.91734" lon="5.0882">
        <ele>180.2002</ele>
        <time>2026-05-14T14:30:22+02:00</time>
      </trkpt>
      <trkpt lat="46.91739" lon="5.08822">
        <ele>180.40039</ele>
        <time>2026-05-14T14:30:23+02:00</time>
      </trkpt>
      <trkpt lat="46.91744" lon="5.08823">
        <ele>180.40039</ele>
        <time>2026-05-14T14:30:24+02:00</time>
      </trkpt>
      <trkpt lat="46.9175" lon="5.08823">
        <ele>180.40039</ele>
        <time>2026-05-14T14:30:25+02:00</time>
      </trkpt>
      <trkpt lat="46.91755" lon="5.08824">
        <ele>180.40039</ele>
        <time>2026-05-14T14:30:26+02:00</time>
      </trkpt>
      <trkpt lat="46.91761" lon="5.08824">
        <ele>180.2998</ele>
        <time>2026-05-14T14:30:27+02:00</time>
      </trkpt>
      <trkpt lat="46.91766" lon="5.08824">
        <ele>180.2002</ele>
        <time>2026-05-14T14:30:28+02:00</time>
      </trkpt>
      <trkpt lat="46.91772" lon="5.08825">
        <ele>180</ele>
        <time>2026-05-14T14:30:29+02:00</time>
      </trkpt>
      <trkpt lat="46.91777" lon="5.08826">
        <ele>179.7998</ele>
        <time>2026-05-14T14:30:30+02:00</time>
      </trkpt>
      <trkpt lat="46.91783" lon="5.08826">
        <ele>179.60059</ele>
        <time>2026-05-14T14:30:31+02:00</time>
      </trkpt>
      <trkpt lat="46.91788" lon="5.08827">
        <ele>179.2998</ele>
        <time>2026-05-14T14:30:32+02:00</time>
      </trkpt>
      <trkpt lat="46.91793" lon="5.08827">
        <ele>179</ele>
        <time>2026-05-14T14:30:33+02:00</time>
      </trkpt>
      <trkpt lat="46.91798" lon="5.08827">
        <ele>178.7002</ele>
        <time>2026-05-14T14:30:34+02:00</time>
      </trkpt>
      <trkpt lat="46.91803" lon="5.08828">
        <ele>178.2998</ele>
        <time>2026-05-14T14:30:35+02:00</time>
      </trkpt>
      <trkpt lat="46.91809" lon="5.08828">
        <ele>178.10059</ele>
        <time>2026-05-14T14:30:36+02:00</time>
      </trkpt>
      <trkpt lat="46.91815" lon="5.08828">
        <ele>177.7998</ele>
        <time>2026-05-14T14:30:37+02:00</time>
      </trkpt>
      <trkpt lat="46.9182" lon="5.08827">
        <ele>177.7998</ele>
        <time>2026-05-14T14:30:38+02:00</time>
      </trkpt>
      <trkpt lat="46.91826" lon="5.08827">
        <ele>177.60059</ele>
        <time>2026-05-14T14:30:39+02:00</time>
      </trkpt>
      <trkpt lat="46.91831" lon="5.08827">
        <ele>177.40039</ele>
        <time>2026-05-14T14:30:40+02:00</time>
      </trkpt>
      <trkpt lat="46.91837" lon="5.08826">
        <ele>177.2998</ele>
        <time>2026-05-14T14:30:41+02:00</time>
      </trkpt>
      <trkpt lat="46.91842" lon="5.08826">
        <ele>177.2002</ele>
        <time>2026-05-14T14:30:42+02:00</time>
      </trkpt>
      <trkpt lat="46.91848" lon="5.08825">
        <ele>177.2002</ele>
        <time>2026-05-14T14:30:43+02:00</time>
      </trkpt>
      <trkpt lat="46.91853" lon="5.08825">
        <ele>177.10059</ele>
        <time>2026-05-14T14:30:44+02:00</time>
      </trkpt>
      <trkpt lat="46.91858" lon="5.08824">
        <ele>177.10059</ele>
        <time>2026-05-14T14:30:45+02:00</time>
      </trkpt>
      <trkpt lat="46.91864" lon="5.08823">
        <ele>177.10059</ele>
        <time>2026-05-14T14:30:46+02:00</time>
      </trkpt>
      <trkpt lat="46.91869" lon="5.08823">
        <ele>177.10059</ele>
        <time>2026-05-14T14:30:47+02:00</time>
      </trkpt>
      <trkpt lat="46.91875" lon="5.08822">
        <ele>177.10059</ele>
        <time>2026-05-14T14:30:48+02:00</time>
      </trkpt>
      <trkpt lat="46.91881" lon="5.08821">
        <ele>177.10059</ele>
        <time>2026-05-14T14:30:49+02:00</time>
      </trkpt>
      <trkpt lat="46.91886" lon="5.0882">
        <ele>177.10059</ele>
        <time>2026-05-14T14:30:50+02:00</time>
      </trkpt>
      <trkpt lat="46.91891" lon="5.08819">
        <ele>177.10059</ele>
        <time>2026-05-14T14:30:51+02:00</time>
      </trkpt>
      <trkpt lat="46.91897" lon="5.08818">
        <ele>177.10059</ele>
        <time>2026-05-14T14:30:52+02:00</time>
      </trkpt>
      <trkpt lat="46.91903" lon="5.08816">
        <ele>177.10059</ele>
        <time>2026-05-14T14:30:53+02:00</time>
      </trkpt>
      <trkpt lat="46.91908" lon="5.08815">
        <ele>177.10059</ele>
        <time>2026-05-14T14:30:54+02:00</time>
      </trkpt>
      <trkpt lat="46.91914" lon="5.08814">
        <ele>177.10059</ele>
        <time>2026-05-14T14:30:55+02:00</time>
      </trkpt>
      <trkpt lat="46.9192" lon="5.08813">
        <ele>177.10059</ele>
        <time>2026-05-14T14:30:56+02:00</time>
      </trkpt>
      <trkpt lat="46.91926" lon="5.08812">
        <ele>177.10059</ele>
        <time>2026-05-14T14:30:57+02:00</time>
      </trkpt>
      <trkpt lat="46.91932" lon="5.08811">
        <ele>177.10059</ele>
        <time>2026-05-14T14:30:58+02:00</time>
      </trkpt>
      <trkpt lat="46.91938" lon="5.0881">
        <ele>177.10059</ele>
        <time>2026-05-14T14:30:59+02:00</time>
      </trkpt>
      <trkpt lat="46.91943" lon="5.08809">
        <ele>177.10059</ele>
        <time>2026-05-14T14:31:00+02:00</time>
      </trkpt>
      <trkpt lat="46.91949" lon="5.08808">
        <ele>177.10059</ele>
        <time>2026-05-14T14:31:01+02:00</time>
      </trkpt>
      <trkpt lat="46.91955" lon="5.08806">
        <ele>177.10059</ele>
        <time>2026-05-14T14:31:02+02:00</time>
      </trkpt>
      <trkpt lat="46.91961" lon="5.08805">
        <ele>177.10059</ele>
        <time>2026-05-14T14:31:03+02:00</time>
      </trkpt>
      <trkpt lat="46.91966" lon="5.08804">
        <ele>177.10059</ele>
        <time>2026-05-14T14:31:04+02:00</time>
      </trkpt>
      <trkpt lat="46.91972" lon="5.08803">
        <ele>177.10059</ele>
        <time>2026-05-14T14:31:05+02:00</time>
      </trkpt>
      <trkpt lat="46.91977" lon="5.08801">
        <ele>177.10059</ele>
        <time>2026-05-14T14:31:06+02:00</time>
      </trkpt>
      <trkpt lat="46.91983" lon="5.088">
        <ele>177.10059</ele>
        <time>2026-05-14T14:31:07+02:00</time>
      </trkpt>
      <trkpt lat="46.91989" lon="5.08799">
        <ele>177.10059</ele>
        <time>2026-05-14T14:31:08+02:00</time>
      </trkpt>
      <trkpt lat="46.91994" lon="5.08798">
        <ele>177</ele>
        <time>2026-05-14T14:31:09+02:00</time>
      </trkpt>
      <trkpt lat="46.92" lon="5.08797">
        <ele>177</ele>
        <time>2026-05-14T14:31:10+02:00</time>
      </trkpt>
      <trkpt lat="46.92006" lon="5.08795">
        <ele>177</ele>
        <time>2026-05-14T14:31:11+02:00</time>
      </trkpt>
      <trkpt lat="46.92011" lon="5.08793">
        <ele>176.90039</ele>
        <time>2026-05-14T14:31:12+02:00</time>
      </trkpt>
      <trkpt lat="46.92017" lon="5.08792">
        <ele>176.90039</ele>
        <time>2026-05-14T14:31:13+02:00</time>
      </trkpt>
      <trkpt lat="46.92023" lon="5.08791">
        <ele>176.7998</ele>
        <time>2026-05-14T14:31:14+02:00</time>
      </trkpt>
      <trkpt lat="46.92029" lon="5.08791">
        <ele>176.7002</ele>
        <time>2026-05-14T14:31:15+02:00</time>
      </trkpt>
      <trkpt lat="46.92034" lon="5.0879">
        <ele>176.7002</ele>
        <time>2026-05-14T14:31:16+02:00</time>
      </trkpt>
      <trkpt lat="46.92039" lon="5.0879">
        <ele>176.60059</ele>
        <time>2026-05-14T14:31:17+02:00</time>
      </trkpt>
      <trkpt lat="46.92045" lon="5.08789">
        <ele>176.5</ele>
        <time>2026-05-14T14:31:18+02:00</time>
      </trkpt>
      <trkpt lat="46.9205" lon="5.08789">
        <ele>176.5</ele>
        <time>2026-05-14T14:31:19+02:00</time>
      </trkpt>
      <trkpt lat="46.92055" lon="5.08789">
        <ele>176.40039</ele>
        <time>2026-05-14T14:31:20+02:00</time>
      </trkpt>
      <trkpt lat="46.92061" lon="5.08789">
        <ele>176.2998</ele>
        <time>2026-05-14T14:31:21+02:00</time>
      </trkpt>
      <trkpt lat="46.92066" lon="5.08789">
        <ele>176.2998</ele>
        <time>2026-05-14T14:31:22+02:00</time>
      </trkpt>
      <trkpt lat="46.92072" lon="5.08789">
        <ele>176.2998</ele>
        <time>2026-05-14T14:31:23+02:00</time>
      </trkpt>
      <trkpt lat="46.92077" lon="5.08789">
        <ele>176.2002</ele>
        <time>2026-05-14T14:31:24+02:00</time>
      </trkpt>
      <trkpt lat="46.92083" lon="5.08789">
        <ele>176.2002</ele>
        <time>2026-05-14T14:31:25+02:00</time>
      </trkpt>
      <trkpt lat="46.92088" lon="5.08789">
        <ele>176.2002</ele>
        <time>2026-05-14T14:31:26+02:00</time>
      </trkpt>
      <trkpt lat="46.92094" lon="5.08789">
        <ele>176.10059</ele>
        <time>2026-05-14T14:31:27+02:00</time>
      </trkpt>
      <trkpt lat="46.921" lon="5.08789">
        <ele>176.10059</ele>
        <time>2026-05-14T14:31:28+02:00</time>
      </trkpt>
      <trkpt lat="46.92105" lon="5.0879">
        <ele>176.10059</ele>
        <time>2026-05-14T14:31:29+02:00</time>
      </trkpt>
      <trkpt lat="46.92111" lon="5.0879">
        <ele>176.10059</ele>
        <time>2026-05-14T14:31:30+02:00</time>
      </trkpt>
      <trkpt lat="46.92117" lon="5.08791">
        <ele>176.10059</ele>
        <time>2026-05-14T14:31:31+02:00</time>
      </trkpt>
      <trkpt lat="46.92123" lon="5.08791">
        <ele>176.10059</ele>
        <time>2026-05-14T14:31:32+02:00</time>
      </trkpt>
      <trkpt lat="46.92129" lon="5.08792">
        <ele>176.10059</ele>
        <time>2026-05-14T14:31:33+02:00</time>
      </trkpt>
      <trkpt lat="46.92135" lon="5.08793">
        <ele>176.10059</ele>
        <time>2026-05-14T14:31:34+02:00</time>
      </trkpt>
      <trkpt lat="46.92141" lon="5.08795">
        <ele>176.10059</ele>
        <time>2026-05-14T14:31:35+02:00</time>
      </trkpt>
      <trkpt lat="46.92147" lon="5.08796">
        <ele>176.10059</ele>
        <time>2026-05-14T14:31:36+02:00</time>
      </trkpt>
      <trkpt lat="46.92153" lon="5.08798">
        <ele>176.10059</ele>
        <time>2026-05-14T14:31:37+02:00</time>
      </trkpt>
      <trkpt lat="46.92159" lon="5.088">
        <ele>176.10059</ele>
        <time>2026-05-14T14:31:38+02:00</time>
      </trkpt>
      <trkpt lat="46.92164" lon="5.08802">
        <ele>176</ele>
        <time>2026-05-14T14:31:39+02:00</time>
      </trkpt>
      <trkpt lat="46.9217" lon="5.08805">
        <ele>176</ele>
        <time>2026-05-14T14:31:40+02:00</time>
      </trkpt>
      <trkpt lat="46.92175" lon="5.08807">
        <ele>176</ele>
        <time>2026-05-14T14:31:41+02:00</time>
      </trkpt>
      <trkpt lat="46.92181" lon="5.0881">
        <ele>175.90039</ele>
        <time>2026-05-14T14:31:42+02:00</time>
      </trkpt>
      <trkpt lat="46.92186" lon="5.08813">
        <ele>175.90039</ele>
        <time>2026-05-14T14:31:43+02:00</time>
      </trkpt>
      <trkpt lat="46.92191" lon="5.08816">
        <ele>175.7998</ele>
        <time>2026-05-14T14:31:44+02:00</time>
      </trkpt>
      <trkpt lat="46.92197" lon="5.08819">
        <ele>175.7002</ele>
        <time>2026-05-14T14:31:45+02:00</time>
      </trkpt>
      <trkpt lat="46.92202" lon="5.08822">
        <ele>175.7002</ele>
        <time>2026-05-14T14:31:46+02:00</time>
      </trkpt>
      <trkpt lat="46.92207" lon="5.08825">
        <ele>175.7002</ele>
        <time>2026-05-14T14:31:47+02:00</time>
      </trkpt>
      <trkpt lat="46.92212" lon="5.08829">
        <ele>175.7002</ele>
        <time>2026-05-14T14:31:48+02:00</time>
      </trkpt>
      <trkpt lat="46.92218" lon="5.08832">
        <ele>175.7002</ele>
        <time>2026-05-14T14:31:49+02:00</time>
      </trkpt>
      <trkpt lat="46.92223" lon="5.08835">
        <ele>175.60059</ele>
        <time>2026-05-14T14:31:50+02:00</time>
      </trkpt>
      <trkpt lat="46.92228" lon="5.0884">
        <ele>175.7002</ele>
        <time>2026-05-14T14:31:51+02:00</time>
      </trkpt>
      <trkpt lat="46.92234" lon="5.08844">
        <ele>175.7002</ele>
        <time>2026-05-14T14:31:52+02:00</time>
      </trkpt>
      <trkpt lat="46.92239" lon="5.08848">
        <ele>175.7998</ele>
        <time>2026-05-14T14:31:53+02:00</time>
      </trkpt>
      <trkpt lat="46.92244" lon="5.08852">
        <ele>175.7998</ele>
        <time>2026-05-14T14:31:54+02:00</time>
      </trkpt>
      <trkpt lat="46.9225" lon="5.08856">
        <ele>175.90039</ele>
        <time>2026-05-14T14:31:55+02:00</time>
      </trkpt>
      <trkpt lat="46.92255" lon="5.08861">
        <ele>175.90039</ele>
        <time>2026-05-14T14:31:56+02:00</time>
      </trkpt>
      <trkpt lat="46.9226" lon="5.08866">
        <ele>176.10059</ele>
        <time>2026-05-14T14:31:57+02:00</time>
      </trkpt>
      <trkpt lat="46.92265" lon="5.08871">
        <ele>176.10059</ele>
        <time>2026-05-14T14:31:58+02:00</time>
      </trkpt>
      <trkpt lat="46.9227" lon="5.08876">
        <ele>176.2002</ele>
        <time>2026-05-14T14:31:59+02:00</time>
      </trkpt>
      <trkpt lat="46.92276" lon="5.08881">
        <ele>176.2002</ele>
        <time>2026-05-14T14:32:00+02:00</time>
      </trkpt>
      <trkpt lat="46.92281" lon="5.08886">
        <ele>176.2998</ele>
        <time>2026-05-14T14:32:01+02:00</time>
      </trkpt>
      <trkpt lat="46.92286" lon="5.08892">
        <ele>176.40039</ele>
        <time>2026-05-14T14:32:02+02:00</time>
      </trkpt>
      <trkpt lat="46.9229" lon="5.08897">
        <ele>176.2998</ele>
        <time>2026-05-14T14:32:03+02:00</time>
      </trkpt>
      <trkpt lat="46.92295" lon="5.08903">
        <ele>176.40039</ele>
        <time>2026-05-14T14:32:04+02:00</time>
      </trkpt>
      <trkpt lat="46.923" lon="5.08909">
        <ele>176.40039</ele>
        <time>2026-05-14T14:32:05+02:00</time>
      </trkpt>
      <trkpt lat="46.92305" lon="5.08915">
        <ele>176.2998</ele>
        <time>2026-05-14T14:32:06+02:00</time>
      </trkpt>
      <trkpt lat="46.92309" lon="5.08921">
        <ele>176.2002</ele>
        <time>2026-05-14T14:32:07+02:00</time>
      </trkpt>
      <trkpt lat="46.92314" lon="5.08927">
        <ele>176.10059</ele>
        <time>2026-05-14T14:32:08+02:00</time>
      </trkpt>
      <trkpt lat="46.92318" lon="5.08934">
        <ele>176</ele>
        <time>2026-05-14T14:32:09+02:00</time>
      </trkpt>
      <trkpt lat="46.92323" lon="5.08941">
        <ele>175.90039</ele>
        <time>2026-05-14T14:32:10+02:00</time>
      </trkpt>
      <trkpt lat="46.92327" lon="5.08948">
        <ele>175.7998</ele>
        <time>2026-05-14T14:32:11+02:00</time>
      </trkpt>
      <trkpt lat="46.92331" lon="5.08955">
        <ele>175.60059</ele>
        <time>2026-05-14T14:32:12+02:00</time>
      </trkpt>
      <trkpt lat="46.92336" lon="5.08962">
        <ele>175.60059</ele>
        <time>2026-05-14T14:32:13+02:00</time>
      </trkpt>
      <trkpt lat="46.9234" lon="5.08969">
        <ele>175.40039</ele>
        <time>2026-05-14T14:32:14+02:00</time>
      </trkpt>
      <trkpt lat="46.92344" lon="5.08976">
        <ele>175.2998</ele>
        <time>2026-05-14T14:32:15+02:00</time>
      </trkpt>
      <trkpt lat="46.92348" lon="5.08983">
        <ele>175.2998</ele>
        <time>2026-05-14T14:32:16+02:00</time>
      </trkpt>
      <trkpt lat="46.92352" lon="5.0899">
        <ele>175.2998</ele>
        <time>2026-05-14T14:32:17+02:00</time>
      </trkpt>
      <trkpt lat="46.92357" lon="5.08997">
        <ele>175.2002</ele>
        <time>2026-05-14T14:32:18+02:00</time>
      </trkpt>
      <trkpt lat="46.92361" lon="5.09003">
        <ele>175.2002</ele>
        <time>2026-05-14T14:32:19+02:00</time>
      </trkpt>
      <trkpt lat="46.92366" lon="5.09009">
        <ele>175.2002</ele>
        <time>2026-05-14T14:32:20+02:00</time>
      </trkpt>
      <trkpt lat="46.9237" lon="5.09016">
        <ele>175.2002</ele>
        <time>2026-05-14T14:32:21+02:00</time>
      </trkpt>
      <trkpt lat="46.92375" lon="5.09022">
        <ele>175.2998</ele>
        <time>2026-05-14T14:32:22+02:00</time>
      </trkpt>
      <trkpt lat="46.9238" lon="5.09028">
        <ele>175.2998</ele>
        <time>2026-05-14T14:32:23+02:00</time>
      </trkpt>
      <trkpt lat="46.92386" lon="5.09034">
        <ele>175.2002</ele>
        <time>2026-05-14T14:32:24+02:00</time>
      </trkpt>
      <trkpt lat="46.92391" lon="5.0904">
        <ele>175.2002</ele>
        <time>2026-05-14T14:32:25+02:00</time>
      </trkpt>
      <trkpt lat="46.92396" lon="5.09045">
        <ele>175.2998</ele>
        <time>2026-05-14T14:32:26+02:00</time>
      </trkpt>
      <trkpt lat="46.92402" lon="5.09051">
        <ele>175.2002</ele>
        <time>2026-05-14T14:32:27+02:00</time>
      </trkpt>
      <trkpt lat="46.92407" lon="5.09056">
        <ele>175.2002</ele>
        <time>2026-05-14T14:32:28+02:00</time>
      </trkpt>
      <trkpt lat="46.92413" lon="5.09061">
        <ele>175.2002</ele>
        <time>2026-05-14T14:32:29+02:00</time>
      </trkpt>
      <trkpt lat="46.92418" lon="5.09067">
        <ele>175.2002</ele>
        <time>2026-05-14T14:32:30+02:00</time>
      </trkpt>
      <trkpt lat="46.92424" lon="5.09072">
        <ele>175.2002</ele>
        <time>2026-05-14T14:32:31+02:00</time>
      </trkpt>
      <trkpt lat="46.92429" lon="5.09077">
        <ele>175.2002</ele>
        <time>2026-05-14T14:32:32+02:00</time>
      </trkpt>
      <trkpt lat="46.92435" lon="5.09082">
        <ele>175.2998</ele>
        <time>2026-05-14T14:32:33+02:00</time>
      </trkpt>
      <trkpt lat="46.92441" lon="5.09087">
        <ele>175.2998</ele>
        <time>2026-05-14T14:32:34+02:00</time>
      </trkpt>
      <trkpt lat="46.92446" lon="5.09093">
        <ele>175.2998</ele>
        <time>2026-05-14T14:32:35+02:00</time>
      </trkpt>
      <trkpt lat="46.92452" lon="5.09098">
        <ele>175.40039</ele>
        <time>2026-05-14T14:32:36+02:00</time>
      </trkpt>
      <trkpt lat="46.92457" lon="5.09103">
        <ele>175.40039</ele>
        <time>2026-05-14T14:32:37+02:00</time>
      </trkpt>
      <trkpt lat="46.92463" lon="5.09107">
        <ele>175.5</ele>
        <time>2026-05-14T14:32:38+02:00</time>
      </trkpt>
      <trkpt lat="46.92469" lon="5.09112">
        <ele>175.5</ele>
        <time>2026-05-14T14:32:39+02:00</time>
      </trkpt>
      <trkpt lat="46.92474" lon="5.09116">
        <ele>175.60059</ele>
        <time>2026-05-14T14:32:40+02:00</time>
      </trkpt>
      <trkpt lat="46.9248" lon="5.09121">
        <ele>175.60059</ele>
        <time>2026-05-14T14:32:41+02:00</time>
      </trkpt>
      <trkpt lat="46.92486" lon="5.09125">
        <ele>175.7002</ele>
        <time>2026-05-14T14:32:42+02:00</time>
      </trkpt>
      <trkpt lat="46.92492" lon="5.09129">
        <ele>175.7002</ele>
        <time>2026-05-14T14:32:43+02:00</time>
      </trkpt>
      <trkpt lat="46.92498" lon="5.09133">
        <ele>175.7998</ele>
        <time>2026-05-14T14:32:44+02:00</time>
      </trkpt>
      <trkpt lat="46.92503" lon="5.09138">
        <ele>175.7002</ele>
        <time>2026-05-14T14:32:45+02:00</time>
      </trkpt>
      <trkpt lat="46.92509" lon="5.09142">
        <ele>175.7998</ele>
        <time>2026-05-14T14:32:46+02:00</time>
      </trkpt>
      <trkpt lat="46.92515" lon="5.09146">
        <ele>175.7002</ele>
        <time>2026-05-14T14:32:47+02:00</time>
      </trkpt>
      <trkpt lat="46.92521" lon="5.0915">
        <ele>175.7002</ele>
        <time>2026-05-14T14:32:48+02:00</time>
      </trkpt>
      <trkpt lat="46.92527" lon="5.09153">
        <ele>175.7002</ele>
        <time>2026-05-14T14:32:49+02:00</time>
      </trkpt>
      <trkpt lat="46.92533" lon="5.09157">
        <ele>175.60059</ele>
        <time>2026-05-14T14:32:50+02:00</time>
      </trkpt>
      <trkpt lat="46.92539" lon="5.09161">
        <ele>175.60059</ele>
        <time>2026-05-14T14:32:51+02:00</time>
      </trkpt>
      <trkpt lat="46.92545" lon="5.09164">
        <ele>175.5</ele>
        <time>2026-05-14T14:32:52+02:00</time>
      </trkpt>
      <trkpt lat="46.92551" lon="5.09168">
        <ele>175.40039</ele>
        <time>2026-05-14T14:32:53+02:00</time>
      </trkpt>
      <trkpt lat="46.92557" lon="5.09171">
        <ele>175.40039</ele>
        <time>2026-05-14T14:32:54+02:00</time>
      </trkpt>
      <trkpt lat="46.92564" lon="5.09175">
        <ele>175.2998</ele>
        <time>2026-05-14T14:32:55+02:00</time>
      </trkpt>
      <trkpt lat="46.9257" lon="5.09178">
        <ele>175.2998</ele>
        <time>2026-05-14T14:32:56+02:00</time>
      </trkpt>
      <trkpt lat="46.92577" lon="5.09181">
        <ele>175.2002</ele>
        <time>2026-05-14T14:32:57+02:00</time>
      </trkpt>
      <trkpt lat="46.92584" lon="5.09184">
        <ele>175.2002</ele>
        <time>2026-05-14T14:32:58+02:00</time>
      </trkpt>
      <trkpt lat="46.9259" lon="5.09188">
        <ele>175.2002</ele>
        <time>2026-05-14T14:32:59+02:00</time>
      </trkpt>
      <trkpt lat="46.92597" lon="5.09191">
        <ele>175.2002</ele>
        <time>2026-05-14T14:33:00+02:00</time>
      </trkpt>
      <trkpt lat="46.92604" lon="5.09195">
        <ele>175.2002</ele>
        <time>2026-05-14T14:33:01+02:00</time>
      </trkpt>
      <trkpt lat="46.92611" lon="5.09198">
        <ele>175.2998</ele>
        <time>2026-05-14T14:33:02+02:00</time>
      </trkpt>
      <trkpt lat="46.92618" lon="5.09202">
        <ele>175.2998</ele>
        <time>2026-05-14T14:33:03+02:00</time>
      </trkpt>
      <trkpt lat="46.92624" lon="5.09205">
        <ele>175.40039</ele>
        <time>2026-05-14T14:33:04+02:00</time>
      </trkpt>
      <trkpt lat="46.92631" lon="5.09209">
        <ele>175.5</ele>
        <time>2026-05-14T14:33:05+02:00</time>
      </trkpt>
      <trkpt lat="46.92638" lon="5.09212">
        <ele>175.5</ele>
        <time>2026-05-14T14:33:06+02:00</time>
      </trkpt>
      <trkpt lat="46.92644" lon="5.09216">
        <ele>175.60059</ele>
        <time>2026-05-14T14:33:07+02:00</time>
      </trkpt>
      <trkpt lat="46.92651" lon="5.09219">
        <ele>175.7002</ele>
        <time>2026-05-14T14:33:08+02:00</time>
      </trkpt>
      <trkpt lat="46.92657" lon="5.09224">
        <ele>175.7998</ele>
        <time>2026-05-14T14:33:09+02:00</time>
      </trkpt>
      <trkpt lat="46.92664" lon="5.09228">
        <ele>175.90039</ele>
        <time>2026-05-14T14:33:10+02:00</time>
      </trkpt>
      <trkpt lat="46.9267" lon="5.09232">
        <ele>176</ele>
        <time>2026-05-14T14:33:11+02:00</time>
      </trkpt>
      <trkpt lat="46.92676" lon="5.09237">
        <ele>176.10059</ele>
        <time>2026-05-14T14:33:12+02:00</time>
      </trkpt>
      <trkpt lat="46.92682" lon="5.09241">
        <ele>176.2002</ele>
        <time>2026-05-14T14:33:13+02:00</time>
      </trkpt>
      <trkpt lat="46.92689" lon="5.09246">
        <ele>176.40039</ele>
        <time>2026-05-14T14:33:14+02:00</time>
      </trkpt>
      <trkpt lat="46.92695" lon="5.09252">
        <ele>176.40039</ele>
        <time>2026-05-14T14:33:15+02:00</time>
      </trkpt>
      <trkpt lat="46.92701" lon="5.09257">
        <ele>176.5</ele>
        <time>2026-05-14T14:33:16+02:00</time>
      </trkpt>
      <trkpt lat="46.92707" lon="5.09262">
        <ele>176.60059</ele>
        <time>2026-05-14T14:33:17+02:00</time>
      </trkpt>
      <trkpt lat="46.92713" lon="5.09268">
        <ele>176.60059</ele>
        <time>2026-05-14T14:33:18+02:00</time>
      </trkpt>
      <trkpt lat="46.92719" lon="5.09274">
        <ele>176.60059</ele>
        <time>2026-05-14T14:33:19+02:00</time>
      </trkpt>
      <trkpt lat="46.92725" lon="5.09279">
        <ele>176.60059</ele>
        <time>2026-05-14T14:33:20+02:00</time>
      </trkpt>
      <trkpt lat="46.9273" lon="5.09285">
        <ele>176.5</ele>
        <time>2026-05-14T14:33:21+02:00</time>
      </trkpt>
      <trkpt lat="46.92737" lon="5.09291">
        <ele>176.60059</ele>
        <time>2026-05-14T14:33:22+02:00</time>
      </trkpt>
      <trkpt lat="46.92743" lon="5.09297">
        <ele>176.5</ele>
        <time>2026-05-14T14:33:23+02:00</time>
      </trkpt>
      <trkpt lat="46.92749" lon="5.09303">
        <ele>176.40039</ele>
        <time>2026-05-14T14:33:24+02:00</time>
      </trkpt>
      <trkpt lat="46.92754" lon="5.09309">
        <ele>176.5</ele>
        <time>2026-05-14T14:33:25+02:00</time>
      </trkpt>
      <trkpt lat="46.92761" lon="5.09314">
        <ele>176.40039</ele>
        <time>2026-05-14T14:33:26+02:00</time>
      </trkpt>
      <trkpt lat="46.92767" lon="5.09319">
        <ele>176.5</ele>
        <time>2026-05-14T14:33:27+02:00</time>
      </trkpt>
      <trkpt lat="46.92773" lon="5.09325">
        <ele>176.5</ele>
        <time>2026-05-14T14:33:28+02:00</time>
      </trkpt>
      <trkpt lat="46.92779" lon="5.0933">
        <ele>176.40039</ele>
        <time>2026-05-14T14:33:29+02:00</time>
      </trkpt>
      <trkpt lat="46.92785" lon="5.09335">
        <ele>176.5</ele>
        <time>2026-05-14T14:33:30+02:00</time>
      </trkpt>
      <trkpt lat="46.92792" lon="5.09339">
        <ele>176.5</ele>
        <time>2026-05-14T14:33:31+02:00</time>
      </trkpt>
      <trkpt lat="46.92798" lon="5.09343">
        <ele>176.60059</ele>
        <time>2026-05-14T14:33:32+02:00</time>
      </trkpt>
      <trkpt lat="46.92805" lon="5.09347">
        <ele>176.5</ele>
        <time>2026-05-14T14:33:33+02:00</time>
      </trkpt>
      <trkpt lat="46.92811" lon="5.0935">
        <ele>176.60059</ele>
        <time>2026-05-14T14:33:34+02:00</time>
      </trkpt>
      <trkpt lat="46.92818" lon="5.09353">
        <ele>176.60059</ele>
        <time>2026-05-14T14:33:35+02:00</time>
      </trkpt>
      <trkpt lat="46.92825" lon="5.09356">
        <ele>176.60059</ele>
        <time>2026-05-14T14:33:36+02:00</time>
      </trkpt>
      <trkpt lat="46.92832" lon="5.09359">
        <ele>176.5</ele>
        <time>2026-05-14T14:33:37+02:00</time>
      </trkpt>
      <trkpt lat="46.92838" lon="5.09362">
        <ele>176.5</ele>
        <time>2026-05-14T14:33:38+02:00</time>
      </trkpt>
      <trkpt lat="46.92845" lon="5.09364">
        <ele>176.40039</ele>
        <time>2026-05-14T14:33:39+02:00</time>
      </trkpt>
      <trkpt lat="46.92852" lon="5.09367">
        <ele>176.2998</ele>
        <time>2026-05-14T14:33:40+02:00</time>
      </trkpt>
      <trkpt lat="46.92859" lon="5.0937">
        <ele>176.10059</ele>
        <time>2026-05-14T14:33:41+02:00</time>
      </trkpt>
      <trkpt lat="46.92866" lon="5.09372">
        <ele>175.90039</ele>
        <time>2026-05-14T14:33:42+02:00</time>
      </trkpt>
      <trkpt lat="46.92872" lon="5.09375">
        <ele>175.7998</ele>
        <time>2026-05-14T14:33:43+02:00</time>
      </trkpt>
      <trkpt lat="46.92879" lon="5.09378">
        <ele>175.7002</ele>
        <time>2026-05-14T14:33:44+02:00</time>
      </trkpt>
      <trkpt lat="46.92886" lon="5.09381">
        <ele>175.60059</ele>
        <time>2026-05-14T14:33:45+02:00</time>
      </trkpt>
      <trkpt lat="46.92893" lon="5.09383">
        <ele>175.5</ele>
        <time>2026-05-14T14:33:46+02:00</time>
      </trkpt>
      <trkpt lat="46.92899" lon="5.09385">
        <ele>175.5</ele>
        <time>2026-05-14T14:33:47+02:00</time>
      </trkpt>
      <trkpt lat="46.92906" lon="5.09388">
        <ele>175.40039</ele>
        <time>2026-05-14T14:33:48+02:00</time>
      </trkpt>
      <trkpt lat="46.92912" lon="5.0939">
        <ele>175.40039</ele>
        <time>2026-05-14T14:33:49+02:00</time>
      </trkpt>
      <trkpt lat="46.92919" lon="5.09392">
        <ele>175.40039</ele>
        <time>2026-05-14T14:33:50+02:00</time>
      </trkpt>
      <trkpt lat="46.92926" lon="5.09395">
        <ele>175.40039</ele>
        <time>2026-05-14T14:33:51+02:00</time>
      </trkpt>
      <trkpt lat="46.92932" lon="5.09397">
        <ele>175.5</ele>
        <time>2026-05-14T14:33:52+02:00</time>
      </trkpt>
      <trkpt lat="46.92939" lon="5.094">
        <ele>175.5</ele>
        <time>2026-05-14T14:33:53+02:00</time>
      </trkpt>
      <trkpt lat="46.92946" lon="5.09402">
        <ele>175.7002</ele>
        <time>2026-05-14T14:33:54+02:00</time>
      </trkpt>
      <trkpt lat="46.92952" lon="5.09405">
        <ele>175.7998</ele>
        <time>2026-05-14T14:33:55+02:00</time>
      </trkpt>
      <trkpt lat="46.92959" lon="5.09407">
        <ele>175.7998</ele>
        <time>2026-05-14T14:33:56+02:00</time>
      </trkpt>
      <trkpt lat="46.92966" lon="5.0941">
        <ele>175.90039</ele>
        <time>2026-05-14T14:33:57+02:00</time>
      </trkpt>
      <trkpt lat="46.92973" lon="5.09412">
        <ele>176</ele>
        <time>2026-05-14T14:33:58+02:00</time>
      </trkpt>
      <trkpt lat="46.9298" lon="5.09415">
        <ele>176</ele>
        <time>2026-05-14T14:33:59+02:00</time>
      </trkpt>
      <trkpt lat="46.92986" lon="5.09417">
        <ele>176.10059</ele>
        <time>2026-05-14T14:34:00+02:00</time>
      </trkpt>
      <trkpt lat="46.92993" lon="5.09419">
        <ele>176.2002</ele>
        <time>2026-05-14T14:34:01+02:00</time>
      </trkpt>
      <trkpt lat="46.92999" lon="5.09422">
        <ele>176.2002</ele>
        <time>2026-05-14T14:34:02+02:00</time>
      </trkpt>
      <trkpt lat="46.93006" lon="5.09424">
        <ele>176.2998</ele>
        <time>2026-05-14T14:34:03+02:00</time>
      </trkpt>
      <trkpt lat="46.93013" lon="5.09426">
        <ele>176.2998</ele>
        <time>2026-05-14T14:34:04+02:00</time>
      </trkpt>
      <trkpt lat="46.93019" lon="5.09428">
        <ele>176.40039</ele>
        <time>2026-05-14T14:34:05+02:00</time>
      </trkpt>
      <trkpt lat="46.93026" lon="5.0943">
        <ele>176.5</ele>
        <time>2026-05-14T14:34:06+02:00</time>
      </trkpt>
      <trkpt lat="46.93033" lon="5.09433">
        <ele>176.5</ele>
        <time>2026-05-14T14:34:07+02:00</time>
      </trkpt>
      <trkpt lat="46.93039" lon="5.09434">
        <ele>176.5</ele>
        <time>2026-05-14T14:34:08+02:00</time>
      </trkpt>
      <trkpt lat="46.93046" lon="5.09436">
        <ele>176.60059</ele>
        <time>2026-05-14T14:34:09+02:00</time>
      </trkpt>
      <trkpt lat="46.93052" lon="5.09438">
        <ele>176.7002</ele>
        <time>2026-05-14T14:34:10+02:00</time>
      </trkpt>
      <trkpt lat="46.93059" lon="5.09439">
        <ele>176.7002</ele>
        <time>2026-05-14T14:34:11+02:00</time>
      </trkpt>
      <trkpt lat="46.93065" lon="5.09441">
        <ele>176.60059</ele>
        <time>2026-05-14T14:34:12+02:00</time>
      </trkpt>
      <trkpt lat="46.93071" lon="5.09442">
        <ele>176.7002</ele>
        <time>2026-05-14T14:34:13+02:00</time>
      </trkpt>
      <trkpt lat="46.93078" lon="5.09442">
        <ele>176.60059</ele>
        <time>2026-05-14T14:34:14+02:00</time>
      </trkpt>
      <trkpt lat="46.93084" lon="5.09443">
        <ele>176.60059</ele>
        <time>2026-05-14T14:34:15+02:00</time>
      </trkpt>
      <trkpt lat="46.9309" lon="5.09443">
        <ele>176.60059</ele>
        <time>2026-05-14T14:34:16+02:00</time>
      </trkpt>
      <trkpt lat="46.93096" lon="5.09444">
        <ele>176.60059</ele>
        <time>2026-05-14T14:34:17+02:00</time>
      </trkpt>
      <trkpt lat="46.93102" lon="5.09443">
        <ele>176.5</ele>
        <time>2026-05-14T14:34:18+02:00</time>
      </trkpt>
      <trkpt lat="46.93108" lon="5.09443">
        <ele>176.40039</ele>
        <time>2026-05-14T14:34:19+02:00</time>
      </trkpt>
      <trkpt lat="46.93115" lon="5.09443">
        <ele>176.40039</ele>
        <time>2026-05-14T14:34:20+02:00</time>
      </trkpt>
      <trkpt lat="46.93121" lon="5.09442">
        <ele>176.2998</ele>
        <time>2026-05-14T14:34:21+02:00</time>
      </trkpt>
      <trkpt lat="46.93127" lon="5.09442">
        <ele>176.2002</ele>
        <time>2026-05-14T14:34:22+02:00</time>
      </trkpt>
      <trkpt lat="46.93133" lon="5.09441">
        <ele>176.2002</ele>
        <time>2026-05-14T14:34:23+02:00</time>
      </trkpt>
      <trkpt lat="46.93139" lon="5.0944">
        <ele>176.10059</ele>
        <time>2026-05-14T14:34:24+02:00</time>
      </trkpt>
      <trkpt lat="46.93145" lon="5.09439">
        <ele>176.10059</ele>
        <time>2026-05-14T14:34:25+02:00</time>
      </trkpt>
      <trkpt lat="46.93152" lon="5.09439">
        <ele>176</ele>
        <time>2026-05-14T14:34:26+02:00</time>
      </trkpt>
      <trkpt lat="46.93158" lon="5.09438">
        <ele>176</ele>
        <time>2026-05-14T14:34:27+02:00</time>
      </trkpt>
      <trkpt lat="46.93164" lon="5.09437">
        <ele>176</ele>
        <time>2026-05-14T14:34:28+02:00</time>
      </trkpt>
      <trkpt lat="46.9317" lon="5.09437">
        <ele>176</ele>
        <time>2026-05-14T14:34:29+02:00</time>
      </trkpt>
      <trkpt lat="46.93177" lon="5.09436">
        <ele>176</ele>
        <time>2026-05-14T14:34:30+02:00</time>
      </trkpt>
      <trkpt lat="46.93183" lon="5.09435">
        <ele>176</ele>
        <time>2026-05-14T14:34:31+02:00</time>
      </trkpt>
      <trkpt lat="46.93189" lon="5.09434">
        <ele>176</ele>
        <time>2026-05-14T14:34:32+02:00</time>
      </trkpt>
      <trkpt lat="46.93196" lon="5.09433">
        <ele>176</ele>
        <time>2026-05-14T14:34:33+02:00</time>
      </trkpt>
      <trkpt lat="46.93202" lon="5.09432">
        <ele>176</ele>
        <time>2026-05-14T14:34:34+02:00</time>
      </trkpt>
      <trkpt lat="46.93208" lon="5.09432">
        <ele>176</ele>
        <time>2026-05-14T14:34:35+02:00</time>
      </trkpt>
      <trkpt lat="46.93215" lon="5.09431">
        <ele>176</ele>
        <time>2026-05-14T14:34:36+02:00</time>
      </trkpt>
      <trkpt lat="46.93221" lon="5.0943">
        <ele>176.10059</ele>
        <time>2026-05-14T14:34:37+02:00</time>
      </trkpt>
      <trkpt lat="46.93227" lon="5.0943">
        <ele>176.10059</ele>
        <time>2026-05-14T14:34:38+02:00</time>
      </trkpt>
      <trkpt lat="46.93233" lon="5.0943">
        <ele>176.10059</ele>
        <time>2026-05-14T14:34:39+02:00</time>
      </trkpt>
      <trkpt lat="46.93239" lon="5.09429">
        <ele>176.10059</ele>
        <time>2026-05-14T14:34:40+02:00</time>
      </trkpt>
      <trkpt lat="46.93245" lon="5.09428">
        <ele>176.10059</ele>
        <time>2026-05-14T14:34:41+02:00</time>
      </trkpt>
      <trkpt lat="46.9325" lon="5.09428">
        <ele>176.10059</ele>
        <time>2026-05-14T14:34:42+02:00</time>
      </trkpt>
      <trkpt lat="46.93256" lon="5.09427">
        <ele>176</ele>
        <time>2026-05-14T14:34:43+02:00</time>
      </trkpt>
      <trkpt lat="46.93262" lon="5.09427">
        <ele>176</ele>
        <time>2026-05-14T14:34:44+02:00</time>
      </trkpt>
      <trkpt lat="46.93268" lon="5.09426">
        <ele>176</ele>
        <time>2026-05-14T14:34:45+02:00</time>
      </trkpt>
      <trkpt lat="46.93274" lon="5.09425">
        <ele>175.90039</ele>
        <time>2026-05-14T14:34:46+02:00</time>
      </trkpt>
      <trkpt lat="46.9328" lon="5.09425">
        <ele>175.7998</ele>
        <time>2026-05-14T14:34:47+02:00</time>
      </trkpt>
      <trkpt lat="46.93286" lon="5.09424">
        <ele>175.7002</ele>
        <time>2026-05-14T14:34:48+02:00</time>
      </trkpt>
      <trkpt lat="46.93292" lon="5.09424">
        <ele>175.7002</ele>
        <time>2026-05-14T14:34:49+02:00</time>
      </trkpt>
      <trkpt lat="46.93298" lon="5.09423">
        <ele>175.60059</ele>
        <time>2026-05-14T14:34:50+02:00</time>
      </trkpt>
      <trkpt lat="46.93303" lon="5.09422">
        <ele>175.60059</ele>
        <time>2026-05-14T14:34:51+02:00</time>
      </trkpt>
      <trkpt lat="46.9331" lon="5.09421">
        <ele>175.5</ele>
        <time>2026-05-14T14:34:52+02:00</time>
      </trkpt>
      <trkpt lat="46.93315" lon="5.0942">
        <ele>175.5</ele>
        <time>2026-05-14T14:34:53+02:00</time>
      </trkpt>
      <trkpt lat="46.93321" lon="5.09419">
        <ele>175.5</ele>
        <time>2026-05-14T14:34:54+02:00</time>
      </trkpt>
      <trkpt lat="46.93327" lon="5.09418">
        <ele>175.40039</ele>
        <time>2026-05-14T14:34:55+02:00</time>
      </trkpt>
      <trkpt lat="46.93333" lon="5.09416">
        <ele>175.40039</ele>
        <time>2026-05-14T14:34:56+02:00</time>
      </trkpt>
      <trkpt lat="46.93339" lon="5.09415">
        <ele>175.5</ele>
        <time>2026-05-14T14:34:57+02:00</time>
      </trkpt>
      <trkpt lat="46.93345" lon="5.09413">
        <ele>175.40039</ele>
        <time>2026-05-14T14:34:58+02:00</time>
      </trkpt>
      <trkpt lat="46.93351" lon="5.09411">
        <ele>175.5</ele>
        <time>2026-05-14T14:34:59+02:00</time>
      </trkpt>
      <trkpt lat="46.93357" lon="5.09409">
        <ele>175.5</ele>
        <time>2026-05-14T14:35:00+02:00</time>
      </trkpt>
      <trkpt lat="46.93363" lon="5.09407">
        <ele>175.60059</ele>
        <time>2026-05-14T14:35:01+02:00</time>
      </trkpt>
      <trkpt lat="46.93369" lon="5.09406">
        <ele>175.60059</ele>
        <time>2026-05-14T14:35:02+02:00</time>
      </trkpt>
      <trkpt lat="46.93375" lon="5.09404">
        <ele>175.60059</ele>
        <time>2026-05-14T14:35:03+02:00</time>
      </trkpt>
      <trkpt lat="46.93381" lon="5.09403">
        <ele>175.7002</ele>
        <time>2026-05-14T14:35:04+02:00</time>
      </trkpt>
      <trkpt lat="46.93387" lon="5.09401">
        <ele>175.7002</ele>
        <time>2026-05-14T14:35:05+02:00</time>
      </trkpt>
      <trkpt lat="46.93393" lon="5.094">
        <ele>175.7998</ele>
        <time>2026-05-14T14:35:06+02:00</time>
      </trkpt>
      <trkpt lat="46.934" lon="5.09399">
        <ele>175.7998</ele>
        <time>2026-05-14T14:35:07+02:00</time>
      </trkpt>
      <trkpt lat="46.93406" lon="5.09398">
        <ele>175.90039</ele>
        <time>2026-05-14T14:35:08+02:00</time>
      </trkpt>
      <trkpt lat="46.93412" lon="5.09397">
        <ele>175.90039</ele>
        <time>2026-05-14T14:35:09+02:00</time>
      </trkpt>
      <trkpt lat="46.93418" lon="5.09396">
        <ele>175.7998</ele>
        <time>2026-05-14T14:35:10+02:00</time>
      </trkpt>
      <trkpt lat="46.93424" lon="5.09396">
        <ele>175.90039</ele>
        <time>2026-05-14T14:35:11+02:00</time>
      </trkpt>
      <trkpt lat="46.9343" lon="5.09395">
        <ele>175.90039</ele>
        <time>2026-05-14T14:35:12+02:00</time>
      </trkpt>
      <trkpt lat="46.93437" lon="5.09395">
        <ele>175.90039</ele>
        <time>2026-05-14T14:35:13+02:00</time>
      </trkpt>
      <trkpt lat="46.93443" lon="5.09394">
        <ele>175.90039</ele>
        <time>2026-05-14T14:35:14+02:00</time>
      </trkpt>
      <trkpt lat="46.93449" lon="5.09394">
        <ele>176</ele>
        <time>2026-05-14T14:35:15+02:00</time>
      </trkpt>
      <trkpt lat="46.93455" lon="5.09394">
        <ele>176</ele>
        <time>2026-05-14T14:35:16+02:00</time>
      </trkpt>
      <trkpt lat="46.93461" lon="5.09395">
        <ele>176</ele>
        <time>2026-05-14T14:35:17+02:00</time>
      </trkpt>
      <trkpt lat="46.93467" lon="5.09395">
        <ele>176</ele>
        <time>2026-05-14T14:35:18+02:00</time>
      </trkpt>
      <trkpt lat="46.93473" lon="5.09396">
        <ele>176</ele>
        <time>2026-05-14T14:35:19+02:00</time>
      </trkpt>
      <trkpt lat="46.93479" lon="5.09398">
        <ele>176.10059</ele>
        <time>2026-05-14T14:35:20+02:00</time>
      </trkpt>
      <trkpt lat="46.93485" lon="5.09399">
        <ele>176.10059</ele>
        <time>2026-05-14T14:35:21+02:00</time>
      </trkpt>
      <trkpt lat="46.93491" lon="5.09401">
        <ele>176.2998</ele>
        <time>2026-05-14T14:35:22+02:00</time>
      </trkpt>
      <trkpt lat="46.93497" lon="5.09403">
        <ele>176.2998</ele>
        <time>2026-05-14T14:35:23+02:00</time>
      </trkpt>
      <trkpt lat="46.93503" lon="5.09406">
        <ele>176.40039</ele>
        <time>2026-05-14T14:35:24+02:00</time>
      </trkpt>
      <trkpt lat="46.93509" lon="5.09409">
        <ele>176.5</ele>
        <time>2026-05-14T14:35:25+02:00</time>
      </trkpt>
      <trkpt lat="46.93515" lon="5.09412">
        <ele>176.60059</ele>
        <time>2026-05-14T14:35:26+02:00</time>
      </trkpt>
      <trkpt lat="46.9352" lon="5.09415">
        <ele>176.5</ele>
        <time>2026-05-14T14:35:27+02:00</time>
      </trkpt>
      <trkpt lat="46.93527" lon="5.09418">
        <ele>176.7002</ele>
        <time>2026-05-14T14:35:28+02:00</time>
      </trkpt>
      <trkpt lat="46.93532" lon="5.09421">
        <ele>176.7998</ele>
        <time>2026-05-14T14:35:29+02:00</time>
      </trkpt>
      <trkpt lat="46.93538" lon="5.09424">
        <ele>176.7998</ele>
        <time>2026-05-14T14:35:30+02:00</time>
      </trkpt>
      <trkpt lat="46.93545" lon="5.09427">
        <ele>176.90039</ele>
        <time>2026-05-14T14:35:31+02:00</time>
      </trkpt>
      <trkpt lat="46.9355" lon="5.0943">
        <ele>177</ele>
        <time>2026-05-14T14:35:32+02:00</time>
      </trkpt>
      <trkpt lat="46.93556" lon="5.09433">
        <ele>177</ele>
        <time>2026-05-14T14:35:33+02:00</time>
      </trkpt>
      <trkpt lat="46.93562" lon="5.09436">
        <ele>177.10059</ele>
        <time>2026-05-14T14:35:34+02:00</time>
      </trkpt>
      <trkpt lat="46.93568" lon="5.09439">
        <ele>177.2002</ele>
        <time>2026-05-14T14:35:35+02:00</time>
      </trkpt>
      <trkpt lat="46.93574" lon="5.09442">
        <ele>177.10059</ele>
        <time>2026-05-14T14:35:36+02:00</time>
      </trkpt>
      <trkpt lat="46.9358" lon="5.09445">
        <ele>177.2998</ele>
        <time>2026-05-14T14:35:37+02:00</time>
      </trkpt>
      <trkpt lat="46.93586" lon="5.09449">
        <ele>177.2002</ele>
        <time>2026-05-14T14:35:38+02:00</time>
      </trkpt>
      <trkpt lat="46.93593" lon="5.09451">
        <ele>177.2998</ele>
        <time>2026-05-14T14:35:39+02:00</time>
      </trkpt>
      <trkpt lat="46.93599" lon="5.09454">
        <ele>177.40039</ele>
        <time>2026-05-14T14:35:40+02:00</time>
      </trkpt>
      <trkpt lat="46.93605" lon="5.09457">
        <ele>177.40039</ele>
        <time>2026-05-14T14:35:41+02:00</time>
      </trkpt>
      <trkpt lat="46.93611" lon="5.0946">
        <ele>177.5</ele>
        <time>2026-05-14T14:35:42+02:00</time>
      </trkpt>
      <trkpt lat="46.93617" lon="5.09464">
        <ele>177.60059</ele>
        <time>2026-05-14T14:35:43+02:00</time>
      </trkpt>
      <trkpt lat="46.93623" lon="5.09467">
        <ele>177.60059</ele>
        <time>2026-05-14T14:35:44+02:00</time>
      </trkpt>
      <trkpt lat="46.93628" lon="5.0947">
        <ele>177.7002</ele>
        <time>2026-05-14T14:35:45+02:00</time>
      </trkpt>
      <trkpt lat="46.93635" lon="5.09473">
        <ele>177.7998</ele>
        <time>2026-05-14T14:35:46+02:00</time>
      </trkpt>
      <trkpt lat="46.93641" lon="5.09476">
        <ele>177.7998</ele>
        <time>2026-05-14T14:35:47+02:00</time>
      </trkpt>
      <trkpt lat="46.93647" lon="5.0948">
        <ele>177.90039</ele>
        <time>2026-05-14T14:35:48+02:00</time>
      </trkpt>
      <trkpt lat="46.93652" lon="5.09483">
        <ele>177.90039</ele>
        <time>2026-05-14T14:35:49+02:00</time>
      </trkpt>
      <trkpt lat="46.93659" lon="5.09486">
        <ele>178</ele>
        <time>2026-05-14T14:35:50+02:00</time>
      </trkpt>
      <trkpt lat="46.93665" lon="5.09489">
        <ele>178.10059</ele>
        <time>2026-05-14T14:35:51+02:00</time>
      </trkpt>
      <trkpt lat="46.9367" lon="5.09492">
        <ele>178.10059</ele>
        <time>2026-05-14T14:35:52+02:00</time>
      </trkpt>
      <trkpt lat="46.93677" lon="5.09494">
        <ele>178.2998</ele>
        <time>2026-05-14T14:35:53+02:00</time>
      </trkpt>
      <trkpt lat="46.93683" lon="5.09495">
        <ele>178.40039</ele>
        <time>2026-05-14T14:35:54+02:00</time>
      </trkpt>
      <trkpt lat="46.93689" lon="5.09495">
        <ele>178.60059</ele>
        <time>2026-05-14T14:35:55+02:00</time>
      </trkpt>
      <trkpt lat="46.93695" lon="5.09494">
        <ele>178.7998</ele>
        <time>2026-05-14T14:35:56+02:00</time>
      </trkpt>
      <trkpt lat="46.93701" lon="5.09493">
        <ele>179</ele>
        <time>2026-05-14T14:35:57+02:00</time>
      </trkpt>
      <trkpt lat="46.93706" lon="5.0949">
        <ele>179.2998</ele>
        <time>2026-05-14T14:35:58+02:00</time>
      </trkpt>
      <trkpt lat="46.93711" lon="5.09486">
        <ele>179.5</ele>
        <time>2026-05-14T14:35:59+02:00</time>
      </trkpt>
      <trkpt lat="46.93716" lon="5.09481">
        <ele>179.7998</ele>
        <time>2026-05-14T14:36:00+02:00</time>
      </trkpt>
      <trkpt lat="46.9372" lon="5.09476">
        <ele>180</ele>
        <time>2026-05-14T14:36:01+02:00</time>
      </trkpt>
      <trkpt lat="46.93725" lon="5.09471">
        <ele>180</ele>
        <time>2026-05-14T14:36:02+02:00</time>
      </trkpt>
      <trkpt lat="46.93729" lon="5.09465">
        <ele>180.2998</ele>
        <time>2026-05-14T14:36:03+02:00</time>
      </trkpt>
      <trkpt lat="46.93734" lon="5.09459">
        <ele>180.5</ele>
        <time>2026-05-14T14:36:04+02:00</time>
      </trkpt>
      <trkpt lat="46.93738" lon="5.09453">
        <ele>180.7002</ele>
        <time>2026-05-14T14:36:05+02:00</time>
      </trkpt>
      <trkpt lat="46.93743" lon="5.09447">
        <ele>180.90039</ele>
        <time>2026-05-14T14:36:06+02:00</time>
      </trkpt>
      <trkpt lat="46.93748" lon="5.09441">
        <ele>180.90039</ele>
        <time>2026-05-14T14:36:07+02:00</time>
      </trkpt>
      <trkpt lat="46.93753" lon="5.09436">
        <ele>181.10059</ele>
        <time>2026-05-14T14:36:08+02:00</time>
      </trkpt>
      <trkpt lat="46.93758" lon="5.09431">
        <ele>181.2002</ele>
        <time>2026-05-14T14:36:09+02:00</time>
      </trkpt>
      <trkpt lat="46.93763" lon="5.09426">
        <ele>181.40039</ele>
        <time>2026-05-14T14:36:10+02:00</time>
      </trkpt>
      <trkpt lat="46.93768" lon="5.09422">
        <ele>181.5</ele>
        <time>2026-05-14T14:36:11+02:00</time>
      </trkpt>
      <trkpt lat="46.93774" lon="5.09419">
        <ele>181.60059</ele>
        <time>2026-05-14T14:36:12+02:00</time>
      </trkpt>
      <trkpt lat="46.9378" lon="5.09417">
        <ele>181.60059</ele>
        <time>2026-05-14T14:36:13+02:00</time>
      </trkpt>
      <trkpt lat="46.93786" lon="5.09416">
        <ele>181.7002</ele>
        <time>2026-05-14T14:36:14+02:00</time>
      </trkpt>
      <trkpt lat="46.93792" lon="5.09417">
        <ele>181.7002</ele>
        <time>2026-05-14T14:36:15+02:00</time>
      </trkpt>
      <trkpt lat="46.93797" lon="5.0942">
        <ele>181.7998</ele>
        <time>2026-05-14T14:36:16+02:00</time>
      </trkpt>
      <trkpt lat="46.93802" lon="5.09424">
        <ele>181.90039</ele>
        <time>2026-05-14T14:36:17+02:00</time>
      </trkpt>
      <trkpt lat="46.93808" lon="5.09428">
        <ele>181.90039</ele>
        <time>2026-05-14T14:36:18+02:00</time>
      </trkpt>
      <trkpt lat="46.93813" lon="5.09432">
        <ele>181.90039</ele>
        <time>2026-05-14T14:36:19+02:00</time>
      </trkpt>
      <trkpt lat="46.93817" lon="5.09437">
        <ele>182</ele>
        <time>2026-05-14T14:36:20+02:00</time>
      </trkpt>
      <trkpt lat="46.93822" lon="5.09442">
        <ele>182.10059</ele>
        <time>2026-05-14T14:36:21+02:00</time>
      </trkpt>
      <trkpt lat="46.93826" lon="5.09448">
        <ele>182.10059</ele>
        <time>2026-05-14T14:36:22+02:00</time>
      </trkpt>
      <trkpt lat="46.93831" lon="5.09453">
        <ele>182.2002</ele>
        <time>2026-05-14T14:36:23+02:00</time>
      </trkpt>
      <trkpt lat="46.93836" lon="5.09459">
        <ele>182.2002</ele>
        <time>2026-05-14T14:36:24+02:00</time>
      </trkpt>
      <trkpt lat="46.9384" lon="5.09464">
        <ele>182.2998</ele>
        <time>2026-05-14T14:36:25+02:00</time>
      </trkpt>
      <trkpt lat="46.93845" lon="5.0947">
        <ele>182.2998</ele>
        <time>2026-05-14T14:36:26+02:00</time>
      </trkpt>
      <trkpt lat="46.93849" lon="5.09476">
        <ele>182.40039</ele>
        <time>2026-05-14T14:36:27+02:00</time>
      </trkpt>
      <trkpt lat="46.93854" lon="5.09481">
        <ele>182.40039</ele>
        <time>2026-05-14T14:36:28+02:00</time>
      </trkpt>
      <trkpt lat="46.93858" lon="5.09487">
        <ele>182.5</ele>
        <time>2026-05-14T14:36:29+02:00</time>
      </trkpt>
      <trkpt lat="46.93863" lon="5.09492">
        <ele>182.5</ele>
        <time>2026-05-14T14:36:30+02:00</time>
      </trkpt>
      <trkpt lat="46.93867" lon="5.09497">
        <ele>182.60059</ele>
        <time>2026-05-14T14:36:31+02:00</time>
      </trkpt>
      <trkpt lat="46.93871" lon="5.09502">
        <ele>182.60059</ele>
        <time>2026-05-14T14:36:32+02:00</time>
      </trkpt>
      <trkpt lat="46.93876" lon="5.09508">
        <ele>182.7002</ele>
        <time>2026-05-14T14:36:33+02:00</time>
      </trkpt>
      <trkpt lat="46.9388" lon="5.09513">
        <ele>182.7998</ele>
        <time>2026-05-14T14:36:34+02:00</time>
      </trkpt>
      <trkpt lat="46.93885" lon="5.09518">
        <ele>182.90039</ele>
        <time>2026-05-14T14:36:35+02:00</time>
      </trkpt>
      <trkpt lat="46.93889" lon="5.09523">
        <ele>182.90039</ele>
        <time>2026-05-14T14:36:36+02:00</time>
      </trkpt>
      <trkpt lat="46.93893" lon="5.09528">
        <ele>183.10059</ele>
        <time>2026-05-14T14:36:37+02:00</time>
      </trkpt>
      <trkpt lat="46.93897" lon="5.09534">
        <ele>183.2002</ele>
        <time>2026-05-14T14:36:38+02:00</time>
      </trkpt>
      <trkpt lat="46.939" lon="5.0954">
        <ele>183.2002</ele>
        <time>2026-05-14T14:36:39+02:00</time>
      </trkpt>
      <trkpt lat="46.93904" lon="5.09546">
        <ele>183.40039</ele>
        <time>2026-05-14T14:36:40+02:00</time>
      </trkpt>
      <trkpt lat="46.93908" lon="5.09553">
        <ele>183.5</ele>
        <time>2026-05-14T14:36:41+02:00</time>
      </trkpt>
      <trkpt lat="46.93911" lon="5.0956">
        <ele>183.60059</ele>
        <time>2026-05-14T14:36:42+02:00</time>
      </trkpt>
      <trkpt lat="46.93914" lon="5.09566">
        <ele>183.60059</ele>
        <time>2026-05-14T14:36:43+02:00</time>
      </trkpt>
      <trkpt lat="46.93917" lon="5.09573">
        <ele>183.7002</ele>
        <time>2026-05-14T14:36:44+02:00</time>
      </trkpt>
      <trkpt lat="46.93921" lon="5.0958">
        <ele>183.7998</ele>
        <time>2026-05-14T14:36:45+02:00</time>
      </trkpt>
      <trkpt lat="46.93924" lon="5.09586">
        <ele>183.7998</ele>
        <time>2026-05-14T14:36:46+02:00</time>
      </trkpt>
      <trkpt lat="46.93927" lon="5.09593">
        <ele>183.7998</ele>
        <time>2026-05-14T14:36:47+02:00</time>
      </trkpt>
      <trkpt lat="46.9393" lon="5.096">
        <ele>183.7998</ele>
        <time>2026-05-14T14:36:48+02:00</time>
      </trkpt>
      <trkpt lat="46.93934" lon="5.09606">
        <ele>183.7998</ele>
        <time>2026-05-14T14:36:49+02:00</time>
      </trkpt>
      <trkpt lat="46.93937" lon="5.09613">
        <ele>183.7998</ele>
        <time>2026-05-14T14:36:50+02:00</time>
      </trkpt>
      <trkpt lat="46.9394" lon="5.0962">
        <ele>183.7998</ele>
        <time>2026-05-14T14:36:51+02:00</time>
      </trkpt>
      <trkpt lat="46.93944" lon="5.09627">
        <ele>183.7998</ele>
        <time>2026-05-14T14:36:52+02:00</time>
      </trkpt>
      <trkpt lat="46.93947" lon="5.09633">
        <ele>183.7998</ele>
        <time>2026-05-14T14:36:53+02:00</time>
      </trkpt>
      <trkpt lat="46.9395" lon="5.0964">
        <ele>183.7002</ele>
        <time>2026-05-14T14:36:54+02:00</time>
      </trkpt>
      <trkpt lat="46.93954" lon="5.09647">
        <ele>183.60059</ele>
        <time>2026-05-14T14:36:55+02:00</time>
      </trkpt>
      <trkpt lat="46.93957" lon="5.09654">
        <ele>183.60059</ele>
        <time>2026-05-14T14:36:56+02:00</time>
      </trkpt>
      <trkpt lat="46.9396" lon="5.09661">
        <ele>183.60059</ele>
        <time>2026-05-14T14:36:57+02:00</time>
      </trkpt>
      <trkpt lat="46.93964" lon="5.09667">
        <ele>183.60059</ele>
        <time>2026-05-14T14:36:58+02:00</time>
      </trkpt>
      <trkpt lat="46.93967" lon="5.09674">
        <ele>183.5</ele>
        <time>2026-05-14T14:36:59+02:00</time>
      </trkpt>
      <trkpt lat="46.9397" lon="5.09681">
        <ele>183.60059</ele>
        <time>2026-05-14T14:37:00+02:00</time>
      </trkpt>
      <trkpt lat="46.93974" lon="5.09688">
        <ele>183.5</ele>
        <time>2026-05-14T14:37:01+02:00</time>
      </trkpt>
      <trkpt lat="46.93977" lon="5.09695">
        <ele>183.60059</ele>
        <time>2026-05-14T14:37:02+02:00</time>
      </trkpt>
      <trkpt lat="46.93981" lon="5.09702">
        <ele>183.60059</ele>
        <time>2026-05-14T14:37:03+02:00</time>
      </trkpt>
      <trkpt lat="46.93984" lon="5.09708">
        <ele>183.7002</ele>
        <time>2026-05-14T14:37:04+02:00</time>
      </trkpt>
      <trkpt lat="46.93987" lon="5.09715">
        <ele>183.7998</ele>
        <time>2026-05-14T14:37:05+02:00</time>
      </trkpt>
      <trkpt lat="46.93991" lon="5.09721">
        <ele>183.7998</ele>
        <time>2026-05-14T14:37:06+02:00</time>
      </trkpt>
      <trkpt lat="46.93994" lon="5.09728">
        <ele>183.90039</ele>
        <time>2026-05-14T14:37:07+02:00</time>
      </trkpt>
      <trkpt lat="46.93998" lon="5.09734">
        <ele>184.10059</ele>
        <time>2026-05-14T14:37:08+02:00</time>
      </trkpt>
      <trkpt lat="46.94001" lon="5.0974">
        <ele>184.2002</ele>
        <time>2026-05-14T14:37:09+02:00</time>
      </trkpt>
      <trkpt lat="46.94005" lon="5.09747">
        <ele>184.2002</ele>
        <time>2026-05-14T14:37:10+02:00</time>
      </trkpt>
      <trkpt lat="46.94008" lon="5.09754">
        <ele>184.40039</ele>
        <time>2026-05-14T14:37:11+02:00</time>
      </trkpt>
      <trkpt lat="46.94011" lon="5.0976">
        <ele>184.5</ele>
        <time>2026-05-14T14:37:12+02:00</time>
      </trkpt>
      <trkpt lat="46.94015" lon="5.09767">
        <ele>184.7002</ele>
        <time>2026-05-14T14:37:13+02:00</time>
      </trkpt>
      <trkpt lat="46.94018" lon="5.09774">
        <ele>184.7002</ele>
        <time>2026-05-14T14:37:14+02:00</time>
      </trkpt>
      <trkpt lat="46.94022" lon="5.09781">
        <ele>184.90039</ele>
        <time>2026-05-14T14:37:15+02:00</time>
      </trkpt>
      <trkpt lat="46.94026" lon="5.09788">
        <ele>185.10059</ele>
        <time>2026-05-14T14:37:16+02:00</time>
      </trkpt>
      <trkpt lat="46.94029" lon="5.09795">
        <ele>185.2998</ele>
        <time>2026-05-14T14:37:17+02:00</time>
      </trkpt>
      <trkpt lat="46.94033" lon="5.09802">
        <ele>185.5</ele>
        <time>2026-05-14T14:37:18+02:00</time>
      </trkpt>
      <trkpt lat="46.94036" lon="5.09809">
        <ele>185.7998</ele>
        <time>2026-05-14T14:37:19+02:00</time>
      </trkpt>
      <trkpt lat="46.9404" lon="5.09816">
        <ele>185.7998</ele>
        <time>2026-05-14T14:37:20+02:00</time>
      </trkpt>
      <trkpt lat="46.94043" lon="5.09824">
        <ele>186.10059</ele>
        <time>2026-05-14T14:37:21+02:00</time>
      </trkpt>
      <trkpt lat="46.94047" lon="5.09831">
        <ele>186.2002</ele>
        <time>2026-05-14T14:37:22+02:00</time>
      </trkpt>
      <trkpt lat="46.94051" lon="5.09838">
        <ele>186.40039</ele>
        <time>2026-05-14T14:37:23+02:00</time>
      </trkpt>
      <trkpt lat="46.94054" lon="5.09845">
        <ele>186.60059</ele>
        <time>2026-05-14T14:37:24+02:00</time>
      </trkpt>
      <trkpt lat="46.94058" lon="5.09852">
        <ele>186.60059</ele>
        <time>2026-05-14T14:37:25+02:00</time>
      </trkpt>
      <trkpt lat="46.94061" lon="5.09859">
        <ele>186.7002</ele>
        <time>2026-05-14T14:37:26+02:00</time>
      </trkpt>
      <trkpt lat="46.94064" lon="5.09866">
        <ele>186.7002</ele>
        <time>2026-05-14T14:37:27+02:00</time>
      </trkpt>
      <trkpt lat="46.94068" lon="5.09873">
        <ele>186.7998</ele>
        <time>2026-05-14T14:37:28+02:00</time>
      </trkpt>
      <trkpt lat="46.94071" lon="5.0988">
        <ele>186.7998</ele>
        <time>2026-05-14T14:37:29+02:00</time>
      </trkpt>
      <trkpt lat="46.94075" lon="5.09887">
        <ele>186.7998</ele>
        <time>2026-05-14T14:37:30+02:00</time>
      </trkpt>
      <trkpt lat="46.94079" lon="5.09894">
        <ele>186.90039</ele>
        <time>2026-05-14T14:37:31+02:00</time>
      </trkpt>
      <trkpt lat="46.94082" lon="5.09901">
        <ele>186.7998</ele>
        <time>2026-05-14T14:37:32+02:00</time>
      </trkpt>
      <trkpt lat="46.94086" lon="5.09908">
        <ele>186.7998</ele>
        <time>2026-05-14T14:37:33+02:00</time>
      </trkpt>
      <trkpt lat="46.9409" lon="5.09915">
        <ele>186.7998</ele>
        <time>2026-05-14T14:37:34+02:00</time>
      </trkpt>
      <trkpt lat="46.94093" lon="5.09922">
        <ele>186.7002</ele>
        <time>2026-05-14T14:37:35+02:00</time>
      </trkpt>
      <trkpt lat="46.94097" lon="5.0993">
        <ele>186.7002</ele>
        <time>2026-05-14T14:37:36+02:00</time>
      </trkpt>
      <trkpt lat="46.94101" lon="5.09937">
        <ele>186.60059</ele>
        <time>2026-05-14T14:37:37+02:00</time>
      </trkpt>
      <trkpt lat="46.94104" lon="5.09944">
        <ele>186.60059</ele>
        <time>2026-05-14T14:37:38+02:00</time>
      </trkpt>
      <trkpt lat="46.94108" lon="5.09951">
        <ele>186.5</ele>
        <time>2026-05-14T14:37:39+02:00</time>
      </trkpt>
      <trkpt lat="46.94111" lon="5.09958">
        <ele>186.40039</ele>
        <time>2026-05-14T14:37:40+02:00</time>
      </trkpt>
      <trkpt lat="46.94115" lon="5.09965">
        <ele>186.2998</ele>
        <time>2026-05-14T14:37:41+02:00</time>
      </trkpt>
      <trkpt lat="46.94119" lon="5.09972">
        <ele>186.2998</ele>
        <time>2026-05-14T14:37:42+02:00</time>
      </trkpt>
      <trkpt lat="46.94122" lon="5.09979">
        <ele>186.2998</ele>
        <time>2026-05-14T14:37:43+02:00</time>
      </trkpt>
      <trkpt lat="46.94125" lon="5.09986">
        <ele>186.2002</ele>
        <time>2026-05-14T14:37:44+02:00</time>
      </trkpt>
      <trkpt lat="46.94129" lon="5.09993">
        <ele>186.2002</ele>
        <time>2026-05-14T14:37:45+02:00</time>
      </trkpt>
      <trkpt lat="46.94132" lon="5.10001">
        <ele>186.2002</ele>
        <time>2026-05-14T14:37:46+02:00</time>
      </trkpt>
      <trkpt lat="46.94135" lon="5.10008">
        <ele>186.2002</ele>
        <time>2026-05-14T14:37:47+02:00</time>
      </trkpt>
      <trkpt lat="46.94139" lon="5.10015">
        <ele>186.2002</ele>
        <time>2026-05-14T14:37:48+02:00</time>
      </trkpt>
      <trkpt lat="46.94142" lon="5.10022">
        <ele>186.2002</ele>
        <time>2026-05-14T14:37:49+02:00</time>
      </trkpt>
      <trkpt lat="46.94145" lon="5.10029">
        <ele>186.2002</ele>
        <time>2026-05-14T14:37:50+02:00</time>
      </trkpt>
      <trkpt lat="46.94149" lon="5.10037">
        <ele>186.2002</ele>
        <time>2026-05-14T14:37:51+02:00</time>
      </trkpt>
      <trkpt lat="46.94152" lon="5.10045">
        <ele>186.2002</ele>
        <time>2026-05-14T14:37:52+02:00</time>
      </trkpt>
      <trkpt lat="46.94155" lon="5.10053">
        <ele>186.2002</ele>
        <time>2026-05-14T14:37:53+02:00</time>
      </trkpt>
      <trkpt lat="46.94158" lon="5.1006">
        <ele>186.2002</ele>
        <time>2026-05-14T14:37:54+02:00</time>
      </trkpt>
      <trkpt lat="46.94161" lon="5.10069">
        <ele>186.2002</ele>
        <time>2026-05-14T14:37:55+02:00</time>
      </trkpt>
      <trkpt lat="46.94164" lon="5.10077">
        <ele>186.2002</ele>
        <time>2026-05-14T14:37:56+02:00</time>
      </trkpt>
      <trkpt lat="46.94167" lon="5.10085">
        <ele>186.2002</ele>
        <time>2026-05-14T14:37:57+02:00</time>
      </trkpt>
      <trkpt lat="46.9417" lon="5.10093">
        <ele>186.2002</ele>
        <time>2026-05-14T14:37:58+02:00</time>
      </trkpt>
      <trkpt lat="46.94173" lon="5.10102">
        <ele>186.2002</ele>
        <time>2026-05-14T14:37:59+02:00</time>
      </trkpt>
      <trkpt lat="46.94176" lon="5.1011">
        <ele>186.2002</ele>
        <time>2026-05-14T14:38:00+02:00</time>
      </trkpt>
      <trkpt lat="46.94179" lon="5.10119">
        <ele>186.2002</ele>
        <time>2026-05-14T14:38:01+02:00</time>
      </trkpt>
      <trkpt lat="46.94182" lon="5.10127">
        <ele>186.2002</ele>
        <time>2026-05-14T14:38:02+02:00</time>
      </trkpt>
      <trkpt lat="46.94184" lon="5.10135">
        <ele>186.2002</ele>
        <time>2026-05-14T14:38:03+02:00</time>
      </trkpt>
      <trkpt lat="46.94187" lon="5.10144">
        <ele>186.2002</ele>
        <time>2026-05-14T14:38:04+02:00</time>
      </trkpt>
      <trkpt lat="46.9419" lon="5.10152">
        <ele>186.2002</ele>
        <time>2026-05-14T14:38:05+02:00</time>
      </trkpt>
      <trkpt lat="46.94192" lon="5.10161">
        <ele>186.2002</ele>
        <time>2026-05-14T14:38:06+02:00</time>
      </trkpt>
      <trkpt lat="46.94195" lon="5.10169">
        <ele>186.2002</ele>
        <time>2026-05-14T14:38:07+02:00</time>
      </trkpt>
      <trkpt lat="46.94198" lon="5.10177">
        <ele>186.2002</ele>
        <time>2026-05-14T14:38:08+02:00</time>
      </trkpt>
      <trkpt lat="46.942" lon="5.10186">
        <ele>186.2998</ele>
        <time>2026-05-14T14:38:09+02:00</time>
      </trkpt>
      <trkpt lat="46.94203" lon="5.10194">
        <ele>186.2998</ele>
        <time>2026-05-14T14:38:10+02:00</time>
      </trkpt>
      <trkpt lat="46.94206" lon="5.10202">
        <ele>186.40039</ele>
        <time>2026-05-14T14:38:11+02:00</time>
      </trkpt>
      <trkpt lat="46.94209" lon="5.1021">
        <ele>186.40039</ele>
        <time>2026-05-14T14:38:12+02:00</time>
      </trkpt>
      <trkpt lat="46.94211" lon="5.10218">
        <ele>186.40039</ele>
        <time>2026-05-14T14:38:13+02:00</time>
      </trkpt>
      <trkpt lat="46.94214" lon="5.10227">
        <ele>186.40039</ele>
        <time>2026-05-14T14:38:14+02:00</time>
      </trkpt>
      <trkpt lat="46.94217" lon="5.10235">
        <ele>186.5</ele>
        <time>2026-05-14T14:38:15+02:00</time>
      </trkpt>
      <trkpt lat="46.9422" lon="5.10243">
        <ele>186.5</ele>
        <time>2026-05-14T14:38:16+02:00</time>
      </trkpt>
      <trkpt lat="46.94222" lon="5.10252">
        <ele>186.5</ele>
        <time>2026-05-14T14:38:17+02:00</time>
      </trkpt>
      <trkpt lat="46.94225" lon="5.1026">
        <ele>186.5</ele>
        <time>2026-05-14T14:38:18+02:00</time>
      </trkpt>
      <trkpt lat="46.94228" lon="5.10269">
        <ele>186.60059</ele>
        <time>2026-05-14T14:38:19+02:00</time>
      </trkpt>
      <trkpt lat="46.9423" lon="5.10278">
        <ele>186.60059</ele>
        <time>2026-05-14T14:38:20+02:00</time>
      </trkpt>
      <trkpt lat="46.94233" lon="5.10286">
        <ele>186.7002</ele>
        <time>2026-05-14T14:38:21+02:00</time>
      </trkpt>
      <trkpt lat="46.94236" lon="5.10295">
        <ele>186.7998</ele>
        <time>2026-05-14T14:38:22+02:00</time>
      </trkpt>
      <trkpt lat="46.94239" lon="5.10304">
        <ele>186.90039</ele>
        <time>2026-05-14T14:38:23+02:00</time>
      </trkpt>
      <trkpt lat="46.94243" lon="5.10314">
        <ele>187</ele>
        <time>2026-05-14T14:38:24+02:00</time>
      </trkpt>
      <trkpt lat="46.94246" lon="5.10323">
        <ele>187</ele>
        <time>2026-05-14T14:38:25+02:00</time>
      </trkpt>
      <trkpt lat="46.94249" lon="5.10332">
        <ele>187.10059</ele>
        <time>2026-05-14T14:38:26+02:00</time>
      </trkpt>
      <trkpt lat="46.94252" lon="5.10341">
        <ele>187.2002</ele>
        <time>2026-05-14T14:38:27+02:00</time>
      </trkpt>
      <trkpt lat="46.94255" lon="5.10351">
        <ele>187.2002</ele>
        <time>2026-05-14T14:38:28+02:00</time>
      </trkpt>
      <trkpt lat="46.94258" lon="5.1036">
        <ele>187.2998</ele>
        <time>2026-05-14T14:38:29+02:00</time>
      </trkpt>
      <trkpt lat="46.94261" lon="5.1037">
        <ele>187.2002</ele>
        <time>2026-05-14T14:38:30+02:00</time>
      </trkpt>
      <trkpt lat="46.94264" lon="5.10379">
        <ele>187.2002</ele>
        <time>2026-05-14T14:38:31+02:00</time>
      </trkpt>
      <trkpt lat="46.94267" lon="5.10388">
        <ele>187.10059</ele>
        <time>2026-05-14T14:38:32+02:00</time>
      </trkpt>
      <trkpt lat="46.9427" lon="5.10398">
        <ele>187.10059</ele>
        <time>2026-05-14T14:38:33+02:00</time>
      </trkpt>
      <trkpt lat="46.94273" lon="5.10407">
        <ele>186.90039</ele>
        <time>2026-05-14T14:38:34+02:00</time>
      </trkpt>
      <trkpt lat="46.94275" lon="5.10417">
        <ele>186.90039</ele>
        <time>2026-05-14T14:38:35+02:00</time>
      </trkpt>
      <trkpt lat="46.94278" lon="5.10427">
        <ele>186.60059</ele>
        <time>2026-05-14T14:38:36+02:00</time>
      </trkpt>
      <trkpt lat="46.94281" lon="5.10436">
        <ele>186.5</ele>
        <time>2026-05-14T14:38:37+02:00</time>
      </trkpt>
      <trkpt lat="46.94284" lon="5.10446">
        <ele>186.10059</ele>
        <time>2026-05-14T14:38:38+02:00</time>
      </trkpt>
      <trkpt lat="46.94287" lon="5.10456">
        <ele>186.10059</ele>
        <time>2026-05-14T14:38:39+02:00</time>
      </trkpt>
      <trkpt lat="46.94289" lon="5.10466">
        <ele>185.7002</ele>
        <time>2026-05-14T14:38:40+02:00</time>
      </trkpt>
      <trkpt lat="46.94291" lon="5.10477">
        <ele>185.7002</ele>
        <time>2026-05-14T14:38:41+02:00</time>
      </trkpt>
      <trkpt lat="46.94294" lon="5.10488">
        <ele>185.2002</ele>
        <time>2026-05-14T14:38:42+02:00</time>
      </trkpt>
      <trkpt lat="46.94295" lon="5.10499">
        <ele>185.10059</ele>
        <time>2026-05-14T14:38:43+02:00</time>
      </trkpt>
      <trkpt lat="46.94297" lon="5.1051">
        <ele>185.10059</ele>
        <time>2026-05-14T14:38:44+02:00</time>
      </trkpt>
      <trkpt lat="46.94299" lon="5.10522">
        <ele>184.90039</ele>
        <time>2026-05-14T14:38:45+02:00</time>
      </trkpt>
      <trkpt lat="46.94301" lon="5.10534">
        <ele>184.5</ele>
        <time>2026-05-14T14:38:46+02:00</time>
      </trkpt>
      <trkpt lat="46.94302" lon="5.10546">
        <ele>184.5</ele>
        <time>2026-05-14T14:38:47+02:00</time>
      </trkpt>
      <trkpt lat="46.94304" lon="5.10558">
        <ele>184.5</ele>
        <time>2026-05-14T14:38:48+02:00</time>
      </trkpt>
      <trkpt lat="46.94306" lon="5.1057">
        <ele>184.2002</ele>
        <time>2026-05-14T14:38:49+02:00</time>
      </trkpt>
      <trkpt lat="46.94307" lon="5.10582">
        <ele>184.40039</ele>
        <time>2026-05-14T14:38:50+02:00</time>
      </trkpt>
      <trkpt lat="46.94309" lon="5.10594">
        <ele>184.5</ele>
        <time>2026-05-14T14:38:51+02:00</time>
      </trkpt>
      <trkpt lat="46.94311" lon="5.10606">
        <ele>184.5</ele>
        <time>2026-05-14T14:38:52+02:00</time>
      </trkpt>
      <trkpt lat="46.94313" lon="5.10618">
        <ele>184.5</ele>
        <time>2026-05-14T14:38:53+02:00</time>
      </trkpt>
      <trkpt lat="46.94315" lon="5.1063">
        <ele>184.60059</ele>
        <time>2026-05-14T14:38:54+02:00</time>
      </trkpt>
      <trkpt lat="46.94317" lon="5.10641">
        <ele>184.7002</ele>
        <time>2026-05-14T14:38:55+02:00</time>
      </trkpt>
      <trkpt lat="46.94319" lon="5.10653">
        <ele>184.60059</ele>
        <time>2026-05-14T14:38:56+02:00</time>
      </trkpt>
      <trkpt lat="46.94321" lon="5.10665">
        <ele>184.60059</ele>
        <time>2026-05-14T14:38:57+02:00</time>
      </trkpt>
      <trkpt lat="46.94323" lon="5.10676">
        <ele>184.5</ele>
        <time>2026-05-14T14:38:58+02:00</time>
      </trkpt>
      <trkpt lat="46.94325" lon="5.10687">
        <ele>184.10059</ele>
        <time>2026-05-14T14:38:59+02:00</time>
      </trkpt>
      <trkpt lat="46.94328" lon="5.10699">
        <ele>184</ele>
        <time>2026-05-14T14:39:00+02:00</time>
      </trkpt>
      <trkpt lat="46.9433" lon="5.1071">
        <ele>183.60059</ele>
        <time>2026-05-14T14:39:01+02:00</time>
      </trkpt>
      <trkpt lat="46.94332" lon="5.10722">
        <ele>183.5</ele>
        <time>2026-05-14T14:39:02+02:00</time>
      </trkpt>
      <trkpt lat="46.94335" lon="5.10733">
        <ele>183.40039</ele>
        <time>2026-05-14T14:39:03+02:00</time>
      </trkpt>
      <trkpt lat="46.94337" lon="5.10745">
        <ele>183.2002</ele>
        <time>2026-05-14T14:39:04+02:00</time>
      </trkpt>
      <trkpt lat="46.94339" lon="5.10756">
        <ele>183.2002</ele>
        <time>2026-05-14T14:39:05+02:00</time>
      </trkpt>
      <trkpt lat="46.94341" lon="5.10767">
        <ele>183</ele>
        <time>2026-05-14T14:39:06+02:00</time>
      </trkpt>
      <trkpt lat="46.94344" lon="5.10778">
        <ele>182.90039</ele>
        <time>2026-05-14T14:39:07+02:00</time>
      </trkpt>
      <trkpt lat="46.94346" lon="5.10789">
        <ele>182.60059</ele>
        <time>2026-05-14T14:39:08+02:00</time>
      </trkpt>
      <trkpt lat="46.94349" lon="5.108">
        <ele>182.5</ele>
        <time>2026-05-14T14:39:09+02:00</time>
      </trkpt>
      <trkpt lat="46.94351" lon="5.10811">
        <ele>182.40039</ele>
        <time>2026-05-14T14:39:10+02:00</time>
      </trkpt>
      <trkpt lat="46.94354" lon="5.10822">
        <ele>182.2002</ele>
        <time>2026-05-14T14:39:11+02:00</time>
      </trkpt>
      <trkpt lat="46.94356" lon="5.10833">
        <ele>182</ele>
        <time>2026-05-14T14:39:12+02:00</time>
      </trkpt>
      <trkpt lat="46.94359" lon="5.10844">
        <ele>182.10059</ele>
        <time>2026-05-14T14:39:13+02:00</time>
      </trkpt>
      <trkpt lat="46.94362" lon="5.10854">
        <ele>182</ele>
        <time>2026-05-14T14:39:14+02:00</time>
      </trkpt>
      <trkpt lat="46.94365" lon="5.10865">
        <ele>182.10059</ele>
        <time>2026-05-14T14:39:15+02:00</time>
      </trkpt>
      <trkpt lat="46.94368" lon="5.10875">
        <ele>182.10059</ele>
        <time>2026-05-14T14:39:16+02:00</time>
      </trkpt>
      <trkpt lat="46.94371" lon="5.10885">
        <ele>182.2002</ele>
        <time>2026-05-14T14:39:17+02:00</time>
      </trkpt>
      <trkpt lat="46.94375" lon="5.10894">
        <ele>182.2002</ele>
        <time>2026-05-14T14:39:18+02:00</time>
      </trkpt>
      <trkpt lat="46.94378" lon="5.10903">
        <ele>182.2998</ele>
        <time>2026-05-14T14:39:19+02:00</time>
      </trkpt>
      <trkpt lat="46.94381" lon="5.10911">
        <ele>182.2998</ele>
        <time>2026-05-14T14:39:20+02:00</time>
      </trkpt>
      <trkpt lat="46.94385" lon="5.1092">
        <ele>182.40039</ele>
        <time>2026-05-14T14:39:21+02:00</time>
      </trkpt>
      <trkpt lat="46.94388" lon="5.10928">
        <ele>182.40039</ele>
        <time>2026-05-14T14:39:22+02:00</time>
      </trkpt>
      <trkpt lat="46.94392" lon="5.10937">
        <ele>182.40039</ele>
        <time>2026-05-14T14:39:23+02:00</time>
      </trkpt>
      <trkpt lat="46.94395" lon="5.10946">
        <ele>182.40039</ele>
        <time>2026-05-14T14:39:24+02:00</time>
      </trkpt>
      <trkpt lat="46.94398" lon="5.10955">
        <ele>182.2998</ele>
        <time>2026-05-14T14:39:25+02:00</time>
      </trkpt>
      <trkpt lat="46.94402" lon="5.10963">
        <ele>182.40039</ele>
        <time>2026-05-14T14:39:26+02:00</time>
      </trkpt>
      <trkpt lat="46.94405" lon="5.10972">
        <ele>182.2998</ele>
        <time>2026-05-14T14:39:27+02:00</time>
      </trkpt>
      <trkpt lat="46.94407" lon="5.10981">
        <ele>182.40039</ele>
        <time>2026-05-14T14:39:28+02:00</time>
      </trkpt>
      <trkpt lat="46.9441" lon="5.1099">
        <ele>182.2998</ele>
        <time>2026-05-14T14:39:29+02:00</time>
      </trkpt>
      <trkpt lat="46.94414" lon="5.10999">
        <ele>182.2998</ele>
        <time>2026-05-14T14:39:30+02:00</time>
      </trkpt>
      <trkpt lat="46.94417" lon="5.11008">
        <ele>182.40039</ele>
        <time>2026-05-14T14:39:31+02:00</time>
      </trkpt>
      <trkpt lat="46.9442" lon="5.11017">
        <ele>182.40039</ele>
        <time>2026-05-14T14:39:32+02:00</time>
      </trkpt>
      <trkpt lat="46.94423" lon="5.11026">
        <ele>182.60059</ele>
        <time>2026-05-14T14:39:33+02:00</time>
      </trkpt>
      <trkpt lat="46.94426" lon="5.11035">
        <ele>182.60059</ele>
        <time>2026-05-14T14:39:34+02:00</time>
      </trkpt>
      <trkpt lat="46.94429" lon="5.11045">
        <ele>182.7998</ele>
        <time>2026-05-14T14:39:35+02:00</time>
      </trkpt>
      <trkpt lat="46.94431" lon="5.11054">
        <ele>182.7998</ele>
        <time>2026-05-14T14:39:36+02:00</time>
      </trkpt>
      <trkpt lat="46.94434" lon="5.11064">
        <ele>182.90039</ele>
        <time>2026-05-14T14:39:37+02:00</time>
      </trkpt>
      <trkpt lat="46.94437" lon="5.11074">
        <ele>183.10059</ele>
        <time>2026-05-14T14:39:38+02:00</time>
      </trkpt>
      <trkpt lat="46.94439" lon="5.11083">
        <ele>183.10059</ele>
        <time>2026-05-14T14:39:39+02:00</time>
      </trkpt>
      <trkpt lat="46.94441" lon="5.11093">
        <ele>183.2998</ele>
        <time>2026-05-14T14:39:40+02:00</time>
      </trkpt>
      <trkpt lat="46.94443" lon="5.11104">
        <ele>183.2998</ele>
        <time>2026-05-14T14:39:41+02:00</time>
      </trkpt>
      <trkpt lat="46.94445" lon="5.11114">
        <ele>183.40039</ele>
        <time>2026-05-14T14:39:42+02:00</time>
      </trkpt>
      <trkpt lat="46.94447" lon="5.11124">
        <ele>183.60059</ele>
        <time>2026-05-14T14:39:43+02:00</time>
      </trkpt>
      <trkpt lat="46.94449" lon="5.11134">
        <ele>183.60059</ele>
        <time>2026-05-14T14:39:44+02:00</time>
      </trkpt>
      <trkpt lat="46.9445" lon="5.11145">
        <ele>183.60059</ele>
        <time>2026-05-14T14:39:45+02:00</time>
      </trkpt>
      <trkpt lat="46.94452" lon="5.11155">
        <ele>183.60059</ele>
        <time>2026-05-14T14:39:46+02:00</time>
      </trkpt>
      <trkpt lat="46.94453" lon="5.11165">
        <ele>183.7998</ele>
        <time>2026-05-14T14:39:47+02:00</time>
      </trkpt>
      <trkpt lat="46.94455" lon="5.11175">
        <ele>183.7998</ele>
        <time>2026-05-14T14:39:48+02:00</time>
      </trkpt>
      <trkpt lat="46.94456" lon="5.11186">
        <ele>183.7998</ele>
        <time>2026-05-14T14:39:49+02:00</time>
      </trkpt>
      <trkpt lat="46.94457" lon="5.11196">
        <ele>183.7998</ele>
        <time>2026-05-14T14:39:50+02:00</time>
      </trkpt>
      <trkpt lat="46.94459" lon="5.11206">
        <ele>183.90039</ele>
        <time>2026-05-14T14:39:51+02:00</time>
      </trkpt>
      <trkpt lat="46.94461" lon="5.11217">
        <ele>183.7998</ele>
        <time>2026-05-14T14:39:52+02:00</time>
      </trkpt>
      <trkpt lat="46.94462" lon="5.11227">
        <ele>183.7998</ele>
        <time>2026-05-14T14:39:53+02:00</time>
      </trkpt>
      <trkpt lat="46.94464" lon="5.11237">
        <ele>183.90039</ele>
        <time>2026-05-14T14:39:54+02:00</time>
      </trkpt>
      <trkpt lat="46.94466" lon="5.11247">
        <ele>183.90039</ele>
        <time>2026-05-14T14:39:55+02:00</time>
      </trkpt>
      <trkpt lat="46.94468" lon="5.11257">
        <ele>183.90039</ele>
        <time>2026-05-14T14:39:56+02:00</time>
      </trkpt>
      <trkpt lat="46.94469" lon="5.11268">
        <ele>183.90039</ele>
        <time>2026-05-14T14:39:57+02:00</time>
      </trkpt>
      <trkpt lat="46.94471" lon="5.11278">
        <ele>184.10059</ele>
        <time>2026-05-14T14:39:58+02:00</time>
      </trkpt>
      <trkpt lat="46.94473" lon="5.11289">
        <ele>184.2002</ele>
        <time>2026-05-14T14:39:59+02:00</time>
      </trkpt>
      <trkpt lat="46.94474" lon="5.11299">
        <ele>184.2002</ele>
        <time>2026-05-14T14:40:00+02:00</time>
      </trkpt>
      <trkpt lat="46.94476" lon="5.1131">
        <ele>184.40039</ele>
        <time>2026-05-14T14:40:01+02:00</time>
      </trkpt>
      <trkpt lat="46.94478" lon="5.1132">
        <ele>184.5</ele>
        <time>2026-05-14T14:40:02+02:00</time>
      </trkpt>
      <trkpt lat="46.9448" lon="5.1133">
        <ele>184.60059</ele>
        <time>2026-05-14T14:40:03+02:00</time>
      </trkpt>
      <trkpt lat="46.94481" lon="5.11341">
        <ele>184.60059</ele>
        <time>2026-05-14T14:40:04+02:00</time>
      </trkpt>
      <trkpt lat="46.94483" lon="5.11351">
        <ele>184.90039</ele>
        <time>2026-05-14T14:40:05+02:00</time>
      </trkpt>
      <trkpt lat="46.94485" lon="5.11361">
        <ele>185</ele>
        <time>2026-05-14T14:40:06+02:00</time>
      </trkpt>
      <trkpt lat="46.94487" lon="5.11372">
        <ele>185.10059</ele>
        <time>2026-05-14T14:40:07+02:00</time>
      </trkpt>
      <trkpt lat="46.94489" lon="5.11382">
        <ele>185.40039</ele>
        <time>2026-05-14T14:40:08+02:00</time>
      </trkpt>
      <trkpt lat="46.94491" lon="5.11392">
        <ele>185.5</ele>
        <time>2026-05-14T14:40:09+02:00</time>
      </trkpt>
      <trkpt lat="46.94492" lon="5.11402">
        <ele>185.5</ele>
        <time>2026-05-14T14:40:10+02:00</time>
      </trkpt>
      <trkpt lat="46.94494" lon="5.11413">
        <ele>185.7998</ele>
        <time>2026-05-14T14:40:11+02:00</time>
      </trkpt>
      <trkpt lat="46.94496" lon="5.11423">
        <ele>185.7002</ele>
        <time>2026-05-14T14:40:12+02:00</time>
      </trkpt>
      <trkpt lat="46.94497" lon="5.11433">
        <ele>185.60059</ele>
        <time>2026-05-14T14:40:13+02:00</time>
      </trkpt>
      <trkpt lat="46.94499" lon="5.11443">
        <ele>185.5</ele>
        <time>2026-05-14T14:40:14+02:00</time>
      </trkpt>
      <trkpt lat="46.94501" lon="5.11454">
        <ele>185.60059</ele>
        <time>2026-05-14T14:40:15+02:00</time>
      </trkpt>
      <trkpt lat="46.94503" lon="5.11464">
        <ele>185.5</ele>
        <time>2026-05-14T14:40:16+02:00</time>
      </trkpt>
      <trkpt lat="46.94504" lon="5.11473">
        <ele>185.40039</ele>
        <time>2026-05-14T14:40:17+02:00</time>
      </trkpt>
      <trkpt lat="46.94506" lon="5.11483">
        <ele>185.40039</ele>
        <time>2026-05-14T14:40:18+02:00</time>
      </trkpt>
      <trkpt lat="46.94508" lon="5.11492">
        <ele>185.40039</ele>
        <time>2026-05-14T14:40:19+02:00</time>
      </trkpt>
      <trkpt lat="46.9451" lon="5.11502">
        <ele>185.2998</ele>
        <time>2026-05-14T14:40:20+02:00</time>
      </trkpt>
      <trkpt lat="46.94513" lon="5.11511">
        <ele>185.5</ele>
        <time>2026-05-14T14:40:21+02:00</time>
      </trkpt>
      <trkpt lat="46.94515" lon="5.1152">
        <ele>185.40039</ele>
        <time>2026-05-14T14:40:22+02:00</time>
      </trkpt>
      <trkpt lat="46.94518" lon="5.11529">
        <ele>185.60059</ele>
        <time>2026-05-14T14:40:23+02:00</time>
      </trkpt>
      <trkpt lat="46.94521" lon="5.11538">
        <ele>185.5</ele>
        <time>2026-05-14T14:40:24+02:00</time>
      </trkpt>
      <trkpt lat="46.94524" lon="5.11547">
        <ele>185.7002</ele>
        <time>2026-05-14T14:40:25+02:00</time>
      </trkpt>
      <trkpt lat="46.94527" lon="5.11556">
        <ele>185.7002</ele>
        <time>2026-05-14T14:40:26+02:00</time>
      </trkpt>
      <trkpt lat="46.9453" lon="5.11565">
        <ele>185.7998</ele>
        <time>2026-05-14T14:40:27+02:00</time>
      </trkpt>
      <trkpt lat="46.94534" lon="5.11573">
        <ele>185.7998</ele>
        <time>2026-05-14T14:40:28+02:00</time>
      </trkpt>
      <trkpt lat="46.94538" lon="5.11582">
        <ele>185.90039</ele>
        <time>2026-05-14T14:40:29+02:00</time>
      </trkpt>
      <trkpt lat="46.94542" lon="5.11591">
        <ele>186.10059</ele>
        <time>2026-05-14T14:40:30+02:00</time>
      </trkpt>
      <trkpt lat="46.94545" lon="5.11599">
        <ele>186.10059</ele>
        <time>2026-05-14T14:40:31+02:00</time>
      </trkpt>
      <trkpt lat="46.94549" lon="5.11608">
        <ele>186.2002</ele>
        <time>2026-05-14T14:40:32+02:00</time>
      </trkpt>
      <trkpt lat="46.94553" lon="5.11616">
        <ele>186.2998</ele>
        <time>2026-05-14T14:40:33+02:00</time>
      </trkpt>
      <trkpt lat="46.94557" lon="5.11624">
        <ele>186.40039</ele>
        <time>2026-05-14T14:40:34+02:00</time>
      </trkpt>
      <trkpt lat="46.9456" lon="5.11632">
        <ele>186.5</ele>
        <time>2026-05-14T14:40:35+02:00</time>
      </trkpt>
      <trkpt lat="46.94564" lon="5.1164">
        <ele>186.7002</ele>
        <time>2026-05-14T14:40:36+02:00</time>
      </trkpt>
      <trkpt lat="46.94568" lon="5.11649">
        <ele>186.7002</ele>
        <time>2026-05-14T14:40:37+02:00</time>
      </trkpt>
      <trkpt lat="46.94572" lon="5.11657">
        <ele>186.7998</ele>
        <time>2026-05-14T14:40:38+02:00</time>
      </trkpt>
      <trkpt lat="46.94576" lon="5.11665">
        <ele>186.90039</ele>
        <time>2026-05-14T14:40:39+02:00</time>
      </trkpt>
      <trkpt lat="46.94581" lon="5.11672">
        <ele>186.90039</ele>
        <time>2026-05-14T14:40:40+02:00</time>
      </trkpt>
      <trkpt lat="46.94585" lon="5.11679">
        <ele>187</ele>
        <time>2026-05-14T14:40:41+02:00</time>
      </trkpt>
      <trkpt lat="46.94589" lon="5.11687">
        <ele>187.10059</ele>
        <time>2026-05-14T14:40:42+02:00</time>
      </trkpt>
      <trkpt lat="46.94593" lon="5.11695">
        <ele>187.2002</ele>
        <time>2026-05-14T14:40:43+02:00</time>
      </trkpt>
      <trkpt lat="46.94598" lon="5.11702">
        <ele>187.10059</ele>
        <time>2026-05-14T14:40:44+02:00</time>
      </trkpt>
      <trkpt lat="46.94603" lon="5.11709">
        <ele>187.2002</ele>
        <time>2026-05-14T14:40:45+02:00</time>
      </trkpt>
      <trkpt lat="46.94607" lon="5.11717">
        <ele>187.2002</ele>
        <time>2026-05-14T14:40:46+02:00</time>
      </trkpt>
      <trkpt lat="46.94612" lon="5.11724">
        <ele>187.2998</ele>
        <time>2026-05-14T14:40:47+02:00</time>
      </trkpt>
      <trkpt lat="46.94617" lon="5.11732">
        <ele>187.40039</ele>
        <time>2026-05-14T14:40:48+02:00</time>
      </trkpt>
      <trkpt lat="46.94622" lon="5.11739">
        <ele>187.5</ele>
        <time>2026-05-14T14:40:49+02:00</time>
      </trkpt>
      <trkpt lat="46.94627" lon="5.11746">
        <ele>187.5</ele>
        <time>2026-05-14T14:40:50+02:00</time>
      </trkpt>
      <trkpt lat="46.94632" lon="5.11754">
        <ele>187.60059</ele>
        <time>2026-05-14T14:40:51+02:00</time>
      </trkpt>
      <trkpt lat="46.94637" lon="5.11761">
        <ele>187.7998</ele>
        <time>2026-05-14T14:40:52+02:00</time>
      </trkpt>
      <trkpt lat="46.94642" lon="5.11769">
        <ele>188</ele>
        <time>2026-05-14T14:40:53+02:00</time>
      </trkpt>
      <trkpt lat="46.94646" lon="5.11777">
        <ele>188.2002</ele>
        <time>2026-05-14T14:40:54+02:00</time>
      </trkpt>
      <trkpt lat="46.94651" lon="5.11784">
        <ele>188.2998</ele>
        <time>2026-05-14T14:40:55+02:00</time>
      </trkpt>
      <trkpt lat="46.94655" lon="5.11792">
        <ele>188.5</ele>
        <time>2026-05-14T14:40:56+02:00</time>
      </trkpt>
      <trkpt lat="46.9466" lon="5.118">
        <ele>188.60059</ele>
        <time>2026-05-14T14:40:57+02:00</time>
      </trkpt>
      <trkpt lat="46.94664" lon="5.11809">
        <ele>188.7998</ele>
        <time>2026-05-14T14:40:58+02:00</time>
      </trkpt>
      <trkpt lat="46.94668" lon="5.11817">
        <ele>188.7998</ele>
        <time>2026-05-14T14:40:59+02:00</time>
      </trkpt>
      <trkpt lat="46.94672" lon="5.11826">
        <ele>188.90039</ele>
        <time>2026-05-14T14:41:00+02:00</time>
      </trkpt>
      <trkpt lat="46.94676" lon="5.11835">
        <ele>189</ele>
        <time>2026-05-14T14:41:01+02:00</time>
      </trkpt>
      <trkpt lat="46.9468" lon="5.11844">
        <ele>188.90039</ele>
        <time>2026-05-14T14:41:02+02:00</time>
      </trkpt>
      <trkpt lat="46.94684" lon="5.11853">
        <ele>188.90039</ele>
        <time>2026-05-14T14:41:03+02:00</time>
      </trkpt>
      <trkpt lat="46.94687" lon="5.11862">
        <ele>188.90039</ele>
        <time>2026-05-14T14:41:04+02:00</time>
      </trkpt>
      <trkpt lat="46.9469" lon="5.11872">
        <ele>188.7998</ele>
        <time>2026-05-14T14:41:05+02:00</time>
      </trkpt>
      <trkpt lat="46.94693" lon="5.11881">
        <ele>188.7998</ele>
        <time>2026-05-14T14:41:06+02:00</time>
      </trkpt>
      <trkpt lat="46.94696" lon="5.11891">
        <ele>188.7002</ele>
        <time>2026-05-14T14:41:07+02:00</time>
      </trkpt>
      <trkpt lat="46.94698" lon="5.11901">
        <ele>188.7002</ele>
        <time>2026-05-14T14:41:08+02:00</time>
      </trkpt>
      <trkpt lat="46.947" lon="5.11911">
        <ele>188.7002</ele>
        <time>2026-05-14T14:41:09+02:00</time>
      </trkpt>
      <trkpt lat="46.94703" lon="5.11921">
        <ele>188.60059</ele>
        <time>2026-05-14T14:41:10+02:00</time>
      </trkpt>
      <trkpt lat="46.94705" lon="5.11932">
        <ele>188.7002</ele>
        <time>2026-05-14T14:41:11+02:00</time>
      </trkpt>
      <trkpt lat="46.94706" lon="5.11942">
        <ele>188.7002</ele>
        <time>2026-05-14T14:41:12+02:00</time>
      </trkpt>
      <trkpt lat="46.94708" lon="5.11952">
        <ele>188.7002</ele>
        <time>2026-05-14T14:41:13+02:00</time>
      </trkpt>
      <trkpt lat="46.9471" lon="5.11962">
        <ele>188.7002</ele>
        <time>2026-05-14T14:41:14+02:00</time>
      </trkpt>
      <trkpt lat="46.94711" lon="5.11972">
        <ele>188.7002</ele>
        <time>2026-05-14T14:41:15+02:00</time>
      </trkpt>
      <trkpt lat="46.94716" lon="5.12003">
        <ele>188.7998</ele>
        <time>2026-05-14T14:41:16+02:00</time>
      </trkpt>
      <trkpt lat="46.94718" lon="5.12013">
        <ele>188.7002</ele>
        <time>2026-05-14T14:41:17+02:00</time>
      </trkpt>
      <trkpt lat="46.94721" lon="5.12022">
        <ele>188.7002</ele>
        <time>2026-05-14T14:41:18+02:00</time>
      </trkpt>
      <trkpt lat="46.94723" lon="5.12032">
        <ele>188.60059</ele>
        <time>2026-05-14T14:41:19+02:00</time>
      </trkpt>
      <trkpt lat="46.94726" lon="5.12041">
        <ele>188.60059</ele>
        <time>2026-05-14T14:41:20+02:00</time>
      </trkpt>
      <trkpt lat="46.94729" lon="5.12051">
        <ele>188.60059</ele>
        <time>2026-05-14T14:41:21+02:00</time>
      </trkpt>
      <trkpt lat="46.94732" lon="5.1206">
        <ele>188.5</ele>
        <time>2026-05-14T14:41:22+02:00</time>
      </trkpt>
      <trkpt lat="46.94736" lon="5.12068">
        <ele>188.5</ele>
        <time>2026-05-14T14:41:23+02:00</time>
      </trkpt>
      <trkpt lat="46.9474" lon="5.12077">
        <ele>188.5</ele>
        <time>2026-05-14T14:41:24+02:00</time>
      </trkpt>
      <trkpt lat="46.94744" lon="5.12084">
        <ele>188.60059</ele>
        <time>2026-05-14T14:41:25+02:00</time>
      </trkpt>
      <trkpt lat="46.94748" lon="5.12092">
        <ele>188.7998</ele>
        <time>2026-05-14T14:41:26+02:00</time>
      </trkpt>
      <trkpt lat="46.94753" lon="5.12099">
        <ele>188.7998</ele>
        <time>2026-05-14T14:41:27+02:00</time>
      </trkpt>
      <trkpt lat="46.94757" lon="5.12107">
        <ele>189</ele>
        <time>2026-05-14T14:41:28+02:00</time>
      </trkpt>
      <trkpt lat="46.94762" lon="5.12114">
        <ele>189.10059</ele>
        <time>2026-05-14T14:41:29+02:00</time>
      </trkpt>
      <trkpt lat="46.94767" lon="5.12121">
        <ele>189.40039</ele>
        <time>2026-05-14T14:41:30+02:00</time>
      </trkpt>
      <trkpt lat="46.94772" lon="5.12128">
        <ele>189.7002</ele>
        <time>2026-05-14T14:41:31+02:00</time>
      </trkpt>
      <trkpt lat="46.94777" lon="5.12134">
        <ele>189.7002</ele>
        <time>2026-05-14T14:41:32+02:00</time>
      </trkpt>
      <trkpt lat="46.94782" lon="5.1214">
        <ele>190</ele>
        <time>2026-05-14T14:41:33+02:00</time>
      </trkpt>
      <trkpt lat="46.94787" lon="5.12147">
        <ele>190.2002</ele>
        <time>2026-05-14T14:41:34+02:00</time>
      </trkpt>
      <trkpt lat="46.94793" lon="5.12153">
        <ele>190.5</ele>
        <time>2026-05-14T14:41:35+02:00</time>
      </trkpt>
      <trkpt lat="46.94798" lon="5.1216">
        <ele>190.5</ele>
        <time>2026-05-14T14:41:36+02:00</time>
      </trkpt>
      <trkpt lat="46.94803" lon="5.12166">
        <ele>190.7002</ele>
        <time>2026-05-14T14:41:37+02:00</time>
      </trkpt>
      <trkpt lat="46.94809" lon="5.12171">
        <ele>190.7998</ele>
        <time>2026-05-14T14:41:38+02:00</time>
      </trkpt>
      <trkpt lat="46.94814" lon="5.12177">
        <ele>190.90039</ele>
        <time>2026-05-14T14:41:39+02:00</time>
      </trkpt>
      <trkpt lat="46.9482" lon="5.12182">
        <ele>191</ele>
        <time>2026-05-14T14:41:40+02:00</time>
      </trkpt>
      <trkpt lat="46.94826" lon="5.12188">
        <ele>191</ele>
        <time>2026-05-14T14:41:41+02:00</time>
      </trkpt>
      <trkpt lat="46.94832" lon="5.12193">
        <ele>191.10059</ele>
        <time>2026-05-14T14:41:42+02:00</time>
      </trkpt>
      <trkpt lat="46.94838" lon="5.12198">
        <ele>191.10059</ele>
        <time>2026-05-14T14:41:43+02:00</time>
      </trkpt>
      <trkpt lat="46.94844" lon="5.12202">
        <ele>191.10059</ele>
        <time>2026-05-14T14:41:44+02:00</time>
      </trkpt>
      <trkpt lat="46.9485" lon="5.12207">
        <ele>191.2002</ele>
        <time>2026-05-14T14:41:45+02:00</time>
      </trkpt>
      <trkpt lat="46.94856" lon="5.12212">
        <ele>191.2002</ele>
        <time>2026-05-14T14:41:46+02:00</time>
      </trkpt>
      <trkpt lat="46.94862" lon="5.12217">
        <ele>191.2002</ele>
        <time>2026-05-14T14:41:47+02:00</time>
      </trkpt>
      <trkpt lat="46.94868" lon="5.12222">
        <ele>191.40039</ele>
        <time>2026-05-14T14:41:48+02:00</time>
      </trkpt>
      <trkpt lat="46.94874" lon="5.12227">
        <ele>191.40039</ele>
        <time>2026-05-14T14:41:49+02:00</time>
      </trkpt>
      <trkpt lat="46.9488" lon="5.12231">
        <ele>191.5</ele>
        <time>2026-05-14T14:41:50+02:00</time>
      </trkpt>
      <trkpt lat="46.94886" lon="5.12236">
        <ele>191.60059</ele>
        <time>2026-05-14T14:41:51+02:00</time>
      </trkpt>
      <trkpt lat="46.94892" lon="5.12241">
        <ele>191.7002</ele>
        <time>2026-05-14T14:41:52+02:00</time>
      </trkpt>
      <trkpt lat="46.94898" lon="5.12247">
        <ele>191.90039</ele>
        <time>2026-05-14T14:41:53+02:00</time>
      </trkpt>
      <trkpt lat="46.94904" lon="5.12252">
        <ele>192</ele>
        <time>2026-05-14T14:41:54+02:00</time>
      </trkpt>
      <trkpt lat="46.9491" lon="5.12258">
        <ele>192.10059</ele>
        <time>2026-05-14T14:41:55+02:00</time>
      </trkpt>
      <trkpt lat="46.94916" lon="5.12263">
        <ele>192.2002</ele>
        <time>2026-05-14T14:41:56+02:00</time>
      </trkpt>
      <trkpt lat="46.94921" lon="5.12268">
        <ele>192.2998</ele>
        <time>2026-05-14T14:41:57+02:00</time>
      </trkpt>
      <trkpt lat="46.94927" lon="5.12274">
        <ele>192.40039</ele>
        <time>2026-05-14T14:41:58+02:00</time>
      </trkpt>
      <trkpt lat="46.94933" lon="5.1228">
        <ele>192.40039</ele>
        <time>2026-05-14T14:41:59+02:00</time>
      </trkpt>
      <trkpt lat="46.94938" lon="5.12285">
        <ele>192.5</ele>
        <time>2026-05-14T14:42:00+02:00</time>
      </trkpt>
      <trkpt lat="46.94944" lon="5.12291">
        <ele>192.5</ele>
        <time>2026-05-14T14:42:01+02:00</time>
      </trkpt>
      <trkpt lat="46.9495" lon="5.12296">
        <ele>192.5</ele>
        <time>2026-05-14T14:42:02+02:00</time>
      </trkpt>
      <trkpt lat="46.94956" lon="5.12301">
        <ele>192.5</ele>
        <time>2026-05-14T14:42:03+02:00</time>
      </trkpt>
      <trkpt lat="46.94962" lon="5.12307">
        <ele>192.40039</ele>
        <time>2026-05-14T14:42:04+02:00</time>
      </trkpt>
      <trkpt lat="46.94968" lon="5.12311">
        <ele>192.2998</ele>
        <time>2026-05-14T14:42:05+02:00</time>
      </trkpt>
      <trkpt lat="46.94974" lon="5.12316">
        <ele>192.2998</ele>
        <time>2026-05-14T14:42:06+02:00</time>
      </trkpt>
      <trkpt lat="46.9498" lon="5.12321">
        <ele>192.2002</ele>
        <time>2026-05-14T14:42:07+02:00</time>
      </trkpt>
      <trkpt lat="46.94986" lon="5.12325">
        <ele>192.10059</ele>
        <time>2026-05-14T14:42:08+02:00</time>
      </trkpt>
      <trkpt lat="46.94993" lon="5.1233">
        <ele>192</ele>
        <time>2026-05-14T14:42:09+02:00</time>
      </trkpt>
      <trkpt lat="46.94999" lon="5.12334">
        <ele>191.7998</ele>
        <time>2026-05-14T14:42:10+02:00</time>
      </trkpt>
      <trkpt lat="46.95006" lon="5.12337">
        <ele>191.7002</ele>
        <time>2026-05-14T14:42:11+02:00</time>
      </trkpt>
      <trkpt lat="46.95012" lon="5.12341">
        <ele>191.60059</ele>
        <time>2026-05-14T14:42:12+02:00</time>
      </trkpt>
      <trkpt lat="46.95018" lon="5.12345">
        <ele>191.40039</ele>
        <time>2026-05-14T14:42:13+02:00</time>
      </trkpt>
      <trkpt lat="46.95025" lon="5.12348">
        <ele>191.2998</ele>
        <time>2026-05-14T14:42:14+02:00</time>
      </trkpt>
      <trkpt lat="46.95031" lon="5.12351">
        <ele>191.10059</ele>
        <time>2026-05-14T14:42:15+02:00</time>
      </trkpt>
      <trkpt lat="46.95038" lon="5.12354">
        <ele>191</ele>
        <time>2026-05-14T14:42:16+02:00</time>
      </trkpt>
      <trkpt lat="46.95044" lon="5.12358">
        <ele>190.7998</ele>
        <time>2026-05-14T14:42:17+02:00</time>
      </trkpt>
      <trkpt lat="46.95051" lon="5.12361">
        <ele>190.7002</ele>
        <time>2026-05-14T14:42:18+02:00</time>
      </trkpt>
      <trkpt lat="46.95057" lon="5.12364">
        <ele>190.5</ele>
        <time>2026-05-14T14:42:19+02:00</time>
      </trkpt>
      <trkpt lat="46.95064" lon="5.12367">
        <ele>190.40039</ele>
        <time>2026-05-14T14:42:20+02:00</time>
      </trkpt>
      <trkpt lat="46.9507" lon="5.12368">
        <ele>190.2998</ele>
        <time>2026-05-14T14:42:21+02:00</time>
      </trkpt>
      <trkpt lat="46.95077" lon="5.1237">
        <ele>190.2002</ele>
        <time>2026-05-14T14:42:22+02:00</time>
      </trkpt>
      <trkpt lat="46.95083" lon="5.12372">
        <ele>190.2002</ele>
        <time>2026-05-14T14:42:23+02:00</time>
      </trkpt>
      <trkpt lat="46.9509" lon="5.12374">
        <ele>190.10059</ele>
        <time>2026-05-14T14:42:24+02:00</time>
      </trkpt>
      <trkpt lat="46.95096" lon="5.12376">
        <ele>190.10059</ele>
        <time>2026-05-14T14:42:25+02:00</time>
      </trkpt>
      <trkpt lat="46.95103" lon="5.12378">
        <ele>190</ele>
        <time>2026-05-14T14:42:26+02:00</time>
      </trkpt>
      <trkpt lat="46.95109" lon="5.1238">
        <ele>190</ele>
        <time>2026-05-14T14:42:27+02:00</time>
      </trkpt>
      <trkpt lat="46.95116" lon="5.12382">
        <ele>189.90039</ele>
        <time>2026-05-14T14:42:28+02:00</time>
      </trkpt>
      <trkpt lat="46.95123" lon="5.12384">
        <ele>190</ele>
        <time>2026-05-14T14:42:29+02:00</time>
      </trkpt>
      <trkpt lat="46.95129" lon="5.12386">
        <ele>189.90039</ele>
        <time>2026-05-14T14:42:30+02:00</time>
      </trkpt>
      <trkpt lat="46.95136" lon="5.12388">
        <ele>189.90039</ele>
        <time>2026-05-14T14:42:31+02:00</time>
      </trkpt>
      <trkpt lat="46.95143" lon="5.12389">
        <ele>189.90039</ele>
        <time>2026-05-14T14:42:32+02:00</time>
      </trkpt>
      <trkpt lat="46.95149" lon="5.12391">
        <ele>189.7998</ele>
        <time>2026-05-14T14:42:33+02:00</time>
      </trkpt>
      <trkpt lat="46.95156" lon="5.12393">
        <ele>189.7998</ele>
        <time>2026-05-14T14:42:34+02:00</time>
      </trkpt>
      <trkpt lat="46.95163" lon="5.12395">
        <ele>189.7002</ele>
        <time>2026-05-14T14:42:35+02:00</time>
      </trkpt>
      <trkpt lat="46.9517" lon="5.12397">
        <ele>189.7002</ele>
        <time>2026-05-14T14:42:36+02:00</time>
      </trkpt>
      <trkpt lat="46.95177" lon="5.12399">
        <ele>189.60059</ele>
        <time>2026-05-14T14:42:37+02:00</time>
      </trkpt>
      <trkpt lat="46.95184" lon="5.124">
        <ele>189.5</ele>
        <time>2026-05-14T14:42:38+02:00</time>
      </trkpt>
      <trkpt lat="46.95191" lon="5.12402">
        <ele>189.2998</ele>
        <time>2026-05-14T14:42:39+02:00</time>
      </trkpt>
      <trkpt lat="46.95198" lon="5.12404">
        <ele>189.2002</ele>
        <time>2026-05-14T14:42:40+02:00</time>
      </trkpt>
      <trkpt lat="46.95205" lon="5.12405">
        <ele>189.10059</ele>
        <time>2026-05-14T14:42:41+02:00</time>
      </trkpt>
      <trkpt lat="46.95212" lon="5.12406">
        <ele>189</ele>
        <time>2026-05-14T14:42:42+02:00</time>
      </trkpt>
      <trkpt lat="46.9522" lon="5.12408">
        <ele>188.7002</ele>
        <time>2026-05-14T14:42:43+02:00</time>
      </trkpt>
      <trkpt lat="46.95227" lon="5.12409">
        <ele>188.60059</ele>
        <time>2026-05-14T14:42:44+02:00</time>
      </trkpt>
      <trkpt lat="46.95234" lon="5.1241">
        <ele>188.5</ele>
        <time>2026-05-14T14:42:45+02:00</time>
      </trkpt>
      <trkpt lat="46.95241" lon="5.12411">
        <ele>188.40039</ele>
        <time>2026-05-14T14:42:46+02:00</time>
      </trkpt>
      <trkpt lat="46.95249" lon="5.12412">
        <ele>188.10059</ele>
        <time>2026-05-14T14:42:47+02:00</time>
      </trkpt>
      <trkpt lat="46.95256" lon="5.12413">
        <ele>187.90039</ele>
        <time>2026-05-14T14:42:48+02:00</time>
      </trkpt>
      <trkpt lat="46.95264" lon="5.12414">
        <ele>187.7998</ele>
        <time>2026-05-14T14:42:49+02:00</time>
      </trkpt>
      <trkpt lat="46.95271" lon="5.12414">
        <ele>187.7002</ele>
        <time>2026-05-14T14:42:50+02:00</time>
      </trkpt>
      <trkpt lat="46.95279" lon="5.12415">
        <ele>187.40039</ele>
        <time>2026-05-14T14:42:51+02:00</time>
      </trkpt>
      <trkpt lat="46.95287" lon="5.12415">
        <ele>187.2002</ele>
        <time>2026-05-14T14:42:52+02:00</time>
      </trkpt>
      <trkpt lat="46.95295" lon="5.12415">
        <ele>187.10059</ele>
        <time>2026-05-14T14:42:53+02:00</time>
      </trkpt>
      <trkpt lat="46.95303" lon="5.12416">
        <ele>186.7998</ele>
        <time>2026-05-14T14:42:54+02:00</time>
      </trkpt>
      <trkpt lat="46.9531" lon="5.12416">
        <ele>186.7002</ele>
        <time>2026-05-14T14:42:55+02:00</time>
      </trkpt>
      <trkpt lat="46.95318" lon="5.12416">
        <ele>186.60059</ele>
        <time>2026-05-14T14:42:56+02:00</time>
      </trkpt>
      <trkpt lat="46.95326" lon="5.12417">
        <ele>186.2998</ele>
        <time>2026-05-14T14:42:57+02:00</time>
      </trkpt>
      <trkpt lat="46.95334" lon="5.12417">
        <ele>186.2002</ele>
        <time>2026-05-14T14:42:58+02:00</time>
      </trkpt>
      <trkpt lat="46.95342" lon="5.12417">
        <ele>186.10059</ele>
        <time>2026-05-14T14:42:59+02:00</time>
      </trkpt>
      <trkpt lat="46.9535" lon="5.12418">
        <ele>185.7998</ele>
        <time>2026-05-14T14:43:00+02:00</time>
      </trkpt>
      <trkpt lat="46.95359" lon="5.12418">
        <ele>185.60059</ele>
        <time>2026-05-14T14:43:01+02:00</time>
      </trkpt>
      <trkpt lat="46.95367" lon="5.12418">
        <ele>185.2998</ele>
        <time>2026-05-14T14:43:02+02:00</time>
      </trkpt>
      <trkpt lat="46.95376" lon="5.12418">
        <ele>185.2002</ele>
        <time>2026-05-14T14:43:03+02:00</time>
      </trkpt>
      <trkpt lat="46.95384" lon="5.12419">
        <ele>184.90039</ele>
        <time>2026-05-14T14:43:04+02:00</time>
      </trkpt>
      <trkpt lat="46.95392" lon="5.12419">
        <ele>184.7998</ele>
        <time>2026-05-14T14:43:05+02:00</time>
      </trkpt>
      <trkpt lat="46.95401" lon="5.1242">
        <ele>184.60059</ele>
        <time>2026-05-14T14:43:06+02:00</time>
      </trkpt>
      <trkpt lat="46.95409" lon="5.1242">
        <ele>184.40039</ele>
        <time>2026-05-14T14:43:07+02:00</time>
      </trkpt>
      <trkpt lat="46.95417" lon="5.1242">
        <ele>184.2998</ele>
        <time>2026-05-14T14:43:08+02:00</time>
      </trkpt>
      <trkpt lat="46.95426" lon="5.12421">
        <ele>184</ele>
        <time>2026-05-14T14:43:09+02:00</time>
      </trkpt>
      <trkpt lat="46.95434" lon="5.12421">
        <ele>183.90039</ele>
        <time>2026-05-14T14:43:10+02:00</time>
      </trkpt>
      <trkpt lat="46.95442" lon="5.12421">
        <ele>183.7998</ele>
        <time>2026-05-14T14:43:11+02:00</time>
      </trkpt>
      <trkpt lat="46.9545" lon="5.12421">
        <ele>183.7002</ele>
        <time>2026-05-14T14:43:12+02:00</time>
      </trkpt>
      <trkpt lat="46.95458" lon="5.12422">
        <ele>183.60059</ele>
        <time>2026-05-14T14:43:13+02:00</time>
      </trkpt>
      <trkpt lat="46.95467" lon="5.12422">
        <ele>183.40039</ele>
        <time>2026-05-14T14:43:14+02:00</time>
      </trkpt>
      <trkpt lat="46.95475" lon="5.12422">
        <ele>183.2998</ele>
        <time>2026-05-14T14:43:15+02:00</time>
      </trkpt>
      <trkpt lat="46.95483" lon="5.12422">
        <ele>183.2002</ele>
        <time>2026-05-14T14:43:16+02:00</time>
      </trkpt>
      <trkpt lat="46.95491" lon="5.12422">
        <ele>183</ele>
        <time>2026-05-14T14:43:17+02:00</time>
      </trkpt>
      <trkpt lat="46.955" lon="5.12422">
        <ele>182.90039</ele>
        <time>2026-05-14T14:43:18+02:00</time>
      </trkpt>
      <trkpt lat="46.95508" lon="5.12422">
        <ele>182.60059</ele>
        <time>2026-05-14T14:43:19+02:00</time>
      </trkpt>
      <trkpt lat="46.95516" lon="5.12422">
        <ele>182.5</ele>
        <time>2026-05-14T14:43:20+02:00</time>
      </trkpt>
      <trkpt lat="46.95524" lon="5.12422">
        <ele>182.40039</ele>
        <time>2026-05-14T14:43:21+02:00</time>
      </trkpt>
      <trkpt lat="46.95532" lon="5.12421">
        <ele>182.10059</ele>
        <time>2026-05-14T14:43:22+02:00</time>
      </trkpt>
      <trkpt lat="46.9554" lon="5.12421">
        <ele>182</ele>
        <time>2026-05-14T14:43:23+02:00</time>
      </trkpt>
      <trkpt lat="46.95548" lon="5.1242">
        <ele>181.7998</ele>
        <time>2026-05-14T14:43:24+02:00</time>
      </trkpt>
      <trkpt lat="46.95555" lon="5.12419">
        <ele>181.7002</ele>
        <time>2026-05-14T14:43:25+02:00</time>
      </trkpt>
      <trkpt lat="46.95562" lon="5.12417">
        <ele>181.5</ele>
        <time>2026-05-14T14:43:26+02:00</time>
      </trkpt>
      <trkpt lat="46.9557" lon="5.12415">
        <ele>181.40039</ele>
        <time>2026-05-14T14:43:27+02:00</time>
      </trkpt>
      <trkpt lat="46.95577" lon="5.12412">
        <ele>181.2998</ele>
        <time>2026-05-14T14:43:28+02:00</time>
      </trkpt>
      <trkpt lat="46.95584" lon="5.1241">
        <ele>181.2002</ele>
        <time>2026-05-14T14:43:29+02:00</time>
      </trkpt>
      <trkpt lat="46.95591" lon="5.12407">
        <ele>181</ele>
        <time>2026-05-14T14:43:30+02:00</time>
      </trkpt>
      <trkpt lat="46.95598" lon="5.12404">
        <ele>181</ele>
        <time>2026-05-14T14:43:31+02:00</time>
      </trkpt>
      <trkpt lat="46.95606" lon="5.12402">
        <ele>181</ele>
        <time>2026-05-14T14:43:32+02:00</time>
      </trkpt>
      <trkpt lat="46.95612" lon="5.12399">
        <ele>180.90039</ele>
        <time>2026-05-14T14:43:33+02:00</time>
      </trkpt>
      <trkpt lat="46.9562" lon="5.12396">
        <ele>180.7998</ele>
        <time>2026-05-14T14:43:34+02:00</time>
      </trkpt>
      <trkpt lat="46.95627" lon="5.12393">
        <ele>180.7998</ele>
        <time>2026-05-14T14:43:35+02:00</time>
      </trkpt>
      <trkpt lat="46.95634" lon="5.1239">
        <ele>180.60059</ele>
        <time>2026-05-14T14:43:36+02:00</time>
      </trkpt>
      <trkpt lat="46.95641" lon="5.12387">
        <ele>180.60059</ele>
        <time>2026-05-14T14:43:37+02:00</time>
      </trkpt>
      <trkpt lat="46.95648" lon="5.12384">
        <ele>180.60059</ele>
        <time>2026-05-14T14:43:38+02:00</time>
      </trkpt>
      <trkpt lat="46.95656" lon="5.12381">
        <ele>180.40039</ele>
        <time>2026-05-14T14:43:39+02:00</time>
      </trkpt>
      <trkpt lat="46.95662" lon="5.12378">
        <ele>180.40039</ele>
        <time>2026-05-14T14:43:40+02:00</time>
      </trkpt>
      <trkpt lat="46.9567" lon="5.12375">
        <ele>180.2998</ele>
        <time>2026-05-14T14:43:41+02:00</time>
      </trkpt>
      <trkpt lat="46.95677" lon="5.12372">
        <ele>180.10059</ele>
        <time>2026-05-14T14:43:42+02:00</time>
      </trkpt>
      <trkpt lat="46.95684" lon="5.12369">
        <ele>180.10059</ele>
        <time>2026-05-14T14:43:43+02:00</time>
      </trkpt>
      <trkpt lat="46.95691" lon="5.12366">
        <ele>180</ele>
        <time>2026-05-14T14:43:44+02:00</time>
      </trkpt>
      <trkpt lat="46.95698" lon="5.12364">
        <ele>180</ele>
        <time>2026-05-14T14:43:45+02:00</time>
      </trkpt>
      <trkpt lat="46.95706" lon="5.12361">
        <ele>180.10059</ele>
        <time>2026-05-14T14:43:46+02:00</time>
      </trkpt>
      <trkpt lat="46.95712" lon="5.12357">
        <ele>180</ele>
        <time>2026-05-14T14:43:47+02:00</time>
      </trkpt>
      <trkpt lat="46.95719" lon="5.12352">
        <ele>180</ele>
        <time>2026-05-14T14:43:48+02:00</time>
      </trkpt>
      <trkpt lat="46.95724" lon="5.12345">
        <ele>180</ele>
        <time>2026-05-14T14:43:49+02:00</time>
      </trkpt>
      <trkpt lat="46.95728" lon="5.12337">
        <ele>180</ele>
        <time>2026-05-14T14:43:50+02:00</time>
      </trkpt>
      <trkpt lat="46.95731" lon="5.12327">
        <ele>179.90039</ele>
        <time>2026-05-14T14:43:51+02:00</time>
      </trkpt>
      <trkpt lat="46.95733" lon="5.12318">
        <ele>179.90039</ele>
        <time>2026-05-14T14:43:52+02:00</time>
      </trkpt>
      <trkpt lat="46.95735" lon="5.12307">
        <ele>179.90039</ele>
        <time>2026-05-14T14:43:53+02:00</time>
      </trkpt>
      <trkpt lat="46.95736" lon="5.12298">
        <ele>179.90039</ele>
        <time>2026-05-14T14:43:54+02:00</time>
      </trkpt>
      <trkpt lat="46.95739" lon="5.12288">
        <ele>180</ele>
        <time>2026-05-14T14:43:55+02:00</time>
      </trkpt>
      <trkpt lat="46.95741" lon="5.12278">
        <ele>180</ele>
        <time>2026-05-14T14:43:56+02:00</time>
      </trkpt>
      <trkpt lat="46.95743" lon="5.12268">
        <ele>180</ele>
        <time>2026-05-14T14:43:57+02:00</time>
      </trkpt>
      <trkpt lat="46.95746" lon="5.12259">
        <ele>180</ele>
        <time>2026-05-14T14:43:58+02:00</time>
      </trkpt>
      <trkpt lat="46.95748" lon="5.12249">
        <ele>179.90039</ele>
        <time>2026-05-14T14:43:59+02:00</time>
      </trkpt>
      <trkpt lat="46.9575" lon="5.1224">
        <ele>179.7998</ele>
        <time>2026-05-14T14:44:00+02:00</time>
      </trkpt>
      <trkpt lat="46.95752" lon="5.1223">
        <ele>179.7998</ele>
        <time>2026-05-14T14:44:01+02:00</time>
      </trkpt>
      <trkpt lat="46.95755" lon="5.12221">
        <ele>179.60059</ele>
        <time>2026-05-14T14:44:02+02:00</time>
      </trkpt>
      <trkpt lat="46.95757" lon="5.12212">
        <ele>179.60059</ele>
        <time>2026-05-14T14:44:03+02:00</time>
      </trkpt>
      <trkpt lat="46.9576" lon="5.12203">
        <ele>179.2998</ele>
        <time>2026-05-14T14:44:04+02:00</time>
      </trkpt>
      <trkpt lat="46.95762" lon="5.12194">
        <ele>179.2002</ele>
        <time>2026-05-14T14:44:05+02:00</time>
      </trkpt>
      <trkpt lat="46.95764" lon="5.12185">
        <ele>179.2002</ele>
        <time>2026-05-14T14:44:06+02:00</time>
      </trkpt>
      <trkpt lat="46.95767" lon="5.12176">
        <ele>179</ele>
        <time>2026-05-14T14:44:07+02:00</time>
      </trkpt>
      <trkpt lat="46.95769" lon="5.12167">
        <ele>179</ele>
        <time>2026-05-14T14:44:08+02:00</time>
      </trkpt>
      <trkpt lat="46.95771" lon="5.12158">
        <ele>178.90039</ele>
        <time>2026-05-14T14:44:09+02:00</time>
      </trkpt>
      <trkpt lat="46.95773" lon="5.12149">
        <ele>178.90039</ele>
        <time>2026-05-14T14:44:10+02:00</time>
      </trkpt>
      <trkpt lat="46.95776" lon="5.1214">
        <ele>178.90039</ele>
        <time>2026-05-14T14:44:11+02:00</time>
      </trkpt>
      <trkpt lat="46.95778" lon="5.12131">
        <ele>178.90039</ele>
        <time>2026-05-14T14:44:12+02:00</time>
      </trkpt>
      <trkpt lat="46.9578" lon="5.12123">
        <ele>178.90039</ele>
        <time>2026-05-14T14:44:13+02:00</time>
      </trkpt>
      <trkpt lat="46.95783" lon="5.12114">
        <ele>178.90039</ele>
        <time>2026-05-14T14:44:14+02:00</time>
      </trkpt>
      <trkpt lat="46.95785" lon="5.12105">
        <ele>179</ele>
        <time>2026-05-14T14:44:15+02:00</time>
      </trkpt>
      <trkpt lat="46.95787" lon="5.12096">
        <ele>179.10059</ele>
        <time>2026-05-14T14:44:16+02:00</time>
      </trkpt>
      <trkpt lat="46.95789" lon="5.12088">
        <ele>179.2002</ele>
        <time>2026-05-14T14:44:17+02:00</time>
      </trkpt>
      <trkpt lat="46.95791" lon="5.12079">
        <ele>179.2998</ele>
        <time>2026-05-14T14:44:18+02:00</time>
      </trkpt>
      <trkpt lat="46.95793" lon="5.1207">
        <ele>179.40039</ele>
        <time>2026-05-14T14:44:19+02:00</time>
      </trkpt>
      <trkpt lat="46.95796" lon="5.12061">
        <ele>179.5</ele>
        <time>2026-05-14T14:44:20+02:00</time>
      </trkpt>
      <trkpt lat="46.95798" lon="5.12053">
        <ele>179.7002</ele>
        <time>2026-05-14T14:44:21+02:00</time>
      </trkpt>
      <trkpt lat="46.95802" lon="5.12045">
        <ele>179.90039</ele>
        <time>2026-05-14T14:44:22+02:00</time>
      </trkpt>
      <trkpt lat="46.95805" lon="5.12038">
        <ele>180</ele>
        <time>2026-05-14T14:44:23+02:00</time>
      </trkpt>
      <trkpt lat="46.9581" lon="5.12031">
        <ele>180.2998</ele>
        <time>2026-05-14T14:44:24+02:00</time>
      </trkpt>
      <trkpt lat="46.95814" lon="5.12025">
        <ele>180.2998</ele>
        <time>2026-05-14T14:44:25+02:00</time>
      </trkpt>
      <trkpt lat="46.9582" lon="5.1202">
        <ele>180.5</ele>
        <time>2026-05-14T14:44:26+02:00</time>
      </trkpt>
      <trkpt lat="46.95825" lon="5.12015">
        <ele>180.60059</ele>
        <time>2026-05-14T14:44:27+02:00</time>
      </trkpt>
      <trkpt lat="46.9583" lon="5.1201">
        <ele>180.7998</ele>
        <time>2026-05-14T14:44:28+02:00</time>
      </trkpt>
      <trkpt lat="46.95836" lon="5.12006">
        <ele>180.7998</ele>
        <time>2026-05-14T14:44:29+02:00</time>
      </trkpt>
      <trkpt lat="46.95842" lon="5.12002">
        <ele>181</ele>
        <time>2026-05-14T14:44:30+02:00</time>
      </trkpt>
      <trkpt lat="46.95848" lon="5.11999">
        <ele>181</ele>
        <time>2026-05-14T14:44:31+02:00</time>
      </trkpt>
      <trkpt lat="46.95854" lon="5.11995">
        <ele>181.2002</ele>
        <time>2026-05-14T14:44:32+02:00</time>
      </trkpt>
      <trkpt lat="46.9586" lon="5.11992">
        <ele>181.2002</ele>
        <time>2026-05-14T14:44:33+02:00</time>
      </trkpt>
      <trkpt lat="46.95866" lon="5.11989">
        <ele>181.2002</ele>
        <time>2026-05-14T14:44:34+02:00</time>
      </trkpt>
      <trkpt lat="46.95872" lon="5.11987">
        <ele>181.2998</ele>
        <time>2026-05-14T14:44:35+02:00</time>
      </trkpt>
      <trkpt lat="46.95878" lon="5.11984">
        <ele>181.2998</ele>
        <time>2026-05-14T14:44:36+02:00</time>
      </trkpt>
      <trkpt lat="46.95884" lon="5.11982">
        <ele>181.2998</ele>
        <time>2026-05-14T14:44:37+02:00</time>
      </trkpt>
      <trkpt lat="46.9589" lon="5.1198">
        <ele>181.40039</ele>
        <time>2026-05-14T14:44:38+02:00</time>
      </trkpt>
      <trkpt lat="46.95896" lon="5.11979">
        <ele>181.40039</ele>
        <time>2026-05-14T14:44:39+02:00</time>
      </trkpt>
      <trkpt lat="46.95901" lon="5.11977">
        <ele>181.40039</ele>
        <time>2026-05-14T14:44:40+02:00</time>
      </trkpt>
      <trkpt lat="46.95907" lon="5.11976">
        <ele>181.40039</ele>
        <time>2026-05-14T14:44:41+02:00</time>
      </trkpt>
      <trkpt lat="46.95913" lon="5.11976">
        <ele>181.40039</ele>
        <time>2026-05-14T14:44:42+02:00</time>
      </trkpt>
      <trkpt lat="46.95918" lon="5.11976">
        <ele>181.40039</ele>
        <time>2026-05-14T14:44:43+02:00</time>
      </trkpt>
      <trkpt lat="46.95923" lon="5.11978">
        <ele>181.2998</ele>
        <time>2026-05-14T14:44:44+02:00</time>
      </trkpt>
      <trkpt lat="46.95929" lon="5.1198">
        <ele>181.2998</ele>
        <time>2026-05-14T14:44:45+02:00</time>
      </trkpt>
      <trkpt lat="46.95934" lon="5.11982">
        <ele>181.2998</ele>
        <time>2026-05-14T14:44:46+02:00</time>
      </trkpt>
      <trkpt lat="46.95939" lon="5.11984">
        <ele>181.2002</ele>
        <time>2026-05-14T14:44:47+02:00</time>
      </trkpt>
      <trkpt lat="46.95945" lon="5.11987">
        <ele>181.2002</ele>
        <time>2026-05-14T14:44:48+02:00</time>
      </trkpt>
      <trkpt lat="46.9595" lon="5.11989">
        <ele>181.2002</ele>
        <time>2026-05-14T14:44:49+02:00</time>
      </trkpt>
      <trkpt lat="46.95956" lon="5.11991">
        <ele>181.2002</ele>
        <time>2026-05-14T14:44:50+02:00</time>
      </trkpt>
      <trkpt lat="46.95962" lon="5.11994">
        <ele>181.2002</ele>
        <time>2026-05-14T14:44:51+02:00</time>
      </trkpt>
      <trkpt lat="46.95967" lon="5.11996">
        <ele>181.10059</ele>
        <time>2026-05-14T14:44:52+02:00</time>
      </trkpt>
      <trkpt lat="46.95973" lon="5.11998">
        <ele>181.10059</ele>
        <time>2026-05-14T14:44:53+02:00</time>
      </trkpt>
      <trkpt lat="46.95978" lon="5.12001">
        <ele>181.10059</ele>
        <time>2026-05-14T14:44:54+02:00</time>
      </trkpt>
      <trkpt lat="46.95984" lon="5.12003">
        <ele>181.10059</ele>
        <time>2026-05-14T14:44:55+02:00</time>
      </trkpt>
      <trkpt lat="46.9599" lon="5.12005">
        <ele>181</ele>
        <time>2026-05-14T14:44:56+02:00</time>
      </trkpt>
      <trkpt lat="46.95996" lon="5.12008">
        <ele>181.10059</ele>
        <time>2026-05-14T14:44:57+02:00</time>
      </trkpt>
      <trkpt lat="46.96002" lon="5.12012">
        <ele>181.2998</ele>
        <time>2026-05-14T14:44:58+02:00</time>
      </trkpt>
      <trkpt lat="46.96007" lon="5.12017">
        <ele>181.2002</ele>
        <time>2026-05-14T14:44:59+02:00</time>
      </trkpt>
      <trkpt lat="46.96011" lon="5.12024">
        <ele>180.90039</ele>
        <time>2026-05-14T14:45:00+02:00</time>
      </trkpt>
      <trkpt lat="46.96015" lon="5.1203">
        <ele>180.90039</ele>
        <time>2026-05-14T14:45:01+02:00</time>
      </trkpt>
      <trkpt lat="46.96019" lon="5.12037">
        <ele>180.5</ele>
        <time>2026-05-14T14:45:02+02:00</time>
      </trkpt>
      <trkpt lat="46.96023" lon="5.12043">
        <ele>180.40039</ele>
        <time>2026-05-14T14:45:03+02:00</time>
      </trkpt>
      <trkpt lat="46.96028" lon="5.12049">
        <ele>180.60059</ele>
        <time>2026-05-14T14:45:04+02:00</time>
      </trkpt>
      <trkpt lat="46.96031" lon="5.12055">
        <ele>180.60059</ele>
        <time>2026-05-14T14:45:05+02:00</time>
      </trkpt>
      <trkpt lat="46.96035" lon="5.12061">
        <ele>180.7998</ele>
        <time>2026-05-14T14:45:06+02:00</time>
      </trkpt>
      <trkpt lat="46.96039" lon="5.12067">
        <ele>180.90039</ele>
        <time>2026-05-14T14:45:07+02:00</time>
      </trkpt>
      <trkpt lat="46.96043" lon="5.12072">
        <ele>180.7998</ele>
        <time>2026-05-14T14:45:08+02:00</time>
      </trkpt>
      <trkpt lat="46.96048" lon="5.12078">
        <ele>180.7002</ele>
        <time>2026-05-14T14:45:09+02:00</time>
      </trkpt>
      <trkpt lat="46.96053" lon="5.12082">
        <ele>180.5</ele>
        <time>2026-05-14T14:45:10+02:00</time>
      </trkpt>
      <trkpt lat="46.96058" lon="5.12085">
        <ele>180.60059</ele>
        <time>2026-05-14T14:45:11+02:00</time>
      </trkpt>
      <trkpt lat="46.96064" lon="5.12086">
        <ele>180.60059</ele>
        <time>2026-05-14T14:45:12+02:00</time>
      </trkpt>
      <trkpt lat="46.9607" lon="5.12088">
        <ele>180.60059</ele>
        <time>2026-05-14T14:45:13+02:00</time>
      </trkpt>
      <trkpt lat="46.96077" lon="5.12089">
        <ele>180.5</ele>
        <time>2026-05-14T14:45:14+02:00</time>
      </trkpt>
      <trkpt lat="46.96084" lon="5.12092">
        <ele>180.60059</ele>
        <time>2026-05-14T14:45:15+02:00</time>
      </trkpt>
      <trkpt lat="46.9609" lon="5.12096">
        <ele>180.2002</ele>
        <time>2026-05-14T14:45:16+02:00</time>
      </trkpt>
      <trkpt lat="46.96097" lon="5.121">
        <ele>179.5</ele>
        <time>2026-05-14T14:45:17+02:00</time>
      </trkpt>
      <trkpt lat="46.96103" lon="5.12105">
        <ele>179.90039</ele>
        <time>2026-05-14T14:45:18+02:00</time>
      </trkpt>
      <trkpt lat="46.96108" lon="5.1211">
        <ele>180.5</ele>
        <time>2026-05-14T14:45:19+02:00</time>
      </trkpt>
      <trkpt lat="46.96114" lon="5.12116">
        <ele>179.90039</ele>
        <time>2026-05-14T14:45:20+02:00</time>
      </trkpt>
      <trkpt lat="46.96119" lon="5.1212">
        <ele>179.2998</ele>
        <time>2026-05-14T14:45:21+02:00</time>
      </trkpt>
      <trkpt lat="46.96122" lon="5.12123">
        <ele>178.2002</ele>
        <time>2026-05-14T14:45:22+02:00</time>
      </trkpt>
      <trkpt lat="46.96126" lon="5.12125">
        <ele>178.2002</ele>
        <time>2026-05-14T14:45:23+02:00</time>
      </trkpt>
      <trkpt lat="46.96129" lon="5.12126">
        <ele>178.60059</ele>
        <time>2026-05-14T14:45:24+02:00</time>
      </trkpt>
      <trkpt lat="46.96133" lon="5.12128">
        <ele>178.60059</ele>
        <time>2026-05-14T14:45:25+02:00</time>
      </trkpt>
      <trkpt lat="46.96137" lon="5.1213">
        <ele>178</ele>
        <time>2026-05-14T14:45:26+02:00</time>
      </trkpt>
      <trkpt lat="46.9614" lon="5.12132">
        <ele>177.2998</ele>
        <time>2026-05-14T14:45:27+02:00</time>
      </trkpt>
      <trkpt lat="46.96145" lon="5.12134">
        <ele>177.2998</ele>
        <time>2026-05-14T14:45:28+02:00</time>
      </trkpt>
      <trkpt lat="46.96149" lon="5.12136">
        <ele>177.2998</ele>
        <time>2026-05-14T14:45:29+02:00</time>
      </trkpt>
      <trkpt lat="46.96153" lon="5.12138">
        <ele>176.60059</ele>
        <time>2026-05-14T14:45:30+02:00</time>
      </trkpt>
      <trkpt lat="46.96158" lon="5.1214">
        <ele>176.10059</ele>
        <time>2026-05-14T14:45:31+02:00</time>
      </trkpt>
      <trkpt lat="46.96163" lon="5.12142">
        <ele>175.7002</ele>
        <time>2026-05-14T14:45:32+02:00</time>
      </trkpt>
      <trkpt lat="46.96168" lon="5.12144">
        <ele>176.2002</ele>
        <time>2026-05-14T14:45:33+02:00</time>
      </trkpt>
      <trkpt lat="46.96174" lon="5.12146">
        <ele>175.7998</ele>
        <time>2026-05-14T14:45:34+02:00</time>
      </trkpt>
      <trkpt lat="46.9618" lon="5.12147">
        <ele>175.60059</ele>
        <time>2026-05-14T14:45:35+02:00</time>
      </trkpt>
      <trkpt lat="46.96185" lon="5.12149">
        <ele>175.5</ele>
        <time>2026-05-14T14:45:36+02:00</time>
      </trkpt>
      <trkpt lat="46.96191" lon="5.12149">
        <ele>175.40039</ele>
        <time>2026-05-14T14:45:37+02:00</time>
      </trkpt>
      <trkpt lat="46.96197" lon="5.1215">
        <ele>175.2998</ele>
        <time>2026-05-14T14:45:38+02:00</time>
      </trkpt>
      <trkpt lat="46.96203" lon="5.1215">
        <ele>175.2002</ele>
        <time>2026-05-14T14:45:39+02:00</time>
      </trkpt>
      <trkpt lat="46.96209" lon="5.1215">
        <ele>175.2002</ele>
        <time>2026-05-14T14:45:40+02:00</time>
      </trkpt>
      <trkpt lat="46.96216" lon="5.1215">
        <ele>175.10059</ele>
        <time>2026-05-14T14:45:41+02:00</time>
      </trkpt>
      <trkpt lat="46.96222" lon="5.1215">
        <ele>175.10059</ele>
        <time>2026-05-14T14:45:42+02:00</time>
      </trkpt>
      <trkpt lat="46.96228" lon="5.12149">
        <ele>175</ele>
        <time>2026-05-14T14:45:43+02:00</time>
      </trkpt>
      <trkpt lat="46.96234" lon="5.12148">
        <ele>175</ele>
        <time>2026-05-14T14:45:44+02:00</time>
      </trkpt>
      <trkpt lat="46.96241" lon="5.12147">
        <ele>175</ele>
        <time>2026-05-14T14:45:45+02:00</time>
      </trkpt>
      <trkpt lat="46.96247" lon="5.12146">
        <ele>175</ele>
        <time>2026-05-14T14:45:46+02:00</time>
      </trkpt>
      <trkpt lat="46.96253" lon="5.12144">
        <ele>174.90039</ele>
        <time>2026-05-14T14:45:47+02:00</time>
      </trkpt>
      <trkpt lat="46.9626" lon="5.12142">
        <ele>174.10059</ele>
        <time>2026-05-14T14:45:48+02:00</time>
      </trkpt>
      <trkpt lat="46.96266" lon="5.1214">
        <ele>174.2002</ele>
        <time>2026-05-14T14:45:49+02:00</time>
      </trkpt>
      <trkpt lat="46.96272" lon="5.12137">
        <ele>174.2998</ele>
        <time>2026-05-14T14:45:50+02:00</time>
      </trkpt>
      <trkpt lat="46.96277" lon="5.12134">
        <ele>174.2998</ele>
        <time>2026-05-14T14:45:51+02:00</time>
      </trkpt>
      <trkpt lat="46.96283" lon="5.1213">
        <ele>174.60059</ele>
        <time>2026-05-14T14:45:52+02:00</time>
      </trkpt>
      <trkpt lat="46.96289" lon="5.12126">
        <ele>174.7998</ele>
        <time>2026-05-14T14:45:53+02:00</time>
      </trkpt>
      <trkpt lat="46.96294" lon="5.12122">
        <ele>174.7998</ele>
        <time>2026-05-14T14:45:54+02:00</time>
      </trkpt>
      <trkpt lat="46.963" lon="5.12118">
        <ele>175</ele>
        <time>2026-05-14T14:45:55+02:00</time>
      </trkpt>
      <trkpt lat="46.96306" lon="5.12115">
        <ele>174.7998</ele>
        <time>2026-05-14T14:45:56+02:00</time>
      </trkpt>
      <trkpt lat="46.96311" lon="5.12112">
        <ele>174.7998</ele>
        <time>2026-05-14T14:45:57+02:00</time>
      </trkpt>
      <trkpt lat="46.96317" lon="5.12109">
        <ele>174.7002</ele>
        <time>2026-05-14T14:45:58+02:00</time>
      </trkpt>
      <trkpt lat="46.96323" lon="5.12106">
        <ele>174.40039</ele>
        <time>2026-05-14T14:45:59+02:00</time>
      </trkpt>
      <trkpt lat="46.96328" lon="5.12103">
        <ele>174.2998</ele>
        <time>2026-05-14T14:46:00+02:00</time>
      </trkpt>
      <trkpt lat="46.96334" lon="5.12098">
        <ele>174.2002</ele>
        <time>2026-05-14T14:46:01+02:00</time>
      </trkpt>
      <trkpt lat="46.96339" lon="5.12095">
        <ele>174.2002</ele>
        <time>2026-05-14T14:46:02+02:00</time>
      </trkpt>
      <trkpt lat="46.96345" lon="5.12092">
        <ele>174.10059</ele>
        <time>2026-05-14T14:46:03+02:00</time>
      </trkpt>
      <trkpt lat="46.9635" lon="5.12088">
        <ele>174.10059</ele>
        <time>2026-05-14T14:46:04+02:00</time>
      </trkpt>
      <trkpt lat="46.96356" lon="5.12085">
        <ele>174.10059</ele>
        <time>2026-05-14T14:46:05+02:00</time>
      </trkpt>
      <trkpt lat="46.96362" lon="5.12081">
        <ele>174</ele>
        <time>2026-05-14T14:46:06+02:00</time>
      </trkpt>
      <trkpt lat="46.96368" lon="5.12077">
        <ele>174</ele>
        <time>2026-05-14T14:46:07+02:00</time>
      </trkpt>
      <trkpt lat="46.96374" lon="5.12073">
        <ele>174</ele>
        <time>2026-05-14T14:46:08+02:00</time>
      </trkpt>
      <trkpt lat="46.9638" lon="5.12069">
        <ele>174</ele>
        <time>2026-05-14T14:46:09+02:00</time>
      </trkpt>
      <trkpt lat="46.96386" lon="5.12065">
        <ele>174</ele>
        <time>2026-05-14T14:46:10+02:00</time>
      </trkpt>
      <trkpt lat="46.96391" lon="5.12062">
        <ele>174</ele>
        <time>2026-05-14T14:46:11+02:00</time>
      </trkpt>
      <trkpt lat="46.96397" lon="5.12058">
        <ele>174</ele>
        <time>2026-05-14T14:46:12+02:00</time>
      </trkpt>
      <trkpt lat="46.96403" lon="5.12054">
        <ele>174.10059</ele>
        <time>2026-05-14T14:46:13+02:00</time>
      </trkpt>
      <trkpt lat="46.96409" lon="5.12049">
        <ele>174.10059</ele>
        <time>2026-05-14T14:46:14+02:00</time>
      </trkpt>
      <trkpt lat="46.96415" lon="5.12045">
        <ele>174</ele>
        <time>2026-05-14T14:46:15+02:00</time>
      </trkpt>
      <trkpt lat="46.96421" lon="5.12041">
        <ele>174.10059</ele>
        <time>2026-05-14T14:46:16+02:00</time>
      </trkpt>
      <trkpt lat="46.96427" lon="5.12036">
        <ele>174</ele>
        <time>2026-05-14T14:46:17+02:00</time>
      </trkpt>
      <trkpt lat="46.96433" lon="5.12032">
        <ele>174</ele>
        <time>2026-05-14T14:46:18+02:00</time>
      </trkpt>
      <trkpt lat="46.96439" lon="5.12028">
        <ele>174</ele>
        <time>2026-05-14T14:46:19+02:00</time>
      </trkpt>
      <trkpt lat="46.96445" lon="5.12024">
        <ele>174</ele>
        <time>2026-05-14T14:46:20+02:00</time>
      </trkpt>
      <trkpt lat="46.96451" lon="5.1202">
        <ele>174</ele>
        <time>2026-05-14T14:46:21+02:00</time>
      </trkpt>
      <trkpt lat="46.96457" lon="5.12016">
        <ele>174.10059</ele>
        <time>2026-05-14T14:46:22+02:00</time>
      </trkpt>
      <trkpt lat="46.96462" lon="5.12012">
        <ele>174.10059</ele>
        <time>2026-05-14T14:46:23+02:00</time>
      </trkpt>
      <trkpt lat="46.96468" lon="5.12008">
        <ele>174.10059</ele>
        <time>2026-05-14T14:46:24+02:00</time>
      </trkpt>
      <trkpt lat="46.96474" lon="5.12004">
        <ele>174.10059</ele>
        <time>2026-05-14T14:46:25+02:00</time>
      </trkpt>
      <trkpt lat="46.9648" lon="5.12">
        <ele>174.10059</ele>
        <time>2026-05-14T14:46:26+02:00</time>
      </trkpt>
      <trkpt lat="46.96486" lon="5.11997">
        <ele>174</ele>
        <time>2026-05-14T14:46:27+02:00</time>
      </trkpt>
      <trkpt lat="46.96492" lon="5.11993">
        <ele>174.10059</ele>
        <time>2026-05-14T14:46:28+02:00</time>
      </trkpt>
      <trkpt lat="46.96498" lon="5.11989">
        <ele>174.10059</ele>
        <time>2026-05-14T14:46:29+02:00</time>
      </trkpt>
      <trkpt lat="46.96504" lon="5.11985">
        <ele>174.10059</ele>
        <time>2026-05-14T14:46:30+02:00</time>
      </trkpt>
      <trkpt lat="46.9651" lon="5.11982">
        <ele>174.10059</ele>
        <time>2026-05-14T14:46:31+02:00</time>
      </trkpt>
      <trkpt lat="46.96517" lon="5.11979">
        <ele>174.10059</ele>
        <time>2026-05-14T14:46:32+02:00</time>
      </trkpt>
      <trkpt lat="46.96523" lon="5.11976">
        <ele>174.10059</ele>
        <time>2026-05-14T14:46:33+02:00</time>
      </trkpt>
      <trkpt lat="46.96529" lon="5.11974">
        <ele>174.10059</ele>
        <time>2026-05-14T14:46:34+02:00</time>
      </trkpt>
      <trkpt lat="46.96535" lon="5.11971">
        <ele>174.10059</ele>
        <time>2026-05-14T14:46:35+02:00</time>
      </trkpt>
      <trkpt lat="46.96542" lon="5.11968">
        <ele>174.10059</ele>
        <time>2026-05-14T14:46:36+02:00</time>
      </trkpt>
      <trkpt lat="46.96548" lon="5.11966">
        <ele>174.10059</ele>
        <time>2026-05-14T14:46:37+02:00</time>
      </trkpt>
      <trkpt lat="46.96555" lon="5.11964">
        <ele>174.10059</ele>
        <time>2026-05-14T14:46:38+02:00</time>
      </trkpt>
      <trkpt lat="46.96561" lon="5.11962">
        <ele>174.10059</ele>
        <time>2026-05-14T14:46:39+02:00</time>
      </trkpt>
      <trkpt lat="46.96567" lon="5.1196">
        <ele>174.2002</ele>
        <time>2026-05-14T14:46:40+02:00</time>
      </trkpt>
      <trkpt lat="46.96574" lon="5.11958">
        <ele>174.2998</ele>
        <time>2026-05-14T14:46:41+02:00</time>
      </trkpt>
      <trkpt lat="46.96581" lon="5.11957">
        <ele>174.40039</ele>
        <time>2026-05-14T14:46:42+02:00</time>
      </trkpt>
      <trkpt lat="46.96587" lon="5.11956">
        <ele>174.5</ele>
        <time>2026-05-14T14:46:43+02:00</time>
      </trkpt>
      <trkpt lat="46.96594" lon="5.11955">
        <ele>174.7002</ele>
        <time>2026-05-14T14:46:44+02:00</time>
      </trkpt>
      <trkpt lat="46.966" lon="5.11954">
        <ele>174.5</ele>
        <time>2026-05-14T14:46:45+02:00</time>
      </trkpt>
      <trkpt lat="46.96607" lon="5.11953">
        <ele>174.60059</ele>
        <time>2026-05-14T14:46:46+02:00</time>
      </trkpt>
      <trkpt lat="46.96613" lon="5.11952">
        <ele>174.60059</ele>
        <time>2026-05-14T14:46:47+02:00</time>
      </trkpt>
      <trkpt lat="46.9662" lon="5.11951">
        <ele>174.7002</ele>
        <time>2026-05-14T14:46:48+02:00</time>
      </trkpt>
      <trkpt lat="46.96626" lon="5.11951">
        <ele>174.7998</ele>
        <time>2026-05-14T14:46:49+02:00</time>
      </trkpt>
      <trkpt lat="46.96633" lon="5.1195">
        <ele>174.7998</ele>
        <time>2026-05-14T14:46:50+02:00</time>
      </trkpt>
      <trkpt lat="46.96639" lon="5.11949">
        <ele>174.90039</ele>
        <time>2026-05-14T14:46:51+02:00</time>
      </trkpt>
      <trkpt lat="46.96646" lon="5.11948">
        <ele>174.90039</ele>
        <time>2026-05-14T14:46:52+02:00</time>
      </trkpt>
      <trkpt lat="46.96652" lon="5.11947">
        <ele>175</ele>
        <time>2026-05-14T14:46:53+02:00</time>
      </trkpt>
      <trkpt lat="46.96659" lon="5.11947">
        <ele>175.10059</ele>
        <time>2026-05-14T14:46:54+02:00</time>
      </trkpt>
      <trkpt lat="46.96665" lon="5.11946">
        <ele>175.10059</ele>
        <time>2026-05-14T14:46:55+02:00</time>
      </trkpt>
      <trkpt lat="46.96672" lon="5.11945">
        <ele>174.7998</ele>
        <time>2026-05-14T14:46:56+02:00</time>
      </trkpt>
      <trkpt lat="46.96678" lon="5.11945">
        <ele>174.90039</ele>
        <time>2026-05-14T14:46:57+02:00</time>
      </trkpt>
      <trkpt lat="46.96684" lon="5.11944">
        <ele>174.90039</ele>
        <time>2026-05-14T14:46:58+02:00</time>
      </trkpt>
      <trkpt lat="46.96691" lon="5.11943">
        <ele>175</ele>
        <time>2026-05-14T14:46:59+02:00</time>
      </trkpt>
      <trkpt lat="46.96697" lon="5.11943">
        <ele>175.10059</ele>
        <time>2026-05-14T14:47:00+02:00</time>
      </trkpt>
      <trkpt lat="46.96704" lon="5.11942">
        <ele>175.10059</ele>
        <time>2026-05-14T14:47:01+02:00</time>
      </trkpt>
      <trkpt lat="46.9671" lon="5.11942">
        <ele>175.2002</ele>
        <time>2026-05-14T14:47:02+02:00</time>
      </trkpt>
      <trkpt lat="46.96717" lon="5.11941">
        <ele>175.2002</ele>
        <time>2026-05-14T14:47:03+02:00</time>
      </trkpt>
      <trkpt lat="46.96723" lon="5.11941">
        <ele>175.2998</ele>
        <time>2026-05-14T14:47:04+02:00</time>
      </trkpt>
      <trkpt lat="46.96729" lon="5.11941">
        <ele>175.40039</ele>
        <time>2026-05-14T14:47:05+02:00</time>
      </trkpt>
      <trkpt lat="46.96736" lon="5.11941">
        <ele>175.40039</ele>
        <time>2026-05-14T14:47:06+02:00</time>
      </trkpt>
      <trkpt lat="46.96743" lon="5.11941">
        <ele>175.60059</ele>
        <time>2026-05-14T14:47:07+02:00</time>
      </trkpt>
      <trkpt lat="46.96749" lon="5.11941">
        <ele>175.60059</ele>
        <time>2026-05-14T14:47:08+02:00</time>
      </trkpt>
      <trkpt lat="46.96756" lon="5.11941">
        <ele>175.60059</ele>
        <time>2026-05-14T14:47:09+02:00</time>
      </trkpt>
      <trkpt lat="46.96762" lon="5.11941">
        <ele>175.60059</ele>
        <time>2026-05-14T14:47:10+02:00</time>
      </trkpt>
      <trkpt lat="46.96769" lon="5.11941">
        <ele>175.5</ele>
        <time>2026-05-14T14:47:11+02:00</time>
      </trkpt>
      <trkpt lat="46.96775" lon="5.11941">
        <ele>175.40039</ele>
        <time>2026-05-14T14:47:12+02:00</time>
      </trkpt>
      <trkpt lat="46.96782" lon="5.11941">
        <ele>175.40039</ele>
        <time>2026-05-14T14:47:13+02:00</time>
      </trkpt>
      <trkpt lat="46.96788" lon="5.11942">
        <ele>175.2998</ele>
        <time>2026-05-14T14:47:14+02:00</time>
      </trkpt>
      <trkpt lat="46.96794" lon="5.11943">
        <ele>175.2998</ele>
        <time>2026-05-14T14:47:15+02:00</time>
      </trkpt>
      <trkpt lat="46.96801" lon="5.11944">
        <ele>175.2998</ele>
        <time>2026-05-14T14:47:16+02:00</time>
      </trkpt>
      <trkpt lat="46.96807" lon="5.11946">
        <ele>175.7002</ele>
        <time>2026-05-14T14:47:17+02:00</time>
      </trkpt>
      <trkpt lat="46.96814" lon="5.11947">
        <ele>175.7002</ele>
        <time>2026-05-14T14:47:18+02:00</time>
      </trkpt>
      <trkpt lat="46.9682" lon="5.11948">
        <ele>175.7002</ele>
        <time>2026-05-14T14:47:19+02:00</time>
      </trkpt>
      <trkpt lat="46.96826" lon="5.11949">
        <ele>175.60059</ele>
        <time>2026-05-14T14:47:20+02:00</time>
      </trkpt>
      <trkpt lat="46.96833" lon="5.11949">
        <ele>175.60059</ele>
        <time>2026-05-14T14:47:21+02:00</time>
      </trkpt>
      <trkpt lat="46.96839" lon="5.1195">
        <ele>175.5</ele>
        <time>2026-05-14T14:47:22+02:00</time>
      </trkpt>
      <trkpt lat="46.96846" lon="5.1195">
        <ele>175.40039</ele>
        <time>2026-05-14T14:47:23+02:00</time>
      </trkpt>
      <trkpt lat="46.96852" lon="5.11951">
        <ele>175.2998</ele>
        <time>2026-05-14T14:47:24+02:00</time>
      </trkpt>
      <trkpt lat="46.96858" lon="5.11951">
        <ele>175.2002</ele>
        <time>2026-05-14T14:47:25+02:00</time>
      </trkpt>
      <trkpt lat="46.96865" lon="5.11952">
        <ele>175.10059</ele>
        <time>2026-05-14T14:47:26+02:00</time>
      </trkpt>
      <trkpt lat="46.96871" lon="5.11953">
        <ele>175</ele>
        <time>2026-05-14T14:47:27+02:00</time>
      </trkpt>
      <trkpt lat="46.96877" lon="5.11955">
        <ele>175.40039</ele>
        <time>2026-05-14T14:47:28+02:00</time>
      </trkpt>
      <trkpt lat="46.96883" lon="5.11957">
        <ele>175.10059</ele>
        <time>2026-05-14T14:47:29+02:00</time>
      </trkpt>
      <trkpt lat="46.96889" lon="5.1196">
        <ele>174.7998</ele>
        <time>2026-05-14T14:47:30+02:00</time>
      </trkpt>
      <trkpt lat="46.96895" lon="5.11962">
        <ele>174.7998</ele>
        <time>2026-05-14T14:47:31+02:00</time>
      </trkpt>
      <trkpt lat="46.969" lon="5.11965">
        <ele>174.7998</ele>
        <time>2026-05-14T14:47:32+02:00</time>
      </trkpt>
      <trkpt lat="46.96906" lon="5.11968">
        <ele>174.7002</ele>
        <time>2026-05-14T14:47:33+02:00</time>
      </trkpt>
      <trkpt lat="46.96912" lon="5.11971">
        <ele>174.7002</ele>
        <time>2026-05-14T14:47:34+02:00</time>
      </trkpt>
      <trkpt lat="46.96918" lon="5.11974">
        <ele>174.90039</ele>
        <time>2026-05-14T14:47:35+02:00</time>
      </trkpt>
      <trkpt lat="46.96925" lon="5.11976">
        <ele>175.2002</ele>
        <time>2026-05-14T14:47:36+02:00</time>
      </trkpt>
      <trkpt lat="46.96931" lon="5.11978">
        <ele>175.2998</ele>
        <time>2026-05-14T14:47:37+02:00</time>
      </trkpt>
      <trkpt lat="46.96937" lon="5.1198">
        <ele>175.2998</ele>
        <time>2026-05-14T14:47:38+02:00</time>
      </trkpt>
      <trkpt lat="46.96943" lon="5.11982">
        <ele>175.7998</ele>
        <time>2026-05-14T14:47:39+02:00</time>
      </trkpt>
      <trkpt lat="46.9695" lon="5.11983">
        <ele>175.5</ele>
        <time>2026-05-14T14:47:40+02:00</time>
      </trkpt>
      <trkpt lat="46.96956" lon="5.11984">
        <ele>175.2002</ele>
        <time>2026-05-14T14:47:41+02:00</time>
      </trkpt>
      <trkpt lat="46.96962" lon="5.11985">
        <ele>175</ele>
        <time>2026-05-14T14:47:42+02:00</time>
      </trkpt>
      <trkpt lat="46.96969" lon="5.11985">
        <ele>174.7002</ele>
        <time>2026-05-14T14:47:43+02:00</time>
      </trkpt>
      <trkpt lat="46.96975" lon="5.11985">
        <ele>174.60059</ele>
        <time>2026-05-14T14:47:44+02:00</time>
      </trkpt>
      <trkpt lat="46.96982" lon="5.11986">
        <ele>174.40039</ele>
        <time>2026-05-14T14:47:45+02:00</time>
      </trkpt>
      <trkpt lat="46.96988" lon="5.11987">
        <ele>174.2998</ele>
        <time>2026-05-14T14:47:46+02:00</time>
      </trkpt>
      <trkpt lat="46.96994" lon="5.11988">
        <ele>174.2002</ele>
        <time>2026-05-14T14:47:47+02:00</time>
      </trkpt>
      <trkpt lat="46.97001" lon="5.1199">
        <ele>174.2002</ele>
        <time>2026-05-14T14:47:48+02:00</time>
      </trkpt>
      <trkpt lat="46.97007" lon="5.11991">
        <ele>174.2002</ele>
        <time>2026-05-14T14:47:49+02:00</time>
      </trkpt>
      <trkpt lat="46.97013" lon="5.11994">
        <ele>174.2998</ele>
        <time>2026-05-14T14:47:50+02:00</time>
      </trkpt>
      <trkpt lat="46.9702" lon="5.11996">
        <ele>174.40039</ele>
        <time>2026-05-14T14:47:51+02:00</time>
      </trkpt>
      <trkpt lat="46.97026" lon="5.11999">
        <ele>174.7002</ele>
        <time>2026-05-14T14:47:52+02:00</time>
      </trkpt>
      <trkpt lat="46.97032" lon="5.12002">
        <ele>174.7002</ele>
        <time>2026-05-14T14:47:53+02:00</time>
      </trkpt>
      <trkpt lat="46.97039" lon="5.12005">
        <ele>174.7002</ele>
        <time>2026-05-14T14:47:54+02:00</time>
      </trkpt>
      <trkpt lat="46.97045" lon="5.12008">
        <ele>174.90039</ele>
        <time>2026-05-14T14:47:55+02:00</time>
      </trkpt>
      <trkpt lat="46.97051" lon="5.12011">
        <ele>174.90039</ele>
        <time>2026-05-14T14:47:56+02:00</time>
      </trkpt>
      <trkpt lat="46.97058" lon="5.12014">
        <ele>174.90039</ele>
        <time>2026-05-14T14:47:57+02:00</time>
      </trkpt>
      <trkpt lat="46.97064" lon="5.12017">
        <ele>175.2002</ele>
        <time>2026-05-14T14:47:58+02:00</time>
      </trkpt>
      <trkpt lat="46.9707" lon="5.1202">
        <ele>175.10059</ele>
        <time>2026-05-14T14:47:59+02:00</time>
      </trkpt>
      <trkpt lat="46.97076" lon="5.12023">
        <ele>175.40039</ele>
        <time>2026-05-14T14:48:00+02:00</time>
      </trkpt>
      <trkpt lat="46.97082" lon="5.12026">
        <ele>175.40039</ele>
        <time>2026-05-14T14:48:01+02:00</time>
      </trkpt>
      <trkpt lat="46.97088" lon="5.12029">
        <ele>175.5</ele>
        <time>2026-05-14T14:48:02+02:00</time>
      </trkpt>
      <trkpt lat="46.97094" lon="5.12033">
        <ele>175.7998</ele>
        <time>2026-05-14T14:48:03+02:00</time>
      </trkpt>
      <trkpt lat="46.971" lon="5.12037">
        <ele>175.60059</ele>
        <time>2026-05-14T14:48:04+02:00</time>
      </trkpt>
      <trkpt lat="46.97106" lon="5.12041">
        <ele>175.90039</ele>
        <time>2026-05-14T14:48:05+02:00</time>
      </trkpt>
      <trkpt lat="46.97112" lon="5.12045">
        <ele>175.90039</ele>
        <time>2026-05-14T14:48:06+02:00</time>
      </trkpt>
      <trkpt lat="46.97118" lon="5.12049">
        <ele>176.2002</ele>
        <time>2026-05-14T14:48:07+02:00</time>
      </trkpt>
      <trkpt lat="46.97124" lon="5.12053">
        <ele>176.10059</ele>
        <time>2026-05-14T14:48:08+02:00</time>
      </trkpt>
      <trkpt lat="46.9713" lon="5.12057">
        <ele>176.10059</ele>
        <time>2026-05-14T14:48:09+02:00</time>
      </trkpt>
      <trkpt lat="46.97136" lon="5.1206">
        <ele>176.2002</ele>
        <time>2026-05-14T14:48:10+02:00</time>
      </trkpt>
      <trkpt lat="46.97142" lon="5.12064">
        <ele>176</ele>
        <time>2026-05-14T14:48:11+02:00</time>
      </trkpt>
      <trkpt lat="46.97148" lon="5.12068">
        <ele>176</ele>
        <time>2026-05-14T14:48:12+02:00</time>
      </trkpt>
      <trkpt lat="46.97154" lon="5.12072">
        <ele>175.7998</ele>
        <time>2026-05-14T14:48:13+02:00</time>
      </trkpt>
      <trkpt lat="46.9716" lon="5.12077">
        <ele>176</ele>
        <time>2026-05-14T14:48:14+02:00</time>
      </trkpt>
      <trkpt lat="46.97166" lon="5.12081">
        <ele>175.7998</ele>
        <time>2026-05-14T14:48:15+02:00</time>
      </trkpt>
      <trkpt lat="46.97171" lon="5.12087">
        <ele>175.7002</ele>
        <time>2026-05-14T14:48:16+02:00</time>
      </trkpt>
      <trkpt lat="46.97177" lon="5.12092">
        <ele>175.5</ele>
        <time>2026-05-14T14:48:17+02:00</time>
      </trkpt>
      <trkpt lat="46.97182" lon="5.12098">
        <ele>175.2002</ele>
        <time>2026-05-14T14:48:18+02:00</time>
      </trkpt>
      <trkpt lat="46.97186" lon="5.12104">
        <ele>175.40039</ele>
        <time>2026-05-14T14:48:19+02:00</time>
      </trkpt>
      <trkpt lat="46.97191" lon="5.12111">
        <ele>175.40039</ele>
        <time>2026-05-14T14:48:20+02:00</time>
      </trkpt>
      <trkpt lat="46.97196" lon="5.12117">
        <ele>175.10059</ele>
        <time>2026-05-14T14:48:21+02:00</time>
      </trkpt>
      <trkpt lat="46.972" lon="5.12124">
        <ele>174.7998</ele>
        <time>2026-05-14T14:48:22+02:00</time>
      </trkpt>
      <trkpt lat="46.97204" lon="5.12131">
        <ele>174.7002</ele>
        <time>2026-05-14T14:48:23+02:00</time>
      </trkpt>
      <trkpt lat="46.97209" lon="5.12138">
        <ele>174.2998</ele>
        <time>2026-05-14T14:48:24+02:00</time>
      </trkpt>
      <trkpt lat="46.97212" lon="5.12146">
        <ele>174.2002</ele>
        <time>2026-05-14T14:48:25+02:00</time>
      </trkpt>
      <trkpt lat="46.97216" lon="5.12153">
        <ele>174.2002</ele>
        <time>2026-05-14T14:48:26+02:00</time>
      </trkpt>
      <trkpt lat="46.9722" lon="5.12161">
        <ele>174.10059</ele>
        <time>2026-05-14T14:48:27+02:00</time>
      </trkpt>
      <trkpt lat="46.97223" lon="5.12168">
        <ele>174.10059</ele>
        <time>2026-05-14T14:48:28+02:00</time>
      </trkpt>
      <trkpt lat="46.97227" lon="5.12176">
        <ele>174.10059</ele>
        <time>2026-05-14T14:48:29+02:00</time>
      </trkpt>
      <trkpt lat="46.9723" lon="5.12185">
        <ele>174.10059</ele>
        <time>2026-05-14T14:48:30+02:00</time>
      </trkpt>
      <trkpt lat="46.97233" lon="5.12193">
        <ele>174.10059</ele>
        <time>2026-05-14T14:48:31+02:00</time>
      </trkpt>
      <trkpt lat="46.97235" lon="5.12201">
        <ele>174</ele>
        <time>2026-05-14T14:48:32+02:00</time>
      </trkpt>
      <trkpt lat="46.97238" lon="5.1221">
        <ele>174.10059</ele>
        <time>2026-05-14T14:48:33+02:00</time>
      </trkpt>
      <trkpt lat="46.97239" lon="5.12219">
        <ele>174.10059</ele>
        <time>2026-05-14T14:48:34+02:00</time>
      </trkpt>
      <trkpt lat="46.97241" lon="5.12227">
        <ele>174.2002</ele>
        <time>2026-05-14T14:48:35+02:00</time>
      </trkpt>
      <trkpt lat="46.97242" lon="5.12236">
        <ele>174.2998</ele>
        <time>2026-05-14T14:48:36+02:00</time>
      </trkpt>
      <trkpt lat="46.97244" lon="5.12245">
        <ele>174.40039</ele>
        <time>2026-05-14T14:48:37+02:00</time>
      </trkpt>
      <trkpt lat="46.97246" lon="5.12254">
        <ele>174.5</ele>
        <time>2026-05-14T14:48:38+02:00</time>
      </trkpt>
      <trkpt lat="46.97247" lon="5.12263">
        <ele>174.60059</ele>
        <time>2026-05-14T14:48:39+02:00</time>
      </trkpt>
      <trkpt lat="46.97249" lon="5.12272">
        <ele>175</ele>
        <time>2026-05-14T14:48:40+02:00</time>
      </trkpt>
      <trkpt lat="46.97251" lon="5.12281">
        <ele>175.10059</ele>
        <time>2026-05-14T14:48:41+02:00</time>
      </trkpt>
      <trkpt lat="46.97254" lon="5.1229">
        <ele>175</ele>
        <time>2026-05-14T14:48:42+02:00</time>
      </trkpt>
      <trkpt lat="46.97256" lon="5.12298">
        <ele>175.2002</ele>
        <time>2026-05-14T14:48:43+02:00</time>
      </trkpt>
      <trkpt lat="46.97258" lon="5.12307">
        <ele>175.2998</ele>
        <time>2026-05-14T14:48:44+02:00</time>
      </trkpt>
      <trkpt lat="46.9726" lon="5.12316">
        <ele>175</ele>
        <time>2026-05-14T14:48:45+02:00</time>
      </trkpt>
      <trkpt lat="46.97263" lon="5.12324">
        <ele>175.10059</ele>
        <time>2026-05-14T14:48:46+02:00</time>
      </trkpt>
      <trkpt lat="46.97265" lon="5.12333">
        <ele>174.7998</ele>
        <time>2026-05-14T14:48:47+02:00</time>
      </trkpt>
      <trkpt lat="46.97266" lon="5.12342">
        <ele>174.7002</ele>
        <time>2026-05-14T14:48:48+02:00</time>
      </trkpt>
      <trkpt lat="46.97268" lon="5.12351">
        <ele>174.60059</ele>
        <time>2026-05-14T14:48:49+02:00</time>
      </trkpt>
      <trkpt lat="46.97269" lon="5.12361">
        <ele>174.40039</ele>
        <time>2026-05-14T14:48:50+02:00</time>
      </trkpt>
      <trkpt lat="46.9727" lon="5.1237">
        <ele>174.2002</ele>
        <time>2026-05-14T14:48:51+02:00</time>
      </trkpt>
      <trkpt lat="46.97271" lon="5.12379">
        <ele>174.10059</ele>
        <time>2026-05-14T14:48:52+02:00</time>
      </trkpt>
      <trkpt lat="46.97272" lon="5.12389">
        <ele>174.10059</ele>
        <time>2026-05-14T14:48:53+02:00</time>
      </trkpt>
      <trkpt lat="46.97273" lon="5.12399">
        <ele>174.10059</ele>
        <time>2026-05-14T14:48:54+02:00</time>
      </trkpt>
      <trkpt lat="46.97274" lon="5.12408">
        <ele>174.10059</ele>
        <time>2026-05-14T14:48:55+02:00</time>
      </trkpt>
      <trkpt lat="46.97275" lon="5.12417">
        <ele>174.10059</ele>
        <time>2026-05-14T14:48:56+02:00</time>
      </trkpt>
      <trkpt lat="46.97275" lon="5.12427">
        <ele>174.10059</ele>
        <time>2026-05-14T14:48:57+02:00</time>
      </trkpt>
      <trkpt lat="46.97276" lon="5.12436">
        <ele>174.2002</ele>
        <time>2026-05-14T14:48:58+02:00</time>
      </trkpt>
      <trkpt lat="46.97276" lon="5.12446">
        <ele>175</ele>
        <time>2026-05-14T14:48:59+02:00</time>
      </trkpt>
      <trkpt lat="46.97277" lon="5.12455">
        <ele>176.10059</ele>
        <time>2026-05-14T14:49:00+02:00</time>
      </trkpt>
      <trkpt lat="46.97278" lon="5.12465">
        <ele>177.2002</ele>
        <time>2026-05-14T14:49:01+02:00</time>
      </trkpt>
      <trkpt lat="46.97279" lon="5.12475">
        <ele>177.60059</ele>
        <time>2026-05-14T14:49:02+02:00</time>
      </trkpt>
      <trkpt lat="46.97279" lon="5.12484">
        <ele>177.7998</ele>
        <time>2026-05-14T14:49:03+02:00</time>
      </trkpt>
      <trkpt lat="46.9728" lon="5.12494">
        <ele>177.7998</ele>
        <time>2026-05-14T14:49:04+02:00</time>
      </trkpt>
      <trkpt lat="46.97281" lon="5.12503">
        <ele>177.7002</ele>
        <time>2026-05-14T14:49:05+02:00</time>
      </trkpt>
      <trkpt lat="46.97281" lon="5.12513">
        <ele>177.7002</ele>
        <time>2026-05-14T14:49:06+02:00</time>
      </trkpt>
      <trkpt lat="46.97282" lon="5.12522">
        <ele>177</ele>
        <time>2026-05-14T14:49:07+02:00</time>
      </trkpt>
      <trkpt lat="46.97283" lon="5.12532">
        <ele>177</ele>
        <time>2026-05-14T14:49:08+02:00</time>
      </trkpt>
      <trkpt lat="46.97283" lon="5.12542">
        <ele>177</ele>
        <time>2026-05-14T14:49:09+02:00</time>
      </trkpt>
      <trkpt lat="46.97284" lon="5.12552">
        <ele>177</ele>
        <time>2026-05-14T14:49:10+02:00</time>
      </trkpt>
      <trkpt lat="46.97284" lon="5.12562">
        <ele>176.90039</ele>
        <time>2026-05-14T14:49:11+02:00</time>
      </trkpt>
      <trkpt lat="46.97285" lon="5.12572">
        <ele>176.90039</ele>
        <time>2026-05-14T14:49:12+02:00</time>
      </trkpt>
      <trkpt lat="46.97286" lon="5.12581">
        <ele>176.7002</ele>
        <time>2026-05-14T14:49:13+02:00</time>
      </trkpt>
      <trkpt lat="46.97286" lon="5.1259">
        <ele>176.60059</ele>
        <time>2026-05-14T14:49:14+02:00</time>
      </trkpt>
      <trkpt lat="46.97287" lon="5.126">
        <ele>176.60059</ele>
        <time>2026-05-14T14:49:15+02:00</time>
      </trkpt>
      <trkpt lat="46.97288" lon="5.12609">
        <ele>175.60059</ele>
        <time>2026-05-14T14:49:16+02:00</time>
      </trkpt>
      <trkpt lat="46.97289" lon="5.12618">
        <ele>175.7002</ele>
        <time>2026-05-14T14:49:17+02:00</time>
      </trkpt>
      <trkpt lat="46.97289" lon="5.12627">
        <ele>175.7002</ele>
        <time>2026-05-14T14:49:18+02:00</time>
      </trkpt>
      <trkpt lat="46.9729" lon="5.12637">
        <ele>175.7002</ele>
        <time>2026-05-14T14:49:19+02:00</time>
      </trkpt>
      <trkpt lat="46.97291" lon="5.12646">
        <ele>175.7002</ele>
        <time>2026-05-14T14:49:20+02:00</time>
      </trkpt>
      <trkpt lat="46.97291" lon="5.12655">
        <ele>175.7002</ele>
        <time>2026-05-14T14:49:21+02:00</time>
      </trkpt>
      <trkpt lat="46.97292" lon="5.12664">
        <ele>175.60059</ele>
        <time>2026-05-14T14:49:22+02:00</time>
      </trkpt>
      <trkpt lat="46.97293" lon="5.12674">
        <ele>175.60059</ele>
        <time>2026-05-14T14:49:23+02:00</time>
      </trkpt>
      <trkpt lat="46.97294" lon="5.12683">
        <ele>174.7998</ele>
        <time>2026-05-14T14:49:24+02:00</time>
      </trkpt>
      <trkpt lat="46.97295" lon="5.12693">
        <ele>174.7002</ele>
        <time>2026-05-14T14:49:25+02:00</time>
      </trkpt>
      <trkpt lat="46.97296" lon="5.12702">
        <ele>174.7002</ele>
        <time>2026-05-14T14:49:26+02:00</time>
      </trkpt>
      <trkpt lat="46.97298" lon="5.12712">
        <ele>174.7002</ele>
        <time>2026-05-14T14:49:27+02:00</time>
      </trkpt>
      <trkpt lat="46.97299" lon="5.12721">
        <ele>174.7002</ele>
        <time>2026-05-14T14:49:28+02:00</time>
      </trkpt>
      <trkpt lat="46.97301" lon="5.1273">
        <ele>174.5</ele>
        <time>2026-05-14T14:49:29+02:00</time>
      </trkpt>
      <trkpt lat="46.97303" lon="5.12739">
        <ele>174.60059</ele>
        <time>2026-05-14T14:49:30+02:00</time>
      </trkpt>
      <trkpt lat="46.97305" lon="5.12749">
        <ele>174.7002</ele>
        <time>2026-05-14T14:49:31+02:00</time>
      </trkpt>
      <trkpt lat="46.97307" lon="5.12758">
        <ele>174.7002</ele>
        <time>2026-05-14T14:49:32+02:00</time>
      </trkpt>
      <trkpt lat="46.97308" lon="5.12767">
        <ele>174.7998</ele>
        <time>2026-05-14T14:49:33+02:00</time>
      </trkpt>
      <trkpt lat="46.97311" lon="5.12776">
        <ele>174.7002</ele>
        <time>2026-05-14T14:49:34+02:00</time>
      </trkpt>
      <trkpt lat="46.97313" lon="5.12785">
        <ele>174.7002</ele>
        <time>2026-05-14T14:49:35+02:00</time>
      </trkpt>
      <trkpt lat="46.97315" lon="5.12795">
        <ele>174.7002</ele>
        <time>2026-05-14T14:49:36+02:00</time>
      </trkpt>
      <trkpt lat="46.97318" lon="5.12803">
        <ele>174.7998</ele>
        <time>2026-05-14T14:49:37+02:00</time>
      </trkpt>
      <trkpt lat="46.97321" lon="5.12812">
        <ele>175</ele>
        <time>2026-05-14T14:49:38+02:00</time>
      </trkpt>
      <trkpt lat="46.97323" lon="5.12821">
        <ele>175.10059</ele>
        <time>2026-05-14T14:49:39+02:00</time>
      </trkpt>
      <trkpt lat="46.97326" lon="5.1283">
        <ele>175.40039</ele>
        <time>2026-05-14T14:49:40+02:00</time>
      </trkpt>
      <trkpt lat="46.97329" lon="5.12839">
        <ele>175.40039</ele>
        <time>2026-05-14T14:49:41+02:00</time>
      </trkpt>
      <trkpt lat="46.97331" lon="5.12848">
        <ele>175.5</ele>
        <time>2026-05-14T14:49:42+02:00</time>
      </trkpt>
      <trkpt lat="46.97334" lon="5.12856">
        <ele>175.7002</ele>
        <time>2026-05-14T14:49:43+02:00</time>
      </trkpt>
      <trkpt lat="46.97337" lon="5.12865">
        <ele>175.60059</ele>
        <time>2026-05-14T14:49:44+02:00</time>
      </trkpt>
      <trkpt lat="46.97339" lon="5.12874">
        <ele>175.7998</ele>
        <time>2026-05-14T14:49:45+02:00</time>
      </trkpt>
      <trkpt lat="46.97342" lon="5.12882">
        <ele>175.7002</ele>
        <time>2026-05-14T14:49:46+02:00</time>
      </trkpt>
      <trkpt lat="46.97345" lon="5.12891">
        <ele>175.90039</ele>
        <time>2026-05-14T14:49:47+02:00</time>
      </trkpt>
      <trkpt lat="46.97348" lon="5.12899">
        <ele>176</ele>
        <time>2026-05-14T14:49:48+02:00</time>
      </trkpt>
      <trkpt lat="46.97352" lon="5.12907">
        <ele>175.7998</ele>
        <time>2026-05-14T14:49:49+02:00</time>
      </trkpt>
      <trkpt lat="46.97355" lon="5.12915">
        <ele>176.2998</ele>
        <time>2026-05-14T14:49:50+02:00</time>
      </trkpt>
      <trkpt lat="46.9736" lon="5.12922">
        <ele>176.40039</ele>
        <time>2026-05-14T14:49:51+02:00</time>
      </trkpt>
      <trkpt lat="46.97363" lon="5.1293">
        <ele>176.5</ele>
        <time>2026-05-14T14:49:52+02:00</time>
      </trkpt>
      <trkpt lat="46.97368" lon="5.12937">
        <ele>176.10059</ele>
        <time>2026-05-14T14:49:53+02:00</time>
      </trkpt>
      <trkpt lat="46.97372" lon="5.12944">
        <ele>175.60059</ele>
        <time>2026-05-14T14:49:54+02:00</time>
      </trkpt>
      <trkpt lat="46.97376" lon="5.12952">
        <ele>175.2002</ele>
        <time>2026-05-14T14:49:55+02:00</time>
      </trkpt>
      <trkpt lat="46.9738" lon="5.12959">
        <ele>175.2998</ele>
        <time>2026-05-14T14:49:56+02:00</time>
      </trkpt>
      <trkpt lat="46.97384" lon="5.12967">
        <ele>175</ele>
        <time>2026-05-14T14:49:57+02:00</time>
      </trkpt>
      <trkpt lat="46.97388" lon="5.12974">
        <ele>175.10059</ele>
        <time>2026-05-14T14:49:58+02:00</time>
      </trkpt>
      <trkpt lat="46.97392" lon="5.12982">
        <ele>175.40039</ele>
        <time>2026-05-14T14:49:59+02:00</time>
      </trkpt>
      <trkpt lat="46.97396" lon="5.12989">
        <ele>175.2998</ele>
        <time>2026-05-14T14:50:00+02:00</time>
      </trkpt>
      <trkpt lat="46.974" lon="5.12996">
        <ele>175.2002</ele>
        <time>2026-05-14T14:50:01+02:00</time>
      </trkpt>
      <trkpt lat="46.97404" lon="5.13004">
        <ele>175.2998</ele>
        <time>2026-05-14T14:50:02+02:00</time>
      </trkpt>
      <trkpt lat="46.97408" lon="5.13011">
        <ele>175.2002</ele>
        <time>2026-05-14T14:50:03+02:00</time>
      </trkpt>
      <trkpt lat="46.97412" lon="5.13018">
        <ele>175.10059</ele>
        <time>2026-05-14T14:50:04+02:00</time>
      </trkpt>
      <trkpt lat="46.97416" lon="5.13025">
        <ele>175.2998</ele>
        <time>2026-05-14T14:50:05+02:00</time>
      </trkpt>
      <trkpt lat="46.97421" lon="5.13032">
        <ele>175.40039</ele>
        <time>2026-05-14T14:50:06+02:00</time>
      </trkpt>
      <trkpt lat="46.97425" lon="5.13039">
        <ele>175.60059</ele>
        <time>2026-05-14T14:50:07+02:00</time>
      </trkpt>
      <trkpt lat="46.97429" lon="5.13046">
        <ele>175.7002</ele>
        <time>2026-05-14T14:50:08+02:00</time>
      </trkpt>
      <trkpt lat="46.97434" lon="5.13053">
        <ele>175.7002</ele>
        <time>2026-05-14T14:50:09+02:00</time>
      </trkpt>
      <trkpt lat="46.97439" lon="5.13059">
        <ele>175.7002</ele>
        <time>2026-05-14T14:50:10+02:00</time>
      </trkpt>
      <trkpt lat="46.97444" lon="5.13066">
        <ele>175.60059</ele>
        <time>2026-05-14T14:50:11+02:00</time>
      </trkpt>
      <trkpt lat="46.97449" lon="5.13072">
        <ele>175.60059</ele>
        <time>2026-05-14T14:50:12+02:00</time>
      </trkpt>
      <trkpt lat="46.97453" lon="5.13078">
        <ele>175.60059</ele>
        <time>2026-05-14T14:50:13+02:00</time>
      </trkpt>
      <trkpt lat="46.97458" lon="5.13083">
        <ele>175.5</ele>
        <time>2026-05-14T14:50:14+02:00</time>
      </trkpt>
      <trkpt lat="46.97463" lon="5.13089">
        <ele>175.5</ele>
        <time>2026-05-14T14:50:15+02:00</time>
      </trkpt>
      <trkpt lat="46.97468" lon="5.13094">
        <ele>175.2998</ele>
        <time>2026-05-14T14:50:16+02:00</time>
      </trkpt>
      <trkpt lat="46.97474" lon="5.13098">
        <ele>175.2998</ele>
        <time>2026-05-14T14:50:17+02:00</time>
      </trkpt>
      <trkpt lat="46.97479" lon="5.13101">
        <ele>175.2002</ele>
        <time>2026-05-14T14:50:18+02:00</time>
      </trkpt>
      <trkpt lat="46.97485" lon="5.13105">
        <ele>175.2002</ele>
        <time>2026-05-14T14:50:19+02:00</time>
      </trkpt>
      <trkpt lat="46.9749" lon="5.13109">
        <ele>175.10059</ele>
        <time>2026-05-14T14:50:20+02:00</time>
      </trkpt>
      <trkpt lat="46.97496" lon="5.13112">
        <ele>174.90039</ele>
        <time>2026-05-14T14:50:21+02:00</time>
      </trkpt>
      <trkpt lat="46.97502" lon="5.13116">
        <ele>174.90039</ele>
        <time>2026-05-14T14:50:22+02:00</time>
      </trkpt>
      <trkpt lat="46.97508" lon="5.1312">
        <ele>174.7998</ele>
        <time>2026-05-14T14:50:23+02:00</time>
      </trkpt>
      <trkpt lat="46.97513" lon="5.13123">
        <ele>175</ele>
        <time>2026-05-14T14:50:24+02:00</time>
      </trkpt>
      <trkpt lat="46.97519" lon="5.13126">
        <ele>175</ele>
        <time>2026-05-14T14:50:25+02:00</time>
      </trkpt>
      <trkpt lat="46.97525" lon="5.13129">
        <ele>174.90039</ele>
        <time>2026-05-14T14:50:26+02:00</time>
      </trkpt>
      <trkpt lat="46.9753" lon="5.13132">
        <ele>175.10059</ele>
        <time>2026-05-14T14:50:27+02:00</time>
      </trkpt>
      <trkpt lat="46.97536" lon="5.13136">
        <ele>175</ele>
        <time>2026-05-14T14:50:28+02:00</time>
      </trkpt>
      <trkpt lat="46.97542" lon="5.13139">
        <ele>175.10059</ele>
        <time>2026-05-14T14:50:29+02:00</time>
      </trkpt>
      <trkpt lat="46.97547" lon="5.13142">
        <ele>175</ele>
        <time>2026-05-14T14:50:30+02:00</time>
      </trkpt>
      <trkpt lat="46.97553" lon="5.13146">
        <ele>174.90039</ele>
        <time>2026-05-14T14:50:31+02:00</time>
      </trkpt>
      <trkpt lat="46.97558" lon="5.13149">
        <ele>175.2998</ele>
        <time>2026-05-14T14:50:32+02:00</time>
      </trkpt>
      <trkpt lat="46.97564" lon="5.13153">
        <ele>175.2998</ele>
        <time>2026-05-14T14:50:33+02:00</time>
      </trkpt>
      <trkpt lat="46.97569" lon="5.13157">
        <ele>175.7002</ele>
        <time>2026-05-14T14:50:34+02:00</time>
      </trkpt>
      <trkpt lat="46.97575" lon="5.1316">
        <ele>175.7002</ele>
        <time>2026-05-14T14:50:35+02:00</time>
      </trkpt>
      <trkpt lat="46.9758" lon="5.13164">
        <ele>175.7002</ele>
        <time>2026-05-14T14:50:36+02:00</time>
      </trkpt>
      <trkpt lat="46.97586" lon="5.13167">
        <ele>175.40039</ele>
        <time>2026-05-14T14:50:37+02:00</time>
      </trkpt>
      <trkpt lat="46.97592" lon="5.1317">
        <ele>175.10059</ele>
        <time>2026-05-14T14:50:38+02:00</time>
      </trkpt>
      <trkpt lat="46.97597" lon="5.13172">
        <ele>175.10059</ele>
        <time>2026-05-14T14:50:39+02:00</time>
      </trkpt>
      <trkpt lat="46.97603" lon="5.13174">
        <ele>175.40039</ele>
        <time>2026-05-14T14:50:40+02:00</time>
      </trkpt>
      <trkpt lat="46.97609" lon="5.13176">
        <ele>175.40039</ele>
        <time>2026-05-14T14:50:41+02:00</time>
      </trkpt>
      <trkpt lat="46.97614" lon="5.13178">
        <ele>175.40039</ele>
        <time>2026-05-14T14:50:42+02:00</time>
      </trkpt>
      <trkpt lat="46.9762" lon="5.13179">
        <ele>175.40039</ele>
        <time>2026-05-14T14:50:43+02:00</time>
      </trkpt>
      <trkpt lat="46.97626" lon="5.13178">
        <ele>175.2998</ele>
        <time>2026-05-14T14:50:44+02:00</time>
      </trkpt>
      <trkpt lat="46.97632" lon="5.13177">
        <ele>175.2002</ele>
        <time>2026-05-14T14:50:45+02:00</time>
      </trkpt>
      <trkpt lat="46.97638" lon="5.13176">
        <ele>175.10059</ele>
        <time>2026-05-14T14:50:46+02:00</time>
      </trkpt>
      <trkpt lat="46.97643" lon="5.13175">
        <ele>175</ele>
        <time>2026-05-14T14:50:47+02:00</time>
      </trkpt>
      <trkpt lat="46.97649" lon="5.13175">
        <ele>174.90039</ele>
        <time>2026-05-14T14:50:48+02:00</time>
      </trkpt>
      <trkpt lat="46.97655" lon="5.13177">
        <ele>174.7998</ele>
        <time>2026-05-14T14:50:49+02:00</time>
      </trkpt>
      <trkpt lat="46.97661" lon="5.13179">
        <ele>174.7002</ele>
        <time>2026-05-14T14:50:50+02:00</time>
      </trkpt>
      <trkpt lat="46.97666" lon="5.13182">
        <ele>174.7002</ele>
        <time>2026-05-14T14:50:51+02:00</time>
      </trkpt>
      <trkpt lat="46.97672" lon="5.13184">
        <ele>174.60059</ele>
        <time>2026-05-14T14:50:52+02:00</time>
      </trkpt>
      <trkpt lat="46.97677" lon="5.13187">
        <ele>174.60059</ele>
        <time>2026-05-14T14:50:53+02:00</time>
      </trkpt>
      <trkpt lat="46.97683" lon="5.1319">
        <ele>174.5</ele>
        <time>2026-05-14T14:50:54+02:00</time>
      </trkpt>
      <trkpt lat="46.97688" lon="5.13193">
        <ele>174.7998</ele>
        <time>2026-05-14T14:50:55+02:00</time>
      </trkpt>
      <trkpt lat="46.97694" lon="5.13197">
        <ele>174.7002</ele>
        <time>2026-05-14T14:50:56+02:00</time>
      </trkpt>
      <trkpt lat="46.97699" lon="5.132">
        <ele>175</ele>
        <time>2026-05-14T14:50:57+02:00</time>
      </trkpt>
      <trkpt lat="46.97704" lon="5.13203">
        <ele>174.7998</ele>
        <time>2026-05-14T14:50:58+02:00</time>
      </trkpt>
      <trkpt lat="46.9771" lon="5.13207">
        <ele>174.7002</ele>
        <time>2026-05-14T14:50:59+02:00</time>
      </trkpt>
      <trkpt lat="46.97716" lon="5.13211">
        <ele>174.90039</ele>
        <time>2026-05-14T14:51:00+02:00</time>
      </trkpt>
      <trkpt lat="46.97721" lon="5.13215">
        <ele>174.90039</ele>
        <time>2026-05-14T14:51:01+02:00</time>
      </trkpt>
      <trkpt lat="46.97726" lon="5.13219">
        <ele>175.2002</ele>
        <time>2026-05-14T14:51:02+02:00</time>
      </trkpt>
      <trkpt lat="46.97732" lon="5.13223">
        <ele>175.2998</ele>
        <time>2026-05-14T14:51:03+02:00</time>
      </trkpt>
      <trkpt lat="46.97737" lon="5.13227">
        <ele>175.90039</ele>
        <time>2026-05-14T14:51:04+02:00</time>
      </trkpt>
      <trkpt lat="46.97742" lon="5.13232">
        <ele>176.10059</ele>
        <time>2026-05-14T14:51:05+02:00</time>
      </trkpt>
      <trkpt lat="46.97747" lon="5.13236">
        <ele>177.10059</ele>
        <time>2026-05-14T14:51:06+02:00</time>
      </trkpt>
      <trkpt lat="46.97751" lon="5.13239">
        <ele>177.40039</ele>
        <time>2026-05-14T14:51:07+02:00</time>
      </trkpt>
      <trkpt lat="46.97756" lon="5.13242">
        <ele>178</ele>
        <time>2026-05-14T14:51:08+02:00</time>
      </trkpt>
      <trkpt lat="46.97759" lon="5.13245">
        <ele>178.2998</ele>
        <time>2026-05-14T14:51:09+02:00</time>
      </trkpt>
      <trkpt lat="46.97762" lon="5.13247">
        <ele>178.5</ele>
        <time>2026-05-14T14:51:10+02:00</time>
      </trkpt>
      <trkpt lat="46.97765" lon="5.1325">
        <ele>178.5</ele>
        <time>2026-05-14T14:51:11+02:00</time>
      </trkpt>
      <trkpt lat="46.97767" lon="5.13252">
        <ele>178.40039</ele>
        <time>2026-05-14T14:51:12+02:00</time>
      </trkpt>
      <trkpt lat="46.97769" lon="5.13255">
        <ele>178.5</ele>
        <time>2026-05-14T14:51:13+02:00</time>
      </trkpt>
      <trkpt lat="46.97771" lon="5.13256">
        <ele>178.5</ele>
        <time>2026-05-14T14:51:14+02:00</time>
      </trkpt>
      <trkpt lat="46.97773" lon="5.13258">
        <ele>178.5</ele>
        <time>2026-05-14T14:51:15+02:00</time>
      </trkpt>
      <trkpt lat="46.97777" lon="5.13261">
        <ele>178.2002</ele>
        <time>2026-05-14T14:51:16+02:00</time>
      </trkpt>
      <trkpt lat="46.9778" lon="5.13263">
        <ele>178.40039</ele>
        <time>2026-05-14T14:51:17+02:00</time>
      </trkpt>
      <trkpt lat="46.97784" lon="5.13265">
        <ele>178.40039</ele>
        <time>2026-05-14T14:51:18+02:00</time>
      </trkpt>
      <trkpt lat="46.97788" lon="5.13268">
        <ele>178</ele>
        <time>2026-05-14T14:51:19+02:00</time>
      </trkpt>
      <trkpt lat="46.97791" lon="5.1327">
        <ele>178</ele>
        <time>2026-05-14T14:51:20+02:00</time>
      </trkpt>
      <trkpt lat="46.97794" lon="5.13273">
        <ele>178.2998</ele>
        <time>2026-05-14T14:51:21+02:00</time>
      </trkpt>
      <trkpt lat="46.97796" lon="5.13275">
        <ele>178.2998</ele>
        <time>2026-05-14T14:51:22+02:00</time>
      </trkpt>
      <trkpt lat="46.97798" lon="5.13276">
        <ele>178.5</ele>
        <time>2026-05-14T14:51:23+02:00</time>
      </trkpt>
      <trkpt lat="46.97799" lon="5.13277">
        <ele>178.10059</ele>
        <time>2026-05-14T14:51:24+02:00</time>
      </trkpt>
      <trkpt lat="46.97799" lon="5.13277">
        <ele>178.10059</ele>
        <time>2026-05-14T14:51:25+02:00</time>
      </trkpt>
      <trkpt lat="46.97799" lon="5.13277">
        <ele>178.10059</ele>
        <time>2026-05-14T14:51:26+02:00</time>
      </trkpt>
      <trkpt lat="46.97799" lon="5.13277">
        <ele>178.10059</ele>
        <time>2026-05-14T14:51:27+02:00</time>
      </trkpt>
      <trkpt lat="46.97799" lon="5.13277">
        <ele>178.10059</ele>
        <time>2026-05-14T14:51:28+02:00</time>
      </trkpt>
      <trkpt lat="46.97786" lon="5.13269">
        <ele>178</ele>
        <time>2026-05-14T14:51:46+02:00</time>
      </trkpt>
      <trkpt lat="46.97785" lon="5.13268">
        <ele>178</ele>
        <time>2026-05-14T14:51:47+02:00</time>
      </trkpt>
      <trkpt lat="46.97784" lon="5.13267">
        <ele>178.40039</ele>
        <time>2026-05-14T14:51:48+02:00</time>
      </trkpt>
      <trkpt lat="46.97783" lon="5.13267">
        <ele>178.40039</ele>
        <time>2026-05-14T14:51:49+02:00</time>
      </trkpt>
      <trkpt lat="46.97776" lon="5.13258">
        <ele>178.7002</ele>
        <time>2026-05-14T14:51:55+02:00</time>
      </trkpt>
      <trkpt lat="46.97776" lon="5.13257">
        <ele>178.7002</ele>
        <time>2026-05-14T14:51:56+02:00</time>
      </trkpt>
      <trkpt lat="46.97775" lon="5.13257">
        <ele>178.7002</ele>
        <time>2026-05-14T14:51:57+02:00</time>
      </trkpt>
      <trkpt lat="46.97775" lon="5.13257">
        <ele>178.7002</ele>
        <time>2026-05-14T14:51:58+02:00</time>
      </trkpt>
      <trkpt lat="46.97775" lon="5.13257">
        <ele>178.7002</ele>
        <time>2026-05-14T14:51:59+02:00</time>
      </trkpt>
      <trkpt lat="46.9779" lon="5.13272">
        <ele>178</ele>
        <time>2026-05-14T15:00:02+02:00</time>
      </trkpt>
      <trkpt lat="46.97794" lon="5.13275">
        <ele>178.2998</ele>
        <time>2026-05-14T15:00:03+02:00</time>
      </trkpt>
      <trkpt lat="46.97799" lon="5.13278">
        <ele>178.10059</ele>
        <time>2026-05-14T15:00:04+02:00</time>
      </trkpt>
      <trkpt lat="46.97804" lon="5.13281">
        <ele>178.40039</ele>
        <time>2026-05-14T15:00:05+02:00</time>
      </trkpt>
      <trkpt lat="46.97809" lon="5.13285">
        <ele>178.10059</ele>
        <time>2026-05-14T15:00:06+02:00</time>
      </trkpt>
      <trkpt lat="46.97814" lon="5.13289">
        <ele>178.10059</ele>
        <time>2026-05-14T15:00:07+02:00</time>
      </trkpt>
      <trkpt lat="46.97819" lon="5.13293">
        <ele>178.40039</ele>
        <time>2026-05-14T15:00:08+02:00</time>
      </trkpt>
      <trkpt lat="46.97825" lon="5.13297">
        <ele>178.2002</ele>
        <time>2026-05-14T15:00:09+02:00</time>
      </trkpt>
      <trkpt lat="46.9783" lon="5.13301">
        <ele>178.5</ele>
        <time>2026-05-14T15:00:10+02:00</time>
      </trkpt>
      <trkpt lat="46.97835" lon="5.13306">
        <ele>178.5</ele>
        <time>2026-05-14T15:00:11+02:00</time>
      </trkpt>
      <trkpt lat="46.9784" lon="5.1331">
        <ele>178.7998</ele>
        <time>2026-05-14T15:00:12+02:00</time>
      </trkpt>
      <trkpt lat="46.97845" lon="5.13314">
        <ele>178.60059</ele>
        <time>2026-05-14T15:00:13+02:00</time>
      </trkpt>
      <trkpt lat="46.97851" lon="5.13318">
        <ele>178.90039</ele>
        <time>2026-05-14T15:00:14+02:00</time>
      </trkpt>
      <trkpt lat="46.97856" lon="5.13322">
        <ele>178.7002</ele>
        <time>2026-05-14T15:00:15+02:00</time>
      </trkpt>
      <trkpt lat="46.97861" lon="5.13326">
        <ele>178.7002</ele>
        <time>2026-05-14T15:00:16+02:00</time>
      </trkpt>
      <trkpt lat="46.97867" lon="5.13331">
        <ele>178.5</ele>
        <time>2026-05-14T15:00:17+02:00</time>
      </trkpt>
      <trkpt lat="46.97872" lon="5.13335">
        <ele>179</ele>
        <time>2026-05-14T15:00:18+02:00</time>
      </trkpt>
      <trkpt lat="46.97877" lon="5.13339">
        <ele>178.90039</ele>
        <time>2026-05-14T15:00:19+02:00</time>
      </trkpt>
      <trkpt lat="46.97883" lon="5.13344">
        <ele>179.2998</ele>
        <time>2026-05-14T15:00:20+02:00</time>
      </trkpt>
      <trkpt lat="46.97888" lon="5.13348">
        <ele>179.2002</ele>
        <time>2026-05-14T15:00:21+02:00</time>
      </trkpt>
      <trkpt lat="46.97893" lon="5.13353">
        <ele>179.60059</ele>
        <time>2026-05-14T15:00:22+02:00</time>
      </trkpt>
      <trkpt lat="46.97899" lon="5.13357">
        <ele>179.60059</ele>
        <time>2026-05-14T15:00:23+02:00</time>
      </trkpt>
      <trkpt lat="46.97904" lon="5.13361">
        <ele>180</ele>
        <time>2026-05-14T15:00:24+02:00</time>
      </trkpt>
      <trkpt lat="46.9791" lon="5.13365">
        <ele>179.90039</ele>
        <time>2026-05-14T15:00:25+02:00</time>
      </trkpt>
      <trkpt lat="46.97915" lon="5.1337">
        <ele>180.2002</ele>
        <time>2026-05-14T15:00:26+02:00</time>
      </trkpt>
      <trkpt lat="46.97921" lon="5.13374">
        <ele>180.10059</ele>
        <time>2026-05-14T15:00:27+02:00</time>
      </trkpt>
      <trkpt lat="46.97926" lon="5.13379">
        <ele>180.2998</ele>
        <time>2026-05-14T15:00:28+02:00</time>
      </trkpt>
      <trkpt lat="46.97932" lon="5.13383">
        <ele>180.10059</ele>
        <time>2026-05-14T15:00:29+02:00</time>
      </trkpt>
      <trkpt lat="46.97938" lon="5.13387">
        <ele>180.2002</ele>
        <time>2026-05-14T15:00:30+02:00</time>
      </trkpt>
      <trkpt lat="46.97943" lon="5.13392">
        <ele>179.90039</ele>
        <time>2026-05-14T15:00:31+02:00</time>
      </trkpt>
      <trkpt lat="46.97949" lon="5.13396">
        <ele>180.10059</ele>
        <time>2026-05-14T15:00:32+02:00</time>
      </trkpt>
      <trkpt lat="46.97954" lon="5.134">
        <ele>179.7002</ele>
        <time>2026-05-14T15:00:33+02:00</time>
      </trkpt>
      <trkpt lat="46.97959" lon="5.13405">
        <ele>179.2002</ele>
        <time>2026-05-14T15:00:34+02:00</time>
      </trkpt>
      <trkpt lat="46.97965" lon="5.13409">
        <ele>179.2998</ele>
        <time>2026-05-14T15:00:35+02:00</time>
      </trkpt>
      <trkpt lat="46.9797" lon="5.13414">
        <ele>178.7998</ele>
        <time>2026-05-14T15:00:36+02:00</time>
      </trkpt>
      <trkpt lat="46.97976" lon="5.13418">
        <ele>179</ele>
        <time>2026-05-14T15:00:37+02:00</time>
      </trkpt>
      <trkpt lat="46.97981" lon="5.13422">
        <ele>179.2002</ele>
        <time>2026-05-14T15:00:38+02:00</time>
      </trkpt>
      <trkpt lat="46.97987" lon="5.13427">
        <ele>179</ele>
        <time>2026-05-14T15:00:39+02:00</time>
      </trkpt>
      <trkpt lat="46.97992" lon="5.13431">
        <ele>178.5</ele>
        <time>2026-05-14T15:00:40+02:00</time>
      </trkpt>
      <trkpt lat="46.97998" lon="5.13435">
        <ele>178.7002</ele>
        <time>2026-05-14T15:00:41+02:00</time>
      </trkpt>
      <trkpt lat="46.98004" lon="5.1344">
        <ele>178.2002</ele>
        <time>2026-05-14T15:00:42+02:00</time>
      </trkpt>
      <trkpt lat="46.98009" lon="5.13444">
        <ele>178.5</ele>
        <time>2026-05-14T15:00:43+02:00</time>
      </trkpt>
      <trkpt lat="46.98015" lon="5.13449">
        <ele>178.2002</ele>
        <time>2026-05-14T15:00:44+02:00</time>
      </trkpt>
      <trkpt lat="46.9802" lon="5.13453">
        <ele>178.5</ele>
        <time>2026-05-14T15:00:45+02:00</time>
      </trkpt>
      <trkpt lat="46.98026" lon="5.13458">
        <ele>178.2998</ele>
        <time>2026-05-14T15:00:46+02:00</time>
      </trkpt>
      <trkpt lat="46.98032" lon="5.13462">
        <ele>178.60059</ele>
        <time>2026-05-14T15:00:47+02:00</time>
      </trkpt>
      <trkpt lat="46.98038" lon="5.13467">
        <ele>178.2998</ele>
        <time>2026-05-14T15:00:48+02:00</time>
      </trkpt>
      <trkpt lat="46.98044" lon="5.13472">
        <ele>178.5</ele>
        <time>2026-05-14T15:00:49+02:00</time>
      </trkpt>
      <trkpt lat="46.9805" lon="5.13477">
        <ele>178.2002</ele>
        <time>2026-05-14T15:00:50+02:00</time>
      </trkpt>
      <trkpt lat="46.98055" lon="5.13481">
        <ele>178.40039</ele>
        <time>2026-05-14T15:00:51+02:00</time>
      </trkpt>
      <trkpt lat="46.98062" lon="5.13486">
        <ele>178.10059</ele>
        <time>2026-05-14T15:00:52+02:00</time>
      </trkpt>
      <trkpt lat="46.98067" lon="5.13491">
        <ele>177.7002</ele>
        <time>2026-05-14T15:00:53+02:00</time>
      </trkpt>
      <trkpt lat="46.98073" lon="5.13496">
        <ele>177.90039</ele>
        <time>2026-05-14T15:00:54+02:00</time>
      </trkpt>
      <trkpt lat="46.98079" lon="5.135">
        <ele>177.40039</ele>
        <time>2026-05-14T15:00:55+02:00</time>
      </trkpt>
      <trkpt lat="46.98085" lon="5.13505">
        <ele>177.5</ele>
        <time>2026-05-14T15:00:56+02:00</time>
      </trkpt>
      <trkpt lat="46.9809" lon="5.13509">
        <ele>176.90039</ele>
        <time>2026-05-14T15:00:57+02:00</time>
      </trkpt>
      <trkpt lat="46.98096" lon="5.13513">
        <ele>177</ele>
        <time>2026-05-14T15:00:58+02:00</time>
      </trkpt>
      <trkpt lat="46.98102" lon="5.13518">
        <ele>176.60059</ele>
        <time>2026-05-14T15:00:59+02:00</time>
      </trkpt>
      <trkpt lat="46.98108" lon="5.13523">
        <ele>177</ele>
        <time>2026-05-14T15:01:00+02:00</time>
      </trkpt>
      <trkpt lat="46.98113" lon="5.13528">
        <ele>176.40039</ele>
        <time>2026-05-14T15:01:01+02:00</time>
      </trkpt>
      <trkpt lat="46.98119" lon="5.13532">
        <ele>177.90039</ele>
        <time>2026-05-14T15:01:02+02:00</time>
      </trkpt>
      <trkpt lat="46.98125" lon="5.13536">
        <ele>177.7002</ele>
        <time>2026-05-14T15:01:03+02:00</time>
      </trkpt>
      <trkpt lat="46.98131" lon="5.13541">
        <ele>178.40039</ele>
        <time>2026-05-14T15:01:04+02:00</time>
      </trkpt>
      <trkpt lat="46.98137" lon="5.13545">
        <ele>178.40039</ele>
        <time>2026-05-14T15:01:05+02:00</time>
      </trkpt>
      <trkpt lat="46.98143" lon="5.1355">
        <ele>179.2998</ele>
        <time>2026-05-14T15:01:06+02:00</time>
      </trkpt>
      <trkpt lat="46.98149" lon="5.13555">
        <ele>179.2002</ele>
        <time>2026-05-14T15:01:07+02:00</time>
      </trkpt>
      <trkpt lat="46.98155" lon="5.1356">
        <ele>178.60059</ele>
        <time>2026-05-14T15:01:08+02:00</time>
      </trkpt>
      <trkpt lat="46.9816" lon="5.13564">
        <ele>179.10059</ele>
        <time>2026-05-14T15:01:09+02:00</time>
      </trkpt>
      <trkpt lat="46.98166" lon="5.13569">
        <ele>178.40039</ele>
        <time>2026-05-14T15:01:10+02:00</time>
      </trkpt>
      <trkpt lat="46.98172" lon="5.13574">
        <ele>178.7998</ele>
        <time>2026-05-14T15:01:11+02:00</time>
      </trkpt>
      <trkpt lat="46.98177" lon="5.13579">
        <ele>177.7998</ele>
        <time>2026-05-14T15:01:12+02:00</time>
      </trkpt>
      <trkpt lat="46.98183" lon="5.13583">
        <ele>178.2002</ele>
        <time>2026-05-14T15:01:13+02:00</time>
      </trkpt>
      <trkpt lat="46.98189" lon="5.13588">
        <ele>177.5</ele>
        <time>2026-05-14T15:01:14+02:00</time>
      </trkpt>
      <trkpt lat="46.98194" lon="5.13593">
        <ele>177.7998</ele>
        <time>2026-05-14T15:01:15+02:00</time>
      </trkpt>
      <trkpt lat="46.982" lon="5.13597">
        <ele>177.2998</ele>
        <time>2026-05-14T15:01:16+02:00</time>
      </trkpt>
      <trkpt lat="46.98206" lon="5.13602">
        <ele>177.60059</ele>
        <time>2026-05-14T15:01:17+02:00</time>
      </trkpt>
      <trkpt lat="46.98211" lon="5.13606">
        <ele>177.5</ele>
        <time>2026-05-14T15:01:18+02:00</time>
      </trkpt>
      <trkpt lat="46.98217" lon="5.1361">
        <ele>177.7998</ele>
        <time>2026-05-14T15:01:19+02:00</time>
      </trkpt>
      <trkpt lat="46.98222" lon="5.13615">
        <ele>177.7998</ele>
        <time>2026-05-14T15:01:20+02:00</time>
      </trkpt>
      <trkpt lat="46.98228" lon="5.13619">
        <ele>178.10059</ele>
        <time>2026-05-14T15:01:21+02:00</time>
      </trkpt>
      <trkpt lat="46.98234" lon="5.13623">
        <ele>178</ele>
        <time>2026-05-14T15:01:22+02:00</time>
      </trkpt>
      <trkpt lat="46.98239" lon="5.13627">
        <ele>178.10059</ele>
        <time>2026-05-14T15:01:23+02:00</time>
      </trkpt>
      <trkpt lat="46.98244" lon="5.1363">
        <ele>178</ele>
        <time>2026-05-14T15:01:24+02:00</time>
      </trkpt>
      <trkpt lat="46.98248" lon="5.13633">
        <ele>178.10059</ele>
        <time>2026-05-14T15:01:25+02:00</time>
      </trkpt>
      <trkpt lat="46.98252" lon="5.13636">
        <ele>178.10059</ele>
        <time>2026-05-14T15:01:26+02:00</time>
      </trkpt>
      <trkpt lat="46.98256" lon="5.13639">
        <ele>178</ele>
        <time>2026-05-14T15:01:27+02:00</time>
      </trkpt>
      <trkpt lat="46.9826" lon="5.13642">
        <ele>178</ele>
        <time>2026-05-14T15:01:28+02:00</time>
      </trkpt>
      <trkpt lat="46.98264" lon="5.13645">
        <ele>178</ele>
        <time>2026-05-14T15:01:29+02:00</time>
      </trkpt>
      <trkpt lat="46.98269" lon="5.13648">
        <ele>177.7002</ele>
        <time>2026-05-14T15:01:30+02:00</time>
      </trkpt>
      <trkpt lat="46.98273" lon="5.13651">
        <ele>177.40039</ele>
        <time>2026-05-14T15:01:31+02:00</time>
      </trkpt>
      <trkpt lat="46.98277" lon="5.13654">
        <ele>177.2002</ele>
        <time>2026-05-14T15:01:32+02:00</time>
      </trkpt>
      <trkpt lat="46.98281" lon="5.13657">
        <ele>177</ele>
        <time>2026-05-14T15:01:33+02:00</time>
      </trkpt>
      <trkpt lat="46.98285" lon="5.13661">
        <ele>176.7998</ele>
        <time>2026-05-14T15:01:34+02:00</time>
      </trkpt>
      <trkpt lat="46.9829" lon="5.13664">
        <ele>176.60059</ele>
        <time>2026-05-14T15:01:35+02:00</time>
      </trkpt>
      <trkpt lat="46.98294" lon="5.13668">
        <ele>176.60059</ele>
        <time>2026-05-14T15:01:36+02:00</time>
      </trkpt>
      <trkpt lat="46.98298" lon="5.13671">
        <ele>176.2998</ele>
        <time>2026-05-14T15:01:37+02:00</time>
      </trkpt>
      <trkpt lat="46.98303" lon="5.13675">
        <ele>176.10059</ele>
        <time>2026-05-14T15:01:38+02:00</time>
      </trkpt>
      <trkpt lat="46.98308" lon="5.13678">
        <ele>175.7998</ele>
        <time>2026-05-14T15:01:39+02:00</time>
      </trkpt>
      <trkpt lat="46.98312" lon="5.13683">
        <ele>175.7998</ele>
        <time>2026-05-14T15:01:40+02:00</time>
      </trkpt>
      <trkpt lat="46.98317" lon="5.13687">
        <ele>175.7002</ele>
        <time>2026-05-14T15:01:41+02:00</time>
      </trkpt>
      <trkpt lat="46.98322" lon="5.13692">
        <ele>175.60059</ele>
        <time>2026-05-14T15:01:42+02:00</time>
      </trkpt>
      <trkpt lat="46.98326" lon="5.13696">
        <ele>175.40039</ele>
        <time>2026-05-14T15:01:43+02:00</time>
      </trkpt>
      <trkpt lat="46.98331" lon="5.13701">
        <ele>175.2002</ele>
        <time>2026-05-14T15:01:44+02:00</time>
      </trkpt>
      <trkpt lat="46.98335" lon="5.13707">
        <ele>175.2002</ele>
        <time>2026-05-14T15:01:45+02:00</time>
      </trkpt>
      <trkpt lat="46.9834" lon="5.13712">
        <ele>174.7998</ele>
        <time>2026-05-14T15:01:46+02:00</time>
      </trkpt>
      <trkpt lat="46.98345" lon="5.13717">
        <ele>174.60059</ele>
        <time>2026-05-14T15:01:47+02:00</time>
      </trkpt>
      <trkpt lat="46.98349" lon="5.13723">
        <ele>174.40039</ele>
        <time>2026-05-14T15:01:48+02:00</time>
      </trkpt>
      <trkpt lat="46.98353" lon="5.13729">
        <ele>174.40039</ele>
        <time>2026-05-14T15:01:49+02:00</time>
      </trkpt>
      <trkpt lat="46.98358" lon="5.13735">
        <ele>174.2998</ele>
        <time>2026-05-14T15:01:50+02:00</time>
      </trkpt>
      <trkpt lat="46.98362" lon="5.13741">
        <ele>174.2002</ele>
        <time>2026-05-14T15:01:51+02:00</time>
      </trkpt>
      <trkpt lat="46.98366" lon="5.13747">
        <ele>174.10059</ele>
        <time>2026-05-14T15:01:52+02:00</time>
      </trkpt>
      <trkpt lat="46.9837" lon="5.13754">
        <ele>174.10059</ele>
        <time>2026-05-14T15:01:53+02:00</time>
      </trkpt>
      <trkpt lat="46.98375" lon="5.13761">
        <ele>174</ele>
        <time>2026-05-14T15:01:54+02:00</time>
      </trkpt>
      <trkpt lat="46.98379" lon="5.13768">
        <ele>174</ele>
        <time>2026-05-14T15:01:55+02:00</time>
      </trkpt>
      <trkpt lat="46.98383" lon="5.13775">
        <ele>174.10059</ele>
        <time>2026-05-14T15:01:56+02:00</time>
      </trkpt>
      <trkpt lat="46.98387" lon="5.13782">
        <ele>174.10059</ele>
        <time>2026-05-14T15:01:57+02:00</time>
      </trkpt>
      <trkpt lat="46.98391" lon="5.13789">
        <ele>174.10059</ele>
        <time>2026-05-14T15:01:58+02:00</time>
      </trkpt>
      <trkpt lat="46.98395" lon="5.13796">
        <ele>174.10059</ele>
        <time>2026-05-14T15:01:59+02:00</time>
      </trkpt>
      <trkpt lat="46.98398" lon="5.13803">
        <ele>174.10059</ele>
        <time>2026-05-14T15:02:00+02:00</time>
      </trkpt>
      <trkpt lat="46.98403" lon="5.1381">
        <ele>174.10059</ele>
        <time>2026-05-14T15:02:01+02:00</time>
      </trkpt>
      <trkpt lat="46.98406" lon="5.13817">
        <ele>174</ele>
        <time>2026-05-14T15:02:02+02:00</time>
      </trkpt>
      <trkpt lat="46.9841" lon="5.13824">
        <ele>174</ele>
        <time>2026-05-14T15:02:03+02:00</time>
      </trkpt>
      <trkpt lat="46.98414" lon="5.1383">
        <ele>174</ele>
        <time>2026-05-14T15:02:04+02:00</time>
      </trkpt>
      <trkpt lat="46.98418" lon="5.13836">
        <ele>174.10059</ele>
        <time>2026-05-14T15:02:05+02:00</time>
      </trkpt>
      <trkpt lat="46.98422" lon="5.13843">
        <ele>174.10059</ele>
        <time>2026-05-14T15:02:06+02:00</time>
      </trkpt>
      <trkpt lat="46.98425" lon="5.13849">
        <ele>174.10059</ele>
        <time>2026-05-14T15:02:07+02:00</time>
      </trkpt>
      <trkpt lat="46.98429" lon="5.13855">
        <ele>174.10059</ele>
        <time>2026-05-14T15:02:08+02:00</time>
      </trkpt>
      <trkpt lat="46.98433" lon="5.13862">
        <ele>174</ele>
        <time>2026-05-14T15:02:09+02:00</time>
      </trkpt>
      <trkpt lat="46.98436" lon="5.13869">
        <ele>174</ele>
        <time>2026-05-14T15:02:10+02:00</time>
      </trkpt>
      <trkpt lat="46.9844" lon="5.13875">
        <ele>174</ele>
        <time>2026-05-14T15:02:11+02:00</time>
      </trkpt>
      <trkpt lat="46.98444" lon="5.13882">
        <ele>174.2998</ele>
        <time>2026-05-14T15:02:12+02:00</time>
      </trkpt>
      <trkpt lat="46.98448" lon="5.13889">
        <ele>174.7998</ele>
        <time>2026-05-14T15:02:13+02:00</time>
      </trkpt>
      <trkpt lat="46.98451" lon="5.13896">
        <ele>175.2002</ele>
        <time>2026-05-14T15:02:14+02:00</time>
      </trkpt>
      <trkpt lat="46.98455" lon="5.13902">
        <ele>175.2998</ele>
        <time>2026-05-14T15:02:15+02:00</time>
      </trkpt>
      <trkpt lat="46.98459" lon="5.13909">
        <ele>175.7998</ele>
        <time>2026-05-14T15:02:16+02:00</time>
      </trkpt>
      <trkpt lat="46.98462" lon="5.13916">
        <ele>176.2998</ele>
        <time>2026-05-14T15:02:17+02:00</time>
      </trkpt>
      <trkpt lat="46.98466" lon="5.13922">
        <ele>176.7998</ele>
        <time>2026-05-14T15:02:18+02:00</time>
      </trkpt>
      <trkpt lat="46.9847" lon="5.13929">
        <ele>177.2998</ele>
        <time>2026-05-14T15:02:19+02:00</time>
      </trkpt>
      <trkpt lat="46.98474" lon="5.13936">
        <ele>176.7998</ele>
        <time>2026-05-14T15:02:20+02:00</time>
      </trkpt>
      <trkpt lat="46.98477" lon="5.13943">
        <ele>175.90039</ele>
        <time>2026-05-14T15:02:21+02:00</time>
      </trkpt>
      <trkpt lat="46.98481" lon="5.13949">
        <ele>175.90039</ele>
        <time>2026-05-14T15:02:22+02:00</time>
      </trkpt>
      <trkpt lat="46.98484" lon="5.13956">
        <ele>174.7998</ele>
        <time>2026-05-14T15:02:23+02:00</time>
      </trkpt>
      <trkpt lat="46.98488" lon="5.13963">
        <ele>174.2998</ele>
        <time>2026-05-14T15:02:24+02:00</time>
      </trkpt>
      <trkpt lat="46.98491" lon="5.1397">
        <ele>174.2998</ele>
        <time>2026-05-14T15:02:25+02:00</time>
      </trkpt>
      <trkpt lat="46.98494" lon="5.13977">
        <ele>174.5</ele>
        <time>2026-05-14T15:02:26+02:00</time>
      </trkpt>
      <trkpt lat="46.98498" lon="5.13984">
        <ele>175</ele>
        <time>2026-05-14T15:02:27+02:00</time>
      </trkpt>
      <trkpt lat="46.98501" lon="5.13991">
        <ele>175.2998</ele>
        <time>2026-05-14T15:02:28+02:00</time>
      </trkpt>
      <trkpt lat="46.98504" lon="5.13998">
        <ele>175.5</ele>
        <time>2026-05-14T15:02:29+02:00</time>
      </trkpt>
      <trkpt lat="46.98507" lon="5.14005">
        <ele>174.90039</ele>
        <time>2026-05-14T15:02:30+02:00</time>
      </trkpt>
      <trkpt lat="46.9851" lon="5.14011">
        <ele>174.90039</ele>
        <time>2026-05-14T15:02:31+02:00</time>
      </trkpt>
      <trkpt lat="46.98514" lon="5.14018">
        <ele>174.5</ele>
        <time>2026-05-14T15:02:32+02:00</time>
      </trkpt>
      <trkpt lat="46.98517" lon="5.14025">
        <ele>174.5</ele>
        <time>2026-05-14T15:02:33+02:00</time>
      </trkpt>
      <trkpt lat="46.9852" lon="5.14031">
        <ele>174.40039</ele>
        <time>2026-05-14T15:02:34+02:00</time>
      </trkpt>
      <trkpt lat="46.98523" lon="5.14038">
        <ele>174.40039</ele>
        <time>2026-05-14T15:02:35+02:00</time>
      </trkpt>
      <trkpt lat="46.98526" lon="5.14045">
        <ele>174.5</ele>
        <time>2026-05-14T15:02:36+02:00</time>
      </trkpt>
      <trkpt lat="46.98529" lon="5.14051">
        <ele>174.5</ele>
        <time>2026-05-14T15:02:37+02:00</time>
      </trkpt>
      <trkpt lat="46.98532" lon="5.14058">
        <ele>174.5</ele>
        <time>2026-05-14T15:02:38+02:00</time>
      </trkpt>
      <trkpt lat="46.98535" lon="5.14064">
        <ele>174.40039</ele>
        <time>2026-05-14T15:02:39+02:00</time>
      </trkpt>
      <trkpt lat="46.98538" lon="5.14071">
        <ele>174.40039</ele>
        <time>2026-05-14T15:02:40+02:00</time>
      </trkpt>
      <trkpt lat="46.98541" lon="5.14077">
        <ele>174.2998</ele>
        <time>2026-05-14T15:02:41+02:00</time>
      </trkpt>
      <trkpt lat="46.98544" lon="5.14083">
        <ele>174.2002</ele>
        <time>2026-05-14T15:02:42+02:00</time>
      </trkpt>
      <trkpt lat="46.98547" lon="5.1409">
        <ele>174.2002</ele>
        <time>2026-05-14T15:02:43+02:00</time>
      </trkpt>
      <trkpt lat="46.98549" lon="5.14096">
        <ele>174.2998</ele>
        <time>2026-05-14T15:02:44+02:00</time>
      </trkpt>
      <trkpt lat="46.98552" lon="5.14102">
        <ele>174.5</ele>
        <time>2026-05-14T15:02:45+02:00</time>
      </trkpt>
      <trkpt lat="46.98555" lon="5.14108">
        <ele>174.5</ele>
        <time>2026-05-14T15:02:46+02:00</time>
      </trkpt>
      <trkpt lat="46.98557" lon="5.14114">
        <ele>174.7002</ele>
        <time>2026-05-14T15:02:47+02:00</time>
      </trkpt>
      <trkpt lat="46.9856" lon="5.14121">
        <ele>174.7998</ele>
        <time>2026-05-14T15:02:48+02:00</time>
      </trkpt>
      <trkpt lat="46.98562" lon="5.14128">
        <ele>174.90039</ele>
        <time>2026-05-14T15:02:49+02:00</time>
      </trkpt>
      <trkpt lat="46.98564" lon="5.14134">
        <ele>174.7002</ele>
        <time>2026-05-14T15:02:50+02:00</time>
      </trkpt>
      <trkpt lat="46.98567" lon="5.14141">
        <ele>174.7998</ele>
        <time>2026-05-14T15:02:51+02:00</time>
      </trkpt>
      <trkpt lat="46.98569" lon="5.14148">
        <ele>174.90039</ele>
        <time>2026-05-14T15:02:52+02:00</time>
      </trkpt>
      <trkpt lat="46.98572" lon="5.14155">
        <ele>174.7998</ele>
        <time>2026-05-14T15:02:53+02:00</time>
      </trkpt>
      <trkpt lat="46.98574" lon="5.14162">
        <ele>174.90039</ele>
        <time>2026-05-14T15:02:54+02:00</time>
      </trkpt>
      <trkpt lat="46.98576" lon="5.1417">
        <ele>174.7998</ele>
        <time>2026-05-14T15:02:55+02:00</time>
      </trkpt>
      <trkpt lat="46.98578" lon="5.14178">
        <ele>174.7998</ele>
        <time>2026-05-14T15:02:56+02:00</time>
      </trkpt>
      <trkpt lat="46.98581" lon="5.14186">
        <ele>174.7998</ele>
        <time>2026-05-14T15:02:57+02:00</time>
      </trkpt>
      <trkpt lat="46.98583" lon="5.14193">
        <ele>174.7998</ele>
        <time>2026-05-14T15:02:58+02:00</time>
      </trkpt>
      <trkpt lat="46.98585" lon="5.14201">
        <ele>174.90039</ele>
        <time>2026-05-14T15:02:59+02:00</time>
      </trkpt>
      <trkpt lat="46.98588" lon="5.14209">
        <ele>175</ele>
        <time>2026-05-14T15:03:00+02:00</time>
      </trkpt>
      <trkpt lat="46.9859" lon="5.14217">
        <ele>175.2002</ele>
        <time>2026-05-14T15:03:01+02:00</time>
      </trkpt>
      <trkpt lat="46.98593" lon="5.14224">
        <ele>175.2998</ele>
        <time>2026-05-14T15:03:02+02:00</time>
      </trkpt>
      <trkpt lat="46.98595" lon="5.14232">
        <ele>174.90039</ele>
        <time>2026-05-14T15:03:03+02:00</time>
      </trkpt>
      <trkpt lat="46.98598" lon="5.14239">
        <ele>174.7998</ele>
        <time>2026-05-14T15:03:04+02:00</time>
      </trkpt>
      <trkpt lat="46.986" lon="5.14247">
        <ele>174.5</ele>
        <time>2026-05-14T15:03:05+02:00</time>
      </trkpt>
      <trkpt lat="46.98602" lon="5.14255">
        <ele>174.40039</ele>
        <time>2026-05-14T15:03:06+02:00</time>
      </trkpt>
      <trkpt lat="46.98605" lon="5.14262">
        <ele>174.2998</ele>
        <time>2026-05-14T15:03:07+02:00</time>
      </trkpt>
      <trkpt lat="46.98607" lon="5.14269">
        <ele>174.2998</ele>
        <time>2026-05-14T15:03:08+02:00</time>
      </trkpt>
      <trkpt lat="46.98609" lon="5.14276">
        <ele>174.2002</ele>
        <time>2026-05-14T15:03:09+02:00</time>
      </trkpt>
      <trkpt lat="46.98612" lon="5.14284">
        <ele>174.2002</ele>
        <time>2026-05-14T15:03:10+02:00</time>
      </trkpt>
      <trkpt lat="46.98614" lon="5.14291">
        <ele>174.10059</ele>
        <time>2026-05-14T15:03:11+02:00</time>
      </trkpt>
      <trkpt lat="46.98616" lon="5.14299">
        <ele>174.10059</ele>
        <time>2026-05-14T15:03:12+02:00</time>
      </trkpt>
      <trkpt lat="46.98619" lon="5.14306">
        <ele>174.10059</ele>
        <time>2026-05-14T15:03:13+02:00</time>
      </trkpt>
      <trkpt lat="46.98621" lon="5.14313">
        <ele>174.10059</ele>
        <time>2026-05-14T15:03:14+02:00</time>
      </trkpt>
      <trkpt lat="46.98624" lon="5.1432">
        <ele>174.10059</ele>
        <time>2026-05-14T15:03:15+02:00</time>
      </trkpt>
      <trkpt lat="46.98627" lon="5.14327">
        <ele>174.10059</ele>
        <time>2026-05-14T15:03:16+02:00</time>
      </trkpt>
      <trkpt lat="46.9863" lon="5.14334">
        <ele>174.10059</ele>
        <time>2026-05-14T15:03:17+02:00</time>
      </trkpt>
      <trkpt lat="46.98633" lon="5.14341">
        <ele>174</ele>
        <time>2026-05-14T15:03:18+02:00</time>
      </trkpt>
      <trkpt lat="46.98637" lon="5.14348">
        <ele>174.10059</ele>
        <time>2026-05-14T15:03:19+02:00</time>
      </trkpt>
      <trkpt lat="46.98641" lon="5.14355">
        <ele>174.2002</ele>
        <time>2026-05-14T15:03:20+02:00</time>
      </trkpt>
      <trkpt lat="46.98644" lon="5.14361">
        <ele>174.10059</ele>
        <time>2026-05-14T15:03:21+02:00</time>
      </trkpt>
      <trkpt lat="46.98648" lon="5.14368">
        <ele>174.10059</ele>
        <time>2026-05-14T15:03:22+02:00</time>
      </trkpt>
      <trkpt lat="46.98651" lon="5.14374">
        <ele>174.10059</ele>
        <time>2026-05-14T15:03:23+02:00</time>
      </trkpt>
      <trkpt lat="46.98655" lon="5.1438">
        <ele>174.10059</ele>
        <time>2026-05-14T15:03:24+02:00</time>
      </trkpt>
      <trkpt lat="46.98659" lon="5.14386">
        <ele>174.2002</ele>
        <time>2026-05-14T15:03:25+02:00</time>
      </trkpt>
      <trkpt lat="46.98663" lon="5.14392">
        <ele>174.40039</ele>
        <time>2026-05-14T15:03:26+02:00</time>
      </trkpt>
      <trkpt lat="46.98668" lon="5.14398">
        <ele>174.40039</ele>
        <time>2026-05-14T15:03:27+02:00</time>
      </trkpt>
      <trkpt lat="46.98672" lon="5.14403">
        <ele>174.60059</ele>
        <time>2026-05-14T15:03:28+02:00</time>
      </trkpt>
      <trkpt lat="46.98678" lon="5.14407">
        <ele>174.40039</ele>
        <time>2026-05-14T15:03:29+02:00</time>
      </trkpt>
      <trkpt lat="46.98683" lon="5.14411">
        <ele>174.2998</ele>
        <time>2026-05-14T15:03:30+02:00</time>
      </trkpt>
      <trkpt lat="46.98687" lon="5.14416">
        <ele>174.10059</ele>
        <time>2026-05-14T15:03:31+02:00</time>
      </trkpt>
      <trkpt lat="46.98692" lon="5.14421">
        <ele>174.60059</ele>
        <time>2026-05-14T15:03:32+02:00</time>
      </trkpt>
      <trkpt lat="46.98697" lon="5.14427">
        <ele>175.2002</ele>
        <time>2026-05-14T15:03:33+02:00</time>
      </trkpt>
      <trkpt lat="46.98701" lon="5.14432">
        <ele>175.2002</ele>
        <time>2026-05-14T15:03:34+02:00</time>
      </trkpt>
      <trkpt lat="46.98706" lon="5.14437">
        <ele>175.5</ele>
        <time>2026-05-14T15:03:35+02:00</time>
      </trkpt>
      <trkpt lat="46.98711" lon="5.14441">
        <ele>175.40039</ele>
        <time>2026-05-14T15:03:36+02:00</time>
      </trkpt>
      <trkpt lat="46.98726" lon="5.14453">
        <ele>175.7002</ele>
        <time>2026-05-14T15:03:37+02:00</time>
      </trkpt>
      <trkpt lat="46.98731" lon="5.14456">
        <ele>175.2002</ele>
        <time>2026-05-14T15:03:38+02:00</time>
      </trkpt>
      <trkpt lat="46.98736" lon="5.1446">
        <ele>174.7998</ele>
        <time>2026-05-14T15:03:39+02:00</time>
      </trkpt>
      <trkpt lat="46.98742" lon="5.14463">
        <ele>174.5</ele>
        <time>2026-05-14T15:03:40+02:00</time>
      </trkpt>
      <trkpt lat="46.98747" lon="5.14466">
        <ele>174.2998</ele>
        <time>2026-05-14T15:03:41+02:00</time>
      </trkpt>
      <trkpt lat="46.98752" lon="5.14469">
        <ele>174.10059</ele>
        <time>2026-05-14T15:03:42+02:00</time>
      </trkpt>
      <trkpt lat="46.98757" lon="5.14473">
        <ele>174.10059</ele>
        <time>2026-05-14T15:03:43+02:00</time>
      </trkpt>
      <trkpt lat="46.98762" lon="5.14476">
        <ele>174.10059</ele>
        <time>2026-05-14T15:03:44+02:00</time>
      </trkpt>
      <trkpt lat="46.98767" lon="5.1448">
        <ele>174.5</ele>
        <time>2026-05-14T15:03:45+02:00</time>
      </trkpt>
      <trkpt lat="46.98773" lon="5.14483">
        <ele>174.60059</ele>
        <time>2026-05-14T15:03:46+02:00</time>
      </trkpt>
      <trkpt lat="46.98778" lon="5.14486">
        <ele>174.60059</ele>
        <time>2026-05-14T15:03:47+02:00</time>
      </trkpt>
      <trkpt lat="46.98782" lon="5.14489">
        <ele>174.90039</ele>
        <time>2026-05-14T15:03:48+02:00</time>
      </trkpt>
      <trkpt lat="46.98788" lon="5.14493">
        <ele>174.7998</ele>
        <time>2026-05-14T15:03:49+02:00</time>
      </trkpt>
      <trkpt lat="46.98793" lon="5.14496">
        <ele>175</ele>
        <time>2026-05-14T15:03:50+02:00</time>
      </trkpt>
      <trkpt lat="46.98798" lon="5.14498">
        <ele>175</ele>
        <time>2026-05-14T15:03:51+02:00</time>
      </trkpt>
      <trkpt lat="46.98804" lon="5.14501">
        <ele>174.7998</ele>
        <time>2026-05-14T15:03:52+02:00</time>
      </trkpt>
      <trkpt lat="46.9881" lon="5.14503">
        <ele>174.7998</ele>
        <time>2026-05-14T15:03:53+02:00</time>
      </trkpt>
      <trkpt lat="46.98815" lon="5.14504">
        <ele>174.7998</ele>
        <time>2026-05-14T15:03:54+02:00</time>
      </trkpt>
      <trkpt lat="46.98821" lon="5.14504">
        <ele>174.60059</ele>
        <time>2026-05-14T15:03:55+02:00</time>
      </trkpt>
      <trkpt lat="46.98827" lon="5.14504">
        <ele>174.5</ele>
        <time>2026-05-14T15:03:56+02:00</time>
      </trkpt>
      <trkpt lat="46.98832" lon="5.14503">
        <ele>174.10059</ele>
        <time>2026-05-14T15:03:57+02:00</time>
      </trkpt>
      <trkpt lat="46.98837" lon="5.14503">
        <ele>174</ele>
        <time>2026-05-14T15:03:58+02:00</time>
      </trkpt>
      <trkpt lat="46.98843" lon="5.14503">
        <ele>174</ele>
        <time>2026-05-14T15:03:59+02:00</time>
      </trkpt>
      <trkpt lat="46.98848" lon="5.14504">
        <ele>174.90039</ele>
        <time>2026-05-14T15:04:00+02:00</time>
      </trkpt>
      <trkpt lat="46.98854" lon="5.14504">
        <ele>175.10059</ele>
        <time>2026-05-14T15:04:01+02:00</time>
      </trkpt>
      <trkpt lat="46.98859" lon="5.14504">
        <ele>175.2002</ele>
        <time>2026-05-14T15:04:02+02:00</time>
      </trkpt>
      <trkpt lat="46.98864" lon="5.14505">
        <ele>175.2998</ele>
        <time>2026-05-14T15:04:03+02:00</time>
      </trkpt>
      <trkpt lat="46.9887" lon="5.14505">
        <ele>175.2998</ele>
        <time>2026-05-14T15:04:04+02:00</time>
      </trkpt>
      <trkpt lat="46.98876" lon="5.14505">
        <ele>175.5</ele>
        <time>2026-05-14T15:04:05+02:00</time>
      </trkpt>
      <trkpt lat="46.98881" lon="5.14506">
        <ele>175.7002</ele>
        <time>2026-05-14T15:04:06+02:00</time>
      </trkpt>
      <trkpt lat="46.98886" lon="5.14506">
        <ele>176.10059</ele>
        <time>2026-05-14T15:04:07+02:00</time>
      </trkpt>
      <trkpt lat="46.98892" lon="5.14506">
        <ele>176.40039</ele>
        <time>2026-05-14T15:04:08+02:00</time>
      </trkpt>
      <trkpt lat="46.98897" lon="5.14507">
        <ele>176.40039</ele>
        <time>2026-05-14T15:04:09+02:00</time>
      </trkpt>
      <trkpt lat="46.98903" lon="5.14507">
        <ele>176.5</ele>
        <time>2026-05-14T15:04:10+02:00</time>
      </trkpt>
      <trkpt lat="46.98908" lon="5.14508">
        <ele>176.2998</ele>
        <time>2026-05-14T15:04:11+02:00</time>
      </trkpt>
      <trkpt lat="46.98914" lon="5.14508">
        <ele>176.2002</ele>
        <time>2026-05-14T15:04:12+02:00</time>
      </trkpt>
      <trkpt lat="46.98919" lon="5.14509">
        <ele>176</ele>
        <time>2026-05-14T15:04:13+02:00</time>
      </trkpt>
      <trkpt lat="46.98925" lon="5.1451">
        <ele>175.7998</ele>
        <time>2026-05-14T15:04:14+02:00</time>
      </trkpt>
      <trkpt lat="46.9893" lon="5.1451">
        <ele>175.7002</ele>
        <time>2026-05-14T15:04:15+02:00</time>
      </trkpt>
      <trkpt lat="46.98935" lon="5.14511">
        <ele>175.5</ele>
        <time>2026-05-14T15:04:16+02:00</time>
      </trkpt>
      <trkpt lat="46.9894" lon="5.14511">
        <ele>175.40039</ele>
        <time>2026-05-14T15:04:17+02:00</time>
      </trkpt>
      <trkpt lat="46.98945" lon="5.14512">
        <ele>175.2998</ele>
        <time>2026-05-14T15:04:18+02:00</time>
      </trkpt>
      <trkpt lat="46.9895" lon="5.14512">
        <ele>175.2998</ele>
        <time>2026-05-14T15:04:19+02:00</time>
      </trkpt>
      <trkpt lat="46.98954" lon="5.14513">
        <ele>175.7002</ele>
        <time>2026-05-14T15:04:20+02:00</time>
      </trkpt>
      <trkpt lat="46.98958" lon="5.14514">
        <ele>175.7002</ele>
        <time>2026-05-14T15:04:21+02:00</time>
      </trkpt>
      <trkpt lat="46.98963" lon="5.14515">
        <ele>175.60059</ele>
        <time>2026-05-14T15:04:22+02:00</time>
      </trkpt>
      <trkpt lat="46.98967" lon="5.14518">
        <ele>175.60059</ele>
        <time>2026-05-14T15:04:23+02:00</time>
      </trkpt>
      <trkpt lat="46.98971" lon="5.1452">
        <ele>175.5</ele>
        <time>2026-05-14T15:04:24+02:00</time>
      </trkpt>
      <trkpt lat="46.98975" lon="5.14522">
        <ele>176.40039</ele>
        <time>2026-05-14T15:04:25+02:00</time>
      </trkpt>
      <trkpt lat="46.98979" lon="5.14524">
        <ele>176.40039</ele>
        <time>2026-05-14T15:04:26+02:00</time>
      </trkpt>
      <trkpt lat="46.98984" lon="5.14527">
        <ele>176.40039</ele>
        <time>2026-05-14T15:04:27+02:00</time>
      </trkpt>
      <trkpt lat="46.98988" lon="5.14531">
        <ele>177.7002</ele>
        <time>2026-05-14T15:04:28+02:00</time>
      </trkpt>
      <trkpt lat="46.98993" lon="5.14534">
        <ele>177.40039</ele>
        <time>2026-05-14T15:04:29+02:00</time>
      </trkpt>
      <trkpt lat="46.98997" lon="5.14537">
        <ele>177.40039</ele>
        <time>2026-05-14T15:04:30+02:00</time>
      </trkpt>
      <trkpt lat="46.99002" lon="5.1454">
        <ele>177.60059</ele>
        <time>2026-05-14T15:04:31+02:00</time>
      </trkpt>
      <trkpt lat="46.99006" lon="5.14543">
        <ele>176.5</ele>
        <time>2026-05-14T15:04:32+02:00</time>
      </trkpt>
      <trkpt lat="46.99011" lon="5.14547">
        <ele>176.2002</ele>
        <time>2026-05-14T15:04:33+02:00</time>
      </trkpt>
      <trkpt lat="46.99015" lon="5.1455">
        <ele>176.10059</ele>
        <time>2026-05-14T15:04:34+02:00</time>
      </trkpt>
      <trkpt lat="46.9902" lon="5.14554">
        <ele>176.10059</ele>
        <time>2026-05-14T15:04:35+02:00</time>
      </trkpt>
      <trkpt lat="46.99024" lon="5.14557">
        <ele>176.7998</ele>
        <time>2026-05-14T15:04:36+02:00</time>
      </trkpt>
      <trkpt lat="46.99029" lon="5.14561">
        <ele>176.5</ele>
        <time>2026-05-14T15:04:37+02:00</time>
      </trkpt>
      <trkpt lat="46.99034" lon="5.14564">
        <ele>176.7002</ele>
        <time>2026-05-14T15:04:38+02:00</time>
      </trkpt>
      <trkpt lat="46.99038" lon="5.14568">
        <ele>176.7002</ele>
        <time>2026-05-14T15:04:39+02:00</time>
      </trkpt>
      <trkpt lat="46.99043" lon="5.14571">
        <ele>176.40039</ele>
        <time>2026-05-14T15:04:40+02:00</time>
      </trkpt>
      <trkpt lat="46.99048" lon="5.14575">
        <ele>176.7002</ele>
        <time>2026-05-14T15:04:41+02:00</time>
      </trkpt>
      <trkpt lat="46.99052" lon="5.14579">
        <ele>176.5</ele>
        <time>2026-05-14T15:04:42+02:00</time>
      </trkpt>
      <trkpt lat="46.99057" lon="5.14583">
        <ele>177.40039</ele>
        <time>2026-05-14T15:04:43+02:00</time>
      </trkpt>
      <trkpt lat="46.99062" lon="5.14586">
        <ele>177</ele>
        <time>2026-05-14T15:04:44+02:00</time>
      </trkpt>
      <trkpt lat="46.99067" lon="5.1459">
        <ele>178.2998</ele>
        <time>2026-05-14T15:04:45+02:00</time>
      </trkpt>
      <trkpt lat="46.99072" lon="5.14594">
        <ele>177.7002</ele>
        <time>2026-05-14T15:04:46+02:00</time>
      </trkpt>
      <trkpt lat="46.99077" lon="5.14598">
        <ele>177.7002</ele>
        <time>2026-05-14T15:04:47+02:00</time>
      </trkpt>
      <trkpt lat="46.99082" lon="5.14602">
        <ele>176.90039</ele>
        <time>2026-05-14T15:04:48+02:00</time>
      </trkpt>
      <trkpt lat="46.99086" lon="5.14606">
        <ele>176.60059</ele>
        <time>2026-05-14T15:04:49+02:00</time>
      </trkpt>
      <trkpt lat="46.9909" lon="5.14609">
        <ele>177.2998</ele>
        <time>2026-05-14T15:04:50+02:00</time>
      </trkpt>
      <trkpt lat="46.99095" lon="5.14613">
        <ele>177.10059</ele>
        <time>2026-05-14T15:04:51+02:00</time>
      </trkpt>
      <trkpt lat="46.99099" lon="5.14616">
        <ele>178.2002</ele>
        <time>2026-05-14T15:04:52+02:00</time>
      </trkpt>
      <trkpt lat="46.99104" lon="5.1462">
        <ele>178</ele>
        <time>2026-05-14T15:04:53+02:00</time>
      </trkpt>
      <trkpt lat="46.99108" lon="5.14624">
        <ele>179.2998</ele>
        <time>2026-05-14T15:04:54+02:00</time>
      </trkpt>
      <trkpt lat="46.99113" lon="5.14628">
        <ele>178.90039</ele>
        <time>2026-05-14T15:04:55+02:00</time>
      </trkpt>
      <trkpt lat="46.99118" lon="5.14632">
        <ele>177.90039</ele>
        <time>2026-05-14T15:04:56+02:00</time>
      </trkpt>
      <trkpt lat="46.99123" lon="5.14636">
        <ele>177.5</ele>
        <time>2026-05-14T15:04:57+02:00</time>
      </trkpt>
      <trkpt lat="46.99128" lon="5.1464">
        <ele>176.60059</ele>
        <time>2026-05-14T15:04:58+02:00</time>
      </trkpt>
      <trkpt lat="46.99133" lon="5.14644">
        <ele>177</ele>
        <time>2026-05-14T15:04:59+02:00</time>
      </trkpt>
      <trkpt lat="46.99138" lon="5.14648">
        <ele>176.40039</ele>
        <time>2026-05-14T15:05:00+02:00</time>
      </trkpt>
      <trkpt lat="46.99143" lon="5.14652">
        <ele>177.2002</ele>
        <time>2026-05-14T15:05:01+02:00</time>
      </trkpt>
      <trkpt lat="46.99148" lon="5.14655">
        <ele>176.2002</ele>
        <time>2026-05-14T15:05:02+02:00</time>
      </trkpt>
      <trkpt lat="46.99153" lon="5.14659">
        <ele>175.60059</ele>
        <time>2026-05-14T15:05:03+02:00</time>
      </trkpt>
      <trkpt lat="46.99157" lon="5.14663">
        <ele>175.5</ele>
        <time>2026-05-14T15:05:04+02:00</time>
      </trkpt>
      <trkpt lat="46.99162" lon="5.14667">
        <ele>176.2002</ele>
        <time>2026-05-14T15:05:05+02:00</time>
      </trkpt>
      <trkpt lat="46.99167" lon="5.14671">
        <ele>176.2002</ele>
        <time>2026-05-14T15:05:06+02:00</time>
      </trkpt>
      <trkpt lat="46.99172" lon="5.14674">
        <ele>176.10059</ele>
        <time>2026-05-14T15:05:07+02:00</time>
      </trkpt>
      <trkpt lat="46.99177" lon="5.14678">
        <ele>176.40039</ele>
        <time>2026-05-14T15:05:08+02:00</time>
      </trkpt>
      <trkpt lat="46.99182" lon="5.14682">
        <ele>176.2002</ele>
        <time>2026-05-14T15:05:09+02:00</time>
      </trkpt>
      <trkpt lat="46.99188" lon="5.14685">
        <ele>176.60059</ele>
        <time>2026-05-14T15:05:10+02:00</time>
      </trkpt>
      <trkpt lat="46.99193" lon="5.14689">
        <ele>176.5</ele>
        <time>2026-05-14T15:05:11+02:00</time>
      </trkpt>
      <trkpt lat="46.99198" lon="5.14693">
        <ele>177.10059</ele>
        <time>2026-05-14T15:05:12+02:00</time>
      </trkpt>
      <trkpt lat="46.99203" lon="5.14696">
        <ele>176.90039</ele>
        <time>2026-05-14T15:05:13+02:00</time>
      </trkpt>
      <trkpt lat="46.99209" lon="5.147">
        <ele>176.7002</ele>
        <time>2026-05-14T15:05:14+02:00</time>
      </trkpt>
      <trkpt lat="46.99214" lon="5.14704">
        <ele>178</ele>
        <time>2026-05-14T15:05:15+02:00</time>
      </trkpt>
      <trkpt lat="46.99219" lon="5.14708">
        <ele>178</ele>
        <time>2026-05-14T15:05:16+02:00</time>
      </trkpt>
      <trkpt lat="46.99225" lon="5.14711">
        <ele>179.2002</ele>
        <time>2026-05-14T15:05:17+02:00</time>
      </trkpt>
      <trkpt lat="46.9923" lon="5.14715">
        <ele>178.7002</ele>
        <time>2026-05-14T15:05:18+02:00</time>
      </trkpt>
      <trkpt lat="46.99236" lon="5.14718">
        <ele>178</ele>
        <time>2026-05-14T15:05:19+02:00</time>
      </trkpt>
      <trkpt lat="46.99241" lon="5.14721">
        <ele>178.10059</ele>
        <time>2026-05-14T15:05:20+02:00</time>
      </trkpt>
      <trkpt lat="46.99247" lon="5.14724">
        <ele>177.40039</ele>
        <time>2026-05-14T15:05:21+02:00</time>
      </trkpt>
      <trkpt lat="46.99252" lon="5.14727">
        <ele>178.2998</ele>
        <time>2026-05-14T15:05:22+02:00</time>
      </trkpt>
      <trkpt lat="46.99258" lon="5.14729">
        <ele>178.2002</ele>
        <time>2026-05-14T15:05:23+02:00</time>
      </trkpt>
      <trkpt lat="46.99264" lon="5.14732">
        <ele>178</ele>
        <time>2026-05-14T15:05:24+02:00</time>
      </trkpt>
      <trkpt lat="46.99269" lon="5.14734">
        <ele>177.7998</ele>
        <time>2026-05-14T15:05:25+02:00</time>
      </trkpt>
      <trkpt lat="46.99274" lon="5.14737">
        <ele>179</ele>
        <time>2026-05-14T15:05:26+02:00</time>
      </trkpt>
      <trkpt lat="46.99279" lon="5.14739">
        <ele>177.90039</ele>
        <time>2026-05-14T15:05:27+02:00</time>
      </trkpt>
      <trkpt lat="46.99284" lon="5.1474">
        <ele>177.90039</ele>
        <time>2026-05-14T15:05:28+02:00</time>
      </trkpt>
      <trkpt lat="46.99289" lon="5.14742">
        <ele>176.60059</ele>
        <time>2026-05-14T15:05:29+02:00</time>
      </trkpt>
      <trkpt lat="46.99294" lon="5.14744">
        <ele>176.2002</ele>
        <time>2026-05-14T15:05:30+02:00</time>
      </trkpt>
      <trkpt lat="46.99299" lon="5.14745">
        <ele>175.5</ele>
        <time>2026-05-14T15:05:31+02:00</time>
      </trkpt>
      <trkpt lat="46.99304" lon="5.14746">
        <ele>175</ele>
        <time>2026-05-14T15:05:32+02:00</time>
      </trkpt>
      <trkpt lat="46.9931" lon="5.14746">
        <ele>174.5</ele>
        <time>2026-05-14T15:05:33+02:00</time>
      </trkpt>
      <trkpt lat="46.99315" lon="5.14746">
        <ele>174.2002</ele>
        <time>2026-05-14T15:05:34+02:00</time>
      </trkpt>
      <trkpt lat="46.9932" lon="5.14746">
        <ele>174.2002</ele>
        <time>2026-05-14T15:05:35+02:00</time>
      </trkpt>
      <trkpt lat="46.99325" lon="5.14745">
        <ele>174.10059</ele>
        <time>2026-05-14T15:05:36+02:00</time>
      </trkpt>
      <trkpt lat="46.99329" lon="5.14745">
        <ele>174.10059</ele>
        <time>2026-05-14T15:05:37+02:00</time>
      </trkpt>
      <trkpt lat="46.99334" lon="5.14744">
        <ele>174.10059</ele>
        <time>2026-05-14T15:05:38+02:00</time>
      </trkpt>
      <trkpt lat="46.99338" lon="5.14744">
        <ele>174.10059</ele>
        <time>2026-05-14T15:05:39+02:00</time>
      </trkpt>
      <trkpt lat="46.99342" lon="5.14743">
        <ele>174</ele>
        <time>2026-05-14T15:05:40+02:00</time>
      </trkpt>
      <trkpt lat="46.99346" lon="5.14743">
        <ele>173.7998</ele>
        <time>2026-05-14T15:05:41+02:00</time>
      </trkpt>
      <trkpt lat="46.99349" lon="5.14742">
        <ele>173.7002</ele>
        <time>2026-05-14T15:05:42+02:00</time>
      </trkpt>
      <trkpt lat="46.99354" lon="5.14742">
        <ele>173.7002</ele>
        <time>2026-05-14T15:05:43+02:00</time>
      </trkpt>
      <trkpt lat="46.99358" lon="5.14741">
        <ele>174</ele>
        <time>2026-05-14T15:05:44+02:00</time>
      </trkpt>
      <trkpt lat="46.99362" lon="5.14741">
        <ele>174.7002</ele>
        <time>2026-05-14T15:05:45+02:00</time>
      </trkpt>
      <trkpt lat="46.99367" lon="5.14741">
        <ele>176.40039</ele>
        <time>2026-05-14T15:05:46+02:00</time>
      </trkpt>
      <trkpt lat="46.99371" lon="5.14741">
        <ele>176.40039</ele>
        <time>2026-05-14T15:05:47+02:00</time>
      </trkpt>
      <trkpt lat="46.99375" lon="5.1474">
        <ele>178.60059</ele>
        <time>2026-05-14T15:05:48+02:00</time>
      </trkpt>
      <trkpt lat="46.9938" lon="5.14739">
        <ele>180.2002</ele>
        <time>2026-05-14T15:05:49+02:00</time>
      </trkpt>
      <trkpt lat="46.99384" lon="5.14738">
        <ele>180.2998</ele>
        <time>2026-05-14T15:05:50+02:00</time>
      </trkpt>
      <trkpt lat="46.99389" lon="5.14736">
        <ele>180.2998</ele>
        <time>2026-05-14T15:05:51+02:00</time>
      </trkpt>
      <trkpt lat="46.99393" lon="5.14734">
        <ele>179.2002</ele>
        <time>2026-05-14T15:05:52+02:00</time>
      </trkpt>
      <trkpt lat="46.99397" lon="5.14732">
        <ele>179.2002</ele>
        <time>2026-05-14T15:05:53+02:00</time>
      </trkpt>
      <trkpt lat="46.99402" lon="5.1473">
        <ele>179.2002</ele>
        <time>2026-05-14T15:05:54+02:00</time>
      </trkpt>
      <trkpt lat="46.99405" lon="5.14729">
        <ele>179.2002</ele>
        <time>2026-05-14T15:05:55+02:00</time>
      </trkpt>
      <trkpt lat="46.99409" lon="5.14726">
        <ele>177.7998</ele>
        <time>2026-05-14T15:05:56+02:00</time>
      </trkpt>
      <trkpt lat="46.99412" lon="5.14723">
        <ele>177.7998</ele>
        <time>2026-05-14T15:05:57+02:00</time>
      </trkpt>
      <trkpt lat="46.99416" lon="5.1472">
        <ele>177.7998</ele>
        <time>2026-05-14T15:05:58+02:00</time>
      </trkpt>
      <trkpt lat="46.9942" lon="5.14717">
        <ele>176.60059</ele>
        <time>2026-05-14T15:05:59+02:00</time>
      </trkpt>
      <trkpt lat="46.99424" lon="5.14714">
        <ele>176.60059</ele>
        <time>2026-05-14T15:06:00+02:00</time>
      </trkpt>
      <trkpt lat="46.99428" lon="5.14711">
        <ele>176.7002</ele>
        <time>2026-05-14T15:06:01+02:00</time>
      </trkpt>
      <trkpt lat="46.99432" lon="5.14708">
        <ele>175.7998</ele>
        <time>2026-05-14T15:06:02+02:00</time>
      </trkpt>
      <trkpt lat="46.99436" lon="5.14705">
        <ele>175.7998</ele>
        <time>2026-05-14T15:06:03+02:00</time>
      </trkpt>
      <trkpt lat="46.9944" lon="5.14702">
        <ele>175.90039</ele>
        <time>2026-05-14T15:06:04+02:00</time>
      </trkpt>
      <trkpt lat="46.99444" lon="5.14699">
        <ele>175.2998</ele>
        <time>2026-05-14T15:06:05+02:00</time>
      </trkpt>
      <trkpt lat="46.99447" lon="5.14695">
        <ele>175.2998</ele>
        <time>2026-05-14T15:06:06+02:00</time>
      </trkpt>
      <trkpt lat="46.99451" lon="5.14692">
        <ele>174.7998</ele>
        <time>2026-05-14T15:06:07+02:00</time>
      </trkpt>
      <trkpt lat="46.99455" lon="5.14689">
        <ele>174.90039</ele>
        <time>2026-05-14T15:06:08+02:00</time>
      </trkpt>
      <trkpt lat="46.99459" lon="5.14686">
        <ele>174.90039</ele>
        <time>2026-05-14T15:06:09+02:00</time>
      </trkpt>
      <trkpt lat="46.99463" lon="5.14683">
        <ele>174.40039</ele>
        <time>2026-05-14T15:06:10+02:00</time>
      </trkpt>
      <trkpt lat="46.99467" lon="5.1468">
        <ele>174.5</ele>
        <time>2026-05-14T15:06:11+02:00</time>
      </trkpt>
      <trkpt lat="46.99471" lon="5.14676">
        <ele>174.5</ele>
        <time>2026-05-14T15:06:12+02:00</time>
      </trkpt>
      <trkpt lat="46.99474" lon="5.14673">
        <ele>174.2998</ele>
        <time>2026-05-14T15:06:13+02:00</time>
      </trkpt>
      <trkpt lat="46.99478" lon="5.14669">
        <ele>174.7002</ele>
        <time>2026-05-14T15:06:14+02:00</time>
      </trkpt>
      <trkpt lat="46.99482" lon="5.14666">
        <ele>174.40039</ele>
        <time>2026-05-14T15:06:15+02:00</time>
      </trkpt>
      <trkpt lat="46.99487" lon="5.14662">
        <ele>174.7002</ele>
        <time>2026-05-14T15:06:16+02:00</time>
      </trkpt>
      <trkpt lat="46.99491" lon="5.14658">
        <ele>175</ele>
        <time>2026-05-14T15:06:17+02:00</time>
      </trkpt>
      <trkpt lat="46.99495" lon="5.14655">
        <ele>174.7998</ele>
        <time>2026-05-14T15:06:18+02:00</time>
      </trkpt>
      <trkpt lat="46.995" lon="5.14652">
        <ele>174.7998</ele>
        <time>2026-05-14T15:06:19+02:00</time>
      </trkpt>
      <trkpt lat="46.99504" lon="5.14649">
        <ele>174.40039</ele>
        <time>2026-05-14T15:06:20+02:00</time>
      </trkpt>
      <trkpt lat="46.99508" lon="5.14646">
        <ele>174.60059</ele>
        <time>2026-05-14T15:06:21+02:00</time>
      </trkpt>
      <trkpt lat="46.99513" lon="5.14642">
        <ele>174.7998</ele>
        <time>2026-05-14T15:06:22+02:00</time>
      </trkpt>
      <trkpt lat="46.99517" lon="5.14639">
        <ele>174.2998</ele>
        <time>2026-05-14T15:06:23+02:00</time>
      </trkpt>
      <trkpt lat="46.99521" lon="5.14635">
        <ele>174.7998</ele>
        <time>2026-05-14T15:06:24+02:00</time>
      </trkpt>
      <trkpt lat="46.99526" lon="5.14632">
        <ele>174.90039</ele>
        <time>2026-05-14T15:06:25+02:00</time>
      </trkpt>
      <trkpt lat="46.9953" lon="5.14628">
        <ele>175.40039</ele>
        <time>2026-05-14T15:06:26+02:00</time>
      </trkpt>
      <trkpt lat="46.99534" lon="5.14625">
        <ele>175.40039</ele>
        <time>2026-05-14T15:06:27+02:00</time>
      </trkpt>
      <trkpt lat="46.99538" lon="5.14622">
        <ele>175.2998</ele>
        <time>2026-05-14T15:06:28+02:00</time>
      </trkpt>
      <trkpt lat="46.99542" lon="5.14619">
        <ele>175.7002</ele>
        <time>2026-05-14T15:06:29+02:00</time>
      </trkpt>
      <trkpt lat="46.99547" lon="5.14616">
        <ele>175.7002</ele>
        <time>2026-05-14T15:06:30+02:00</time>
      </trkpt>
      <trkpt lat="46.9955" lon="5.14612">
        <ele>175.60059</ele>
        <time>2026-05-14T15:06:31+02:00</time>
      </trkpt>
      <trkpt lat="46.99554" lon="5.14609">
        <ele>176.10059</ele>
        <time>2026-05-14T15:06:32+02:00</time>
      </trkpt>
      <trkpt lat="46.99558" lon="5.14605">
        <ele>175.60059</ele>
        <time>2026-05-14T15:06:33+02:00</time>
      </trkpt>
      <trkpt lat="46.99562" lon="5.14602">
        <ele>175.90039</ele>
        <time>2026-05-14T15:06:34+02:00</time>
      </trkpt>
      <trkpt lat="46.99566" lon="5.14599">
        <ele>176.2998</ele>
        <time>2026-05-14T15:06:35+02:00</time>
      </trkpt>
      <trkpt lat="46.99571" lon="5.14595">
        <ele>175.5</ele>
        <time>2026-05-14T15:06:36+02:00</time>
      </trkpt>
      <trkpt lat="46.99574" lon="5.14592">
        <ele>175.7002</ele>
        <time>2026-05-14T15:06:37+02:00</time>
      </trkpt>
      <trkpt lat="46.99579" lon="5.14588">
        <ele>175.2998</ele>
        <time>2026-05-14T15:06:38+02:00</time>
      </trkpt>
      <trkpt lat="46.99583" lon="5.14585">
        <ele>175.5</ele>
        <time>2026-05-14T15:06:39+02:00</time>
      </trkpt>
      <trkpt lat="46.99587" lon="5.14582">
        <ele>175.5</ele>
        <time>2026-05-14T15:06:40+02:00</time>
      </trkpt>
      <trkpt lat="46.99592" lon="5.14578">
        <ele>174.90039</ele>
        <time>2026-05-14T15:06:41+02:00</time>
      </trkpt>
      <trkpt lat="46.99596" lon="5.14574">
        <ele>175.2002</ele>
        <time>2026-05-14T15:06:42+02:00</time>
      </trkpt>
      <trkpt lat="46.996" lon="5.14571">
        <ele>174.5</ele>
        <time>2026-05-14T15:06:43+02:00</time>
      </trkpt>
      <trkpt lat="46.99605" lon="5.14567">
        <ele>174.7002</ele>
        <time>2026-05-14T15:06:44+02:00</time>
      </trkpt>
      <trkpt lat="46.99609" lon="5.14564">
        <ele>175.10059</ele>
        <time>2026-05-14T15:06:45+02:00</time>
      </trkpt>
      <trkpt lat="46.99613" lon="5.1456">
        <ele>175.10059</ele>
        <time>2026-05-14T15:06:46+02:00</time>
      </trkpt>
      <trkpt lat="46.99618" lon="5.14557">
        <ele>175.60059</ele>
        <time>2026-05-14T15:06:47+02:00</time>
      </trkpt>
      <trkpt lat="46.99622" lon="5.14554">
        <ele>175</ele>
        <time>2026-05-14T15:06:48+02:00</time>
      </trkpt>
      <trkpt lat="46.99626" lon="5.1455">
        <ele>175.40039</ele>
        <time>2026-05-14T15:06:49+02:00</time>
      </trkpt>
      <trkpt lat="46.9963" lon="5.14547">
        <ele>175.7002</ele>
        <time>2026-05-14T15:06:50+02:00</time>
      </trkpt>
      <trkpt lat="46.99635" lon="5.14543">
        <ele>175</ele>
        <time>2026-05-14T15:06:51+02:00</time>
      </trkpt>
      <trkpt lat="46.99639" lon="5.1454">
        <ele>175.2002</ele>
        <time>2026-05-14T15:06:52+02:00</time>
      </trkpt>
      <trkpt lat="46.99643" lon="5.14537">
        <ele>174.7998</ele>
        <time>2026-05-14T15:06:53+02:00</time>
      </trkpt>
      <trkpt lat="46.99648" lon="5.14533">
        <ele>175.2002</ele>
        <time>2026-05-14T15:06:54+02:00</time>
      </trkpt>
      <trkpt lat="46.99652" lon="5.1453">
        <ele>175.2002</ele>
        <time>2026-05-14T15:06:55+02:00</time>
      </trkpt>
      <trkpt lat="46.99656" lon="5.14527">
        <ele>175.2002</ele>
        <time>2026-05-14T15:06:56+02:00</time>
      </trkpt>
      <trkpt lat="46.99661" lon="5.14523">
        <ele>175.7998</ele>
        <time>2026-05-14T15:06:57+02:00</time>
      </trkpt>
      <trkpt lat="46.99666" lon="5.14519">
        <ele>175.7002</ele>
        <time>2026-05-14T15:06:58+02:00</time>
      </trkpt>
      <trkpt lat="46.9967" lon="5.14516">
        <ele>175.7002</ele>
        <time>2026-05-14T15:06:59+02:00</time>
      </trkpt>
      <trkpt lat="46.99674" lon="5.14514">
        <ele>176.10059</ele>
        <time>2026-05-14T15:07:00+02:00</time>
      </trkpt>
      <trkpt lat="46.99679" lon="5.14511">
        <ele>175.60059</ele>
        <time>2026-05-14T15:07:01+02:00</time>
      </trkpt>
      <trkpt lat="46.99683" lon="5.14509">
        <ele>176</ele>
        <time>2026-05-14T15:07:02+02:00</time>
      </trkpt>
      <trkpt lat="46.99687" lon="5.14507">
        <ele>176</ele>
        <time>2026-05-14T15:07:03+02:00</time>
      </trkpt>
      <trkpt lat="46.99692" lon="5.14504">
        <ele>176.5</ele>
        <time>2026-05-14T15:07:04+02:00</time>
      </trkpt>
      <trkpt lat="46.99696" lon="5.14501">
        <ele>176</ele>
        <time>2026-05-14T15:07:05+02:00</time>
      </trkpt>
      <trkpt lat="46.99701" lon="5.14498">
        <ele>176.7002</ele>
        <time>2026-05-14T15:07:06+02:00</time>
      </trkpt>
      <trkpt lat="46.99706" lon="5.14495">
        <ele>177.40039</ele>
        <time>2026-05-14T15:07:07+02:00</time>
      </trkpt>
      <trkpt lat="46.9971" lon="5.14492">
        <ele>176.5</ele>
        <time>2026-05-14T15:07:08+02:00</time>
      </trkpt>
      <trkpt lat="46.99715" lon="5.14489">
        <ele>177.10059</ele>
        <time>2026-05-14T15:07:09+02:00</time>
      </trkpt>
      <trkpt lat="46.9972" lon="5.14486">
        <ele>176.40039</ele>
        <time>2026-05-14T15:07:10+02:00</time>
      </trkpt>
      <trkpt lat="46.99725" lon="5.14483">
        <ele>176.7998</ele>
        <time>2026-05-14T15:07:11+02:00</time>
      </trkpt>
      <trkpt lat="46.99729" lon="5.1448">
        <ele>177.10059</ele>
        <time>2026-05-14T15:07:12+02:00</time>
      </trkpt>
      <trkpt lat="46.99734" lon="5.14478">
        <ele>177.10059</ele>
        <time>2026-05-14T15:07:13+02:00</time>
      </trkpt>
      <trkpt lat="46.99738" lon="5.14475">
        <ele>176.2998</ele>
        <time>2026-05-14T15:07:14+02:00</time>
      </trkpt>
      <trkpt lat="46.99743" lon="5.14472">
        <ele>176.40039</ele>
        <time>2026-05-14T15:07:15+02:00</time>
      </trkpt>
      <trkpt lat="46.99747" lon="5.1447">
        <ele>176.7002</ele>
        <time>2026-05-14T15:07:16+02:00</time>
      </trkpt>
      <trkpt lat="46.99751" lon="5.14467">
        <ele>175.60059</ele>
        <time>2026-05-14T15:07:17+02:00</time>
      </trkpt>
      <trkpt lat="46.99755" lon="5.14465">
        <ele>175.7998</ele>
        <time>2026-05-14T15:07:18+02:00</time>
      </trkpt>
      <trkpt lat="46.99759" lon="5.14463">
        <ele>175.90039</ele>
        <time>2026-05-14T15:07:19+02:00</time>
      </trkpt>
      <trkpt lat="46.99763" lon="5.14461">
        <ele>175.90039</ele>
        <time>2026-05-14T15:07:20+02:00</time>
      </trkpt>
      <trkpt lat="46.99767" lon="5.14459">
        <ele>175</ele>
        <time>2026-05-14T15:07:21+02:00</time>
      </trkpt>
      <trkpt lat="46.99771" lon="5.14457">
        <ele>175.2002</ele>
        <time>2026-05-14T15:07:22+02:00</time>
      </trkpt>
      <trkpt lat="46.99775" lon="5.14455">
        <ele>175.2002</ele>
        <time>2026-05-14T15:07:23+02:00</time>
      </trkpt>
      <trkpt lat="46.99779" lon="5.14452">
        <ele>175.5</ele>
        <time>2026-05-14T15:07:24+02:00</time>
      </trkpt>
      <trkpt lat="46.99783" lon="5.1445">
        <ele>175.2002</ele>
        <time>2026-05-14T15:07:25+02:00</time>
      </trkpt>
      <trkpt lat="46.99787" lon="5.14448">
        <ele>175.2002</ele>
        <time>2026-05-14T15:07:26+02:00</time>
      </trkpt>
      <trkpt lat="46.99791" lon="5.14446">
        <ele>175.90039</ele>
        <time>2026-05-14T15:07:27+02:00</time>
      </trkpt>
      <trkpt lat="46.99795" lon="5.14443">
        <ele>175.7002</ele>
        <time>2026-05-14T15:07:28+02:00</time>
      </trkpt>
      <trkpt lat="46.99799" lon="5.14441">
        <ele>175.7002</ele>
        <time>2026-05-14T15:07:29+02:00</time>
      </trkpt>
      <trkpt lat="46.99803" lon="5.14439">
        <ele>176</ele>
        <time>2026-05-14T15:07:30+02:00</time>
      </trkpt>
      <trkpt lat="46.99806" lon="5.14437">
        <ele>176.2998</ele>
        <time>2026-05-14T15:07:31+02:00</time>
      </trkpt>
      <trkpt lat="46.9981" lon="5.14435">
        <ele>176.2998</ele>
        <time>2026-05-14T15:07:32+02:00</time>
      </trkpt>
      <trkpt lat="46.99814" lon="5.14435">
        <ele>176.60059</ele>
        <time>2026-05-14T15:07:33+02:00</time>
      </trkpt>
      <trkpt lat="46.99818" lon="5.14434">
        <ele>175.7998</ele>
        <time>2026-05-14T15:07:34+02:00</time>
      </trkpt>
      <trkpt lat="46.99822" lon="5.14434">
        <ele>175.7998</ele>
        <time>2026-05-14T15:07:35+02:00</time>
      </trkpt>
      <trkpt lat="46.99826" lon="5.14433">
        <ele>176</ele>
        <time>2026-05-14T15:07:36+02:00</time>
      </trkpt>
      <trkpt lat="46.9983" lon="5.14433">
        <ele>176.2002</ele>
        <time>2026-05-14T15:07:37+02:00</time>
      </trkpt>
      <trkpt lat="46.99833" lon="5.14432">
        <ele>176.2002</ele>
        <time>2026-05-14T15:07:38+02:00</time>
      </trkpt>
      <trkpt lat="46.99837" lon="5.14432">
        <ele>176.2998</ele>
        <time>2026-05-14T15:07:39+02:00</time>
      </trkpt>
      <trkpt lat="46.99841" lon="5.14432">
        <ele>176.5</ele>
        <time>2026-05-14T15:07:40+02:00</time>
      </trkpt>
      <trkpt lat="46.99845" lon="5.14432">
        <ele>176.5</ele>
        <time>2026-05-14T15:07:41+02:00</time>
      </trkpt>
      <trkpt lat="46.99849" lon="5.14431">
        <ele>176.60059</ele>
        <time>2026-05-14T15:07:42+02:00</time>
      </trkpt>
      <trkpt lat="46.99854" lon="5.14431">
        <ele>176.7998</ele>
        <time>2026-05-14T15:07:43+02:00</time>
      </trkpt>
      <trkpt lat="46.99858" lon="5.14431">
        <ele>177</ele>
        <time>2026-05-14T15:07:44+02:00</time>
      </trkpt>
      <trkpt lat="46.99863" lon="5.14431">
        <ele>177</ele>
        <time>2026-05-14T15:07:45+02:00</time>
      </trkpt>
      <trkpt lat="46.99868" lon="5.1443">
        <ele>177.2002</ele>
        <time>2026-05-14T15:07:46+02:00</time>
      </trkpt>
      <trkpt lat="46.99873" lon="5.1443">
        <ele>177.40039</ele>
        <time>2026-05-14T15:07:47+02:00</time>
      </trkpt>
      <trkpt lat="46.99878" lon="5.14429">
        <ele>177.60059</ele>
        <time>2026-05-14T15:07:48+02:00</time>
      </trkpt>
      <trkpt lat="46.99883" lon="5.1443">
        <ele>177.7998</ele>
        <time>2026-05-14T15:07:49+02:00</time>
      </trkpt>
      <trkpt lat="46.99889" lon="5.14429">
        <ele>178</ele>
        <time>2026-05-14T15:07:50+02:00</time>
      </trkpt>
      <trkpt lat="46.99895" lon="5.14429">
        <ele>178.2002</ele>
        <time>2026-05-14T15:07:51+02:00</time>
      </trkpt>
      <trkpt lat="46.99901" lon="5.14429">
        <ele>178.40039</ele>
        <time>2026-05-14T15:07:52+02:00</time>
      </trkpt>
      <trkpt lat="46.99907" lon="5.14429">
        <ele>178.60059</ele>
        <time>2026-05-14T15:07:53+02:00</time>
      </trkpt>
      <trkpt lat="46.99913" lon="5.14429">
        <ele>178.60059</ele>
        <time>2026-05-14T15:07:54+02:00</time>
      </trkpt>
      <trkpt lat="46.9992" lon="5.14429">
        <ele>178.60059</ele>
        <time>2026-05-14T15:07:55+02:00</time>
      </trkpt>
      <trkpt lat="46.99926" lon="5.14429">
        <ele>178.40039</ele>
        <time>2026-05-14T15:07:56+02:00</time>
      </trkpt>
      <trkpt lat="46.99932" lon="5.14429">
        <ele>178.2998</ele>
        <time>2026-05-14T15:07:57+02:00</time>
      </trkpt>
      <trkpt lat="46.99938" lon="5.1443">
        <ele>178.10059</ele>
        <time>2026-05-14T15:07:58+02:00</time>
      </trkpt>
      <trkpt lat="46.99944" lon="5.1443">
        <ele>178</ele>
        <time>2026-05-14T15:07:59+02:00</time>
      </trkpt>
      <trkpt lat="46.99948" lon="5.1443">
        <ele>177.90039</ele>
        <time>2026-05-14T15:08:00+02:00</time>
      </trkpt>
      <trkpt lat="46.99951" lon="5.1443">
        <ele>177.90039</ele>
        <time>2026-05-14T15:08:01+02:00</time>
      </trkpt>
      <trkpt lat="46.99954" lon="5.14429">
        <ele>177.7002</ele>
        <time>2026-05-14T15:08:02+02:00</time>
      </trkpt>
      <trkpt lat="46.99957" lon="5.14429">
        <ele>177.7002</ele>
        <time>2026-05-14T15:08:03+02:00</time>
      </trkpt>
      <trkpt lat="46.9996" lon="5.14428">
        <ele>177.60059</ele>
        <time>2026-05-14T15:08:04+02:00</time>
      </trkpt>
      <trkpt lat="46.99962" lon="5.14427">
        <ele>177.60059</ele>
        <time>2026-05-14T15:08:05+02:00</time>
      </trkpt>
      <trkpt lat="46.99963" lon="5.14425">
        <ele>176.7998</ele>
        <time>2026-05-14T15:08:06+02:00</time>
      </trkpt>
      <trkpt lat="46.99962" lon="5.14423">
        <ele>176.7998</ele>
        <time>2026-05-14T15:08:07+02:00</time>
      </trkpt>
      <trkpt lat="46.99962" lon="5.14421">
        <ele>176.7998</ele>
        <time>2026-05-14T15:08:08+02:00</time>
      </trkpt>
      <trkpt lat="46.9996" lon="5.14421">
        <ele>176.7998</ele>
        <time>2026-05-14T15:08:09+02:00</time>
      </trkpt>
      <trkpt lat="46.99959" lon="5.14421">
        <ele>176.7998</ele>
        <time>2026-05-14T15:08:10+02:00</time>
      </trkpt>
      <trkpt lat="46.99959" lon="5.14421">
        <ele>176.7998</ele>
        <time>2026-05-14T15:08:11+02:00</time>
      </trkpt>
      <trkpt lat="46.99959" lon="5.14421">
        <ele>176.7998</ele>
        <time>2026-05-14T15:08:12+02:00</time>
      </trkpt>
      <trkpt lat="46.99959" lon="5.14421">
        <ele>176.7998</ele>
        <time>2026-05-14T15:08:13+02:00</time>
      </trkpt>
      <trkpt lat="46.99965" lon="5.14414">
        <ele>176.10059</ele>
        <time>2026-05-14T15:10:47+02:00</time>
      </trkpt>
      <trkpt lat="46.99967" lon="5.14413">
        <ele>176.10059</ele>
        <time>2026-05-14T15:10:48+02:00</time>
      </trkpt>
      <trkpt lat="46.99969" lon="5.14413">
        <ele>176</ele>
        <time>2026-05-14T15:10:49+02:00</time>
      </trkpt>
      <trkpt lat="46.99972" lon="5.14412">
        <ele>176</ele>
        <time>2026-05-14T15:10:50+02:00</time>
      </trkpt>
      <trkpt lat="46.99974" lon="5.14411">
        <ele>176</ele>
        <time>2026-05-14T15:10:51+02:00</time>
      </trkpt>
      <trkpt lat="46.99976" lon="5.1441">
        <ele>175.90039</ele>
        <time>2026-05-14T15:10:52+02:00</time>
      </trkpt>
      <trkpt lat="46.99979" lon="5.14408">
        <ele>175.40039</ele>
        <time>2026-05-14T15:10:53+02:00</time>
      </trkpt>
      <trkpt lat="46.99981" lon="5.14407">
        <ele>175.40039</ele>
        <time>2026-05-14T15:10:54+02:00</time>
      </trkpt>
      <trkpt lat="46.99984" lon="5.14406">
        <ele>175.40039</ele>
        <time>2026-05-14T15:10:55+02:00</time>
      </trkpt>
      <trkpt lat="46.99987" lon="5.14405">
        <ele>175.40039</ele>
        <time>2026-05-14T15:10:56+02:00</time>
      </trkpt>
      <trkpt lat="46.9999" lon="5.14404">
        <ele>175.40039</ele>
        <time>2026-05-14T15:10:57+02:00</time>
      </trkpt>
      <trkpt lat="46.99993" lon="5.14402">
        <ele>175.5</ele>
        <time>2026-05-14T15:10:58+02:00</time>
      </trkpt>
      <trkpt lat="46.99996" lon="5.14401">
        <ele>175.5</ele>
        <time>2026-05-14T15:10:59+02:00</time>
      </trkpt>
      <trkpt lat="47" lon="5.144">
        <ele>175.7002</ele>
        <time>2026-05-14T15:11:00+02:00</time>
      </trkpt>
      <trkpt lat="47.00003" lon="5.14398">
        <ele>175.7002</ele>
        <time>2026-05-14T15:11:01+02:00</time>
      </trkpt>
      <trkpt lat="47.00006" lon="5.14396">
        <ele>176</ele>
        <time>2026-05-14T15:11:02+02:00</time>
      </trkpt>
      <trkpt lat="47.0001" lon="5.14394">
        <ele>176</ele>
        <time>2026-05-14T15:11:03+02:00</time>
      </trkpt>
      <trkpt lat="47.00013" lon="5.14392">
        <ele>176.5</ele>
        <time>2026-05-14T15:11:04+02:00</time>
      </trkpt>
      <trkpt lat="47.00017" lon="5.1439">
        <ele>175.7998</ele>
        <time>2026-05-14T15:11:05+02:00</time>
      </trkpt>
      <trkpt lat="47.0002" lon="5.14388">
        <ele>175.7998</ele>
        <time>2026-05-14T15:11:06+02:00</time>
      </trkpt>
      <trkpt lat="47.00023" lon="5.14386">
        <ele>176.10059</ele>
        <time>2026-05-14T15:11:07+02:00</time>
      </trkpt>
      <trkpt lat="47.00027" lon="5.14384">
        <ele>176.10059</ele>
        <time>2026-05-14T15:11:08+02:00</time>
      </trkpt>
      <trkpt lat="47.00031" lon="5.14382">
        <ele>175.60059</ele>
        <time>2026-05-14T15:11:09+02:00</time>
      </trkpt>
      <trkpt lat="47.00034" lon="5.14379">
        <ele>176</ele>
        <time>2026-05-14T15:11:10+02:00</time>
      </trkpt>
      <trkpt lat="47.00038" lon="5.14377">
        <ele>176</ele>
        <time>2026-05-14T15:11:11+02:00</time>
      </trkpt>
      <trkpt lat="47.00041" lon="5.14375">
        <ele>176.2998</ele>
        <time>2026-05-14T15:11:12+02:00</time>
      </trkpt>
      <trkpt lat="47.00044" lon="5.14373">
        <ele>175.40039</ele>
        <time>2026-05-14T15:11:13+02:00</time>
      </trkpt>
      <trkpt lat="47.00047" lon="5.14371">
        <ele>175.7998</ele>
        <time>2026-05-14T15:11:14+02:00</time>
      </trkpt>
      <trkpt lat="47.0005" lon="5.14369">
        <ele>175.7998</ele>
        <time>2026-05-14T15:11:15+02:00</time>
      </trkpt>
      <trkpt lat="47.00053" lon="5.14367">
        <ele>176.2998</ele>
        <time>2026-05-14T15:11:16+02:00</time>
      </trkpt>
      <trkpt lat="47.00056" lon="5.14365">
        <ele>175.60059</ele>
        <time>2026-05-14T15:11:17+02:00</time>
      </trkpt>
      <trkpt lat="47.00058" lon="5.14363">
        <ele>176.10059</ele>
        <time>2026-05-14T15:11:18+02:00</time>
      </trkpt>
      <trkpt lat="47.00062" lon="5.14361">
        <ele>176.10059</ele>
        <time>2026-05-14T15:11:19+02:00</time>
      </trkpt>
      <trkpt lat="47.00065" lon="5.14359">
        <ele>176.60059</ele>
        <time>2026-05-14T15:11:20+02:00</time>
      </trkpt>
      <trkpt lat="47.00068" lon="5.14357">
        <ele>175.90039</ele>
        <time>2026-05-14T15:11:21+02:00</time>
      </trkpt>
      <trkpt lat="47.00072" lon="5.14355">
        <ele>176.2998</ele>
        <time>2026-05-14T15:11:22+02:00</time>
      </trkpt>
      <trkpt lat="47.00076" lon="5.14354">
        <ele>176.7002</ele>
        <time>2026-05-14T15:11:23+02:00</time>
      </trkpt>
      <trkpt lat="47.00081" lon="5.14352">
        <ele>177.2002</ele>
        <time>2026-05-14T15:11:24+02:00</time>
      </trkpt>
      <trkpt lat="47.00085" lon="5.1435">
        <ele>177.2002</ele>
        <time>2026-05-14T15:11:25+02:00</time>
      </trkpt>
      <trkpt lat="47.0009" lon="5.14347">
        <ele>176.60059</ele>
        <time>2026-05-14T15:11:26+02:00</time>
      </trkpt>
      <trkpt lat="47.00095" lon="5.14345">
        <ele>177</ele>
        <time>2026-05-14T15:11:27+02:00</time>
      </trkpt>
      <trkpt lat="47.00099" lon="5.14343">
        <ele>177.5</ele>
        <time>2026-05-14T15:11:28+02:00</time>
      </trkpt>
      <trkpt lat="47.00104" lon="5.14341">
        <ele>178</ele>
        <time>2026-05-14T15:11:29+02:00</time>
      </trkpt>
      <trkpt lat="47.00109" lon="5.14339">
        <ele>177.2998</ele>
        <time>2026-05-14T15:11:30+02:00</time>
      </trkpt>
      <trkpt lat="47.00113" lon="5.14338">
        <ele>177.90039</ele>
        <time>2026-05-14T15:11:31+02:00</time>
      </trkpt>
      <trkpt lat="47.00118" lon="5.14337">
        <ele>178.5</ele>
        <time>2026-05-14T15:11:32+02:00</time>
      </trkpt>
      <trkpt lat="47.00123" lon="5.14335">
        <ele>179.10059</ele>
        <time>2026-05-14T15:11:33+02:00</time>
      </trkpt>
      <trkpt lat="47.00127" lon="5.14334">
        <ele>179.10059</ele>
        <time>2026-05-14T15:11:34+02:00</time>
      </trkpt>
      <trkpt lat="47.00132" lon="5.14332">
        <ele>179.7002</ele>
        <time>2026-05-14T15:11:35+02:00</time>
      </trkpt>
      <trkpt lat="47.00136" lon="5.1433">
        <ele>179.40039</ele>
        <time>2026-05-14T15:11:36+02:00</time>
      </trkpt>
      <trkpt lat="47.00141" lon="5.14329">
        <ele>179.90039</ele>
        <time>2026-05-14T15:11:37+02:00</time>
      </trkpt>
      <trkpt lat="47.00145" lon="5.14327">
        <ele>180.2998</ele>
        <time>2026-05-14T15:11:38+02:00</time>
      </trkpt>
      <trkpt lat="47.0015" lon="5.14326">
        <ele>180.2998</ele>
        <time>2026-05-14T15:11:39+02:00</time>
      </trkpt>
      <trkpt lat="47.00154" lon="5.14324">
        <ele>180.60059</ele>
        <time>2026-05-14T15:11:40+02:00</time>
      </trkpt>
      <trkpt lat="47.00159" lon="5.14322">
        <ele>180.2998</ele>
        <time>2026-05-14T15:11:41+02:00</time>
      </trkpt>
      <trkpt lat="47.00163" lon="5.14322">
        <ele>180.40039</ele>
        <time>2026-05-14T15:11:42+02:00</time>
      </trkpt>
      <trkpt lat="47.00168" lon="5.14322">
        <ele>180.40039</ele>
        <time>2026-05-14T15:11:43+02:00</time>
      </trkpt>
      <trkpt lat="47.00173" lon="5.14323">
        <ele>180.40039</ele>
        <time>2026-05-14T15:11:44+02:00</time>
      </trkpt>
      <trkpt lat="47.00177" lon="5.14324">
        <ele>180.90039</ele>
        <time>2026-05-14T15:11:45+02:00</time>
      </trkpt>
      <trkpt lat="47.00182" lon="5.14325">
        <ele>180.90039</ele>
        <time>2026-05-14T15:11:46+02:00</time>
      </trkpt>
      <trkpt lat="47.00187" lon="5.14327">
        <ele>180.90039</ele>
        <time>2026-05-14T15:11:47+02:00</time>
      </trkpt>
      <trkpt lat="47.00191" lon="5.14329">
        <ele>180.90039</ele>
        <time>2026-05-14T15:11:48+02:00</time>
      </trkpt>
      <trkpt lat="47.00196" lon="5.1433">
        <ele>180.90039</ele>
        <time>2026-05-14T15:11:49+02:00</time>
      </trkpt>
      <trkpt lat="47.00201" lon="5.14331">
        <ele>180.90039</ele>
        <time>2026-05-14T15:11:50+02:00</time>
      </trkpt>
      <trkpt lat="47.00205" lon="5.14333">
        <ele>181.10059</ele>
        <time>2026-05-14T15:11:51+02:00</time>
      </trkpt>
      <trkpt lat="47.0021" lon="5.14334">
        <ele>181</ele>
        <time>2026-05-14T15:11:52+02:00</time>
      </trkpt>
      <trkpt lat="47.00215" lon="5.14335">
        <ele>180.90039</ele>
        <time>2026-05-14T15:11:53+02:00</time>
      </trkpt>
      <trkpt lat="47.00219" lon="5.14336">
        <ele>180.90039</ele>
        <time>2026-05-14T15:11:54+02:00</time>
      </trkpt>
      <trkpt lat="47.00224" lon="5.14338">
        <ele>181</ele>
        <time>2026-05-14T15:11:55+02:00</time>
      </trkpt>
      <trkpt lat="47.00229" lon="5.14339">
        <ele>181.2002</ele>
        <time>2026-05-14T15:11:56+02:00</time>
      </trkpt>
      <trkpt lat="47.00234" lon="5.1434">
        <ele>181.5</ele>
        <time>2026-05-14T15:11:57+02:00</time>
      </trkpt>
      <trkpt lat="47.00239" lon="5.14342">
        <ele>181.7998</ele>
        <time>2026-05-14T15:11:58+02:00</time>
      </trkpt>
      <trkpt lat="47.00244" lon="5.14343">
        <ele>181.2998</ele>
        <time>2026-05-14T15:11:59+02:00</time>
      </trkpt>
      <trkpt lat="47.00248" lon="5.14345">
        <ele>181.2998</ele>
        <time>2026-05-14T15:12:00+02:00</time>
      </trkpt>
      <trkpt lat="47.00252" lon="5.14348">
        <ele>180.2002</ele>
        <time>2026-05-14T15:12:01+02:00</time>
      </trkpt>
      <trkpt lat="47.00255" lon="5.14352">
        <ele>181.10059</ele>
        <time>2026-05-14T15:12:02+02:00</time>
      </trkpt>
      <trkpt lat="47.00258" lon="5.14357">
        <ele>180.5</ele>
        <time>2026-05-14T15:12:03+02:00</time>
      </trkpt>
      <trkpt lat="47.00261" lon="5.14364">
        <ele>181.5</ele>
        <time>2026-05-14T15:12:04+02:00</time>
      </trkpt>
      <trkpt lat="47.00263" lon="5.1437">
        <ele>181.90039</ele>
        <time>2026-05-14T15:12:05+02:00</time>
      </trkpt>
      <trkpt lat="47.00264" lon="5.14377">
        <ele>182.10059</ele>
        <time>2026-05-14T15:12:06+02:00</time>
      </trkpt>
      <trkpt lat="47.00265" lon="5.14383">
        <ele>182.10059</ele>
        <time>2026-05-14T15:12:07+02:00</time>
      </trkpt>
      <trkpt lat="47.00266" lon="5.1439">
        <ele>182</ele>
        <time>2026-05-14T15:12:08+02:00</time>
      </trkpt>
      <trkpt lat="47.00266" lon="5.14397">
        <ele>181.7998</ele>
        <time>2026-05-14T15:12:09+02:00</time>
      </trkpt>
      <trkpt lat="47.00265" lon="5.14404">
        <ele>181.7998</ele>
        <time>2026-05-14T15:12:10+02:00</time>
      </trkpt>
      <trkpt lat="47.00265" lon="5.14412">
        <ele>181.7998</ele>
        <time>2026-05-14T15:12:11+02:00</time>
      </trkpt>
      <trkpt lat="47.00264" lon="5.14419">
        <ele>181.7998</ele>
        <time>2026-05-14T15:12:12+02:00</time>
      </trkpt>
      <trkpt lat="47.00264" lon="5.14426">
        <ele>181.7998</ele>
        <time>2026-05-14T15:12:13+02:00</time>
      </trkpt>
      <trkpt lat="47.00263" lon="5.14433">
        <ele>181.7002</ele>
        <time>2026-05-14T15:12:14+02:00</time>
      </trkpt>
      <trkpt lat="47.00262" lon="5.1444">
        <ele>181.60059</ele>
        <time>2026-05-14T15:12:15+02:00</time>
      </trkpt>
      <trkpt lat="47.00261" lon="5.14447">
        <ele>181.7002</ele>
        <time>2026-05-14T15:12:16+02:00</time>
      </trkpt>
      <trkpt lat="47.00261" lon="5.14455">
        <ele>181.5</ele>
        <time>2026-05-14T15:12:17+02:00</time>
      </trkpt>
      <trkpt lat="47.0026" lon="5.14462">
        <ele>181.40039</ele>
        <time>2026-05-14T15:12:18+02:00</time>
      </trkpt>
      <trkpt lat="47.00259" lon="5.14469">
        <ele>181.40039</ele>
        <time>2026-05-14T15:12:19+02:00</time>
      </trkpt>
      <trkpt lat="47.00258" lon="5.14476">
        <ele>181.2998</ele>
        <time>2026-05-14T15:12:20+02:00</time>
      </trkpt>
      <trkpt lat="47.00257" lon="5.14483">
        <ele>181.2002</ele>
        <time>2026-05-14T15:12:21+02:00</time>
      </trkpt>
      <trkpt lat="47.00257" lon="5.14491">
        <ele>181</ele>
        <time>2026-05-14T15:12:22+02:00</time>
      </trkpt>
      <trkpt lat="47.00256" lon="5.14498">
        <ele>180.90039</ele>
        <time>2026-05-14T15:12:23+02:00</time>
      </trkpt>
      <trkpt lat="47.00256" lon="5.14506">
        <ele>180.7998</ele>
        <time>2026-05-14T15:12:24+02:00</time>
      </trkpt>
      <trkpt lat="47.00255" lon="5.14513">
        <ele>180.7998</ele>
        <time>2026-05-14T15:12:25+02:00</time>
      </trkpt>
      <trkpt lat="47.00255" lon="5.14521">
        <ele>180.7002</ele>
        <time>2026-05-14T15:12:26+02:00</time>
      </trkpt>
      <trkpt lat="47.00255" lon="5.14528">
        <ele>180.7002</ele>
        <time>2026-05-14T15:12:27+02:00</time>
      </trkpt>
      <trkpt lat="47.00255" lon="5.14536">
        <ele>180.60059</ele>
        <time>2026-05-14T15:12:28+02:00</time>
      </trkpt>
      <trkpt lat="47.00255" lon="5.14544">
        <ele>180.5</ele>
        <time>2026-05-14T15:12:29+02:00</time>
      </trkpt>
      <trkpt lat="47.00255" lon="5.14552">
        <ele>180.40039</ele>
        <time>2026-05-14T15:12:30+02:00</time>
      </trkpt>
      <trkpt lat="47.00255" lon="5.14559">
        <ele>180.40039</ele>
        <time>2026-05-14T15:12:31+02:00</time>
      </trkpt>
      <trkpt lat="47.00255" lon="5.14567">
        <ele>180.2998</ele>
        <time>2026-05-14T15:12:32+02:00</time>
      </trkpt>
      <trkpt lat="47.00254" lon="5.14575">
        <ele>180.2002</ele>
        <time>2026-05-14T15:12:33+02:00</time>
      </trkpt>
      <trkpt lat="47.00253" lon="5.14582">
        <ele>180.2002</ele>
        <time>2026-05-14T15:12:34+02:00</time>
      </trkpt>
      <trkpt lat="47.00253" lon="5.14589">
        <ele>180.2002</ele>
        <time>2026-05-14T15:12:35+02:00</time>
      </trkpt>
      <trkpt lat="47.00252" lon="5.14597">
        <ele>180.10059</ele>
        <time>2026-05-14T15:12:36+02:00</time>
      </trkpt>
      <trkpt lat="47.00252" lon="5.14604">
        <ele>180</ele>
        <time>2026-05-14T15:12:37+02:00</time>
      </trkpt>
      <trkpt lat="47.00251" lon="5.14611">
        <ele>179.90039</ele>
        <time>2026-05-14T15:12:38+02:00</time>
      </trkpt>
      <trkpt lat="47.00249" lon="5.14617">
        <ele>179.90039</ele>
        <time>2026-05-14T15:12:39+02:00</time>
      </trkpt>
      <trkpt lat="47.00247" lon="5.14624">
        <ele>179.7998</ele>
        <time>2026-05-14T15:12:40+02:00</time>
      </trkpt>
      <trkpt lat="47.00246" lon="5.1463">
        <ele>179.7998</ele>
        <time>2026-05-14T15:12:41+02:00</time>
      </trkpt>
      <trkpt lat="47.00244" lon="5.14637">
        <ele>179.7002</ele>
        <time>2026-05-14T15:12:42+02:00</time>
      </trkpt>
      <trkpt lat="47.00243" lon="5.14642">
        <ele>179.7998</ele>
        <time>2026-05-14T15:12:43+02:00</time>
      </trkpt>
      <trkpt lat="47.00243" lon="5.14647">
        <ele>179.7998</ele>
        <time>2026-05-14T15:12:44+02:00</time>
      </trkpt>
      <trkpt lat="47.00245" lon="5.14651">
        <ele>179.7002</ele>
        <time>2026-05-14T15:12:45+02:00</time>
      </trkpt>
      <trkpt lat="47.00248" lon="5.14655">
        <ele>179.7002</ele>
        <time>2026-05-14T15:12:46+02:00</time>
      </trkpt>
      <trkpt lat="47.00252" lon="5.14657">
        <ele>179.60059</ele>
        <time>2026-05-14T15:12:47+02:00</time>
      </trkpt>
      <trkpt lat="47.00256" lon="5.14659">
        <ele>179.60059</ele>
        <time>2026-05-14T15:12:48+02:00</time>
      </trkpt>
      <trkpt lat="47.0026" lon="5.1466">
        <ele>179.60059</ele>
        <time>2026-05-14T15:12:49+02:00</time>
      </trkpt>
      <trkpt lat="47.00265" lon="5.14662">
        <ele>179.60059</ele>
        <time>2026-05-14T15:12:50+02:00</time>
      </trkpt>
      <trkpt lat="47.0027" lon="5.14663">
        <ele>179.60059</ele>
        <time>2026-05-14T15:12:51+02:00</time>
      </trkpt>
      <trkpt lat="47.00275" lon="5.14665">
        <ele>179.60059</ele>
        <time>2026-05-14T15:12:52+02:00</time>
      </trkpt>
      <trkpt lat="47.0028" lon="5.14666">
        <ele>179.60059</ele>
        <time>2026-05-14T15:12:53+02:00</time>
      </trkpt>
      <trkpt lat="47.00285" lon="5.14667">
        <ele>179.60059</ele>
        <time>2026-05-14T15:12:54+02:00</time>
      </trkpt>
      <trkpt lat="47.0029" lon="5.14669">
        <ele>179.7002</ele>
        <time>2026-05-14T15:12:55+02:00</time>
      </trkpt>
      <trkpt lat="47.00296" lon="5.14671">
        <ele>179.7002</ele>
        <time>2026-05-14T15:12:56+02:00</time>
      </trkpt>
      <trkpt lat="47.00301" lon="5.14672">
        <ele>179.7002</ele>
        <time>2026-05-14T15:12:57+02:00</time>
      </trkpt>
      <trkpt lat="47.00306" lon="5.14674">
        <ele>179.7002</ele>
        <time>2026-05-14T15:12:58+02:00</time>
      </trkpt>
      <trkpt lat="47.00311" lon="5.14675">
        <ele>179.7998</ele>
        <time>2026-05-14T15:12:59+02:00</time>
      </trkpt>
      <trkpt lat="47.00317" lon="5.14677">
        <ele>179.7002</ele>
        <time>2026-05-14T15:13:00+02:00</time>
      </trkpt>
      <trkpt lat="47.00322" lon="5.14678">
        <ele>179.60059</ele>
        <time>2026-05-14T15:13:01+02:00</time>
      </trkpt>
      <trkpt lat="47.00327" lon="5.1468">
        <ele>179.60059</ele>
        <time>2026-05-14T15:13:02+02:00</time>
      </trkpt>
      <trkpt lat="47.00333" lon="5.14681">
        <ele>179.60059</ele>
        <time>2026-05-14T15:13:03+02:00</time>
      </trkpt>
      <trkpt lat="47.00338" lon="5.14683">
        <ele>179.60059</ele>
        <time>2026-05-14T15:13:04+02:00</time>
      </trkpt>
      <trkpt lat="47.00343" lon="5.14685">
        <ele>179.40039</ele>
        <time>2026-05-14T15:13:05+02:00</time>
      </trkpt>
      <trkpt lat="47.00348" lon="5.14687">
        <ele>179.40039</ele>
        <time>2026-05-14T15:13:06+02:00</time>
      </trkpt>
      <trkpt lat="47.00353" lon="5.14689">
        <ele>179.2998</ele>
        <time>2026-05-14T15:13:07+02:00</time>
      </trkpt>
      <trkpt lat="47.00359" lon="5.14692">
        <ele>179.2998</ele>
        <time>2026-05-14T15:13:08+02:00</time>
      </trkpt>
      <trkpt lat="47.00363" lon="5.14694">
        <ele>179.10059</ele>
        <time>2026-05-14T15:13:09+02:00</time>
      </trkpt>
      <trkpt lat="47.00368" lon="5.14698">
        <ele>179.10059</ele>
        <time>2026-05-14T15:13:10+02:00</time>
      </trkpt>
      <trkpt lat="47.00373" lon="5.14701">
        <ele>178.90039</ele>
        <time>2026-05-14T15:13:11+02:00</time>
      </trkpt>
      <trkpt lat="47.00378" lon="5.14704">
        <ele>178.90039</ele>
        <time>2026-05-14T15:13:12+02:00</time>
      </trkpt>
      <trkpt lat="47.00383" lon="5.14707">
        <ele>178.7998</ele>
        <time>2026-05-14T15:13:13+02:00</time>
      </trkpt>
      <trkpt lat="47.00388" lon="5.1471">
        <ele>178.7002</ele>
        <time>2026-05-14T15:13:14+02:00</time>
      </trkpt>
      <trkpt lat="47.00393" lon="5.14713">
        <ele>178.60059</ele>
        <time>2026-05-14T15:13:15+02:00</time>
      </trkpt>
      <trkpt lat="47.00397" lon="5.14716">
        <ele>178.60059</ele>
        <time>2026-05-14T15:13:16+02:00</time>
      </trkpt>
      <trkpt lat="47.00402" lon="5.1472">
        <ele>178.5</ele>
        <time>2026-05-14T15:13:17+02:00</time>
      </trkpt>
      <trkpt lat="47.00407" lon="5.14723">
        <ele>178.5</ele>
        <time>2026-05-14T15:13:18+02:00</time>
      </trkpt>
      <trkpt lat="47.00411" lon="5.14726">
        <ele>178.5</ele>
        <time>2026-05-14T15:13:19+02:00</time>
      </trkpt>
      <trkpt lat="47.00416" lon="5.14729">
        <ele>178.40039</ele>
        <time>2026-05-14T15:13:20+02:00</time>
      </trkpt>
      <trkpt lat="47.00421" lon="5.14732">
        <ele>178.40039</ele>
        <time>2026-05-14T15:13:21+02:00</time>
      </trkpt>
      <trkpt lat="47.00426" lon="5.14736">
        <ele>178.2998</ele>
        <time>2026-05-14T15:13:22+02:00</time>
      </trkpt>
      <trkpt lat="47.0043" lon="5.14739">
        <ele>178.2998</ele>
        <time>2026-05-14T15:13:23+02:00</time>
      </trkpt>
      <trkpt lat="47.00435" lon="5.14742">
        <ele>178.2998</ele>
        <time>2026-05-14T15:13:24+02:00</time>
      </trkpt>
      <trkpt lat="47.0044" lon="5.14745">
        <ele>178.2998</ele>
        <time>2026-05-14T15:13:25+02:00</time>
      </trkpt>
      <trkpt lat="47.00445" lon="5.14747">
        <ele>178.2998</ele>
        <time>2026-05-14T15:13:26+02:00</time>
      </trkpt>
      <trkpt lat="47.00449" lon="5.1475">
        <ele>178.2998</ele>
        <time>2026-05-14T15:13:27+02:00</time>
      </trkpt>
      <trkpt lat="47.00453" lon="5.14753">
        <ele>178.2998</ele>
        <time>2026-05-14T15:13:28+02:00</time>
      </trkpt>
      <trkpt lat="47.00458" lon="5.14756">
        <ele>178.2998</ele>
        <time>2026-05-14T15:13:29+02:00</time>
      </trkpt>
      <trkpt lat="47.00462" lon="5.14758">
        <ele>178.2998</ele>
        <time>2026-05-14T15:13:30+02:00</time>
      </trkpt>
      <trkpt lat="47.00467" lon="5.1476">
        <ele>178.2998</ele>
        <time>2026-05-14T15:13:31+02:00</time>
      </trkpt>
      <trkpt lat="47.00471" lon="5.14764">
        <ele>178.40039</ele>
        <time>2026-05-14T15:13:32+02:00</time>
      </trkpt>
      <trkpt lat="47.00475" lon="5.14766">
        <ele>178.40039</ele>
        <time>2026-05-14T15:13:33+02:00</time>
      </trkpt>
      <trkpt lat="47.00479" lon="5.1477">
        <ele>178.5</ele>
        <time>2026-05-14T15:13:34+02:00</time>
      </trkpt>
      <trkpt lat="47.00483" lon="5.14773">
        <ele>178.5</ele>
        <time>2026-05-14T15:13:35+02:00</time>
      </trkpt>
      <trkpt lat="47.00487" lon="5.14776">
        <ele>178.40039</ele>
        <time>2026-05-14T15:13:36+02:00</time>
      </trkpt>
      <trkpt lat="47.00491" lon="5.14779">
        <ele>178.5</ele>
        <time>2026-05-14T15:13:37+02:00</time>
      </trkpt>
      <trkpt lat="47.00496" lon="5.14782">
        <ele>178.5</ele>
        <time>2026-05-14T15:13:38+02:00</time>
      </trkpt>
      <trkpt lat="47.005" lon="5.14785">
        <ele>178.5</ele>
        <time>2026-05-14T15:13:39+02:00</time>
      </trkpt>
      <trkpt lat="47.00505" lon="5.14788">
        <ele>178.5</ele>
        <time>2026-05-14T15:13:40+02:00</time>
      </trkpt>
      <trkpt lat="47.00509" lon="5.14792">
        <ele>178.5</ele>
        <time>2026-05-14T15:13:41+02:00</time>
      </trkpt>
      <trkpt lat="47.00513" lon="5.14795">
        <ele>178.5</ele>
        <time>2026-05-14T15:13:42+02:00</time>
      </trkpt>
      <trkpt lat="47.00518" lon="5.14799">
        <ele>178.5</ele>
        <time>2026-05-14T15:13:43+02:00</time>
      </trkpt>
      <trkpt lat="47.00522" lon="5.14801">
        <ele>178.5</ele>
        <time>2026-05-14T15:13:44+02:00</time>
      </trkpt>
      <trkpt lat="47.00527" lon="5.14804">
        <ele>178.5</ele>
        <time>2026-05-14T15:13:45+02:00</time>
      </trkpt>
      <trkpt lat="47.0053" lon="5.14808">
        <ele>178.5</ele>
        <time>2026-05-14T15:13:46+02:00</time>
      </trkpt>
      <trkpt lat="47.00535" lon="5.14812">
        <ele>178.40039</ele>
        <time>2026-05-14T15:13:47+02:00</time>
      </trkpt>
      <trkpt lat="47.00539" lon="5.14815">
        <ele>178.5</ele>
        <time>2026-05-14T15:13:48+02:00</time>
      </trkpt>
      <trkpt lat="47.00543" lon="5.14818">
        <ele>178.40039</ele>
        <time>2026-05-14T15:13:49+02:00</time>
      </trkpt>
      <trkpt lat="47.00547" lon="5.14822">
        <ele>178.5</ele>
        <time>2026-05-14T15:13:50+02:00</time>
      </trkpt>
      <trkpt lat="47.00552" lon="5.14825">
        <ele>178.5</ele>
        <time>2026-05-14T15:13:51+02:00</time>
      </trkpt>
      <trkpt lat="47.00556" lon="5.14828">
        <ele>178.40039</ele>
        <time>2026-05-14T15:13:52+02:00</time>
      </trkpt>
      <trkpt lat="47.0056" lon="5.1483">
        <ele>178.5</ele>
        <time>2026-05-14T15:13:53+02:00</time>
      </trkpt>
      <trkpt lat="47.00564" lon="5.14834">
        <ele>178.40039</ele>
        <time>2026-05-14T15:13:54+02:00</time>
      </trkpt>
      <trkpt lat="47.00568" lon="5.14837">
        <ele>178.40039</ele>
        <time>2026-05-14T15:13:55+02:00</time>
      </trkpt>
      <trkpt lat="47.00572" lon="5.1484">
        <ele>178.5</ele>
        <time>2026-05-14T15:13:56+02:00</time>
      </trkpt>
      <trkpt lat="47.00577" lon="5.14844">
        <ele>178.40039</ele>
        <time>2026-05-14T15:13:57+02:00</time>
      </trkpt>
      <trkpt lat="47.00581" lon="5.14847">
        <ele>178.5</ele>
        <time>2026-05-14T15:13:58+02:00</time>
      </trkpt>
      <trkpt lat="47.00586" lon="5.1485">
        <ele>178.40039</ele>
        <time>2026-05-14T15:13:59+02:00</time>
      </trkpt>
      <trkpt lat="47.0059" lon="5.14854">
        <ele>178.2998</ele>
        <time>2026-05-14T15:14:00+02:00</time>
      </trkpt>
      <trkpt lat="47.00595" lon="5.14857">
        <ele>178.40039</ele>
        <time>2026-05-14T15:14:01+02:00</time>
      </trkpt>
      <trkpt lat="47.00599" lon="5.1486">
        <ele>178.40039</ele>
        <time>2026-05-14T15:14:02+02:00</time>
      </trkpt>
      <trkpt lat="47.00603" lon="5.14863">
        <ele>178.2998</ele>
        <time>2026-05-14T15:14:03+02:00</time>
      </trkpt>
      <trkpt lat="47.00607" lon="5.14866">
        <ele>178.2998</ele>
        <time>2026-05-14T15:14:04+02:00</time>
      </trkpt>
      <trkpt lat="47.0061" lon="5.14869">
        <ele>178.2998</ele>
        <time>2026-05-14T15:14:05+02:00</time>
      </trkpt>
      <trkpt lat="47.00614" lon="5.14872">
        <ele>178.2002</ele>
        <time>2026-05-14T15:14:06+02:00</time>
      </trkpt>
      <trkpt lat="47.00618" lon="5.14876">
        <ele>178.2002</ele>
        <time>2026-05-14T15:14:07+02:00</time>
      </trkpt>
      <trkpt lat="47.00622" lon="5.1488">
        <ele>178.10059</ele>
        <time>2026-05-14T15:14:08+02:00</time>
      </trkpt>
      <trkpt lat="47.00626" lon="5.14883">
        <ele>178</ele>
        <time>2026-05-14T15:14:09+02:00</time>
      </trkpt>
      <trkpt lat="47.0063" lon="5.14887">
        <ele>178</ele>
        <time>2026-05-14T15:14:10+02:00</time>
      </trkpt>
      <trkpt lat="47.00635" lon="5.14891">
        <ele>177.90039</ele>
        <time>2026-05-14T15:14:11+02:00</time>
      </trkpt>
      <trkpt lat="47.00639" lon="5.14894">
        <ele>177.7998</ele>
        <time>2026-05-14T15:14:12+02:00</time>
      </trkpt>
      <trkpt lat="47.00644" lon="5.14898">
        <ele>177.7002</ele>
        <time>2026-05-14T15:14:13+02:00</time>
      </trkpt>
      <trkpt lat="47.00648" lon="5.14901">
        <ele>177.60059</ele>
        <time>2026-05-14T15:14:14+02:00</time>
      </trkpt>
      <trkpt lat="47.00653" lon="5.14905">
        <ele>177.60059</ele>
        <time>2026-05-14T15:14:15+02:00</time>
      </trkpt>
      <trkpt lat="47.00657" lon="5.14909">
        <ele>177.5</ele>
        <time>2026-05-14T15:14:16+02:00</time>
      </trkpt>
      <trkpt lat="47.00662" lon="5.14913">
        <ele>177.40039</ele>
        <time>2026-05-14T15:14:17+02:00</time>
      </trkpt>
      <trkpt lat="47.00667" lon="5.14917">
        <ele>177.2998</ele>
        <time>2026-05-14T15:14:18+02:00</time>
      </trkpt>
      <trkpt lat="47.00672" lon="5.1492">
        <ele>177.2998</ele>
        <time>2026-05-14T15:14:19+02:00</time>
      </trkpt>
      <trkpt lat="47.00676" lon="5.14924">
        <ele>177.2998</ele>
        <time>2026-05-14T15:14:20+02:00</time>
      </trkpt>
      <trkpt lat="47.00681" lon="5.14928">
        <ele>177.2002</ele>
        <time>2026-05-14T15:14:21+02:00</time>
      </trkpt>
      <trkpt lat="47.00687" lon="5.14933">
        <ele>177.2002</ele>
        <time>2026-05-14T15:14:22+02:00</time>
      </trkpt>
      <trkpt lat="47.00692" lon="5.14937">
        <ele>177.2002</ele>
        <time>2026-05-14T15:14:23+02:00</time>
      </trkpt>
      <trkpt lat="47.00697" lon="5.14941">
        <ele>177.2998</ele>
        <time>2026-05-14T15:14:24+02:00</time>
      </trkpt>
      <trkpt lat="47.00702" lon="5.14946">
        <ele>177.2998</ele>
        <time>2026-05-14T15:14:25+02:00</time>
      </trkpt>
      <trkpt lat="47.00708" lon="5.1495">
        <ele>177.2002</ele>
        <time>2026-05-14T15:14:26+02:00</time>
      </trkpt>
      <trkpt lat="47.00713" lon="5.14954">
        <ele>177.2998</ele>
        <time>2026-05-14T15:14:27+02:00</time>
      </trkpt>
      <trkpt lat="47.00719" lon="5.14958">
        <ele>177.40039</ele>
        <time>2026-05-14T15:14:28+02:00</time>
      </trkpt>
      <trkpt lat="47.00725" lon="5.14962">
        <ele>177.2998</ele>
        <time>2026-05-14T15:14:29+02:00</time>
      </trkpt>
      <trkpt lat="47.0073" lon="5.14966">
        <ele>177.40039</ele>
        <time>2026-05-14T15:14:30+02:00</time>
      </trkpt>
      <trkpt lat="47.00736" lon="5.1497">
        <ele>177.2998</ele>
        <time>2026-05-14T15:14:31+02:00</time>
      </trkpt>
      <trkpt lat="47.00741" lon="5.14974">
        <ele>177.2998</ele>
        <time>2026-05-14T15:14:32+02:00</time>
      </trkpt>
      <trkpt lat="47.00747" lon="5.14977">
        <ele>177.2998</ele>
        <time>2026-05-14T15:14:33+02:00</time>
      </trkpt>
      <trkpt lat="47.00752" lon="5.1498">
        <ele>177.2998</ele>
        <time>2026-05-14T15:14:34+02:00</time>
      </trkpt>
      <trkpt lat="47.00758" lon="5.14984">
        <ele>177.2998</ele>
        <time>2026-05-14T15:14:35+02:00</time>
      </trkpt>
      <trkpt lat="47.00763" lon="5.14987">
        <ele>177.2998</ele>
        <time>2026-05-14T15:14:36+02:00</time>
      </trkpt>
      <trkpt lat="47.0077" lon="5.1499">
        <ele>177.2998</ele>
        <time>2026-05-14T15:14:37+02:00</time>
      </trkpt>
      <trkpt lat="47.00775" lon="5.14994">
        <ele>177.2998</ele>
        <time>2026-05-14T15:14:38+02:00</time>
      </trkpt>
      <trkpt lat="47.00781" lon="5.14997">
        <ele>177.2998</ele>
        <time>2026-05-14T15:14:39+02:00</time>
      </trkpt>
      <trkpt lat="47.00787" lon="5.15">
        <ele>177.2998</ele>
        <time>2026-05-14T15:14:40+02:00</time>
      </trkpt>
      <trkpt lat="47.00793" lon="5.15003">
        <ele>177.40039</ele>
        <time>2026-05-14T15:14:41+02:00</time>
      </trkpt>
      <trkpt lat="47.00799" lon="5.15006">
        <ele>177.40039</ele>
        <time>2026-05-14T15:14:42+02:00</time>
      </trkpt>
      <trkpt lat="47.00805" lon="5.15009">
        <ele>177.40039</ele>
        <time>2026-05-14T15:14:43+02:00</time>
      </trkpt>
      <trkpt lat="47.00811" lon="5.15012">
        <ele>177.5</ele>
        <time>2026-05-14T15:14:44+02:00</time>
      </trkpt>
      <trkpt lat="47.00816" lon="5.15015">
        <ele>177.60059</ele>
        <time>2026-05-14T15:14:45+02:00</time>
      </trkpt>
      <trkpt lat="47.00823" lon="5.15018">
        <ele>177.60059</ele>
        <time>2026-05-14T15:14:46+02:00</time>
      </trkpt>
      <trkpt lat="47.00828" lon="5.15021">
        <ele>177.7998</ele>
        <time>2026-05-14T15:14:47+02:00</time>
      </trkpt>
      <trkpt lat="47.00834" lon="5.15024">
        <ele>177.7998</ele>
        <time>2026-05-14T15:14:48+02:00</time>
      </trkpt>
      <trkpt lat="47.0084" lon="5.15027">
        <ele>177.7998</ele>
        <time>2026-05-14T15:14:49+02:00</time>
      </trkpt>
      <trkpt lat="47.00846" lon="5.1503">
        <ele>177.90039</ele>
        <time>2026-05-14T15:14:50+02:00</time>
      </trkpt>
      <trkpt lat="47.00852" lon="5.15032">
        <ele>177.90039</ele>
        <time>2026-05-14T15:14:51+02:00</time>
      </trkpt>
      <trkpt lat="47.00857" lon="5.15034">
        <ele>177.90039</ele>
        <time>2026-05-14T15:14:52+02:00</time>
      </trkpt>
      <trkpt lat="47.00863" lon="5.15037">
        <ele>178</ele>
        <time>2026-05-14T15:14:53+02:00</time>
      </trkpt>
      <trkpt lat="47.00869" lon="5.15039">
        <ele>178</ele>
        <time>2026-05-14T15:14:54+02:00</time>
      </trkpt>
      <trkpt lat="47.00875" lon="5.15041">
        <ele>177.90039</ele>
        <time>2026-05-14T15:14:55+02:00</time>
      </trkpt>
      <trkpt lat="47.00881" lon="5.15043">
        <ele>177.90039</ele>
        <time>2026-05-14T15:14:56+02:00</time>
      </trkpt>
      <trkpt lat="47.00887" lon="5.15044">
        <ele>177.90039</ele>
        <time>2026-05-14T15:14:57+02:00</time>
      </trkpt>
      <trkpt lat="47.00893" lon="5.15045">
        <ele>177.90039</ele>
        <time>2026-05-14T15:14:58+02:00</time>
      </trkpt>
      <trkpt lat="47.00898" lon="5.15046">
        <ele>177.90039</ele>
        <time>2026-05-14T15:14:59+02:00</time>
      </trkpt>
      <trkpt lat="47.00904" lon="5.15047">
        <ele>177.7998</ele>
        <time>2026-05-14T15:15:00+02:00</time>
      </trkpt>
      <trkpt lat="47.0091" lon="5.15048">
        <ele>177.7998</ele>
        <time>2026-05-14T15:15:01+02:00</time>
      </trkpt>
      <trkpt lat="47.00916" lon="5.15048">
        <ele>177.7002</ele>
        <time>2026-05-14T15:15:02+02:00</time>
      </trkpt>
      <trkpt lat="47.00921" lon="5.15048">
        <ele>177.7002</ele>
        <time>2026-05-14T15:15:03+02:00</time>
      </trkpt>
      <trkpt lat="47.00927" lon="5.15049">
        <ele>177.60059</ele>
        <time>2026-05-14T15:15:04+02:00</time>
      </trkpt>
      <trkpt lat="47.00933" lon="5.1505">
        <ele>177.60059</ele>
        <time>2026-05-14T15:15:05+02:00</time>
      </trkpt>
      <trkpt lat="47.00939" lon="5.1505">
        <ele>177.5</ele>
        <time>2026-05-14T15:15:06+02:00</time>
      </trkpt>
      <trkpt lat="47.00944" lon="5.1505">
        <ele>177.40039</ele>
        <time>2026-05-14T15:15:07+02:00</time>
      </trkpt>
      <trkpt lat="47.0095" lon="5.15051">
        <ele>177.40039</ele>
        <time>2026-05-14T15:15:08+02:00</time>
      </trkpt>
      <trkpt lat="47.00956" lon="5.15051">
        <ele>177.2998</ele>
        <time>2026-05-14T15:15:09+02:00</time>
      </trkpt>
      <trkpt lat="47.00962" lon="5.15052">
        <ele>177.2002</ele>
        <time>2026-05-14T15:15:10+02:00</time>
      </trkpt>
      <trkpt lat="47.00968" lon="5.15052">
        <ele>177.10059</ele>
        <time>2026-05-14T15:15:11+02:00</time>
      </trkpt>
      <trkpt lat="47.00974" lon="5.15053">
        <ele>177.2002</ele>
        <time>2026-05-14T15:15:12+02:00</time>
      </trkpt>
      <trkpt lat="47.00979" lon="5.15053">
        <ele>177.10059</ele>
        <time>2026-05-14T15:15:13+02:00</time>
      </trkpt>
      <trkpt lat="47.00985" lon="5.15054">
        <ele>177</ele>
        <time>2026-05-14T15:15:14+02:00</time>
      </trkpt>
      <trkpt lat="47.00992" lon="5.15054">
        <ele>177</ele>
        <time>2026-05-14T15:15:15+02:00</time>
      </trkpt>
      <trkpt lat="47.00997" lon="5.15054">
        <ele>176.90039</ele>
        <time>2026-05-14T15:15:16+02:00</time>
      </trkpt>
      <trkpt lat="47.01003" lon="5.15055">
        <ele>176.7998</ele>
        <time>2026-05-14T15:15:17+02:00</time>
      </trkpt>
      <trkpt lat="47.01009" lon="5.15055">
        <ele>176.7998</ele>
        <time>2026-05-14T15:15:18+02:00</time>
      </trkpt>
      <trkpt lat="47.01015" lon="5.15056">
        <ele>176.7002</ele>
        <time>2026-05-14T15:15:19+02:00</time>
      </trkpt>
      <trkpt lat="47.01021" lon="5.15056">
        <ele>176.60059</ele>
        <time>2026-05-14T15:15:20+02:00</time>
      </trkpt>
      <trkpt lat="47.01026" lon="5.15057">
        <ele>176.5</ele>
        <time>2026-05-14T15:15:21+02:00</time>
      </trkpt>
      <trkpt lat="47.01032" lon="5.15057">
        <ele>176.40039</ele>
        <time>2026-05-14T15:15:22+02:00</time>
      </trkpt>
      <trkpt lat="47.01038" lon="5.15057">
        <ele>176.40039</ele>
        <time>2026-05-14T15:15:23+02:00</time>
      </trkpt>
      <trkpt lat="47.01043" lon="5.15058">
        <ele>176.2998</ele>
        <time>2026-05-14T15:15:24+02:00</time>
      </trkpt>
      <trkpt lat="47.01049" lon="5.15058">
        <ele>176.2998</ele>
        <time>2026-05-14T15:15:25+02:00</time>
      </trkpt>
      <trkpt lat="47.01055" lon="5.15058">
        <ele>176.2002</ele>
        <time>2026-05-14T15:15:26+02:00</time>
      </trkpt>
      <trkpt lat="47.0106" lon="5.15059">
        <ele>176.2002</ele>
        <time>2026-05-14T15:15:27+02:00</time>
      </trkpt>
      <trkpt lat="47.01066" lon="5.15059">
        <ele>176.2002</ele>
        <time>2026-05-14T15:15:28+02:00</time>
      </trkpt>
      <trkpt lat="47.01071" lon="5.15059">
        <ele>176.2002</ele>
        <time>2026-05-14T15:15:29+02:00</time>
      </trkpt>
      <trkpt lat="47.01077" lon="5.1506">
        <ele>176.2998</ele>
        <time>2026-05-14T15:15:30+02:00</time>
      </trkpt>
      <trkpt lat="47.01082" lon="5.1506">
        <ele>176.2998</ele>
        <time>2026-05-14T15:15:31+02:00</time>
      </trkpt>
      <trkpt lat="47.01088" lon="5.1506">
        <ele>176.5</ele>
        <time>2026-05-14T15:15:32+02:00</time>
      </trkpt>
      <trkpt lat="47.01093" lon="5.15061">
        <ele>176.7002</ele>
        <time>2026-05-14T15:15:33+02:00</time>
      </trkpt>
      <trkpt lat="47.01099" lon="5.15061">
        <ele>176.90039</ele>
        <time>2026-05-14T15:15:34+02:00</time>
      </trkpt>
      <trkpt lat="47.01104" lon="5.15062">
        <ele>177</ele>
        <time>2026-05-14T15:15:35+02:00</time>
      </trkpt>
      <trkpt lat="47.0111" lon="5.15063">
        <ele>177.2998</ele>
        <time>2026-05-14T15:15:36+02:00</time>
      </trkpt>
      <trkpt lat="47.01116" lon="5.15063">
        <ele>177.40039</ele>
        <time>2026-05-14T15:15:37+02:00</time>
      </trkpt>
      <trkpt lat="47.01121" lon="5.15064">
        <ele>177.60059</ele>
        <time>2026-05-14T15:15:38+02:00</time>
      </trkpt>
      <trkpt lat="47.01127" lon="5.15064">
        <ele>177.7998</ele>
        <time>2026-05-14T15:15:39+02:00</time>
      </trkpt>
      <trkpt lat="47.01132" lon="5.15065">
        <ele>177.90039</ele>
        <time>2026-05-14T15:15:40+02:00</time>
      </trkpt>
      <trkpt lat="47.01137" lon="5.15065">
        <ele>178.10059</ele>
        <time>2026-05-14T15:15:41+02:00</time>
      </trkpt>
      <trkpt lat="47.01143" lon="5.15065">
        <ele>178.2998</ele>
        <time>2026-05-14T15:15:42+02:00</time>
      </trkpt>
      <trkpt lat="47.01149" lon="5.15066">
        <ele>178.40039</ele>
        <time>2026-05-14T15:15:43+02:00</time>
      </trkpt>
      <trkpt lat="47.01154" lon="5.15066">
        <ele>178.5</ele>
        <time>2026-05-14T15:15:44+02:00</time>
      </trkpt>
      <trkpt lat="47.0116" lon="5.15067">
        <ele>178.7002</ele>
        <time>2026-05-14T15:15:45+02:00</time>
      </trkpt>
      <trkpt lat="47.01165" lon="5.15067">
        <ele>178.7998</ele>
        <time>2026-05-14T15:15:46+02:00</time>
      </trkpt>
      <trkpt lat="47.01171" lon="5.15068">
        <ele>178.7998</ele>
        <time>2026-05-14T15:15:47+02:00</time>
      </trkpt>
      <trkpt lat="47.01177" lon="5.15068">
        <ele>178.90039</ele>
        <time>2026-05-14T15:15:48+02:00</time>
      </trkpt>
      <trkpt lat="47.01182" lon="5.15068">
        <ele>178.90039</ele>
        <time>2026-05-14T15:15:49+02:00</time>
      </trkpt>
      <trkpt lat="47.01187" lon="5.15069">
        <ele>178.90039</ele>
        <time>2026-05-14T15:15:50+02:00</time>
      </trkpt>
      <trkpt lat="47.01193" lon="5.15069">
        <ele>178.90039</ele>
        <time>2026-05-14T15:15:51+02:00</time>
      </trkpt>
      <trkpt lat="47.01199" lon="5.15069">
        <ele>178.90039</ele>
        <time>2026-05-14T15:15:52+02:00</time>
      </trkpt>
      <trkpt lat="47.01204" lon="5.1507">
        <ele>179</ele>
        <time>2026-05-14T15:15:53+02:00</time>
      </trkpt>
      <trkpt lat="47.0121" lon="5.1507">
        <ele>179</ele>
        <time>2026-05-14T15:15:54+02:00</time>
      </trkpt>
      <trkpt lat="47.01215" lon="5.15071">
        <ele>179</ele>
        <time>2026-05-14T15:15:55+02:00</time>
      </trkpt>
      <trkpt lat="47.01221" lon="5.15071">
        <ele>179</ele>
        <time>2026-05-14T15:15:56+02:00</time>
      </trkpt>
      <trkpt lat="47.01227" lon="5.15072">
        <ele>179</ele>
        <time>2026-05-14T15:15:57+02:00</time>
      </trkpt>
      <trkpt lat="47.01232" lon="5.15072">
        <ele>179.10059</ele>
        <time>2026-05-14T15:15:58+02:00</time>
      </trkpt>
      <trkpt lat="47.01238" lon="5.15072">
        <ele>179.10059</ele>
        <time>2026-05-14T15:15:59+02:00</time>
      </trkpt>
      <trkpt lat="47.01244" lon="5.15073">
        <ele>179.10059</ele>
        <time>2026-05-14T15:16:00+02:00</time>
      </trkpt>
      <trkpt lat="47.01249" lon="5.15073">
        <ele>179.2002</ele>
        <time>2026-05-14T15:16:01+02:00</time>
      </trkpt>
      <trkpt lat="47.01254" lon="5.15073">
        <ele>179.2998</ele>
        <time>2026-05-14T15:16:02+02:00</time>
      </trkpt>
      <trkpt lat="47.0126" lon="5.15073">
        <ele>179.40039</ele>
        <time>2026-05-14T15:16:03+02:00</time>
      </trkpt>
      <trkpt lat="47.01266" lon="5.15074">
        <ele>179.5</ele>
        <time>2026-05-14T15:16:04+02:00</time>
      </trkpt>
      <trkpt lat="47.01272" lon="5.15074">
        <ele>179.60059</ele>
        <time>2026-05-14T15:16:05+02:00</time>
      </trkpt>
      <trkpt lat="47.01277" lon="5.15075">
        <ele>179.7002</ele>
        <time>2026-05-14T15:16:06+02:00</time>
      </trkpt>
      <trkpt lat="47.01283" lon="5.15076">
        <ele>179.90039</ele>
        <time>2026-05-14T15:16:07+02:00</time>
      </trkpt>
      <trkpt lat="47.01289" lon="5.15075">
        <ele>180</ele>
        <time>2026-05-14T15:16:08+02:00</time>
      </trkpt>
      <trkpt lat="47.01294" lon="5.15075">
        <ele>180.10059</ele>
        <time>2026-05-14T15:16:09+02:00</time>
      </trkpt>
      <trkpt lat="47.013" lon="5.15074">
        <ele>180.2002</ele>
        <time>2026-05-14T15:16:10+02:00</time>
      </trkpt>
      <trkpt lat="47.01306" lon="5.15072">
        <ele>180.40039</ele>
        <time>2026-05-14T15:16:11+02:00</time>
      </trkpt>
      <trkpt lat="47.01311" lon="5.15071">
        <ele>180.5</ele>
        <time>2026-05-14T15:16:12+02:00</time>
      </trkpt>
      <trkpt lat="47.01317" lon="5.15071">
        <ele>180.60059</ele>
        <time>2026-05-14T15:16:13+02:00</time>
      </trkpt>
      <trkpt lat="47.01322" lon="5.1507">
        <ele>180.60059</ele>
        <time>2026-05-14T15:16:14+02:00</time>
      </trkpt>
      <trkpt lat="47.01328" lon="5.1507">
        <ele>180.7002</ele>
        <time>2026-05-14T15:16:15+02:00</time>
      </trkpt>
      <trkpt lat="47.01333" lon="5.1507">
        <ele>180.7998</ele>
        <time>2026-05-14T15:16:16+02:00</time>
      </trkpt>
      <trkpt lat="47.01339" lon="5.1507">
        <ele>180.90039</ele>
        <time>2026-05-14T15:16:17+02:00</time>
      </trkpt>
      <trkpt lat="47.01345" lon="5.15069">
        <ele>180.7002</ele>
        <time>2026-05-14T15:16:18+02:00</time>
      </trkpt>
      <trkpt lat="47.01351" lon="5.15068">
        <ele>180.7998</ele>
        <time>2026-05-14T15:16:19+02:00</time>
      </trkpt>
      <trkpt lat="47.01356" lon="5.15068">
        <ele>180.7998</ele>
        <time>2026-05-14T15:16:20+02:00</time>
      </trkpt>
      <trkpt lat="47.01362" lon="5.15067">
        <ele>180.7998</ele>
        <time>2026-05-14T15:16:21+02:00</time>
      </trkpt>
      <trkpt lat="47.01368" lon="5.15067">
        <ele>181</ele>
        <time>2026-05-14T15:16:22+02:00</time>
      </trkpt>
      <trkpt lat="47.01375" lon="5.15066">
        <ele>181.10059</ele>
        <time>2026-05-14T15:16:23+02:00</time>
      </trkpt>
      <trkpt lat="47.0138" lon="5.15065">
        <ele>181.2002</ele>
        <time>2026-05-14T15:16:24+02:00</time>
      </trkpt>
      <trkpt lat="47.01387" lon="5.15065">
        <ele>181.2002</ele>
        <time>2026-05-14T15:16:25+02:00</time>
      </trkpt>
      <trkpt lat="47.01393" lon="5.15064">
        <ele>181.2998</ele>
        <time>2026-05-14T15:16:26+02:00</time>
      </trkpt>
      <trkpt lat="47.01399" lon="5.15064">
        <ele>181.40039</ele>
        <time>2026-05-14T15:16:27+02:00</time>
      </trkpt>
      <trkpt lat="47.01405" lon="5.15063">
        <ele>181.40039</ele>
        <time>2026-05-14T15:16:28+02:00</time>
      </trkpt>
      <trkpt lat="47.0141" lon="5.15062">
        <ele>181.40039</ele>
        <time>2026-05-14T15:16:29+02:00</time>
      </trkpt>
      <trkpt lat="47.01417" lon="5.15061">
        <ele>181.2002</ele>
        <time>2026-05-14T15:16:30+02:00</time>
      </trkpt>
      <trkpt lat="47.01423" lon="5.15061">
        <ele>181.2998</ele>
        <time>2026-05-14T15:16:31+02:00</time>
      </trkpt>
      <trkpt lat="47.01429" lon="5.1506">
        <ele>181.2998</ele>
        <time>2026-05-14T15:16:32+02:00</time>
      </trkpt>
      <trkpt lat="47.01435" lon="5.15058">
        <ele>181.2998</ele>
        <time>2026-05-14T15:16:33+02:00</time>
      </trkpt>
      <trkpt lat="47.01441" lon="5.15057">
        <ele>181.2998</ele>
        <time>2026-05-14T15:16:34+02:00</time>
      </trkpt>
      <trkpt lat="47.01447" lon="5.15056">
        <ele>181.2998</ele>
        <time>2026-05-14T15:16:35+02:00</time>
      </trkpt>
      <trkpt lat="47.01453" lon="5.15054">
        <ele>181.2998</ele>
        <time>2026-05-14T15:16:36+02:00</time>
      </trkpt>
      <trkpt lat="47.01458" lon="5.15053">
        <ele>181.2998</ele>
        <time>2026-05-14T15:16:37+02:00</time>
      </trkpt>
      <trkpt lat="47.01465" lon="5.15052">
        <ele>181.2002</ele>
        <time>2026-05-14T15:16:38+02:00</time>
      </trkpt>
      <trkpt lat="47.01471" lon="5.1505">
        <ele>181.2002</ele>
        <time>2026-05-14T15:16:39+02:00</time>
      </trkpt>
      <trkpt lat="47.01476" lon="5.15048">
        <ele>181.2002</ele>
        <time>2026-05-14T15:16:40+02:00</time>
      </trkpt>
      <trkpt lat="47.01483" lon="5.15047">
        <ele>181.2002</ele>
        <time>2026-05-14T15:16:41+02:00</time>
      </trkpt>
      <trkpt lat="47.01489" lon="5.15045">
        <ele>181.10059</ele>
        <time>2026-05-14T15:16:42+02:00</time>
      </trkpt>
      <trkpt lat="47.01494" lon="5.15044">
        <ele>181.10059</ele>
        <time>2026-05-14T15:16:43+02:00</time>
      </trkpt>
      <trkpt lat="47.015" lon="5.15043">
        <ele>181.10059</ele>
        <time>2026-05-14T15:16:44+02:00</time>
      </trkpt>
      <trkpt lat="47.01506" lon="5.15041">
        <ele>181</ele>
        <time>2026-05-14T15:16:45+02:00</time>
      </trkpt>
      <trkpt lat="47.01512" lon="5.1504">
        <ele>181</ele>
        <time>2026-05-14T15:16:46+02:00</time>
      </trkpt>
      <trkpt lat="47.01517" lon="5.15039">
        <ele>180.90039</ele>
        <time>2026-05-14T15:16:47+02:00</time>
      </trkpt>
      <trkpt lat="47.01523" lon="5.15038">
        <ele>180.90039</ele>
        <time>2026-05-14T15:16:48+02:00</time>
      </trkpt>
      <trkpt lat="47.01528" lon="5.15037">
        <ele>180.7998</ele>
        <time>2026-05-14T15:16:49+02:00</time>
      </trkpt>
      <trkpt lat="47.01534" lon="5.15036">
        <ele>180.7002</ele>
        <time>2026-05-14T15:16:50+02:00</time>
      </trkpt>
      <trkpt lat="47.01539" lon="5.15034">
        <ele>180.7002</ele>
        <time>2026-05-14T15:16:51+02:00</time>
      </trkpt>
      <trkpt lat="47.01544" lon="5.15033">
        <ele>180.60059</ele>
        <time>2026-05-14T15:16:52+02:00</time>
      </trkpt>
      <trkpt lat="47.01549" lon="5.15032">
        <ele>180.60059</ele>
        <time>2026-05-14T15:16:53+02:00</time>
      </trkpt>
      <trkpt lat="47.01555" lon="5.15031">
        <ele>180.5</ele>
        <time>2026-05-14T15:16:54+02:00</time>
      </trkpt>
      <trkpt lat="47.0156" lon="5.15029">
        <ele>180.5</ele>
        <time>2026-05-14T15:16:55+02:00</time>
      </trkpt>
      <trkpt lat="47.01566" lon="5.15028">
        <ele>180.5</ele>
        <time>2026-05-14T15:16:56+02:00</time>
      </trkpt>
      <trkpt lat="47.01571" lon="5.15027">
        <ele>180.40039</ele>
        <time>2026-05-14T15:16:57+02:00</time>
      </trkpt>
      <trkpt lat="47.01577" lon="5.15025">
        <ele>180.5</ele>
        <time>2026-05-14T15:16:58+02:00</time>
      </trkpt>
      <trkpt lat="47.01582" lon="5.15024">
        <ele>180.5</ele>
        <time>2026-05-14T15:16:59+02:00</time>
      </trkpt>
      <trkpt lat="47.01587" lon="5.15023">
        <ele>180.60059</ele>
        <time>2026-05-14T15:17:00+02:00</time>
      </trkpt>
      <trkpt lat="47.01593" lon="5.15021">
        <ele>180.60059</ele>
        <time>2026-05-14T15:17:01+02:00</time>
      </trkpt>
      <trkpt lat="47.01598" lon="5.1502">
        <ele>180.7002</ele>
        <time>2026-05-14T15:17:02+02:00</time>
      </trkpt>
      <trkpt lat="47.01604" lon="5.15019">
        <ele>180.7998</ele>
        <time>2026-05-14T15:17:03+02:00</time>
      </trkpt>
      <trkpt lat="47.0161" lon="5.15017">
        <ele>181</ele>
        <time>2026-05-14T15:17:04+02:00</time>
      </trkpt>
      <trkpt lat="47.01615" lon="5.15016">
        <ele>181.10059</ele>
        <time>2026-05-14T15:17:05+02:00</time>
      </trkpt>
      <trkpt lat="47.0162" lon="5.15015">
        <ele>181.2002</ele>
        <time>2026-05-14T15:17:06+02:00</time>
      </trkpt>
      <trkpt lat="47.01626" lon="5.15014">
        <ele>181.40039</ele>
        <time>2026-05-14T15:17:07+02:00</time>
      </trkpt>
      <trkpt lat="47.01631" lon="5.15014">
        <ele>181.40039</ele>
        <time>2026-05-14T15:17:08+02:00</time>
      </trkpt>
      <trkpt lat="47.01635" lon="5.15012">
        <ele>181.5</ele>
        <time>2026-05-14T15:17:09+02:00</time>
      </trkpt>
      <trkpt lat="47.01639" lon="5.15009">
        <ele>181.60059</ele>
        <time>2026-05-14T15:17:10+02:00</time>
      </trkpt>
      <trkpt lat="47.0164" lon="5.15003">
        <ele>181.60059</ele>
        <time>2026-05-14T15:17:11+02:00</time>
      </trkpt>
      <trkpt lat="47.01642" lon="5.14996">
        <ele>181.60059</ele>
        <time>2026-05-14T15:17:12+02:00</time>
      </trkpt>
      <trkpt lat="47.01643" lon="5.14989">
        <ele>181.7002</ele>
        <time>2026-05-14T15:17:13+02:00</time>
      </trkpt>
      <trkpt lat="47.01644" lon="5.14982">
        <ele>181.60059</ele>
        <time>2026-05-14T15:17:14+02:00</time>
      </trkpt>
      <trkpt lat="47.01645" lon="5.14975">
        <ele>181.60059</ele>
        <time>2026-05-14T15:17:15+02:00</time>
      </trkpt>
      <trkpt lat="47.01647" lon="5.14968">
        <ele>181.60059</ele>
        <time>2026-05-14T15:17:16+02:00</time>
      </trkpt>
      <trkpt lat="47.01648" lon="5.14961">
        <ele>181.5</ele>
        <time>2026-05-14T15:17:17+02:00</time>
      </trkpt>
      <trkpt lat="47.01651" lon="5.14954">
        <ele>181.5</ele>
        <time>2026-05-14T15:17:18+02:00</time>
      </trkpt>
      <trkpt lat="47.01653" lon="5.14947">
        <ele>181.5</ele>
        <time>2026-05-14T15:17:19+02:00</time>
      </trkpt>
      <trkpt lat="47.01655" lon="5.14939">
        <ele>181.40039</ele>
        <time>2026-05-14T15:17:20+02:00</time>
      </trkpt>
      <trkpt lat="47.01657" lon="5.14932">
        <ele>181.2998</ele>
        <time>2026-05-14T15:17:21+02:00</time>
      </trkpt>
      <trkpt lat="47.01659" lon="5.14925">
        <ele>181.2998</ele>
        <time>2026-05-14T15:17:22+02:00</time>
      </trkpt>
      <trkpt lat="47.01661" lon="5.14917">
        <ele>181.2998</ele>
        <time>2026-05-14T15:17:23+02:00</time>
      </trkpt>
      <trkpt lat="47.01664" lon="5.1491">
        <ele>181.2002</ele>
        <time>2026-05-14T15:17:24+02:00</time>
      </trkpt>
      <trkpt lat="47.01666" lon="5.14903">
        <ele>181.2002</ele>
        <time>2026-05-14T15:17:25+02:00</time>
      </trkpt>
      <trkpt lat="47.01668" lon="5.14896">
        <ele>181.10059</ele>
        <time>2026-05-14T15:17:26+02:00</time>
      </trkpt>
      <trkpt lat="47.01671" lon="5.14889">
        <ele>181.10059</ele>
        <time>2026-05-14T15:17:27+02:00</time>
      </trkpt>
      <trkpt lat="47.01674" lon="5.14882">
        <ele>181.10059</ele>
        <time>2026-05-14T15:17:28+02:00</time>
      </trkpt>
      <trkpt lat="47.01677" lon="5.14877">
        <ele>181</ele>
        <time>2026-05-14T15:17:29+02:00</time>
      </trkpt>
      <trkpt lat="47.01681" lon="5.14873">
        <ele>181</ele>
        <time>2026-05-14T15:17:30+02:00</time>
      </trkpt>
      <trkpt lat="47.01685" lon="5.14872">
        <ele>180.7998</ele>
        <time>2026-05-14T15:17:31+02:00</time>
      </trkpt>
      <trkpt lat="47.01691" lon="5.14872">
        <ele>180.7998</ele>
        <time>2026-05-14T15:17:32+02:00</time>
      </trkpt>
      <trkpt lat="47.01696" lon="5.14872">
        <ele>180.7002</ele>
        <time>2026-05-14T15:17:33+02:00</time>
      </trkpt>
      <trkpt lat="47.01701" lon="5.14872">
        <ele>180.7002</ele>
        <time>2026-05-14T15:17:34+02:00</time>
      </trkpt>
      <trkpt lat="47.01706" lon="5.14872">
        <ele>180.60059</ele>
        <time>2026-05-14T15:17:35+02:00</time>
      </trkpt>
      <trkpt lat="47.01712" lon="5.14872">
        <ele>180.60059</ele>
        <time>2026-05-14T15:17:36+02:00</time>
      </trkpt>
      <trkpt lat="47.01717" lon="5.14872">
        <ele>180.5</ele>
        <time>2026-05-14T15:17:37+02:00</time>
      </trkpt>
      <trkpt lat="47.01722" lon="5.14872">
        <ele>180.40039</ele>
        <time>2026-05-14T15:17:38+02:00</time>
      </trkpt>
      <trkpt lat="47.01728" lon="5.14873">
        <ele>180.5</ele>
        <time>2026-05-14T15:17:39+02:00</time>
      </trkpt>
      <trkpt lat="47.01733" lon="5.14874">
        <ele>180.40039</ele>
        <time>2026-05-14T15:17:40+02:00</time>
      </trkpt>
      <trkpt lat="47.01739" lon="5.14875">
        <ele>180.40039</ele>
        <time>2026-05-14T15:17:41+02:00</time>
      </trkpt>
      <trkpt lat="47.01745" lon="5.14875">
        <ele>180.2998</ele>
        <time>2026-05-14T15:17:42+02:00</time>
      </trkpt>
      <trkpt lat="47.0175" lon="5.14876">
        <ele>180.2998</ele>
        <time>2026-05-14T15:17:43+02:00</time>
      </trkpt>
      <trkpt lat="47.01756" lon="5.14878">
        <ele>180.2002</ele>
        <time>2026-05-14T15:17:44+02:00</time>
      </trkpt>
      <trkpt lat="47.01762" lon="5.14878">
        <ele>180.10059</ele>
        <time>2026-05-14T15:17:45+02:00</time>
      </trkpt>
      <trkpt lat="47.01767" lon="5.14879">
        <ele>180.10059</ele>
        <time>2026-05-14T15:17:46+02:00</time>
      </trkpt>
      <trkpt lat="47.01773" lon="5.1488">
        <ele>180</ele>
        <time>2026-05-14T15:17:47+02:00</time>
      </trkpt>
      <trkpt lat="47.01779" lon="5.14881">
        <ele>179.90039</ele>
        <time>2026-05-14T15:17:48+02:00</time>
      </trkpt>
      <trkpt lat="47.01784" lon="5.14882">
        <ele>180.10059</ele>
        <time>2026-05-14T15:17:49+02:00</time>
      </trkpt>
      <trkpt lat="47.0179" lon="5.14883">
        <ele>180</ele>
        <time>2026-05-14T15:17:50+02:00</time>
      </trkpt>
      <trkpt lat="47.01796" lon="5.14884">
        <ele>179.90039</ele>
        <time>2026-05-14T15:17:51+02:00</time>
      </trkpt>
      <trkpt lat="47.01801" lon="5.14884">
        <ele>179.7998</ele>
        <time>2026-05-14T15:17:52+02:00</time>
      </trkpt>
      <trkpt lat="47.01807" lon="5.14885">
        <ele>179.7002</ele>
        <time>2026-05-14T15:17:53+02:00</time>
      </trkpt>
      <trkpt lat="47.01813" lon="5.14886">
        <ele>179.7002</ele>
        <time>2026-05-14T15:17:54+02:00</time>
      </trkpt>
      <trkpt lat="47.01819" lon="5.14887">
        <ele>179.60059</ele>
        <time>2026-05-14T15:17:55+02:00</time>
      </trkpt>
      <trkpt lat="47.01825" lon="5.14889">
        <ele>179.60059</ele>
        <time>2026-05-14T15:17:56+02:00</time>
      </trkpt>
      <trkpt lat="47.0183" lon="5.1489">
        <ele>179.7998</ele>
        <time>2026-05-14T15:17:57+02:00</time>
      </trkpt>
      <trkpt lat="47.01836" lon="5.14892">
        <ele>179.7998</ele>
        <time>2026-05-14T15:17:58+02:00</time>
      </trkpt>
      <trkpt lat="47.01841" lon="5.14893">
        <ele>179.7998</ele>
        <time>2026-05-14T15:17:59+02:00</time>
      </trkpt>
      <trkpt lat="47.01847" lon="5.14895">
        <ele>179.7998</ele>
        <time>2026-05-14T15:18:00+02:00</time>
      </trkpt>
      <trkpt lat="47.01853" lon="5.14897">
        <ele>179.7998</ele>
        <time>2026-05-14T15:18:01+02:00</time>
      </trkpt>
      <trkpt lat="47.01858" lon="5.14899">
        <ele>180</ele>
        <time>2026-05-14T15:18:02+02:00</time>
      </trkpt>
      <trkpt lat="47.01863" lon="5.14901">
        <ele>180</ele>
        <time>2026-05-14T15:18:03+02:00</time>
      </trkpt>
      <trkpt lat="47.01869" lon="5.14903">
        <ele>180</ele>
        <time>2026-05-14T15:18:04+02:00</time>
      </trkpt>
      <trkpt lat="47.01875" lon="5.14905">
        <ele>180</ele>
        <time>2026-05-14T15:18:05+02:00</time>
      </trkpt>
      <trkpt lat="47.0188" lon="5.14907">
        <ele>180.10059</ele>
        <time>2026-05-14T15:18:06+02:00</time>
      </trkpt>
      <trkpt lat="47.01886" lon="5.1491">
        <ele>180.10059</ele>
        <time>2026-05-14T15:18:07+02:00</time>
      </trkpt>
      <trkpt lat="47.01891" lon="5.14912">
        <ele>180.10059</ele>
        <time>2026-05-14T15:18:08+02:00</time>
      </trkpt>
      <trkpt lat="47.01897" lon="5.14915">
        <ele>180.10059</ele>
        <time>2026-05-14T15:18:09+02:00</time>
      </trkpt>
      <trkpt lat="47.01903" lon="5.14916">
        <ele>180.2998</ele>
        <time>2026-05-14T15:18:10+02:00</time>
      </trkpt>
      <trkpt lat="47.01908" lon="5.14918">
        <ele>180.2998</ele>
        <time>2026-05-14T15:18:11+02:00</time>
      </trkpt>
      <trkpt lat="47.01914" lon="5.14921">
        <ele>180.2998</ele>
        <time>2026-05-14T15:18:12+02:00</time>
      </trkpt>
      <trkpt lat="47.0192" lon="5.14923">
        <ele>180.2998</ele>
        <time>2026-05-14T15:18:13+02:00</time>
      </trkpt>
      <trkpt lat="47.01925" lon="5.14925">
        <ele>180.40039</ele>
        <time>2026-05-14T15:18:14+02:00</time>
      </trkpt>
      <trkpt lat="47.01931" lon="5.14927">
        <ele>180.40039</ele>
        <time>2026-05-14T15:18:15+02:00</time>
      </trkpt>
      <trkpt lat="47.01936" lon="5.14929">
        <ele>180.40039</ele>
        <time>2026-05-14T15:18:16+02:00</time>
      </trkpt>
      <trkpt lat="47.01942" lon="5.14931">
        <ele>180.40039</ele>
        <time>2026-05-14T15:18:17+02:00</time>
      </trkpt>
      <trkpt lat="47.01948" lon="5.14933">
        <ele>180.60059</ele>
        <time>2026-05-14T15:18:18+02:00</time>
      </trkpt>
      <trkpt lat="47.01953" lon="5.14935">
        <ele>180.60059</ele>
        <time>2026-05-14T15:18:19+02:00</time>
      </trkpt>
      <trkpt lat="47.01959" lon="5.14937">
        <ele>180.60059</ele>
        <time>2026-05-14T15:18:20+02:00</time>
      </trkpt>
      <trkpt lat="47.01964" lon="5.14939">
        <ele>180.60059</ele>
        <time>2026-05-14T15:18:21+02:00</time>
      </trkpt>
      <trkpt lat="47.01969" lon="5.14942">
        <ele>180.7998</ele>
        <time>2026-05-14T15:18:22+02:00</time>
      </trkpt>
      <trkpt lat="47.01974" lon="5.14944">
        <ele>180.7998</ele>
        <time>2026-05-14T15:18:23+02:00</time>
      </trkpt>
      <trkpt lat="47.01978" lon="5.14947">
        <ele>180.90039</ele>
        <time>2026-05-14T15:18:24+02:00</time>
      </trkpt>
      <trkpt lat="47.01983" lon="5.1495">
        <ele>181.10059</ele>
        <time>2026-05-14T15:18:25+02:00</time>
      </trkpt>
      <trkpt lat="47.01987" lon="5.14953">
        <ele>181.10059</ele>
        <time>2026-05-14T15:18:26+02:00</time>
      </trkpt>
      <trkpt lat="47.0199" lon="5.14955">
        <ele>181.10059</ele>
        <time>2026-05-14T15:18:27+02:00</time>
      </trkpt>
      <trkpt lat="47.01993" lon="5.14955">
        <ele>181.10059</ele>
        <time>2026-05-14T15:18:28+02:00</time>
      </trkpt>
      <trkpt lat="47.01996" lon="5.14951">
        <ele>181.10059</ele>
        <time>2026-05-14T15:18:29+02:00</time>
      </trkpt>
      <trkpt lat="47.01997" lon="5.14945">
        <ele>180.90039</ele>
        <time>2026-05-14T15:18:30+02:00</time>
      </trkpt>
      <trkpt lat="47.01999" lon="5.14939">
        <ele>180.7002</ele>
        <time>2026-05-14T15:18:31+02:00</time>
      </trkpt>
      <trkpt lat="47.02" lon="5.14932">
        <ele>180.5</ele>
        <time>2026-05-14T15:18:32+02:00</time>
      </trkpt>
      <trkpt lat="47.02002" lon="5.14925">
        <ele>180.5</ele>
        <time>2026-05-14T15:18:33+02:00</time>
      </trkpt>
      <trkpt lat="47.02004" lon="5.14918">
        <ele>180.2998</ele>
        <time>2026-05-14T15:18:34+02:00</time>
      </trkpt>
      <trkpt lat="47.02005" lon="5.1491">
        <ele>180.10059</ele>
        <time>2026-05-14T15:18:35+02:00</time>
      </trkpt>
      <trkpt lat="47.02007" lon="5.14902">
        <ele>179.90039</ele>
        <time>2026-05-14T15:18:36+02:00</time>
      </trkpt>
      <trkpt lat="47.02009" lon="5.14894">
        <ele>179.7998</ele>
        <time>2026-05-14T15:18:37+02:00</time>
      </trkpt>
      <trkpt lat="47.02011" lon="5.14886">
        <ele>179.60059</ele>
        <time>2026-05-14T15:18:38+02:00</time>
      </trkpt>
      <trkpt lat="47.02013" lon="5.14878">
        <ele>179.40039</ele>
        <time>2026-05-14T15:18:39+02:00</time>
      </trkpt>
      <trkpt lat="47.02015" lon="5.1487">
        <ele>179.2002</ele>
        <time>2026-05-14T15:18:40+02:00</time>
      </trkpt>
      <trkpt lat="47.02018" lon="5.14861">
        <ele>179.10059</ele>
        <time>2026-05-14T15:18:41+02:00</time>
      </trkpt>
      <trkpt lat="47.0202" lon="5.14853">
        <ele>178.90039</ele>
        <time>2026-05-14T15:18:42+02:00</time>
      </trkpt>
      <trkpt lat="47.02023" lon="5.14845">
        <ele>178.7998</ele>
        <time>2026-05-14T15:18:43+02:00</time>
      </trkpt>
      <trkpt lat="47.02026" lon="5.14837">
        <ele>178.7002</ele>
        <time>2026-05-14T15:18:44+02:00</time>
      </trkpt>
      <trkpt lat="47.02028" lon="5.14829">
        <ele>178.60059</ele>
        <time>2026-05-14T15:18:45+02:00</time>
      </trkpt>
      <trkpt lat="47.02032" lon="5.14821">
        <ele>178.7002</ele>
        <time>2026-05-14T15:18:46+02:00</time>
      </trkpt>
      <trkpt lat="47.02035" lon="5.14814">
        <ele>178.7998</ele>
        <time>2026-05-14T15:18:47+02:00</time>
      </trkpt>
      <trkpt lat="47.02039" lon="5.14807">
        <ele>178.7002</ele>
        <time>2026-05-14T15:18:48+02:00</time>
      </trkpt>
      <trkpt lat="47.02043" lon="5.148">
        <ele>178.7998</ele>
        <time>2026-05-14T15:18:49+02:00</time>
      </trkpt>
      <trkpt lat="47.02048" lon="5.14795">
        <ele>178.7998</ele>
        <time>2026-05-14T15:18:50+02:00</time>
      </trkpt>
      <trkpt lat="47.02052" lon="5.14789">
        <ele>178.7998</ele>
        <time>2026-05-14T15:18:51+02:00</time>
      </trkpt>
      <trkpt lat="47.02057" lon="5.14783">
        <ele>178.90039</ele>
        <time>2026-05-14T15:18:52+02:00</time>
      </trkpt>
      <trkpt lat="47.02061" lon="5.14777">
        <ele>178.90039</ele>
        <time>2026-05-14T15:18:53+02:00</time>
      </trkpt>
      <trkpt lat="47.02065" lon="5.14771">
        <ele>178.90039</ele>
        <time>2026-05-14T15:18:54+02:00</time>
      </trkpt>
      <trkpt lat="47.0207" lon="5.14765">
        <ele>178.90039</ele>
        <time>2026-05-14T15:18:55+02:00</time>
      </trkpt>
      <trkpt lat="47.02074" lon="5.14759">
        <ele>178.90039</ele>
        <time>2026-05-14T15:18:56+02:00</time>
      </trkpt>
      <trkpt lat="47.02078" lon="5.14753">
        <ele>178.90039</ele>
        <time>2026-05-14T15:18:57+02:00</time>
      </trkpt>
      <trkpt lat="47.02083" lon="5.14748">
        <ele>178.90039</ele>
        <time>2026-05-14T15:18:58+02:00</time>
      </trkpt>
      <trkpt lat="47.02088" lon="5.14742">
        <ele>178.7998</ele>
        <time>2026-05-14T15:18:59+02:00</time>
      </trkpt>
      <trkpt lat="47.02092" lon="5.14736">
        <ele>178.7998</ele>
        <time>2026-05-14T15:19:00+02:00</time>
      </trkpt>
      <trkpt lat="47.02097" lon="5.1473">
        <ele>178.7002</ele>
        <time>2026-05-14T15:19:01+02:00</time>
      </trkpt>
      <trkpt lat="47.02101" lon="5.14724">
        <ele>178.5</ele>
        <time>2026-05-14T15:19:02+02:00</time>
      </trkpt>
      <trkpt lat="47.02105" lon="5.14718">
        <ele>178.40039</ele>
        <time>2026-05-14T15:19:03+02:00</time>
      </trkpt>
      <trkpt lat="47.0211" lon="5.14712">
        <ele>178.2998</ele>
        <time>2026-05-14T15:19:04+02:00</time>
      </trkpt>
      <trkpt lat="47.02114" lon="5.14707">
        <ele>178.10059</ele>
        <time>2026-05-14T15:19:05+02:00</time>
      </trkpt>
      <trkpt lat="47.02118" lon="5.14701">
        <ele>177.90039</ele>
        <time>2026-05-14T15:19:06+02:00</time>
      </trkpt>
      <trkpt lat="47.02123" lon="5.14695">
        <ele>177.7002</ele>
        <time>2026-05-14T15:19:07+02:00</time>
      </trkpt>
      <trkpt lat="47.02128" lon="5.1469">
        <ele>177.5</ele>
        <time>2026-05-14T15:19:08+02:00</time>
      </trkpt>
      <trkpt lat="47.02132" lon="5.14684">
        <ele>177.40039</ele>
        <time>2026-05-14T15:19:09+02:00</time>
      </trkpt>
      <trkpt lat="47.02137" lon="5.14679">
        <ele>177.2002</ele>
        <time>2026-05-14T15:19:10+02:00</time>
      </trkpt>
      <trkpt lat="47.02142" lon="5.14673">
        <ele>177</ele>
        <time>2026-05-14T15:19:11+02:00</time>
      </trkpt>
      <trkpt lat="47.02146" lon="5.14668">
        <ele>176.90039</ele>
        <time>2026-05-14T15:19:12+02:00</time>
      </trkpt>
      <trkpt lat="47.02151" lon="5.14663">
        <ele>176.90039</ele>
        <time>2026-05-14T15:19:13+02:00</time>
      </trkpt>
      <trkpt lat="47.02156" lon="5.14658">
        <ele>176.7998</ele>
        <time>2026-05-14T15:19:14+02:00</time>
      </trkpt>
      <trkpt lat="47.02161" lon="5.14653">
        <ele>176.7998</ele>
        <time>2026-05-14T15:19:15+02:00</time>
      </trkpt>
      <trkpt lat="47.02166" lon="5.14649">
        <ele>176.7998</ele>
        <time>2026-05-14T15:19:16+02:00</time>
      </trkpt>
      <trkpt lat="47.02171" lon="5.14645">
        <ele>176.7998</ele>
        <time>2026-05-14T15:19:17+02:00</time>
      </trkpt>
      <trkpt lat="47.02176" lon="5.1464">
        <ele>176.90039</ele>
        <time>2026-05-14T15:19:18+02:00</time>
      </trkpt>
      <trkpt lat="47.02181" lon="5.14636">
        <ele>176.90039</ele>
        <time>2026-05-14T15:19:19+02:00</time>
      </trkpt>
      <trkpt lat="47.02186" lon="5.14632">
        <ele>177.10059</ele>
        <time>2026-05-14T15:19:20+02:00</time>
      </trkpt>
      <trkpt lat="47.02191" lon="5.14628">
        <ele>177.10059</ele>
        <time>2026-05-14T15:19:21+02:00</time>
      </trkpt>
      <trkpt lat="47.02195" lon="5.14624">
        <ele>177.2002</ele>
        <time>2026-05-14T15:19:22+02:00</time>
      </trkpt>
      <trkpt lat="47.022" lon="5.14621">
        <ele>177.40039</ele>
        <time>2026-05-14T15:19:23+02:00</time>
      </trkpt>
      <trkpt lat="47.02205" lon="5.14617">
        <ele>177.5</ele>
        <time>2026-05-14T15:19:24+02:00</time>
      </trkpt>
      <trkpt lat="47.02211" lon="5.14614">
        <ele>177.7002</ele>
        <time>2026-05-14T15:19:25+02:00</time>
      </trkpt>
      <trkpt lat="47.02216" lon="5.1461">
        <ele>177.7002</ele>
        <time>2026-05-14T15:19:26+02:00</time>
      </trkpt>
      <trkpt lat="47.02221" lon="5.14607">
        <ele>177.7998</ele>
        <time>2026-05-14T15:19:27+02:00</time>
      </trkpt>
      <trkpt lat="47.02226" lon="5.14604">
        <ele>177.90039</ele>
        <time>2026-05-14T15:19:28+02:00</time>
      </trkpt>
      <trkpt lat="47.02231" lon="5.146">
        <ele>178</ele>
        <time>2026-05-14T15:19:29+02:00</time>
      </trkpt>
      <trkpt lat="47.02236" lon="5.14597">
        <ele>178.10059</ele>
        <time>2026-05-14T15:19:30+02:00</time>
      </trkpt>
      <trkpt lat="47.02241" lon="5.14593">
        <ele>178.2002</ele>
        <time>2026-05-14T15:19:31+02:00</time>
      </trkpt>
      <trkpt lat="47.02246" lon="5.1459">
        <ele>178.2998</ele>
        <time>2026-05-14T15:19:32+02:00</time>
      </trkpt>
      <trkpt lat="47.02251" lon="5.14587">
        <ele>178.2998</ele>
        <time>2026-05-14T15:19:33+02:00</time>
      </trkpt>
      <trkpt lat="47.02256" lon="5.14584">
        <ele>178.40039</ele>
        <time>2026-05-14T15:19:34+02:00</time>
      </trkpt>
      <trkpt lat="47.02261" lon="5.14581">
        <ele>178.5</ele>
        <time>2026-05-14T15:19:35+02:00</time>
      </trkpt>
      <trkpt lat="47.02266" lon="5.14578">
        <ele>178.7002</ele>
        <time>2026-05-14T15:19:36+02:00</time>
      </trkpt>
      <trkpt lat="47.02271" lon="5.14574">
        <ele>178.90039</ele>
        <time>2026-05-14T15:19:37+02:00</time>
      </trkpt>
      <trkpt lat="47.02276" lon="5.14571">
        <ele>179.10059</ele>
        <time>2026-05-14T15:19:38+02:00</time>
      </trkpt>
      <trkpt lat="47.0228" lon="5.14568">
        <ele>179.10059</ele>
        <time>2026-05-14T15:19:39+02:00</time>
      </trkpt>
      <trkpt lat="47.02285" lon="5.14565">
        <ele>179.2998</ele>
        <time>2026-05-14T15:19:40+02:00</time>
      </trkpt>
      <trkpt lat="47.0229" lon="5.14562">
        <ele>179.5</ele>
        <time>2026-05-14T15:19:41+02:00</time>
      </trkpt>
      <trkpt lat="47.02294" lon="5.14559">
        <ele>179.60059</ele>
        <time>2026-05-14T15:19:42+02:00</time>
      </trkpt>
      <trkpt lat="47.02298" lon="5.14556">
        <ele>179.60059</ele>
        <time>2026-05-14T15:19:43+02:00</time>
      </trkpt>
      <trkpt lat="47.02303" lon="5.14553">
        <ele>179.7998</ele>
        <time>2026-05-14T15:19:44+02:00</time>
      </trkpt>
      <trkpt lat="47.02307" lon="5.1455">
        <ele>179.90039</ele>
        <time>2026-05-14T15:19:45+02:00</time>
      </trkpt>
      <trkpt lat="47.02311" lon="5.14548">
        <ele>180</ele>
        <time>2026-05-14T15:19:46+02:00</time>
      </trkpt>
      <trkpt lat="47.02315" lon="5.14545">
        <ele>180.10059</ele>
        <time>2026-05-14T15:19:47+02:00</time>
      </trkpt>
      <trkpt lat="47.02319" lon="5.14542">
        <ele>180.2002</ele>
        <time>2026-05-14T15:19:48+02:00</time>
      </trkpt>
      <trkpt lat="47.02324" lon="5.14539">
        <ele>180.2998</ele>
        <time>2026-05-14T15:19:49+02:00</time>
      </trkpt>
      <trkpt lat="47.02327" lon="5.14537">
        <ele>180.40039</ele>
        <time>2026-05-14T15:19:50+02:00</time>
      </trkpt>
      <trkpt lat="47.02331" lon="5.14534">
        <ele>180.40039</ele>
        <time>2026-05-14T15:19:51+02:00</time>
      </trkpt>
      <trkpt lat="47.02335" lon="5.14532">
        <ele>180.5</ele>
        <time>2026-05-14T15:19:52+02:00</time>
      </trkpt>
      <trkpt lat="47.02339" lon="5.14529">
        <ele>180.60059</ele>
        <time>2026-05-14T15:19:53+02:00</time>
      </trkpt>
      <trkpt lat="47.02343" lon="5.14527">
        <ele>180.7002</ele>
        <time>2026-05-14T15:19:54+02:00</time>
      </trkpt>
      <trkpt lat="47.02347" lon="5.14524">
        <ele>180.60059</ele>
        <time>2026-05-14T15:19:55+02:00</time>
      </trkpt>
      <trkpt lat="47.0235" lon="5.14522">
        <ele>180.60059</ele>
        <time>2026-05-14T15:19:56+02:00</time>
      </trkpt>
      <trkpt lat="47.02354" lon="5.14519">
        <ele>180.5</ele>
        <time>2026-05-14T15:19:57+02:00</time>
      </trkpt>
      <trkpt lat="47.02357" lon="5.14517">
        <ele>180.2998</ele>
        <time>2026-05-14T15:19:58+02:00</time>
      </trkpt>
      <trkpt lat="47.02361" lon="5.14515">
        <ele>180.2998</ele>
        <time>2026-05-14T15:19:59+02:00</time>
      </trkpt>
      <trkpt lat="47.02364" lon="5.14512">
        <ele>179.40039</ele>
        <time>2026-05-14T15:20:00+02:00</time>
      </trkpt>
      <trkpt lat="47.02368" lon="5.1451">
        <ele>179.40039</ele>
        <time>2026-05-14T15:20:01+02:00</time>
      </trkpt>
      <trkpt lat="47.02372" lon="5.14508">
        <ele>179.10059</ele>
        <time>2026-05-14T15:20:02+02:00</time>
      </trkpt>
      <trkpt lat="47.02375" lon="5.14505">
        <ele>178.7002</ele>
        <time>2026-05-14T15:20:03+02:00</time>
      </trkpt>
      <trkpt lat="47.02378" lon="5.14503">
        <ele>178.2002</ele>
        <time>2026-05-14T15:20:04+02:00</time>
      </trkpt>
      <trkpt lat="47.02381" lon="5.14501">
        <ele>177.90039</ele>
        <time>2026-05-14T15:20:05+02:00</time>
      </trkpt>
      <trkpt lat="47.02384" lon="5.14499">
        <ele>177.90039</ele>
        <time>2026-05-14T15:20:06+02:00</time>
      </trkpt>
      <trkpt lat="47.02394" lon="5.14493">
        <ele>177.10059</ele>
        <time>2026-05-14T15:20:07+02:00</time>
      </trkpt>
      <trkpt lat="47.02398" lon="5.14491">
        <ele>176.90039</ele>
        <time>2026-05-14T15:20:08+02:00</time>
      </trkpt>
      <trkpt lat="47.02401" lon="5.14488">
        <ele>176.90039</ele>
        <time>2026-05-14T15:20:09+02:00</time>
      </trkpt>
      <trkpt lat="47.02405" lon="5.14485">
        <ele>176.5</ele>
        <time>2026-05-14T15:20:10+02:00</time>
      </trkpt>
      <trkpt lat="47.02409" lon="5.14483">
        <ele>176.5</ele>
        <time>2026-05-14T15:20:11+02:00</time>
      </trkpt>
      <trkpt lat="47.02414" lon="5.1448">
        <ele>176.2998</ele>
        <time>2026-05-14T15:20:12+02:00</time>
      </trkpt>
      <trkpt lat="47.02418" lon="5.14478">
        <ele>176.2002</ele>
        <time>2026-05-14T15:20:13+02:00</time>
      </trkpt>
      <trkpt lat="47.02422" lon="5.14475">
        <ele>176.10059</ele>
        <time>2026-05-14T15:20:14+02:00</time>
      </trkpt>
      <trkpt lat="47.02427" lon="5.14472">
        <ele>176.10059</ele>
        <time>2026-05-14T15:20:15+02:00</time>
      </trkpt>
      <trkpt lat="47.02431" lon="5.14468">
        <ele>176.10059</ele>
        <time>2026-05-14T15:20:16+02:00</time>
      </trkpt>
      <trkpt lat="47.02436" lon="5.14465">
        <ele>176.10059</ele>
        <time>2026-05-14T15:20:17+02:00</time>
      </trkpt>
      <trkpt lat="47.02441" lon="5.14462">
        <ele>176.10059</ele>
        <time>2026-05-14T15:20:18+02:00</time>
      </trkpt>
      <trkpt lat="47.02446" lon="5.14459">
        <ele>176.10059</ele>
        <time>2026-05-14T15:20:19+02:00</time>
      </trkpt>
      <trkpt lat="47.02451" lon="5.14456">
        <ele>176.10059</ele>
        <time>2026-05-14T15:20:20+02:00</time>
      </trkpt>
      <trkpt lat="47.02456" lon="5.14453">
        <ele>176.10059</ele>
        <time>2026-05-14T15:20:21+02:00</time>
      </trkpt>
      <trkpt lat="47.02461" lon="5.1445">
        <ele>176.10059</ele>
        <time>2026-05-14T15:20:22+02:00</time>
      </trkpt>
      <trkpt lat="47.02466" lon="5.14447">
        <ele>176.10059</ele>
        <time>2026-05-14T15:20:23+02:00</time>
      </trkpt>
      <trkpt lat="47.02472" lon="5.14444">
        <ele>176.10059</ele>
        <time>2026-05-14T15:20:24+02:00</time>
      </trkpt>
      <trkpt lat="47.02477" lon="5.14442">
        <ele>176.2998</ele>
        <time>2026-05-14T15:20:25+02:00</time>
      </trkpt>
      <trkpt lat="47.02483" lon="5.14439">
        <ele>176.5</ele>
        <time>2026-05-14T15:20:26+02:00</time>
      </trkpt>
      <trkpt lat="47.02489" lon="5.14438">
        <ele>176.60059</ele>
        <time>2026-05-14T15:20:27+02:00</time>
      </trkpt>
      <trkpt lat="47.02495" lon="5.14436">
        <ele>176.7998</ele>
        <time>2026-05-14T15:20:28+02:00</time>
      </trkpt>
      <trkpt lat="47.02501" lon="5.14435">
        <ele>177</ele>
        <time>2026-05-14T15:20:29+02:00</time>
      </trkpt>
      <trkpt lat="47.02508" lon="5.14434">
        <ele>177.2998</ele>
        <time>2026-05-14T15:20:30+02:00</time>
      </trkpt>
      <trkpt lat="47.02514" lon="5.14434">
        <ele>177.60059</ele>
        <time>2026-05-14T15:20:31+02:00</time>
      </trkpt>
      <trkpt lat="47.02521" lon="5.14435">
        <ele>177.90039</ele>
        <time>2026-05-14T15:20:32+02:00</time>
      </trkpt>
      <trkpt lat="47.02528" lon="5.14435">
        <ele>177.90039</ele>
        <time>2026-05-14T15:20:33+02:00</time>
      </trkpt>
      <trkpt lat="47.02535" lon="5.14436">
        <ele>177.60059</ele>
        <time>2026-05-14T15:20:34+02:00</time>
      </trkpt>
      <trkpt lat="47.02542" lon="5.14438">
        <ele>177.2002</ele>
        <time>2026-05-14T15:20:35+02:00</time>
      </trkpt>
      <trkpt lat="47.02549" lon="5.1444">
        <ele>176.90039</ele>
        <time>2026-05-14T15:20:36+02:00</time>
      </trkpt>
      <trkpt lat="47.02556" lon="5.14443">
        <ele>176.5</ele>
        <time>2026-05-14T15:20:37+02:00</time>
      </trkpt>
      <trkpt lat="47.02562" lon="5.14446">
        <ele>176.2998</ele>
        <time>2026-05-14T15:20:38+02:00</time>
      </trkpt>
      <trkpt lat="47.02569" lon="5.14449">
        <ele>176.2002</ele>
        <time>2026-05-14T15:20:39+02:00</time>
      </trkpt>
      <trkpt lat="47.02576" lon="5.14454">
        <ele>176.2002</ele>
        <time>2026-05-14T15:20:40+02:00</time>
      </trkpt>
      <trkpt lat="47.02583" lon="5.14459">
        <ele>176.2002</ele>
        <time>2026-05-14T15:20:41+02:00</time>
      </trkpt>
      <trkpt lat="47.0259" lon="5.14465">
        <ele>176.2998</ele>
        <time>2026-05-14T15:20:42+02:00</time>
      </trkpt>
      <trkpt lat="47.02596" lon="5.14471">
        <ele>176.5</ele>
        <time>2026-05-14T15:20:43+02:00</time>
      </trkpt>
      <trkpt lat="47.02603" lon="5.14478">
        <ele>176.90039</ele>
        <time>2026-05-14T15:20:44+02:00</time>
      </trkpt>
      <trkpt lat="47.02608" lon="5.14485">
        <ele>176.90039</ele>
        <time>2026-05-14T15:20:45+02:00</time>
      </trkpt>
      <trkpt lat="47.02614" lon="5.14493">
        <ele>177.10059</ele>
        <time>2026-05-14T15:20:46+02:00</time>
      </trkpt>
      <trkpt lat="47.0262" lon="5.145">
        <ele>177.40039</ele>
        <time>2026-05-14T15:20:47+02:00</time>
      </trkpt>
      <trkpt lat="47.02625" lon="5.14507">
        <ele>177.60059</ele>
        <time>2026-05-14T15:20:48+02:00</time>
      </trkpt>
      <trkpt lat="47.0263" lon="5.14514">
        <ele>177.90039</ele>
        <time>2026-05-14T15:20:49+02:00</time>
      </trkpt>
      <trkpt lat="47.02635" lon="5.14521">
        <ele>178.10059</ele>
        <time>2026-05-14T15:20:50+02:00</time>
      </trkpt>
      <trkpt lat="47.0264" lon="5.14528">
        <ele>178.2002</ele>
        <time>2026-05-14T15:20:51+02:00</time>
      </trkpt>
      <trkpt lat="47.02644" lon="5.14535">
        <ele>178.2998</ele>
        <time>2026-05-14T15:20:52+02:00</time>
      </trkpt>
      <trkpt lat="47.02649" lon="5.14542">
        <ele>178.2002</ele>
        <time>2026-05-14T15:20:53+02:00</time>
      </trkpt>
      <trkpt lat="47.02654" lon="5.14549">
        <ele>178.2998</ele>
        <time>2026-05-14T15:20:54+02:00</time>
      </trkpt>
      <trkpt lat="47.02659" lon="5.14556">
        <ele>178.2002</ele>
        <time>2026-05-14T15:20:55+02:00</time>
      </trkpt>
      <trkpt lat="47.02664" lon="5.14564">
        <ele>178.2002</ele>
        <time>2026-05-14T15:20:56+02:00</time>
      </trkpt>
      <trkpt lat="47.0267" lon="5.14571">
        <ele>178.2002</ele>
        <time>2026-05-14T15:20:57+02:00</time>
      </trkpt>
      <trkpt lat="47.02675" lon="5.14579">
        <ele>178.2002</ele>
        <time>2026-05-14T15:20:58+02:00</time>
      </trkpt>
      <trkpt lat="47.0268" lon="5.14586">
        <ele>178.10059</ele>
        <time>2026-05-14T15:20:59+02:00</time>
      </trkpt>
      <trkpt lat="47.02685" lon="5.14593">
        <ele>178.10059</ele>
        <time>2026-05-14T15:21:00+02:00</time>
      </trkpt>
      <trkpt lat="47.02691" lon="5.14601">
        <ele>178</ele>
        <time>2026-05-14T15:21:01+02:00</time>
      </trkpt>
      <trkpt lat="47.02696" lon="5.14609">
        <ele>178</ele>
        <time>2026-05-14T15:21:02+02:00</time>
      </trkpt>
      <trkpt lat="47.02701" lon="5.14616">
        <ele>177.90039</ele>
        <time>2026-05-14T15:21:03+02:00</time>
      </trkpt>
      <trkpt lat="47.02706" lon="5.14624">
        <ele>177.90039</ele>
        <time>2026-05-14T15:21:04+02:00</time>
      </trkpt>
      <trkpt lat="47.02711" lon="5.14631">
        <ele>177.90039</ele>
        <time>2026-05-14T15:21:05+02:00</time>
      </trkpt>
      <trkpt lat="47.02717" lon="5.14638">
        <ele>177.90039</ele>
        <time>2026-05-14T15:21:06+02:00</time>
      </trkpt>
      <trkpt lat="47.02722" lon="5.14646">
        <ele>178</ele>
        <time>2026-05-14T15:21:07+02:00</time>
      </trkpt>
      <trkpt lat="47.02726" lon="5.14653">
        <ele>178.10059</ele>
        <time>2026-05-14T15:21:08+02:00</time>
      </trkpt>
      <trkpt lat="47.02732" lon="5.1466">
        <ele>178.2002</ele>
        <time>2026-05-14T15:21:09+02:00</time>
      </trkpt>
      <trkpt lat="47.02737" lon="5.14668">
        <ele>178.2002</ele>
        <time>2026-05-14T15:21:10+02:00</time>
      </trkpt>
      <trkpt lat="47.02742" lon="5.14675">
        <ele>178.2998</ele>
        <time>2026-05-14T15:21:11+02:00</time>
      </trkpt>
      <trkpt lat="47.02747" lon="5.14682">
        <ele>178.40039</ele>
        <time>2026-05-14T15:21:12+02:00</time>
      </trkpt>
      <trkpt lat="47.02752" lon="5.14689">
        <ele>178.60059</ele>
        <time>2026-05-14T15:21:13+02:00</time>
      </trkpt>
      <trkpt lat="47.02758" lon="5.14696">
        <ele>178.7998</ele>
        <time>2026-05-14T15:21:14+02:00</time>
      </trkpt>
      <trkpt lat="47.02763" lon="5.14702">
        <ele>179</ele>
        <time>2026-05-14T15:21:15+02:00</time>
      </trkpt>
      <trkpt lat="47.02769" lon="5.14708">
        <ele>179.10059</ele>
        <time>2026-05-14T15:21:16+02:00</time>
      </trkpt>
      <trkpt lat="47.02775" lon="5.14714">
        <ele>179.2998</ele>
        <time>2026-05-14T15:21:17+02:00</time>
      </trkpt>
      <trkpt lat="47.02781" lon="5.1472">
        <ele>179.5</ele>
        <time>2026-05-14T15:21:18+02:00</time>
      </trkpt>
      <trkpt lat="47.02788" lon="5.14725">
        <ele>179.60059</ele>
        <time>2026-05-14T15:21:19+02:00</time>
      </trkpt>
      <trkpt lat="47.02794" lon="5.14729">
        <ele>179.7002</ele>
        <time>2026-05-14T15:21:20+02:00</time>
      </trkpt>
      <trkpt lat="47.02801" lon="5.14733">
        <ele>179.7998</ele>
        <time>2026-05-14T15:21:21+02:00</time>
      </trkpt>
      <trkpt lat="47.02808" lon="5.14737">
        <ele>179.90039</ele>
        <time>2026-05-14T15:21:22+02:00</time>
      </trkpt>
      <trkpt lat="47.02815" lon="5.1474">
        <ele>180</ele>
        <time>2026-05-14T15:21:23+02:00</time>
      </trkpt>
      <trkpt lat="47.02822" lon="5.14742">
        <ele>180.10059</ele>
        <time>2026-05-14T15:21:24+02:00</time>
      </trkpt>
      <trkpt lat="47.02829" lon="5.14744">
        <ele>180</ele>
        <time>2026-05-14T15:21:25+02:00</time>
      </trkpt>
      <trkpt lat="47.02836" lon="5.14746">
        <ele>180.10059</ele>
        <time>2026-05-14T15:21:26+02:00</time>
      </trkpt>
      <trkpt lat="47.02843" lon="5.14747">
        <ele>180.2998</ele>
        <time>2026-05-14T15:21:27+02:00</time>
      </trkpt>
      <trkpt lat="47.0285" lon="5.14748">
        <ele>180.2998</ele>
        <time>2026-05-14T15:21:28+02:00</time>
      </trkpt>
      <trkpt lat="47.02857" lon="5.14749">
        <ele>180.40039</ele>
        <time>2026-05-14T15:21:29+02:00</time>
      </trkpt>
      <trkpt lat="47.02865" lon="5.1475">
        <ele>180.5</ele>
        <time>2026-05-14T15:21:30+02:00</time>
      </trkpt>
      <trkpt lat="47.02871" lon="5.14751">
        <ele>180.60059</ele>
        <time>2026-05-14T15:21:31+02:00</time>
      </trkpt>
      <trkpt lat="47.02878" lon="5.14753">
        <ele>180.60059</ele>
        <time>2026-05-14T15:21:32+02:00</time>
      </trkpt>
      <trkpt lat="47.02885" lon="5.14754">
        <ele>180.7002</ele>
        <time>2026-05-14T15:21:33+02:00</time>
      </trkpt>
      <trkpt lat="47.02892" lon="5.14755">
        <ele>180.7002</ele>
        <time>2026-05-14T15:21:34+02:00</time>
      </trkpt>
      <trkpt lat="47.02899" lon="5.14756">
        <ele>180.7998</ele>
        <time>2026-05-14T15:21:35+02:00</time>
      </trkpt>
      <trkpt lat="47.02905" lon="5.14757">
        <ele>180.7998</ele>
        <time>2026-05-14T15:21:36+02:00</time>
      </trkpt>
      <trkpt lat="47.02912" lon="5.14758">
        <ele>180.7998</ele>
        <time>2026-05-14T15:21:37+02:00</time>
      </trkpt>
      <trkpt lat="47.02919" lon="5.14759">
        <ele>180.7998</ele>
        <time>2026-05-14T15:21:38+02:00</time>
      </trkpt>
      <trkpt lat="47.02925" lon="5.1476">
        <ele>180.7998</ele>
        <time>2026-05-14T15:21:39+02:00</time>
      </trkpt>
      <trkpt lat="47.02932" lon="5.14761">
        <ele>180.7002</ele>
        <time>2026-05-14T15:21:40+02:00</time>
      </trkpt>
      <trkpt lat="47.02939" lon="5.14762">
        <ele>180.60059</ele>
        <time>2026-05-14T15:21:41+02:00</time>
      </trkpt>
      <trkpt lat="47.02945" lon="5.14764">
        <ele>180.60059</ele>
        <time>2026-05-14T15:21:42+02:00</time>
      </trkpt>
      <trkpt lat="47.02952" lon="5.14765">
        <ele>180.5</ele>
        <time>2026-05-14T15:21:43+02:00</time>
      </trkpt>
      <trkpt lat="47.02958" lon="5.14766">
        <ele>180.40039</ele>
        <time>2026-05-14T15:21:44+02:00</time>
      </trkpt>
      <trkpt lat="47.02964" lon="5.14767">
        <ele>180.2998</ele>
        <time>2026-05-14T15:21:45+02:00</time>
      </trkpt>
      <trkpt lat="47.0297" lon="5.14768">
        <ele>180.2998</ele>
        <time>2026-05-14T15:21:46+02:00</time>
      </trkpt>
      <trkpt lat="47.02977" lon="5.1477">
        <ele>180.10059</ele>
        <time>2026-05-14T15:21:47+02:00</time>
      </trkpt>
      <trkpt lat="47.02983" lon="5.14771">
        <ele>180</ele>
        <time>2026-05-14T15:21:48+02:00</time>
      </trkpt>
      <trkpt lat="47.02989" lon="5.14773">
        <ele>179.90039</ele>
        <time>2026-05-14T15:21:49+02:00</time>
      </trkpt>
      <trkpt lat="47.02995" lon="5.14774">
        <ele>179.90039</ele>
        <time>2026-05-14T15:21:50+02:00</time>
      </trkpt>
      <trkpt lat="47.03002" lon="5.14776">
        <ele>179.7998</ele>
        <time>2026-05-14T15:21:51+02:00</time>
      </trkpt>
      <trkpt lat="47.03008" lon="5.14777">
        <ele>179.7998</ele>
        <time>2026-05-14T15:21:52+02:00</time>
      </trkpt>
      <trkpt lat="47.03015" lon="5.14779">
        <ele>179.60059</ele>
        <time>2026-05-14T15:21:53+02:00</time>
      </trkpt>
      <trkpt lat="47.03021" lon="5.14781">
        <ele>179.60059</ele>
        <time>2026-05-14T15:21:54+02:00</time>
      </trkpt>
      <trkpt lat="47.03028" lon="5.14783">
        <ele>179.5</ele>
        <time>2026-05-14T15:21:55+02:00</time>
      </trkpt>
      <trkpt lat="47.03034" lon="5.14785">
        <ele>179.5</ele>
        <time>2026-05-14T15:21:56+02:00</time>
      </trkpt>
      <trkpt lat="47.03041" lon="5.14787">
        <ele>179.40039</ele>
        <time>2026-05-14T15:21:57+02:00</time>
      </trkpt>
      <trkpt lat="47.03048" lon="5.14789">
        <ele>179.2998</ele>
        <time>2026-05-14T15:21:58+02:00</time>
      </trkpt>
      <trkpt lat="47.03055" lon="5.14791">
        <ele>179.2998</ele>
        <time>2026-05-14T15:21:59+02:00</time>
      </trkpt>
      <trkpt lat="47.03061" lon="5.14793">
        <ele>179.40039</ele>
        <time>2026-05-14T15:22:00+02:00</time>
      </trkpt>
      <trkpt lat="47.03068" lon="5.14795">
        <ele>179.40039</ele>
        <time>2026-05-14T15:22:01+02:00</time>
      </trkpt>
      <trkpt lat="47.03075" lon="5.14797">
        <ele>179.40039</ele>
        <time>2026-05-14T15:22:02+02:00</time>
      </trkpt>
      <trkpt lat="47.03082" lon="5.148">
        <ele>179.5</ele>
        <time>2026-05-14T15:22:03+02:00</time>
      </trkpt>
      <trkpt lat="47.03089" lon="5.14802">
        <ele>179.7998</ele>
        <time>2026-05-14T15:22:04+02:00</time>
      </trkpt>
      <trkpt lat="47.03095" lon="5.14804">
        <ele>180</ele>
        <time>2026-05-14T15:22:05+02:00</time>
      </trkpt>
      <trkpt lat="47.03102" lon="5.14806">
        <ele>180.10059</ele>
        <time>2026-05-14T15:22:06+02:00</time>
      </trkpt>
      <trkpt lat="47.03109" lon="5.14809">
        <ele>180.40039</ele>
        <time>2026-05-14T15:22:07+02:00</time>
      </trkpt>
      <trkpt lat="47.03116" lon="5.14811">
        <ele>180.7002</ele>
        <time>2026-05-14T15:22:08+02:00</time>
      </trkpt>
      <trkpt lat="47.03123" lon="5.14813">
        <ele>180.90039</ele>
        <time>2026-05-14T15:22:09+02:00</time>
      </trkpt>
      <trkpt lat="47.0313" lon="5.14815">
        <ele>181.5</ele>
        <time>2026-05-14T15:22:10+02:00</time>
      </trkpt>
      <trkpt lat="47.03137" lon="5.14818">
        <ele>181.7998</ele>
        <time>2026-05-14T15:22:11+02:00</time>
      </trkpt>
      <trkpt lat="47.03143" lon="5.1482">
        <ele>182.10059</ele>
        <time>2026-05-14T15:22:12+02:00</time>
      </trkpt>
      <trkpt lat="47.0315" lon="5.14822">
        <ele>182.2998</ele>
        <time>2026-05-14T15:22:13+02:00</time>
      </trkpt>
      <trkpt lat="47.03157" lon="5.14824">
        <ele>182.40039</ele>
        <time>2026-05-14T15:22:14+02:00</time>
      </trkpt>
      <trkpt lat="47.03163" lon="5.14826">
        <ele>182.5</ele>
        <time>2026-05-14T15:22:15+02:00</time>
      </trkpt>
      <trkpt lat="47.0317" lon="5.14828">
        <ele>182.5</ele>
        <time>2026-05-14T15:22:16+02:00</time>
      </trkpt>
      <trkpt lat="47.03176" lon="5.1483">
        <ele>182.40039</ele>
        <time>2026-05-14T15:22:17+02:00</time>
      </trkpt>
      <trkpt lat="47.03183" lon="5.14833">
        <ele>182.40039</ele>
        <time>2026-05-14T15:22:18+02:00</time>
      </trkpt>
      <trkpt lat="47.0319" lon="5.14835">
        <ele>182.2998</ele>
        <time>2026-05-14T15:22:19+02:00</time>
      </trkpt>
      <trkpt lat="47.03196" lon="5.14837">
        <ele>182.2002</ele>
        <time>2026-05-14T15:22:20+02:00</time>
      </trkpt>
      <trkpt lat="47.03203" lon="5.14839">
        <ele>182</ele>
        <time>2026-05-14T15:22:21+02:00</time>
      </trkpt>
      <trkpt lat="47.03209" lon="5.14842">
        <ele>181.7998</ele>
        <time>2026-05-14T15:22:22+02:00</time>
      </trkpt>
      <trkpt lat="47.03216" lon="5.14844">
        <ele>181.7002</ele>
        <time>2026-05-14T15:22:23+02:00</time>
      </trkpt>
      <trkpt lat="47.03223" lon="5.14846">
        <ele>181.40039</ele>
        <time>2026-05-14T15:22:24+02:00</time>
      </trkpt>
      <trkpt lat="47.03229" lon="5.14848">
        <ele>181.2002</ele>
        <time>2026-05-14T15:22:25+02:00</time>
      </trkpt>
      <trkpt lat="47.03236" lon="5.1485">
        <ele>181</ele>
        <time>2026-05-14T15:22:26+02:00</time>
      </trkpt>
      <trkpt lat="47.03242" lon="5.14852">
        <ele>180.90039</ele>
        <time>2026-05-14T15:22:27+02:00</time>
      </trkpt>
      <trkpt lat="47.03249" lon="5.14854">
        <ele>180.7998</ele>
        <time>2026-05-14T15:22:28+02:00</time>
      </trkpt>
      <trkpt lat="47.03255" lon="5.14856">
        <ele>180.5</ele>
        <time>2026-05-14T15:22:29+02:00</time>
      </trkpt>
      <trkpt lat="47.03262" lon="5.14859">
        <ele>180.2998</ele>
        <time>2026-05-14T15:22:30+02:00</time>
      </trkpt>
      <trkpt lat="47.03268" lon="5.14861">
        <ele>180.2002</ele>
        <time>2026-05-14T15:22:31+02:00</time>
      </trkpt>
      <trkpt lat="47.03275" lon="5.14863">
        <ele>180</ele>
        <time>2026-05-14T15:22:32+02:00</time>
      </trkpt>
      <trkpt lat="47.03281" lon="5.14865">
        <ele>179.7002</ele>
        <time>2026-05-14T15:22:33+02:00</time>
      </trkpt>
      <trkpt lat="47.03288" lon="5.14867">
        <ele>179.40039</ele>
        <time>2026-05-14T15:22:34+02:00</time>
      </trkpt>
      <trkpt lat="47.03294" lon="5.14869">
        <ele>179.2998</ele>
        <time>2026-05-14T15:22:35+02:00</time>
      </trkpt>
      <trkpt lat="47.03301" lon="5.14871">
        <ele>179.2002</ele>
        <time>2026-05-14T15:22:36+02:00</time>
      </trkpt>
      <trkpt lat="47.03307" lon="5.14873">
        <ele>179</ele>
        <time>2026-05-14T15:22:37+02:00</time>
      </trkpt>
      <trkpt lat="47.03314" lon="5.14875">
        <ele>178.90039</ele>
        <time>2026-05-14T15:22:38+02:00</time>
      </trkpt>
      <trkpt lat="47.0332" lon="5.14877">
        <ele>178.90039</ele>
        <time>2026-05-14T15:22:39+02:00</time>
      </trkpt>
      <trkpt lat="47.03327" lon="5.1488">
        <ele>178.7998</ele>
        <time>2026-05-14T15:22:40+02:00</time>
      </trkpt>
      <trkpt lat="47.03334" lon="5.14882">
        <ele>178.7002</ele>
        <time>2026-05-14T15:22:41+02:00</time>
      </trkpt>
      <trkpt lat="47.0334" lon="5.14884">
        <ele>178.7002</ele>
        <time>2026-05-14T15:22:42+02:00</time>
      </trkpt>
      <trkpt lat="47.03347" lon="5.14886">
        <ele>178.7002</ele>
        <time>2026-05-14T15:22:43+02:00</time>
      </trkpt>
      <trkpt lat="47.03353" lon="5.14888">
        <ele>178.7998</ele>
        <time>2026-05-14T15:22:44+02:00</time>
      </trkpt>
      <trkpt lat="47.0336" lon="5.1489">
        <ele>178.7998</ele>
        <time>2026-05-14T15:22:45+02:00</time>
      </trkpt>
      <trkpt lat="47.03366" lon="5.14892">
        <ele>178.7998</ele>
        <time>2026-05-14T15:22:46+02:00</time>
      </trkpt>
      <trkpt lat="47.03373" lon="5.14893">
        <ele>178.90039</ele>
        <time>2026-05-14T15:22:47+02:00</time>
      </trkpt>
      <trkpt lat="47.03379" lon="5.14895">
        <ele>178.90039</ele>
        <time>2026-05-14T15:22:48+02:00</time>
      </trkpt>
      <trkpt lat="47.03386" lon="5.14896">
        <ele>179</ele>
        <time>2026-05-14T15:22:49+02:00</time>
      </trkpt>
      <trkpt lat="47.03392" lon="5.14897">
        <ele>179</ele>
        <time>2026-05-14T15:22:50+02:00</time>
      </trkpt>
      <trkpt lat="47.03399" lon="5.14898">
        <ele>179.10059</ele>
        <time>2026-05-14T15:22:51+02:00</time>
      </trkpt>
      <trkpt lat="47.03406" lon="5.14899">
        <ele>179.2002</ele>
        <time>2026-05-14T15:22:52+02:00</time>
      </trkpt>
      <trkpt lat="47.03412" lon="5.14899">
        <ele>179.2998</ele>
        <time>2026-05-14T15:22:53+02:00</time>
      </trkpt>
      <trkpt lat="47.03419" lon="5.149">
        <ele>179.40039</ele>
        <time>2026-05-14T15:22:54+02:00</time>
      </trkpt>
      <trkpt lat="47.03426" lon="5.14899">
        <ele>179.5</ele>
        <time>2026-05-14T15:22:55+02:00</time>
      </trkpt>
      <trkpt lat="47.03433" lon="5.14899">
        <ele>179.60059</ele>
        <time>2026-05-14T15:22:56+02:00</time>
      </trkpt>
      <trkpt lat="47.03439" lon="5.14899">
        <ele>179.7002</ele>
        <time>2026-05-14T15:22:57+02:00</time>
      </trkpt>
      <trkpt lat="47.03446" lon="5.14899">
        <ele>179.90039</ele>
        <time>2026-05-14T15:22:58+02:00</time>
      </trkpt>
      <trkpt lat="47.03452" lon="5.14898">
        <ele>179.7998</ele>
        <time>2026-05-14T15:22:59+02:00</time>
      </trkpt>
      <trkpt lat="47.03459" lon="5.14898">
        <ele>179.90039</ele>
        <time>2026-05-14T15:23:00+02:00</time>
      </trkpt>
      <trkpt lat="47.03466" lon="5.14898">
        <ele>180</ele>
        <time>2026-05-14T15:23:01+02:00</time>
      </trkpt>
      <trkpt lat="47.03472" lon="5.14898">
        <ele>180.10059</ele>
        <time>2026-05-14T15:23:02+02:00</time>
      </trkpt>
      <trkpt lat="47.03479" lon="5.14897">
        <ele>180.2002</ele>
        <time>2026-05-14T15:23:03+02:00</time>
      </trkpt>
      <trkpt lat="47.03486" lon="5.14897">
        <ele>180.2002</ele>
        <time>2026-05-14T15:23:04+02:00</time>
      </trkpt>
      <trkpt lat="47.03492" lon="5.14896">
        <ele>180.2998</ele>
        <time>2026-05-14T15:23:05+02:00</time>
      </trkpt>
      <trkpt lat="47.03499" lon="5.14896">
        <ele>180.2998</ele>
        <time>2026-05-14T15:23:06+02:00</time>
      </trkpt>
      <trkpt lat="47.03506" lon="5.14896">
        <ele>180.2002</ele>
        <time>2026-05-14T15:23:07+02:00</time>
      </trkpt>
      <trkpt lat="47.03512" lon="5.14895">
        <ele>180.2002</ele>
        <time>2026-05-14T15:23:08+02:00</time>
      </trkpt>
      <trkpt lat="47.0352" lon="5.14895">
        <ele>180.10059</ele>
        <time>2026-05-14T15:23:09+02:00</time>
      </trkpt>
      <trkpt lat="47.03526" lon="5.14894">
        <ele>180</ele>
        <time>2026-05-14T15:23:10+02:00</time>
      </trkpt>
      <trkpt lat="47.03533" lon="5.14894">
        <ele>179.7998</ele>
        <time>2026-05-14T15:23:11+02:00</time>
      </trkpt>
      <trkpt lat="47.0354" lon="5.14893">
        <ele>179.7002</ele>
        <time>2026-05-14T15:23:12+02:00</time>
      </trkpt>
      <trkpt lat="47.03547" lon="5.14892">
        <ele>179.60059</ele>
        <time>2026-05-14T15:23:13+02:00</time>
      </trkpt>
      <trkpt lat="47.03554" lon="5.14891">
        <ele>179.5</ele>
        <time>2026-05-14T15:23:14+02:00</time>
      </trkpt>
      <trkpt lat="47.03562" lon="5.14891">
        <ele>179.2998</ele>
        <time>2026-05-14T15:23:15+02:00</time>
      </trkpt>
      <trkpt lat="47.03568" lon="5.1489">
        <ele>179.2002</ele>
        <time>2026-05-14T15:23:16+02:00</time>
      </trkpt>
      <trkpt lat="47.03576" lon="5.1489">
        <ele>179.10059</ele>
        <time>2026-05-14T15:23:17+02:00</time>
      </trkpt>
      <trkpt lat="47.03582" lon="5.1489">
        <ele>179</ele>
        <time>2026-05-14T15:23:18+02:00</time>
      </trkpt>
      <trkpt lat="47.03589" lon="5.14889">
        <ele>178.90039</ele>
        <time>2026-05-14T15:23:19+02:00</time>
      </trkpt>
      <trkpt lat="47.03595" lon="5.14889">
        <ele>178.7998</ele>
        <time>2026-05-14T15:23:20+02:00</time>
      </trkpt>
      <trkpt lat="47.03602" lon="5.14889">
        <ele>178.7998</ele>
        <time>2026-05-14T15:23:21+02:00</time>
      </trkpt>
      <trkpt lat="47.03609" lon="5.14889">
        <ele>178.7002</ele>
        <time>2026-05-14T15:23:22+02:00</time>
      </trkpt>
      <trkpt lat="47.03615" lon="5.1489">
        <ele>178.7998</ele>
        <time>2026-05-14T15:23:23+02:00</time>
      </trkpt>
      <trkpt lat="47.03622" lon="5.1489">
        <ele>178.7998</ele>
        <time>2026-05-14T15:23:24+02:00</time>
      </trkpt>
      <trkpt lat="47.03629" lon="5.14891">
        <ele>178.7998</ele>
        <time>2026-05-14T15:23:25+02:00</time>
      </trkpt>
      <trkpt lat="47.03635" lon="5.14892">
        <ele>178.7998</ele>
        <time>2026-05-14T15:23:26+02:00</time>
      </trkpt>
      <trkpt lat="47.03642" lon="5.14894">
        <ele>178.7002</ele>
        <time>2026-05-14T15:23:27+02:00</time>
      </trkpt>
      <trkpt lat="47.03649" lon="5.14895">
        <ele>178.7002</ele>
        <time>2026-05-14T15:23:28+02:00</time>
      </trkpt>
      <trkpt lat="47.03656" lon="5.14897">
        <ele>178.7002</ele>
        <time>2026-05-14T15:23:29+02:00</time>
      </trkpt>
      <trkpt lat="47.03662" lon="5.14898">
        <ele>178.7002</ele>
        <time>2026-05-14T15:23:30+02:00</time>
      </trkpt>
      <trkpt lat="47.03669" lon="5.149">
        <ele>178.7998</ele>
        <time>2026-05-14T15:23:31+02:00</time>
      </trkpt>
      <trkpt lat="47.03676" lon="5.14902">
        <ele>178.7002</ele>
        <time>2026-05-14T15:23:32+02:00</time>
      </trkpt>
      <trkpt lat="47.03682" lon="5.14903">
        <ele>178.7002</ele>
        <time>2026-05-14T15:23:33+02:00</time>
      </trkpt>
      <trkpt lat="47.03689" lon="5.14905">
        <ele>178.7002</ele>
        <time>2026-05-14T15:23:34+02:00</time>
      </trkpt>
      <trkpt lat="47.03696" lon="5.14907">
        <ele>178.7002</ele>
        <time>2026-05-14T15:23:35+02:00</time>
      </trkpt>
      <trkpt lat="47.03703" lon="5.14908">
        <ele>178.60059</ele>
        <time>2026-05-14T15:23:36+02:00</time>
      </trkpt>
      <trkpt lat="47.03709" lon="5.1491">
        <ele>178.60059</ele>
        <time>2026-05-14T15:23:37+02:00</time>
      </trkpt>
      <trkpt lat="47.03716" lon="5.14912">
        <ele>178.5</ele>
        <time>2026-05-14T15:23:38+02:00</time>
      </trkpt>
      <trkpt lat="47.03723" lon="5.14914">
        <ele>178.5</ele>
        <time>2026-05-14T15:23:39+02:00</time>
      </trkpt>
      <trkpt lat="47.03729" lon="5.14916">
        <ele>178.5</ele>
        <time>2026-05-14T15:23:40+02:00</time>
      </trkpt>
      <trkpt lat="47.03735" lon="5.14918">
        <ele>178.60059</ele>
        <time>2026-05-14T15:23:41+02:00</time>
      </trkpt>
      <trkpt lat="47.03742" lon="5.1492">
        <ele>178.60059</ele>
        <time>2026-05-14T15:23:42+02:00</time>
      </trkpt>
      <trkpt lat="47.03748" lon="5.14922">
        <ele>178.60059</ele>
        <time>2026-05-14T15:23:43+02:00</time>
      </trkpt>
      <trkpt lat="47.03755" lon="5.14924">
        <ele>178.7002</ele>
        <time>2026-05-14T15:23:44+02:00</time>
      </trkpt>
      <trkpt lat="47.03761" lon="5.14927">
        <ele>178.7998</ele>
        <time>2026-05-14T15:23:45+02:00</time>
      </trkpt>
      <trkpt lat="47.03768" lon="5.14929">
        <ele>178.90039</ele>
        <time>2026-05-14T15:23:46+02:00</time>
      </trkpt>
      <trkpt lat="47.03774" lon="5.14932">
        <ele>179</ele>
        <time>2026-05-14T15:23:47+02:00</time>
      </trkpt>
      <trkpt lat="47.0378" lon="5.14935">
        <ele>179.2002</ele>
        <time>2026-05-14T15:23:48+02:00</time>
      </trkpt>
      <trkpt lat="47.03787" lon="5.14938">
        <ele>179.2998</ele>
        <time>2026-05-14T15:23:49+02:00</time>
      </trkpt>
      <trkpt lat="47.03793" lon="5.14941">
        <ele>179.5</ele>
        <time>2026-05-14T15:23:50+02:00</time>
      </trkpt>
      <trkpt lat="47.038" lon="5.14943">
        <ele>179.60059</ele>
        <time>2026-05-14T15:23:51+02:00</time>
      </trkpt>
      <trkpt lat="47.03806" lon="5.14945">
        <ele>179.7002</ele>
        <time>2026-05-14T15:23:52+02:00</time>
      </trkpt>
      <trkpt lat="47.03813" lon="5.14948">
        <ele>179.7998</ele>
        <time>2026-05-14T15:23:53+02:00</time>
      </trkpt>
      <trkpt lat="47.03819" lon="5.14951">
        <ele>180</ele>
        <time>2026-05-14T15:23:54+02:00</time>
      </trkpt>
      <trkpt lat="47.03826" lon="5.14953">
        <ele>180.2002</ele>
        <time>2026-05-14T15:23:55+02:00</time>
      </trkpt>
      <trkpt lat="47.03832" lon="5.14954">
        <ele>180.2002</ele>
        <time>2026-05-14T15:23:56+02:00</time>
      </trkpt>
      <trkpt lat="47.03838" lon="5.14955">
        <ele>180.2998</ele>
        <time>2026-05-14T15:23:57+02:00</time>
      </trkpt>
      <trkpt lat="47.03845" lon="5.14956">
        <ele>180.40039</ele>
        <time>2026-05-14T15:23:58+02:00</time>
      </trkpt>
      <trkpt lat="47.03851" lon="5.14957">
        <ele>180.5</ele>
        <time>2026-05-14T15:23:59+02:00</time>
      </trkpt>
      <trkpt lat="47.03858" lon="5.14957">
        <ele>180.60059</ele>
        <time>2026-05-14T15:24:00+02:00</time>
      </trkpt>
      <trkpt lat="47.03864" lon="5.14956">
        <ele>180.60059</ele>
        <time>2026-05-14T15:24:01+02:00</time>
      </trkpt>
      <trkpt lat="47.0387" lon="5.14955">
        <ele>180.7002</ele>
        <time>2026-05-14T15:24:02+02:00</time>
      </trkpt>
      <trkpt lat="47.03877" lon="5.14954">
        <ele>180.7998</ele>
        <time>2026-05-14T15:24:03+02:00</time>
      </trkpt>
      <trkpt lat="47.03883" lon="5.14952">
        <ele>180.90039</ele>
        <time>2026-05-14T15:24:04+02:00</time>
      </trkpt>
      <trkpt lat="47.03889" lon="5.14951">
        <ele>180.90039</ele>
        <time>2026-05-14T15:24:05+02:00</time>
      </trkpt>
      <trkpt lat="47.03895" lon="5.1495">
        <ele>181</ele>
        <time>2026-05-14T15:24:06+02:00</time>
      </trkpt>
      <trkpt lat="47.03901" lon="5.14948">
        <ele>181.2002</ele>
        <time>2026-05-14T15:24:07+02:00</time>
      </trkpt>
      <trkpt lat="47.03906" lon="5.14945">
        <ele>181.2998</ele>
        <time>2026-05-14T15:24:08+02:00</time>
      </trkpt>
      <trkpt lat="47.03911" lon="5.14942">
        <ele>181.40039</ele>
        <time>2026-05-14T15:24:09+02:00</time>
      </trkpt>
      <trkpt lat="47.03914" lon="5.14938">
        <ele>181.5</ele>
        <time>2026-05-14T15:24:10+02:00</time>
      </trkpt>
      <trkpt lat="47.03917" lon="5.14933">
        <ele>181.5</ele>
        <time>2026-05-14T15:24:11+02:00</time>
      </trkpt>
      <trkpt lat="47.03921" lon="5.14928">
        <ele>181.60059</ele>
        <time>2026-05-14T15:24:12+02:00</time>
      </trkpt>
      <trkpt lat="47.03924" lon="5.14924">
        <ele>181.60059</ele>
        <time>2026-05-14T15:24:13+02:00</time>
      </trkpt>
      <trkpt lat="47.03929" lon="5.14921">
        <ele>181.7002</ele>
        <time>2026-05-14T15:24:14+02:00</time>
      </trkpt>
      <trkpt lat="47.03933" lon="5.14917">
        <ele>181.7002</ele>
        <time>2026-05-14T15:24:15+02:00</time>
      </trkpt>
      <trkpt lat="47.03938" lon="5.14914">
        <ele>181.60059</ele>
        <time>2026-05-14T15:24:16+02:00</time>
      </trkpt>
      <trkpt lat="47.03942" lon="5.14912">
        <ele>181.60059</ele>
        <time>2026-05-14T15:24:17+02:00</time>
      </trkpt>
      <trkpt lat="47.03948" lon="5.14909">
        <ele>181.5</ele>
        <time>2026-05-14T15:24:18+02:00</time>
      </trkpt>
      <trkpt lat="47.03953" lon="5.14906">
        <ele>181.2998</ele>
        <time>2026-05-14T15:24:19+02:00</time>
      </trkpt>
      <trkpt lat="47.03958" lon="5.14903">
        <ele>181.2998</ele>
        <time>2026-05-14T15:24:20+02:00</time>
      </trkpt>
      <trkpt lat="47.03964" lon="5.149">
        <ele>181.2002</ele>
        <time>2026-05-14T15:24:21+02:00</time>
      </trkpt>
      <trkpt lat="47.03969" lon="5.14896">
        <ele>180.90039</ele>
        <time>2026-05-14T15:24:22+02:00</time>
      </trkpt>
      <trkpt lat="47.03974" lon="5.14893">
        <ele>180.7998</ele>
        <time>2026-05-14T15:24:23+02:00</time>
      </trkpt>
      <trkpt lat="47.03979" lon="5.14891">
        <ele>180.7002</ele>
        <time>2026-05-14T15:24:24+02:00</time>
      </trkpt>
      <trkpt lat="47.03984" lon="5.14888">
        <ele>180.40039</ele>
        <time>2026-05-14T15:24:25+02:00</time>
      </trkpt>
      <trkpt lat="47.03989" lon="5.14885">
        <ele>180.2998</ele>
        <time>2026-05-14T15:24:26+02:00</time>
      </trkpt>
      <trkpt lat="47.03994" lon="5.14882">
        <ele>180.2998</ele>
        <time>2026-05-14T15:24:27+02:00</time>
      </trkpt>
      <trkpt lat="47.03999" lon="5.1488">
        <ele>180</ele>
        <time>2026-05-14T15:24:28+02:00</time>
      </trkpt>
      <trkpt lat="47.04004" lon="5.14878">
        <ele>179.90039</ele>
        <time>2026-05-14T15:24:29+02:00</time>
      </trkpt>
      <trkpt lat="47.0401" lon="5.14875">
        <ele>179.90039</ele>
        <time>2026-05-14T15:24:30+02:00</time>
      </trkpt>
      <trkpt lat="47.04015" lon="5.14873">
        <ele>179.7998</ele>
        <time>2026-05-14T15:24:31+02:00</time>
      </trkpt>
      <trkpt lat="47.0402" lon="5.1487">
        <ele>179.40039</ele>
        <time>2026-05-14T15:24:32+02:00</time>
      </trkpt>
      <trkpt lat="47.04026" lon="5.14869">
        <ele>179.2998</ele>
        <time>2026-05-14T15:24:33+02:00</time>
      </trkpt>
      <trkpt lat="47.04032" lon="5.14867">
        <ele>179.2998</ele>
        <time>2026-05-14T15:24:34+02:00</time>
      </trkpt>
      <trkpt lat="47.04038" lon="5.14865">
        <ele>179.2002</ele>
        <time>2026-05-14T15:24:35+02:00</time>
      </trkpt>
      <trkpt lat="47.04044" lon="5.14863">
        <ele>178.90039</ele>
        <time>2026-05-14T15:24:36+02:00</time>
      </trkpt>
      <trkpt lat="47.04051" lon="5.14861">
        <ele>178.7998</ele>
        <time>2026-05-14T15:24:37+02:00</time>
      </trkpt>
      <trkpt lat="47.04057" lon="5.14859">
        <ele>178.7998</ele>
        <time>2026-05-14T15:24:38+02:00</time>
      </trkpt>
      <trkpt lat="47.04064" lon="5.14858">
        <ele>178.7002</ele>
        <time>2026-05-14T15:24:39+02:00</time>
      </trkpt>
      <trkpt lat="47.0407" lon="5.14856">
        <ele>178.7002</ele>
        <time>2026-05-14T15:24:40+02:00</time>
      </trkpt>
      <trkpt lat="47.04077" lon="5.14854">
        <ele>178.5</ele>
        <time>2026-05-14T15:24:41+02:00</time>
      </trkpt>
      <trkpt lat="47.04083" lon="5.14853">
        <ele>178.5</ele>
        <time>2026-05-14T15:24:42+02:00</time>
      </trkpt>
      <trkpt lat="47.0409" lon="5.14851">
        <ele>178.40039</ele>
        <time>2026-05-14T15:24:43+02:00</time>
      </trkpt>
      <trkpt lat="47.04096" lon="5.14849">
        <ele>178.40039</ele>
        <time>2026-05-14T15:24:44+02:00</time>
      </trkpt>
      <trkpt lat="47.04102" lon="5.14848">
        <ele>178.40039</ele>
        <time>2026-05-14T15:24:45+02:00</time>
      </trkpt>
      <trkpt lat="47.04109" lon="5.14846">
        <ele>178.2998</ele>
        <time>2026-05-14T15:24:46+02:00</time>
      </trkpt>
      <trkpt lat="47.04115" lon="5.14845">
        <ele>178.2998</ele>
        <time>2026-05-14T15:24:47+02:00</time>
      </trkpt>
      <trkpt lat="47.04122" lon="5.14844">
        <ele>178.2998</ele>
        <time>2026-05-14T15:24:48+02:00</time>
      </trkpt>
      <trkpt lat="47.04128" lon="5.14842">
        <ele>178.2998</ele>
        <time>2026-05-14T15:24:49+02:00</time>
      </trkpt>
      <trkpt lat="47.04134" lon="5.14841">
        <ele>178.2998</ele>
        <time>2026-05-14T15:24:50+02:00</time>
      </trkpt>
      <trkpt lat="47.0414" lon="5.1484">
        <ele>178.2998</ele>
        <time>2026-05-14T15:24:51+02:00</time>
      </trkpt>
      <trkpt lat="47.04146" lon="5.14838">
        <ele>178.2998</ele>
        <time>2026-05-14T15:24:52+02:00</time>
      </trkpt>
      <trkpt lat="47.04152" lon="5.14837">
        <ele>178.40039</ele>
        <time>2026-05-14T15:24:53+02:00</time>
      </trkpt>
      <trkpt lat="47.04159" lon="5.14836">
        <ele>178.5</ele>
        <time>2026-05-14T15:24:54+02:00</time>
      </trkpt>
      <trkpt lat="47.04165" lon="5.14834">
        <ele>178.5</ele>
        <time>2026-05-14T15:24:55+02:00</time>
      </trkpt>
      <trkpt lat="47.04172" lon="5.14833">
        <ele>178.60059</ele>
        <time>2026-05-14T15:24:56+02:00</time>
      </trkpt>
      <trkpt lat="47.04178" lon="5.14831">
        <ele>178.7002</ele>
        <time>2026-05-14T15:24:57+02:00</time>
      </trkpt>
      <trkpt lat="47.04184" lon="5.14829">
        <ele>178.7998</ele>
        <time>2026-05-14T15:24:58+02:00</time>
      </trkpt>
      <trkpt lat="47.0419" lon="5.14828">
        <ele>179</ele>
        <time>2026-05-14T15:24:59+02:00</time>
      </trkpt>
      <trkpt lat="47.04197" lon="5.14826">
        <ele>179.10059</ele>
        <time>2026-05-14T15:25:00+02:00</time>
      </trkpt>
      <trkpt lat="47.04203" lon="5.14824">
        <ele>179.2002</ele>
        <time>2026-05-14T15:25:01+02:00</time>
      </trkpt>
      <trkpt lat="47.04209" lon="5.14822">
        <ele>179.2998</ele>
        <time>2026-05-14T15:25:02+02:00</time>
      </trkpt>
      <trkpt lat="47.04216" lon="5.1482">
        <ele>179.40039</ele>
        <time>2026-05-14T15:25:03+02:00</time>
      </trkpt>
      <trkpt lat="47.04222" lon="5.14817">
        <ele>179.5</ele>
        <time>2026-05-14T15:25:04+02:00</time>
      </trkpt>
      <trkpt lat="47.04228" lon="5.14815">
        <ele>179.60059</ele>
        <time>2026-05-14T15:25:05+02:00</time>
      </trkpt>
      <trkpt lat="47.04235" lon="5.14812">
        <ele>179.7002</ele>
        <time>2026-05-14T15:25:06+02:00</time>
      </trkpt>
      <trkpt lat="47.04241" lon="5.14809">
        <ele>179.7998</ele>
        <time>2026-05-14T15:25:07+02:00</time>
      </trkpt>
      <trkpt lat="47.04247" lon="5.14806">
        <ele>179.7998</ele>
        <time>2026-05-14T15:25:08+02:00</time>
      </trkpt>
      <trkpt lat="47.04253" lon="5.14803">
        <ele>179.7998</ele>
        <time>2026-05-14T15:25:09+02:00</time>
      </trkpt>
      <trkpt lat="47.04259" lon="5.14799">
        <ele>179.7998</ele>
        <time>2026-05-14T15:25:10+02:00</time>
      </trkpt>
      <trkpt lat="47.04264" lon="5.14796">
        <ele>179.7998</ele>
        <time>2026-05-14T15:25:11+02:00</time>
      </trkpt>
      <trkpt lat="47.0427" lon="5.14793">
        <ele>179.7002</ele>
        <time>2026-05-14T15:25:12+02:00</time>
      </trkpt>
      <trkpt lat="47.04275" lon="5.1479">
        <ele>179.7002</ele>
        <time>2026-05-14T15:25:13+02:00</time>
      </trkpt>
      <trkpt lat="47.04281" lon="5.14786">
        <ele>179.60059</ele>
        <time>2026-05-14T15:25:14+02:00</time>
      </trkpt>
      <trkpt lat="47.04286" lon="5.14783">
        <ele>179.60059</ele>
        <time>2026-05-14T15:25:15+02:00</time>
      </trkpt>
      <trkpt lat="47.04291" lon="5.14779">
        <ele>179.60059</ele>
        <time>2026-05-14T15:25:16+02:00</time>
      </trkpt>
      <trkpt lat="47.04297" lon="5.14775">
        <ele>179.5</ele>
        <time>2026-05-14T15:25:17+02:00</time>
      </trkpt>
      <trkpt lat="47.04303" lon="5.14772">
        <ele>179.5</ele>
        <time>2026-05-14T15:25:18+02:00</time>
      </trkpt>
      <trkpt lat="47.04309" lon="5.14768">
        <ele>179.5</ele>
        <time>2026-05-14T15:25:19+02:00</time>
      </trkpt>
      <trkpt lat="47.04315" lon="5.14764">
        <ele>179.5</ele>
        <time>2026-05-14T15:25:20+02:00</time>
      </trkpt>
      <trkpt lat="47.04321" lon="5.14761">
        <ele>179.5</ele>
        <time>2026-05-14T15:25:21+02:00</time>
      </trkpt>
      <trkpt lat="47.04327" lon="5.14757">
        <ele>179.5</ele>
        <time>2026-05-14T15:25:22+02:00</time>
      </trkpt>
      <trkpt lat="47.04332" lon="5.14753">
        <ele>179.60059</ele>
        <time>2026-05-14T15:25:23+02:00</time>
      </trkpt>
      <trkpt lat="47.04338" lon="5.14749">
        <ele>179.7002</ele>
        <time>2026-05-14T15:25:24+02:00</time>
      </trkpt>
      <trkpt lat="47.04344" lon="5.14746">
        <ele>179.7998</ele>
        <time>2026-05-14T15:25:25+02:00</time>
      </trkpt>
      <trkpt lat="47.04349" lon="5.14743">
        <ele>179.90039</ele>
        <time>2026-05-14T15:25:26+02:00</time>
      </trkpt>
      <trkpt lat="47.04354" lon="5.14739">
        <ele>180</ele>
        <time>2026-05-14T15:25:27+02:00</time>
      </trkpt>
      <trkpt lat="47.04359" lon="5.14735">
        <ele>180.2002</ele>
        <time>2026-05-14T15:25:28+02:00</time>
      </trkpt>
      <trkpt lat="47.04365" lon="5.14731">
        <ele>180.2998</ele>
        <time>2026-05-14T15:25:29+02:00</time>
      </trkpt>
      <trkpt lat="47.0437" lon="5.14728">
        <ele>180.40039</ele>
        <time>2026-05-14T15:25:30+02:00</time>
      </trkpt>
      <trkpt lat="47.04376" lon="5.14724">
        <ele>180.60059</ele>
        <time>2026-05-14T15:25:31+02:00</time>
      </trkpt>
      <trkpt lat="47.04381" lon="5.1472">
        <ele>180.7002</ele>
        <time>2026-05-14T15:25:32+02:00</time>
      </trkpt>
      <trkpt lat="47.04386" lon="5.14716">
        <ele>180.7998</ele>
        <time>2026-05-14T15:25:33+02:00</time>
      </trkpt>
      <trkpt lat="47.04392" lon="5.14712">
        <ele>180.90039</ele>
        <time>2026-05-14T15:25:34+02:00</time>
      </trkpt>
      <trkpt lat="47.04397" lon="5.14708">
        <ele>181</ele>
        <time>2026-05-14T15:25:35+02:00</time>
      </trkpt>
      <trkpt lat="47.04402" lon="5.14704">
        <ele>181.10059</ele>
        <time>2026-05-14T15:25:36+02:00</time>
      </trkpt>
      <trkpt lat="47.04408" lon="5.14701">
        <ele>181.10059</ele>
        <time>2026-05-14T15:25:37+02:00</time>
      </trkpt>
      <trkpt lat="47.04414" lon="5.14697">
        <ele>181.2002</ele>
        <time>2026-05-14T15:25:38+02:00</time>
      </trkpt>
      <trkpt lat="47.04419" lon="5.14694">
        <ele>181.2998</ele>
        <time>2026-05-14T15:25:39+02:00</time>
      </trkpt>
      <trkpt lat="47.04426" lon="5.14691">
        <ele>181.40039</ele>
        <time>2026-05-14T15:25:40+02:00</time>
      </trkpt>
      <trkpt lat="47.04432" lon="5.14688">
        <ele>181.5</ele>
        <time>2026-05-14T15:25:41+02:00</time>
      </trkpt>
      <trkpt lat="47.04438" lon="5.14686">
        <ele>181.5</ele>
        <time>2026-05-14T15:25:42+02:00</time>
      </trkpt>
      <trkpt lat="47.04444" lon="5.14684">
        <ele>181.60059</ele>
        <time>2026-05-14T15:25:43+02:00</time>
      </trkpt>
      <trkpt lat="47.04451" lon="5.14682">
        <ele>181.7998</ele>
        <time>2026-05-14T15:25:44+02:00</time>
      </trkpt>
      <trkpt lat="47.04457" lon="5.1468">
        <ele>182.10059</ele>
        <time>2026-05-14T15:25:45+02:00</time>
      </trkpt>
      <trkpt lat="47.04463" lon="5.14678">
        <ele>182.2002</ele>
        <time>2026-05-14T15:25:46+02:00</time>
      </trkpt>
      <trkpt lat="47.0447" lon="5.14676">
        <ele>182.2998</ele>
        <time>2026-05-14T15:25:47+02:00</time>
      </trkpt>
      <trkpt lat="47.04476" lon="5.14673">
        <ele>182.60059</ele>
        <time>2026-05-14T15:25:48+02:00</time>
      </trkpt>
      <trkpt lat="47.04482" lon="5.14671">
        <ele>182.7998</ele>
        <time>2026-05-14T15:25:49+02:00</time>
      </trkpt>
      <trkpt lat="47.04489" lon="5.14668">
        <ele>182.90039</ele>
        <time>2026-05-14T15:25:50+02:00</time>
      </trkpt>
      <trkpt lat="47.04495" lon="5.14666">
        <ele>183.2002</ele>
        <time>2026-05-14T15:25:51+02:00</time>
      </trkpt>
      <trkpt lat="47.04501" lon="5.14663">
        <ele>183.2998</ele>
        <time>2026-05-14T15:25:52+02:00</time>
      </trkpt>
      <trkpt lat="47.04507" lon="5.1466">
        <ele>183.40039</ele>
        <time>2026-05-14T15:25:53+02:00</time>
      </trkpt>
      <trkpt lat="47.04513" lon="5.14658">
        <ele>183.5</ele>
        <time>2026-05-14T15:25:54+02:00</time>
      </trkpt>
      <trkpt lat="47.04519" lon="5.14655">
        <ele>183.7002</ele>
        <time>2026-05-14T15:25:55+02:00</time>
      </trkpt>
      <trkpt lat="47.04525" lon="5.14652">
        <ele>183.7002</ele>
        <time>2026-05-14T15:25:56+02:00</time>
      </trkpt>
      <trkpt lat="47.0453" lon="5.14649">
        <ele>183.90039</ele>
        <time>2026-05-14T15:25:57+02:00</time>
      </trkpt>
      <trkpt lat="47.04537" lon="5.14645">
        <ele>184</ele>
        <time>2026-05-14T15:25:58+02:00</time>
      </trkpt>
      <trkpt lat="47.04542" lon="5.14642">
        <ele>184</ele>
        <time>2026-05-14T15:25:59+02:00</time>
      </trkpt>
      <trkpt lat="47.04548" lon="5.14639">
        <ele>184.2002</ele>
        <time>2026-05-14T15:26:00+02:00</time>
      </trkpt>
      <trkpt lat="47.04553" lon="5.14636">
        <ele>184.2002</ele>
        <time>2026-05-14T15:26:01+02:00</time>
      </trkpt>
      <trkpt lat="47.04558" lon="5.14632">
        <ele>184.40039</ele>
        <time>2026-05-14T15:26:02+02:00</time>
      </trkpt>
      <trkpt lat="47.04564" lon="5.14629">
        <ele>184.40039</ele>
        <time>2026-05-14T15:26:03+02:00</time>
      </trkpt>
      <trkpt lat="47.04569" lon="5.14626">
        <ele>184.5</ele>
        <time>2026-05-14T15:26:04+02:00</time>
      </trkpt>
      <trkpt lat="47.04575" lon="5.14623">
        <ele>184.7002</ele>
        <time>2026-05-14T15:26:05+02:00</time>
      </trkpt>
      <trkpt lat="47.04581" lon="5.14619">
        <ele>184.7002</ele>
        <time>2026-05-14T15:26:06+02:00</time>
      </trkpt>
      <trkpt lat="47.04587" lon="5.14616">
        <ele>184.7998</ele>
        <time>2026-05-14T15:26:07+02:00</time>
      </trkpt>
      <trkpt lat="47.04592" lon="5.14612">
        <ele>184.90039</ele>
        <time>2026-05-14T15:26:08+02:00</time>
      </trkpt>
      <trkpt lat="47.04598" lon="5.14609">
        <ele>184.90039</ele>
        <time>2026-05-14T15:26:09+02:00</time>
      </trkpt>
      <trkpt lat="47.04604" lon="5.14606">
        <ele>185</ele>
        <time>2026-05-14T15:26:10+02:00</time>
      </trkpt>
      <trkpt lat="47.0461" lon="5.14602">
        <ele>185.10059</ele>
        <time>2026-05-14T15:26:11+02:00</time>
      </trkpt>
      <trkpt lat="47.04616" lon="5.14599">
        <ele>185.10059</ele>
        <time>2026-05-14T15:26:12+02:00</time>
      </trkpt>
      <trkpt lat="47.04621" lon="5.14596">
        <ele>185.10059</ele>
        <time>2026-05-14T15:26:13+02:00</time>
      </trkpt>
      <trkpt lat="47.04627" lon="5.14592">
        <ele>185.10059</ele>
        <time>2026-05-14T15:26:14+02:00</time>
      </trkpt>
      <trkpt lat="47.04633" lon="5.14589">
        <ele>185.2002</ele>
        <time>2026-05-14T15:26:15+02:00</time>
      </trkpt>
      <trkpt lat="47.04638" lon="5.14586">
        <ele>185.2002</ele>
        <time>2026-05-14T15:26:16+02:00</time>
      </trkpt>
      <trkpt lat="47.04643" lon="5.14583">
        <ele>185.2002</ele>
        <time>2026-05-14T15:26:17+02:00</time>
      </trkpt>
      <trkpt lat="47.04648" lon="5.14579">
        <ele>185.10059</ele>
        <time>2026-05-14T15:26:18+02:00</time>
      </trkpt>
      <trkpt lat="47.04654" lon="5.14576">
        <ele>185.10059</ele>
        <time>2026-05-14T15:26:19+02:00</time>
      </trkpt>
      <trkpt lat="47.04659" lon="5.14573">
        <ele>185.10059</ele>
        <time>2026-05-14T15:26:20+02:00</time>
      </trkpt>
      <trkpt lat="47.04665" lon="5.14569">
        <ele>185.10059</ele>
        <time>2026-05-14T15:26:21+02:00</time>
      </trkpt>
      <trkpt lat="47.04671" lon="5.14566">
        <ele>185.10059</ele>
        <time>2026-05-14T15:26:22+02:00</time>
      </trkpt>
      <trkpt lat="47.04676" lon="5.14562">
        <ele>185</ele>
        <time>2026-05-14T15:26:23+02:00</time>
      </trkpt>
      <trkpt lat="47.04682" lon="5.14558">
        <ele>185</ele>
        <time>2026-05-14T15:26:24+02:00</time>
      </trkpt>
      <trkpt lat="47.04687" lon="5.14555">
        <ele>185</ele>
        <time>2026-05-14T15:26:25+02:00</time>
      </trkpt>
      <trkpt lat="47.04693" lon="5.14552">
        <ele>185</ele>
        <time>2026-05-14T15:26:26+02:00</time>
      </trkpt>
      <trkpt lat="47.04698" lon="5.14548">
        <ele>185</ele>
        <time>2026-05-14T15:26:27+02:00</time>
      </trkpt>
      <trkpt lat="47.04704" lon="5.14545">
        <ele>185</ele>
        <time>2026-05-14T15:26:28+02:00</time>
      </trkpt>
      <trkpt lat="47.04709" lon="5.14542">
        <ele>185</ele>
        <time>2026-05-14T15:26:29+02:00</time>
      </trkpt>
      <trkpt lat="47.04715" lon="5.14539">
        <ele>185.10059</ele>
        <time>2026-05-14T15:26:30+02:00</time>
      </trkpt>
      <trkpt lat="47.0472" lon="5.14536">
        <ele>185</ele>
        <time>2026-05-14T15:26:31+02:00</time>
      </trkpt>
      <trkpt lat="47.04727" lon="5.14533">
        <ele>185.10059</ele>
        <time>2026-05-14T15:26:32+02:00</time>
      </trkpt>
      <trkpt lat="47.04732" lon="5.1453">
        <ele>185.10059</ele>
        <time>2026-05-14T15:26:33+02:00</time>
      </trkpt>
      <trkpt lat="47.04738" lon="5.14527">
        <ele>185.10059</ele>
        <time>2026-05-14T15:26:34+02:00</time>
      </trkpt>
      <trkpt lat="47.04744" lon="5.14524">
        <ele>185.2002</ele>
        <time>2026-05-14T15:26:35+02:00</time>
      </trkpt>
      <trkpt lat="47.0475" lon="5.14521">
        <ele>185.2002</ele>
        <time>2026-05-14T15:26:36+02:00</time>
      </trkpt>
      <trkpt lat="47.04756" lon="5.14519">
        <ele>185.2002</ele>
        <time>2026-05-14T15:26:37+02:00</time>
      </trkpt>
      <trkpt lat="47.04762" lon="5.14516">
        <ele>185.2002</ele>
        <time>2026-05-14T15:26:38+02:00</time>
      </trkpt>
      <trkpt lat="47.04768" lon="5.14513">
        <ele>185.2002</ele>
        <time>2026-05-14T15:26:39+02:00</time>
      </trkpt>
      <trkpt lat="47.04773" lon="5.1451">
        <ele>185.2002</ele>
        <time>2026-05-14T15:26:40+02:00</time>
      </trkpt>
      <trkpt lat="47.04779" lon="5.14508">
        <ele>185.2002</ele>
        <time>2026-05-14T15:26:41+02:00</time>
      </trkpt>
      <trkpt lat="47.04785" lon="5.14505">
        <ele>185.2002</ele>
        <time>2026-05-14T15:26:42+02:00</time>
      </trkpt>
      <trkpt lat="47.0479" lon="5.14503">
        <ele>185.10059</ele>
        <time>2026-05-14T15:26:43+02:00</time>
      </trkpt>
      <trkpt lat="47.04795" lon="5.145">
        <ele>185</ele>
        <time>2026-05-14T15:26:44+02:00</time>
      </trkpt>
      <trkpt lat="47.048" lon="5.14498">
        <ele>184.90039</ele>
        <time>2026-05-14T15:26:45+02:00</time>
      </trkpt>
      <trkpt lat="47.04805" lon="5.14496">
        <ele>184.7998</ele>
        <time>2026-05-14T15:26:46+02:00</time>
      </trkpt>
      <trkpt lat="47.0481" lon="5.14493">
        <ele>184.2998</ele>
        <time>2026-05-14T15:26:47+02:00</time>
      </trkpt>
      <trkpt lat="47.04816" lon="5.14491">
        <ele>184.10059</ele>
        <time>2026-05-14T15:26:48+02:00</time>
      </trkpt>
      <trkpt lat="47.04822" lon="5.14489">
        <ele>183.7998</ele>
        <time>2026-05-14T15:26:49+02:00</time>
      </trkpt>
      <trkpt lat="47.04827" lon="5.14486">
        <ele>183.2998</ele>
        <time>2026-05-14T15:26:50+02:00</time>
      </trkpt>
      <trkpt lat="47.04833" lon="5.14484">
        <ele>183.10059</ele>
        <time>2026-05-14T15:26:51+02:00</time>
      </trkpt>
      <trkpt lat="47.04839" lon="5.14481">
        <ele>182.90039</ele>
        <time>2026-05-14T15:26:52+02:00</time>
      </trkpt>
      <trkpt lat="47.04844" lon="5.14479">
        <ele>182.7002</ele>
        <time>2026-05-14T15:26:53+02:00</time>
      </trkpt>
      <trkpt lat="47.0485" lon="5.14476">
        <ele>182.2998</ele>
        <time>2026-05-14T15:26:54+02:00</time>
      </trkpt>
      <trkpt lat="47.04857" lon="5.14473">
        <ele>182.10059</ele>
        <time>2026-05-14T15:26:55+02:00</time>
      </trkpt>
      <trkpt lat="47.04863" lon="5.1447">
        <ele>182</ele>
        <time>2026-05-14T15:26:56+02:00</time>
      </trkpt>
      <trkpt lat="47.0487" lon="5.14467">
        <ele>181.7002</ele>
        <time>2026-05-14T15:26:57+02:00</time>
      </trkpt>
      <trkpt lat="47.04876" lon="5.14464">
        <ele>181.60059</ele>
        <time>2026-05-14T15:26:58+02:00</time>
      </trkpt>
      <trkpt lat="47.04883" lon="5.14461">
        <ele>181.5</ele>
        <time>2026-05-14T15:26:59+02:00</time>
      </trkpt>
      <trkpt lat="47.04889" lon="5.14459">
        <ele>181.2002</ele>
        <time>2026-05-14T15:27:00+02:00</time>
      </trkpt>
      <trkpt lat="47.04896" lon="5.14456">
        <ele>181</ele>
        <time>2026-05-14T15:27:01+02:00</time>
      </trkpt>
      <trkpt lat="47.04901" lon="5.14454">
        <ele>181</ele>
        <time>2026-05-14T15:27:02+02:00</time>
      </trkpt>
      <trkpt lat="47.04907" lon="5.14451">
        <ele>180.7002</ele>
        <time>2026-05-14T15:27:03+02:00</time>
      </trkpt>
      <trkpt lat="47.04913" lon="5.14449">
        <ele>180.60059</ele>
        <time>2026-05-14T15:27:04+02:00</time>
      </trkpt>
      <trkpt lat="47.04919" lon="5.14446">
        <ele>180.40039</ele>
        <time>2026-05-14T15:27:05+02:00</time>
      </trkpt>
      <trkpt lat="47.04925" lon="5.14443">
        <ele>180</ele>
        <time>2026-05-14T15:27:06+02:00</time>
      </trkpt>
      <trkpt lat="47.0493" lon="5.14441">
        <ele>180</ele>
        <time>2026-05-14T15:27:07+02:00</time>
      </trkpt>
      <trkpt lat="47.04936" lon="5.14438">
        <ele>180</ele>
        <time>2026-05-14T15:27:08+02:00</time>
      </trkpt>
      <trkpt lat="47.04942" lon="5.14435">
        <ele>179.90039</ele>
        <time>2026-05-14T15:27:09+02:00</time>
      </trkpt>
      <trkpt lat="47.04948" lon="5.14432">
        <ele>179.7002</ele>
        <time>2026-05-14T15:27:10+02:00</time>
      </trkpt>
      <trkpt lat="47.04954" lon="5.14429">
        <ele>179.7002</ele>
        <time>2026-05-14T15:27:11+02:00</time>
      </trkpt>
      <trkpt lat="47.0496" lon="5.14426">
        <ele>179.5</ele>
        <time>2026-05-14T15:27:12+02:00</time>
      </trkpt>
      <trkpt lat="47.04966" lon="5.14423">
        <ele>179.5</ele>
        <time>2026-05-14T15:27:13+02:00</time>
      </trkpt>
      <trkpt lat="47.04972" lon="5.14421">
        <ele>179.5</ele>
        <time>2026-05-14T15:27:14+02:00</time>
      </trkpt>
      <trkpt lat="47.04978" lon="5.14418">
        <ele>179.5</ele>
        <time>2026-05-14T15:27:15+02:00</time>
      </trkpt>
      <trkpt lat="47.04984" lon="5.14416">
        <ele>179.40039</ele>
        <time>2026-05-14T15:27:16+02:00</time>
      </trkpt>
      <trkpt lat="47.0499" lon="5.14414">
        <ele>179.40039</ele>
        <time>2026-05-14T15:27:17+02:00</time>
      </trkpt>
      <trkpt lat="47.04996" lon="5.14412">
        <ele>179.40039</ele>
        <time>2026-05-14T15:27:18+02:00</time>
      </trkpt>
      <trkpt lat="47.05002" lon="5.1441">
        <ele>179.40039</ele>
        <time>2026-05-14T15:27:19+02:00</time>
      </trkpt>
      <trkpt lat="47.05008" lon="5.14408">
        <ele>179.2998</ele>
        <time>2026-05-14T15:27:20+02:00</time>
      </trkpt>
      <trkpt lat="47.05014" lon="5.14407">
        <ele>179.2998</ele>
        <time>2026-05-14T15:27:21+02:00</time>
      </trkpt>
      <trkpt lat="47.0502" lon="5.14405">
        <ele>179.2002</ele>
        <time>2026-05-14T15:27:22+02:00</time>
      </trkpt>
      <trkpt lat="47.05026" lon="5.14404">
        <ele>179.2002</ele>
        <time>2026-05-14T15:27:23+02:00</time>
      </trkpt>
      <trkpt lat="47.05032" lon="5.14403">
        <ele>179.2002</ele>
        <time>2026-05-14T15:27:24+02:00</time>
      </trkpt>
      <trkpt lat="47.05039" lon="5.14402">
        <ele>179.2002</ele>
        <time>2026-05-14T15:27:25+02:00</time>
      </trkpt>
      <trkpt lat="47.05045" lon="5.14401">
        <ele>179.2002</ele>
        <time>2026-05-14T15:27:26+02:00</time>
      </trkpt>
      <trkpt lat="47.05051" lon="5.144">
        <ele>179.10059</ele>
        <time>2026-05-14T15:27:27+02:00</time>
      </trkpt>
      <trkpt lat="47.05057" lon="5.14398">
        <ele>179.10059</ele>
        <time>2026-05-14T15:27:28+02:00</time>
      </trkpt>
      <trkpt lat="47.05063" lon="5.14397">
        <ele>179</ele>
        <time>2026-05-14T15:27:29+02:00</time>
      </trkpt>
      <trkpt lat="47.05069" lon="5.14396">
        <ele>179</ele>
        <time>2026-05-14T15:27:30+02:00</time>
      </trkpt>
      <trkpt lat="47.05075" lon="5.14396">
        <ele>179</ele>
        <time>2026-05-14T15:27:31+02:00</time>
      </trkpt>
      <trkpt lat="47.05081" lon="5.14394">
        <ele>179</ele>
        <time>2026-05-14T15:27:32+02:00</time>
      </trkpt>
      <trkpt lat="47.05087" lon="5.14393">
        <ele>179</ele>
        <time>2026-05-14T15:27:33+02:00</time>
      </trkpt>
      <trkpt lat="47.05094" lon="5.14392">
        <ele>179</ele>
        <time>2026-05-14T15:27:34+02:00</time>
      </trkpt>
      <trkpt lat="47.05099" lon="5.14391">
        <ele>178.90039</ele>
        <time>2026-05-14T15:27:35+02:00</time>
      </trkpt>
      <trkpt lat="47.05105" lon="5.1439">
        <ele>178.90039</ele>
        <time>2026-05-14T15:27:36+02:00</time>
      </trkpt>
      <trkpt lat="47.05111" lon="5.1439">
        <ele>178.90039</ele>
        <time>2026-05-14T15:27:37+02:00</time>
      </trkpt>
      <trkpt lat="47.05117" lon="5.14389">
        <ele>178.90039</ele>
        <time>2026-05-14T15:27:38+02:00</time>
      </trkpt>
      <trkpt lat="47.05123" lon="5.14388">
        <ele>178.90039</ele>
        <time>2026-05-14T15:27:39+02:00</time>
      </trkpt>
      <trkpt lat="47.05129" lon="5.14387">
        <ele>178.90039</ele>
        <time>2026-05-14T15:27:40+02:00</time>
      </trkpt>
      <trkpt lat="47.05135" lon="5.14387">
        <ele>178.90039</ele>
        <time>2026-05-14T15:27:41+02:00</time>
      </trkpt>
      <trkpt lat="47.05142" lon="5.14386">
        <ele>178.90039</ele>
        <time>2026-05-14T15:27:42+02:00</time>
      </trkpt>
      <trkpt lat="47.05148" lon="5.14386">
        <ele>178.90039</ele>
        <time>2026-05-14T15:27:43+02:00</time>
      </trkpt>
      <trkpt lat="47.05154" lon="5.14386">
        <ele>178.90039</ele>
        <time>2026-05-14T15:27:44+02:00</time>
      </trkpt>
      <trkpt lat="47.0516" lon="5.14386">
        <ele>178.90039</ele>
        <time>2026-05-14T15:27:45+02:00</time>
      </trkpt>
      <trkpt lat="47.05166" lon="5.14386">
        <ele>178.90039</ele>
        <time>2026-05-14T15:27:46+02:00</time>
      </trkpt>
      <trkpt lat="47.05173" lon="5.14388">
        <ele>178.90039</ele>
        <time>2026-05-14T15:27:47+02:00</time>
      </trkpt>
      <trkpt lat="47.05179" lon="5.14389">
        <ele>179</ele>
        <time>2026-05-14T15:27:48+02:00</time>
      </trkpt>
      <trkpt lat="47.05185" lon="5.1439">
        <ele>179</ele>
        <time>2026-05-14T15:27:49+02:00</time>
      </trkpt>
      <trkpt lat="47.05192" lon="5.14392">
        <ele>179.10059</ele>
        <time>2026-05-14T15:27:50+02:00</time>
      </trkpt>
      <trkpt lat="47.05198" lon="5.14394">
        <ele>179.10059</ele>
        <time>2026-05-14T15:27:51+02:00</time>
      </trkpt>
      <trkpt lat="47.05205" lon="5.14396">
        <ele>179.10059</ele>
        <time>2026-05-14T15:27:52+02:00</time>
      </trkpt>
      <trkpt lat="47.05212" lon="5.14398">
        <ele>179.10059</ele>
        <time>2026-05-14T15:27:53+02:00</time>
      </trkpt>
      <trkpt lat="47.05218" lon="5.144">
        <ele>179.10059</ele>
        <time>2026-05-14T15:27:54+02:00</time>
      </trkpt>
      <trkpt lat="47.05225" lon="5.14401">
        <ele>179.10059</ele>
        <time>2026-05-14T15:27:55+02:00</time>
      </trkpt>
      <trkpt lat="47.05232" lon="5.14403">
        <ele>179.10059</ele>
        <time>2026-05-14T15:27:56+02:00</time>
      </trkpt>
      <trkpt lat="47.05238" lon="5.14405">
        <ele>179.10059</ele>
        <time>2026-05-14T15:27:57+02:00</time>
      </trkpt>
      <trkpt lat="47.05245" lon="5.14407">
        <ele>179.10059</ele>
        <time>2026-05-14T15:27:58+02:00</time>
      </trkpt>
      <trkpt lat="47.05252" lon="5.14408">
        <ele>179.10059</ele>
        <time>2026-05-14T15:27:59+02:00</time>
      </trkpt>
      <trkpt lat="47.05258" lon="5.1441">
        <ele>178.90039</ele>
        <time>2026-05-14T15:28:00+02:00</time>
      </trkpt>
      <trkpt lat="47.05265" lon="5.14412">
        <ele>178.90039</ele>
        <time>2026-05-14T15:28:01+02:00</time>
      </trkpt>
      <trkpt lat="47.05272" lon="5.14413">
        <ele>178.7998</ele>
        <time>2026-05-14T15:28:02+02:00</time>
      </trkpt>
      <trkpt lat="47.05278" lon="5.14414">
        <ele>178.7998</ele>
        <time>2026-05-14T15:28:03+02:00</time>
      </trkpt>
      <trkpt lat="47.05285" lon="5.14415">
        <ele>178.7002</ele>
        <time>2026-05-14T15:28:04+02:00</time>
      </trkpt>
      <trkpt lat="47.05291" lon="5.14416">
        <ele>178.60059</ele>
        <time>2026-05-14T15:28:05+02:00</time>
      </trkpt>
      <trkpt lat="47.05298" lon="5.14417">
        <ele>178.60059</ele>
        <time>2026-05-14T15:28:06+02:00</time>
      </trkpt>
      <trkpt lat="47.05304" lon="5.14418">
        <ele>178.60059</ele>
        <time>2026-05-14T15:28:07+02:00</time>
      </trkpt>
      <trkpt lat="47.05311" lon="5.14419">
        <ele>178.60059</ele>
        <time>2026-05-14T15:28:08+02:00</time>
      </trkpt>
      <trkpt lat="47.05317" lon="5.1442">
        <ele>178.60059</ele>
        <time>2026-05-14T15:28:09+02:00</time>
      </trkpt>
      <trkpt lat="47.05324" lon="5.1442">
        <ele>178.60059</ele>
        <time>2026-05-14T15:28:10+02:00</time>
      </trkpt>
      <trkpt lat="47.0533" lon="5.1442">
        <ele>178.60059</ele>
        <time>2026-05-14T15:28:11+02:00</time>
      </trkpt>
      <trkpt lat="47.05336" lon="5.14419">
        <ele>178.60059</ele>
        <time>2026-05-14T15:28:12+02:00</time>
      </trkpt>
      <trkpt lat="47.05342" lon="5.14419">
        <ele>178.7002</ele>
        <time>2026-05-14T15:28:13+02:00</time>
      </trkpt>
      <trkpt lat="47.05348" lon="5.14418">
        <ele>178.7998</ele>
        <time>2026-05-14T15:28:14+02:00</time>
      </trkpt>
      <trkpt lat="47.05354" lon="5.14417">
        <ele>178.90039</ele>
        <time>2026-05-14T15:28:15+02:00</time>
      </trkpt>
      <trkpt lat="47.0536" lon="5.14417">
        <ele>179</ele>
        <time>2026-05-14T15:28:16+02:00</time>
      </trkpt>
      <trkpt lat="47.05366" lon="5.14416">
        <ele>179.10059</ele>
        <time>2026-05-14T15:28:17+02:00</time>
      </trkpt>
      <trkpt lat="47.05372" lon="5.14415">
        <ele>179.2002</ele>
        <time>2026-05-14T15:28:18+02:00</time>
      </trkpt>
      <trkpt lat="47.05378" lon="5.14414">
        <ele>179.40039</ele>
        <time>2026-05-14T15:28:19+02:00</time>
      </trkpt>
      <trkpt lat="47.05383" lon="5.14413">
        <ele>179.5</ele>
        <time>2026-05-14T15:28:20+02:00</time>
      </trkpt>
      <trkpt lat="47.05389" lon="5.14412">
        <ele>179.60059</ele>
        <time>2026-05-14T15:28:21+02:00</time>
      </trkpt>
      <trkpt lat="47.05394" lon="5.14411">
        <ele>179.7002</ele>
        <time>2026-05-14T15:28:22+02:00</time>
      </trkpt>
      <trkpt lat="47.054" lon="5.1441">
        <ele>179.7998</ele>
        <time>2026-05-14T15:28:23+02:00</time>
      </trkpt>
      <trkpt lat="47.05406" lon="5.14409">
        <ele>179.7998</ele>
        <time>2026-05-14T15:28:24+02:00</time>
      </trkpt>
      <trkpt lat="47.05411" lon="5.14408">
        <ele>179.90039</ele>
        <time>2026-05-14T15:28:25+02:00</time>
      </trkpt>
      <trkpt lat="47.05416" lon="5.14407">
        <ele>180</ele>
        <time>2026-05-14T15:28:26+02:00</time>
      </trkpt>
      <trkpt lat="47.05422" lon="5.14406">
        <ele>180</ele>
        <time>2026-05-14T15:28:27+02:00</time>
      </trkpt>
      <trkpt lat="47.05427" lon="5.14405">
        <ele>180</ele>
        <time>2026-05-14T15:28:28+02:00</time>
      </trkpt>
      <trkpt lat="47.05432" lon="5.14405">
        <ele>180</ele>
        <time>2026-05-14T15:28:29+02:00</time>
      </trkpt>
      <trkpt lat="47.05437" lon="5.14404">
        <ele>180</ele>
        <time>2026-05-14T15:28:30+02:00</time>
      </trkpt>
      <trkpt lat="47.05443" lon="5.14403">
        <ele>180.10059</ele>
        <time>2026-05-14T15:28:31+02:00</time>
      </trkpt>
      <trkpt lat="47.05448" lon="5.14403">
        <ele>180.10059</ele>
        <time>2026-05-14T15:28:32+02:00</time>
      </trkpt>
      <trkpt lat="47.05452" lon="5.14402">
        <ele>180.10059</ele>
        <time>2026-05-14T15:28:33+02:00</time>
      </trkpt>
      <trkpt lat="47.05458" lon="5.14402">
        <ele>180.10059</ele>
        <time>2026-05-14T15:28:34+02:00</time>
      </trkpt>
      <trkpt lat="47.05463" lon="5.14401">
        <ele>180.10059</ele>
        <time>2026-05-14T15:28:35+02:00</time>
      </trkpt>
      <trkpt lat="47.05469" lon="5.14401">
        <ele>180.10059</ele>
        <time>2026-05-14T15:28:36+02:00</time>
      </trkpt>
      <trkpt lat="47.05474" lon="5.14401">
        <ele>180.10059</ele>
        <time>2026-05-14T15:28:37+02:00</time>
      </trkpt>
      <trkpt lat="47.0548" lon="5.144">
        <ele>180</ele>
        <time>2026-05-14T15:28:38+02:00</time>
      </trkpt>
      <trkpt lat="47.05485" lon="5.144">
        <ele>180</ele>
        <time>2026-05-14T15:28:39+02:00</time>
      </trkpt>
      <trkpt lat="47.05491" lon="5.144">
        <ele>180</ele>
        <time>2026-05-14T15:28:40+02:00</time>
      </trkpt>
      <trkpt lat="47.05497" lon="5.144">
        <ele>180</ele>
        <time>2026-05-14T15:28:41+02:00</time>
      </trkpt>
      <trkpt lat="47.05502" lon="5.14399">
        <ele>180</ele>
        <time>2026-05-14T15:28:42+02:00</time>
      </trkpt>
      <trkpt lat="47.05509" lon="5.14399">
        <ele>180</ele>
        <time>2026-05-14T15:28:43+02:00</time>
      </trkpt>
      <trkpt lat="47.05514" lon="5.14399">
        <ele>180</ele>
        <time>2026-05-14T15:28:44+02:00</time>
      </trkpt>
      <trkpt lat="47.0552" lon="5.14399">
        <ele>180</ele>
        <time>2026-05-14T15:28:45+02:00</time>
      </trkpt>
      <trkpt lat="47.05526" lon="5.14399">
        <ele>180</ele>
        <time>2026-05-14T15:28:46+02:00</time>
      </trkpt>
      <trkpt lat="47.05531" lon="5.144">
        <ele>180</ele>
        <time>2026-05-14T15:28:47+02:00</time>
      </trkpt>
      <trkpt lat="47.05538" lon="5.14399">
        <ele>180</ele>
        <time>2026-05-14T15:28:48+02:00</time>
      </trkpt>
      <trkpt lat="47.05543" lon="5.14399">
        <ele>180</ele>
        <time>2026-05-14T15:28:49+02:00</time>
      </trkpt>
      <trkpt lat="47.05549" lon="5.14399">
        <ele>180</ele>
        <time>2026-05-14T15:28:50+02:00</time>
      </trkpt>
      <trkpt lat="47.05555" lon="5.14399">
        <ele>180</ele>
        <time>2026-05-14T15:28:51+02:00</time>
      </trkpt>
      <trkpt lat="47.0556" lon="5.14399">
        <ele>180</ele>
        <time>2026-05-14T15:28:52+02:00</time>
      </trkpt>
      <trkpt lat="47.05566" lon="5.14399">
        <ele>180</ele>
        <time>2026-05-14T15:28:53+02:00</time>
      </trkpt>
      <trkpt lat="47.05572" lon="5.14399">
        <ele>180</ele>
        <time>2026-05-14T15:28:54+02:00</time>
      </trkpt>
      <trkpt lat="47.05578" lon="5.14399">
        <ele>180.10059</ele>
        <time>2026-05-14T15:28:55+02:00</time>
      </trkpt>
      <trkpt lat="47.05583" lon="5.14399">
        <ele>180.10059</ele>
        <time>2026-05-14T15:28:56+02:00</time>
      </trkpt>
      <trkpt lat="47.05589" lon="5.14399">
        <ele>180.10059</ele>
        <time>2026-05-14T15:28:57+02:00</time>
      </trkpt>
      <trkpt lat="47.05595" lon="5.14398">
        <ele>180.2002</ele>
        <time>2026-05-14T15:28:58+02:00</time>
      </trkpt>
      <trkpt lat="47.056" lon="5.14398">
        <ele>180.2998</ele>
        <time>2026-05-14T15:28:59+02:00</time>
      </trkpt>
      <trkpt lat="47.05606" lon="5.14397">
        <ele>180.2998</ele>
        <time>2026-05-14T15:29:00+02:00</time>
      </trkpt>
      <trkpt lat="47.05612" lon="5.14396">
        <ele>180.40039</ele>
        <time>2026-05-14T15:29:01+02:00</time>
      </trkpt>
      <trkpt lat="47.05618" lon="5.14395">
        <ele>180.40039</ele>
        <time>2026-05-14T15:29:02+02:00</time>
      </trkpt>
      <trkpt lat="47.05623" lon="5.14393">
        <ele>180.5</ele>
        <time>2026-05-14T15:29:03+02:00</time>
      </trkpt>
      <trkpt lat="47.05629" lon="5.14392">
        <ele>180.60059</ele>
        <time>2026-05-14T15:29:04+02:00</time>
      </trkpt>
      <trkpt lat="47.05635" lon="5.14391">
        <ele>180.60059</ele>
        <time>2026-05-14T15:29:05+02:00</time>
      </trkpt>
      <trkpt lat="47.0564" lon="5.1439">
        <ele>180.60059</ele>
        <time>2026-05-14T15:29:06+02:00</time>
      </trkpt>
      <trkpt lat="47.05646" lon="5.14389">
        <ele>180.7002</ele>
        <time>2026-05-14T15:29:07+02:00</time>
      </trkpt>
      <trkpt lat="47.05652" lon="5.14387">
        <ele>180.7002</ele>
        <time>2026-05-14T15:29:08+02:00</time>
      </trkpt>
      <trkpt lat="47.05657" lon="5.14385">
        <ele>180.7998</ele>
        <time>2026-05-14T15:29:09+02:00</time>
      </trkpt>
      <trkpt lat="47.05663" lon="5.14384">
        <ele>180.7998</ele>
        <time>2026-05-14T15:29:10+02:00</time>
      </trkpt>
      <trkpt lat="47.05669" lon="5.14383">
        <ele>180.7002</ele>
        <time>2026-05-14T15:29:11+02:00</time>
      </trkpt>
      <trkpt lat="47.05674" lon="5.14381">
        <ele>180.7998</ele>
        <time>2026-05-14T15:29:12+02:00</time>
      </trkpt>
      <trkpt lat="47.0568" lon="5.1438">
        <ele>180.7998</ele>
        <time>2026-05-14T15:29:13+02:00</time>
      </trkpt>
      <trkpt lat="47.05686" lon="5.14379">
        <ele>180.7998</ele>
        <time>2026-05-14T15:29:14+02:00</time>
      </trkpt>
      <trkpt lat="47.05692" lon="5.14377">
        <ele>180.7998</ele>
        <time>2026-05-14T15:29:15+02:00</time>
      </trkpt>
      <trkpt lat="47.05697" lon="5.14375">
        <ele>180.7998</ele>
        <time>2026-05-14T15:29:16+02:00</time>
      </trkpt>
      <trkpt lat="47.05703" lon="5.14374">
        <ele>180.7002</ele>
        <time>2026-05-14T15:29:17+02:00</time>
      </trkpt>
      <trkpt lat="47.05708" lon="5.14372">
        <ele>180.7002</ele>
        <time>2026-05-14T15:29:18+02:00</time>
      </trkpt>
      <trkpt lat="47.05714" lon="5.14371">
        <ele>180.7002</ele>
        <time>2026-05-14T15:29:19+02:00</time>
      </trkpt>
      <trkpt lat="47.0572" lon="5.1437">
        <ele>180.7002</ele>
        <time>2026-05-14T15:29:20+02:00</time>
      </trkpt>
      <trkpt lat="47.05726" lon="5.14369">
        <ele>180.7002</ele>
        <time>2026-05-14T15:29:21+02:00</time>
      </trkpt>
      <trkpt lat="47.05732" lon="5.14369">
        <ele>180.7002</ele>
        <time>2026-05-14T15:29:22+02:00</time>
      </trkpt>
      <trkpt lat="47.05737" lon="5.14368">
        <ele>180.7002</ele>
        <time>2026-05-14T15:29:23+02:00</time>
      </trkpt>
      <trkpt lat="47.05744" lon="5.14367">
        <ele>180.7002</ele>
        <time>2026-05-14T15:29:24+02:00</time>
      </trkpt>
      <trkpt lat="47.05749" lon="5.14366">
        <ele>180.60059</ele>
        <time>2026-05-14T15:29:25+02:00</time>
      </trkpt>
      <trkpt lat="47.05755" lon="5.14366">
        <ele>180.7002</ele>
        <time>2026-05-14T15:29:26+02:00</time>
      </trkpt>
      <trkpt lat="47.05761" lon="5.14365">
        <ele>180.7002</ele>
        <time>2026-05-14T15:29:27+02:00</time>
      </trkpt>
      <trkpt lat="47.05767" lon="5.14365">
        <ele>180.7998</ele>
        <time>2026-05-14T15:29:28+02:00</time>
      </trkpt>
      <trkpt lat="47.05773" lon="5.14365">
        <ele>180.7998</ele>
        <time>2026-05-14T15:29:29+02:00</time>
      </trkpt>
      <trkpt lat="47.05779" lon="5.14365">
        <ele>180.90039</ele>
        <time>2026-05-14T15:29:30+02:00</time>
      </trkpt>
      <trkpt lat="47.05785" lon="5.14365">
        <ele>180.90039</ele>
        <time>2026-05-14T15:29:31+02:00</time>
      </trkpt>
      <trkpt lat="47.05791" lon="5.14366">
        <ele>181</ele>
        <time>2026-05-14T15:29:32+02:00</time>
      </trkpt>
      <trkpt lat="47.05797" lon="5.14367">
        <ele>181</ele>
        <time>2026-05-14T15:29:33+02:00</time>
      </trkpt>
      <trkpt lat="47.05802" lon="5.14368">
        <ele>181.10059</ele>
        <time>2026-05-14T15:29:34+02:00</time>
      </trkpt>
      <trkpt lat="47.05808" lon="5.14368">
        <ele>181.10059</ele>
        <time>2026-05-14T15:29:35+02:00</time>
      </trkpt>
      <trkpt lat="47.05814" lon="5.14369">
        <ele>181.10059</ele>
        <time>2026-05-14T15:29:36+02:00</time>
      </trkpt>
      <trkpt lat="47.0582" lon="5.1437">
        <ele>181.2002</ele>
        <time>2026-05-14T15:29:37+02:00</time>
      </trkpt>
      <trkpt lat="47.05826" lon="5.1437">
        <ele>181.2002</ele>
        <time>2026-05-14T15:29:38+02:00</time>
      </trkpt>
      <trkpt lat="47.05831" lon="5.1437">
        <ele>181.2002</ele>
        <time>2026-05-14T15:29:39+02:00</time>
      </trkpt>
      <trkpt lat="47.05837" lon="5.14371">
        <ele>181.2002</ele>
        <time>2026-05-14T15:29:40+02:00</time>
      </trkpt>
      <trkpt lat="47.05843" lon="5.14371">
        <ele>181.2998</ele>
        <time>2026-05-14T15:29:41+02:00</time>
      </trkpt>
      <trkpt lat="47.05849" lon="5.14372">
        <ele>181.2998</ele>
        <time>2026-05-14T15:29:42+02:00</time>
      </trkpt>
      <trkpt lat="47.05855" lon="5.14372">
        <ele>181.40039</ele>
        <time>2026-05-14T15:29:43+02:00</time>
      </trkpt>
      <trkpt lat="47.0586" lon="5.14373">
        <ele>181.40039</ele>
        <time>2026-05-14T15:29:44+02:00</time>
      </trkpt>
      <trkpt lat="47.05865" lon="5.14373">
        <ele>181.40039</ele>
        <time>2026-05-14T15:29:45+02:00</time>
      </trkpt>
      <trkpt lat="47.0587" lon="5.14372">
        <ele>181.5</ele>
        <time>2026-05-14T15:29:46+02:00</time>
      </trkpt>
      <trkpt lat="47.05875" lon="5.14373">
        <ele>181.5</ele>
        <time>2026-05-14T15:29:47+02:00</time>
      </trkpt>
      <trkpt lat="47.0588" lon="5.14374">
        <ele>181.5</ele>
        <time>2026-05-14T15:29:48+02:00</time>
      </trkpt>
      <trkpt lat="47.05884" lon="5.14375">
        <ele>181.60059</ele>
        <time>2026-05-14T15:29:49+02:00</time>
      </trkpt>
      <trkpt lat="47.05889" lon="5.14374">
        <ele>181.5</ele>
        <time>2026-05-14T15:29:50+02:00</time>
      </trkpt>
      <trkpt lat="47.05893" lon="5.14371">
        <ele>181.60059</ele>
        <time>2026-05-14T15:29:51+02:00</time>
      </trkpt>
      <trkpt lat="47.05896" lon="5.14367">
        <ele>181.60059</ele>
        <time>2026-05-14T15:29:52+02:00</time>
      </trkpt>
      <trkpt lat="47.05898" lon="5.14361">
        <ele>181.5</ele>
        <time>2026-05-14T15:29:53+02:00</time>
      </trkpt>
      <trkpt lat="47.05899" lon="5.14354">
        <ele>181.40039</ele>
        <time>2026-05-14T15:29:54+02:00</time>
      </trkpt>
      <trkpt lat="47.05901" lon="5.14347">
        <ele>181.2998</ele>
        <time>2026-05-14T15:29:55+02:00</time>
      </trkpt>
      <trkpt lat="47.05902" lon="5.14341">
        <ele>181.40039</ele>
        <time>2026-05-14T15:29:56+02:00</time>
      </trkpt>
      <trkpt lat="47.05905" lon="5.14334">
        <ele>181.2998</ele>
        <time>2026-05-14T15:29:57+02:00</time>
      </trkpt>
      <trkpt lat="47.05906" lon="5.14328">
        <ele>181.2002</ele>
        <time>2026-05-14T15:29:58+02:00</time>
      </trkpt>
      <trkpt lat="47.05909" lon="5.14321">
        <ele>181.10059</ele>
        <time>2026-05-14T15:29:59+02:00</time>
      </trkpt>
      <trkpt lat="47.05911" lon="5.14315">
        <ele>181.10059</ele>
        <time>2026-05-14T15:30:00+02:00</time>
      </trkpt>
      <trkpt lat="47.05913" lon="5.14308">
        <ele>181</ele>
        <time>2026-05-14T15:30:01+02:00</time>
      </trkpt>
      <trkpt lat="47.05915" lon="5.14301">
        <ele>180.90039</ele>
        <time>2026-05-14T15:30:02+02:00</time>
      </trkpt>
      <trkpt lat="47.05917" lon="5.14295">
        <ele>180.7998</ele>
        <time>2026-05-14T15:30:03+02:00</time>
      </trkpt>
      <trkpt lat="47.05919" lon="5.14288">
        <ele>180.7002</ele>
        <time>2026-05-14T15:30:04+02:00</time>
      </trkpt>
      <trkpt lat="47.05921" lon="5.14281">
        <ele>180.7002</ele>
        <time>2026-05-14T15:30:05+02:00</time>
      </trkpt>
      <trkpt lat="47.05922" lon="5.14275">
        <ele>180.60059</ele>
        <time>2026-05-14T15:30:06+02:00</time>
      </trkpt>
      <trkpt lat="47.05925" lon="5.1427">
        <ele>180.5</ele>
        <time>2026-05-14T15:30:07+02:00</time>
      </trkpt>
      <trkpt lat="47.05929" lon="5.14266">
        <ele>180.5</ele>
        <time>2026-05-14T15:30:08+02:00</time>
      </trkpt>
      <trkpt lat="47.05932" lon="5.14265">
        <ele>180.5</ele>
        <time>2026-05-14T15:30:09+02:00</time>
      </trkpt>
      <trkpt lat="47.05937" lon="5.14265">
        <ele>180.5</ele>
        <time>2026-05-14T15:30:10+02:00</time>
      </trkpt>
      <trkpt lat="47.05941" lon="5.14268">
        <ele>180.5</ele>
        <time>2026-05-14T15:30:11+02:00</time>
      </trkpt>
      <trkpt lat="47.05945" lon="5.14271">
        <ele>180.5</ele>
        <time>2026-05-14T15:30:12+02:00</time>
      </trkpt>
      <trkpt lat="47.0595" lon="5.14274">
        <ele>180.60059</ele>
        <time>2026-05-14T15:30:13+02:00</time>
      </trkpt>
      <trkpt lat="47.05954" lon="5.14278">
        <ele>180.60059</ele>
        <time>2026-05-14T15:30:14+02:00</time>
      </trkpt>
      <trkpt lat="47.05959" lon="5.14282">
        <ele>180.7002</ele>
        <time>2026-05-14T15:30:15+02:00</time>
      </trkpt>
      <trkpt lat="47.05964" lon="5.14285">
        <ele>180.7002</ele>
        <time>2026-05-14T15:30:16+02:00</time>
      </trkpt>
      <trkpt lat="47.05969" lon="5.14289">
        <ele>180.7998</ele>
        <time>2026-05-14T15:30:17+02:00</time>
      </trkpt>
      <trkpt lat="47.05974" lon="5.14292">
        <ele>180.7998</ele>
        <time>2026-05-14T15:30:18+02:00</time>
      </trkpt>
      <trkpt lat="47.05979" lon="5.14295">
        <ele>180.7998</ele>
        <time>2026-05-14T15:30:19+02:00</time>
      </trkpt>
      <trkpt lat="47.05984" lon="5.14299">
        <ele>180.7998</ele>
        <time>2026-05-14T15:30:20+02:00</time>
      </trkpt>
      <trkpt lat="47.0599" lon="5.14302">
        <ele>180.7998</ele>
        <time>2026-05-14T15:30:21+02:00</time>
      </trkpt>
      <trkpt lat="47.05995" lon="5.14305">
        <ele>180.7002</ele>
        <time>2026-05-14T15:30:22+02:00</time>
      </trkpt>
      <trkpt lat="47.06" lon="5.14308">
        <ele>180.7998</ele>
        <time>2026-05-14T15:30:23+02:00</time>
      </trkpt>
      <trkpt lat="47.06005" lon="5.14312">
        <ele>180.7002</ele>
        <time>2026-05-14T15:30:24+02:00</time>
      </trkpt>
      <trkpt lat="47.06011" lon="5.14316">
        <ele>180.7002</ele>
        <time>2026-05-14T15:30:25+02:00</time>
      </trkpt>
      <trkpt lat="47.06016" lon="5.14319">
        <ele>180.5</ele>
        <time>2026-05-14T15:30:26+02:00</time>
      </trkpt>
      <trkpt lat="47.06021" lon="5.14323">
        <ele>180.40039</ele>
        <time>2026-05-14T15:30:27+02:00</time>
      </trkpt>
      <trkpt lat="47.06027" lon="5.14326">
        <ele>180.40039</ele>
        <time>2026-05-14T15:30:28+02:00</time>
      </trkpt>
      <trkpt lat="47.06032" lon="5.1433">
        <ele>180.2998</ele>
        <time>2026-05-14T15:30:29+02:00</time>
      </trkpt>
      <trkpt lat="47.06037" lon="5.14334">
        <ele>180.2002</ele>
        <time>2026-05-14T15:30:30+02:00</time>
      </trkpt>
      <trkpt lat="47.06042" lon="5.14337">
        <ele>180.10059</ele>
        <time>2026-05-14T15:30:31+02:00</time>
      </trkpt>
      <trkpt lat="47.06047" lon="5.14341">
        <ele>180.2002</ele>
        <time>2026-05-14T15:30:32+02:00</time>
      </trkpt>
      <trkpt lat="47.06052" lon="5.14345">
        <ele>180.10059</ele>
        <time>2026-05-14T15:30:33+02:00</time>
      </trkpt>
      <trkpt lat="47.06058" lon="5.14349">
        <ele>180</ele>
        <time>2026-05-14T15:30:34+02:00</time>
      </trkpt>
      <trkpt lat="47.06064" lon="5.14352">
        <ele>179.90039</ele>
        <time>2026-05-14T15:30:35+02:00</time>
      </trkpt>
      <trkpt lat="47.06069" lon="5.14356">
        <ele>179.7998</ele>
        <time>2026-05-14T15:30:36+02:00</time>
      </trkpt>
      <trkpt lat="47.06075" lon="5.1436">
        <ele>179.7998</ele>
        <time>2026-05-14T15:30:37+02:00</time>
      </trkpt>
      <trkpt lat="47.0608" lon="5.14364">
        <ele>179.7002</ele>
        <time>2026-05-14T15:30:38+02:00</time>
      </trkpt>
      <trkpt lat="47.06085" lon="5.14368">
        <ele>179.7002</ele>
        <time>2026-05-14T15:30:39+02:00</time>
      </trkpt>
      <trkpt lat="47.0609" lon="5.14372">
        <ele>179.60059</ele>
        <time>2026-05-14T15:30:40+02:00</time>
      </trkpt>
      <trkpt lat="47.06096" lon="5.14376">
        <ele>179.60059</ele>
        <time>2026-05-14T15:30:41+02:00</time>
      </trkpt>
      <trkpt lat="47.06101" lon="5.1438">
        <ele>179.5</ele>
        <time>2026-05-14T15:30:42+02:00</time>
      </trkpt>
      <trkpt lat="47.06106" lon="5.14384">
        <ele>179.60059</ele>
        <time>2026-05-14T15:30:43+02:00</time>
      </trkpt>
      <trkpt lat="47.06111" lon="5.14388">
        <ele>179.60059</ele>
        <time>2026-05-14T15:30:44+02:00</time>
      </trkpt>
      <trkpt lat="47.06115" lon="5.14392">
        <ele>179.7002</ele>
        <time>2026-05-14T15:30:45+02:00</time>
      </trkpt>
      <trkpt lat="47.0612" lon="5.14396">
        <ele>179.7002</ele>
        <time>2026-05-14T15:30:46+02:00</time>
      </trkpt>
      <trkpt lat="47.06125" lon="5.14401">
        <ele>179.60059</ele>
        <time>2026-05-14T15:30:47+02:00</time>
      </trkpt>
      <trkpt lat="47.0613" lon="5.14405">
        <ele>179.60059</ele>
        <time>2026-05-14T15:30:48+02:00</time>
      </trkpt>
      <trkpt lat="47.06135" lon="5.14409">
        <ele>179.60059</ele>
        <time>2026-05-14T15:30:49+02:00</time>
      </trkpt>
      <trkpt lat="47.06139" lon="5.14412">
        <ele>179.7002</ele>
        <time>2026-05-14T15:30:50+02:00</time>
      </trkpt>
      <trkpt lat="47.06143" lon="5.14416">
        <ele>179.7998</ele>
        <time>2026-05-14T15:30:51+02:00</time>
      </trkpt>
      <trkpt lat="47.06147" lon="5.14419">
        <ele>180</ele>
        <time>2026-05-14T15:30:52+02:00</time>
      </trkpt>
      <trkpt lat="47.06151" lon="5.14422">
        <ele>180</ele>
        <time>2026-05-14T15:30:53+02:00</time>
      </trkpt>
      <trkpt lat="47.06156" lon="5.14424">
        <ele>179.7998</ele>
        <time>2026-05-14T15:30:54+02:00</time>
      </trkpt>
      <trkpt lat="47.06161" lon="5.14427">
        <ele>179.7998</ele>
        <time>2026-05-14T15:30:55+02:00</time>
      </trkpt>
      <trkpt lat="47.06165" lon="5.1443">
        <ele>179.60059</ele>
        <time>2026-05-14T15:30:56+02:00</time>
      </trkpt>
      <trkpt lat="47.06171" lon="5.14433">
        <ele>179.40039</ele>
        <time>2026-05-14T15:30:57+02:00</time>
      </trkpt>
      <trkpt lat="47.06176" lon="5.14436">
        <ele>180.10059</ele>
        <time>2026-05-14T15:30:58+02:00</time>
      </trkpt>
      <trkpt lat="47.06181" lon="5.14439">
        <ele>180.10059</ele>
        <time>2026-05-14T15:30:59+02:00</time>
      </trkpt>
      <trkpt lat="47.06186" lon="5.14442">
        <ele>180.2002</ele>
        <time>2026-05-14T15:31:00+02:00</time>
      </trkpt>
      <trkpt lat="47.06192" lon="5.14445">
        <ele>180.7002</ele>
        <time>2026-05-14T15:31:01+02:00</time>
      </trkpt>
      <trkpt lat="47.06197" lon="5.14447">
        <ele>180.60059</ele>
        <time>2026-05-14T15:31:02+02:00</time>
      </trkpt>
      <trkpt lat="47.06203" lon="5.14449">
        <ele>180.5</ele>
        <time>2026-05-14T15:31:03+02:00</time>
      </trkpt>
      <trkpt lat="47.06208" lon="5.14451">
        <ele>180</ele>
        <time>2026-05-14T15:31:04+02:00</time>
      </trkpt>
      <trkpt lat="47.06214" lon="5.14453">
        <ele>179.90039</ele>
        <time>2026-05-14T15:31:05+02:00</time>
      </trkpt>
      <trkpt lat="47.06219" lon="5.14455">
        <ele>179.60059</ele>
        <time>2026-05-14T15:31:06+02:00</time>
      </trkpt>
      <trkpt lat="47.06225" lon="5.14457">
        <ele>179.40039</ele>
        <time>2026-05-14T15:31:07+02:00</time>
      </trkpt>
      <trkpt lat="47.06231" lon="5.14459">
        <ele>179.2998</ele>
        <time>2026-05-14T15:31:08+02:00</time>
      </trkpt>
      <trkpt lat="47.06236" lon="5.14461">
        <ele>180.2998</ele>
        <time>2026-05-14T15:31:09+02:00</time>
      </trkpt>
      <trkpt lat="47.06242" lon="5.14463">
        <ele>180.10059</ele>
        <time>2026-05-14T15:31:10+02:00</time>
      </trkpt>
      <trkpt lat="47.06248" lon="5.14465">
        <ele>179.7998</ele>
        <time>2026-05-14T15:31:11+02:00</time>
      </trkpt>
      <trkpt lat="47.06254" lon="5.14467">
        <ele>179.2002</ele>
        <time>2026-05-14T15:31:12+02:00</time>
      </trkpt>
      <trkpt lat="47.06259" lon="5.14469">
        <ele>178.2998</ele>
        <time>2026-05-14T15:31:13+02:00</time>
      </trkpt>
      <trkpt lat="47.06265" lon="5.14472">
        <ele>178.2002</ele>
        <time>2026-05-14T15:31:14+02:00</time>
      </trkpt>
      <trkpt lat="47.06271" lon="5.14476">
        <ele>177.90039</ele>
        <time>2026-05-14T15:31:15+02:00</time>
      </trkpt>
      <trkpt lat="47.06276" lon="5.1448">
        <ele>178.7002</ele>
        <time>2026-05-14T15:31:16+02:00</time>
      </trkpt>
      <trkpt lat="47.06281" lon="5.14485">
        <ele>178.7002</ele>
        <time>2026-05-14T15:31:17+02:00</time>
      </trkpt>
      <trkpt lat="47.06286" lon="5.14491">
        <ele>179.5</ele>
        <time>2026-05-14T15:31:18+02:00</time>
      </trkpt>
      <trkpt lat="47.06291" lon="5.14498">
        <ele>179.7998</ele>
        <time>2026-05-14T15:31:19+02:00</time>
      </trkpt>
      <trkpt lat="47.06295" lon="5.14504">
        <ele>179.90039</ele>
        <time>2026-05-14T15:31:20+02:00</time>
      </trkpt>
      <trkpt lat="47.06299" lon="5.1451">
        <ele>179.90039</ele>
        <time>2026-05-14T15:31:21+02:00</time>
      </trkpt>
      <trkpt lat="47.06303" lon="5.14515">
        <ele>179.7998</ele>
        <time>2026-05-14T15:31:22+02:00</time>
      </trkpt>
      <trkpt lat="47.06306" lon="5.14519">
        <ele>179.7002</ele>
        <time>2026-05-14T15:31:23+02:00</time>
      </trkpt>
      <trkpt lat="47.06308" lon="5.14523">
        <ele>179.60059</ele>
        <time>2026-05-14T15:31:24+02:00</time>
      </trkpt>
      <trkpt lat="47.0631" lon="5.14527">
        <ele>179.60059</ele>
        <time>2026-05-14T15:31:25+02:00</time>
      </trkpt>
      <trkpt lat="47.06312" lon="5.14529">
        <ele>179.40039</ele>
        <time>2026-05-14T15:31:26+02:00</time>
      </trkpt>
      <trkpt lat="47.06314" lon="5.14532">
        <ele>179.40039</ele>
        <time>2026-05-14T15:31:27+02:00</time>
      </trkpt>
      <trkpt lat="47.06316" lon="5.14535">
        <ele>179.40039</ele>
        <time>2026-05-14T15:31:28+02:00</time>
      </trkpt>
      <trkpt lat="47.06317" lon="5.14537">
        <ele>179.2998</ele>
        <time>2026-05-14T15:31:29+02:00</time>
      </trkpt>
      <trkpt lat="47.06319" lon="5.14539">
        <ele>179.2998</ele>
        <time>2026-05-14T15:31:30+02:00</time>
      </trkpt>
      <trkpt lat="47.0632" lon="5.14541">
        <ele>179.2998</ele>
        <time>2026-05-14T15:31:31+02:00</time>
      </trkpt>
      <trkpt lat="47.06321" lon="5.14542">
        <ele>179.2998</ele>
        <time>2026-05-14T15:31:32+02:00</time>
      </trkpt>
      <trkpt lat="47.06321" lon="5.14544">
        <ele>179.2998</ele>
        <time>2026-05-14T15:31:33+02:00</time>
      </trkpt>
      <trkpt lat="47.06321" lon="5.14546">
        <ele>179.2998</ele>
        <time>2026-05-14T15:31:34+02:00</time>
      </trkpt>
      <trkpt lat="47.06321" lon="5.14548">
        <ele>179.2998</ele>
        <time>2026-05-14T15:31:35+02:00</time>
      </trkpt>
      <trkpt lat="47.06321" lon="5.14548">
        <ele>179.2998</ele>
        <time>2026-05-14T15:31:36+02:00</time>
      </trkpt>
      <trkpt lat="47.06321" lon="5.14548">
        <ele>179.2998</ele>
        <time>2026-05-14T15:31:37+02:00</time>
      </trkpt>
      <trkpt lat="47.06321" lon="5.14548">
        <ele>179.2998</ele>
        <time>2026-05-14T15:31:38+02:00</time>
      </trkpt>
      <trkpt lat="47.0632" lon="5.14541">
        <ele>179.2998</ele>
        <time>2026-05-14T15:31:52+02:00</time>
      </trkpt>
      <trkpt lat="47.0632" lon="5.14539">
        <ele>179.2998</ele>
        <time>2026-05-14T15:31:53+02:00</time>
      </trkpt>
      <trkpt lat="47.06318" lon="5.14531">
        <ele>179.2998</ele>
        <time>2026-05-14T15:31:57+02:00</time>
      </trkpt>
      <trkpt lat="47.06318" lon="5.1453">
        <ele>179.2998</ele>
        <time>2026-05-14T15:31:58+02:00</time>
      </trkpt>
      <trkpt lat="47.06318" lon="5.1453">
        <ele>179.2998</ele>
        <time>2026-05-14T15:34:09+02:00</time>
      </trkpt>
      <trkpt lat="47.06318" lon="5.1453">
        <ele>179.2998</ele>
        <time>2026-05-14T15:34:10+02:00</time>
      </trkpt>
      <trkpt lat="47.06318" lon="5.1453">
        <ele>179.2998</ele>
        <time>2026-05-14T15:34:11+02:00</time>
      </trkpt>
      <trkpt lat="47.06318" lon="5.1453">
        <ele>179.2998</ele>
        <time>2026-05-14T15:34:12+02:00</time>
      </trkpt>
      <trkpt lat="47.06318" lon="5.1453">
        <ele>179.2998</ele>
        <time>2026-05-14T15:34:13+02:00</time>
      </trkpt>
      <trkpt lat="47.06318" lon="5.1453">
        <ele>179.2998</ele>
        <time>2026-05-14T15:34:14+02:00</time>
      </trkpt>
      <trkpt lat="47.06318" lon="5.1453">
        <ele>179.2998</ele>
        <time>2026-05-14T15:34:15+02:00</time>
      </trkpt>
      <trkpt lat="47.06318" lon="5.1453">
        <ele>179.2998</ele>
        <time>2026-05-14T15:34:16+02:00</time>
      </trkpt>
      <trkpt lat="47.06318" lon="5.1453">
        <ele>179.2998</ele>
        <time>2026-05-14T15:34:17+02:00</time>
      </trkpt>
      <trkpt lat="47.06318" lon="5.1453">
        <ele>179.2998</ele>
        <time>2026-05-14T15:34:18+02:00</time>
      </trkpt>
      <trkpt lat="47.06318" lon="5.1453">
        <ele>179.2998</ele>
        <time>2026-05-14T15:34:19+02:00</time>
      </trkpt>
      <trkpt lat="47.06318" lon="5.1453">
        <ele>179.2998</ele>
        <time>2026-05-14T15:34:20+02:00</time>
      </trkpt>
      <trkpt lat="47.06318" lon="5.1453">
        <ele>179.2998</ele>
        <time>2026-05-14T15:34:21+02:00</time>
      </trkpt>
      <trkpt lat="47.06318" lon="5.1453">
        <ele>179.2998</ele>
        <time>2026-05-14T15:34:22+02:00</time>
      </trkpt>
      <trkpt lat="47.06318" lon="5.1453">
        <ele>179.2998</ele>
        <time>2026-05-14T15:34:23+02:00</time>
      </trkpt>
      <trkpt lat="47.06318" lon="5.1453">
        <ele>179.2998</ele>
        <time>2026-05-14T15:34:24+02:00</time>
      </trkpt>
      <trkpt lat="47.06318" lon="5.1453">
        <ele>179.2998</ele>
        <time>2026-05-14T15:34:25+02:00</time>
      </trkpt>
      <trkpt lat="47.06318" lon="5.1453">
        <ele>179.2998</ele>
        <time>2026-05-14T15:34:26+02:00</time>
      </trkpt>
      <trkpt lat="47.06318" lon="5.1453">
        <ele>179.2998</ele>
        <time>2026-05-14T15:34:27+02:00</time>
      </trkpt>
      <trkpt lat="47.06318" lon="5.1453">
        <ele>179.2998</ele>
        <time>2026-05-14T15:34:28+02:00</time>
      </trkpt>
      <trkpt lat="47.06318" lon="5.1453">
        <ele>179.2998</ele>
        <time>2026-05-14T15:34:29+02:00</time>
      </trkpt>
      <trkpt lat="47.06318" lon="5.1453">
        <ele>179.2998</ele>
        <time>2026-05-14T15:34:30+02:00</time>
      </trkpt>
      <trkpt lat="47.06318" lon="5.1453">
        <ele>179.2998</ele>
        <time>2026-05-14T15:34:31+02:00</time>
      </trkpt>
      <trkpt lat="47.06318" lon="5.1453">
        <ele>179.2998</ele>
        <time>2026-05-14T15:34:32+02:00</time>
      </trkpt>
      <trkpt lat="47.06318" lon="5.1453">
        <ele>179.2998</ele>
        <time>2026-05-14T15:34:33+02:00</time>
      </trkpt>
      <trkpt lat="47.06318" lon="5.1453">
        <ele>179.2998</ele>
        <time>2026-05-14T15:34:34+02:00</time>
      </trkpt>
      <trkpt lat="47.06318" lon="5.1453">
        <ele>179.2998</ele>
        <time>2026-05-14T15:34:35+02:00</time>
      </trkpt>
      <trkpt lat="47.06318" lon="5.1453">
        <ele>179.2998</ele>
        <time>2026-05-14T15:34:36+02:00</time>
      </trkpt>
      <trkpt lat="47.06318" lon="5.1453">
        <ele>179.2998</ele>
        <time>2026-05-14T15:34:37+02:00</time>
      </trkpt>
      <trkpt lat="47.06318" lon="5.1453">
        <ele>179.2998</ele>
        <time>2026-05-14T15:34:38+02:00</time>
      </trkpt>
      <trkpt lat="47.06318" lon="5.1453">
        <ele>179.2998</ele>
        <time>2026-05-14T15:34:39+02:00</time>
      </trkpt>
      <trkpt lat="47.06318" lon="5.1453">
        <ele>179.2998</ele>
        <time>2026-05-14T15:34:40+02:00</time>
      </trkpt>
      <trkpt lat="47.06318" lon="5.1453">
        <ele>179.2998</ele>
        <time>2026-05-14T15:34:41+02:00</time>
      </trkpt>
      <trkpt lat="47.06318" lon="5.1453">
        <ele>179.2998</ele>
        <time>2026-05-14T15:34:42+02:00</time>
      </trkpt>
      <trkpt lat="47.06318" lon="5.1453">
        <ele>179.2998</ele>
        <time>2026-05-14T15:34:43+02:00</time>
      </trkpt>
      <trkpt lat="47.06318" lon="5.1453">
        <ele>179.2998</ele>
        <time>2026-05-14T15:34:44+02:00</time>
      </trkpt>
      <trkpt lat="47.06318" lon="5.1453">
        <ele>179.2998</ele>
        <time>2026-05-14T15:34:45+02:00</time>
      </trkpt>
      <trkpt lat="47.06318" lon="5.1453">
        <ele>179.2998</ele>
        <time>2026-05-14T15:34:46+02:00</time>
      </trkpt>
      <trkpt lat="47.06318" lon="5.1453">
        <ele>179.2998</ele>
        <time>2026-05-14T15:34:47+02:00</time>
      </trkpt>
      <trkpt lat="47.06318" lon="5.1453">
        <ele>179.2998</ele>
        <time>2026-05-14T15:34:48+02:00</time>
      </trkpt>
      <trkpt lat="47.06318" lon="5.1453">
        <ele>179.2998</ele>
        <time>2026-05-14T15:34:49+02:00</time>
      </trkpt>
      <trkpt lat="47.06318" lon="5.1453">
        <ele>179.2998</ele>
        <time>2026-05-14T15:34:50+02:00</time>
      </trkpt>
      <trkpt lat="47.06318" lon="5.1453">
        <ele>179.2998</ele>
        <time>2026-05-14T15:34:51+02:00</time>
      </trkpt>
      <trkpt lat="47.06318" lon="5.1453">
        <ele>179.2998</ele>
        <time>2026-05-14T15:34:52+02:00</time>
      </trkpt>
      <trkpt lat="47.06318" lon="5.1453">
        <ele>179.2998</ele>
        <time>2026-05-14T15:34:53+02:00</time>
      </trkpt>
      <trkpt lat="47.06318" lon="5.1453">
        <ele>179.2998</ele>
        <time>2026-05-14T15:34:54+02:00</time>
      </trkpt>
      <trkpt lat="47.06318" lon="5.1453">
        <ele>179.2998</ele>
        <time>2026-05-14T15:34:55+02:00</time>
      </trkpt>
      <trkpt lat="47.06318" lon="5.1453">
        <ele>179.2998</ele>
        <time>2026-05-14T15:34:56+02:00</time>
      </trkpt>
      <trkpt lat="47.06318" lon="5.1453">
        <ele>179.2998</ele>
        <time>2026-05-14T15:34:57+02:00</time>
      </trkpt>
      <trkpt lat="47.06318" lon="5.1453">
        <ele>179.2998</ele>
        <time>2026-05-14T15:34:58+02:00</time>
      </trkpt>
      <trkpt lat="47.06318" lon="5.1453">
        <ele>179.2998</ele>
        <time>2026-05-14T15:34:59+02:00</time>
      </trkpt>
      <trkpt lat="47.06318" lon="5.1453">
        <ele>179.2998</ele>
        <time>2026-05-14T15:35:00+02:00</time>
      </trkpt>
      <trkpt lat="47.06318" lon="5.1453">
        <ele>179.2998</ele>
        <time>2026-05-14T15:35:01+02:00</time>
      </trkpt>
      <trkpt lat="47.06318" lon="5.1453">
        <ele>179.2998</ele>
        <time>2026-05-14T15:35:02+02:00</time>
      </trkpt>
      <trkpt lat="47.06318" lon="5.1453">
        <ele>179.2998</ele>
        <time>2026-05-14T15:35:03+02:00</time>
      </trkpt>
      <trkpt lat="47.06318" lon="5.1453">
        <ele>179.2998</ele>
        <time>2026-05-14T15:35:04+02:00</time>
      </trkpt>
      <trkpt lat="47.06318" lon="5.1453">
        <ele>179.2998</ele>
        <time>2026-05-14T15:35:05+02:00</time>
      </trkpt>
      <trkpt lat="47.06318" lon="5.1453">
        <ele>179.2998</ele>
        <time>2026-05-14T15:35:06+02:00</time>
      </trkpt>
      <trkpt lat="47.06318" lon="5.1453">
        <ele>179.2998</ele>
        <time>2026-05-14T15:35:07+02:00</time>
      </trkpt>
      <trkpt lat="47.06318" lon="5.1453">
        <ele>179.2998</ele>
        <time>2026-05-14T15:35:08+02:00</time>
      </trkpt>
      <trkpt lat="47.06318" lon="5.1453">
        <ele>179.2998</ele>
        <time>2026-05-14T15:35:09+02:00</time>
      </trkpt>
      <trkpt lat="47.06318" lon="5.1453">
        <ele>179.2998</ele>
        <time>2026-05-14T15:35:10+02:00</time>
      </trkpt>
      <trkpt lat="47.06318" lon="5.1453">
        <ele>179.2998</ele>
        <time>2026-05-14T15:35:11+02:00</time>
      </trkpt>
      <trkpt lat="47.06318" lon="5.1453">
        <ele>179.2998</ele>
        <time>2026-05-14T15:35:12+02:00</time>
      </trkpt>
      <trkpt lat="47.06318" lon="5.1453">
        <ele>179.2998</ele>
        <time>2026-05-14T15:35:13+02:00</time>
      </trkpt>
      <trkpt lat="47.06318" lon="5.1453">
        <ele>179.2998</ele>
        <time>2026-05-14T15:35:14+02:00</time>
      </trkpt>
      <trkpt lat="47.06318" lon="5.1453">
        <ele>179.2998</ele>
        <time>2026-05-14T15:35:15+02:00</time>
      </trkpt>
      <trkpt lat="47.06318" lon="5.1453">
        <ele>179.2998</ele>
        <time>2026-05-14T15:35:16+02:00</time>
      </trkpt>
      <trkpt lat="47.06318" lon="5.1453">
        <ele>179.2998</ele>
        <time>2026-05-14T15:35:17+02:00</time>
      </trkpt>
      <trkpt lat="47.06318" lon="5.1453">
        <ele>179.2998</ele>
        <time>2026-05-14T15:35:18+02:00</time>
      </trkpt>
      <trkpt lat="47.06318" lon="5.14539">
        <ele>179.2998</ele>
        <time>2026-05-14T15:35:19+02:00</time>
      </trkpt>
      <trkpt lat="47.06319" lon="5.14541">
        <ele>179.2998</ele>
        <time>2026-05-14T15:35:20+02:00</time>
      </trkpt>
      <trkpt lat="47.0632" lon="5.14545">
        <ele>179.2998</ele>
        <time>2026-05-14T15:35:21+02:00</time>
      </trkpt>
      <trkpt lat="47.0632" lon="5.14549">
        <ele>179.2998</ele>
        <time>2026-05-14T15:35:22+02:00</time>
      </trkpt>
      <trkpt lat="47.06321" lon="5.14554">
        <ele>179.2998</ele>
        <time>2026-05-14T15:35:23+02:00</time>
      </trkpt>
      <trkpt lat="47.06321" lon="5.14559">
        <ele>179.40039</ele>
        <time>2026-05-14T15:35:24+02:00</time>
      </trkpt>
      <trkpt lat="47.06323" lon="5.14567">
        <ele>179.2998</ele>
        <time>2026-05-14T15:35:25+02:00</time>
      </trkpt>
      <trkpt lat="47.06324" lon="5.14574">
        <ele>179.2998</ele>
        <time>2026-05-14T15:35:26+02:00</time>
      </trkpt>
      <trkpt lat="47.06326" lon="5.14582">
        <ele>179.2002</ele>
        <time>2026-05-14T15:35:27+02:00</time>
      </trkpt>
      <trkpt lat="47.06328" lon="5.1459">
        <ele>179.2002</ele>
        <time>2026-05-14T15:35:28+02:00</time>
      </trkpt>
      <trkpt lat="47.0633" lon="5.14598">
        <ele>179</ele>
        <time>2026-05-14T15:35:29+02:00</time>
      </trkpt>
      <trkpt lat="47.06332" lon="5.14607">
        <ele>178.90039</ele>
        <time>2026-05-14T15:35:30+02:00</time>
      </trkpt>
      <trkpt lat="47.06334" lon="5.14614">
        <ele>178.90039</ele>
        <time>2026-05-14T15:35:31+02:00</time>
      </trkpt>
      <trkpt lat="47.06336" lon="5.14622">
        <ele>178.7002</ele>
        <time>2026-05-14T15:35:32+02:00</time>
      </trkpt>
      <trkpt lat="47.06337" lon="5.14629">
        <ele>178.60059</ele>
        <time>2026-05-14T15:35:33+02:00</time>
      </trkpt>
      <trkpt lat="47.06338" lon="5.14637">
        <ele>178.5</ele>
        <time>2026-05-14T15:35:34+02:00</time>
      </trkpt>
      <trkpt lat="47.06339" lon="5.14644">
        <ele>178.5</ele>
        <time>2026-05-14T15:35:35+02:00</time>
      </trkpt>
      <trkpt lat="47.0634" lon="5.14651">
        <ele>178.2998</ele>
        <time>2026-05-14T15:35:36+02:00</time>
      </trkpt>
      <trkpt lat="47.0634" lon="5.14658">
        <ele>178.2998</ele>
        <time>2026-05-14T15:35:37+02:00</time>
      </trkpt>
      <trkpt lat="47.0634" lon="5.14665">
        <ele>178.2998</ele>
        <time>2026-05-14T15:35:38+02:00</time>
      </trkpt>
      <trkpt lat="47.0634" lon="5.14671">
        <ele>178.2998</ele>
        <time>2026-05-14T15:35:39+02:00</time>
      </trkpt>
      <trkpt lat="47.06339" lon="5.14677">
        <ele>178.40039</ele>
        <time>2026-05-14T15:35:40+02:00</time>
      </trkpt>
      <trkpt lat="47.06339" lon="5.14682">
        <ele>178.40039</ele>
        <time>2026-05-14T15:35:41+02:00</time>
      </trkpt>
      <trkpt lat="47.06338" lon="5.14686">
        <ele>178.5</ele>
        <time>2026-05-14T15:35:42+02:00</time>
      </trkpt>
      <trkpt lat="47.06337" lon="5.14691">
        <ele>178.5</ele>
        <time>2026-05-14T15:35:43+02:00</time>
      </trkpt>
      <trkpt lat="47.06336" lon="5.14695">
        <ele>178.5</ele>
        <time>2026-05-14T15:35:44+02:00</time>
      </trkpt>
      <trkpt lat="47.06335" lon="5.14699">
        <ele>178.5</ele>
        <time>2026-05-14T15:35:45+02:00</time>
      </trkpt>
      <trkpt lat="47.06334" lon="5.14703">
        <ele>178.7002</ele>
        <time>2026-05-14T15:35:46+02:00</time>
      </trkpt>
      <trkpt lat="47.06334" lon="5.14707">
        <ele>178.7002</ele>
        <time>2026-05-14T15:35:47+02:00</time>
      </trkpt>
      <trkpt lat="47.06335" lon="5.14711">
        <ele>178.7002</ele>
        <time>2026-05-14T15:35:48+02:00</time>
      </trkpt>
      <trkpt lat="47.06336" lon="5.14714">
        <ele>178.7002</ele>
        <time>2026-05-14T15:35:49+02:00</time>
      </trkpt>
      <trkpt lat="47.06337" lon="5.14717">
        <ele>178.7002</ele>
        <time>2026-05-14T15:35:50+02:00</time>
      </trkpt>
      <trkpt lat="47.06337" lon="5.14719">
        <ele>178.7998</ele>
        <time>2026-05-14T15:35:51+02:00</time>
      </trkpt>
      <trkpt lat="47.06338" lon="5.14721">
        <ele>178.7998</ele>
        <time>2026-05-14T15:35:52+02:00</time>
      </trkpt>
      <trkpt lat="47.06338" lon="5.14723">
        <ele>178.7998</ele>
        <time>2026-05-14T15:35:53+02:00</time>
      </trkpt>
      <trkpt lat="47.06338" lon="5.14724">
        <ele>178.7998</ele>
        <time>2026-05-14T15:35:54+02:00</time>
      </trkpt>
      <trkpt lat="47.06338" lon="5.14725">
        <ele>178.7998</ele>
        <time>2026-05-14T15:35:55+02:00</time>
      </trkpt>
      <trkpt lat="47.06338" lon="5.14725">
        <ele>178.7998</ele>
        <time>2026-05-14T15:35:56+02:00</time>
      </trkpt>
      <trkpt lat="47.06338" lon="5.14725">
        <ele>178.7998</ele>
        <time>2026-05-14T15:35:57+02:00</time>
      </trkpt>
      <trkpt lat="47.06333" lon="5.1475">
        <ele>179.2002</ele>
        <time>2026-05-14T15:37:18+02:00</time>
      </trkpt>
      <trkpt lat="47.06332" lon="5.14753">
        <ele>179.2998</ele>
        <time>2026-05-14T15:37:19+02:00</time>
      </trkpt>
      <trkpt lat="47.06331" lon="5.14754">
        <ele>179.2998</ele>
        <time>2026-05-14T15:37:20+02:00</time>
      </trkpt>
      <trkpt lat="47.0633" lon="5.14755">
        <ele>179.2998</ele>
        <time>2026-05-14T15:37:21+02:00</time>
      </trkpt>
      <trkpt lat="47.06329" lon="5.14757">
        <ele>179.2998</ele>
        <time>2026-05-14T15:37:22+02:00</time>
      </trkpt>
      <trkpt lat="47.06328" lon="5.14759">
        <ele>179.5</ele>
        <time>2026-05-14T15:37:23+02:00</time>
      </trkpt>
      <trkpt lat="47.06327" lon="5.14762">
        <ele>179.60059</ele>
        <time>2026-05-14T15:37:24+02:00</time>
      </trkpt>
      <trkpt lat="47.06325" lon="5.14763">
        <ele>179.60059</ele>
        <time>2026-05-14T15:37:25+02:00</time>
      </trkpt>
      <trkpt lat="47.06324" lon="5.14765">
        <ele>179.60059</ele>
        <time>2026-05-14T15:37:26+02:00</time>
      </trkpt>
      <trkpt lat="47.06322" lon="5.14768">
        <ele>179.7998</ele>
        <time>2026-05-14T15:37:27+02:00</time>
      </trkpt>
      <trkpt lat="47.06322" lon="5.14772">
        <ele>180</ele>
        <time>2026-05-14T15:37:28+02:00</time>
      </trkpt>
      <trkpt lat="47.06321" lon="5.14776">
        <ele>180</ele>
        <time>2026-05-14T15:37:29+02:00</time>
      </trkpt>
      <trkpt lat="47.0632" lon="5.1478">
        <ele>180.2002</ele>
        <time>2026-05-14T15:37:30+02:00</time>
      </trkpt>
      <trkpt lat="47.06319" lon="5.14784">
        <ele>180.2002</ele>
        <time>2026-05-14T15:37:31+02:00</time>
      </trkpt>
      <trkpt lat="47.06318" lon="5.14788">
        <ele>180.40039</ele>
        <time>2026-05-14T15:37:32+02:00</time>
      </trkpt>
      <trkpt lat="47.06317" lon="5.14794">
        <ele>180.40039</ele>
        <time>2026-05-14T15:37:33+02:00</time>
      </trkpt>
      <trkpt lat="47.06316" lon="5.14799">
        <ele>180.7002</ele>
        <time>2026-05-14T15:37:34+02:00</time>
      </trkpt>
      <trkpt lat="47.06314" lon="5.14804">
        <ele>180.7998</ele>
        <time>2026-05-14T15:37:35+02:00</time>
      </trkpt>
      <trkpt lat="47.06312" lon="5.14809">
        <ele>180.7998</ele>
        <time>2026-05-14T15:37:36+02:00</time>
      </trkpt>
      <trkpt lat="47.06311" lon="5.14815">
        <ele>180.90039</ele>
        <time>2026-05-14T15:37:37+02:00</time>
      </trkpt>
      <trkpt lat="47.06309" lon="5.14821">
        <ele>180.90039</ele>
        <time>2026-05-14T15:37:38+02:00</time>
      </trkpt>
      <trkpt lat="47.06307" lon="5.14827">
        <ele>180.90039</ele>
        <time>2026-05-14T15:37:39+02:00</time>
      </trkpt>
      <trkpt lat="47.06306" lon="5.14833">
        <ele>180.90039</ele>
        <time>2026-05-14T15:37:40+02:00</time>
      </trkpt>
      <trkpt lat="47.06305" lon="5.14839">
        <ele>180.7998</ele>
        <time>2026-05-14T15:37:41+02:00</time>
      </trkpt>
      <trkpt lat="47.06304" lon="5.14846">
        <ele>180.7998</ele>
        <time>2026-05-14T15:37:42+02:00</time>
      </trkpt>
      <trkpt lat="47.06302" lon="5.14853">
        <ele>180.7002</ele>
        <time>2026-05-14T15:37:43+02:00</time>
      </trkpt>
      <trkpt lat="47.063" lon="5.1486">
        <ele>180.5</ele>
        <time>2026-05-14T15:37:44+02:00</time>
      </trkpt>
      <trkpt lat="47.06299" lon="5.14868">
        <ele>180.2998</ele>
        <time>2026-05-14T15:37:45+02:00</time>
      </trkpt>
      <trkpt lat="47.06299" lon="5.14874">
        <ele>180.10059</ele>
        <time>2026-05-14T15:37:46+02:00</time>
      </trkpt>
      <trkpt lat="47.06298" lon="5.14882">
        <ele>179.90039</ele>
        <time>2026-05-14T15:37:47+02:00</time>
      </trkpt>
      <trkpt lat="47.06297" lon="5.14889">
        <ele>179.90039</ele>
        <time>2026-05-14T15:37:48+02:00</time>
      </trkpt>
      <trkpt lat="47.06297" lon="5.14897">
        <ele>179.7002</ele>
        <time>2026-05-14T15:37:49+02:00</time>
      </trkpt>
      <trkpt lat="47.06297" lon="5.14922">
        <ele>179.2998</ele>
        <time>2026-05-14T15:37:50+02:00</time>
      </trkpt>
      <trkpt lat="47.06298" lon="5.1493">
        <ele>179.2002</ele>
        <time>2026-05-14T15:37:51+02:00</time>
      </trkpt>
      <trkpt lat="47.06299" lon="5.14938">
        <ele>179.10059</ele>
        <time>2026-05-14T15:37:52+02:00</time>
      </trkpt>
      <trkpt lat="47.063" lon="5.14947">
        <ele>179.10059</ele>
        <time>2026-05-14T15:37:53+02:00</time>
      </trkpt>
      <trkpt lat="47.06301" lon="5.14956">
        <ele>179.10059</ele>
        <time>2026-05-14T15:37:54+02:00</time>
      </trkpt>
      <trkpt lat="47.06302" lon="5.14964">
        <ele>179</ele>
        <time>2026-05-14T15:37:55+02:00</time>
      </trkpt>
      <trkpt lat="47.06304" lon="5.14973">
        <ele>179</ele>
        <time>2026-05-14T15:37:56+02:00</time>
      </trkpt>
      <trkpt lat="47.06305" lon="5.14982">
        <ele>179</ele>
        <time>2026-05-14T15:37:57+02:00</time>
      </trkpt>
      <trkpt lat="47.06307" lon="5.1499">
        <ele>178.90039</ele>
        <time>2026-05-14T15:37:58+02:00</time>
      </trkpt>
      <trkpt lat="47.06308" lon="5.14999">
        <ele>178.90039</ele>
        <time>2026-05-14T15:37:59+02:00</time>
      </trkpt>
      <trkpt lat="47.06309" lon="5.15008">
        <ele>178.7998</ele>
        <time>2026-05-14T15:38:00+02:00</time>
      </trkpt>
      <trkpt lat="47.0631" lon="5.15017">
        <ele>178.7002</ele>
        <time>2026-05-14T15:38:01+02:00</time>
      </trkpt>
      <trkpt lat="47.06311" lon="5.15025">
        <ele>178.7002</ele>
        <time>2026-05-14T15:38:02+02:00</time>
      </trkpt>
      <trkpt lat="47.06312" lon="5.15034">
        <ele>178.60059</ele>
        <time>2026-05-14T15:38:03+02:00</time>
      </trkpt>
      <trkpt lat="47.06312" lon="5.15043">
        <ele>178.5</ele>
        <time>2026-05-14T15:38:04+02:00</time>
      </trkpt>
      <trkpt lat="47.06312" lon="5.15051">
        <ele>178.40039</ele>
        <time>2026-05-14T15:38:05+02:00</time>
      </trkpt>
      <trkpt lat="47.06312" lon="5.1506">
        <ele>178.2998</ele>
        <time>2026-05-14T15:38:06+02:00</time>
      </trkpt>
      <trkpt lat="47.06312" lon="5.15069">
        <ele>178.2002</ele>
        <time>2026-05-14T15:38:07+02:00</time>
      </trkpt>
      <trkpt lat="47.06311" lon="5.15077">
        <ele>178.10059</ele>
        <time>2026-05-14T15:38:08+02:00</time>
      </trkpt>
      <trkpt lat="47.0631" lon="5.15085">
        <ele>178</ele>
        <time>2026-05-14T15:38:09+02:00</time>
      </trkpt>
      <trkpt lat="47.06308" lon="5.15093">
        <ele>178</ele>
        <time>2026-05-14T15:38:10+02:00</time>
      </trkpt>
      <trkpt lat="47.06307" lon="5.15101">
        <ele>178</ele>
        <time>2026-05-14T15:38:11+02:00</time>
      </trkpt>
      <trkpt lat="47.06304" lon="5.15108">
        <ele>177.90039</ele>
        <time>2026-05-14T15:38:12+02:00</time>
      </trkpt>
      <trkpt lat="47.06302" lon="5.15115">
        <ele>177.90039</ele>
        <time>2026-05-14T15:38:13+02:00</time>
      </trkpt>
      <trkpt lat="47.063" lon="5.15123">
        <ele>177.90039</ele>
        <time>2026-05-14T15:38:14+02:00</time>
      </trkpt>
      <trkpt lat="47.06298" lon="5.1513">
        <ele>177.90039</ele>
        <time>2026-05-14T15:38:15+02:00</time>
      </trkpt>
      <trkpt lat="47.06295" lon="5.15137">
        <ele>177.90039</ele>
        <time>2026-05-14T15:38:16+02:00</time>
      </trkpt>
      <trkpt lat="47.06292" lon="5.15144">
        <ele>177.7998</ele>
        <time>2026-05-14T15:38:17+02:00</time>
      </trkpt>
      <trkpt lat="47.06288" lon="5.15151">
        <ele>177.7998</ele>
        <time>2026-05-14T15:38:18+02:00</time>
      </trkpt>
      <trkpt lat="47.06285" lon="5.15158">
        <ele>177.7998</ele>
        <time>2026-05-14T15:38:19+02:00</time>
      </trkpt>
      <trkpt lat="47.06281" lon="5.15165">
        <ele>177.7998</ele>
        <time>2026-05-14T15:38:20+02:00</time>
      </trkpt>
      <trkpt lat="47.06278" lon="5.15172">
        <ele>177.7998</ele>
        <time>2026-05-14T15:38:21+02:00</time>
      </trkpt>
      <trkpt lat="47.06274" lon="5.15179">
        <ele>177.7998</ele>
        <time>2026-05-14T15:38:22+02:00</time>
      </trkpt>
      <trkpt lat="47.0627" lon="5.15186">
        <ele>177.90039</ele>
        <time>2026-05-14T15:38:23+02:00</time>
      </trkpt>
      <trkpt lat="47.06266" lon="5.15193">
        <ele>178</ele>
        <time>2026-05-14T15:38:24+02:00</time>
      </trkpt>
      <trkpt lat="47.06262" lon="5.15199">
        <ele>178.2002</ele>
        <time>2026-05-14T15:38:25+02:00</time>
      </trkpt>
      <trkpt lat="47.06256" lon="5.15204">
        <ele>178.2002</ele>
        <time>2026-05-14T15:38:26+02:00</time>
      </trkpt>
      <trkpt lat="47.06251" lon="5.15209">
        <ele>178.2998</ele>
        <time>2026-05-14T15:38:27+02:00</time>
      </trkpt>
      <trkpt lat="47.06246" lon="5.15214">
        <ele>178.2998</ele>
        <time>2026-05-14T15:38:28+02:00</time>
      </trkpt>
      <trkpt lat="47.06242" lon="5.15219">
        <ele>178.5</ele>
        <time>2026-05-14T15:38:29+02:00</time>
      </trkpt>
      <trkpt lat="47.06237" lon="5.15225">
        <ele>178.7002</ele>
        <time>2026-05-14T15:38:30+02:00</time>
      </trkpt>
      <trkpt lat="47.06233" lon="5.15231">
        <ele>178.7002</ele>
        <time>2026-05-14T15:38:31+02:00</time>
      </trkpt>
      <trkpt lat="47.0623" lon="5.15238">
        <ele>178.7998</ele>
        <time>2026-05-14T15:38:32+02:00</time>
      </trkpt>
      <trkpt lat="47.06226" lon="5.15246">
        <ele>178.7998</ele>
        <time>2026-05-14T15:38:33+02:00</time>
      </trkpt>
      <trkpt lat="47.06223" lon="5.15253">
        <ele>178.7998</ele>
        <time>2026-05-14T15:38:34+02:00</time>
      </trkpt>
      <trkpt lat="47.06219" lon="5.15261">
        <ele>178.90039</ele>
        <time>2026-05-14T15:38:35+02:00</time>
      </trkpt>
      <trkpt lat="47.06216" lon="5.15269">
        <ele>178.90039</ele>
        <time>2026-05-14T15:38:36+02:00</time>
      </trkpt>
      <trkpt lat="47.06213" lon="5.15276">
        <ele>178.90039</ele>
        <time>2026-05-14T15:38:37+02:00</time>
      </trkpt>
      <trkpt lat="47.0621" lon="5.15284">
        <ele>178.90039</ele>
        <time>2026-05-14T15:38:38+02:00</time>
      </trkpt>
      <trkpt lat="47.06207" lon="5.15292">
        <ele>179</ele>
        <time>2026-05-14T15:38:39+02:00</time>
      </trkpt>
      <trkpt lat="47.06204" lon="5.153">
        <ele>179.10059</ele>
        <time>2026-05-14T15:38:40+02:00</time>
      </trkpt>
      <trkpt lat="47.06201" lon="5.15308">
        <ele>179.10059</ele>
        <time>2026-05-14T15:38:41+02:00</time>
      </trkpt>
      <trkpt lat="47.06198" lon="5.15316">
        <ele>179.2002</ele>
        <time>2026-05-14T15:38:42+02:00</time>
      </trkpt>
      <trkpt lat="47.06196" lon="5.15325">
        <ele>179.2998</ele>
        <time>2026-05-14T15:38:43+02:00</time>
      </trkpt>
      <trkpt lat="47.06193" lon="5.15333">
        <ele>179.40039</ele>
        <time>2026-05-14T15:38:44+02:00</time>
      </trkpt>
      <trkpt lat="47.0619" lon="5.15342">
        <ele>179.40039</ele>
        <time>2026-05-14T15:38:45+02:00</time>
      </trkpt>
      <trkpt lat="47.06188" lon="5.1535">
        <ele>179.5</ele>
        <time>2026-05-14T15:38:46+02:00</time>
      </trkpt>
      <trkpt lat="47.06185" lon="5.15359">
        <ele>179.40039</ele>
        <time>2026-05-14T15:38:47+02:00</time>
      </trkpt>
      <trkpt lat="47.06183" lon="5.15368">
        <ele>179.40039</ele>
        <time>2026-05-14T15:38:48+02:00</time>
      </trkpt>
      <trkpt lat="47.0618" lon="5.15377">
        <ele>179.40039</ele>
        <time>2026-05-14T15:38:49+02:00</time>
      </trkpt>
      <trkpt lat="47.06178" lon="5.15386">
        <ele>179.2998</ele>
        <time>2026-05-14T15:38:50+02:00</time>
      </trkpt>
      <trkpt lat="47.06175" lon="5.15394">
        <ele>179.2002</ele>
        <time>2026-05-14T15:38:51+02:00</time>
      </trkpt>
      <trkpt lat="47.06172" lon="5.15403">
        <ele>179.10059</ele>
        <time>2026-05-14T15:38:52+02:00</time>
      </trkpt>
      <trkpt lat="47.0617" lon="5.15412">
        <ele>179.10059</ele>
        <time>2026-05-14T15:38:53+02:00</time>
      </trkpt>
      <trkpt lat="47.06167" lon="5.15421">
        <ele>178.90039</ele>
        <time>2026-05-14T15:38:54+02:00</time>
      </trkpt>
      <trkpt lat="47.06164" lon="5.1543">
        <ele>178.90039</ele>
        <time>2026-05-14T15:38:55+02:00</time>
      </trkpt>
      <trkpt lat="47.06161" lon="5.15439">
        <ele>178.7002</ele>
        <time>2026-05-14T15:38:56+02:00</time>
      </trkpt>
      <trkpt lat="47.06159" lon="5.15448">
        <ele>178.5</ele>
        <time>2026-05-14T15:38:57+02:00</time>
      </trkpt>
      <trkpt lat="47.06156" lon="5.15456">
        <ele>178.5</ele>
        <time>2026-05-14T15:38:58+02:00</time>
      </trkpt>
      <trkpt lat="47.06153" lon="5.15465">
        <ele>178.2998</ele>
        <time>2026-05-14T15:38:59+02:00</time>
      </trkpt>
      <trkpt lat="47.0615" lon="5.15474">
        <ele>178.2002</ele>
        <time>2026-05-14T15:39:00+02:00</time>
      </trkpt>
      <trkpt lat="47.06147" lon="5.15483">
        <ele>178.10059</ele>
        <time>2026-05-14T15:39:01+02:00</time>
      </trkpt>
      <trkpt lat="47.06144" lon="5.15492">
        <ele>178</ele>
        <time>2026-05-14T15:39:02+02:00</time>
      </trkpt>
      <trkpt lat="47.06142" lon="5.155">
        <ele>178</ele>
        <time>2026-05-14T15:39:03+02:00</time>
      </trkpt>
      <trkpt lat="47.06139" lon="5.15509">
        <ele>178</ele>
        <time>2026-05-14T15:39:04+02:00</time>
      </trkpt>
      <trkpt lat="47.06136" lon="5.15518">
        <ele>177.90039</ele>
        <time>2026-05-14T15:39:05+02:00</time>
      </trkpt>
      <trkpt lat="47.06134" lon="5.15527">
        <ele>177.90039</ele>
        <time>2026-05-14T15:39:06+02:00</time>
      </trkpt>
      <trkpt lat="47.06131" lon="5.15535">
        <ele>177.90039</ele>
        <time>2026-05-14T15:39:07+02:00</time>
      </trkpt>
      <trkpt lat="47.06128" lon="5.15544">
        <ele>177.7998</ele>
        <time>2026-05-14T15:39:08+02:00</time>
      </trkpt>
      <trkpt lat="47.06126" lon="5.15554">
        <ele>177.7998</ele>
        <time>2026-05-14T15:39:09+02:00</time>
      </trkpt>
      <trkpt lat="47.06123" lon="5.15562">
        <ele>177.7002</ele>
        <time>2026-05-14T15:39:10+02:00</time>
      </trkpt>
      <trkpt lat="47.0612" lon="5.15571">
        <ele>177.7002</ele>
        <time>2026-05-14T15:39:11+02:00</time>
      </trkpt>
      <trkpt lat="47.06118" lon="5.1558">
        <ele>177.60059</ele>
        <time>2026-05-14T15:39:12+02:00</time>
      </trkpt>
      <trkpt lat="47.06115" lon="5.15588">
        <ele>177.5</ele>
        <time>2026-05-14T15:39:13+02:00</time>
      </trkpt>
      <trkpt lat="47.06112" lon="5.15596">
        <ele>177.5</ele>
        <time>2026-05-14T15:39:14+02:00</time>
      </trkpt>
      <trkpt lat="47.0611" lon="5.15605">
        <ele>177.40039</ele>
        <time>2026-05-14T15:39:15+02:00</time>
      </trkpt>
      <trkpt lat="47.06107" lon="5.15613">
        <ele>177.2998</ele>
        <time>2026-05-14T15:39:16+02:00</time>
      </trkpt>
      <trkpt lat="47.06105" lon="5.15621">
        <ele>177.2002</ele>
        <time>2026-05-14T15:39:17+02:00</time>
      </trkpt>
      <trkpt lat="47.06103" lon="5.1563">
        <ele>177.2002</ele>
        <time>2026-05-14T15:39:18+02:00</time>
      </trkpt>
      <trkpt lat="47.061" lon="5.15638">
        <ele>177.2002</ele>
        <time>2026-05-14T15:39:19+02:00</time>
      </trkpt>
      <trkpt lat="47.06098" lon="5.15646">
        <ele>177.10059</ele>
        <time>2026-05-14T15:39:20+02:00</time>
      </trkpt>
      <trkpt lat="47.06095" lon="5.15655">
        <ele>177.2002</ele>
        <time>2026-05-14T15:39:21+02:00</time>
      </trkpt>
      <trkpt lat="47.06093" lon="5.15663">
        <ele>177.2998</ele>
        <time>2026-05-14T15:39:22+02:00</time>
      </trkpt>
      <trkpt lat="47.0609" lon="5.15672">
        <ele>177.40039</ele>
        <time>2026-05-14T15:39:23+02:00</time>
      </trkpt>
      <trkpt lat="47.06088" lon="5.1568">
        <ele>177.60059</ele>
        <time>2026-05-14T15:39:24+02:00</time>
      </trkpt>
      <trkpt lat="47.06085" lon="5.15689">
        <ele>177.7998</ele>
        <time>2026-05-14T15:39:25+02:00</time>
      </trkpt>
      <trkpt lat="47.06083" lon="5.15697">
        <ele>177.90039</ele>
        <time>2026-05-14T15:39:26+02:00</time>
      </trkpt>
      <trkpt lat="47.0608" lon="5.15706">
        <ele>178.2002</ele>
        <time>2026-05-14T15:39:27+02:00</time>
      </trkpt>
      <trkpt lat="47.06078" lon="5.15715">
        <ele>178.2998</ele>
        <time>2026-05-14T15:39:28+02:00</time>
      </trkpt>
      <trkpt lat="47.06075" lon="5.15723">
        <ele>178.60059</ele>
        <time>2026-05-14T15:39:29+02:00</time>
      </trkpt>
      <trkpt lat="47.06074" lon="5.15732">
        <ele>178.7002</ele>
        <time>2026-05-14T15:39:30+02:00</time>
      </trkpt>
      <trkpt lat="47.06071" lon="5.1574">
        <ele>178.7002</ele>
        <time>2026-05-14T15:39:31+02:00</time>
      </trkpt>
      <trkpt lat="47.06069" lon="5.15749">
        <ele>178.7998</ele>
        <time>2026-05-14T15:39:32+02:00</time>
      </trkpt>
      <trkpt lat="47.06067" lon="5.15757">
        <ele>178.7002</ele>
        <time>2026-05-14T15:39:33+02:00</time>
      </trkpt>
      <trkpt lat="47.06064" lon="5.15766">
        <ele>178.7002</ele>
        <time>2026-05-14T15:39:34+02:00</time>
      </trkpt>
      <trkpt lat="47.06062" lon="5.15775">
        <ele>178.5</ele>
        <time>2026-05-14T15:39:35+02:00</time>
      </trkpt>
      <trkpt lat="47.06059" lon="5.15783">
        <ele>178.40039</ele>
        <time>2026-05-14T15:39:36+02:00</time>
      </trkpt>
      <trkpt lat="47.06057" lon="5.15791">
        <ele>178.2002</ele>
        <time>2026-05-14T15:39:37+02:00</time>
      </trkpt>
      <trkpt lat="47.06054" lon="5.15799">
        <ele>178.2002</ele>
        <time>2026-05-14T15:39:38+02:00</time>
      </trkpt>
      <trkpt lat="47.06052" lon="5.15807">
        <ele>178.10059</ele>
        <time>2026-05-14T15:39:39+02:00</time>
      </trkpt>
      <trkpt lat="47.06049" lon="5.15814">
        <ele>177.90039</ele>
        <time>2026-05-14T15:39:40+02:00</time>
      </trkpt>
      <trkpt lat="47.06046" lon="5.15822">
        <ele>177.7998</ele>
        <time>2026-05-14T15:39:41+02:00</time>
      </trkpt>
      <trkpt lat="47.06044" lon="5.1583">
        <ele>177.7002</ele>
        <time>2026-05-14T15:39:42+02:00</time>
      </trkpt>
      <trkpt lat="47.06042" lon="5.15839">
        <ele>177.60059</ele>
        <time>2026-05-14T15:39:43+02:00</time>
      </trkpt>
      <trkpt lat="47.0604" lon="5.15848">
        <ele>177.5</ele>
        <time>2026-05-14T15:39:44+02:00</time>
      </trkpt>
      <trkpt lat="47.06039" lon="5.15857">
        <ele>177.40039</ele>
        <time>2026-05-14T15:39:45+02:00</time>
      </trkpt>
      <trkpt lat="47.06038" lon="5.15867">
        <ele>177.2998</ele>
        <time>2026-05-14T15:39:46+02:00</time>
      </trkpt>
      <trkpt lat="47.06037" lon="5.15877">
        <ele>177.10059</ele>
        <time>2026-05-14T15:39:47+02:00</time>
      </trkpt>
      <trkpt lat="47.06037" lon="5.15886">
        <ele>177</ele>
        <time>2026-05-14T15:39:48+02:00</time>
      </trkpt>
      <trkpt lat="47.06037" lon="5.15896">
        <ele>177</ele>
        <time>2026-05-14T15:39:49+02:00</time>
      </trkpt>
      <trkpt lat="47.06036" lon="5.15906">
        <ele>176.90039</ele>
        <time>2026-05-14T15:39:50+02:00</time>
      </trkpt>
      <trkpt lat="47.06035" lon="5.15916">
        <ele>177.10059</ele>
        <time>2026-05-14T15:39:51+02:00</time>
      </trkpt>
      <trkpt lat="47.06035" lon="5.15926">
        <ele>177.2002</ele>
        <time>2026-05-14T15:39:52+02:00</time>
      </trkpt>
      <trkpt lat="47.06035" lon="5.15936">
        <ele>177.2998</ele>
        <time>2026-05-14T15:39:53+02:00</time>
      </trkpt>
      <trkpt lat="47.06035" lon="5.15946">
        <ele>177.7002</ele>
        <time>2026-05-14T15:39:54+02:00</time>
      </trkpt>
      <trkpt lat="47.06035" lon="5.15957">
        <ele>177.90039</ele>
        <time>2026-05-14T15:39:55+02:00</time>
      </trkpt>
      <trkpt lat="47.06035" lon="5.15967">
        <ele>178.10059</ele>
        <time>2026-05-14T15:39:56+02:00</time>
      </trkpt>
      <trkpt lat="47.06035" lon="5.15977">
        <ele>178.2998</ele>
        <time>2026-05-14T15:39:57+02:00</time>
      </trkpt>
      <trkpt lat="47.06035" lon="5.15987">
        <ele>178.5</ele>
        <time>2026-05-14T15:39:58+02:00</time>
      </trkpt>
      <trkpt lat="47.06036" lon="5.15997">
        <ele>178.7002</ele>
        <time>2026-05-14T15:39:59+02:00</time>
      </trkpt>
      <trkpt lat="47.06037" lon="5.16007">
        <ele>178.7998</ele>
        <time>2026-05-14T15:40:00+02:00</time>
      </trkpt>
      <trkpt lat="47.06038" lon="5.16017">
        <ele>178.7998</ele>
        <time>2026-05-14T15:40:01+02:00</time>
      </trkpt>
      <trkpt lat="47.06038" lon="5.16027">
        <ele>178.90039</ele>
        <time>2026-05-14T15:40:02+02:00</time>
      </trkpt>
      <trkpt lat="47.0604" lon="5.16038">
        <ele>179</ele>
        <time>2026-05-14T15:40:03+02:00</time>
      </trkpt>
      <trkpt lat="47.0604" lon="5.16048">
        <ele>179</ele>
        <time>2026-05-14T15:40:04+02:00</time>
      </trkpt>
      <trkpt lat="47.06041" lon="5.16058">
        <ele>179.10059</ele>
        <time>2026-05-14T15:40:05+02:00</time>
      </trkpt>
      <trkpt lat="47.06042" lon="5.16067">
        <ele>179.10059</ele>
        <time>2026-05-14T15:40:06+02:00</time>
      </trkpt>
      <trkpt lat="47.06043" lon="5.16077">
        <ele>179.10059</ele>
        <time>2026-05-14T15:40:07+02:00</time>
      </trkpt>
      <trkpt lat="47.06045" lon="5.16087">
        <ele>179.10059</ele>
        <time>2026-05-14T15:40:08+02:00</time>
      </trkpt>
      <trkpt lat="47.06046" lon="5.16097">
        <ele>179.10059</ele>
        <time>2026-05-14T15:40:09+02:00</time>
      </trkpt>
      <trkpt lat="47.06048" lon="5.16107">
        <ele>179</ele>
        <time>2026-05-14T15:40:10+02:00</time>
      </trkpt>
      <trkpt lat="47.06049" lon="5.16117">
        <ele>179</ele>
        <time>2026-05-14T15:40:11+02:00</time>
      </trkpt>
      <trkpt lat="47.06051" lon="5.16127">
        <ele>178.7998</ele>
        <time>2026-05-14T15:40:12+02:00</time>
      </trkpt>
      <trkpt lat="47.06053" lon="5.16137">
        <ele>178.7998</ele>
        <time>2026-05-14T15:40:13+02:00</time>
      </trkpt>
      <trkpt lat="47.06054" lon="5.16147">
        <ele>178.7002</ele>
        <time>2026-05-14T15:40:14+02:00</time>
      </trkpt>
      <trkpt lat="47.06057" lon="5.16157">
        <ele>178.7002</ele>
        <time>2026-05-14T15:40:15+02:00</time>
      </trkpt>
      <trkpt lat="47.06059" lon="5.16167">
        <ele>178.7002</ele>
        <time>2026-05-14T15:40:16+02:00</time>
      </trkpt>
      <trkpt lat="47.06061" lon="5.16177">
        <ele>178.7002</ele>
        <time>2026-05-14T15:40:17+02:00</time>
      </trkpt>
      <trkpt lat="47.06063" lon="5.16188">
        <ele>178.90039</ele>
        <time>2026-05-14T15:40:18+02:00</time>
      </trkpt>
      <trkpt lat="47.06066" lon="5.16198">
        <ele>179</ele>
        <time>2026-05-14T15:40:19+02:00</time>
      </trkpt>
      <trkpt lat="47.06068" lon="5.16209">
        <ele>179.2002</ele>
        <time>2026-05-14T15:40:20+02:00</time>
      </trkpt>
      <trkpt lat="47.0607" lon="5.16219">
        <ele>179.2998</ele>
        <time>2026-05-14T15:40:21+02:00</time>
      </trkpt>
      <trkpt lat="47.06073" lon="5.1623">
        <ele>179.60059</ele>
        <time>2026-05-14T15:40:22+02:00</time>
      </trkpt>
      <trkpt lat="47.06075" lon="5.1624">
        <ele>179.7002</ele>
        <time>2026-05-14T15:40:23+02:00</time>
      </trkpt>
      <trkpt lat="47.06078" lon="5.1625">
        <ele>179.60059</ele>
        <time>2026-05-14T15:40:24+02:00</time>
      </trkpt>
      <trkpt lat="47.0608" lon="5.16261">
        <ele>179.7002</ele>
        <time>2026-05-14T15:40:25+02:00</time>
      </trkpt>
      <trkpt lat="47.06082" lon="5.16272">
        <ele>179.7998</ele>
        <time>2026-05-14T15:40:26+02:00</time>
      </trkpt>
      <trkpt lat="47.06083" lon="5.16283">
        <ele>179.7002</ele>
        <time>2026-05-14T15:40:27+02:00</time>
      </trkpt>
      <trkpt lat="47.06084" lon="5.16294">
        <ele>179.7002</ele>
        <time>2026-05-14T15:40:28+02:00</time>
      </trkpt>
      <trkpt lat="47.06085" lon="5.16306">
        <ele>179.7998</ele>
        <time>2026-05-14T15:40:29+02:00</time>
      </trkpt>
      <trkpt lat="47.06085" lon="5.16317">
        <ele>179.7998</ele>
        <time>2026-05-14T15:40:30+02:00</time>
      </trkpt>
      <trkpt lat="47.06085" lon="5.16329">
        <ele>179.7002</ele>
        <time>2026-05-14T15:40:31+02:00</time>
      </trkpt>
      <trkpt lat="47.06086" lon="5.1634">
        <ele>179.7002</ele>
        <time>2026-05-14T15:40:32+02:00</time>
      </trkpt>
      <trkpt lat="47.06086" lon="5.16352">
        <ele>179.5</ele>
        <time>2026-05-14T15:40:33+02:00</time>
      </trkpt>
      <trkpt lat="47.06086" lon="5.16363">
        <ele>179.2998</ele>
        <time>2026-05-14T15:40:34+02:00</time>
      </trkpt>
      <trkpt lat="47.06087" lon="5.16375">
        <ele>179.10059</ele>
        <time>2026-05-14T15:40:35+02:00</time>
      </trkpt>
      <trkpt lat="47.06087" lon="5.16387">
        <ele>178.90039</ele>
        <time>2026-05-14T15:40:36+02:00</time>
      </trkpt>
      <trkpt lat="47.06088" lon="5.16399">
        <ele>178.7998</ele>
        <time>2026-05-14T15:40:37+02:00</time>
      </trkpt>
      <trkpt lat="47.06089" lon="5.1641">
        <ele>178.60059</ele>
        <time>2026-05-14T15:40:38+02:00</time>
      </trkpt>
      <trkpt lat="47.0609" lon="5.16422">
        <ele>178.5</ele>
        <time>2026-05-14T15:40:39+02:00</time>
      </trkpt>
      <trkpt lat="47.0609" lon="5.16434">
        <ele>178.40039</ele>
        <time>2026-05-14T15:40:40+02:00</time>
      </trkpt>
      <trkpt lat="47.06091" lon="5.16445">
        <ele>178.2002</ele>
        <time>2026-05-14T15:40:41+02:00</time>
      </trkpt>
      <trkpt lat="47.06092" lon="5.16457">
        <ele>178.10059</ele>
        <time>2026-05-14T15:40:42+02:00</time>
      </trkpt>
      <trkpt lat="47.06093" lon="5.16469">
        <ele>177.90039</ele>
        <time>2026-05-14T15:40:43+02:00</time>
      </trkpt>
      <trkpt lat="47.06094" lon="5.16481">
        <ele>177.7998</ele>
        <time>2026-05-14T15:40:44+02:00</time>
      </trkpt>
      <trkpt lat="47.06095" lon="5.16492">
        <ele>177.90039</ele>
        <time>2026-05-14T15:40:45+02:00</time>
      </trkpt>
      <trkpt lat="47.06096" lon="5.16504">
        <ele>177.7998</ele>
        <time>2026-05-14T15:40:46+02:00</time>
      </trkpt>
      <trkpt lat="47.06097" lon="5.16516">
        <ele>177.7998</ele>
        <time>2026-05-14T15:40:47+02:00</time>
      </trkpt>
      <trkpt lat="47.06098" lon="5.16528">
        <ele>177.90039</ele>
        <time>2026-05-14T15:40:48+02:00</time>
      </trkpt>
      <trkpt lat="47.06099" lon="5.1654">
        <ele>178</ele>
        <time>2026-05-14T15:40:49+02:00</time>
      </trkpt>
      <trkpt lat="47.061" lon="5.16553">
        <ele>178</ele>
        <time>2026-05-14T15:40:50+02:00</time>
      </trkpt>
      <trkpt lat="47.06101" lon="5.16565">
        <ele>178.10059</ele>
        <time>2026-05-14T15:40:51+02:00</time>
      </trkpt>
      <trkpt lat="47.06103" lon="5.16577">
        <ele>178.10059</ele>
        <time>2026-05-14T15:40:52+02:00</time>
      </trkpt>
      <trkpt lat="47.06104" lon="5.16589">
        <ele>178.10059</ele>
        <time>2026-05-14T15:40:53+02:00</time>
      </trkpt>
      <trkpt lat="47.06104" lon="5.16601">
        <ele>178</ele>
        <time>2026-05-14T15:40:54+02:00</time>
      </trkpt>
      <trkpt lat="47.06106" lon="5.16613">
        <ele>178</ele>
        <time>2026-05-14T15:40:55+02:00</time>
      </trkpt>
      <trkpt lat="47.06107" lon="5.16625">
        <ele>177.7998</ele>
        <time>2026-05-14T15:40:56+02:00</time>
      </trkpt>
      <trkpt lat="47.06108" lon="5.16637">
        <ele>177.7998</ele>
        <time>2026-05-14T15:40:57+02:00</time>
      </trkpt>
      <trkpt lat="47.06109" lon="5.16649">
        <ele>177.7998</ele>
        <time>2026-05-14T15:40:58+02:00</time>
      </trkpt>
      <trkpt lat="47.0611" lon="5.16661">
        <ele>177.7002</ele>
        <time>2026-05-14T15:40:59+02:00</time>
      </trkpt>
      <trkpt lat="47.06111" lon="5.16674">
        <ele>177.7998</ele>
        <time>2026-05-14T15:41:00+02:00</time>
      </trkpt>
      <trkpt lat="47.06112" lon="5.16686">
        <ele>178</ele>
        <time>2026-05-14T15:41:01+02:00</time>
      </trkpt>
      <trkpt lat="47.06114" lon="5.16698">
        <ele>178</ele>
        <time>2026-05-14T15:41:02+02:00</time>
      </trkpt>
      <trkpt lat="47.06114" lon="5.1671">
        <ele>178.2998</ele>
        <time>2026-05-14T15:41:03+02:00</time>
      </trkpt>
      <trkpt lat="47.06115" lon="5.16723">
        <ele>178.40039</ele>
        <time>2026-05-14T15:41:04+02:00</time>
      </trkpt>
      <trkpt lat="47.06117" lon="5.16735">
        <ele>178.40039</ele>
        <time>2026-05-14T15:41:05+02:00</time>
      </trkpt>
      <trkpt lat="47.06118" lon="5.16747">
        <ele>178.60059</ele>
        <time>2026-05-14T15:41:06+02:00</time>
      </trkpt>
      <trkpt lat="47.06119" lon="5.16759">
        <ele>178.7002</ele>
        <time>2026-05-14T15:41:07+02:00</time>
      </trkpt>
      <trkpt lat="47.0612" lon="5.1677">
        <ele>178.7002</ele>
        <time>2026-05-14T15:41:08+02:00</time>
      </trkpt>
      <trkpt lat="47.06121" lon="5.16782">
        <ele>178.7002</ele>
        <time>2026-05-14T15:41:09+02:00</time>
      </trkpt>
      <trkpt lat="47.06122" lon="5.16794">
        <ele>178.7002</ele>
        <time>2026-05-14T15:41:10+02:00</time>
      </trkpt>
      <trkpt lat="47.06123" lon="5.16806">
        <ele>178.7002</ele>
        <time>2026-05-14T15:41:11+02:00</time>
      </trkpt>
      <trkpt lat="47.06124" lon="5.16818">
        <ele>178.7998</ele>
        <time>2026-05-14T15:41:12+02:00</time>
      </trkpt>
      <trkpt lat="47.06125" lon="5.1683">
        <ele>178.60059</ele>
        <time>2026-05-14T15:41:13+02:00</time>
      </trkpt>
      <trkpt lat="47.06126" lon="5.16842">
        <ele>178.5</ele>
        <time>2026-05-14T15:41:14+02:00</time>
      </trkpt>
      <trkpt lat="47.06127" lon="5.16854">
        <ele>178.40039</ele>
        <time>2026-05-14T15:41:15+02:00</time>
      </trkpt>
      <trkpt lat="47.06128" lon="5.16866">
        <ele>178.10059</ele>
        <time>2026-05-14T15:41:16+02:00</time>
      </trkpt>
      <trkpt lat="47.06129" lon="5.16878">
        <ele>177.90039</ele>
        <time>2026-05-14T15:41:17+02:00</time>
      </trkpt>
      <trkpt lat="47.0613" lon="5.1689">
        <ele>177.7998</ele>
        <time>2026-05-14T15:41:18+02:00</time>
      </trkpt>
      <trkpt lat="47.0613" lon="5.16902">
        <ele>177.7002</ele>
        <time>2026-05-14T15:41:19+02:00</time>
      </trkpt>
      <trkpt lat="47.06131" lon="5.16913">
        <ele>177.7002</ele>
        <time>2026-05-14T15:41:20+02:00</time>
      </trkpt>
      <trkpt lat="47.06132" lon="5.16925">
        <ele>177.60059</ele>
        <time>2026-05-14T15:41:21+02:00</time>
      </trkpt>
      <trkpt lat="47.06133" lon="5.16936">
        <ele>177.60059</ele>
        <time>2026-05-14T15:41:22+02:00</time>
      </trkpt>
      <trkpt lat="47.06134" lon="5.16948">
        <ele>177.60059</ele>
        <time>2026-05-14T15:41:23+02:00</time>
      </trkpt>
      <trkpt lat="47.06135" lon="5.16959">
        <ele>177.7002</ele>
        <time>2026-05-14T15:41:24+02:00</time>
      </trkpt>
      <trkpt lat="47.06136" lon="5.1697">
        <ele>178</ele>
        <time>2026-05-14T15:41:25+02:00</time>
      </trkpt>
      <trkpt lat="47.06138" lon="5.16981">
        <ele>178.10059</ele>
        <time>2026-05-14T15:41:26+02:00</time>
      </trkpt>
      <trkpt lat="47.0614" lon="5.16992">
        <ele>178.2002</ele>
        <time>2026-05-14T15:41:27+02:00</time>
      </trkpt>
      <trkpt lat="47.06143" lon="5.17002">
        <ele>178.60059</ele>
        <time>2026-05-14T15:41:28+02:00</time>
      </trkpt>
      <trkpt lat="47.06148" lon="5.17011">
        <ele>179</ele>
        <time>2026-05-14T15:41:29+02:00</time>
      </trkpt>
      <trkpt lat="47.06152" lon="5.1702">
        <ele>179.10059</ele>
        <time>2026-05-14T15:41:30+02:00</time>
      </trkpt>
      <trkpt lat="47.06158" lon="5.17029">
        <ele>179.5</ele>
        <time>2026-05-14T15:41:31+02:00</time>
      </trkpt>
      <trkpt lat="47.06164" lon="5.17036">
        <ele>179.7998</ele>
        <time>2026-05-14T15:41:32+02:00</time>
      </trkpt>
      <trkpt lat="47.06169" lon="5.17044">
        <ele>179.90039</ele>
        <time>2026-05-14T15:41:33+02:00</time>
      </trkpt>
      <trkpt lat="47.06175" lon="5.17052">
        <ele>180.10059</ele>
        <time>2026-05-14T15:41:34+02:00</time>
      </trkpt>
      <trkpt lat="47.0618" lon="5.1706">
        <ele>180.2998</ele>
        <time>2026-05-14T15:41:35+02:00</time>
      </trkpt>
      <trkpt lat="47.06186" lon="5.17068">
        <ele>180.5</ele>
        <time>2026-05-14T15:41:36+02:00</time>
      </trkpt>
      <trkpt lat="47.06192" lon="5.17076">
        <ele>180.7002</ele>
        <time>2026-05-14T15:41:37+02:00</time>
      </trkpt>
      <trkpt lat="47.06197" lon="5.17083">
        <ele>180.7998</ele>
        <time>2026-05-14T15:41:38+02:00</time>
      </trkpt>
      <trkpt lat="47.06202" lon="5.17091">
        <ele>180.90039</ele>
        <time>2026-05-14T15:41:39+02:00</time>
      </trkpt>
      <trkpt lat="47.06208" lon="5.17099">
        <ele>181</ele>
        <time>2026-05-14T15:41:40+02:00</time>
      </trkpt>
      <trkpt lat="47.06214" lon="5.17106">
        <ele>181</ele>
        <time>2026-05-14T15:41:41+02:00</time>
      </trkpt>
      <trkpt lat="47.06219" lon="5.17113">
        <ele>181.2002</ele>
        <time>2026-05-14T15:41:42+02:00</time>
      </trkpt>
      <trkpt lat="47.06225" lon="5.1712">
        <ele>181.10059</ele>
        <time>2026-05-14T15:41:43+02:00</time>
      </trkpt>
      <trkpt lat="47.0623" lon="5.17128">
        <ele>181.2998</ele>
        <time>2026-05-14T15:41:44+02:00</time>
      </trkpt>
      <trkpt lat="47.06235" lon="5.17135">
        <ele>181.40039</ele>
        <time>2026-05-14T15:41:45+02:00</time>
      </trkpt>
      <trkpt lat="47.06241" lon="5.17142">
        <ele>181.60059</ele>
        <time>2026-05-14T15:41:46+02:00</time>
      </trkpt>
      <trkpt lat="47.06246" lon="5.17148">
        <ele>181.7002</ele>
        <time>2026-05-14T15:41:47+02:00</time>
      </trkpt>
      <trkpt lat="47.0625" lon="5.17155">
        <ele>181.7002</ele>
        <time>2026-05-14T15:41:48+02:00</time>
      </trkpt>
      <trkpt lat="47.06255" lon="5.17161">
        <ele>181.90039</ele>
        <time>2026-05-14T15:41:49+02:00</time>
      </trkpt>
      <trkpt lat="47.0626" lon="5.17166">
        <ele>181.90039</ele>
        <time>2026-05-14T15:41:50+02:00</time>
      </trkpt>
      <trkpt lat="47.06265" lon="5.17172">
        <ele>181.90039</ele>
        <time>2026-05-14T15:41:51+02:00</time>
      </trkpt>
      <trkpt lat="47.0627" lon="5.17178">
        <ele>181.90039</ele>
        <time>2026-05-14T15:41:52+02:00</time>
      </trkpt>
      <trkpt lat="47.06275" lon="5.17183">
        <ele>182</ele>
        <time>2026-05-14T15:41:53+02:00</time>
      </trkpt>
      <trkpt lat="47.0628" lon="5.17189">
        <ele>181.90039</ele>
        <time>2026-05-14T15:41:54+02:00</time>
      </trkpt>
      <trkpt lat="47.06286" lon="5.17195">
        <ele>181.90039</ele>
        <time>2026-05-14T15:41:55+02:00</time>
      </trkpt>
      <trkpt lat="47.06291" lon="5.172">
        <ele>182</ele>
        <time>2026-05-14T15:41:56+02:00</time>
      </trkpt>
      <trkpt lat="47.06297" lon="5.17205">
        <ele>181.90039</ele>
        <time>2026-05-14T15:41:57+02:00</time>
      </trkpt>
      <trkpt lat="47.06302" lon="5.1721">
        <ele>181.90039</ele>
        <time>2026-05-14T15:41:58+02:00</time>
      </trkpt>
      <trkpt lat="47.06308" lon="5.17215">
        <ele>181.90039</ele>
        <time>2026-05-14T15:41:59+02:00</time>
      </trkpt>
      <trkpt lat="47.06313" lon="5.17221">
        <ele>182</ele>
        <time>2026-05-14T15:42:00+02:00</time>
      </trkpt>
      <trkpt lat="47.06317" lon="5.17228">
        <ele>182</ele>
        <time>2026-05-14T15:42:01+02:00</time>
      </trkpt>
      <trkpt lat="47.06321" lon="5.17235">
        <ele>182.10059</ele>
        <time>2026-05-14T15:42:02+02:00</time>
      </trkpt>
      <trkpt lat="47.06325" lon="5.17243">
        <ele>182.2002</ele>
        <time>2026-05-14T15:42:03+02:00</time>
      </trkpt>
      <trkpt lat="47.06328" lon="5.17252">
        <ele>182.2998</ele>
        <time>2026-05-14T15:42:04+02:00</time>
      </trkpt>
      <trkpt lat="47.06332" lon="5.1726">
        <ele>182.2998</ele>
        <time>2026-05-14T15:42:05+02:00</time>
      </trkpt>
      <trkpt lat="47.06335" lon="5.17269">
        <ele>182.2998</ele>
        <time>2026-05-14T15:42:06+02:00</time>
      </trkpt>
      <trkpt lat="47.06339" lon="5.17277">
        <ele>182.40039</ele>
        <time>2026-05-14T15:42:07+02:00</time>
      </trkpt>
      <trkpt lat="47.06342" lon="5.17285">
        <ele>182.2998</ele>
        <time>2026-05-14T15:42:08+02:00</time>
      </trkpt>
      <trkpt lat="47.06346" lon="5.17293">
        <ele>182.2002</ele>
        <time>2026-05-14T15:42:09+02:00</time>
      </trkpt>
      <trkpt lat="47.06349" lon="5.17301">
        <ele>182.2002</ele>
        <time>2026-05-14T15:42:10+02:00</time>
      </trkpt>
      <trkpt lat="47.06352" lon="5.1731">
        <ele>182</ele>
        <time>2026-05-14T15:42:11+02:00</time>
      </trkpt>
      <trkpt lat="47.06352" lon="5.17319">
        <ele>182</ele>
        <time>2026-05-14T15:42:12+02:00</time>
      </trkpt>
      <trkpt lat="47.0635" lon="5.17327">
        <ele>182.10059</ele>
        <time>2026-05-14T15:42:13+02:00</time>
      </trkpt>
      <trkpt lat="47.06347" lon="5.17333">
        <ele>182</ele>
        <time>2026-05-14T15:42:14+02:00</time>
      </trkpt>
      <trkpt lat="47.06345" lon="5.17338">
        <ele>182.10059</ele>
        <time>2026-05-14T15:42:15+02:00</time>
      </trkpt>
      <trkpt lat="47.06342" lon="5.17343">
        <ele>182.10059</ele>
        <time>2026-05-14T15:42:16+02:00</time>
      </trkpt>
      <trkpt lat="47.06339" lon="5.17348">
        <ele>182.2002</ele>
        <time>2026-05-14T15:42:17+02:00</time>
      </trkpt>
      <trkpt lat="47.06336" lon="5.17353">
        <ele>182.2002</ele>
        <time>2026-05-14T15:42:18+02:00</time>
      </trkpt>
      <trkpt lat="47.06333" lon="5.17357">
        <ele>182.2998</ele>
        <time>2026-05-14T15:42:19+02:00</time>
      </trkpt>
      <trkpt lat="47.06329" lon="5.17362">
        <ele>182.2002</ele>
        <time>2026-05-14T15:42:20+02:00</time>
      </trkpt>
      <trkpt lat="47.06326" lon="5.17366">
        <ele>182.2998</ele>
        <time>2026-05-14T15:42:21+02:00</time>
      </trkpt>
      <trkpt lat="47.06324" lon="5.17371">
        <ele>182.10059</ele>
        <time>2026-05-14T15:42:22+02:00</time>
      </trkpt>
      <trkpt lat="47.0632" lon="5.17376">
        <ele>182.2998</ele>
        <time>2026-05-14T15:42:23+02:00</time>
      </trkpt>
      <trkpt lat="47.06317" lon="5.1738">
        <ele>182.10059</ele>
        <time>2026-05-14T15:42:24+02:00</time>
      </trkpt>
      <trkpt lat="47.06314" lon="5.17385">
        <ele>182.2002</ele>
        <time>2026-05-14T15:42:25+02:00</time>
      </trkpt>
      <trkpt lat="47.0631" lon="5.17389">
        <ele>182.2002</ele>
        <time>2026-05-14T15:42:26+02:00</time>
      </trkpt>
      <trkpt lat="47.06307" lon="5.17393">
        <ele>182.2002</ele>
        <time>2026-05-14T15:42:27+02:00</time>
      </trkpt>
      <trkpt lat="47.06302" lon="5.17397">
        <ele>182.2002</ele>
        <time>2026-05-14T15:42:28+02:00</time>
      </trkpt>
      <trkpt lat="47.06299" lon="5.17402">
        <ele>182.2998</ele>
        <time>2026-05-14T15:42:29+02:00</time>
      </trkpt>
      <trkpt lat="47.06294" lon="5.17407">
        <ele>182.2002</ele>
        <time>2026-05-14T15:42:30+02:00</time>
      </trkpt>
      <trkpt lat="47.0629" lon="5.17412">
        <ele>182.40039</ele>
        <time>2026-05-14T15:42:31+02:00</time>
      </trkpt>
      <trkpt lat="47.06286" lon="5.17417">
        <ele>182.40039</ele>
        <time>2026-05-14T15:42:32+02:00</time>
      </trkpt>
      <trkpt lat="47.06282" lon="5.17422">
        <ele>182.2998</ele>
        <time>2026-05-14T15:42:33+02:00</time>
      </trkpt>
      <trkpt lat="47.06278" lon="5.17426">
        <ele>182.5</ele>
        <time>2026-05-14T15:42:34+02:00</time>
      </trkpt>
      <trkpt lat="47.06274" lon="5.17431">
        <ele>182.60059</ele>
        <time>2026-05-14T15:42:35+02:00</time>
      </trkpt>
      <trkpt lat="47.06271" lon="5.17436">
        <ele>182.60059</ele>
        <time>2026-05-14T15:42:36+02:00</time>
      </trkpt>
      <trkpt lat="47.06267" lon="5.17441">
        <ele>182.7002</ele>
        <time>2026-05-14T15:42:37+02:00</time>
      </trkpt>
      <trkpt lat="47.06263" lon="5.17445">
        <ele>182.7998</ele>
        <time>2026-05-14T15:42:38+02:00</time>
      </trkpt>
      <trkpt lat="47.06259" lon="5.17449">
        <ele>182.7002</ele>
        <time>2026-05-14T15:42:39+02:00</time>
      </trkpt>
      <trkpt lat="47.06256" lon="5.17452">
        <ele>182.90039</ele>
        <time>2026-05-14T15:42:40+02:00</time>
      </trkpt>
      <trkpt lat="47.06253" lon="5.17456">
        <ele>182.90039</ele>
        <time>2026-05-14T15:42:41+02:00</time>
      </trkpt>
      <trkpt lat="47.0625" lon="5.17459">
        <ele>182.90039</ele>
        <time>2026-05-14T15:42:42+02:00</time>
      </trkpt>
      <trkpt lat="47.06248" lon="5.17461">
        <ele>182.90039</ele>
        <time>2026-05-14T15:42:43+02:00</time>
      </trkpt>
      <trkpt lat="47.06246" lon="5.17462">
        <ele>183</ele>
        <time>2026-05-14T15:42:44+02:00</time>
      </trkpt>
      <trkpt lat="47.06244" lon="5.17462">
        <ele>183</ele>
        <time>2026-05-14T15:42:45+02:00</time>
      </trkpt>
      <trkpt lat="47.06243" lon="5.17461">
        <ele>183</ele>
        <time>2026-05-14T15:42:46+02:00</time>
      </trkpt>
      <trkpt lat="47.06241" lon="5.1746">
        <ele>183</ele>
        <time>2026-05-14T15:42:47+02:00</time>
      </trkpt>
      <trkpt lat="47.0624" lon="5.17458">
        <ele>183.10059</ele>
        <time>2026-05-14T15:42:48+02:00</time>
      </trkpt>
      <trkpt lat="47.06238" lon="5.17456">
        <ele>183.10059</ele>
        <time>2026-05-14T15:42:49+02:00</time>
      </trkpt>
      <trkpt lat="47.06236" lon="5.17453">
        <ele>183.10059</ele>
        <time>2026-05-14T15:42:50+02:00</time>
      </trkpt>
      <trkpt lat="47.06234" lon="5.1745">
        <ele>183.2002</ele>
        <time>2026-05-14T15:42:51+02:00</time>
      </trkpt>
      <trkpt lat="47.06231" lon="5.17448">
        <ele>183.2002</ele>
        <time>2026-05-14T15:42:52+02:00</time>
      </trkpt>
      <trkpt lat="47.06227" lon="5.17445">
        <ele>183.2998</ele>
        <time>2026-05-14T15:42:53+02:00</time>
      </trkpt>
      <trkpt lat="47.06225" lon="5.17442">
        <ele>183.2998</ele>
        <time>2026-05-14T15:42:54+02:00</time>
      </trkpt>
      <trkpt lat="47.06222" lon="5.17438">
        <ele>183.40039</ele>
        <time>2026-05-14T15:42:55+02:00</time>
      </trkpt>
      <trkpt lat="47.06218" lon="5.17434">
        <ele>183.40039</ele>
        <time>2026-05-14T15:42:56+02:00</time>
      </trkpt>
      <trkpt lat="47.06215" lon="5.1743">
        <ele>183.5</ele>
        <time>2026-05-14T15:42:57+02:00</time>
      </trkpt>
      <trkpt lat="47.06211" lon="5.17426">
        <ele>183.5</ele>
        <time>2026-05-14T15:42:58+02:00</time>
      </trkpt>
      <trkpt lat="47.06207" lon="5.17421">
        <ele>183.60059</ele>
        <time>2026-05-14T15:42:59+02:00</time>
      </trkpt>
      <trkpt lat="47.06204" lon="5.17418">
        <ele>183.60059</ele>
        <time>2026-05-14T15:43:00+02:00</time>
      </trkpt>
      <trkpt lat="47.062" lon="5.17414">
        <ele>183.60059</ele>
        <time>2026-05-14T15:43:01+02:00</time>
      </trkpt>
      <trkpt lat="47.06197" lon="5.1741">
        <ele>183.7002</ele>
        <time>2026-05-14T15:43:02+02:00</time>
      </trkpt>
      <trkpt lat="47.06193" lon="5.17407">
        <ele>183.7998</ele>
        <time>2026-05-14T15:43:03+02:00</time>
      </trkpt>
      <trkpt lat="47.0619" lon="5.17403">
        <ele>183.7998</ele>
        <time>2026-05-14T15:43:04+02:00</time>
      </trkpt>
      <trkpt lat="47.06188" lon="5.17399">
        <ele>183.7998</ele>
        <time>2026-05-14T15:43:05+02:00</time>
      </trkpt>
      <trkpt lat="47.06185" lon="5.17396">
        <ele>183.7998</ele>
        <time>2026-05-14T15:43:06+02:00</time>
      </trkpt>
      <trkpt lat="47.06182" lon="5.17393">
        <ele>183.7998</ele>
        <time>2026-05-14T15:43:07+02:00</time>
      </trkpt>
      <trkpt lat="47.06181" lon="5.1739">
        <ele>183.7998</ele>
        <time>2026-05-14T15:43:08+02:00</time>
      </trkpt>
      <trkpt lat="47.06179" lon="5.17388">
        <ele>183.7998</ele>
        <time>2026-05-14T15:43:09+02:00</time>
      </trkpt>
      <trkpt lat="47.06176" lon="5.17388">
        <ele>183.7998</ele>
        <time>2026-05-14T15:43:10+02:00</time>
      </trkpt>
      <trkpt lat="47.06173" lon="5.1739">
        <ele>183.7998</ele>
        <time>2026-05-14T15:43:11+02:00</time>
      </trkpt>
      <trkpt lat="47.06171" lon="5.17393">
        <ele>183.7998</ele>
        <time>2026-05-14T15:43:12+02:00</time>
      </trkpt>
      <trkpt lat="47.06168" lon="5.17396">
        <ele>183.7998</ele>
        <time>2026-05-14T15:43:13+02:00</time>
      </trkpt>
      <trkpt lat="47.06166" lon="5.174">
        <ele>183.7998</ele>
        <time>2026-05-14T15:43:14+02:00</time>
      </trkpt>
      <trkpt lat="47.06163" lon="5.17404">
        <ele>183.7002</ele>
        <time>2026-05-14T15:43:15+02:00</time>
      </trkpt>
      <trkpt lat="47.0616" lon="5.17409">
        <ele>183.7002</ele>
        <time>2026-05-14T15:43:16+02:00</time>
      </trkpt>
      <trkpt lat="47.06157" lon="5.17414">
        <ele>183.7002</ele>
        <time>2026-05-14T15:43:17+02:00</time>
      </trkpt>
      <trkpt lat="47.06154" lon="5.1742">
        <ele>183.7002</ele>
        <time>2026-05-14T15:43:18+02:00</time>
      </trkpt>
      <trkpt lat="47.06152" lon="5.17426">
        <ele>183.60059</ele>
        <time>2026-05-14T15:43:19+02:00</time>
      </trkpt>
      <trkpt lat="47.06149" lon="5.17432">
        <ele>183.5</ele>
        <time>2026-05-14T15:43:20+02:00</time>
      </trkpt>
      <trkpt lat="47.06146" lon="5.17439">
        <ele>183.2998</ele>
        <time>2026-05-14T15:43:21+02:00</time>
      </trkpt>
      <trkpt lat="47.06143" lon="5.17445">
        <ele>183.2998</ele>
        <time>2026-05-14T15:43:22+02:00</time>
      </trkpt>
      <trkpt lat="47.06139" lon="5.17451">
        <ele>183.10059</ele>
        <time>2026-05-14T15:43:23+02:00</time>
      </trkpt>
      <trkpt lat="47.06136" lon="5.17458">
        <ele>183</ele>
        <time>2026-05-14T15:43:24+02:00</time>
      </trkpt>
      <trkpt lat="47.06133" lon="5.17464">
        <ele>183</ele>
        <time>2026-05-14T15:43:25+02:00</time>
      </trkpt>
      <trkpt lat="47.0613" lon="5.17471">
        <ele>182.90039</ele>
        <time>2026-05-14T15:43:26+02:00</time>
      </trkpt>
      <trkpt lat="47.06128" lon="5.17478">
        <ele>182.7998</ele>
        <time>2026-05-14T15:43:27+02:00</time>
      </trkpt>
      <trkpt lat="47.06126" lon="5.17485">
        <ele>182.7002</ele>
        <time>2026-05-14T15:43:28+02:00</time>
      </trkpt>
      <trkpt lat="47.06123" lon="5.17493">
        <ele>182.7002</ele>
        <time>2026-05-14T15:43:29+02:00</time>
      </trkpt>
      <trkpt lat="47.06121" lon="5.175">
        <ele>182.7002</ele>
        <time>2026-05-14T15:43:30+02:00</time>
      </trkpt>
      <trkpt lat="47.06119" lon="5.17507">
        <ele>182.7002</ele>
        <time>2026-05-14T15:43:31+02:00</time>
      </trkpt>
      <trkpt lat="47.06117" lon="5.17515">
        <ele>182.7002</ele>
        <time>2026-05-14T15:43:32+02:00</time>
      </trkpt>
      <trkpt lat="47.06115" lon="5.17523">
        <ele>182.60059</ele>
        <time>2026-05-14T15:43:33+02:00</time>
      </trkpt>
      <trkpt lat="47.06114" lon="5.17531">
        <ele>182.60059</ele>
        <time>2026-05-14T15:43:34+02:00</time>
      </trkpt>
      <trkpt lat="47.06111" lon="5.17538">
        <ele>182.5</ele>
        <time>2026-05-14T15:43:35+02:00</time>
      </trkpt>
      <trkpt lat="47.06109" lon="5.17546">
        <ele>182.5</ele>
        <time>2026-05-14T15:43:36+02:00</time>
      </trkpt>
      <trkpt lat="47.06107" lon="5.17554">
        <ele>182.40039</ele>
        <time>2026-05-14T15:43:37+02:00</time>
      </trkpt>
      <trkpt lat="47.06105" lon="5.17561">
        <ele>182.2998</ele>
        <time>2026-05-14T15:43:38+02:00</time>
      </trkpt>
      <trkpt lat="47.06103" lon="5.17568">
        <ele>182.2998</ele>
        <time>2026-05-14T15:43:39+02:00</time>
      </trkpt>
      <trkpt lat="47.06101" lon="5.17574">
        <ele>182.2998</ele>
        <time>2026-05-14T15:43:40+02:00</time>
      </trkpt>
      <trkpt lat="47.06098" lon="5.1758">
        <ele>182.2002</ele>
        <time>2026-05-14T15:43:41+02:00</time>
      </trkpt>
      <trkpt lat="47.06096" lon="5.17585">
        <ele>182.10059</ele>
        <time>2026-05-14T15:43:42+02:00</time>
      </trkpt>
      <trkpt lat="47.06094" lon="5.1759">
        <ele>182.10059</ele>
        <time>2026-05-14T15:43:43+02:00</time>
      </trkpt>
      <trkpt lat="47.06092" lon="5.17594">
        <ele>182</ele>
        <time>2026-05-14T15:43:44+02:00</time>
      </trkpt>
      <trkpt lat="47.06091" lon="5.17598">
        <ele>182</ele>
        <time>2026-05-14T15:43:45+02:00</time>
      </trkpt>
      <trkpt lat="47.06091" lon="5.17601">
        <ele>182</ele>
        <time>2026-05-14T15:43:46+02:00</time>
      </trkpt>
      <trkpt lat="47.06092" lon="5.17604">
        <ele>181.90039</ele>
        <time>2026-05-14T15:43:47+02:00</time>
      </trkpt>
      <trkpt lat="47.06094" lon="5.17607">
        <ele>181.90039</ele>
        <time>2026-05-14T15:43:48+02:00</time>
      </trkpt>
      <trkpt lat="47.06097" lon="5.1761">
        <ele>182</ele>
        <time>2026-05-14T15:43:49+02:00</time>
      </trkpt>
      <trkpt lat="47.061" lon="5.17613">
        <ele>181.90039</ele>
        <time>2026-05-14T15:43:50+02:00</time>
      </trkpt>
      <trkpt lat="47.06104" lon="5.17616">
        <ele>181.90039</ele>
        <time>2026-05-14T15:43:51+02:00</time>
      </trkpt>
      <trkpt lat="47.06107" lon="5.1762">
        <ele>181.90039</ele>
        <time>2026-05-14T15:43:52+02:00</time>
      </trkpt>
      <trkpt lat="47.06111" lon="5.17623">
        <ele>181.90039</ele>
        <time>2026-05-14T15:43:53+02:00</time>
      </trkpt>
      <trkpt lat="47.06115" lon="5.17627">
        <ele>181.90039</ele>
        <time>2026-05-14T15:43:54+02:00</time>
      </trkpt>
      <trkpt lat="47.0612" lon="5.1763">
        <ele>181.90039</ele>
        <time>2026-05-14T15:43:55+02:00</time>
      </trkpt>
      <trkpt lat="47.06124" lon="5.17634">
        <ele>182</ele>
        <time>2026-05-14T15:43:56+02:00</time>
      </trkpt>
      <trkpt lat="47.06128" lon="5.17638">
        <ele>181.90039</ele>
        <time>2026-05-14T15:43:57+02:00</time>
      </trkpt>
      <trkpt lat="47.06133" lon="5.17641">
        <ele>182</ele>
        <time>2026-05-14T15:43:58+02:00</time>
      </trkpt>
      <trkpt lat="47.06137" lon="5.17644">
        <ele>182</ele>
        <time>2026-05-14T15:43:59+02:00</time>
      </trkpt>
      <trkpt lat="47.06141" lon="5.17648">
        <ele>182</ele>
        <time>2026-05-14T15:44:00+02:00</time>
      </trkpt>
      <trkpt lat="47.06145" lon="5.17651">
        <ele>182</ele>
        <time>2026-05-14T15:44:01+02:00</time>
      </trkpt>
      <trkpt lat="47.06148" lon="5.17653">
        <ele>182.10059</ele>
        <time>2026-05-14T15:44:02+02:00</time>
      </trkpt>
      <trkpt lat="47.06151" lon="5.17655">
        <ele>182.10059</ele>
        <time>2026-05-14T15:44:03+02:00</time>
      </trkpt>
      <trkpt lat="47.06153" lon="5.17656">
        <ele>182.10059</ele>
        <time>2026-05-14T15:44:04+02:00</time>
      </trkpt>
      <trkpt lat="47.06155" lon="5.17658">
        <ele>182.10059</ele>
        <time>2026-05-14T15:44:05+02:00</time>
      </trkpt>
      <trkpt lat="47.06156" lon="5.17658">
        <ele>182.10059</ele>
        <time>2026-05-14T15:44:06+02:00</time>
      </trkpt>
      <trkpt lat="47.06158" lon="5.17658">
        <ele>182.10059</ele>
        <time>2026-05-14T15:44:07+02:00</time>
      </trkpt>
      <trkpt lat="47.0616" lon="5.17657">
        <ele>182.10059</ele>
        <time>2026-05-14T15:44:08+02:00</time>
      </trkpt>
      <trkpt lat="47.06162" lon="5.17654">
        <ele>182.10059</ele>
        <time>2026-05-14T15:44:09+02:00</time>
      </trkpt>
      <trkpt lat="47.06164" lon="5.17651">
        <ele>182.2002</ele>
        <time>2026-05-14T15:44:10+02:00</time>
      </trkpt>
      <trkpt lat="47.06166" lon="5.17646">
        <ele>182.2002</ele>
        <time>2026-05-14T15:44:11+02:00</time>
      </trkpt>
      <trkpt lat="47.06167" lon="5.17641">
        <ele>182.2002</ele>
        <time>2026-05-14T15:44:12+02:00</time>
      </trkpt>
      <trkpt lat="47.0617" lon="5.17638">
        <ele>182.2002</ele>
        <time>2026-05-14T15:44:13+02:00</time>
      </trkpt>
      <trkpt lat="47.06173" lon="5.17636">
        <ele>182.2998</ele>
        <time>2026-05-14T15:44:14+02:00</time>
      </trkpt>
      <trkpt lat="47.06176" lon="5.17637">
        <ele>182.2002</ele>
        <time>2026-05-14T15:44:15+02:00</time>
      </trkpt>
      <trkpt lat="47.06179" lon="5.17639">
        <ele>182.2998</ele>
        <time>2026-05-14T15:44:16+02:00</time>
      </trkpt>
      <trkpt lat="47.06183" lon="5.17641">
        <ele>182.2998</ele>
        <time>2026-05-14T15:44:17+02:00</time>
      </trkpt>
      <trkpt lat="47.06186" lon="5.17643">
        <ele>182.2998</ele>
        <time>2026-05-14T15:44:18+02:00</time>
      </trkpt>
      <trkpt lat="47.06191" lon="5.17645">
        <ele>182.2998</ele>
        <time>2026-05-14T15:44:19+02:00</time>
      </trkpt>
      <trkpt lat="47.06195" lon="5.17648">
        <ele>182.2998</ele>
        <time>2026-05-14T15:44:20+02:00</time>
      </trkpt>
      <trkpt lat="47.06199" lon="5.1765">
        <ele>182.2998</ele>
        <time>2026-05-14T15:44:21+02:00</time>
      </trkpt>
      <trkpt lat="47.06203" lon="5.17652">
        <ele>182.2998</ele>
        <time>2026-05-14T15:44:22+02:00</time>
      </trkpt>
      <trkpt lat="47.06207" lon="5.17655">
        <ele>182.2998</ele>
        <time>2026-05-14T15:44:23+02:00</time>
      </trkpt>
      <trkpt lat="47.0621" lon="5.17657">
        <ele>182.2998</ele>
        <time>2026-05-14T15:44:24+02:00</time>
      </trkpt>
      <trkpt lat="47.06213" lon="5.17658">
        <ele>182.2998</ele>
        <time>2026-05-14T15:44:25+02:00</time>
      </trkpt>
      <trkpt lat="47.06215" lon="5.17657">
        <ele>182.2998</ele>
        <time>2026-05-14T15:44:26+02:00</time>
      </trkpt>
      <trkpt lat="47.06217" lon="5.17654">
        <ele>182.2998</ele>
        <time>2026-05-14T15:44:27+02:00</time>
      </trkpt>
      <trkpt lat="47.06219" lon="5.17649">
        <ele>182.2998</ele>
        <time>2026-05-14T15:44:28+02:00</time>
      </trkpt>
      <trkpt lat="47.06221" lon="5.17644">
        <ele>182.40039</ele>
        <time>2026-05-14T15:44:29+02:00</time>
      </trkpt>
      <trkpt lat="47.06223" lon="5.1764">
        <ele>182.40039</ele>
        <time>2026-05-14T15:44:30+02:00</time>
      </trkpt>
      <trkpt lat="47.06226" lon="5.17635">
        <ele>182.5</ele>
        <time>2026-05-14T15:44:31+02:00</time>
      </trkpt>
      <trkpt lat="47.06229" lon="5.1763">
        <ele>182.5</ele>
        <time>2026-05-14T15:44:32+02:00</time>
      </trkpt>
      <trkpt lat="47.06231" lon="5.17625">
        <ele>182.60059</ele>
        <time>2026-05-14T15:44:33+02:00</time>
      </trkpt>
      <trkpt lat="47.06234" lon="5.1762">
        <ele>182.60059</ele>
        <time>2026-05-14T15:44:34+02:00</time>
      </trkpt>
      <trkpt lat="47.06236" lon="5.17615">
        <ele>182.7002</ele>
        <time>2026-05-14T15:44:35+02:00</time>
      </trkpt>
      <trkpt lat="47.06239" lon="5.1761">
        <ele>182.7998</ele>
        <time>2026-05-14T15:44:36+02:00</time>
      </trkpt>
      <trkpt lat="47.06242" lon="5.17605">
        <ele>182.7998</ele>
        <time>2026-05-14T15:44:37+02:00</time>
      </trkpt>
      <trkpt lat="47.06244" lon="5.176">
        <ele>182.90039</ele>
        <time>2026-05-14T15:44:38+02:00</time>
      </trkpt>
      <trkpt lat="47.06247" lon="5.17595">
        <ele>182.90039</ele>
        <time>2026-05-14T15:44:39+02:00</time>
      </trkpt>
      <trkpt lat="47.0625" lon="5.17591">
        <ele>183</ele>
        <time>2026-05-14T15:44:40+02:00</time>
      </trkpt>
      <trkpt lat="47.06253" lon="5.17588">
        <ele>183</ele>
        <time>2026-05-14T15:44:41+02:00</time>
      </trkpt>
      <trkpt lat="47.06257" lon="5.17586">
        <ele>183</ele>
        <time>2026-05-14T15:44:42+02:00</time>
      </trkpt>
      <trkpt lat="47.06262" lon="5.17586">
        <ele>183</ele>
        <time>2026-05-14T15:44:43+02:00</time>
      </trkpt>
      <trkpt lat="47.06266" lon="5.17586">
        <ele>183</ele>
        <time>2026-05-14T15:44:44+02:00</time>
      </trkpt>
      <trkpt lat="47.06271" lon="5.17588">
        <ele>183</ele>
        <time>2026-05-14T15:44:45+02:00</time>
      </trkpt>
      <trkpt lat="47.06276" lon="5.1759">
        <ele>183</ele>
        <time>2026-05-14T15:44:46+02:00</time>
      </trkpt>
      <trkpt lat="47.06282" lon="5.17593">
        <ele>183</ele>
        <time>2026-05-14T15:44:47+02:00</time>
      </trkpt>
      <trkpt lat="47.06288" lon="5.17595">
        <ele>182.90039</ele>
        <time>2026-05-14T15:44:48+02:00</time>
      </trkpt>
      <trkpt lat="47.06293" lon="5.17597">
        <ele>182.7998</ele>
        <time>2026-05-14T15:44:49+02:00</time>
      </trkpt>
      <trkpt lat="47.06299" lon="5.17599">
        <ele>182.7998</ele>
        <time>2026-05-14T15:44:50+02:00</time>
      </trkpt>
      <trkpt lat="47.06303" lon="5.176">
        <ele>182.7998</ele>
        <time>2026-05-14T15:44:51+02:00</time>
      </trkpt>
      <trkpt lat="47.06307" lon="5.176">
        <ele>182.7002</ele>
        <time>2026-05-14T15:44:52+02:00</time>
      </trkpt>
      <trkpt lat="47.06312" lon="5.17601">
        <ele>182.60059</ele>
        <time>2026-05-14T15:44:53+02:00</time>
      </trkpt>
      <trkpt lat="47.06316" lon="5.17602">
        <ele>182.5</ele>
        <time>2026-05-14T15:44:54+02:00</time>
      </trkpt>
      <trkpt lat="47.0632" lon="5.17604">
        <ele>182.40039</ele>
        <time>2026-05-14T15:44:55+02:00</time>
      </trkpt>
      <trkpt lat="47.06323" lon="5.17607">
        <ele>182.40039</ele>
        <time>2026-05-14T15:44:56+02:00</time>
      </trkpt>
      <trkpt lat="47.06325" lon="5.17611">
        <ele>182.10059</ele>
        <time>2026-05-14T15:44:57+02:00</time>
      </trkpt>
      <trkpt lat="47.06326" lon="5.17615">
        <ele>182.10059</ele>
        <time>2026-05-14T15:44:58+02:00</time>
      </trkpt>
      <trkpt lat="47.06327" lon="5.1762">
        <ele>181.90039</ele>
        <time>2026-05-14T15:44:59+02:00</time>
      </trkpt>
      <trkpt lat="47.06328" lon="5.17625">
        <ele>181.90039</ele>
        <time>2026-05-14T15:45:00+02:00</time>
      </trkpt>
      <trkpt lat="47.06328" lon="5.17631">
        <ele>181.7002</ele>
        <time>2026-05-14T15:45:01+02:00</time>
      </trkpt>
      <trkpt lat="47.06329" lon="5.17637">
        <ele>181.5</ele>
        <time>2026-05-14T15:45:02+02:00</time>
      </trkpt>
      <trkpt lat="47.0633" lon="5.17643">
        <ele>181.5</ele>
        <time>2026-05-14T15:45:03+02:00</time>
      </trkpt>
      <trkpt lat="47.06331" lon="5.17649">
        <ele>181.2998</ele>
        <time>2026-05-14T15:45:04+02:00</time>
      </trkpt>
      <trkpt lat="47.06332" lon="5.17656">
        <ele>181.10059</ele>
        <time>2026-05-14T15:45:05+02:00</time>
      </trkpt>
      <trkpt lat="47.06333" lon="5.17662">
        <ele>181.10059</ele>
        <time>2026-05-14T15:45:06+02:00</time>
      </trkpt>
      <trkpt lat="47.06334" lon="5.17669">
        <ele>181</ele>
        <time>2026-05-14T15:45:07+02:00</time>
      </trkpt>
      <trkpt lat="47.06335" lon="5.17677">
        <ele>180.90039</ele>
        <time>2026-05-14T15:45:08+02:00</time>
      </trkpt>
      <trkpt lat="47.06336" lon="5.17684">
        <ele>180.90039</ele>
        <time>2026-05-14T15:45:09+02:00</time>
      </trkpt>
      <trkpt lat="47.06337" lon="5.17691">
        <ele>180.7998</ele>
        <time>2026-05-14T15:45:10+02:00</time>
      </trkpt>
      <trkpt lat="47.06338" lon="5.17697">
        <ele>180.7998</ele>
        <time>2026-05-14T15:45:11+02:00</time>
      </trkpt>
      <trkpt lat="47.06339" lon="5.17704">
        <ele>180.7998</ele>
        <time>2026-05-14T15:45:12+02:00</time>
      </trkpt>
      <trkpt lat="47.0634" lon="5.17708">
        <ele>180.60059</ele>
        <time>2026-05-14T15:45:13+02:00</time>
      </trkpt>
      <trkpt lat="47.0634" lon="5.1771">
        <ele>180.60059</ele>
        <time>2026-05-14T15:45:14+02:00</time>
      </trkpt>
      <trkpt lat="47.0634" lon="5.17711">
        <ele>180.60059</ele>
        <time>2026-05-14T15:45:15+02:00</time>
      </trkpt>
      <trkpt lat="47.0634" lon="5.17711">
        <ele>180.60059</ele>
        <time>2026-05-14T15:45:16+02:00</time>
      </trkpt>
      <trkpt lat="47.0634" lon="5.17711">
        <ele>180.60059</ele>
        <time>2026-05-14T15:45:17+02:00</time>
      </trkpt>
      <trkpt lat="47.0634" lon="5.17711">
        <ele>180.60059</ele>
        <time>2026-05-14T15:45:18+02:00</time>
      </trkpt>
      <trkpt lat="47.06345" lon="5.17737">
        <ele>180.5</ele>
        <time>2026-05-14T15:47:04+02:00</time>
      </trkpt>
      <trkpt lat="47.06347" lon="5.17743">
        <ele>180.2998</ele>
        <time>2026-05-14T15:47:05+02:00</time>
      </trkpt>
      <trkpt lat="47.06348" lon="5.17749">
        <ele>180.2998</ele>
        <time>2026-05-14T15:47:06+02:00</time>
      </trkpt>
      <trkpt lat="47.06349" lon="5.17756">
        <ele>180.2998</ele>
        <time>2026-05-14T15:47:07+02:00</time>
      </trkpt>
      <trkpt lat="47.0635" lon="5.17763">
        <ele>180.2998</ele>
        <time>2026-05-14T15:47:08+02:00</time>
      </trkpt>
      <trkpt lat="47.0635" lon="5.17769">
        <ele>180.2002</ele>
        <time>2026-05-14T15:47:09+02:00</time>
      </trkpt>
      <trkpt lat="47.06352" lon="5.17775">
        <ele>180.10059</ele>
        <time>2026-05-14T15:47:10+02:00</time>
      </trkpt>
      <trkpt lat="47.06353" lon="5.17781">
        <ele>180.10059</ele>
        <time>2026-05-14T15:47:11+02:00</time>
      </trkpt>
      <trkpt lat="47.06354" lon="5.17787">
        <ele>180.10059</ele>
        <time>2026-05-14T15:47:12+02:00</time>
      </trkpt>
      <trkpt lat="47.06354" lon="5.17793">
        <ele>180.10059</ele>
        <time>2026-05-14T15:47:13+02:00</time>
      </trkpt>
      <trkpt lat="47.06355" lon="5.17799">
        <ele>180.10059</ele>
        <time>2026-05-14T15:47:14+02:00</time>
      </trkpt>
      <trkpt lat="47.06355" lon="5.17805">
        <ele>180</ele>
        <time>2026-05-14T15:47:15+02:00</time>
      </trkpt>
      <trkpt lat="47.06356" lon="5.17811">
        <ele>180</ele>
        <time>2026-05-14T15:47:16+02:00</time>
      </trkpt>
      <trkpt lat="47.06357" lon="5.17818">
        <ele>179.90039</ele>
        <time>2026-05-14T15:47:17+02:00</time>
      </trkpt>
      <trkpt lat="47.06358" lon="5.17825">
        <ele>179.7998</ele>
        <time>2026-05-14T15:47:18+02:00</time>
      </trkpt>
      <trkpt lat="47.06359" lon="5.17832">
        <ele>179.7998</ele>
        <time>2026-05-14T15:47:19+02:00</time>
      </trkpt>
      <trkpt lat="47.0636" lon="5.17839">
        <ele>179.7002</ele>
        <time>2026-05-14T15:47:20+02:00</time>
      </trkpt>
      <trkpt lat="47.06362" lon="5.17846">
        <ele>179.7002</ele>
        <time>2026-05-14T15:47:21+02:00</time>
      </trkpt>
      <trkpt lat="47.06363" lon="5.17853">
        <ele>179.60059</ele>
        <time>2026-05-14T15:47:22+02:00</time>
      </trkpt>
      <trkpt lat="47.06363" lon="5.1786">
        <ele>179.60059</ele>
        <time>2026-05-14T15:47:23+02:00</time>
      </trkpt>
      <trkpt lat="47.06365" lon="5.17867">
        <ele>179.5</ele>
        <time>2026-05-14T15:47:24+02:00</time>
      </trkpt>
      <trkpt lat="47.06366" lon="5.17874">
        <ele>179.5</ele>
        <time>2026-05-14T15:47:25+02:00</time>
      </trkpt>
      <trkpt lat="47.06367" lon="5.17881">
        <ele>179.5</ele>
        <time>2026-05-14T15:47:26+02:00</time>
      </trkpt>
      <trkpt lat="47.06368" lon="5.17888">
        <ele>179.5</ele>
        <time>2026-05-14T15:47:27+02:00</time>
      </trkpt>
      <trkpt lat="47.06369" lon="5.17895">
        <ele>179.5</ele>
        <time>2026-05-14T15:47:28+02:00</time>
      </trkpt>
      <trkpt lat="47.0637" lon="5.17902">
        <ele>179.2998</ele>
        <time>2026-05-14T15:47:29+02:00</time>
      </trkpt>
      <trkpt lat="47.06371" lon="5.17909">
        <ele>179.2998</ele>
        <time>2026-05-14T15:47:30+02:00</time>
      </trkpt>
      <trkpt lat="47.06373" lon="5.17916">
        <ele>179.2002</ele>
        <time>2026-05-14T15:47:31+02:00</time>
      </trkpt>
      <trkpt lat="47.06374" lon="5.17923">
        <ele>179.2002</ele>
        <time>2026-05-14T15:47:32+02:00</time>
      </trkpt>
      <trkpt lat="47.06375" lon="5.1793">
        <ele>179.10059</ele>
        <time>2026-05-14T15:47:33+02:00</time>
      </trkpt>
      <trkpt lat="47.06376" lon="5.17938">
        <ele>179.2002</ele>
        <time>2026-05-14T15:47:34+02:00</time>
      </trkpt>
      <trkpt lat="47.06377" lon="5.17945">
        <ele>179.2002</ele>
        <time>2026-05-14T15:47:35+02:00</time>
      </trkpt>
      <trkpt lat="47.06378" lon="5.17952">
        <ele>179.2998</ele>
        <time>2026-05-14T15:47:36+02:00</time>
      </trkpt>
      <trkpt lat="47.06379" lon="5.17959">
        <ele>179.2998</ele>
        <time>2026-05-14T15:47:37+02:00</time>
      </trkpt>
      <trkpt lat="47.0638" lon="5.17967">
        <ele>179.40039</ele>
        <time>2026-05-14T15:47:38+02:00</time>
      </trkpt>
      <trkpt lat="47.06381" lon="5.17974">
        <ele>179.40039</ele>
        <time>2026-05-14T15:47:39+02:00</time>
      </trkpt>
      <trkpt lat="47.06383" lon="5.17982">
        <ele>179.5</ele>
        <time>2026-05-14T15:47:40+02:00</time>
      </trkpt>
      <trkpt lat="47.06383" lon="5.17989">
        <ele>179.60059</ele>
        <time>2026-05-14T15:47:41+02:00</time>
      </trkpt>
      <trkpt lat="47.06384" lon="5.17997">
        <ele>179.7002</ele>
        <time>2026-05-14T15:47:42+02:00</time>
      </trkpt>
      <trkpt lat="47.06386" lon="5.18005">
        <ele>179.7002</ele>
        <time>2026-05-14T15:47:43+02:00</time>
      </trkpt>
      <trkpt lat="47.06386" lon="5.18013">
        <ele>179.7002</ele>
        <time>2026-05-14T15:47:44+02:00</time>
      </trkpt>
      <trkpt lat="47.06387" lon="5.18021">
        <ele>179.90039</ele>
        <time>2026-05-14T15:47:45+02:00</time>
      </trkpt>
      <trkpt lat="47.06389" lon="5.18029">
        <ele>180</ele>
        <time>2026-05-14T15:47:46+02:00</time>
      </trkpt>
      <trkpt lat="47.06389" lon="5.18036">
        <ele>180.10059</ele>
        <time>2026-05-14T15:47:47+02:00</time>
      </trkpt>
      <trkpt lat="47.06391" lon="5.18045">
        <ele>180.2002</ele>
        <time>2026-05-14T15:47:48+02:00</time>
      </trkpt>
      <trkpt lat="47.06392" lon="5.18053">
        <ele>180.2998</ele>
        <time>2026-05-14T15:47:49+02:00</time>
      </trkpt>
      <trkpt lat="47.06393" lon="5.1806">
        <ele>180.40039</ele>
        <time>2026-05-14T15:47:50+02:00</time>
      </trkpt>
      <trkpt lat="47.06394" lon="5.18068">
        <ele>180.5</ele>
        <time>2026-05-14T15:47:51+02:00</time>
      </trkpt>
      <trkpt lat="47.06395" lon="5.18076">
        <ele>180.60059</ele>
        <time>2026-05-14T15:47:52+02:00</time>
      </trkpt>
      <trkpt lat="47.06396" lon="5.18084">
        <ele>180.7002</ele>
        <time>2026-05-14T15:47:53+02:00</time>
      </trkpt>
      <trkpt lat="47.06397" lon="5.18092">
        <ele>180.7002</ele>
        <time>2026-05-14T15:47:54+02:00</time>
      </trkpt>
      <trkpt lat="47.06398" lon="5.181">
        <ele>180.7002</ele>
        <time>2026-05-14T15:47:55+02:00</time>
      </trkpt>
      <trkpt lat="47.064" lon="5.18107">
        <ele>180.60059</ele>
        <time>2026-05-14T15:47:56+02:00</time>
      </trkpt>
      <trkpt lat="47.06401" lon="5.18115">
        <ele>180.7002</ele>
        <time>2026-05-14T15:47:57+02:00</time>
      </trkpt>
      <trkpt lat="47.06402" lon="5.18123">
        <ele>180.7002</ele>
        <time>2026-05-14T15:47:58+02:00</time>
      </trkpt>
      <trkpt lat="47.06403" lon="5.18131">
        <ele>180.7998</ele>
        <time>2026-05-14T15:47:59+02:00</time>
      </trkpt>
      <trkpt lat="47.06404" lon="5.18139">
        <ele>180.90039</ele>
        <time>2026-05-14T15:48:00+02:00</time>
      </trkpt>
      <trkpt lat="47.06406" lon="5.18147">
        <ele>181</ele>
        <time>2026-05-14T15:48:01+02:00</time>
      </trkpt>
      <trkpt lat="47.06407" lon="5.18155">
        <ele>181</ele>
        <time>2026-05-14T15:48:02+02:00</time>
      </trkpt>
      <trkpt lat="47.06408" lon="5.18163">
        <ele>181.10059</ele>
        <time>2026-05-14T15:48:03+02:00</time>
      </trkpt>
      <trkpt lat="47.06409" lon="5.1817">
        <ele>181.10059</ele>
        <time>2026-05-14T15:48:04+02:00</time>
      </trkpt>
      <trkpt lat="47.06411" lon="5.18178">
        <ele>181</ele>
        <time>2026-05-14T15:48:05+02:00</time>
      </trkpt>
      <trkpt lat="47.06412" lon="5.18186">
        <ele>181</ele>
        <time>2026-05-14T15:48:06+02:00</time>
      </trkpt>
      <trkpt lat="47.06413" lon="5.18194">
        <ele>181</ele>
        <time>2026-05-14T15:48:07+02:00</time>
      </trkpt>
      <trkpt lat="47.06414" lon="5.18202">
        <ele>180.90039</ele>
        <time>2026-05-14T15:48:08+02:00</time>
      </trkpt>
      <trkpt lat="47.06415" lon="5.18209">
        <ele>180.7998</ele>
        <time>2026-05-14T15:48:09+02:00</time>
      </trkpt>
      <trkpt lat="47.06417" lon="5.18217">
        <ele>180.7998</ele>
        <time>2026-05-14T15:48:10+02:00</time>
      </trkpt>
      <trkpt lat="47.06418" lon="5.18225">
        <ele>180.7998</ele>
        <time>2026-05-14T15:48:11+02:00</time>
      </trkpt>
      <trkpt lat="47.06419" lon="5.18233">
        <ele>180.60059</ele>
        <time>2026-05-14T15:48:12+02:00</time>
      </trkpt>
      <trkpt lat="47.0642" lon="5.18241">
        <ele>180.5</ele>
        <time>2026-05-14T15:48:13+02:00</time>
      </trkpt>
      <trkpt lat="47.06421" lon="5.1825">
        <ele>180.40039</ele>
        <time>2026-05-14T15:48:14+02:00</time>
      </trkpt>
      <trkpt lat="47.06423" lon="5.18258">
        <ele>180.40039</ele>
        <time>2026-05-14T15:48:15+02:00</time>
      </trkpt>
      <trkpt lat="47.06424" lon="5.18267">
        <ele>180.2998</ele>
        <time>2026-05-14T15:48:16+02:00</time>
      </trkpt>
      <trkpt lat="47.06425" lon="5.18275">
        <ele>180.10059</ele>
        <time>2026-05-14T15:48:17+02:00</time>
      </trkpt>
      <trkpt lat="47.06426" lon="5.18284">
        <ele>179.90039</ele>
        <time>2026-05-14T15:48:18+02:00</time>
      </trkpt>
      <trkpt lat="47.06428" lon="5.18292">
        <ele>179.7998</ele>
        <time>2026-05-14T15:48:19+02:00</time>
      </trkpt>
      <trkpt lat="47.06429" lon="5.18301">
        <ele>179.60059</ele>
        <time>2026-05-14T15:48:20+02:00</time>
      </trkpt>
      <trkpt lat="47.06431" lon="5.18309">
        <ele>179.5</ele>
        <time>2026-05-14T15:48:21+02:00</time>
      </trkpt>
      <trkpt lat="47.06432" lon="5.18318">
        <ele>179.2998</ele>
        <time>2026-05-14T15:48:22+02:00</time>
      </trkpt>
      <trkpt lat="47.06434" lon="5.18327">
        <ele>179.10059</ele>
        <time>2026-05-14T15:48:23+02:00</time>
      </trkpt>
      <trkpt lat="47.06435" lon="5.18335">
        <ele>179</ele>
        <time>2026-05-14T15:48:24+02:00</time>
      </trkpt>
      <trkpt lat="47.06436" lon="5.18344">
        <ele>179</ele>
        <time>2026-05-14T15:48:25+02:00</time>
      </trkpt>
      <trkpt lat="47.06437" lon="5.18352">
        <ele>178.90039</ele>
        <time>2026-05-14T15:48:26+02:00</time>
      </trkpt>
      <trkpt lat="47.06439" lon="5.18361">
        <ele>178.90039</ele>
        <time>2026-05-14T15:48:27+02:00</time>
      </trkpt>
      <trkpt lat="47.0644" lon="5.18369">
        <ele>178.7998</ele>
        <time>2026-05-14T15:48:28+02:00</time>
      </trkpt>
      <trkpt lat="47.06442" lon="5.18377">
        <ele>178.90039</ele>
        <time>2026-05-14T15:48:29+02:00</time>
      </trkpt>
      <trkpt lat="47.06443" lon="5.18386">
        <ele>179</ele>
        <time>2026-05-14T15:48:30+02:00</time>
      </trkpt>
      <trkpt lat="47.06444" lon="5.18394">
        <ele>179</ele>
        <time>2026-05-14T15:48:31+02:00</time>
      </trkpt>
      <trkpt lat="47.06445" lon="5.18402">
        <ele>179.10059</ele>
        <time>2026-05-14T15:48:32+02:00</time>
      </trkpt>
      <trkpt lat="47.06447" lon="5.1841">
        <ele>179.2002</ele>
        <time>2026-05-14T15:48:33+02:00</time>
      </trkpt>
      <trkpt lat="47.06448" lon="5.18418">
        <ele>179.2998</ele>
        <time>2026-05-14T15:48:34+02:00</time>
      </trkpt>
      <trkpt lat="47.06449" lon="5.18426">
        <ele>179.2998</ele>
        <time>2026-05-14T15:48:35+02:00</time>
      </trkpt>
      <trkpt lat="47.0645" lon="5.18434">
        <ele>179.2998</ele>
        <time>2026-05-14T15:48:36+02:00</time>
      </trkpt>
      <trkpt lat="47.06452" lon="5.18441">
        <ele>179.5</ele>
        <time>2026-05-14T15:48:37+02:00</time>
      </trkpt>
      <trkpt lat="47.06452" lon="5.18449">
        <ele>179.5</ele>
        <time>2026-05-14T15:48:38+02:00</time>
      </trkpt>
      <trkpt lat="47.06453" lon="5.18456">
        <ele>179.60059</ele>
        <time>2026-05-14T15:48:39+02:00</time>
      </trkpt>
      <trkpt lat="47.06454" lon="5.18464">
        <ele>179.60059</ele>
        <time>2026-05-14T15:48:40+02:00</time>
      </trkpt>
      <trkpt lat="47.06455" lon="5.18473">
        <ele>179.7002</ele>
        <time>2026-05-14T15:48:41+02:00</time>
      </trkpt>
      <trkpt lat="47.06455" lon="5.18481">
        <ele>179.7002</ele>
        <time>2026-05-14T15:48:42+02:00</time>
      </trkpt>
      <trkpt lat="47.06456" lon="5.18489">
        <ele>179.7002</ele>
        <time>2026-05-14T15:48:43+02:00</time>
      </trkpt>
      <trkpt lat="47.06456" lon="5.18497">
        <ele>179.7002</ele>
        <time>2026-05-14T15:48:44+02:00</time>
      </trkpt>
      <trkpt lat="47.06457" lon="5.18505">
        <ele>179.90039</ele>
        <time>2026-05-14T15:48:45+02:00</time>
      </trkpt>
      <trkpt lat="47.06457" lon="5.18513">
        <ele>179.90039</ele>
        <time>2026-05-14T15:48:46+02:00</time>
      </trkpt>
      <trkpt lat="47.06457" lon="5.18521">
        <ele>179.90039</ele>
        <time>2026-05-14T15:48:47+02:00</time>
      </trkpt>
      <trkpt lat="47.06457" lon="5.18528">
        <ele>179.90039</ele>
        <time>2026-05-14T15:48:48+02:00</time>
      </trkpt>
      <trkpt lat="47.06457" lon="5.18537">
        <ele>179.90039</ele>
        <time>2026-05-14T15:48:49+02:00</time>
      </trkpt>
      <trkpt lat="47.06457" lon="5.18545">
        <ele>179.7998</ele>
        <time>2026-05-14T15:48:50+02:00</time>
      </trkpt>
      <trkpt lat="47.06457" lon="5.18553">
        <ele>179.7998</ele>
        <time>2026-05-14T15:48:51+02:00</time>
      </trkpt>
      <trkpt lat="47.06457" lon="5.1856">
        <ele>179.7998</ele>
        <time>2026-05-14T15:48:52+02:00</time>
      </trkpt>
      <trkpt lat="47.06458" lon="5.18569">
        <ele>179.7998</ele>
        <time>2026-05-14T15:48:53+02:00</time>
      </trkpt>
      <trkpt lat="47.06458" lon="5.18576">
        <ele>179.7002</ele>
        <time>2026-05-14T15:48:54+02:00</time>
      </trkpt>
      <trkpt lat="47.06458" lon="5.18584">
        <ele>179.7002</ele>
        <time>2026-05-14T15:48:55+02:00</time>
      </trkpt>
      <trkpt lat="47.06458" lon="5.18592">
        <ele>179.60059</ele>
        <time>2026-05-14T15:48:56+02:00</time>
      </trkpt>
      <trkpt lat="47.06457" lon="5.186">
        <ele>179.60059</ele>
        <time>2026-05-14T15:48:57+02:00</time>
      </trkpt>
      <trkpt lat="47.06457" lon="5.18608">
        <ele>179.60059</ele>
        <time>2026-05-14T15:48:58+02:00</time>
      </trkpt>
      <trkpt lat="47.06457" lon="5.18616">
        <ele>179.5</ele>
        <time>2026-05-14T15:48:59+02:00</time>
      </trkpt>
      <trkpt lat="47.06456" lon="5.18624">
        <ele>179.5</ele>
        <time>2026-05-14T15:49:00+02:00</time>
      </trkpt>
      <trkpt lat="47.06456" lon="5.18632">
        <ele>179.5</ele>
        <time>2026-05-14T15:49:01+02:00</time>
      </trkpt>
      <trkpt lat="47.06456" lon="5.18641">
        <ele>179.5</ele>
        <time>2026-05-14T15:49:02+02:00</time>
      </trkpt>
      <trkpt lat="47.06455" lon="5.18649">
        <ele>179.5</ele>
        <time>2026-05-14T15:49:03+02:00</time>
      </trkpt>
      <trkpt lat="47.06455" lon="5.18657">
        <ele>179.60059</ele>
        <time>2026-05-14T15:49:04+02:00</time>
      </trkpt>
      <trkpt lat="47.06455" lon="5.18665">
        <ele>179.7998</ele>
        <time>2026-05-14T15:49:05+02:00</time>
      </trkpt>
      <trkpt lat="47.06455" lon="5.18673">
        <ele>179.90039</ele>
        <time>2026-05-14T15:49:06+02:00</time>
      </trkpt>
      <trkpt lat="47.06455" lon="5.18681">
        <ele>180</ele>
        <time>2026-05-14T15:49:07+02:00</time>
      </trkpt>
      <trkpt lat="47.06455" lon="5.18689">
        <ele>180.10059</ele>
        <time>2026-05-14T15:49:08+02:00</time>
      </trkpt>
      <trkpt lat="47.06454" lon="5.18697">
        <ele>180.2002</ele>
        <time>2026-05-14T15:49:09+02:00</time>
      </trkpt>
      <trkpt lat="47.06454" lon="5.18706">
        <ele>180.2002</ele>
        <time>2026-05-14T15:49:10+02:00</time>
      </trkpt>
      <trkpt lat="47.06453" lon="5.18714">
        <ele>180.2998</ele>
        <time>2026-05-14T15:49:11+02:00</time>
      </trkpt>
      <trkpt lat="47.06453" lon="5.18722">
        <ele>180.2998</ele>
        <time>2026-05-14T15:49:12+02:00</time>
      </trkpt>
      <trkpt lat="47.06452" lon="5.1873">
        <ele>180.40039</ele>
        <time>2026-05-14T15:49:13+02:00</time>
      </trkpt>
      <trkpt lat="47.06452" lon="5.18739">
        <ele>180.40039</ele>
        <time>2026-05-14T15:49:14+02:00</time>
      </trkpt>
      <trkpt lat="47.06451" lon="5.18747">
        <ele>180.5</ele>
        <time>2026-05-14T15:49:15+02:00</time>
      </trkpt>
      <trkpt lat="47.0645" lon="5.18756">
        <ele>180.2998</ele>
        <time>2026-05-14T15:49:16+02:00</time>
      </trkpt>
      <trkpt lat="47.06449" lon="5.18764">
        <ele>180.2998</ele>
        <time>2026-05-14T15:49:17+02:00</time>
      </trkpt>
      <trkpt lat="47.06448" lon="5.18771">
        <ele>180.10059</ele>
        <time>2026-05-14T15:49:18+02:00</time>
      </trkpt>
      <trkpt lat="47.06448" lon="5.18779">
        <ele>179.5</ele>
        <time>2026-05-14T15:49:19+02:00</time>
      </trkpt>
      <trkpt lat="47.06447" lon="5.18787">
        <ele>178.90039</ele>
        <time>2026-05-14T15:49:20+02:00</time>
      </trkpt>
      <trkpt lat="47.06447" lon="5.18795">
        <ele>178.90039</ele>
        <time>2026-05-14T15:49:21+02:00</time>
      </trkpt>
      <trkpt lat="47.06446" lon="5.18803">
        <ele>178.5</ele>
        <time>2026-05-14T15:49:22+02:00</time>
      </trkpt>
      <trkpt lat="47.06445" lon="5.18811">
        <ele>179.5</ele>
        <time>2026-05-14T15:49:23+02:00</time>
      </trkpt>
      <trkpt lat="47.06443" lon="5.18819">
        <ele>179.5</ele>
        <time>2026-05-14T15:49:24+02:00</time>
      </trkpt>
      <trkpt lat="47.06442" lon="5.18826">
        <ele>179.5</ele>
        <time>2026-05-14T15:49:25+02:00</time>
      </trkpt>
      <trkpt lat="47.06441" lon="5.18834">
        <ele>179.60059</ele>
        <time>2026-05-14T15:49:26+02:00</time>
      </trkpt>
      <trkpt lat="47.0644" lon="5.18842">
        <ele>179.7002</ele>
        <time>2026-05-14T15:49:27+02:00</time>
      </trkpt>
      <trkpt lat="47.06439" lon="5.1885">
        <ele>180</ele>
        <time>2026-05-14T15:49:28+02:00</time>
      </trkpt>
      <trkpt lat="47.06437" lon="5.18857">
        <ele>180.10059</ele>
        <time>2026-05-14T15:49:29+02:00</time>
      </trkpt>
      <trkpt lat="47.06436" lon="5.18865">
        <ele>180.10059</ele>
        <time>2026-05-14T15:49:30+02:00</time>
      </trkpt>
      <trkpt lat="47.06435" lon="5.18872">
        <ele>180.10059</ele>
        <time>2026-05-14T15:49:31+02:00</time>
      </trkpt>
      <trkpt lat="47.06434" lon="5.1888">
        <ele>180.2002</ele>
        <time>2026-05-14T15:49:32+02:00</time>
      </trkpt>
      <trkpt lat="47.06433" lon="5.18888">
        <ele>180.2002</ele>
        <time>2026-05-14T15:49:33+02:00</time>
      </trkpt>
      <trkpt lat="47.06432" lon="5.18896">
        <ele>180.2998</ele>
        <time>2026-05-14T15:49:34+02:00</time>
      </trkpt>
      <trkpt lat="47.0643" lon="5.18904">
        <ele>180.40039</ele>
        <time>2026-05-14T15:49:35+02:00</time>
      </trkpt>
      <trkpt lat="47.0643" lon="5.18911">
        <ele>180.5</ele>
        <time>2026-05-14T15:49:36+02:00</time>
      </trkpt>
      <trkpt lat="47.06428" lon="5.18919">
        <ele>180.5</ele>
        <time>2026-05-14T15:49:37+02:00</time>
      </trkpt>
      <trkpt lat="47.06427" lon="5.18926">
        <ele>180.40039</ele>
        <time>2026-05-14T15:49:38+02:00</time>
      </trkpt>
      <trkpt lat="47.06425" lon="5.18934">
        <ele>180.5</ele>
        <time>2026-05-14T15:49:39+02:00</time>
      </trkpt>
      <trkpt lat="47.06423" lon="5.18943">
        <ele>180.5</ele>
        <time>2026-05-14T15:49:40+02:00</time>
      </trkpt>
      <trkpt lat="47.06421" lon="5.18951">
        <ele>180.5</ele>
        <time>2026-05-14T15:49:41+02:00</time>
      </trkpt>
      <trkpt lat="47.06419" lon="5.18959">
        <ele>180.5</ele>
        <time>2026-05-14T15:49:42+02:00</time>
      </trkpt>
      <trkpt lat="47.06417" lon="5.18967">
        <ele>180.60059</ele>
        <time>2026-05-14T15:49:43+02:00</time>
      </trkpt>
      <trkpt lat="47.06415" lon="5.18975">
        <ele>180.40039</ele>
        <time>2026-05-14T15:49:44+02:00</time>
      </trkpt>
      <trkpt lat="47.06413" lon="5.18983">
        <ele>180.5</ele>
        <time>2026-05-14T15:49:45+02:00</time>
      </trkpt>
      <trkpt lat="47.06412" lon="5.18991">
        <ele>180.5</ele>
        <time>2026-05-14T15:49:46+02:00</time>
      </trkpt>
      <trkpt lat="47.0641" lon="5.18999">
        <ele>180.40039</ele>
        <time>2026-05-14T15:49:47+02:00</time>
      </trkpt>
      <trkpt lat="47.06408" lon="5.19007">
        <ele>180.5</ele>
        <time>2026-05-14T15:49:48+02:00</time>
      </trkpt>
      <trkpt lat="47.06406" lon="5.19015">
        <ele>180.60059</ele>
        <time>2026-05-14T15:49:49+02:00</time>
      </trkpt>
      <trkpt lat="47.06404" lon="5.19023">
        <ele>180.7002</ele>
        <time>2026-05-14T15:49:50+02:00</time>
      </trkpt>
      <trkpt lat="47.06402" lon="5.1903">
        <ele>180.90039</ele>
        <time>2026-05-14T15:49:51+02:00</time>
      </trkpt>
      <trkpt lat="47.064" lon="5.19038">
        <ele>181.10059</ele>
        <time>2026-05-14T15:49:52+02:00</time>
      </trkpt>
      <trkpt lat="47.06399" lon="5.19046">
        <ele>181.2002</ele>
        <time>2026-05-14T15:49:53+02:00</time>
      </trkpt>
      <trkpt lat="47.06397" lon="5.19053">
        <ele>181.40039</ele>
        <time>2026-05-14T15:49:54+02:00</time>
      </trkpt>
      <trkpt lat="47.06395" lon="5.19061">
        <ele>181.40039</ele>
        <time>2026-05-14T15:49:55+02:00</time>
      </trkpt>
      <trkpt lat="47.06394" lon="5.19068">
        <ele>181.60059</ele>
        <time>2026-05-14T15:49:56+02:00</time>
      </trkpt>
      <trkpt lat="47.06392" lon="5.19076">
        <ele>181.7002</ele>
        <time>2026-05-14T15:49:57+02:00</time>
      </trkpt>
      <trkpt lat="47.0639" lon="5.19084">
        <ele>181.7998</ele>
        <time>2026-05-14T15:49:58+02:00</time>
      </trkpt>
      <trkpt lat="47.06389" lon="5.19093">
        <ele>181.90039</ele>
        <time>2026-05-14T15:49:59+02:00</time>
      </trkpt>
      <trkpt lat="47.06387" lon="5.19101">
        <ele>182</ele>
        <time>2026-05-14T15:50:00+02:00</time>
      </trkpt>
      <trkpt lat="47.06385" lon="5.1911">
        <ele>182</ele>
        <time>2026-05-14T15:50:01+02:00</time>
      </trkpt>
      <trkpt lat="47.06384" lon="5.19119">
        <ele>182</ele>
        <time>2026-05-14T15:50:02+02:00</time>
      </trkpt>
      <trkpt lat="47.06382" lon="5.19128">
        <ele>182.10059</ele>
        <time>2026-05-14T15:50:03+02:00</time>
      </trkpt>
      <trkpt lat="47.06381" lon="5.19137">
        <ele>182.10059</ele>
        <time>2026-05-14T15:50:04+02:00</time>
      </trkpt>
      <trkpt lat="47.0638" lon="5.19145">
        <ele>182.10059</ele>
        <time>2026-05-14T15:50:05+02:00</time>
      </trkpt>
      <trkpt lat="47.06379" lon="5.19154">
        <ele>182.2002</ele>
        <time>2026-05-14T15:50:06+02:00</time>
      </trkpt>
      <trkpt lat="47.06378" lon="5.19162">
        <ele>182.2002</ele>
        <time>2026-05-14T15:50:07+02:00</time>
      </trkpt>
      <trkpt lat="47.06378" lon="5.19169">
        <ele>182.2002</ele>
        <time>2026-05-14T15:50:08+02:00</time>
      </trkpt>
      <trkpt lat="47.06377" lon="5.19175">
        <ele>182.2002</ele>
        <time>2026-05-14T15:50:09+02:00</time>
      </trkpt>
      <trkpt lat="47.06376" lon="5.19182">
        <ele>182.10059</ele>
        <time>2026-05-14T15:50:10+02:00</time>
      </trkpt>
      <trkpt lat="47.06376" lon="5.19188">
        <ele>182.10059</ele>
        <time>2026-05-14T15:50:11+02:00</time>
      </trkpt>
      <trkpt lat="47.06375" lon="5.19194">
        <ele>182.10059</ele>
        <time>2026-05-14T15:50:12+02:00</time>
      </trkpt>
      <trkpt lat="47.06374" lon="5.19201">
        <ele>182</ele>
        <time>2026-05-14T15:50:13+02:00</time>
      </trkpt>
      <trkpt lat="47.06374" lon="5.19208">
        <ele>182</ele>
        <time>2026-05-14T15:50:14+02:00</time>
      </trkpt>
      <trkpt lat="47.06374" lon="5.19215">
        <ele>182</ele>
        <time>2026-05-14T15:50:15+02:00</time>
      </trkpt>
      <trkpt lat="47.06374" lon="5.19221">
        <ele>181.90039</ele>
        <time>2026-05-14T15:50:16+02:00</time>
      </trkpt>
      <trkpt lat="47.06373" lon="5.19228">
        <ele>181.7998</ele>
        <time>2026-05-14T15:50:17+02:00</time>
      </trkpt>
      <trkpt lat="47.06373" lon="5.19234">
        <ele>181.7998</ele>
        <time>2026-05-14T15:50:18+02:00</time>
      </trkpt>
      <trkpt lat="47.06373" lon="5.19241">
        <ele>181.7998</ele>
        <time>2026-05-14T15:50:19+02:00</time>
      </trkpt>
      <trkpt lat="47.06373" lon="5.19247">
        <ele>181.7002</ele>
        <time>2026-05-14T15:50:20+02:00</time>
      </trkpt>
      <trkpt lat="47.06372" lon="5.19253">
        <ele>181.7002</ele>
        <time>2026-05-14T15:50:21+02:00</time>
      </trkpt>
      <trkpt lat="47.06371" lon="5.19259">
        <ele>181.60059</ele>
        <time>2026-05-14T15:50:22+02:00</time>
      </trkpt>
      <trkpt lat="47.06371" lon="5.19267">
        <ele>181.60059</ele>
        <time>2026-05-14T15:50:23+02:00</time>
      </trkpt>
      <trkpt lat="47.06371" lon="5.19274">
        <ele>181.60059</ele>
        <time>2026-05-14T15:50:24+02:00</time>
      </trkpt>
      <trkpt lat="47.0637" lon="5.19282">
        <ele>181.5</ele>
        <time>2026-05-14T15:50:25+02:00</time>
      </trkpt>
      <trkpt lat="47.0637" lon="5.19289">
        <ele>181.5</ele>
        <time>2026-05-14T15:50:26+02:00</time>
      </trkpt>
      <trkpt lat="47.06369" lon="5.19297">
        <ele>181.40039</ele>
        <time>2026-05-14T15:50:27+02:00</time>
      </trkpt>
      <trkpt lat="47.06369" lon="5.19304">
        <ele>181.2998</ele>
        <time>2026-05-14T15:50:28+02:00</time>
      </trkpt>
      <trkpt lat="47.06368" lon="5.19312">
        <ele>181.2998</ele>
        <time>2026-05-14T15:50:29+02:00</time>
      </trkpt>
      <trkpt lat="47.06368" lon="5.19319">
        <ele>181.2998</ele>
        <time>2026-05-14T15:50:30+02:00</time>
      </trkpt>
      <trkpt lat="47.06368" lon="5.19327">
        <ele>181.2998</ele>
        <time>2026-05-14T15:50:31+02:00</time>
      </trkpt>
      <trkpt lat="47.06367" lon="5.19334">
        <ele>181.2002</ele>
        <time>2026-05-14T15:50:32+02:00</time>
      </trkpt>
      <trkpt lat="47.06366" lon="5.19341">
        <ele>181.2002</ele>
        <time>2026-05-14T15:50:33+02:00</time>
      </trkpt>
      <trkpt lat="47.06366" lon="5.19348">
        <ele>181.2998</ele>
        <time>2026-05-14T15:50:34+02:00</time>
      </trkpt>
      <trkpt lat="47.06366" lon="5.19356">
        <ele>181.40039</ele>
        <time>2026-05-14T15:50:35+02:00</time>
      </trkpt>
      <trkpt lat="47.06366" lon="5.19363">
        <ele>181.2998</ele>
        <time>2026-05-14T15:50:36+02:00</time>
      </trkpt>
      <trkpt lat="47.06365" lon="5.1937">
        <ele>181.2998</ele>
        <time>2026-05-14T15:50:37+02:00</time>
      </trkpt>
      <trkpt lat="47.06365" lon="5.19377">
        <ele>181.10059</ele>
        <time>2026-05-14T15:50:38+02:00</time>
      </trkpt>
      <trkpt lat="47.06365" lon="5.19384">
        <ele>180.7002</ele>
        <time>2026-05-14T15:50:39+02:00</time>
      </trkpt>
      <trkpt lat="47.06365" lon="5.19391">
        <ele>180.2002</ele>
        <time>2026-05-14T15:50:40+02:00</time>
      </trkpt>
      <trkpt lat="47.06365" lon="5.19398">
        <ele>179.7002</ele>
        <time>2026-05-14T15:50:41+02:00</time>
      </trkpt>
      <trkpt lat="47.06365" lon="5.19404">
        <ele>179.7002</ele>
        <time>2026-05-14T15:50:42+02:00</time>
      </trkpt>
      <trkpt lat="47.06365" lon="5.19411">
        <ele>179.2002</ele>
        <time>2026-05-14T15:50:43+02:00</time>
      </trkpt>
      <trkpt lat="47.06364" lon="5.19417">
        <ele>178.7002</ele>
        <time>2026-05-14T15:50:44+02:00</time>
      </trkpt>
      <trkpt lat="47.06364" lon="5.19423">
        <ele>178.10059</ele>
        <time>2026-05-14T15:50:45+02:00</time>
      </trkpt>
      <trkpt lat="47.06364" lon="5.19429">
        <ele>178.10059</ele>
        <time>2026-05-14T15:50:46+02:00</time>
      </trkpt>
      <trkpt lat="47.06365" lon="5.19435">
        <ele>177.7998</ele>
        <time>2026-05-14T15:50:47+02:00</time>
      </trkpt>
      <trkpt lat="47.06365" lon="5.1944">
        <ele>177.5</ele>
        <time>2026-05-14T15:50:48+02:00</time>
      </trkpt>
      <trkpt lat="47.06366" lon="5.19446">
        <ele>177.5</ele>
        <time>2026-05-14T15:50:49+02:00</time>
      </trkpt>
      <trkpt lat="47.06366" lon="5.19451">
        <ele>177.2002</ele>
        <time>2026-05-14T15:50:50+02:00</time>
      </trkpt>
      <trkpt lat="47.06366" lon="5.19456">
        <ele>177.10059</ele>
        <time>2026-05-14T15:50:51+02:00</time>
      </trkpt>
      <trkpt lat="47.06366" lon="5.1946">
        <ele>177.10059</ele>
        <time>2026-05-14T15:50:52+02:00</time>
      </trkpt>
      <trkpt lat="47.06367" lon="5.19464">
        <ele>177.10059</ele>
        <time>2026-05-14T15:50:53+02:00</time>
      </trkpt>
      <trkpt lat="47.06367" lon="5.19468">
        <ele>177.10059</ele>
        <time>2026-05-14T15:50:54+02:00</time>
      </trkpt>
      <trkpt lat="47.06367" lon="5.19471">
        <ele>177.10059</ele>
        <time>2026-05-14T15:50:55+02:00</time>
      </trkpt>
      <trkpt lat="47.06367" lon="5.19473">
        <ele>177.10059</ele>
        <time>2026-05-14T15:50:56+02:00</time>
      </trkpt>
      <trkpt lat="47.06367" lon="5.19476">
        <ele>177</ele>
        <time>2026-05-14T15:50:57+02:00</time>
      </trkpt>
      <trkpt lat="47.06366" lon="5.19478">
        <ele>177</ele>
        <time>2026-05-14T15:50:58+02:00</time>
      </trkpt>
      <trkpt lat="47.06366" lon="5.1948">
        <ele>177</ele>
        <time>2026-05-14T15:50:59+02:00</time>
      </trkpt>
      <trkpt lat="47.06366" lon="5.19481">
        <ele>177</ele>
        <time>2026-05-14T15:51:00+02:00</time>
      </trkpt>
      <trkpt lat="47.06366" lon="5.19481">
        <ele>177</ele>
        <time>2026-05-14T15:51:01+02:00</time>
      </trkpt>
      <trkpt lat="47.06366" lon="5.19481">
        <ele>177</ele>
        <time>2026-05-14T15:51:02+02:00</time>
      </trkpt>
      <trkpt lat="47.06366" lon="5.19481">
        <ele>177</ele>
        <time>2026-05-14T15:51:03+02:00</time>
      </trkpt>
      <trkpt lat="47.06354" lon="5.19484">
        <ele>177.10059</ele>
        <time>2026-05-14T15:51:17+02:00</time>
      </trkpt>
      <trkpt lat="47.06352" lon="5.19483">
        <ele>177.10059</ele>
        <time>2026-05-14T15:51:18+02:00</time>
      </trkpt>
      <trkpt lat="47.0635" lon="5.19482">
        <ele>177.10059</ele>
        <time>2026-05-14T15:51:19+02:00</time>
      </trkpt>
      <trkpt lat="47.06348" lon="5.1948">
        <ele>177.10059</ele>
        <time>2026-05-14T15:51:20+02:00</time>
      </trkpt>
      <trkpt lat="47.06346" lon="5.19478">
        <ele>177.10059</ele>
        <time>2026-05-14T15:51:21+02:00</time>
      </trkpt>
      <trkpt lat="47.06343" lon="5.19476">
        <ele>177.10059</ele>
        <time>2026-05-14T15:51:22+02:00</time>
      </trkpt>
      <trkpt lat="47.06341" lon="5.19474">
        <ele>177.10059</ele>
        <time>2026-05-14T15:51:23+02:00</time>
      </trkpt>
      <trkpt lat="47.06338" lon="5.19472">
        <ele>177.10059</ele>
        <time>2026-05-14T15:51:24+02:00</time>
      </trkpt>
      <trkpt lat="47.06335" lon="5.1947">
        <ele>177.10059</ele>
        <time>2026-05-14T15:51:25+02:00</time>
      </trkpt>
      <trkpt lat="47.06332" lon="5.19467">
        <ele>177.10059</ele>
        <time>2026-05-14T15:51:26+02:00</time>
      </trkpt>
      <trkpt lat="47.06329" lon="5.19465">
        <ele>177.10059</ele>
        <time>2026-05-14T15:51:27+02:00</time>
      </trkpt>
      <trkpt lat="47.06326" lon="5.19462">
        <ele>177.10059</ele>
        <time>2026-05-14T15:51:28+02:00</time>
      </trkpt>
      <trkpt lat="47.06323" lon="5.19459">
        <ele>177.10059</ele>
        <time>2026-05-14T15:51:29+02:00</time>
      </trkpt>
      <trkpt lat="47.0632" lon="5.19456">
        <ele>177.10059</ele>
        <time>2026-05-14T15:51:30+02:00</time>
      </trkpt>
      <trkpt lat="47.06317" lon="5.19453">
        <ele>177.10059</ele>
        <time>2026-05-14T15:51:31+02:00</time>
      </trkpt>
      <trkpt lat="47.06314" lon="5.19451">
        <ele>177.10059</ele>
        <time>2026-05-14T15:51:32+02:00</time>
      </trkpt>
      <trkpt lat="47.06311" lon="5.19448">
        <ele>177.10059</ele>
        <time>2026-05-14T15:51:33+02:00</time>
      </trkpt>
      <trkpt lat="47.06307" lon="5.19444">
        <ele>177.10059</ele>
        <time>2026-05-14T15:51:34+02:00</time>
      </trkpt>
      <trkpt lat="47.06304" lon="5.19441">
        <ele>177.10059</ele>
        <time>2026-05-14T15:51:35+02:00</time>
      </trkpt>
      <trkpt lat="47.063" lon="5.19438">
        <ele>177.10059</ele>
        <time>2026-05-14T15:51:36+02:00</time>
      </trkpt>
      <trkpt lat="47.06297" lon="5.19434">
        <ele>177.10059</ele>
        <time>2026-05-14T15:51:37+02:00</time>
      </trkpt>
      <trkpt lat="47.06293" lon="5.19431">
        <ele>177.10059</ele>
        <time>2026-05-14T15:51:38+02:00</time>
      </trkpt>
      <trkpt lat="47.06289" lon="5.19427">
        <ele>177.10059</ele>
        <time>2026-05-14T15:51:39+02:00</time>
      </trkpt>
      <trkpt lat="47.06286" lon="5.19424">
        <ele>177.10059</ele>
        <time>2026-05-14T15:51:40+02:00</time>
      </trkpt>
      <trkpt lat="47.06282" lon="5.1942">
        <ele>177.10059</ele>
        <time>2026-05-14T15:51:41+02:00</time>
      </trkpt>
      <trkpt lat="47.06278" lon="5.19417">
        <ele>177.10059</ele>
        <time>2026-05-14T15:51:42+02:00</time>
      </trkpt>
      <trkpt lat="47.06275" lon="5.19413">
        <ele>177.10059</ele>
        <time>2026-05-14T15:51:43+02:00</time>
      </trkpt>
      <trkpt lat="47.06271" lon="5.19409">
        <ele>177.10059</ele>
        <time>2026-05-14T15:51:44+02:00</time>
      </trkpt>
      <trkpt lat="47.06267" lon="5.19406">
        <ele>177.10059</ele>
        <time>2026-05-14T15:51:45+02:00</time>
      </trkpt>
      <trkpt lat="47.06263" lon="5.19402">
        <ele>177.10059</ele>
        <time>2026-05-14T15:51:46+02:00</time>
      </trkpt>
      <trkpt lat="47.06259" lon="5.19399">
        <ele>177.10059</ele>
        <time>2026-05-14T15:51:47+02:00</time>
      </trkpt>
      <trkpt lat="47.06255" lon="5.19395">
        <ele>177.10059</ele>
        <time>2026-05-14T15:51:48+02:00</time>
      </trkpt>
      <trkpt lat="47.06251" lon="5.19391">
        <ele>177.10059</ele>
        <time>2026-05-14T15:51:49+02:00</time>
      </trkpt>
      <trkpt lat="47.06247" lon="5.19387">
        <ele>177.10059</ele>
        <time>2026-05-14T15:51:50+02:00</time>
      </trkpt>
      <trkpt lat="47.06244" lon="5.19383">
        <ele>177.10059</ele>
        <time>2026-05-14T15:51:51+02:00</time>
      </trkpt>
      <trkpt lat="47.06239" lon="5.19379">
        <ele>177.10059</ele>
        <time>2026-05-14T15:51:52+02:00</time>
      </trkpt>
      <trkpt lat="47.06236" lon="5.19376">
        <ele>177.10059</ele>
        <time>2026-05-14T15:51:53+02:00</time>
      </trkpt>
      <trkpt lat="47.06232" lon="5.19372">
        <ele>177.10059</ele>
        <time>2026-05-14T15:51:54+02:00</time>
      </trkpt>
      <trkpt lat="47.06228" lon="5.19368">
        <ele>177.10059</ele>
        <time>2026-05-14T15:51:55+02:00</time>
      </trkpt>
      <trkpt lat="47.06223" lon="5.19364">
        <ele>177.10059</ele>
        <time>2026-05-14T15:51:56+02:00</time>
      </trkpt>
      <trkpt lat="47.06219" lon="5.1936">
        <ele>177.10059</ele>
        <time>2026-05-14T15:51:57+02:00</time>
      </trkpt>
      <trkpt lat="47.06215" lon="5.19356">
        <ele>177.10059</ele>
        <time>2026-05-14T15:51:58+02:00</time>
      </trkpt>
      <trkpt lat="47.06211" lon="5.19352">
        <ele>177.10059</ele>
        <time>2026-05-14T15:51:59+02:00</time>
      </trkpt>
      <trkpt lat="47.06207" lon="5.19348">
        <ele>177.10059</ele>
        <time>2026-05-14T15:52:00+02:00</time>
      </trkpt>
      <trkpt lat="47.06203" lon="5.19344">
        <ele>177.10059</ele>
        <time>2026-05-14T15:52:01+02:00</time>
      </trkpt>
      <trkpt lat="47.06199" lon="5.1934">
        <ele>177.10059</ele>
        <time>2026-05-14T15:52:02+02:00</time>
      </trkpt>
      <trkpt lat="47.06195" lon="5.19336">
        <ele>177.10059</ele>
        <time>2026-05-14T15:52:03+02:00</time>
      </trkpt>
      <trkpt lat="47.0619" lon="5.19332">
        <ele>177.10059</ele>
        <time>2026-05-14T15:52:04+02:00</time>
      </trkpt>
      <trkpt lat="47.06186" lon="5.19328">
        <ele>177.10059</ele>
        <time>2026-05-14T15:52:05+02:00</time>
      </trkpt>
      <trkpt lat="47.06182" lon="5.19323">
        <ele>177.10059</ele>
        <time>2026-05-14T15:52:06+02:00</time>
      </trkpt>
      <trkpt lat="47.06178" lon="5.19319">
        <ele>177.10059</ele>
        <time>2026-05-14T15:52:07+02:00</time>
      </trkpt>
      <trkpt lat="47.06173" lon="5.19315">
        <ele>177.10059</ele>
        <time>2026-05-14T15:52:08+02:00</time>
      </trkpt>
      <trkpt lat="47.06169" lon="5.1931">
        <ele>177.10059</ele>
        <time>2026-05-14T15:52:09+02:00</time>
      </trkpt>
      <trkpt lat="47.06165" lon="5.19306">
        <ele>177.10059</ele>
        <time>2026-05-14T15:52:10+02:00</time>
      </trkpt>
      <trkpt lat="47.0616" lon="5.19302">
        <ele>177.10059</ele>
        <time>2026-05-14T15:52:11+02:00</time>
      </trkpt>
      <trkpt lat="47.06156" lon="5.19297">
        <ele>177.10059</ele>
        <time>2026-05-14T15:52:12+02:00</time>
      </trkpt>
      <trkpt lat="47.06152" lon="5.19293">
        <ele>177.10059</ele>
        <time>2026-05-14T15:52:13+02:00</time>
      </trkpt>
      <trkpt lat="47.06148" lon="5.19289">
        <ele>177.10059</ele>
        <time>2026-05-14T15:52:14+02:00</time>
      </trkpt>
      <trkpt lat="47.06143" lon="5.19285">
        <ele>177.10059</ele>
        <time>2026-05-14T15:52:15+02:00</time>
      </trkpt>
      <trkpt lat="47.06139" lon="5.19281">
        <ele>177.10059</ele>
        <time>2026-05-14T15:52:16+02:00</time>
      </trkpt>
      <trkpt lat="47.06135" lon="5.19277">
        <ele>177.10059</ele>
        <time>2026-05-14T15:52:17+02:00</time>
      </trkpt>
      <trkpt lat="47.06131" lon="5.19273">
        <ele>177.10059</ele>
        <time>2026-05-14T15:52:18+02:00</time>
      </trkpt>
      <trkpt lat="47.06127" lon="5.1927">
        <ele>177.10059</ele>
        <time>2026-05-14T15:52:19+02:00</time>
      </trkpt>
      <trkpt lat="47.06123" lon="5.19266">
        <ele>177.10059</ele>
        <time>2026-05-14T15:52:20+02:00</time>
      </trkpt>
      <trkpt lat="47.0612" lon="5.19262">
        <ele>177.10059</ele>
        <time>2026-05-14T15:52:21+02:00</time>
      </trkpt>
      <trkpt lat="47.06116" lon="5.19259">
        <ele>177.10059</ele>
        <time>2026-05-14T15:52:22+02:00</time>
      </trkpt>
      <trkpt lat="47.06112" lon="5.19255">
        <ele>177.10059</ele>
        <time>2026-05-14T15:52:23+02:00</time>
      </trkpt>
      <trkpt lat="47.06109" lon="5.19252">
        <ele>177.10059</ele>
        <time>2026-05-14T15:52:24+02:00</time>
      </trkpt>
      <trkpt lat="47.06104" lon="5.19248">
        <ele>177.10059</ele>
        <time>2026-05-14T15:52:25+02:00</time>
      </trkpt>
      <trkpt lat="47.06101" lon="5.19244">
        <ele>177.10059</ele>
        <time>2026-05-14T15:52:26+02:00</time>
      </trkpt>
      <trkpt lat="47.06096" lon="5.1924">
        <ele>177.10059</ele>
        <time>2026-05-14T15:52:27+02:00</time>
      </trkpt>
      <trkpt lat="47.06093" lon="5.19236">
        <ele>177.10059</ele>
        <time>2026-05-14T15:52:28+02:00</time>
      </trkpt>
      <trkpt lat="47.06088" lon="5.19231">
        <ele>177</ele>
        <time>2026-05-14T15:52:29+02:00</time>
      </trkpt>
      <trkpt lat="47.06084" lon="5.19227">
        <ele>177</ele>
        <time>2026-05-14T15:52:30+02:00</time>
      </trkpt>
      <trkpt lat="47.0608" lon="5.19223">
        <ele>176.90039</ele>
        <time>2026-05-14T15:52:31+02:00</time>
      </trkpt>
      <trkpt lat="47.06075" lon="5.19219">
        <ele>176.90039</ele>
        <time>2026-05-14T15:52:32+02:00</time>
      </trkpt>
      <trkpt lat="47.06071" lon="5.19215">
        <ele>176.90039</ele>
        <time>2026-05-14T15:52:33+02:00</time>
      </trkpt>
      <trkpt lat="47.06067" lon="5.19211">
        <ele>176.7998</ele>
        <time>2026-05-14T15:52:34+02:00</time>
      </trkpt>
      <trkpt lat="47.06062" lon="5.19207">
        <ele>176.7998</ele>
        <time>2026-05-14T15:52:35+02:00</time>
      </trkpt>
      <trkpt lat="47.06058" lon="5.19202">
        <ele>176.7998</ele>
        <time>2026-05-14T15:52:36+02:00</time>
      </trkpt>
      <trkpt lat="47.06054" lon="5.19198">
        <ele>176.7998</ele>
        <time>2026-05-14T15:52:37+02:00</time>
      </trkpt>
      <trkpt lat="47.06049" lon="5.19194">
        <ele>176.7998</ele>
        <time>2026-05-14T15:52:38+02:00</time>
      </trkpt>
      <trkpt lat="47.06045" lon="5.1919">
        <ele>176.60059</ele>
        <time>2026-05-14T15:52:39+02:00</time>
      </trkpt>
      <trkpt lat="47.0604" lon="5.19186">
        <ele>176.40039</ele>
        <time>2026-05-14T15:52:40+02:00</time>
      </trkpt>
      <trkpt lat="47.06036" lon="5.19182">
        <ele>176.40039</ele>
        <time>2026-05-14T15:52:41+02:00</time>
      </trkpt>
      <trkpt lat="47.06032" lon="5.19177">
        <ele>176.2002</ele>
        <time>2026-05-14T15:52:42+02:00</time>
      </trkpt>
      <trkpt lat="47.06027" lon="5.19173">
        <ele>176.10059</ele>
        <time>2026-05-14T15:52:43+02:00</time>
      </trkpt>
      <trkpt lat="47.06023" lon="5.19169">
        <ele>176</ele>
        <time>2026-05-14T15:52:44+02:00</time>
      </trkpt>
      <trkpt lat="47.06019" lon="5.19165">
        <ele>176</ele>
        <time>2026-05-14T15:52:45+02:00</time>
      </trkpt>
      <trkpt lat="47.06014" lon="5.19161">
        <ele>176</ele>
        <time>2026-05-14T15:52:46+02:00</time>
      </trkpt>
      <trkpt lat="47.0601" lon="5.19157">
        <ele>176</ele>
        <time>2026-05-14T15:52:47+02:00</time>
      </trkpt>
      <trkpt lat="47.06006" lon="5.19153">
        <ele>176.10059</ele>
        <time>2026-05-14T15:52:48+02:00</time>
      </trkpt>
      <trkpt lat="47.06002" lon="5.19149">
        <ele>176.10059</ele>
        <time>2026-05-14T15:52:49+02:00</time>
      </trkpt>
      <trkpt lat="47.05998" lon="5.19145">
        <ele>176.10059</ele>
        <time>2026-05-14T15:52:50+02:00</time>
      </trkpt>
      <trkpt lat="47.05993" lon="5.19141">
        <ele>176.10059</ele>
        <time>2026-05-14T15:52:51+02:00</time>
      </trkpt>
      <trkpt lat="47.0599" lon="5.19137">
        <ele>176.10059</ele>
        <time>2026-05-14T15:52:52+02:00</time>
      </trkpt>
      <trkpt lat="47.05985" lon="5.19133">
        <ele>176.10059</ele>
        <time>2026-05-14T15:52:53+02:00</time>
      </trkpt>
      <trkpt lat="47.05982" lon="5.19129">
        <ele>176.10059</ele>
        <time>2026-05-14T15:52:54+02:00</time>
      </trkpt>
      <trkpt lat="47.05977" lon="5.19125">
        <ele>176.2002</ele>
        <time>2026-05-14T15:52:55+02:00</time>
      </trkpt>
      <trkpt lat="47.05974" lon="5.19121">
        <ele>176.10059</ele>
        <time>2026-05-14T15:52:56+02:00</time>
      </trkpt>
      <trkpt lat="47.05969" lon="5.19117">
        <ele>176.2002</ele>
        <time>2026-05-14T15:52:57+02:00</time>
      </trkpt>
      <trkpt lat="47.05966" lon="5.19113">
        <ele>176.2002</ele>
        <time>2026-05-14T15:52:58+02:00</time>
      </trkpt>
      <trkpt lat="47.05961" lon="5.19109">
        <ele>176.10059</ele>
        <time>2026-05-14T15:52:59+02:00</time>
      </trkpt>
      <trkpt lat="47.05958" lon="5.19105">
        <ele>176.10059</ele>
        <time>2026-05-14T15:53:00+02:00</time>
      </trkpt>
      <trkpt lat="47.05953" lon="5.19101">
        <ele>176.10059</ele>
        <time>2026-05-14T15:53:01+02:00</time>
      </trkpt>
      <trkpt lat="47.05949" lon="5.19097">
        <ele>176.10059</ele>
        <time>2026-05-14T15:53:02+02:00</time>
      </trkpt>
      <trkpt lat="47.05945" lon="5.19093">
        <ele>176.10059</ele>
        <time>2026-05-14T15:53:03+02:00</time>
      </trkpt>
      <trkpt lat="47.05941" lon="5.19089">
        <ele>176.10059</ele>
        <time>2026-05-14T15:53:04+02:00</time>
      </trkpt>
      <trkpt lat="47.05937" lon="5.19085">
        <ele>176.10059</ele>
        <time>2026-05-14T15:53:05+02:00</time>
      </trkpt>
      <trkpt lat="47.05933" lon="5.19081">
        <ele>176.10059</ele>
        <time>2026-05-14T15:53:06+02:00</time>
      </trkpt>
      <trkpt lat="47.05929" lon="5.19077">
        <ele>176.10059</ele>
        <time>2026-05-14T15:53:07+02:00</time>
      </trkpt>
      <trkpt lat="47.05925" lon="5.19073">
        <ele>176.10059</ele>
        <time>2026-05-14T15:53:08+02:00</time>
      </trkpt>
      <trkpt lat="47.05921" lon="5.19069">
        <ele>176.10059</ele>
        <time>2026-05-14T15:53:09+02:00</time>
      </trkpt>
      <trkpt lat="47.05917" lon="5.19065">
        <ele>176.10059</ele>
        <time>2026-05-14T15:53:10+02:00</time>
      </trkpt>
      <trkpt lat="47.05913" lon="5.19061">
        <ele>176.10059</ele>
        <time>2026-05-14T15:53:11+02:00</time>
      </trkpt>
      <trkpt lat="47.05909" lon="5.19057">
        <ele>176.10059</ele>
        <time>2026-05-14T15:53:12+02:00</time>
      </trkpt>
      <trkpt lat="47.05905" lon="5.19052">
        <ele>176.10059</ele>
        <time>2026-05-14T15:53:13+02:00</time>
      </trkpt>
      <trkpt lat="47.05901" lon="5.19048">
        <ele>176.10059</ele>
        <time>2026-05-14T15:53:14+02:00</time>
      </trkpt>
      <trkpt lat="47.05897" lon="5.19044">
        <ele>176.10059</ele>
        <time>2026-05-14T15:53:15+02:00</time>
      </trkpt>
      <trkpt lat="47.05892" lon="5.1904">
        <ele>176.10059</ele>
        <time>2026-05-14T15:53:16+02:00</time>
      </trkpt>
      <trkpt lat="47.05888" lon="5.19036">
        <ele>176.10059</ele>
        <time>2026-05-14T15:53:17+02:00</time>
      </trkpt>
      <trkpt lat="47.05884" lon="5.19032">
        <ele>176.10059</ele>
        <time>2026-05-14T15:53:18+02:00</time>
      </trkpt>
      <trkpt lat="47.0588" lon="5.19028">
        <ele>176.10059</ele>
        <time>2026-05-14T15:53:19+02:00</time>
      </trkpt>
      <trkpt lat="47.05876" lon="5.19024">
        <ele>176.10059</ele>
        <time>2026-05-14T15:53:20+02:00</time>
      </trkpt>
      <trkpt lat="47.05871" lon="5.19019">
        <ele>176.10059</ele>
        <time>2026-05-14T15:53:21+02:00</time>
      </trkpt>
      <trkpt lat="47.05867" lon="5.19015">
        <ele>176.10059</ele>
        <time>2026-05-14T15:53:22+02:00</time>
      </trkpt>
      <trkpt lat="47.05863" lon="5.19011">
        <ele>176.10059</ele>
        <time>2026-05-14T15:53:23+02:00</time>
      </trkpt>
      <trkpt lat="47.05859" lon="5.19007">
        <ele>176.10059</ele>
        <time>2026-05-14T15:53:24+02:00</time>
      </trkpt>
      <trkpt lat="47.05855" lon="5.19003">
        <ele>176.10059</ele>
        <time>2026-05-14T15:53:25+02:00</time>
      </trkpt>
      <trkpt lat="47.0585" lon="5.18998">
        <ele>176.10059</ele>
        <time>2026-05-14T15:53:26+02:00</time>
      </trkpt>
      <trkpt lat="47.05846" lon="5.18994">
        <ele>176.10059</ele>
        <time>2026-05-14T15:53:27+02:00</time>
      </trkpt>
      <trkpt lat="47.05842" lon="5.1899">
        <ele>176.10059</ele>
        <time>2026-05-14T15:53:28+02:00</time>
      </trkpt>
      <trkpt lat="47.05838" lon="5.18986">
        <ele>176.10059</ele>
        <time>2026-05-14T15:53:29+02:00</time>
      </trkpt>
      <trkpt lat="47.05834" lon="5.18981">
        <ele>176.10059</ele>
        <time>2026-05-14T15:53:30+02:00</time>
      </trkpt>
      <trkpt lat="47.05829" lon="5.18977">
        <ele>176.10059</ele>
        <time>2026-05-14T15:53:31+02:00</time>
      </trkpt>
      <trkpt lat="47.05825" lon="5.18973">
        <ele>176.10059</ele>
        <time>2026-05-14T15:53:32+02:00</time>
      </trkpt>
      <trkpt lat="47.05821" lon="5.18969">
        <ele>176.10059</ele>
        <time>2026-05-14T15:53:33+02:00</time>
      </trkpt>
      <trkpt lat="47.05817" lon="5.18965">
        <ele>176.10059</ele>
        <time>2026-05-14T15:53:34+02:00</time>
      </trkpt>
      <trkpt lat="47.05813" lon="5.1896">
        <ele>176.10059</ele>
        <time>2026-05-14T15:53:35+02:00</time>
      </trkpt>
      <trkpt lat="47.05809" lon="5.18956">
        <ele>176.10059</ele>
        <time>2026-05-14T15:53:36+02:00</time>
      </trkpt>
      <trkpt lat="47.05804" lon="5.18952">
        <ele>176.10059</ele>
        <time>2026-05-14T15:53:37+02:00</time>
      </trkpt>
      <trkpt lat="47.058" lon="5.18948">
        <ele>176.10059</ele>
        <time>2026-05-14T15:53:38+02:00</time>
      </trkpt>
      <trkpt lat="47.05796" lon="5.18943">
        <ele>176.10059</ele>
        <time>2026-05-14T15:53:39+02:00</time>
      </trkpt>
      <trkpt lat="47.05792" lon="5.18939">
        <ele>176.10059</ele>
        <time>2026-05-14T15:53:40+02:00</time>
      </trkpt>
      <trkpt lat="47.05788" lon="5.18935">
        <ele>176.10059</ele>
        <time>2026-05-14T15:53:41+02:00</time>
      </trkpt>
      <trkpt lat="47.05784" lon="5.18931">
        <ele>176.10059</ele>
        <time>2026-05-14T15:53:42+02:00</time>
      </trkpt>
      <trkpt lat="47.05779" lon="5.18927">
        <ele>176.10059</ele>
        <time>2026-05-14T15:53:43+02:00</time>
      </trkpt>
      <trkpt lat="47.05776" lon="5.18923">
        <ele>176</ele>
        <time>2026-05-14T15:53:44+02:00</time>
      </trkpt>
      <trkpt lat="47.05763" lon="5.1891">
        <ele>176.10059</ele>
        <time>2026-05-14T15:53:45+02:00</time>
      </trkpt>
      <trkpt lat="47.05759" lon="5.18906">
        <ele>176.10059</ele>
        <time>2026-05-14T15:53:46+02:00</time>
      </trkpt>
      <trkpt lat="47.05755" lon="5.18902">
        <ele>176.10059</ele>
        <time>2026-05-14T15:53:47+02:00</time>
      </trkpt>
      <trkpt lat="47.05751" lon="5.18898">
        <ele>176.10059</ele>
        <time>2026-05-14T15:53:48+02:00</time>
      </trkpt>
      <trkpt lat="47.05747" lon="5.18894">
        <ele>176.10059</ele>
        <time>2026-05-14T15:53:49+02:00</time>
      </trkpt>
      <trkpt lat="47.05744" lon="5.1889">
        <ele>176.10059</ele>
        <time>2026-05-14T15:53:50+02:00</time>
      </trkpt>
      <trkpt lat="47.0574" lon="5.18887">
        <ele>176.10059</ele>
        <time>2026-05-14T15:53:51+02:00</time>
      </trkpt>
      <trkpt lat="47.05736" lon="5.18883">
        <ele>176.10059</ele>
        <time>2026-05-14T15:53:52+02:00</time>
      </trkpt>
      <trkpt lat="47.05732" lon="5.18879">
        <ele>176.10059</ele>
        <time>2026-05-14T15:53:53+02:00</time>
      </trkpt>
      <trkpt lat="47.05729" lon="5.18875">
        <ele>176.10059</ele>
        <time>2026-05-14T15:53:54+02:00</time>
      </trkpt>
      <trkpt lat="47.05725" lon="5.18871">
        <ele>176.10059</ele>
        <time>2026-05-14T15:53:55+02:00</time>
      </trkpt>
      <trkpt lat="47.05721" lon="5.18868">
        <ele>176.10059</ele>
        <time>2026-05-14T15:53:56+02:00</time>
      </trkpt>
      <trkpt lat="47.05718" lon="5.18864">
        <ele>176.10059</ele>
        <time>2026-05-14T15:53:57+02:00</time>
      </trkpt>
      <trkpt lat="47.05714" lon="5.1886">
        <ele>176.10059</ele>
        <time>2026-05-14T15:53:58+02:00</time>
      </trkpt>
      <trkpt lat="47.0571" lon="5.18856">
        <ele>176.10059</ele>
        <time>2026-05-14T15:53:59+02:00</time>
      </trkpt>
      <trkpt lat="47.05707" lon="5.18852">
        <ele>176.10059</ele>
        <time>2026-05-14T15:54:00+02:00</time>
      </trkpt>
      <trkpt lat="47.05703" lon="5.18849">
        <ele>176.10059</ele>
        <time>2026-05-14T15:54:01+02:00</time>
      </trkpt>
      <trkpt lat="47.05699" lon="5.18845">
        <ele>176.10059</ele>
        <time>2026-05-14T15:54:02+02:00</time>
      </trkpt>
      <trkpt lat="47.05696" lon="5.18841">
        <ele>176.10059</ele>
        <time>2026-05-14T15:54:03+02:00</time>
      </trkpt>
      <trkpt lat="47.05692" lon="5.18837">
        <ele>176.10059</ele>
        <time>2026-05-14T15:54:04+02:00</time>
      </trkpt>
      <trkpt lat="47.05688" lon="5.18834">
        <ele>176.10059</ele>
        <time>2026-05-14T15:54:05+02:00</time>
      </trkpt>
      <trkpt lat="47.05685" lon="5.1883">
        <ele>176.10059</ele>
        <time>2026-05-14T15:54:06+02:00</time>
      </trkpt>
      <trkpt lat="47.05681" lon="5.18826">
        <ele>176.10059</ele>
        <time>2026-05-14T15:54:07+02:00</time>
      </trkpt>
      <trkpt lat="47.05678" lon="5.18822">
        <ele>176.10059</ele>
        <time>2026-05-14T15:54:08+02:00</time>
      </trkpt>
      <trkpt lat="47.05674" lon="5.18818">
        <ele>176.10059</ele>
        <time>2026-05-14T15:54:09+02:00</time>
      </trkpt>
      <trkpt lat="47.0567" lon="5.18815">
        <ele>176.10059</ele>
        <time>2026-05-14T15:54:10+02:00</time>
      </trkpt>
      <trkpt lat="47.05666" lon="5.18811">
        <ele>176.10059</ele>
        <time>2026-05-14T15:54:11+02:00</time>
      </trkpt>
      <trkpt lat="47.05663" lon="5.18807">
        <ele>176.10059</ele>
        <time>2026-05-14T15:54:12+02:00</time>
      </trkpt>
      <trkpt lat="47.05659" lon="5.18804">
        <ele>176.10059</ele>
        <time>2026-05-14T15:54:13+02:00</time>
      </trkpt>
      <trkpt lat="47.05655" lon="5.18801">
        <ele>176.10059</ele>
        <time>2026-05-14T15:54:14+02:00</time>
      </trkpt>
      <trkpt lat="47.05651" lon="5.18797">
        <ele>176.10059</ele>
        <time>2026-05-14T15:54:15+02:00</time>
      </trkpt>
      <trkpt lat="47.05647" lon="5.18793">
        <ele>176.10059</ele>
        <time>2026-05-14T15:54:16+02:00</time>
      </trkpt>
      <trkpt lat="47.05644" lon="5.18789">
        <ele>176.10059</ele>
        <time>2026-05-14T15:54:17+02:00</time>
      </trkpt>
      <trkpt lat="47.0564" lon="5.18785">
        <ele>176.10059</ele>
        <time>2026-05-14T15:54:18+02:00</time>
      </trkpt>
      <trkpt lat="47.05636" lon="5.18782">
        <ele>176.10059</ele>
        <time>2026-05-14T15:54:19+02:00</time>
      </trkpt>
      <trkpt lat="47.05633" lon="5.18778">
        <ele>176.10059</ele>
        <time>2026-05-14T15:54:20+02:00</time>
      </trkpt>
      <trkpt lat="47.05629" lon="5.18774">
        <ele>176.10059</ele>
        <time>2026-05-14T15:54:21+02:00</time>
      </trkpt>
      <trkpt lat="47.05625" lon="5.1877">
        <ele>176.10059</ele>
        <time>2026-05-14T15:54:22+02:00</time>
      </trkpt>
      <trkpt lat="47.05622" lon="5.18766">
        <ele>176.10059</ele>
        <time>2026-05-14T15:54:23+02:00</time>
      </trkpt>
      <trkpt lat="47.05618" lon="5.18763">
        <ele>176.10059</ele>
        <time>2026-05-14T15:54:24+02:00</time>
      </trkpt>
      <trkpt lat="47.05615" lon="5.18759">
        <ele>176.10059</ele>
        <time>2026-05-14T15:54:25+02:00</time>
      </trkpt>
      <trkpt lat="47.05611" lon="5.18755">
        <ele>176.10059</ele>
        <time>2026-05-14T15:54:26+02:00</time>
      </trkpt>
      <trkpt lat="47.05607" lon="5.18751">
        <ele>176.10059</ele>
        <time>2026-05-14T15:54:27+02:00</time>
      </trkpt>
      <trkpt lat="47.05604" lon="5.18747">
        <ele>176.10059</ele>
        <time>2026-05-14T15:54:28+02:00</time>
      </trkpt>
      <trkpt lat="47.056" lon="5.18744">
        <ele>176.10059</ele>
        <time>2026-05-14T15:54:29+02:00</time>
      </trkpt>
      <trkpt lat="47.05597" lon="5.1874">
        <ele>176.10059</ele>
        <time>2026-05-14T15:54:30+02:00</time>
      </trkpt>
      <trkpt lat="47.05593" lon="5.18736">
        <ele>176.10059</ele>
        <time>2026-05-14T15:54:31+02:00</time>
      </trkpt>
      <trkpt lat="47.05589" lon="5.18733">
        <ele>176.10059</ele>
        <time>2026-05-14T15:54:32+02:00</time>
      </trkpt>
      <trkpt lat="47.05586" lon="5.18729">
        <ele>176.10059</ele>
        <time>2026-05-14T15:54:33+02:00</time>
      </trkpt>
      <trkpt lat="47.05582" lon="5.18725">
        <ele>176.10059</ele>
        <time>2026-05-14T15:54:34+02:00</time>
      </trkpt>
      <trkpt lat="47.05578" lon="5.18721">
        <ele>176.10059</ele>
        <time>2026-05-14T15:54:35+02:00</time>
      </trkpt>
      <trkpt lat="47.05575" lon="5.18717">
        <ele>176.10059</ele>
        <time>2026-05-14T15:54:36+02:00</time>
      </trkpt>
      <trkpt lat="47.05571" lon="5.18713">
        <ele>176.10059</ele>
        <time>2026-05-14T15:54:37+02:00</time>
      </trkpt>
      <trkpt lat="47.05567" lon="5.1871">
        <ele>176.10059</ele>
        <time>2026-05-14T15:54:38+02:00</time>
      </trkpt>
      <trkpt lat="47.05564" lon="5.18706">
        <ele>176.10059</ele>
        <time>2026-05-14T15:54:39+02:00</time>
      </trkpt>
      <trkpt lat="47.0556" lon="5.18702">
        <ele>176.10059</ele>
        <time>2026-05-14T15:54:40+02:00</time>
      </trkpt>
      <trkpt lat="47.05557" lon="5.18698">
        <ele>176.10059</ele>
        <time>2026-05-14T15:54:41+02:00</time>
      </trkpt>
      <trkpt lat="47.05553" lon="5.18694">
        <ele>176.10059</ele>
        <time>2026-05-14T15:54:42+02:00</time>
      </trkpt>
      <trkpt lat="47.0555" lon="5.18691">
        <ele>176.10059</ele>
        <time>2026-05-14T15:54:43+02:00</time>
      </trkpt>
      <trkpt lat="47.05546" lon="5.18687">
        <ele>176.10059</ele>
        <time>2026-05-14T15:54:44+02:00</time>
      </trkpt>
      <trkpt lat="47.05543" lon="5.18683">
        <ele>176.10059</ele>
        <time>2026-05-14T15:54:45+02:00</time>
      </trkpt>
      <trkpt lat="47.05539" lon="5.18679">
        <ele>176.10059</ele>
        <time>2026-05-14T15:54:46+02:00</time>
      </trkpt>
      <trkpt lat="47.05536" lon="5.18675">
        <ele>176.10059</ele>
        <time>2026-05-14T15:54:47+02:00</time>
      </trkpt>
      <trkpt lat="47.05532" lon="5.18672">
        <ele>176.10059</ele>
        <time>2026-05-14T15:54:48+02:00</time>
      </trkpt>
      <trkpt lat="47.05528" lon="5.18668">
        <ele>176.10059</ele>
        <time>2026-05-14T15:54:49+02:00</time>
      </trkpt>
      <trkpt lat="47.05525" lon="5.18664">
        <ele>176.10059</ele>
        <time>2026-05-14T15:54:50+02:00</time>
      </trkpt>
      <trkpt lat="47.05521" lon="5.1866">
        <ele>176.10059</ele>
        <time>2026-05-14T15:54:51+02:00</time>
      </trkpt>
      <trkpt lat="47.05518" lon="5.18656">
        <ele>176.10059</ele>
        <time>2026-05-14T15:54:52+02:00</time>
      </trkpt>
      <trkpt lat="47.05514" lon="5.18652">
        <ele>176.10059</ele>
        <time>2026-05-14T15:54:53+02:00</time>
      </trkpt>
      <trkpt lat="47.05511" lon="5.18648">
        <ele>176.10059</ele>
        <time>2026-05-14T15:54:54+02:00</time>
      </trkpt>
      <trkpt lat="47.05507" lon="5.18644">
        <ele>176.10059</ele>
        <time>2026-05-14T15:54:55+02:00</time>
      </trkpt>
      <trkpt lat="47.05504" lon="5.1864">
        <ele>176.10059</ele>
        <time>2026-05-14T15:54:56+02:00</time>
      </trkpt>
      <trkpt lat="47.055" lon="5.18636">
        <ele>176.10059</ele>
        <time>2026-05-14T15:54:57+02:00</time>
      </trkpt>
      <trkpt lat="47.05496" lon="5.18632">
        <ele>176.10059</ele>
        <time>2026-05-14T15:54:58+02:00</time>
      </trkpt>
      <trkpt lat="47.05492" lon="5.18629">
        <ele>176.10059</ele>
        <time>2026-05-14T15:54:59+02:00</time>
      </trkpt>
      <trkpt lat="47.05488" lon="5.18626">
        <ele>176.10059</ele>
        <time>2026-05-14T15:55:00+02:00</time>
      </trkpt>
      <trkpt lat="47.05484" lon="5.18622">
        <ele>176.10059</ele>
        <time>2026-05-14T15:55:01+02:00</time>
      </trkpt>
      <trkpt lat="47.0548" lon="5.18618">
        <ele>176.2002</ele>
        <time>2026-05-14T15:55:02+02:00</time>
      </trkpt>
      <trkpt lat="47.05477" lon="5.18615">
        <ele>176.2002</ele>
        <time>2026-05-14T15:55:03+02:00</time>
      </trkpt>
      <trkpt lat="47.05473" lon="5.18611">
        <ele>176.2002</ele>
        <time>2026-05-14T15:55:04+02:00</time>
      </trkpt>
      <trkpt lat="47.0547" lon="5.18607">
        <ele>176.2002</ele>
        <time>2026-05-14T15:55:05+02:00</time>
      </trkpt>
      <trkpt lat="47.05467" lon="5.18603">
        <ele>176.10059</ele>
        <time>2026-05-14T15:55:06+02:00</time>
      </trkpt>
      <trkpt lat="47.05464" lon="5.186">
        <ele>176.10059</ele>
        <time>2026-05-14T15:55:07+02:00</time>
      </trkpt>
      <trkpt lat="47.05461" lon="5.18596">
        <ele>176.10059</ele>
        <time>2026-05-14T15:55:08+02:00</time>
      </trkpt>
      <trkpt lat="47.05459" lon="5.18592">
        <ele>176.10059</ele>
        <time>2026-05-14T15:55:09+02:00</time>
      </trkpt>
      <trkpt lat="47.05459" lon="5.18587">
        <ele>176.10059</ele>
        <time>2026-05-14T15:55:10+02:00</time>
      </trkpt>
      <trkpt lat="47.0546" lon="5.18584">
        <ele>176.10059</ele>
        <time>2026-05-14T15:55:11+02:00</time>
      </trkpt>
      <trkpt lat="47.05462" lon="5.1858">
        <ele>176.10059</ele>
        <time>2026-05-14T15:55:12+02:00</time>
      </trkpt>
      <trkpt lat="47.05465" lon="5.18577">
        <ele>176.10059</ele>
        <time>2026-05-14T15:55:13+02:00</time>
      </trkpt>
      <trkpt lat="47.05469" lon="5.18575">
        <ele>176</ele>
        <time>2026-05-14T15:55:14+02:00</time>
      </trkpt>
      <trkpt lat="47.05472" lon="5.18572">
        <ele>176</ele>
        <time>2026-05-14T15:55:15+02:00</time>
      </trkpt>
      <trkpt lat="47.05477" lon="5.1857">
        <ele>176</ele>
        <time>2026-05-14T15:55:16+02:00</time>
      </trkpt>
      <trkpt lat="47.0548" lon="5.18567">
        <ele>176</ele>
        <time>2026-05-14T15:55:17+02:00</time>
      </trkpt>
      <trkpt lat="47.05484" lon="5.18563">
        <ele>176.10059</ele>
        <time>2026-05-14T15:55:18+02:00</time>
      </trkpt>
      <trkpt lat="47.05488" lon="5.1856">
        <ele>176.40039</ele>
        <time>2026-05-14T15:55:19+02:00</time>
      </trkpt>
      <trkpt lat="47.05492" lon="5.18557">
        <ele>176.7998</ele>
        <time>2026-05-14T15:55:20+02:00</time>
      </trkpt>
      <trkpt lat="47.05496" lon="5.18553">
        <ele>177.2002</ele>
        <time>2026-05-14T15:55:21+02:00</time>
      </trkpt>
      <trkpt lat="47.055" lon="5.18549">
        <ele>177.60059</ele>
        <time>2026-05-14T15:55:22+02:00</time>
      </trkpt>
      <trkpt lat="47.05504" lon="5.18545">
        <ele>178.2002</ele>
        <time>2026-05-14T15:55:23+02:00</time>
      </trkpt>
      <trkpt lat="47.05508" lon="5.18541">
        <ele>178.2002</ele>
        <time>2026-05-14T15:55:24+02:00</time>
      </trkpt>
      <trkpt lat="47.05512" lon="5.18538">
        <ele>178.60059</ele>
        <time>2026-05-14T15:55:25+02:00</time>
      </trkpt>
      <trkpt lat="47.05516" lon="5.18534">
        <ele>179.2998</ele>
        <time>2026-05-14T15:55:26+02:00</time>
      </trkpt>
      <trkpt lat="47.0552" lon="5.1853">
        <ele>179.2998</ele>
        <time>2026-05-14T15:55:27+02:00</time>
      </trkpt>
      <trkpt lat="47.05524" lon="5.18526">
        <ele>179.90039</ele>
        <time>2026-05-14T15:55:28+02:00</time>
      </trkpt>
      <trkpt lat="47.05528" lon="5.18522">
        <ele>179.90039</ele>
        <time>2026-05-14T15:55:29+02:00</time>
      </trkpt>
      <trkpt lat="47.05532" lon="5.18519">
        <ele>180.10059</ele>
        <time>2026-05-14T15:55:30+02:00</time>
      </trkpt>
      <trkpt lat="47.05536" lon="5.18515">
        <ele>180.10059</ele>
        <time>2026-05-14T15:55:31+02:00</time>
      </trkpt>
      <trkpt lat="47.05539" lon="5.18511">
        <ele>180</ele>
        <time>2026-05-14T15:55:32+02:00</time>
      </trkpt>
      <trkpt lat="47.05543" lon="5.18508">
        <ele>180</ele>
        <time>2026-05-14T15:55:33+02:00</time>
      </trkpt>
      <trkpt lat="47.05547" lon="5.18504">
        <ele>180</ele>
        <time>2026-05-14T15:55:34+02:00</time>
      </trkpt>
      <trkpt lat="47.05551" lon="5.185">
        <ele>180</ele>
        <time>2026-05-14T15:55:35+02:00</time>
      </trkpt>
      <trkpt lat="47.05555" lon="5.18497">
        <ele>180</ele>
        <time>2026-05-14T15:55:36+02:00</time>
      </trkpt>
      <trkpt lat="47.05558" lon="5.18493">
        <ele>180</ele>
        <time>2026-05-14T15:55:37+02:00</time>
      </trkpt>
      <trkpt lat="47.05562" lon="5.18489">
        <ele>180</ele>
        <time>2026-05-14T15:55:38+02:00</time>
      </trkpt>
      <trkpt lat="47.05565" lon="5.18486">
        <ele>180.10059</ele>
        <time>2026-05-14T15:55:39+02:00</time>
      </trkpt>
      <trkpt lat="47.05569" lon="5.18482">
        <ele>180.2002</ele>
        <time>2026-05-14T15:55:40+02:00</time>
      </trkpt>
      <trkpt lat="47.05572" lon="5.18478">
        <ele>180.2002</ele>
        <time>2026-05-14T15:55:41+02:00</time>
      </trkpt>
      <trkpt lat="47.05575" lon="5.18477">
        <ele>180.2002</ele>
        <time>2026-05-14T15:55:42+02:00</time>
      </trkpt>
      <trkpt lat="47.05579" lon="5.18477">
        <ele>180.2002</ele>
        <time>2026-05-14T15:55:43+02:00</time>
      </trkpt>
      <trkpt lat="47.05581" lon="5.18479">
        <ele>180.2998</ele>
        <time>2026-05-14T15:55:44+02:00</time>
      </trkpt>
      <trkpt lat="47.05582" lon="5.18482">
        <ele>180.2998</ele>
        <time>2026-05-14T15:55:45+02:00</time>
      </trkpt>
      <trkpt lat="47.05581" lon="5.18485">
        <ele>180.2998</ele>
        <time>2026-05-14T15:55:46+02:00</time>
      </trkpt>
      <trkpt lat="47.05579" lon="5.18487">
        <ele>180.2002</ele>
        <time>2026-05-14T15:55:47+02:00</time>
      </trkpt>
      <trkpt lat="47.05576" lon="5.18488">
        <ele>180.2002</ele>
        <time>2026-05-14T15:55:48+02:00</time>
      </trkpt>
      <trkpt lat="47.05573" lon="5.18491">
        <ele>180.2002</ele>
        <time>2026-05-14T15:55:49+02:00</time>
      </trkpt>
      <trkpt lat="47.0557" lon="5.18494">
        <ele>180.2002</ele>
        <time>2026-05-14T15:55:50+02:00</time>
      </trkpt>
      <trkpt lat="47.05567" lon="5.18497">
        <ele>180.10059</ele>
        <time>2026-05-14T15:55:51+02:00</time>
      </trkpt>
      <trkpt lat="47.05564" lon="5.18501">
        <ele>180.10059</ele>
        <time>2026-05-14T15:55:52+02:00</time>
      </trkpt>
      <trkpt lat="47.05561" lon="5.18504">
        <ele>180.10059</ele>
        <time>2026-05-14T15:55:53+02:00</time>
      </trkpt>
      <trkpt lat="47.05558" lon="5.18508">
        <ele>180.10059</ele>
        <time>2026-05-14T15:55:54+02:00</time>
      </trkpt>
      <trkpt lat="47.05554" lon="5.18512">
        <ele>180.10059</ele>
        <time>2026-05-14T15:55:55+02:00</time>
      </trkpt>
      <trkpt lat="47.05551" lon="5.18516">
        <ele>180.10059</ele>
        <time>2026-05-14T15:55:56+02:00</time>
      </trkpt>
      <trkpt lat="47.05547" lon="5.1852">
        <ele>180.10059</ele>
        <time>2026-05-14T15:55:57+02:00</time>
      </trkpt>
      <trkpt lat="47.05544" lon="5.18523">
        <ele>180.10059</ele>
        <time>2026-05-14T15:55:58+02:00</time>
      </trkpt>
      <trkpt lat="47.05541" lon="5.18527">
        <ele>180.10059</ele>
        <time>2026-05-14T15:55:59+02:00</time>
      </trkpt>
      <trkpt lat="47.05538" lon="5.18531">
        <ele>180.10059</ele>
        <time>2026-05-14T15:56:00+02:00</time>
      </trkpt>
      <trkpt lat="47.05534" lon="5.18535">
        <ele>180.10059</ele>
        <time>2026-05-14T15:56:01+02:00</time>
      </trkpt>
      <trkpt lat="47.05531" lon="5.18538">
        <ele>179.60059</ele>
        <time>2026-05-14T15:56:02+02:00</time>
      </trkpt>
      <trkpt lat="47.05527" lon="5.18542">
        <ele>179.60059</ele>
        <time>2026-05-14T15:56:03+02:00</time>
      </trkpt>
      <trkpt lat="47.05524" lon="5.18546">
        <ele>179.2998</ele>
        <time>2026-05-14T15:56:04+02:00</time>
      </trkpt>
      <trkpt lat="47.05521" lon="5.1855">
        <ele>178.60059</ele>
        <time>2026-05-14T15:56:05+02:00</time>
      </trkpt>
      <trkpt lat="47.05517" lon="5.18553">
        <ele>178.60059</ele>
        <time>2026-05-14T15:56:06+02:00</time>
      </trkpt>
      <trkpt lat="47.05514" lon="5.18557">
        <ele>177.90039</ele>
        <time>2026-05-14T15:56:07+02:00</time>
      </trkpt>
      <trkpt lat="47.05511" lon="5.18561">
        <ele>177.90039</ele>
        <time>2026-05-14T15:56:08+02:00</time>
      </trkpt>
      <trkpt lat="47.05507" lon="5.18564">
        <ele>177.2002</ele>
        <time>2026-05-14T15:56:09+02:00</time>
      </trkpt>
      <trkpt lat="47.05504" lon="5.18568">
        <ele>177.2002</ele>
        <time>2026-05-14T15:56:10+02:00</time>
      </trkpt>
      <trkpt lat="47.05501" lon="5.18572">
        <ele>176.5</ele>
        <time>2026-05-14T15:56:11+02:00</time>
      </trkpt>
      <trkpt lat="47.05498" lon="5.18575">
        <ele>176.5</ele>
        <time>2026-05-14T15:56:12+02:00</time>
      </trkpt>
      <trkpt lat="47.05494" lon="5.18579">
        <ele>176.2002</ele>
        <time>2026-05-14T15:56:13+02:00</time>
      </trkpt>
      <trkpt lat="47.05491" lon="5.18582">
        <ele>176</ele>
        <time>2026-05-14T15:56:14+02:00</time>
      </trkpt>
      <trkpt lat="47.05488" lon="5.18586">
        <ele>176</ele>
        <time>2026-05-14T15:56:15+02:00</time>
      </trkpt>
      <trkpt lat="47.05485" lon="5.18589">
        <ele>176.10059</ele>
        <time>2026-05-14T15:56:16+02:00</time>
      </trkpt>
      <trkpt lat="47.05481" lon="5.18593">
        <ele>176.10059</ele>
        <time>2026-05-14T15:56:17+02:00</time>
      </trkpt>
      <trkpt lat="47.05478" lon="5.18597">
        <ele>176.10059</ele>
        <time>2026-05-14T15:56:18+02:00</time>
      </trkpt>
      <trkpt lat="47.05475" lon="5.18601">
        <ele>176.10059</ele>
        <time>2026-05-14T15:56:19+02:00</time>
      </trkpt>
      <trkpt lat="47.05472" lon="5.18604">
        <ele>176.10059</ele>
        <time>2026-05-14T15:56:20+02:00</time>
      </trkpt>
      <trkpt lat="47.05468" lon="5.18608">
        <ele>176.2002</ele>
        <time>2026-05-14T15:56:21+02:00</time>
      </trkpt>
      <trkpt lat="47.05465" lon="5.18611">
        <ele>176.2002</ele>
        <time>2026-05-14T15:56:22+02:00</time>
      </trkpt>
      <trkpt lat="47.05462" lon="5.18615">
        <ele>176.40039</ele>
        <time>2026-05-14T15:56:23+02:00</time>
      </trkpt>
      <trkpt lat="47.05458" lon="5.18619">
        <ele>176.40039</ele>
        <time>2026-05-14T15:56:24+02:00</time>
      </trkpt>
      <trkpt lat="47.05455" lon="5.18623">
        <ele>176.5</ele>
        <time>2026-05-14T15:56:25+02:00</time>
      </trkpt>
      <trkpt lat="47.05451" lon="5.18627">
        <ele>176.90039</ele>
        <time>2026-05-14T15:56:26+02:00</time>
      </trkpt>
      <trkpt lat="47.05448" lon="5.18631">
        <ele>176.90039</ele>
        <time>2026-05-14T15:56:27+02:00</time>
      </trkpt>
      <trkpt lat="47.05444" lon="5.18635">
        <ele>177.5</ele>
        <time>2026-05-14T15:56:28+02:00</time>
      </trkpt>
      <trkpt lat="47.0544" lon="5.18639">
        <ele>177.5</ele>
        <time>2026-05-14T15:56:29+02:00</time>
      </trkpt>
      <trkpt lat="47.05436" lon="5.18643">
        <ele>178.60059</ele>
        <time>2026-05-14T15:56:30+02:00</time>
      </trkpt>
      <trkpt lat="47.05433" lon="5.18647">
        <ele>178.7002</ele>
        <time>2026-05-14T15:56:31+02:00</time>
      </trkpt>
      <trkpt lat="47.05429" lon="5.18652">
        <ele>179.60059</ele>
        <time>2026-05-14T15:56:32+02:00</time>
      </trkpt>
      <trkpt lat="47.05425" lon="5.18656">
        <ele>179.60059</ele>
        <time>2026-05-14T15:56:33+02:00</time>
      </trkpt>
      <trkpt lat="47.0542" lon="5.18661">
        <ele>180.10059</ele>
        <time>2026-05-14T15:56:34+02:00</time>
      </trkpt>
      <trkpt lat="47.05416" lon="5.18665">
        <ele>180.10059</ele>
        <time>2026-05-14T15:56:35+02:00</time>
      </trkpt>
      <trkpt lat="47.05412" lon="5.1867">
        <ele>180.2998</ele>
        <time>2026-05-14T15:56:36+02:00</time>
      </trkpt>
      <trkpt lat="47.05408" lon="5.18675">
        <ele>180.2998</ele>
        <time>2026-05-14T15:56:37+02:00</time>
      </trkpt>
      <trkpt lat="47.05403" lon="5.1868">
        <ele>180.2998</ele>
        <time>2026-05-14T15:56:38+02:00</time>
      </trkpt>
      <trkpt lat="47.05399" lon="5.18685">
        <ele>180.2002</ele>
        <time>2026-05-14T15:56:39+02:00</time>
      </trkpt>
      <trkpt lat="47.05394" lon="5.1869">
        <ele>180.2998</ele>
        <time>2026-05-14T15:56:40+02:00</time>
      </trkpt>
      <trkpt lat="47.0539" lon="5.18695">
        <ele>180.2998</ele>
        <time>2026-05-14T15:56:41+02:00</time>
      </trkpt>
      <trkpt lat="47.05385" lon="5.18699">
        <ele>180.5</ele>
        <time>2026-05-14T15:56:42+02:00</time>
      </trkpt>
      <trkpt lat="47.0538" lon="5.18705">
        <ele>180.5</ele>
        <time>2026-05-14T15:56:43+02:00</time>
      </trkpt>
      <trkpt lat="47.05375" lon="5.18711">
        <ele>180.60059</ele>
        <time>2026-05-14T15:56:44+02:00</time>
      </trkpt>
      <trkpt lat="47.0537" lon="5.18716">
        <ele>180.60059</ele>
        <time>2026-05-14T15:56:45+02:00</time>
      </trkpt>
      <trkpt lat="47.05365" lon="5.18722">
        <ele>180.7002</ele>
        <time>2026-05-14T15:56:46+02:00</time>
      </trkpt>
      <trkpt lat="47.0536" lon="5.18728">
        <ele>180.7998</ele>
        <time>2026-05-14T15:56:47+02:00</time>
      </trkpt>
      <trkpt lat="47.05354" lon="5.18734">
        <ele>181</ele>
        <time>2026-05-14T15:56:48+02:00</time>
      </trkpt>
      <trkpt lat="47.05349" lon="5.18741">
        <ele>181.10059</ele>
        <time>2026-05-14T15:56:49+02:00</time>
      </trkpt>
      <trkpt lat="47.05343" lon="5.18747">
        <ele>181.2998</ele>
        <time>2026-05-14T15:56:50+02:00</time>
      </trkpt>
      <trkpt lat="47.05337" lon="5.18753">
        <ele>181.5</ele>
        <time>2026-05-14T15:56:51+02:00</time>
      </trkpt>
      <trkpt lat="47.05332" lon="5.1876">
        <ele>181.60059</ele>
        <time>2026-05-14T15:56:52+02:00</time>
      </trkpt>
      <trkpt lat="47.05326" lon="5.18766">
        <ele>181.7998</ele>
        <time>2026-05-14T15:56:53+02:00</time>
      </trkpt>
      <trkpt lat="47.0532" lon="5.18772">
        <ele>181.90039</ele>
        <time>2026-05-14T15:56:54+02:00</time>
      </trkpt>
      <trkpt lat="47.05315" lon="5.18778">
        <ele>182</ele>
        <time>2026-05-14T15:56:55+02:00</time>
      </trkpt>
      <trkpt lat="47.05309" lon="5.18784">
        <ele>182.10059</ele>
        <time>2026-05-14T15:56:56+02:00</time>
      </trkpt>
      <trkpt lat="47.05304" lon="5.18791">
        <ele>182.2002</ele>
        <time>2026-05-14T15:56:57+02:00</time>
      </trkpt>
      <trkpt lat="47.05298" lon="5.18797">
        <ele>182.40039</ele>
        <time>2026-05-14T15:56:58+02:00</time>
      </trkpt>
      <trkpt lat="47.05293" lon="5.18803">
        <ele>182.5</ele>
        <time>2026-05-14T15:56:59+02:00</time>
      </trkpt>
      <trkpt lat="47.05287" lon="5.18809">
        <ele>182.60059</ele>
        <time>2026-05-14T15:57:00+02:00</time>
      </trkpt>
      <trkpt lat="47.05282" lon="5.18815">
        <ele>182.7002</ele>
        <time>2026-05-14T15:57:01+02:00</time>
      </trkpt>
      <trkpt lat="47.05277" lon="5.18821">
        <ele>182.90039</ele>
        <time>2026-05-14T15:57:02+02:00</time>
      </trkpt>
      <trkpt lat="47.05272" lon="5.18827">
        <ele>182.90039</ele>
        <time>2026-05-14T15:57:03+02:00</time>
      </trkpt>
      <trkpt lat="47.05267" lon="5.18833">
        <ele>183.10059</ele>
        <time>2026-05-14T15:57:04+02:00</time>
      </trkpt>
      <trkpt lat="47.05262" lon="5.18838">
        <ele>183.2002</ele>
        <time>2026-05-14T15:57:05+02:00</time>
      </trkpt>
      <trkpt lat="47.05258" lon="5.18844">
        <ele>183.2002</ele>
        <time>2026-05-14T15:57:06+02:00</time>
      </trkpt>
      <trkpt lat="47.05254" lon="5.1885">
        <ele>183.40039</ele>
        <time>2026-05-14T15:57:07+02:00</time>
      </trkpt>
      <trkpt lat="47.0525" lon="5.18853">
        <ele>183.40039</ele>
        <time>2026-05-14T15:57:08+02:00</time>
      </trkpt>
      <trkpt lat="47.05247" lon="5.18853">
        <ele>183.40039</ele>
        <time>2026-05-14T15:57:09+02:00</time>
      </trkpt>
      <trkpt lat="47.05245" lon="5.18851">
        <ele>183.40039</ele>
        <time>2026-05-14T15:57:10+02:00</time>
      </trkpt>
      <trkpt lat="47.05244" lon="5.18847">
        <ele>183.40039</ele>
        <time>2026-05-14T15:57:11+02:00</time>
      </trkpt>
      <trkpt lat="47.05245" lon="5.18843">
        <ele>183.2002</ele>
        <time>2026-05-14T15:57:12+02:00</time>
      </trkpt>
      <trkpt lat="47.05247" lon="5.18839">
        <ele>183.2002</ele>
        <time>2026-05-14T15:57:13+02:00</time>
      </trkpt>
      <trkpt lat="47.0525" lon="5.18836">
        <ele>183.10059</ele>
        <time>2026-05-14T15:57:14+02:00</time>
      </trkpt>
      <trkpt lat="47.05254" lon="5.18833">
        <ele>183.10059</ele>
        <time>2026-05-14T15:57:15+02:00</time>
      </trkpt>
      <trkpt lat="47.05257" lon="5.1883">
        <ele>183.10059</ele>
        <time>2026-05-14T15:57:16+02:00</time>
      </trkpt>
      <trkpt lat="47.05261" lon="5.18826">
        <ele>183</ele>
        <time>2026-05-14T15:57:17+02:00</time>
      </trkpt>
      <trkpt lat="47.05265" lon="5.18821">
        <ele>183</ele>
        <time>2026-05-14T15:57:18+02:00</time>
      </trkpt>
      <trkpt lat="47.05269" lon="5.18817">
        <ele>182.90039</ele>
        <time>2026-05-14T15:57:19+02:00</time>
      </trkpt>
      <trkpt lat="47.05272" lon="5.18811">
        <ele>182.7998</ele>
        <time>2026-05-14T15:57:20+02:00</time>
      </trkpt>
      <trkpt lat="47.05276" lon="5.18806">
        <ele>182.7002</ele>
        <time>2026-05-14T15:57:21+02:00</time>
      </trkpt>
      <trkpt lat="47.0528" lon="5.18801">
        <ele>182.60059</ele>
        <time>2026-05-14T15:57:22+02:00</time>
      </trkpt>
      <trkpt lat="47.05284" lon="5.18796">
        <ele>182.5</ele>
        <time>2026-05-14T15:57:23+02:00</time>
      </trkpt>
      <trkpt lat="47.05288" lon="5.18791">
        <ele>182.40039</ele>
        <time>2026-05-14T15:57:24+02:00</time>
      </trkpt>
      <trkpt lat="47.05293" lon="5.18786">
        <ele>182.2998</ele>
        <time>2026-05-14T15:57:25+02:00</time>
      </trkpt>
      <trkpt lat="47.05296" lon="5.18781">
        <ele>182.2998</ele>
        <time>2026-05-14T15:57:26+02:00</time>
      </trkpt>
      <trkpt lat="47.05301" lon="5.18776">
        <ele>182.10059</ele>
        <time>2026-05-14T15:57:27+02:00</time>
      </trkpt>
      <trkpt lat="47.05306" lon="5.1877">
        <ele>182</ele>
        <time>2026-05-14T15:57:28+02:00</time>
      </trkpt>
      <trkpt lat="47.0531" lon="5.18765">
        <ele>182</ele>
        <time>2026-05-14T15:57:29+02:00</time>
      </trkpt>
      <trkpt lat="47.05315" lon="5.18759">
        <ele>181.90039</ele>
        <time>2026-05-14T15:57:30+02:00</time>
      </trkpt>
      <trkpt lat="47.0532" lon="5.18753">
        <ele>181.7998</ele>
        <time>2026-05-14T15:57:31+02:00</time>
      </trkpt>
      <trkpt lat="47.05325" lon="5.18747">
        <ele>181.7002</ele>
        <time>2026-05-14T15:57:32+02:00</time>
      </trkpt>
      <trkpt lat="47.05329" lon="5.18741">
        <ele>181.60059</ele>
        <time>2026-05-14T15:57:33+02:00</time>
      </trkpt>
      <trkpt lat="47.05334" lon="5.18735">
        <ele>181.60059</ele>
        <time>2026-05-14T15:57:34+02:00</time>
      </trkpt>
      <trkpt lat="47.05339" lon="5.1873">
        <ele>181.5</ele>
        <time>2026-05-14T15:57:35+02:00</time>
      </trkpt>
      <trkpt lat="47.05343" lon="5.18725">
        <ele>181.40039</ele>
        <time>2026-05-14T15:57:36+02:00</time>
      </trkpt>
      <trkpt lat="47.05348" lon="5.18719">
        <ele>181.2002</ele>
        <time>2026-05-14T15:57:37+02:00</time>
      </trkpt>
      <trkpt lat="47.05352" lon="5.18714">
        <ele>181.10059</ele>
        <time>2026-05-14T15:57:38+02:00</time>
      </trkpt>
      <trkpt lat="47.05356" lon="5.18709">
        <ele>181.10059</ele>
        <time>2026-05-14T15:57:39+02:00</time>
      </trkpt>
      <trkpt lat="47.0536" lon="5.18703">
        <ele>181</ele>
        <time>2026-05-14T15:57:40+02:00</time>
      </trkpt>
      <trkpt lat="47.05364" lon="5.18697">
        <ele>180.90039</ele>
        <time>2026-05-14T15:57:41+02:00</time>
      </trkpt>
      <trkpt lat="47.05368" lon="5.18692">
        <ele>181</ele>
        <time>2026-05-14T15:57:42+02:00</time>
      </trkpt>
      <trkpt lat="47.05373" lon="5.18686">
        <ele>180.7998</ele>
        <time>2026-05-14T15:57:43+02:00</time>
      </trkpt>
      <trkpt lat="47.05377" lon="5.1868">
        <ele>180.7998</ele>
        <time>2026-05-14T15:57:44+02:00</time>
      </trkpt>
      <trkpt lat="47.05381" lon="5.18674">
        <ele>180.7002</ele>
        <time>2026-05-14T15:57:45+02:00</time>
      </trkpt>
      <trkpt lat="47.05385" lon="5.18668">
        <ele>180.7002</ele>
        <time>2026-05-14T15:57:46+02:00</time>
      </trkpt>
      <trkpt lat="47.05389" lon="5.18662">
        <ele>180.7002</ele>
        <time>2026-05-14T15:57:47+02:00</time>
      </trkpt>
      <trkpt lat="47.05392" lon="5.18656">
        <ele>180.90039</ele>
        <time>2026-05-14T15:57:48+02:00</time>
      </trkpt>
      <trkpt lat="47.05395" lon="5.18651">
        <ele>180.7002</ele>
        <time>2026-05-14T15:57:49+02:00</time>
      </trkpt>
      <trkpt lat="47.05399" lon="5.18647">
        <ele>180.5</ele>
        <time>2026-05-14T15:57:50+02:00</time>
      </trkpt>
      <trkpt lat="47.05403" lon="5.18647">
        <ele>180.5</ele>
        <time>2026-05-14T15:57:51+02:00</time>
      </trkpt>
      <trkpt lat="47.05407" lon="5.18649">
        <ele>180</ele>
        <time>2026-05-14T15:57:52+02:00</time>
      </trkpt>
      <trkpt lat="47.05411" lon="5.18652">
        <ele>179.90039</ele>
        <time>2026-05-14T15:57:53+02:00</time>
      </trkpt>
      <trkpt lat="47.05415" lon="5.18656">
        <ele>179.90039</ele>
        <time>2026-05-14T15:57:54+02:00</time>
      </trkpt>
      <trkpt lat="47.05419" lon="5.18661">
        <ele>180.10059</ele>
        <time>2026-05-14T15:57:55+02:00</time>
      </trkpt>
      <trkpt lat="47.05423" lon="5.18666">
        <ele>180.10059</ele>
        <time>2026-05-14T15:57:56+02:00</time>
      </trkpt>
      <trkpt lat="47.05427" lon="5.18672">
        <ele>180.2002</ele>
        <time>2026-05-14T15:57:57+02:00</time>
      </trkpt>
      <trkpt lat="47.05431" lon="5.18677">
        <ele>180.2002</ele>
        <time>2026-05-14T15:57:58+02:00</time>
      </trkpt>
      <trkpt lat="47.05435" lon="5.18683">
        <ele>180.10059</ele>
        <time>2026-05-14T15:57:59+02:00</time>
      </trkpt>
      <trkpt lat="47.05439" lon="5.1869">
        <ele>179.90039</ele>
        <time>2026-05-14T15:58:00+02:00</time>
      </trkpt>
      <trkpt lat="47.05443" lon="5.18696">
        <ele>179.5</ele>
        <time>2026-05-14T15:58:01+02:00</time>
      </trkpt>
      <trkpt lat="47.05447" lon="5.18703">
        <ele>179.10059</ele>
        <time>2026-05-14T15:58:02+02:00</time>
      </trkpt>
      <trkpt lat="47.05451" lon="5.18709">
        <ele>179.10059</ele>
        <time>2026-05-14T15:58:03+02:00</time>
      </trkpt>
      <trkpt lat="47.05455" lon="5.18714">
        <ele>178.7998</ele>
        <time>2026-05-14T15:58:04+02:00</time>
      </trkpt>
      <trkpt lat="47.0546" lon="5.18719">
        <ele>179.2002</ele>
        <time>2026-05-14T15:58:05+02:00</time>
      </trkpt>
      <trkpt lat="47.05465" lon="5.18723">
        <ele>179.10059</ele>
        <time>2026-05-14T15:58:06+02:00</time>
      </trkpt>
      <trkpt lat="47.0547" lon="5.18727">
        <ele>179.2002</ele>
        <time>2026-05-14T15:58:07+02:00</time>
      </trkpt>
      <trkpt lat="47.05475" lon="5.18731">
        <ele>178.5</ele>
        <time>2026-05-14T15:58:08+02:00</time>
      </trkpt>
      <trkpt lat="47.05481" lon="5.18735">
        <ele>178.40039</ele>
        <time>2026-05-14T15:58:09+02:00</time>
      </trkpt>
      <trkpt lat="47.05486" lon="5.18739">
        <ele>178.40039</ele>
        <time>2026-05-14T15:58:10+02:00</time>
      </trkpt>
      <trkpt lat="47.05491" lon="5.18743">
        <ele>178.10059</ele>
        <time>2026-05-14T15:58:11+02:00</time>
      </trkpt>
      <trkpt lat="47.05496" lon="5.18748">
        <ele>178.7002</ele>
        <time>2026-05-14T15:58:12+02:00</time>
      </trkpt>
      <trkpt lat="47.05501" lon="5.18753">
        <ele>178.7998</ele>
        <time>2026-05-14T15:58:13+02:00</time>
      </trkpt>
      <trkpt lat="47.05506" lon="5.18758">
        <ele>178.2998</ele>
        <time>2026-05-14T15:58:14+02:00</time>
      </trkpt>
      <trkpt lat="47.05511" lon="5.18764">
        <ele>178.40039</ele>
        <time>2026-05-14T15:58:15+02:00</time>
      </trkpt>
      <trkpt lat="47.05516" lon="5.18769">
        <ele>178.2002</ele>
        <time>2026-05-14T15:58:16+02:00</time>
      </trkpt>
      <trkpt lat="47.05522" lon="5.18774">
        <ele>178.5</ele>
        <time>2026-05-14T15:58:17+02:00</time>
      </trkpt>
      <trkpt lat="47.05526" lon="5.18779">
        <ele>179</ele>
        <time>2026-05-14T15:58:18+02:00</time>
      </trkpt>
      <trkpt lat="47.05531" lon="5.18785">
        <ele>178.7998</ele>
        <time>2026-05-14T15:58:19+02:00</time>
      </trkpt>
      <trkpt lat="47.05537" lon="5.1879">
        <ele>178.7998</ele>
        <time>2026-05-14T15:58:20+02:00</time>
      </trkpt>
      <trkpt lat="47.05542" lon="5.18795">
        <ele>178.5</ele>
        <time>2026-05-14T15:58:21+02:00</time>
      </trkpt>
      <trkpt lat="47.05547" lon="5.18801">
        <ele>178.5</ele>
        <time>2026-05-14T15:58:22+02:00</time>
      </trkpt>
      <trkpt lat="47.05553" lon="5.18806">
        <ele>178.60059</ele>
        <time>2026-05-14T15:58:23+02:00</time>
      </trkpt>
      <trkpt lat="47.05558" lon="5.18811">
        <ele>178.40039</ele>
        <time>2026-05-14T15:58:24+02:00</time>
      </trkpt>
      <trkpt lat="47.05563" lon="5.18817">
        <ele>178.40039</ele>
        <time>2026-05-14T15:58:25+02:00</time>
      </trkpt>
      <trkpt lat="47.05569" lon="5.18822">
        <ele>178.2998</ele>
        <time>2026-05-14T15:58:26+02:00</time>
      </trkpt>
      <trkpt lat="47.05574" lon="5.18828">
        <ele>178</ele>
        <time>2026-05-14T15:58:27+02:00</time>
      </trkpt>
      <trkpt lat="47.0558" lon="5.18833">
        <ele>178.2002</ele>
        <time>2026-05-14T15:58:28+02:00</time>
      </trkpt>
      <trkpt lat="47.05585" lon="5.18839">
        <ele>178.60059</ele>
        <time>2026-05-14T15:58:29+02:00</time>
      </trkpt>
      <trkpt lat="47.05591" lon="5.18845">
        <ele>178.5</ele>
        <time>2026-05-14T15:58:30+02:00</time>
      </trkpt>
      <trkpt lat="47.05596" lon="5.1885">
        <ele>178.5</ele>
        <time>2026-05-14T15:58:31+02:00</time>
      </trkpt>
      <trkpt lat="47.05602" lon="5.18856">
        <ele>178.60059</ele>
        <time>2026-05-14T15:58:32+02:00</time>
      </trkpt>
      <trkpt lat="47.05607" lon="5.18862">
        <ele>178.5</ele>
        <time>2026-05-14T15:58:33+02:00</time>
      </trkpt>
      <trkpt lat="47.05613" lon="5.18868">
        <ele>178.7998</ele>
        <time>2026-05-14T15:58:34+02:00</time>
      </trkpt>
      <trkpt lat="47.05619" lon="5.18873">
        <ele>179.10059</ele>
        <time>2026-05-14T15:58:35+02:00</time>
      </trkpt>
      <trkpt lat="47.05625" lon="5.18879">
        <ele>178.90039</ele>
        <time>2026-05-14T15:58:36+02:00</time>
      </trkpt>
      <trkpt lat="47.0563" lon="5.18885">
        <ele>179</ele>
        <time>2026-05-14T15:58:37+02:00</time>
      </trkpt>
      <trkpt lat="47.05636" lon="5.18891">
        <ele>179.10059</ele>
        <time>2026-05-14T15:58:38+02:00</time>
      </trkpt>
      <trkpt lat="47.05641" lon="5.18897">
        <ele>178.90039</ele>
        <time>2026-05-14T15:58:39+02:00</time>
      </trkpt>
      <trkpt lat="47.05647" lon="5.18903">
        <ele>179.2002</ele>
        <time>2026-05-14T15:58:40+02:00</time>
      </trkpt>
      <trkpt lat="47.05653" lon="5.18909">
        <ele>179.2002</ele>
        <time>2026-05-14T15:58:41+02:00</time>
      </trkpt>
      <trkpt lat="47.05659" lon="5.18915">
        <ele>179</ele>
        <time>2026-05-14T15:58:42+02:00</time>
      </trkpt>
      <trkpt lat="47.05665" lon="5.1892">
        <ele>178.90039</ele>
        <time>2026-05-14T15:58:43+02:00</time>
      </trkpt>
      <trkpt lat="47.05671" lon="5.18926">
        <ele>178.90039</ele>
        <time>2026-05-14T15:58:44+02:00</time>
      </trkpt>
      <trkpt lat="47.05676" lon="5.18932">
        <ele>178.7002</ele>
        <time>2026-05-14T15:58:45+02:00</time>
      </trkpt>
      <trkpt lat="47.05682" lon="5.18938">
        <ele>178.7998</ele>
        <time>2026-05-14T15:58:46+02:00</time>
      </trkpt>
      <trkpt lat="47.05688" lon="5.18944">
        <ele>178.7002</ele>
        <time>2026-05-14T15:58:47+02:00</time>
      </trkpt>
      <trkpt lat="47.05694" lon="5.1895">
        <ele>178.60059</ele>
        <time>2026-05-14T15:58:48+02:00</time>
      </trkpt>
      <trkpt lat="47.05699" lon="5.18956">
        <ele>178.5</ele>
        <time>2026-05-14T15:58:49+02:00</time>
      </trkpt>
      <trkpt lat="47.05705" lon="5.18962">
        <ele>178.7002</ele>
        <time>2026-05-14T15:58:50+02:00</time>
      </trkpt>
      <trkpt lat="47.05711" lon="5.18968">
        <ele>178.90039</ele>
        <time>2026-05-14T15:58:51+02:00</time>
      </trkpt>
      <trkpt lat="47.05716" lon="5.18973">
        <ele>178.90039</ele>
        <time>2026-05-14T15:58:52+02:00</time>
      </trkpt>
      <trkpt lat="47.05722" lon="5.18979">
        <ele>178.90039</ele>
        <time>2026-05-14T15:58:53+02:00</time>
      </trkpt>
      <trkpt lat="47.05728" lon="5.18985">
        <ele>179</ele>
        <time>2026-05-14T15:58:54+02:00</time>
      </trkpt>
      <trkpt lat="47.05734" lon="5.18991">
        <ele>179</ele>
        <time>2026-05-14T15:58:55+02:00</time>
      </trkpt>
      <trkpt lat="47.05739" lon="5.18996">
        <ele>179.2002</ele>
        <time>2026-05-14T15:58:56+02:00</time>
      </trkpt>
      <trkpt lat="47.05745" lon="5.19002">
        <ele>179.2998</ele>
        <time>2026-05-14T15:58:57+02:00</time>
      </trkpt>
      <trkpt lat="47.05751" lon="5.19008">
        <ele>179.2002</ele>
        <time>2026-05-14T15:58:58+02:00</time>
      </trkpt>
      <trkpt lat="47.05757" lon="5.19013">
        <ele>179.2002</ele>
        <time>2026-05-14T15:58:59+02:00</time>
      </trkpt>
      <trkpt lat="47.05762" lon="5.19019">
        <ele>179.2998</ele>
        <time>2026-05-14T15:59:00+02:00</time>
      </trkpt>
      <trkpt lat="47.05768" lon="5.19025">
        <ele>179.2998</ele>
        <time>2026-05-14T15:59:01+02:00</time>
      </trkpt>
      <trkpt lat="47.05773" lon="5.19031">
        <ele>179.40039</ele>
        <time>2026-05-14T15:59:02+02:00</time>
      </trkpt>
      <trkpt lat="47.05779" lon="5.19037">
        <ele>179.2002</ele>
        <time>2026-05-14T15:59:03+02:00</time>
      </trkpt>
      <trkpt lat="47.05785" lon="5.19042">
        <ele>178.7998</ele>
        <time>2026-05-14T15:59:04+02:00</time>
      </trkpt>
      <trkpt lat="47.0579" lon="5.19048">
        <ele>179.2002</ele>
        <time>2026-05-14T15:59:05+02:00</time>
      </trkpt>
      <trkpt lat="47.05796" lon="5.19054">
        <ele>179.40039</ele>
        <time>2026-05-14T15:59:06+02:00</time>
      </trkpt>
      <trkpt lat="47.05802" lon="5.1906">
        <ele>179</ele>
        <time>2026-05-14T15:59:07+02:00</time>
      </trkpt>
      <trkpt lat="47.05807" lon="5.19065">
        <ele>179.2002</ele>
        <time>2026-05-14T15:59:08+02:00</time>
      </trkpt>
      <trkpt lat="47.05813" lon="5.19071">
        <ele>179</ele>
        <time>2026-05-14T15:59:09+02:00</time>
      </trkpt>
      <trkpt lat="47.05819" lon="5.19077">
        <ele>178.7998</ele>
        <time>2026-05-14T15:59:10+02:00</time>
      </trkpt>
      <trkpt lat="47.05824" lon="5.19083">
        <ele>179.10059</ele>
        <time>2026-05-14T15:59:11+02:00</time>
      </trkpt>
      <trkpt lat="47.0583" lon="5.19088">
        <ele>179.10059</ele>
        <time>2026-05-14T15:59:12+02:00</time>
      </trkpt>
      <trkpt lat="47.05835" lon="5.19093">
        <ele>178.90039</ele>
        <time>2026-05-14T15:59:13+02:00</time>
      </trkpt>
      <trkpt lat="47.0584" lon="5.19099">
        <ele>179</ele>
        <time>2026-05-14T15:59:14+02:00</time>
      </trkpt>
      <trkpt lat="47.05846" lon="5.19104">
        <ele>179.10059</ele>
        <time>2026-05-14T15:59:15+02:00</time>
      </trkpt>
      <trkpt lat="47.05851" lon="5.19109">
        <ele>179</ele>
        <time>2026-05-14T15:59:16+02:00</time>
      </trkpt>
      <trkpt lat="47.05855" lon="5.19113">
        <ele>179.2998</ele>
        <time>2026-05-14T15:59:17+02:00</time>
      </trkpt>
      <trkpt lat="47.05858" lon="5.19116">
        <ele>179.2998</ele>
        <time>2026-05-14T15:59:18+02:00</time>
      </trkpt>
      <trkpt lat="47.05859" lon="5.19118">
        <ele>179.2998</ele>
        <time>2026-05-14T15:59:19+02:00</time>
      </trkpt>
      <trkpt lat="47.05859" lon="5.19118">
        <ele>179.2998</ele>
        <time>2026-05-14T15:59:20+02:00</time>
      </trkpt>
      <trkpt lat="47.05859" lon="5.19118">
        <ele>179.2998</ele>
        <time>2026-05-14T15:59:21+02:00</time>
      </trkpt>
      <trkpt lat="47.05859" lon="5.19118">
        <ele>179.2998</ele>
        <time>2026-05-14T15:59:22+02:00</time>
      </trkpt>
      <trkpt lat="47.05859" lon="5.19118">
        <ele>179.2998</ele>
        <time>2026-05-14T15:59:23+02:00</time>
      </trkpt>
      <trkpt lat="47.05869" lon="5.19127">
        <ele>179.2002</ele>
        <time>2026-05-14T15:59:44+02:00</time>
      </trkpt>
      <trkpt lat="47.05871" lon="5.19129">
        <ele>179.2002</ele>
        <time>2026-05-14T15:59:45+02:00</time>
      </trkpt>
      <trkpt lat="47.05874" lon="5.19132">
        <ele>179.40039</ele>
        <time>2026-05-14T15:59:46+02:00</time>
      </trkpt>
      <trkpt lat="47.05876" lon="5.19134">
        <ele>179.40039</ele>
        <time>2026-05-14T15:59:47+02:00</time>
      </trkpt>
      <trkpt lat="47.05879" lon="5.19137">
        <ele>179.2002</ele>
        <time>2026-05-14T15:59:48+02:00</time>
      </trkpt>
      <trkpt lat="47.05882" lon="5.1914">
        <ele>179.60059</ele>
        <time>2026-05-14T15:59:49+02:00</time>
      </trkpt>
      <trkpt lat="47.05885" lon="5.19143">
        <ele>179.5</ele>
        <time>2026-05-14T15:59:50+02:00</time>
      </trkpt>
      <trkpt lat="47.05887" lon="5.19146">
        <ele>179.5</ele>
        <time>2026-05-14T15:59:51+02:00</time>
      </trkpt>
      <trkpt lat="47.0589" lon="5.19148">
        <ele>179.7002</ele>
        <time>2026-05-14T15:59:52+02:00</time>
      </trkpt>
      <trkpt lat="47.05893" lon="5.19151">
        <ele>179.7002</ele>
        <time>2026-05-14T15:59:53+02:00</time>
      </trkpt>
      <trkpt lat="47.05897" lon="5.19154">
        <ele>179.40039</ele>
        <time>2026-05-14T15:59:54+02:00</time>
      </trkpt>
      <trkpt lat="47.059" lon="5.19157">
        <ele>179.60059</ele>
        <time>2026-05-14T15:59:55+02:00</time>
      </trkpt>
      <trkpt lat="47.05903" lon="5.19161">
        <ele>179.2998</ele>
        <time>2026-05-14T15:59:56+02:00</time>
      </trkpt>
      <trkpt lat="47.05906" lon="5.19164">
        <ele>179.2998</ele>
        <time>2026-05-14T15:59:57+02:00</time>
      </trkpt>
      <trkpt lat="47.05909" lon="5.19167">
        <ele>179.5</ele>
        <time>2026-05-14T15:59:58+02:00</time>
      </trkpt>
      <trkpt lat="47.05913" lon="5.19171">
        <ele>179.40039</ele>
        <time>2026-05-14T15:59:59+02:00</time>
      </trkpt>
      <trkpt lat="47.05917" lon="5.19174">
        <ele>179.7998</ele>
        <time>2026-05-14T16:00:00+02:00</time>
      </trkpt>
      <trkpt lat="47.05921" lon="5.19178">
        <ele>179.5</ele>
        <time>2026-05-14T16:00:01+02:00</time>
      </trkpt>
      <trkpt lat="47.05924" lon="5.19181">
        <ele>179.5</ele>
        <time>2026-05-14T16:00:02+02:00</time>
      </trkpt>
      <trkpt lat="47.05928" lon="5.19185">
        <ele>179.2998</ele>
        <time>2026-05-14T16:00:03+02:00</time>
      </trkpt>
      <trkpt lat="47.05932" lon="5.19188">
        <ele>178.90039</ele>
        <time>2026-05-14T16:00:04+02:00</time>
      </trkpt>
      <trkpt lat="47.05935" lon="5.19192">
        <ele>179.2002</ele>
        <time>2026-05-14T16:00:05+02:00</time>
      </trkpt>
      <trkpt lat="47.05939" lon="5.19196">
        <ele>179</ele>
        <time>2026-05-14T16:00:06+02:00</time>
      </trkpt>
      <trkpt lat="47.05943" lon="5.19199">
        <ele>179.2002</ele>
        <time>2026-05-14T16:00:07+02:00</time>
      </trkpt>
      <trkpt lat="47.05946" lon="5.19203">
        <ele>179.2002</ele>
        <time>2026-05-14T16:00:08+02:00</time>
      </trkpt>
      <trkpt lat="47.0595" lon="5.19206">
        <ele>179.10059</ele>
        <time>2026-05-14T16:00:09+02:00</time>
      </trkpt>
      <trkpt lat="47.05953" lon="5.19209">
        <ele>179.40039</ele>
        <time>2026-05-14T16:00:10+02:00</time>
      </trkpt>
      <trkpt lat="47.05956" lon="5.19213">
        <ele>179.2998</ele>
        <time>2026-05-14T16:00:11+02:00</time>
      </trkpt>
      <trkpt lat="47.0596" lon="5.19216">
        <ele>179.2002</ele>
        <time>2026-05-14T16:00:12+02:00</time>
      </trkpt>
      <trkpt lat="47.05963" lon="5.19219">
        <ele>179.2002</ele>
        <time>2026-05-14T16:00:13+02:00</time>
      </trkpt>
      <trkpt lat="47.05967" lon="5.19222">
        <ele>179</ele>
        <time>2026-05-14T16:00:14+02:00</time>
      </trkpt>
      <trkpt lat="47.0597" lon="5.19226">
        <ele>179.2002</ele>
        <time>2026-05-14T16:00:15+02:00</time>
      </trkpt>
      <trkpt lat="47.05974" lon="5.19229">
        <ele>179.10059</ele>
        <time>2026-05-14T16:00:16+02:00</time>
      </trkpt>
      <trkpt lat="47.05977" lon="5.19232">
        <ele>179.10059</ele>
        <time>2026-05-14T16:00:17+02:00</time>
      </trkpt>
      <trkpt lat="47.0598" lon="5.19235">
        <ele>179.2002</ele>
        <time>2026-05-14T16:00:18+02:00</time>
      </trkpt>
      <trkpt lat="47.05983" lon="5.19238">
        <ele>179.2002</ele>
        <time>2026-05-14T16:00:19+02:00</time>
      </trkpt>
      <trkpt lat="47.05986" lon="5.19241">
        <ele>179.10059</ele>
        <time>2026-05-14T16:00:20+02:00</time>
      </trkpt>
      <trkpt lat="47.05989" lon="5.19244">
        <ele>179</ele>
        <time>2026-05-14T16:00:21+02:00</time>
      </trkpt>
      <trkpt lat="47.05992" lon="5.19246">
        <ele>179</ele>
        <time>2026-05-14T16:00:22+02:00</time>
      </trkpt>
      <trkpt lat="47.05994" lon="5.19248">
        <ele>179</ele>
        <time>2026-05-14T16:00:23+02:00</time>
      </trkpt>
      <trkpt lat="47.05996" lon="5.1925">
        <ele>178.90039</ele>
        <time>2026-05-14T16:00:24+02:00</time>
      </trkpt>
      <trkpt lat="47.05997" lon="5.19252">
        <ele>178.90039</ele>
        <time>2026-05-14T16:00:25+02:00</time>
      </trkpt>
      <trkpt lat="47.05998" lon="5.19252">
        <ele>178.90039</ele>
        <time>2026-05-14T16:00:26+02:00</time>
      </trkpt>
      <trkpt lat="47.05998" lon="5.19252">
        <ele>178.90039</ele>
        <time>2026-05-14T16:00:27+02:00</time>
      </trkpt>
      <trkpt lat="47.05998" lon="5.19252">
        <ele>178.90039</ele>
        <time>2026-05-14T16:00:28+02:00</time>
      </trkpt>
      <trkpt lat="47.05998" lon="5.19252">
        <ele>178.90039</ele>
        <time>2026-05-14T16:00:29+02:00</time>
      </trkpt>
      <trkpt lat="47.06014" lon="5.19268">
        <ele>178.90039</ele>
        <time>2026-05-14T16:01:05+02:00</time>
      </trkpt>
      <trkpt lat="47.06017" lon="5.19271">
        <ele>178.90039</ele>
        <time>2026-05-14T16:01:06+02:00</time>
      </trkpt>
      <trkpt lat="47.0602" lon="5.19274">
        <ele>178.60059</ele>
        <time>2026-05-14T16:01:07+02:00</time>
      </trkpt>
      <trkpt lat="47.06023" lon="5.19277">
        <ele>178.7002</ele>
        <time>2026-05-14T16:01:08+02:00</time>
      </trkpt>
      <trkpt lat="47.06027" lon="5.1928">
        <ele>178.40039</ele>
        <time>2026-05-14T16:01:09+02:00</time>
      </trkpt>
      <trkpt lat="47.0603" lon="5.19283">
        <ele>178.40039</ele>
        <time>2026-05-14T16:01:10+02:00</time>
      </trkpt>
      <trkpt lat="47.06033" lon="5.19286">
        <ele>178.2998</ele>
        <time>2026-05-14T16:01:11+02:00</time>
      </trkpt>
      <trkpt lat="47.06037" lon="5.1929">
        <ele>178.2002</ele>
        <time>2026-05-14T16:01:12+02:00</time>
      </trkpt>
      <trkpt lat="47.0604" lon="5.19293">
        <ele>178.40039</ele>
        <time>2026-05-14T16:01:13+02:00</time>
      </trkpt>
      <trkpt lat="47.06044" lon="5.19297">
        <ele>178.2998</ele>
        <time>2026-05-14T16:01:14+02:00</time>
      </trkpt>
      <trkpt lat="47.06048" lon="5.19301">
        <ele>178.2002</ele>
        <time>2026-05-14T16:01:15+02:00</time>
      </trkpt>
      <trkpt lat="47.06052" lon="5.19305">
        <ele>178.2998</ele>
        <time>2026-05-14T16:01:16+02:00</time>
      </trkpt>
      <trkpt lat="47.06056" lon="5.19309">
        <ele>178.10059</ele>
        <time>2026-05-14T16:01:17+02:00</time>
      </trkpt>
      <trkpt lat="47.06059" lon="5.19312">
        <ele>178.10059</ele>
        <time>2026-05-14T16:01:18+02:00</time>
      </trkpt>
      <trkpt lat="47.06064" lon="5.19316">
        <ele>178</ele>
        <time>2026-05-14T16:01:19+02:00</time>
      </trkpt>
      <trkpt lat="47.06067" lon="5.1932">
        <ele>177.90039</ele>
        <time>2026-05-14T16:01:20+02:00</time>
      </trkpt>
      <trkpt lat="47.06072" lon="5.19324">
        <ele>177.7998</ele>
        <time>2026-05-14T16:01:21+02:00</time>
      </trkpt>
      <trkpt lat="47.06076" lon="5.19328">
        <ele>177.90039</ele>
        <time>2026-05-14T16:01:22+02:00</time>
      </trkpt>
      <trkpt lat="47.0608" lon="5.19332">
        <ele>177.90039</ele>
        <time>2026-05-14T16:01:23+02:00</time>
      </trkpt>
      <trkpt lat="47.06084" lon="5.19336">
        <ele>177.90039</ele>
        <time>2026-05-14T16:01:24+02:00</time>
      </trkpt>
      <trkpt lat="47.06088" lon="5.1934">
        <ele>177.90039</ele>
        <time>2026-05-14T16:01:25+02:00</time>
      </trkpt>
      <trkpt lat="47.06093" lon="5.19344">
        <ele>177.7998</ele>
        <time>2026-05-14T16:01:26+02:00</time>
      </trkpt>
      <trkpt lat="47.06097" lon="5.19348">
        <ele>178</ele>
        <time>2026-05-14T16:01:27+02:00</time>
      </trkpt>
      <trkpt lat="47.06101" lon="5.19352">
        <ele>177.90039</ele>
        <time>2026-05-14T16:01:28+02:00</time>
      </trkpt>
      <trkpt lat="47.06106" lon="5.19356">
        <ele>178</ele>
        <time>2026-05-14T16:01:29+02:00</time>
      </trkpt>
      <trkpt lat="47.0611" lon="5.19361">
        <ele>178</ele>
        <time>2026-05-14T16:01:30+02:00</time>
      </trkpt>
      <trkpt lat="47.06114" lon="5.19365">
        <ele>178</ele>
        <time>2026-05-14T16:01:31+02:00</time>
      </trkpt>
      <trkpt lat="47.06119" lon="5.19369">
        <ele>177.7998</ele>
        <time>2026-05-14T16:01:32+02:00</time>
      </trkpt>
      <trkpt lat="47.06123" lon="5.19374">
        <ele>178</ele>
        <time>2026-05-14T16:01:33+02:00</time>
      </trkpt>
      <trkpt lat="47.06128" lon="5.19378">
        <ele>177.90039</ele>
        <time>2026-05-14T16:01:34+02:00</time>
      </trkpt>
      <trkpt lat="47.06133" lon="5.19383">
        <ele>177.90039</ele>
        <time>2026-05-14T16:01:35+02:00</time>
      </trkpt>
      <trkpt lat="47.06138" lon="5.19387">
        <ele>177.7998</ele>
        <time>2026-05-14T16:01:36+02:00</time>
      </trkpt>
      <trkpt lat="47.06143" lon="5.19392">
        <ele>177.7998</ele>
        <time>2026-05-14T16:01:37+02:00</time>
      </trkpt>
      <trkpt lat="47.06148" lon="5.19397">
        <ele>177.7002</ele>
        <time>2026-05-14T16:01:38+02:00</time>
      </trkpt>
      <trkpt lat="47.06152" lon="5.19401">
        <ele>177.7002</ele>
        <time>2026-05-14T16:01:39+02:00</time>
      </trkpt>
      <trkpt lat="47.06157" lon="5.19406">
        <ele>177.7998</ele>
        <time>2026-05-14T16:01:40+02:00</time>
      </trkpt>
      <trkpt lat="47.06162" lon="5.19411">
        <ele>177.7002</ele>
        <time>2026-05-14T16:01:41+02:00</time>
      </trkpt>
      <trkpt lat="47.06167" lon="5.19415">
        <ele>177.7998</ele>
        <time>2026-05-14T16:01:42+02:00</time>
      </trkpt>
      <trkpt lat="47.06171" lon="5.1942">
        <ele>177.7002</ele>
        <time>2026-05-14T16:01:43+02:00</time>
      </trkpt>
      <trkpt lat="47.06176" lon="5.19424">
        <ele>177.90039</ele>
        <time>2026-05-14T16:01:44+02:00</time>
      </trkpt>
      <trkpt lat="47.06181" lon="5.19429">
        <ele>177.7998</ele>
        <time>2026-05-14T16:01:45+02:00</time>
      </trkpt>
      <trkpt lat="47.06185" lon="5.19433">
        <ele>178.10059</ele>
        <time>2026-05-14T16:01:46+02:00</time>
      </trkpt>
      <trkpt lat="47.0619" lon="5.19438">
        <ele>178.10059</ele>
        <time>2026-05-14T16:01:47+02:00</time>
      </trkpt>
      <trkpt lat="47.06194" lon="5.19443">
        <ele>178.2998</ele>
        <time>2026-05-14T16:01:48+02:00</time>
      </trkpt>
      <trkpt lat="47.06199" lon="5.19447">
        <ele>178.2998</ele>
        <time>2026-05-14T16:01:49+02:00</time>
      </trkpt>
      <trkpt lat="47.06204" lon="5.19452">
        <ele>178.5</ele>
        <time>2026-05-14T16:01:50+02:00</time>
      </trkpt>
      <trkpt lat="47.06209" lon="5.19457">
        <ele>178.60059</ele>
        <time>2026-05-14T16:01:51+02:00</time>
      </trkpt>
      <trkpt lat="47.06214" lon="5.19461">
        <ele>178.5</ele>
        <time>2026-05-14T16:01:52+02:00</time>
      </trkpt>
      <trkpt lat="47.06218" lon="5.19466">
        <ele>178.7998</ele>
        <time>2026-05-14T16:01:53+02:00</time>
      </trkpt>
      <trkpt lat="47.06223" lon="5.19471">
        <ele>178.7998</ele>
        <time>2026-05-14T16:01:54+02:00</time>
      </trkpt>
      <trkpt lat="47.06228" lon="5.19476">
        <ele>179</ele>
        <time>2026-05-14T16:01:55+02:00</time>
      </trkpt>
      <trkpt lat="47.06233" lon="5.1948">
        <ele>178.7002</ele>
        <time>2026-05-14T16:01:56+02:00</time>
      </trkpt>
      <trkpt lat="47.06238" lon="5.19485">
        <ele>178.60059</ele>
        <time>2026-05-14T16:01:57+02:00</time>
      </trkpt>
      <trkpt lat="47.06243" lon="5.1949">
        <ele>178.2998</ele>
        <time>2026-05-14T16:01:58+02:00</time>
      </trkpt>
      <trkpt lat="47.06248" lon="5.19495">
        <ele>178.60059</ele>
        <time>2026-05-14T16:01:59+02:00</time>
      </trkpt>
      <trkpt lat="47.06253" lon="5.195">
        <ele>178.7998</ele>
        <time>2026-05-14T16:02:00+02:00</time>
      </trkpt>
      <trkpt lat="47.06259" lon="5.19505">
        <ele>178.5</ele>
        <time>2026-05-14T16:02:01+02:00</time>
      </trkpt>
      <trkpt lat="47.06263" lon="5.1951">
        <ele>178.7998</ele>
        <time>2026-05-14T16:02:02+02:00</time>
      </trkpt>
      <trkpt lat="47.06269" lon="5.19515">
        <ele>178.5</ele>
        <time>2026-05-14T16:02:03+02:00</time>
      </trkpt>
      <trkpt lat="47.06274" lon="5.1952">
        <ele>178.60059</ele>
        <time>2026-05-14T16:02:04+02:00</time>
      </trkpt>
      <trkpt lat="47.0628" lon="5.19525">
        <ele>178.7998</ele>
        <time>2026-05-14T16:02:05+02:00</time>
      </trkpt>
      <trkpt lat="47.06285" lon="5.1953">
        <ele>178.7002</ele>
        <time>2026-05-14T16:02:06+02:00</time>
      </trkpt>
      <trkpt lat="47.0629" lon="5.19535">
        <ele>178.7998</ele>
        <time>2026-05-14T16:02:07+02:00</time>
      </trkpt>
      <trkpt lat="47.06296" lon="5.1954">
        <ele>178.7002</ele>
        <time>2026-05-14T16:02:08+02:00</time>
      </trkpt>
      <trkpt lat="47.06301" lon="5.19546">
        <ele>178.7002</ele>
        <time>2026-05-14T16:02:09+02:00</time>
      </trkpt>
      <trkpt lat="47.06307" lon="5.19551">
        <ele>178.7998</ele>
        <time>2026-05-14T16:02:10+02:00</time>
      </trkpt>
      <trkpt lat="47.06312" lon="5.19557">
        <ele>178.60059</ele>
        <time>2026-05-14T16:02:11+02:00</time>
      </trkpt>
      <trkpt lat="47.06317" lon="5.19562">
        <ele>178.7998</ele>
        <time>2026-05-14T16:02:12+02:00</time>
      </trkpt>
      <trkpt lat="47.06323" lon="5.19568">
        <ele>178.7998</ele>
        <time>2026-05-14T16:02:13+02:00</time>
      </trkpt>
      <trkpt lat="47.06328" lon="5.19573">
        <ele>178.7998</ele>
        <time>2026-05-14T16:02:14+02:00</time>
      </trkpt>
      <trkpt lat="47.06334" lon="5.19578">
        <ele>178.7998</ele>
        <time>2026-05-14T16:02:15+02:00</time>
      </trkpt>
      <trkpt lat="47.06339" lon="5.19583">
        <ele>178.60059</ele>
        <time>2026-05-14T16:02:16+02:00</time>
      </trkpt>
      <trkpt lat="47.06345" lon="5.19589">
        <ele>178.7998</ele>
        <time>2026-05-14T16:02:17+02:00</time>
      </trkpt>
      <trkpt lat="47.0635" lon="5.19594">
        <ele>179</ele>
        <time>2026-05-14T16:02:18+02:00</time>
      </trkpt>
      <trkpt lat="47.06355" lon="5.19599">
        <ele>178.7002</ele>
        <time>2026-05-14T16:02:19+02:00</time>
      </trkpt>
      <trkpt lat="47.06361" lon="5.19604">
        <ele>178.7002</ele>
        <time>2026-05-14T16:02:20+02:00</time>
      </trkpt>
      <trkpt lat="47.06366" lon="5.19609">
        <ele>178.60059</ele>
        <time>2026-05-14T16:02:21+02:00</time>
      </trkpt>
      <trkpt lat="47.06371" lon="5.19614">
        <ele>179</ele>
        <time>2026-05-14T16:02:22+02:00</time>
      </trkpt>
      <trkpt lat="47.06377" lon="5.19619">
        <ele>179.40039</ele>
        <time>2026-05-14T16:02:23+02:00</time>
      </trkpt>
      <trkpt lat="47.06382" lon="5.19624">
        <ele>179.40039</ele>
        <time>2026-05-14T16:02:24+02:00</time>
      </trkpt>
      <trkpt lat="47.06387" lon="5.19629">
        <ele>179.60059</ele>
        <time>2026-05-14T16:02:25+02:00</time>
      </trkpt>
      <trkpt lat="47.06392" lon="5.19635">
        <ele>179.60059</ele>
        <time>2026-05-14T16:02:26+02:00</time>
      </trkpt>
      <trkpt lat="47.06397" lon="5.1964">
        <ele>179.60059</ele>
        <time>2026-05-14T16:02:27+02:00</time>
      </trkpt>
      <trkpt lat="47.06403" lon="5.19645">
        <ele>179.7002</ele>
        <time>2026-05-14T16:02:28+02:00</time>
      </trkpt>
      <trkpt lat="47.06408" lon="5.1965">
        <ele>179.60059</ele>
        <time>2026-05-14T16:02:29+02:00</time>
      </trkpt>
      <trkpt lat="47.06413" lon="5.19655">
        <ele>180</ele>
        <time>2026-05-14T16:02:30+02:00</time>
      </trkpt>
      <trkpt lat="47.06418" lon="5.19661">
        <ele>179.60059</ele>
        <time>2026-05-14T16:02:31+02:00</time>
      </trkpt>
      <trkpt lat="47.06423" lon="5.19666">
        <ele>179.2998</ele>
        <time>2026-05-14T16:02:32+02:00</time>
      </trkpt>
      <trkpt lat="47.06428" lon="5.19672">
        <ele>179.2998</ele>
        <time>2026-05-14T16:02:33+02:00</time>
      </trkpt>
      <trkpt lat="47.06433" lon="5.19677">
        <ele>179.2998</ele>
        <time>2026-05-14T16:02:34+02:00</time>
      </trkpt>
      <trkpt lat="47.06438" lon="5.19683">
        <ele>179.60059</ele>
        <time>2026-05-14T16:02:35+02:00</time>
      </trkpt>
      <trkpt lat="47.06442" lon="5.19688">
        <ele>179.7002</ele>
        <time>2026-05-14T16:02:36+02:00</time>
      </trkpt>
      <trkpt lat="47.06447" lon="5.19694">
        <ele>179.2002</ele>
        <time>2026-05-14T16:02:37+02:00</time>
      </trkpt>
      <trkpt lat="47.06452" lon="5.197">
        <ele>179.2002</ele>
        <time>2026-05-14T16:02:38+02:00</time>
      </trkpt>
      <trkpt lat="47.06457" lon="5.19706">
        <ele>179.40039</ele>
        <time>2026-05-14T16:02:39+02:00</time>
      </trkpt>
      <trkpt lat="47.06462" lon="5.19711">
        <ele>179.40039</ele>
        <time>2026-05-14T16:02:40+02:00</time>
      </trkpt>
      <trkpt lat="47.06467" lon="5.19716">
        <ele>179.5</ele>
        <time>2026-05-14T16:02:41+02:00</time>
      </trkpt>
      <trkpt lat="47.06473" lon="5.19721">
        <ele>179.10059</ele>
        <time>2026-05-14T16:02:42+02:00</time>
      </trkpt>
      <trkpt lat="47.06478" lon="5.19726">
        <ele>178.90039</ele>
        <time>2026-05-14T16:02:43+02:00</time>
      </trkpt>
      <trkpt lat="47.06483" lon="5.19731">
        <ele>179.10059</ele>
        <time>2026-05-14T16:02:44+02:00</time>
      </trkpt>
      <trkpt lat="47.06488" lon="5.19737">
        <ele>178.90039</ele>
        <time>2026-05-14T16:02:45+02:00</time>
      </trkpt>
      <trkpt lat="47.06494" lon="5.19742">
        <ele>179.2002</ele>
        <time>2026-05-14T16:02:46+02:00</time>
      </trkpt>
      <trkpt lat="47.06499" lon="5.19747">
        <ele>179</ele>
        <time>2026-05-14T16:02:47+02:00</time>
      </trkpt>
      <trkpt lat="47.06504" lon="5.19752">
        <ele>179.10059</ele>
        <time>2026-05-14T16:02:48+02:00</time>
      </trkpt>
      <trkpt lat="47.06509" lon="5.19757">
        <ele>179.40039</ele>
        <time>2026-05-14T16:02:49+02:00</time>
      </trkpt>
      <trkpt lat="47.06514" lon="5.19762">
        <ele>179.2002</ele>
        <time>2026-05-14T16:02:50+02:00</time>
      </trkpt>
      <trkpt lat="47.0652" lon="5.19767">
        <ele>179.40039</ele>
        <time>2026-05-14T16:02:51+02:00</time>
      </trkpt>
      <trkpt lat="47.06526" lon="5.19773">
        <ele>179.2002</ele>
        <time>2026-05-14T16:02:52+02:00</time>
      </trkpt>
      <trkpt lat="47.06531" lon="5.19778">
        <ele>179.5</ele>
        <time>2026-05-14T16:02:53+02:00</time>
      </trkpt>
      <trkpt lat="47.06536" lon="5.19783">
        <ele>179.40039</ele>
        <time>2026-05-14T16:02:54+02:00</time>
      </trkpt>
      <trkpt lat="47.06542" lon="5.19788">
        <ele>179</ele>
        <time>2026-05-14T16:02:55+02:00</time>
      </trkpt>
      <trkpt lat="47.06547" lon="5.19794">
        <ele>179.10059</ele>
        <time>2026-05-14T16:02:56+02:00</time>
      </trkpt>
      <trkpt lat="47.06552" lon="5.19799">
        <ele>178.90039</ele>
        <time>2026-05-14T16:02:57+02:00</time>
      </trkpt>
      <trkpt lat="47.06558" lon="5.19804">
        <ele>179.10059</ele>
        <time>2026-05-14T16:02:58+02:00</time>
      </trkpt>
      <trkpt lat="47.06563" lon="5.1981">
        <ele>178.7998</ele>
        <time>2026-05-14T16:02:59+02:00</time>
      </trkpt>
      <trkpt lat="47.06568" lon="5.19815">
        <ele>178.2002</ele>
        <time>2026-05-14T16:03:00+02:00</time>
      </trkpt>
      <trkpt lat="47.06574" lon="5.1982">
        <ele>178.2998</ele>
        <time>2026-05-14T16:03:01+02:00</time>
      </trkpt>
      <trkpt lat="47.06579" lon="5.19825">
        <ele>178.2998</ele>
        <time>2026-05-14T16:03:02+02:00</time>
      </trkpt>
      <trkpt lat="47.06584" lon="5.19831">
        <ele>178.60059</ele>
        <time>2026-05-14T16:03:03+02:00</time>
      </trkpt>
      <trkpt lat="47.0659" lon="5.19836">
        <ele>178.7002</ele>
        <time>2026-05-14T16:03:04+02:00</time>
      </trkpt>
      <trkpt lat="47.06595" lon="5.19841">
        <ele>178.40039</ele>
        <time>2026-05-14T16:03:05+02:00</time>
      </trkpt>
      <trkpt lat="47.066" lon="5.19846">
        <ele>178.2998</ele>
        <time>2026-05-14T16:03:06+02:00</time>
      </trkpt>
      <trkpt lat="47.06606" lon="5.19851">
        <ele>178.40039</ele>
        <time>2026-05-14T16:03:07+02:00</time>
      </trkpt>
      <trkpt lat="47.06611" lon="5.19856">
        <ele>178.2998</ele>
        <time>2026-05-14T16:03:08+02:00</time>
      </trkpt>
      <trkpt lat="47.06617" lon="5.19861">
        <ele>178.40039</ele>
        <time>2026-05-14T16:03:09+02:00</time>
      </trkpt>
      <trkpt lat="47.06622" lon="5.19866">
        <ele>178.2998</ele>
        <time>2026-05-14T16:03:10+02:00</time>
      </trkpt>
      <trkpt lat="47.06627" lon="5.19871">
        <ele>178.2002</ele>
        <time>2026-05-14T16:03:11+02:00</time>
      </trkpt>
      <trkpt lat="47.06633" lon="5.19876">
        <ele>178</ele>
        <time>2026-05-14T16:03:12+02:00</time>
      </trkpt>
      <trkpt lat="47.06638" lon="5.1988">
        <ele>178.2002</ele>
        <time>2026-05-14T16:03:13+02:00</time>
      </trkpt>
      <trkpt lat="47.06645" lon="5.19884">
        <ele>177.90039</ele>
        <time>2026-05-14T16:03:14+02:00</time>
      </trkpt>
      <trkpt lat="47.0665" lon="5.19888">
        <ele>178</ele>
        <time>2026-05-14T16:03:15+02:00</time>
      </trkpt>
      <trkpt lat="47.06656" lon="5.19892">
        <ele>177.7998</ele>
        <time>2026-05-14T16:03:16+02:00</time>
      </trkpt>
      <trkpt lat="47.06662" lon="5.19897">
        <ele>177.7998</ele>
        <time>2026-05-14T16:03:17+02:00</time>
      </trkpt>
      <trkpt lat="47.06667" lon="5.19901">
        <ele>177.7998</ele>
        <time>2026-05-14T16:03:18+02:00</time>
      </trkpt>
      <trkpt lat="47.06673" lon="5.19906">
        <ele>177.7002</ele>
        <time>2026-05-14T16:03:19+02:00</time>
      </trkpt>
      <trkpt lat="47.06678" lon="5.19911">
        <ele>177.7998</ele>
        <time>2026-05-14T16:03:20+02:00</time>
      </trkpt>
      <trkpt lat="47.06683" lon="5.19915">
        <ele>177.7002</ele>
        <time>2026-05-14T16:03:21+02:00</time>
      </trkpt>
      <trkpt lat="47.06688" lon="5.1992">
        <ele>177.7998</ele>
        <time>2026-05-14T16:03:22+02:00</time>
      </trkpt>
      <trkpt lat="47.06693" lon="5.19925">
        <ele>177.7998</ele>
        <time>2026-05-14T16:03:23+02:00</time>
      </trkpt>
      <trkpt lat="47.06698" lon="5.1993">
        <ele>177.7998</ele>
        <time>2026-05-14T16:03:24+02:00</time>
      </trkpt>
      <trkpt lat="47.06703" lon="5.19934">
        <ele>177.60059</ele>
        <time>2026-05-14T16:03:25+02:00</time>
      </trkpt>
      <trkpt lat="47.06708" lon="5.19939">
        <ele>177.7002</ele>
        <time>2026-05-14T16:03:26+02:00</time>
      </trkpt>
      <trkpt lat="47.06713" lon="5.19943">
        <ele>177.60059</ele>
        <time>2026-05-14T16:03:27+02:00</time>
      </trkpt>
      <trkpt lat="47.06718" lon="5.19948">
        <ele>177.7002</ele>
        <time>2026-05-14T16:03:28+02:00</time>
      </trkpt>
      <trkpt lat="47.06723" lon="5.19952">
        <ele>177.60059</ele>
        <time>2026-05-14T16:03:29+02:00</time>
      </trkpt>
      <trkpt lat="47.06728" lon="5.19957">
        <ele>177.60059</ele>
        <time>2026-05-14T16:03:30+02:00</time>
      </trkpt>
      <trkpt lat="47.06733" lon="5.19961">
        <ele>177.40039</ele>
        <time>2026-05-14T16:03:31+02:00</time>
      </trkpt>
      <trkpt lat="47.06737" lon="5.19966">
        <ele>177.5</ele>
        <time>2026-05-14T16:03:32+02:00</time>
      </trkpt>
      <trkpt lat="47.06742" lon="5.19971">
        <ele>177.5</ele>
        <time>2026-05-14T16:03:33+02:00</time>
      </trkpt>
      <trkpt lat="47.06746" lon="5.19975">
        <ele>177.40039</ele>
        <time>2026-05-14T16:03:34+02:00</time>
      </trkpt>
      <trkpt lat="47.06751" lon="5.1998">
        <ele>177.40039</ele>
        <time>2026-05-14T16:03:35+02:00</time>
      </trkpt>
      <trkpt lat="47.06756" lon="5.19984">
        <ele>177.40039</ele>
        <time>2026-05-14T16:03:36+02:00</time>
      </trkpt>
      <trkpt lat="47.06761" lon="5.19989">
        <ele>177.40039</ele>
        <time>2026-05-14T16:03:37+02:00</time>
      </trkpt>
      <trkpt lat="47.06765" lon="5.19993">
        <ele>177.40039</ele>
        <time>2026-05-14T16:03:38+02:00</time>
      </trkpt>
      <trkpt lat="47.0677" lon="5.19998">
        <ele>177.40039</ele>
        <time>2026-05-14T16:03:39+02:00</time>
      </trkpt>
      <trkpt lat="47.06775" lon="5.20002">
        <ele>177.5</ele>
        <time>2026-05-14T16:03:40+02:00</time>
      </trkpt>
      <trkpt lat="47.0678" lon="5.20006">
        <ele>177.7002</ele>
        <time>2026-05-14T16:03:41+02:00</time>
      </trkpt>
      <trkpt lat="47.06784" lon="5.20011">
        <ele>177.7002</ele>
        <time>2026-05-14T16:03:42+02:00</time>
      </trkpt>
      <trkpt lat="47.06789" lon="5.20015">
        <ele>177.7998</ele>
        <time>2026-05-14T16:03:43+02:00</time>
      </trkpt>
      <trkpt lat="47.06793" lon="5.20019">
        <ele>177.7002</ele>
        <time>2026-05-14T16:03:44+02:00</time>
      </trkpt>
      <trkpt lat="47.06798" lon="5.20024">
        <ele>177.60059</ele>
        <time>2026-05-14T16:03:45+02:00</time>
      </trkpt>
      <trkpt lat="47.06802" lon="5.20028">
        <ele>177.5</ele>
        <time>2026-05-14T16:03:46+02:00</time>
      </trkpt>
      <trkpt lat="47.06806" lon="5.20032">
        <ele>177.60059</ele>
        <time>2026-05-14T16:03:47+02:00</time>
      </trkpt>
      <trkpt lat="47.06811" lon="5.20036">
        <ele>177.5</ele>
        <time>2026-05-14T16:03:48+02:00</time>
      </trkpt>
      <trkpt lat="47.06815" lon="5.20041">
        <ele>177.5</ele>
        <time>2026-05-14T16:03:49+02:00</time>
      </trkpt>
      <trkpt lat="47.06819" lon="5.20045">
        <ele>177.5</ele>
        <time>2026-05-14T16:03:50+02:00</time>
      </trkpt>
      <trkpt lat="47.06823" lon="5.20049">
        <ele>177.5</ele>
        <time>2026-05-14T16:03:51+02:00</time>
      </trkpt>
      <trkpt lat="47.06828" lon="5.20054">
        <ele>177.40039</ele>
        <time>2026-05-14T16:03:52+02:00</time>
      </trkpt>
      <trkpt lat="47.06832" lon="5.20058">
        <ele>177.40039</ele>
        <time>2026-05-14T16:03:53+02:00</time>
      </trkpt>
      <trkpt lat="47.06837" lon="5.20063">
        <ele>177.40039</ele>
        <time>2026-05-14T16:03:54+02:00</time>
      </trkpt>
      <trkpt lat="47.06841" lon="5.20067">
        <ele>177.40039</ele>
        <time>2026-05-14T16:03:55+02:00</time>
      </trkpt>
      <trkpt lat="47.06846" lon="5.20071">
        <ele>177.5</ele>
        <time>2026-05-14T16:03:56+02:00</time>
      </trkpt>
      <trkpt lat="47.06851" lon="5.20076">
        <ele>177.60059</ele>
        <time>2026-05-14T16:03:57+02:00</time>
      </trkpt>
      <trkpt lat="47.06856" lon="5.20081">
        <ele>177.7002</ele>
        <time>2026-05-14T16:03:58+02:00</time>
      </trkpt>
      <trkpt lat="47.0686" lon="5.20085">
        <ele>177.7002</ele>
        <time>2026-05-14T16:03:59+02:00</time>
      </trkpt>
      <trkpt lat="47.06865" lon="5.20089">
        <ele>177.60059</ele>
        <time>2026-05-14T16:04:00+02:00</time>
      </trkpt>
      <trkpt lat="47.0687" lon="5.20094">
        <ele>177.5</ele>
        <time>2026-05-14T16:04:01+02:00</time>
      </trkpt>
      <trkpt lat="47.06874" lon="5.20098">
        <ele>177.5</ele>
        <time>2026-05-14T16:04:02+02:00</time>
      </trkpt>
      <trkpt lat="47.06879" lon="5.20102">
        <ele>177.5</ele>
        <time>2026-05-14T16:04:03+02:00</time>
      </trkpt>
      <trkpt lat="47.06883" lon="5.20107">
        <ele>177.5</ele>
        <time>2026-05-14T16:04:04+02:00</time>
      </trkpt>
      <trkpt lat="47.06888" lon="5.20112">
        <ele>177.60059</ele>
        <time>2026-05-14T16:04:05+02:00</time>
      </trkpt>
      <trkpt lat="47.06893" lon="5.20116">
        <ele>177.5</ele>
        <time>2026-05-14T16:04:06+02:00</time>
      </trkpt>
      <trkpt lat="47.06897" lon="5.2012">
        <ele>177.40039</ele>
        <time>2026-05-14T16:04:07+02:00</time>
      </trkpt>
      <trkpt lat="47.06902" lon="5.20125">
        <ele>177.40039</ele>
        <time>2026-05-14T16:04:08+02:00</time>
      </trkpt>
      <trkpt lat="47.06906" lon="5.20129">
        <ele>177.5</ele>
        <time>2026-05-14T16:04:09+02:00</time>
      </trkpt>
      <trkpt lat="47.06911" lon="5.20134">
        <ele>177.5</ele>
        <time>2026-05-14T16:04:10+02:00</time>
      </trkpt>
      <trkpt lat="47.06915" lon="5.20138">
        <ele>177.5</ele>
        <time>2026-05-14T16:04:11+02:00</time>
      </trkpt>
      <trkpt lat="47.0692" lon="5.20142">
        <ele>177.5</ele>
        <time>2026-05-14T16:04:12+02:00</time>
      </trkpt>
      <trkpt lat="47.06925" lon="5.20147">
        <ele>177.5</ele>
        <time>2026-05-14T16:04:13+02:00</time>
      </trkpt>
      <trkpt lat="47.06929" lon="5.20151">
        <ele>177.5</ele>
        <time>2026-05-14T16:04:14+02:00</time>
      </trkpt>
      <trkpt lat="47.06934" lon="5.20156">
        <ele>177.7002</ele>
        <time>2026-05-14T16:04:15+02:00</time>
      </trkpt>
      <trkpt lat="47.06938" lon="5.2016">
        <ele>177.90039</ele>
        <time>2026-05-14T16:04:16+02:00</time>
      </trkpt>
      <trkpt lat="47.06943" lon="5.20165">
        <ele>177.7998</ele>
        <time>2026-05-14T16:04:17+02:00</time>
      </trkpt>
      <trkpt lat="47.06947" lon="5.20169">
        <ele>178</ele>
        <time>2026-05-14T16:04:18+02:00</time>
      </trkpt>
      <trkpt lat="47.06952" lon="5.20173">
        <ele>178</ele>
        <time>2026-05-14T16:04:19+02:00</time>
      </trkpt>
      <trkpt lat="47.06956" lon="5.20178">
        <ele>178.10059</ele>
        <time>2026-05-14T16:04:20+02:00</time>
      </trkpt>
      <trkpt lat="47.06961" lon="5.20183">
        <ele>178.10059</ele>
        <time>2026-05-14T16:04:21+02:00</time>
      </trkpt>
      <trkpt lat="47.06966" lon="5.20187">
        <ele>178.40039</ele>
        <time>2026-05-14T16:04:22+02:00</time>
      </trkpt>
      <trkpt lat="47.0697" lon="5.20192">
        <ele>178.40039</ele>
        <time>2026-05-14T16:04:23+02:00</time>
      </trkpt>
      <trkpt lat="47.06975" lon="5.20196">
        <ele>178.60059</ele>
        <time>2026-05-14T16:04:24+02:00</time>
      </trkpt>
      <trkpt lat="47.0698" lon="5.20201">
        <ele>178.5</ele>
        <time>2026-05-14T16:04:25+02:00</time>
      </trkpt>
      <trkpt lat="47.06984" lon="5.20205">
        <ele>178.5</ele>
        <time>2026-05-14T16:04:26+02:00</time>
      </trkpt>
      <trkpt lat="47.06989" lon="5.20209">
        <ele>178.2998</ele>
        <time>2026-05-14T16:04:27+02:00</time>
      </trkpt>
      <trkpt lat="47.06993" lon="5.20214">
        <ele>178.60059</ele>
        <time>2026-05-14T16:04:28+02:00</time>
      </trkpt>
      <trkpt lat="47.06998" lon="5.20219">
        <ele>178.5</ele>
        <time>2026-05-14T16:04:29+02:00</time>
      </trkpt>
      <trkpt lat="47.07003" lon="5.20224">
        <ele>178.7002</ele>
        <time>2026-05-14T16:04:30+02:00</time>
      </trkpt>
      <trkpt lat="47.07008" lon="5.20229">
        <ele>178.7002</ele>
        <time>2026-05-14T16:04:31+02:00</time>
      </trkpt>
      <trkpt lat="47.07013" lon="5.20234">
        <ele>178.2998</ele>
        <time>2026-05-14T16:04:32+02:00</time>
      </trkpt>
      <trkpt lat="47.07018" lon="5.20239">
        <ele>178.5</ele>
        <time>2026-05-14T16:04:33+02:00</time>
      </trkpt>
      <trkpt lat="47.07023" lon="5.20244">
        <ele>178.2998</ele>
        <time>2026-05-14T16:04:34+02:00</time>
      </trkpt>
      <trkpt lat="47.07028" lon="5.20249">
        <ele>178.40039</ele>
        <time>2026-05-14T16:04:35+02:00</time>
      </trkpt>
      <trkpt lat="47.07033" lon="5.20253">
        <ele>178.2998</ele>
        <time>2026-05-14T16:04:36+02:00</time>
      </trkpt>
      <trkpt lat="47.07037" lon="5.20258">
        <ele>178.40039</ele>
        <time>2026-05-14T16:04:37+02:00</time>
      </trkpt>
      <trkpt lat="47.07042" lon="5.20263">
        <ele>178.2998</ele>
        <time>2026-05-14T16:04:38+02:00</time>
      </trkpt>
      <trkpt lat="47.07047" lon="5.20268">
        <ele>178.2998</ele>
        <time>2026-05-14T16:04:39+02:00</time>
      </trkpt>
      <trkpt lat="47.07052" lon="5.20272">
        <ele>178.2002</ele>
        <time>2026-05-14T16:04:40+02:00</time>
      </trkpt>
      <trkpt lat="47.07057" lon="5.20276">
        <ele>178</ele>
        <time>2026-05-14T16:04:41+02:00</time>
      </trkpt>
      <trkpt lat="47.07061" lon="5.2028">
        <ele>178</ele>
        <time>2026-05-14T16:04:42+02:00</time>
      </trkpt>
      <trkpt lat="47.07066" lon="5.20285">
        <ele>177.90039</ele>
        <time>2026-05-14T16:04:43+02:00</time>
      </trkpt>
      <trkpt lat="47.07071" lon="5.20288">
        <ele>177.7998</ele>
        <time>2026-05-14T16:04:44+02:00</time>
      </trkpt>
      <trkpt lat="47.07075" lon="5.20292">
        <ele>177.90039</ele>
        <time>2026-05-14T16:04:45+02:00</time>
      </trkpt>
      <trkpt lat="47.07079" lon="5.20297">
        <ele>177.7002</ele>
        <time>2026-05-14T16:04:46+02:00</time>
      </trkpt>
      <trkpt lat="47.07083" lon="5.20301">
        <ele>177.60059</ele>
        <time>2026-05-14T16:04:47+02:00</time>
      </trkpt>
      <trkpt lat="47.07087" lon="5.20304">
        <ele>177.60059</ele>
        <time>2026-05-14T16:04:48+02:00</time>
      </trkpt>
      <trkpt lat="47.07092" lon="5.20308">
        <ele>177.60059</ele>
        <time>2026-05-14T16:04:49+02:00</time>
      </trkpt>
      <trkpt lat="47.07096" lon="5.20312">
        <ele>177.5</ele>
        <time>2026-05-14T16:04:50+02:00</time>
      </trkpt>
      <trkpt lat="47.071" lon="5.20316">
        <ele>177.5</ele>
        <time>2026-05-14T16:04:51+02:00</time>
      </trkpt>
      <trkpt lat="47.07104" lon="5.2032">
        <ele>177.5</ele>
        <time>2026-05-14T16:04:52+02:00</time>
      </trkpt>
      <trkpt lat="47.07109" lon="5.20324">
        <ele>177.5</ele>
        <time>2026-05-14T16:04:53+02:00</time>
      </trkpt>
      <trkpt lat="47.07113" lon="5.20328">
        <ele>177.40039</ele>
        <time>2026-05-14T16:04:54+02:00</time>
      </trkpt>
      <trkpt lat="47.07118" lon="5.20333">
        <ele>177.5</ele>
        <time>2026-05-14T16:04:55+02:00</time>
      </trkpt>
      <trkpt lat="47.07123" lon="5.20337">
        <ele>177.5</ele>
        <time>2026-05-14T16:04:56+02:00</time>
      </trkpt>
      <trkpt lat="47.07127" lon="5.20342">
        <ele>177.60059</ele>
        <time>2026-05-14T16:04:57+02:00</time>
      </trkpt>
      <trkpt lat="47.07132" lon="5.20346">
        <ele>177.60059</ele>
        <time>2026-05-14T16:04:58+02:00</time>
      </trkpt>
      <trkpt lat="47.07137" lon="5.20351">
        <ele>177.7002</ele>
        <time>2026-05-14T16:04:59+02:00</time>
      </trkpt>
      <trkpt lat="47.07141" lon="5.20355">
        <ele>177.7002</ele>
        <time>2026-05-14T16:05:00+02:00</time>
      </trkpt>
      <trkpt lat="47.07146" lon="5.2036">
        <ele>177.7998</ele>
        <time>2026-05-14T16:05:01+02:00</time>
      </trkpt>
      <trkpt lat="47.0715" lon="5.20364">
        <ele>177.7998</ele>
        <time>2026-05-14T16:05:02+02:00</time>
      </trkpt>
      <trkpt lat="47.07155" lon="5.20369">
        <ele>177.90039</ele>
        <time>2026-05-14T16:05:03+02:00</time>
      </trkpt>
      <trkpt lat="47.0716" lon="5.20373">
        <ele>177.90039</ele>
        <time>2026-05-14T16:05:04+02:00</time>
      </trkpt>
      <trkpt lat="47.07165" lon="5.20378">
        <ele>178.10059</ele>
        <time>2026-05-14T16:05:05+02:00</time>
      </trkpt>
      <trkpt lat="47.07169" lon="5.20382">
        <ele>178.10059</ele>
        <time>2026-05-14T16:05:06+02:00</time>
      </trkpt>
      <trkpt lat="47.07174" lon="5.20387">
        <ele>178</ele>
        <time>2026-05-14T16:05:07+02:00</time>
      </trkpt>
      <trkpt lat="47.07178" lon="5.20392">
        <ele>178.10059</ele>
        <time>2026-05-14T16:05:08+02:00</time>
      </trkpt>
      <trkpt lat="47.07183" lon="5.20397">
        <ele>178</ele>
        <time>2026-05-14T16:05:09+02:00</time>
      </trkpt>
      <trkpt lat="47.07187" lon="5.20402">
        <ele>178.2998</ele>
        <time>2026-05-14T16:05:10+02:00</time>
      </trkpt>
      <trkpt lat="47.07192" lon="5.20407">
        <ele>178.2998</ele>
        <time>2026-05-14T16:05:11+02:00</time>
      </trkpt>
      <trkpt lat="47.07197" lon="5.20412">
        <ele>178.2002</ele>
        <time>2026-05-14T16:05:12+02:00</time>
      </trkpt>
      <trkpt lat="47.07202" lon="5.20417">
        <ele>177.7998</ele>
        <time>2026-05-14T16:05:13+02:00</time>
      </trkpt>
      <trkpt lat="47.07206" lon="5.20423">
        <ele>177.7002</ele>
        <time>2026-05-14T16:05:14+02:00</time>
      </trkpt>
      <trkpt lat="47.07211" lon="5.20428">
        <ele>178.2002</ele>
        <time>2026-05-14T16:05:15+02:00</time>
      </trkpt>
      <trkpt lat="47.07216" lon="5.20434">
        <ele>178.2002</ele>
        <time>2026-05-14T16:05:16+02:00</time>
      </trkpt>
      <trkpt lat="47.07221" lon="5.20439">
        <ele>178.7998</ele>
        <time>2026-05-14T16:05:17+02:00</time>
      </trkpt>
      <trkpt lat="47.07226" lon="5.20445">
        <ele>179.2002</ele>
        <time>2026-05-14T16:05:18+02:00</time>
      </trkpt>
      <trkpt lat="47.0723" lon="5.2045">
        <ele>179.2002</ele>
        <time>2026-05-14T16:05:19+02:00</time>
      </trkpt>
      <trkpt lat="47.07235" lon="5.20455">
        <ele>179.2002</ele>
        <time>2026-05-14T16:05:20+02:00</time>
      </trkpt>
      <trkpt lat="47.0724" lon="5.2046">
        <ele>179.2002</ele>
        <time>2026-05-14T16:05:21+02:00</time>
      </trkpt>
      <trkpt lat="47.07245" lon="5.20465">
        <ele>179.2002</ele>
        <time>2026-05-14T16:05:22+02:00</time>
      </trkpt>
      <trkpt lat="47.0725" lon="5.20471">
        <ele>179.2002</ele>
        <time>2026-05-14T16:05:23+02:00</time>
      </trkpt>
      <trkpt lat="47.07255" lon="5.20476">
        <ele>179.2002</ele>
        <time>2026-05-14T16:05:24+02:00</time>
      </trkpt>
      <trkpt lat="47.07259" lon="5.20481">
        <ele>179.2002</ele>
        <time>2026-05-14T16:05:25+02:00</time>
      </trkpt>
      <trkpt lat="47.07264" lon="5.20486">
        <ele>179</ele>
        <time>2026-05-14T16:05:26+02:00</time>
      </trkpt>
      <trkpt lat="47.07269" lon="5.2049">
        <ele>179</ele>
        <time>2026-05-14T16:05:27+02:00</time>
      </trkpt>
      <trkpt lat="47.07274" lon="5.20495">
        <ele>178.90039</ele>
        <time>2026-05-14T16:05:28+02:00</time>
      </trkpt>
      <trkpt lat="47.07278" lon="5.20499">
        <ele>178.7002</ele>
        <time>2026-05-14T16:05:29+02:00</time>
      </trkpt>
      <trkpt lat="47.07283" lon="5.20504">
        <ele>178.7002</ele>
        <time>2026-05-14T16:05:30+02:00</time>
      </trkpt>
      <trkpt lat="47.07287" lon="5.20509">
        <ele>178.7002</ele>
        <time>2026-05-14T16:05:31+02:00</time>
      </trkpt>
      <trkpt lat="47.07292" lon="5.20513">
        <ele>178.60059</ele>
        <time>2026-05-14T16:05:32+02:00</time>
      </trkpt>
      <trkpt lat="47.07297" lon="5.20518">
        <ele>178.2998</ele>
        <time>2026-05-14T16:05:33+02:00</time>
      </trkpt>
      <trkpt lat="47.07301" lon="5.20522">
        <ele>178.5</ele>
        <time>2026-05-14T16:05:34+02:00</time>
      </trkpt>
      <trkpt lat="47.07306" lon="5.20527">
        <ele>178.40039</ele>
        <time>2026-05-14T16:05:35+02:00</time>
      </trkpt>
      <trkpt lat="47.0731" lon="5.20531">
        <ele>178.7002</ele>
        <time>2026-05-14T16:05:36+02:00</time>
      </trkpt>
      <trkpt lat="47.07315" lon="5.20536">
        <ele>178.40039</ele>
        <time>2026-05-14T16:05:37+02:00</time>
      </trkpt>
      <trkpt lat="47.0732" lon="5.2054">
        <ele>178.10059</ele>
        <time>2026-05-14T16:05:38+02:00</time>
      </trkpt>
      <trkpt lat="47.07325" lon="5.20545">
        <ele>177.7998</ele>
        <time>2026-05-14T16:05:39+02:00</time>
      </trkpt>
      <trkpt lat="47.07329" lon="5.2055">
        <ele>178</ele>
        <time>2026-05-14T16:05:40+02:00</time>
      </trkpt>
      <trkpt lat="47.07334" lon="5.20554">
        <ele>177.7998</ele>
        <time>2026-05-14T16:05:41+02:00</time>
      </trkpt>
      <trkpt lat="47.07338" lon="5.20559">
        <ele>178.10059</ele>
        <time>2026-05-14T16:05:42+02:00</time>
      </trkpt>
      <trkpt lat="47.07343" lon="5.20563">
        <ele>177.90039</ele>
        <time>2026-05-14T16:05:43+02:00</time>
      </trkpt>
      <trkpt lat="47.07348" lon="5.20568">
        <ele>177.7998</ele>
        <time>2026-05-14T16:05:44+02:00</time>
      </trkpt>
      <trkpt lat="47.07353" lon="5.20573">
        <ele>177.7998</ele>
        <time>2026-05-14T16:05:45+02:00</time>
      </trkpt>
      <trkpt lat="47.07357" lon="5.20577">
        <ele>177.7998</ele>
        <time>2026-05-14T16:05:46+02:00</time>
      </trkpt>
      <trkpt lat="47.07361" lon="5.20581">
        <ele>177.90039</ele>
        <time>2026-05-14T16:05:47+02:00</time>
      </trkpt>
      <trkpt lat="47.07366" lon="5.20585">
        <ele>177.7998</ele>
        <time>2026-05-14T16:05:48+02:00</time>
      </trkpt>
      <trkpt lat="47.07371" lon="5.2059">
        <ele>177.90039</ele>
        <time>2026-05-14T16:05:49+02:00</time>
      </trkpt>
      <trkpt lat="47.07375" lon="5.20595">
        <ele>177.7998</ele>
        <time>2026-05-14T16:05:50+02:00</time>
      </trkpt>
      <trkpt lat="47.0738" lon="5.20599">
        <ele>177.90039</ele>
        <time>2026-05-14T16:05:51+02:00</time>
      </trkpt>
      <trkpt lat="47.07384" lon="5.20604">
        <ele>177.7998</ele>
        <time>2026-05-14T16:05:52+02:00</time>
      </trkpt>
      <trkpt lat="47.07389" lon="5.20609">
        <ele>177.7998</ele>
        <time>2026-05-14T16:05:53+02:00</time>
      </trkpt>
      <trkpt lat="47.07393" lon="5.20613">
        <ele>177.7998</ele>
        <time>2026-05-14T16:05:54+02:00</time>
      </trkpt>
      <trkpt lat="47.07398" lon="5.20618">
        <ele>177.90039</ele>
        <time>2026-05-14T16:05:55+02:00</time>
      </trkpt>
      <trkpt lat="47.07403" lon="5.20622">
        <ele>177.7998</ele>
        <time>2026-05-14T16:05:56+02:00</time>
      </trkpt>
      <trkpt lat="47.07408" lon="5.20626">
        <ele>177.7998</ele>
        <time>2026-05-14T16:05:57+02:00</time>
      </trkpt>
      <trkpt lat="47.07412" lon="5.20631">
        <ele>177.7002</ele>
        <time>2026-05-14T16:05:58+02:00</time>
      </trkpt>
      <trkpt lat="47.07417" lon="5.20635">
        <ele>177.7002</ele>
        <time>2026-05-14T16:05:59+02:00</time>
      </trkpt>
      <trkpt lat="47.07422" lon="5.2064">
        <ele>177.60059</ele>
        <time>2026-05-14T16:06:00+02:00</time>
      </trkpt>
      <trkpt lat="47.07427" lon="5.20645">
        <ele>177.7998</ele>
        <time>2026-05-14T16:06:01+02:00</time>
      </trkpt>
      <trkpt lat="47.07431" lon="5.20649">
        <ele>177.7998</ele>
        <time>2026-05-14T16:06:02+02:00</time>
      </trkpt>
      <trkpt lat="47.07436" lon="5.20654">
        <ele>177.7002</ele>
        <time>2026-05-14T16:06:03+02:00</time>
      </trkpt>
      <trkpt lat="47.07441" lon="5.20658">
        <ele>177.7002</ele>
        <time>2026-05-14T16:06:04+02:00</time>
      </trkpt>
      <trkpt lat="47.07446" lon="5.20663">
        <ele>177.60059</ele>
        <time>2026-05-14T16:06:05+02:00</time>
      </trkpt>
      <trkpt lat="47.0745" lon="5.20667">
        <ele>177.60059</ele>
        <time>2026-05-14T16:06:06+02:00</time>
      </trkpt>
      <trkpt lat="47.07455" lon="5.20672">
        <ele>177.5</ele>
        <time>2026-05-14T16:06:07+02:00</time>
      </trkpt>
      <trkpt lat="47.07459" lon="5.20676">
        <ele>177.5</ele>
        <time>2026-05-14T16:06:08+02:00</time>
      </trkpt>
      <trkpt lat="47.07463" lon="5.20681">
        <ele>177.40039</ele>
        <time>2026-05-14T16:06:09+02:00</time>
      </trkpt>
      <trkpt lat="47.07468" lon="5.20685">
        <ele>177.40039</ele>
        <time>2026-05-14T16:06:10+02:00</time>
      </trkpt>
      <trkpt lat="47.07472" lon="5.20688">
        <ele>177.40039</ele>
        <time>2026-05-14T16:06:11+02:00</time>
      </trkpt>
      <trkpt lat="47.07474" lon="5.2069">
        <ele>177.2998</ele>
        <time>2026-05-14T16:06:12+02:00</time>
      </trkpt>
      <trkpt lat="47.07475" lon="5.20691">
        <ele>177.2998</ele>
        <time>2026-05-14T16:06:13+02:00</time>
      </trkpt>
      <trkpt lat="47.07475" lon="5.20691">
        <ele>177.2998</ele>
        <time>2026-05-14T16:06:14+02:00</time>
      </trkpt>
      <trkpt lat="47.07475" lon="5.20691">
        <ele>177.2998</ele>
        <time>2026-05-14T16:06:15+02:00</time>
      </trkpt>
      <trkpt lat="47.07475" lon="5.20691">
        <ele>177.2998</ele>
        <time>2026-05-14T16:06:16+02:00</time>
      </trkpt>
      <trkpt lat="47.07475" lon="5.20691">
        <ele>177.2998</ele>
        <time>2026-05-14T16:06:17+02:00</time>
      </trkpt>
      <trkpt lat="47.07487" lon="5.20706">
        <ele>177.2002</ele>
        <time>2026-05-14T16:06:35+02:00</time>
      </trkpt>
      <trkpt lat="47.0749" lon="5.20708">
        <ele>177.2002</ele>
        <time>2026-05-14T16:06:36+02:00</time>
      </trkpt>
      <trkpt lat="47.07492" lon="5.20711">
        <ele>177.2002</ele>
        <time>2026-05-14T16:06:37+02:00</time>
      </trkpt>
      <trkpt lat="47.07495" lon="5.20713">
        <ele>177.2002</ele>
        <time>2026-05-14T16:06:38+02:00</time>
      </trkpt>
      <trkpt lat="47.07498" lon="5.20716">
        <ele>177.2002</ele>
        <time>2026-05-14T16:06:39+02:00</time>
      </trkpt>
      <trkpt lat="47.07501" lon="5.20719">
        <ele>177.2002</ele>
        <time>2026-05-14T16:06:40+02:00</time>
      </trkpt>
      <trkpt lat="47.07504" lon="5.20723">
        <ele>177.2002</ele>
        <time>2026-05-14T16:06:41+02:00</time>
      </trkpt>
      <trkpt lat="47.07507" lon="5.20728">
        <ele>177.2002</ele>
        <time>2026-05-14T16:06:42+02:00</time>
      </trkpt>
      <trkpt lat="47.07511" lon="5.20733">
        <ele>177.2002</ele>
        <time>2026-05-14T16:06:43+02:00</time>
      </trkpt>
      <trkpt lat="47.07514" lon="5.20737">
        <ele>177.2002</ele>
        <time>2026-05-14T16:06:44+02:00</time>
      </trkpt>
      <trkpt lat="47.07518" lon="5.20742">
        <ele>177.2002</ele>
        <time>2026-05-14T16:06:45+02:00</time>
      </trkpt>
      <trkpt lat="47.07522" lon="5.20747">
        <ele>177.2002</ele>
        <time>2026-05-14T16:06:46+02:00</time>
      </trkpt>
      <trkpt lat="47.07525" lon="5.20752">
        <ele>177.2002</ele>
        <time>2026-05-14T16:06:47+02:00</time>
      </trkpt>
      <trkpt lat="47.07528" lon="5.20757">
        <ele>177.2002</ele>
        <time>2026-05-14T16:06:48+02:00</time>
      </trkpt>
      <trkpt lat="47.07531" lon="5.20763">
        <ele>177.2002</ele>
        <time>2026-05-14T16:06:49+02:00</time>
      </trkpt>
      <trkpt lat="47.07535" lon="5.20768">
        <ele>177.2002</ele>
        <time>2026-05-14T16:06:50+02:00</time>
      </trkpt>
      <trkpt lat="47.07539" lon="5.20773">
        <ele>177.2002</ele>
        <time>2026-05-14T16:06:51+02:00</time>
      </trkpt>
      <trkpt lat="47.07543" lon="5.20779">
        <ele>177.2002</ele>
        <time>2026-05-14T16:06:52+02:00</time>
      </trkpt>
      <trkpt lat="47.07546" lon="5.20784">
        <ele>177.2002</ele>
        <time>2026-05-14T16:06:53+02:00</time>
      </trkpt>
      <trkpt lat="47.0755" lon="5.2079">
        <ele>177.2002</ele>
        <time>2026-05-14T16:06:54+02:00</time>
      </trkpt>
      <trkpt lat="47.07554" lon="5.20795">
        <ele>177.2002</ele>
        <time>2026-05-14T16:06:55+02:00</time>
      </trkpt>
      <trkpt lat="47.07557" lon="5.208">
        <ele>177.2002</ele>
        <time>2026-05-14T16:06:56+02:00</time>
      </trkpt>
      <trkpt lat="47.07561" lon="5.20806">
        <ele>177.2002</ele>
        <time>2026-05-14T16:06:57+02:00</time>
      </trkpt>
      <trkpt lat="47.07565" lon="5.20811">
        <ele>177.2002</ele>
        <time>2026-05-14T16:06:58+02:00</time>
      </trkpt>
      <trkpt lat="47.07569" lon="5.20816">
        <ele>177.2002</ele>
        <time>2026-05-14T16:06:59+02:00</time>
      </trkpt>
      <trkpt lat="47.07572" lon="5.20822">
        <ele>177.2998</ele>
        <time>2026-05-14T16:07:00+02:00</time>
      </trkpt>
      <trkpt lat="47.07576" lon="5.20828">
        <ele>177.2002</ele>
        <time>2026-05-14T16:07:01+02:00</time>
      </trkpt>
      <trkpt lat="47.0758" lon="5.20834">
        <ele>177.2998</ele>
        <time>2026-05-14T16:07:02+02:00</time>
      </trkpt>
      <trkpt lat="47.07583" lon="5.2084">
        <ele>177.2998</ele>
        <time>2026-05-14T16:07:03+02:00</time>
      </trkpt>
      <trkpt lat="47.07586" lon="5.20846">
        <ele>177.2002</ele>
        <time>2026-05-14T16:07:04+02:00</time>
      </trkpt>
      <trkpt lat="47.07589" lon="5.20853">
        <ele>177.2998</ele>
        <time>2026-05-14T16:07:05+02:00</time>
      </trkpt>
      <trkpt lat="47.07591" lon="5.20859">
        <ele>177.2998</ele>
        <time>2026-05-14T16:07:06+02:00</time>
      </trkpt>
      <trkpt lat="47.07594" lon="5.20866">
        <ele>177.2998</ele>
        <time>2026-05-14T16:07:07+02:00</time>
      </trkpt>
      <trkpt lat="47.07596" lon="5.20874">
        <ele>177.2998</ele>
        <time>2026-05-14T16:07:08+02:00</time>
      </trkpt>
      <trkpt lat="47.07599" lon="5.20881">
        <ele>177.2998</ele>
        <time>2026-05-14T16:07:09+02:00</time>
      </trkpt>
      <trkpt lat="47.07601" lon="5.20888">
        <ele>177.2998</ele>
        <time>2026-05-14T16:07:10+02:00</time>
      </trkpt>
      <trkpt lat="47.07604" lon="5.20895">
        <ele>177.2998</ele>
        <time>2026-05-14T16:07:11+02:00</time>
      </trkpt>
      <trkpt lat="47.07606" lon="5.20903">
        <ele>177.2998</ele>
        <time>2026-05-14T16:07:12+02:00</time>
      </trkpt>
      <trkpt lat="47.07608" lon="5.2091">
        <ele>177.2998</ele>
        <time>2026-05-14T16:07:13+02:00</time>
      </trkpt>
      <trkpt lat="47.0761" lon="5.20918">
        <ele>177.40039</ele>
        <time>2026-05-14T16:07:14+02:00</time>
      </trkpt>
      <trkpt lat="47.07613" lon="5.20925">
        <ele>177.40039</ele>
        <time>2026-05-14T16:07:15+02:00</time>
      </trkpt>
      <trkpt lat="47.07615" lon="5.20933">
        <ele>177.5</ele>
        <time>2026-05-14T16:07:16+02:00</time>
      </trkpt>
      <trkpt lat="47.07618" lon="5.2094">
        <ele>177.5</ele>
        <time>2026-05-14T16:07:17+02:00</time>
      </trkpt>
      <trkpt lat="47.0762" lon="5.20948">
        <ele>177.7002</ele>
        <time>2026-05-14T16:07:18+02:00</time>
      </trkpt>
      <trkpt lat="47.07623" lon="5.20955">
        <ele>178</ele>
        <time>2026-05-14T16:07:19+02:00</time>
      </trkpt>
      <trkpt lat="47.07625" lon="5.20963">
        <ele>178.40039</ele>
        <time>2026-05-14T16:07:20+02:00</time>
      </trkpt>
      <trkpt lat="47.07627" lon="5.2097">
        <ele>178.60059</ele>
        <time>2026-05-14T16:07:21+02:00</time>
      </trkpt>
      <trkpt lat="47.0763" lon="5.20978">
        <ele>178.7998</ele>
        <time>2026-05-14T16:07:22+02:00</time>
      </trkpt>
      <trkpt lat="47.07632" lon="5.20986">
        <ele>178.90039</ele>
        <time>2026-05-14T16:07:23+02:00</time>
      </trkpt>
      <trkpt lat="47.07634" lon="5.20994">
        <ele>179</ele>
        <time>2026-05-14T16:07:24+02:00</time>
      </trkpt>
      <trkpt lat="47.07637" lon="5.21001">
        <ele>179.2002</ele>
        <time>2026-05-14T16:07:25+02:00</time>
      </trkpt>
      <trkpt lat="47.07639" lon="5.21009">
        <ele>179.10059</ele>
        <time>2026-05-14T16:07:26+02:00</time>
      </trkpt>
      <trkpt lat="47.07642" lon="5.21017">
        <ele>179.2002</ele>
        <time>2026-05-14T16:07:27+02:00</time>
      </trkpt>
      <trkpt lat="47.07644" lon="5.21025">
        <ele>179.40039</ele>
        <time>2026-05-14T16:07:28+02:00</time>
      </trkpt>
      <trkpt lat="47.07647" lon="5.21032">
        <ele>179.5</ele>
        <time>2026-05-14T16:07:29+02:00</time>
      </trkpt>
      <trkpt lat="47.0765" lon="5.21039">
        <ele>179.60059</ele>
        <time>2026-05-14T16:07:30+02:00</time>
      </trkpt>
      <trkpt lat="47.07654" lon="5.21046">
        <ele>179.60059</ele>
        <time>2026-05-14T16:07:31+02:00</time>
      </trkpt>
      <trkpt lat="47.07657" lon="5.21053">
        <ele>179.5</ele>
        <time>2026-05-14T16:07:32+02:00</time>
      </trkpt>
      <trkpt lat="47.07661" lon="5.21059">
        <ele>179.2998</ele>
        <time>2026-05-14T16:07:33+02:00</time>
      </trkpt>
      <trkpt lat="47.07665" lon="5.21065">
        <ele>179.2002</ele>
        <time>2026-05-14T16:07:34+02:00</time>
      </trkpt>
      <trkpt lat="47.07669" lon="5.21071">
        <ele>179</ele>
        <time>2026-05-14T16:07:35+02:00</time>
      </trkpt>
      <trkpt lat="47.07673" lon="5.21077">
        <ele>178.7002</ele>
        <time>2026-05-14T16:07:36+02:00</time>
      </trkpt>
      <trkpt lat="47.07678" lon="5.21083">
        <ele>178.90039</ele>
        <time>2026-05-14T16:07:37+02:00</time>
      </trkpt>
      <trkpt lat="47.07681" lon="5.21089">
        <ele>178.90039</ele>
        <time>2026-05-14T16:07:38+02:00</time>
      </trkpt>
      <trkpt lat="47.07686" lon="5.21095">
        <ele>178.7998</ele>
        <time>2026-05-14T16:07:39+02:00</time>
      </trkpt>
      <trkpt lat="47.07689" lon="5.21101">
        <ele>178.7998</ele>
        <time>2026-05-14T16:07:40+02:00</time>
      </trkpt>
      <trkpt lat="47.07693" lon="5.21107">
        <ele>178.7002</ele>
        <time>2026-05-14T16:07:41+02:00</time>
      </trkpt>
      <trkpt lat="47.07697" lon="5.21113">
        <ele>178.40039</ele>
        <time>2026-05-14T16:07:42+02:00</time>
      </trkpt>
      <trkpt lat="47.077" lon="5.21119">
        <ele>178.40039</ele>
        <time>2026-05-14T16:07:43+02:00</time>
      </trkpt>
      <trkpt lat="47.07705" lon="5.21125">
        <ele>178.2002</ele>
        <time>2026-05-14T16:07:44+02:00</time>
      </trkpt>
      <trkpt lat="47.07708" lon="5.21131">
        <ele>178.2002</ele>
        <time>2026-05-14T16:07:45+02:00</time>
      </trkpt>
      <trkpt lat="47.07713" lon="5.21137">
        <ele>178.2002</ele>
        <time>2026-05-14T16:07:46+02:00</time>
      </trkpt>
      <trkpt lat="47.07717" lon="5.21143">
        <ele>178.2002</ele>
        <time>2026-05-14T16:07:47+02:00</time>
      </trkpt>
      <trkpt lat="47.07721" lon="5.21148">
        <ele>178.2002</ele>
        <time>2026-05-14T16:07:48+02:00</time>
      </trkpt>
      <trkpt lat="47.07725" lon="5.21154">
        <ele>178.2002</ele>
        <time>2026-05-14T16:07:49+02:00</time>
      </trkpt>
      <trkpt lat="47.07729" lon="5.2116">
        <ele>178.2002</ele>
        <time>2026-05-14T16:07:50+02:00</time>
      </trkpt>
      <trkpt lat="47.07733" lon="5.21166">
        <ele>178.2002</ele>
        <time>2026-05-14T16:07:51+02:00</time>
      </trkpt>
      <trkpt lat="47.07737" lon="5.21172">
        <ele>178.2002</ele>
        <time>2026-05-14T16:07:52+02:00</time>
      </trkpt>
      <trkpt lat="47.07741" lon="5.21178">
        <ele>178.2002</ele>
        <time>2026-05-14T16:07:53+02:00</time>
      </trkpt>
      <trkpt lat="47.07745" lon="5.21184">
        <ele>178.10059</ele>
        <time>2026-05-14T16:07:54+02:00</time>
      </trkpt>
      <trkpt lat="47.07749" lon="5.21189">
        <ele>177.90039</ele>
        <time>2026-05-14T16:07:55+02:00</time>
      </trkpt>
      <trkpt lat="47.07753" lon="5.21195">
        <ele>178</ele>
        <time>2026-05-14T16:07:56+02:00</time>
      </trkpt>
      <trkpt lat="47.07757" lon="5.21201">
        <ele>178</ele>
        <time>2026-05-14T16:07:57+02:00</time>
      </trkpt>
      <trkpt lat="47.07761" lon="5.21207">
        <ele>178.2002</ele>
        <time>2026-05-14T16:07:58+02:00</time>
      </trkpt>
      <trkpt lat="47.07765" lon="5.21213">
        <ele>178.2002</ele>
        <time>2026-05-14T16:07:59+02:00</time>
      </trkpt>
      <trkpt lat="47.07769" lon="5.21219">
        <ele>178.2998</ele>
        <time>2026-05-14T16:08:00+02:00</time>
      </trkpt>
      <trkpt lat="47.07773" lon="5.21225">
        <ele>178.2998</ele>
        <time>2026-05-14T16:08:01+02:00</time>
      </trkpt>
      <trkpt lat="47.07777" lon="5.2123">
        <ele>178.2998</ele>
        <time>2026-05-14T16:08:02+02:00</time>
      </trkpt>
      <trkpt lat="47.07781" lon="5.21236">
        <ele>178.40039</ele>
        <time>2026-05-14T16:08:03+02:00</time>
      </trkpt>
      <trkpt lat="47.07784" lon="5.21242">
        <ele>178.60059</ele>
        <time>2026-05-14T16:08:04+02:00</time>
      </trkpt>
      <trkpt lat="47.07789" lon="5.21248">
        <ele>178.60059</ele>
        <time>2026-05-14T16:08:05+02:00</time>
      </trkpt>
      <trkpt lat="47.07793" lon="5.21254">
        <ele>178.7002</ele>
        <time>2026-05-14T16:08:06+02:00</time>
      </trkpt>
      <trkpt lat="47.07797" lon="5.2126">
        <ele>178.60059</ele>
        <time>2026-05-14T16:08:07+02:00</time>
      </trkpt>
      <trkpt lat="47.078" lon="5.21267">
        <ele>178.5</ele>
        <time>2026-05-14T16:08:08+02:00</time>
      </trkpt>
      <trkpt lat="47.07805" lon="5.21273">
        <ele>178.40039</ele>
        <time>2026-05-14T16:08:09+02:00</time>
      </trkpt>
      <trkpt lat="47.07808" lon="5.21279">
        <ele>178.2002</ele>
        <time>2026-05-14T16:08:10+02:00</time>
      </trkpt>
      <trkpt lat="47.07813" lon="5.21286">
        <ele>178.2998</ele>
        <time>2026-05-14T16:08:11+02:00</time>
      </trkpt>
      <trkpt lat="47.07817" lon="5.21292">
        <ele>178.2002</ele>
        <time>2026-05-14T16:08:12+02:00</time>
      </trkpt>
      <trkpt lat="47.07821" lon="5.21299">
        <ele>178.40039</ele>
        <time>2026-05-14T16:08:13+02:00</time>
      </trkpt>
      <trkpt lat="47.07825" lon="5.21305">
        <ele>178.60059</ele>
        <time>2026-05-14T16:08:14+02:00</time>
      </trkpt>
      <trkpt lat="47.07829" lon="5.21312">
        <ele>178.7998</ele>
        <time>2026-05-14T16:08:15+02:00</time>
      </trkpt>
      <trkpt lat="47.07834" lon="5.21318">
        <ele>178.7002</ele>
        <time>2026-05-14T16:08:16+02:00</time>
      </trkpt>
      <trkpt lat="47.07837" lon="5.21325">
        <ele>178.60059</ele>
        <time>2026-05-14T16:08:17+02:00</time>
      </trkpt>
      <trkpt lat="47.07842" lon="5.21331">
        <ele>178.7002</ele>
        <time>2026-05-14T16:08:18+02:00</time>
      </trkpt>
      <trkpt lat="47.07845" lon="5.21338">
        <ele>178.7002</ele>
        <time>2026-05-14T16:08:19+02:00</time>
      </trkpt>
      <trkpt lat="47.07849" lon="5.21345">
        <ele>178.60059</ele>
        <time>2026-05-14T16:08:20+02:00</time>
      </trkpt>
      <trkpt lat="47.07853" lon="5.21352">
        <ele>178.60059</ele>
        <time>2026-05-14T16:08:21+02:00</time>
      </trkpt>
      <trkpt lat="47.07856" lon="5.2136">
        <ele>178.5</ele>
        <time>2026-05-14T16:08:22+02:00</time>
      </trkpt>
      <trkpt lat="47.07859" lon="5.21368">
        <ele>178.40039</ele>
        <time>2026-05-14T16:08:23+02:00</time>
      </trkpt>
      <trkpt lat="47.07862" lon="5.21376">
        <ele>178.10059</ele>
        <time>2026-05-14T16:08:24+02:00</time>
      </trkpt>
      <trkpt lat="47.07865" lon="5.21384">
        <ele>178.10059</ele>
        <time>2026-05-14T16:08:25+02:00</time>
      </trkpt>
      <trkpt lat="47.07868" lon="5.21392">
        <ele>177.7998</ele>
        <time>2026-05-14T16:08:26+02:00</time>
      </trkpt>
      <trkpt lat="47.07871" lon="5.214">
        <ele>177.7998</ele>
        <time>2026-05-14T16:08:27+02:00</time>
      </trkpt>
      <trkpt lat="47.07874" lon="5.21408">
        <ele>177.60059</ele>
        <time>2026-05-14T16:08:28+02:00</time>
      </trkpt>
      <trkpt lat="47.07876" lon="5.21416">
        <ele>177.60059</ele>
        <time>2026-05-14T16:08:29+02:00</time>
      </trkpt>
      <trkpt lat="47.07879" lon="5.21424">
        <ele>177.40039</ele>
        <time>2026-05-14T16:08:30+02:00</time>
      </trkpt>
      <trkpt lat="47.07881" lon="5.21432">
        <ele>177.40039</ele>
        <time>2026-05-14T16:08:31+02:00</time>
      </trkpt>
      <trkpt lat="47.07884" lon="5.21441">
        <ele>177.2998</ele>
        <time>2026-05-14T16:08:32+02:00</time>
      </trkpt>
      <trkpt lat="47.07885" lon="5.21449">
        <ele>177.2998</ele>
        <time>2026-05-14T16:08:33+02:00</time>
      </trkpt>
      <trkpt lat="47.07887" lon="5.21458">
        <ele>177.2998</ele>
        <time>2026-05-14T16:08:34+02:00</time>
      </trkpt>
      <trkpt lat="47.07889" lon="5.21466">
        <ele>177.2998</ele>
        <time>2026-05-14T16:08:35+02:00</time>
      </trkpt>
      <trkpt lat="47.07892" lon="5.21474">
        <ele>177.2998</ele>
        <time>2026-05-14T16:08:36+02:00</time>
      </trkpt>
      <trkpt lat="47.07894" lon="5.21483">
        <ele>177.40039</ele>
        <time>2026-05-14T16:08:37+02:00</time>
      </trkpt>
      <trkpt lat="47.07896" lon="5.21491">
        <ele>177.2998</ele>
        <time>2026-05-14T16:08:38+02:00</time>
      </trkpt>
      <trkpt lat="47.07898" lon="5.21499">
        <ele>177.40039</ele>
        <time>2026-05-14T16:08:39+02:00</time>
      </trkpt>
      <trkpt lat="47.07899" lon="5.21507">
        <ele>177.40039</ele>
        <time>2026-05-14T16:08:40+02:00</time>
      </trkpt>
      <trkpt lat="47.079" lon="5.21516">
        <ele>177.60059</ele>
        <time>2026-05-14T16:08:41+02:00</time>
      </trkpt>
      <trkpt lat="47.07902" lon="5.21524">
        <ele>177.5</ele>
        <time>2026-05-14T16:08:42+02:00</time>
      </trkpt>
      <trkpt lat="47.07902" lon="5.21532">
        <ele>177.7002</ele>
        <time>2026-05-14T16:08:43+02:00</time>
      </trkpt>
      <trkpt lat="47.07903" lon="5.21541">
        <ele>177.7998</ele>
        <time>2026-05-14T16:08:44+02:00</time>
      </trkpt>
      <trkpt lat="47.07903" lon="5.21549">
        <ele>177.90039</ele>
        <time>2026-05-14T16:08:45+02:00</time>
      </trkpt>
      <trkpt lat="47.07903" lon="5.21558">
        <ele>178</ele>
        <time>2026-05-14T16:08:46+02:00</time>
      </trkpt>
      <trkpt lat="47.07904" lon="5.21566">
        <ele>178</ele>
        <time>2026-05-14T16:08:47+02:00</time>
      </trkpt>
      <trkpt lat="47.07905" lon="5.21575">
        <ele>178.10059</ele>
        <time>2026-05-14T16:08:48+02:00</time>
      </trkpt>
      <trkpt lat="47.07905" lon="5.21584">
        <ele>178.10059</ele>
        <time>2026-05-14T16:08:49+02:00</time>
      </trkpt>
      <trkpt lat="47.07905" lon="5.21592">
        <ele>178.10059</ele>
        <time>2026-05-14T16:08:50+02:00</time>
      </trkpt>
      <trkpt lat="47.07906" lon="5.216">
        <ele>178</ele>
        <time>2026-05-14T16:08:51+02:00</time>
      </trkpt>
      <trkpt lat="47.07906" lon="5.21609">
        <ele>178</ele>
        <time>2026-05-14T16:08:52+02:00</time>
      </trkpt>
      <trkpt lat="47.07907" lon="5.21617">
        <ele>177.7998</ele>
        <time>2026-05-14T16:08:53+02:00</time>
      </trkpt>
      <trkpt lat="47.07908" lon="5.21642">
        <ele>177.5</ele>
        <time>2026-05-14T16:08:54+02:00</time>
      </trkpt>
      <trkpt lat="47.07909" lon="5.2165">
        <ele>177.5</ele>
        <time>2026-05-14T16:08:55+02:00</time>
      </trkpt>
      <trkpt lat="47.07909" lon="5.21658">
        <ele>177.40039</ele>
        <time>2026-05-14T16:08:56+02:00</time>
      </trkpt>
      <trkpt lat="47.07909" lon="5.21667">
        <ele>177.40039</ele>
        <time>2026-05-14T16:08:57+02:00</time>
      </trkpt>
      <trkpt lat="47.07909" lon="5.21675">
        <ele>177.5</ele>
        <time>2026-05-14T16:08:58+02:00</time>
      </trkpt>
      <trkpt lat="47.0791" lon="5.21683">
        <ele>177.5</ele>
        <time>2026-05-14T16:08:59+02:00</time>
      </trkpt>
      <trkpt lat="47.0791" lon="5.21692">
        <ele>177.60059</ele>
        <time>2026-05-14T16:09:00+02:00</time>
      </trkpt>
      <trkpt lat="47.0791" lon="5.21701">
        <ele>177.60059</ele>
        <time>2026-05-14T16:09:01+02:00</time>
      </trkpt>
      <trkpt lat="47.0791" lon="5.21709">
        <ele>177.7002</ele>
        <time>2026-05-14T16:09:02+02:00</time>
      </trkpt>
      <trkpt lat="47.0791" lon="5.21718">
        <ele>177.7998</ele>
        <time>2026-05-14T16:09:03+02:00</time>
      </trkpt>
      <trkpt lat="47.0791" lon="5.21727">
        <ele>177.90039</ele>
        <time>2026-05-14T16:09:04+02:00</time>
      </trkpt>
      <trkpt lat="47.07911" lon="5.21736">
        <ele>178</ele>
        <time>2026-05-14T16:09:05+02:00</time>
      </trkpt>
      <trkpt lat="47.07911" lon="5.21745">
        <ele>178.10059</ele>
        <time>2026-05-14T16:09:06+02:00</time>
      </trkpt>
      <trkpt lat="47.07911" lon="5.21753">
        <ele>178.2002</ele>
        <time>2026-05-14T16:09:07+02:00</time>
      </trkpt>
      <trkpt lat="47.07911" lon="5.21762">
        <ele>178.2998</ele>
        <time>2026-05-14T16:09:08+02:00</time>
      </trkpt>
      <trkpt lat="47.07911" lon="5.21771">
        <ele>178.2998</ele>
        <time>2026-05-14T16:09:09+02:00</time>
      </trkpt>
      <trkpt lat="47.07912" lon="5.21779">
        <ele>178.40039</ele>
        <time>2026-05-14T16:09:10+02:00</time>
      </trkpt>
      <trkpt lat="47.07912" lon="5.21788">
        <ele>178.5</ele>
        <time>2026-05-14T16:09:11+02:00</time>
      </trkpt>
      <trkpt lat="47.07912" lon="5.21796">
        <ele>178.60059</ele>
        <time>2026-05-14T16:09:12+02:00</time>
      </trkpt>
      <trkpt lat="47.07912" lon="5.21805">
        <ele>178.7002</ele>
        <time>2026-05-14T16:09:13+02:00</time>
      </trkpt>
      <trkpt lat="47.07912" lon="5.21814">
        <ele>178.7998</ele>
        <time>2026-05-14T16:09:14+02:00</time>
      </trkpt>
      <trkpt lat="47.07912" lon="5.21822">
        <ele>178.90039</ele>
        <time>2026-05-14T16:09:15+02:00</time>
      </trkpt>
      <trkpt lat="47.07912" lon="5.21831">
        <ele>178.90039</ele>
        <time>2026-05-14T16:09:16+02:00</time>
      </trkpt>
      <trkpt lat="47.07913" lon="5.2184">
        <ele>178.7002</ele>
        <time>2026-05-14T16:09:17+02:00</time>
      </trkpt>
      <trkpt lat="47.07913" lon="5.21849">
        <ele>178.7002</ele>
        <time>2026-05-14T16:09:18+02:00</time>
      </trkpt>
      <trkpt lat="47.07914" lon="5.21858">
        <ele>178.7998</ele>
        <time>2026-05-14T16:09:19+02:00</time>
      </trkpt>
      <trkpt lat="47.07914" lon="5.21867">
        <ele>178.7998</ele>
        <time>2026-05-14T16:09:20+02:00</time>
      </trkpt>
      <trkpt lat="47.07915" lon="5.21875">
        <ele>178.7998</ele>
        <time>2026-05-14T16:09:21+02:00</time>
      </trkpt>
      <trkpt lat="47.07916" lon="5.21884">
        <ele>178.7998</ele>
        <time>2026-05-14T16:09:22+02:00</time>
      </trkpt>
      <trkpt lat="47.07916" lon="5.21892">
        <ele>178.7998</ele>
        <time>2026-05-14T16:09:23+02:00</time>
      </trkpt>
      <trkpt lat="47.07918" lon="5.21901">
        <ele>178.7998</ele>
        <time>2026-05-14T16:09:24+02:00</time>
      </trkpt>
      <trkpt lat="47.07919" lon="5.21909">
        <ele>178.40039</ele>
        <time>2026-05-14T16:09:25+02:00</time>
      </trkpt>
      <trkpt lat="47.0792" lon="5.21918">
        <ele>178.2998</ele>
        <time>2026-05-14T16:09:26+02:00</time>
      </trkpt>
      <trkpt lat="47.07921" lon="5.21927">
        <ele>178.2998</ele>
        <time>2026-05-14T16:09:27+02:00</time>
      </trkpt>
      <trkpt lat="47.07922" lon="5.21935">
        <ele>178.2998</ele>
        <time>2026-05-14T16:09:28+02:00</time>
      </trkpt>
      <trkpt lat="47.07923" lon="5.21944">
        <ele>178.5</ele>
        <time>2026-05-14T16:09:29+02:00</time>
      </trkpt>
      <trkpt lat="47.07924" lon="5.21952">
        <ele>178.7998</ele>
        <time>2026-05-14T16:09:30+02:00</time>
      </trkpt>
      <trkpt lat="47.07926" lon="5.2196">
        <ele>179</ele>
        <time>2026-05-14T16:09:31+02:00</time>
      </trkpt>
      <trkpt lat="47.07927" lon="5.21969">
        <ele>179.2002</ele>
        <time>2026-05-14T16:09:32+02:00</time>
      </trkpt>
      <trkpt lat="47.07928" lon="5.21977">
        <ele>179.2002</ele>
        <time>2026-05-14T16:09:33+02:00</time>
      </trkpt>
      <trkpt lat="47.07929" lon="5.21985">
        <ele>179.10059</ele>
        <time>2026-05-14T16:09:34+02:00</time>
      </trkpt>
      <trkpt lat="47.07931" lon="5.21994">
        <ele>179</ele>
        <time>2026-05-14T16:09:35+02:00</time>
      </trkpt>
      <trkpt lat="47.07932" lon="5.22002">
        <ele>179</ele>
        <time>2026-05-14T16:09:36+02:00</time>
      </trkpt>
      <trkpt lat="47.07934" lon="5.2201">
        <ele>178.90039</ele>
        <time>2026-05-14T16:09:37+02:00</time>
      </trkpt>
      <trkpt lat="47.07935" lon="5.22019">
        <ele>178.90039</ele>
        <time>2026-05-14T16:09:38+02:00</time>
      </trkpt>
      <trkpt lat="47.07937" lon="5.22027">
        <ele>178.7002</ele>
        <time>2026-05-14T16:09:39+02:00</time>
      </trkpt>
      <trkpt lat="47.07938" lon="5.22035">
        <ele>178.7002</ele>
        <time>2026-05-14T16:09:40+02:00</time>
      </trkpt>
      <trkpt lat="47.0794" lon="5.22043">
        <ele>178.60059</ele>
        <time>2026-05-14T16:09:41+02:00</time>
      </trkpt>
      <trkpt lat="47.07942" lon="5.22051">
        <ele>178.2998</ele>
        <time>2026-05-14T16:09:42+02:00</time>
      </trkpt>
      <trkpt lat="47.07943" lon="5.22059">
        <ele>178.2002</ele>
        <time>2026-05-14T16:09:43+02:00</time>
      </trkpt>
      <trkpt lat="47.07945" lon="5.22068">
        <ele>178.2002</ele>
        <time>2026-05-14T16:09:44+02:00</time>
      </trkpt>
      <trkpt lat="47.07946" lon="5.22077">
        <ele>178.10059</ele>
        <time>2026-05-14T16:09:45+02:00</time>
      </trkpt>
      <trkpt lat="47.07948" lon="5.22085">
        <ele>177.90039</ele>
        <time>2026-05-14T16:09:46+02:00</time>
      </trkpt>
      <trkpt lat="47.0795" lon="5.22094">
        <ele>177.90039</ele>
        <time>2026-05-14T16:09:47+02:00</time>
      </trkpt>
      <trkpt lat="47.07951" lon="5.22103">
        <ele>177.90039</ele>
        <time>2026-05-14T16:09:48+02:00</time>
      </trkpt>
      <trkpt lat="47.07953" lon="5.22111">
        <ele>177.90039</ele>
        <time>2026-05-14T16:09:49+02:00</time>
      </trkpt>
      <trkpt lat="47.07955" lon="5.2212">
        <ele>177.90039</ele>
        <time>2026-05-14T16:09:50+02:00</time>
      </trkpt>
      <trkpt lat="47.07957" lon="5.22128">
        <ele>178</ele>
        <time>2026-05-14T16:09:51+02:00</time>
      </trkpt>
      <trkpt lat="47.07959" lon="5.22136">
        <ele>177.90039</ele>
        <time>2026-05-14T16:09:52+02:00</time>
      </trkpt>
      <trkpt lat="47.07961" lon="5.22144">
        <ele>177.7998</ele>
        <time>2026-05-14T16:09:53+02:00</time>
      </trkpt>
      <trkpt lat="47.07963" lon="5.22153">
        <ele>177.7002</ele>
        <time>2026-05-14T16:09:54+02:00</time>
      </trkpt>
      <trkpt lat="47.07966" lon="5.22161">
        <ele>177.60059</ele>
        <time>2026-05-14T16:09:55+02:00</time>
      </trkpt>
      <trkpt lat="47.07968" lon="5.22169">
        <ele>177.60059</ele>
        <time>2026-05-14T16:09:56+02:00</time>
      </trkpt>
      <trkpt lat="47.07971" lon="5.22177">
        <ele>177.7002</ele>
        <time>2026-05-14T16:09:57+02:00</time>
      </trkpt>
      <trkpt lat="47.07973" lon="5.22186">
        <ele>177.60059</ele>
        <time>2026-05-14T16:09:58+02:00</time>
      </trkpt>
      <trkpt lat="47.07976" lon="5.22194">
        <ele>177.60059</ele>
        <time>2026-05-14T16:09:59+02:00</time>
      </trkpt>
      <trkpt lat="47.07978" lon="5.22203">
        <ele>177.5</ele>
        <time>2026-05-14T16:10:00+02:00</time>
      </trkpt>
      <trkpt lat="47.07981" lon="5.22211">
        <ele>177.5</ele>
        <time>2026-05-14T16:10:01+02:00</time>
      </trkpt>
      <trkpt lat="47.07984" lon="5.22219">
        <ele>177.2998</ele>
        <time>2026-05-14T16:10:02+02:00</time>
      </trkpt>
      <trkpt lat="47.07986" lon="5.22227">
        <ele>177.40039</ele>
        <time>2026-05-14T16:10:03+02:00</time>
      </trkpt>
      <trkpt lat="47.07988" lon="5.22235">
        <ele>177.7002</ele>
        <time>2026-05-14T16:10:04+02:00</time>
      </trkpt>
      <trkpt lat="47.07991" lon="5.22243">
        <ele>178</ele>
        <time>2026-05-14T16:10:05+02:00</time>
      </trkpt>
      <trkpt lat="47.07993" lon="5.22251">
        <ele>178.2998</ele>
        <time>2026-05-14T16:10:06+02:00</time>
      </trkpt>
      <trkpt lat="47.07996" lon="5.22258">
        <ele>178.2002</ele>
        <time>2026-05-14T16:10:07+02:00</time>
      </trkpt>
      <trkpt lat="47.07998" lon="5.22265">
        <ele>178.2002</ele>
        <time>2026-05-14T16:10:08+02:00</time>
      </trkpt>
      <trkpt lat="47.08" lon="5.22272">
        <ele>177.90039</ele>
        <time>2026-05-14T16:10:09+02:00</time>
      </trkpt>
      <trkpt lat="47.08003" lon="5.22279">
        <ele>177.90039</ele>
        <time>2026-05-14T16:10:10+02:00</time>
      </trkpt>
      <trkpt lat="47.08005" lon="5.22286">
        <ele>177.90039</ele>
        <time>2026-05-14T16:10:11+02:00</time>
      </trkpt>
      <trkpt lat="47.08008" lon="5.22293">
        <ele>177.7998</ele>
        <time>2026-05-14T16:10:12+02:00</time>
      </trkpt>
      <trkpt lat="47.0801" lon="5.223">
        <ele>178</ele>
        <time>2026-05-14T16:10:13+02:00</time>
      </trkpt>
      <trkpt lat="47.08013" lon="5.22307">
        <ele>178.10059</ele>
        <time>2026-05-14T16:10:14+02:00</time>
      </trkpt>
      <trkpt lat="47.08015" lon="5.22314">
        <ele>178.10059</ele>
        <time>2026-05-14T16:10:15+02:00</time>
      </trkpt>
      <trkpt lat="47.08017" lon="5.22321">
        <ele>178.40039</ele>
        <time>2026-05-14T16:10:16+02:00</time>
      </trkpt>
      <trkpt lat="47.0802" lon="5.22328">
        <ele>178.40039</ele>
        <time>2026-05-14T16:10:17+02:00</time>
      </trkpt>
      <trkpt lat="47.08022" lon="5.22334">
        <ele>178.60059</ele>
        <time>2026-05-14T16:10:18+02:00</time>
      </trkpt>
      <trkpt lat="47.08025" lon="5.22341">
        <ele>178.40039</ele>
        <time>2026-05-14T16:10:19+02:00</time>
      </trkpt>
      <trkpt lat="47.08027" lon="5.22348">
        <ele>178.40039</ele>
        <time>2026-05-14T16:10:20+02:00</time>
      </trkpt>
      <trkpt lat="47.0803" lon="5.22355">
        <ele>178.2002</ele>
        <time>2026-05-14T16:10:21+02:00</time>
      </trkpt>
      <trkpt lat="47.08032" lon="5.22361">
        <ele>178.40039</ele>
        <time>2026-05-14T16:10:22+02:00</time>
      </trkpt>
      <trkpt lat="47.08035" lon="5.22368">
        <ele>178.7002</ele>
        <time>2026-05-14T16:10:23+02:00</time>
      </trkpt>
      <trkpt lat="47.08037" lon="5.22374">
        <ele>178.5</ele>
        <time>2026-05-14T16:10:24+02:00</time>
      </trkpt>
      <trkpt lat="47.0804" lon="5.2238">
        <ele>178.7998</ele>
        <time>2026-05-14T16:10:25+02:00</time>
      </trkpt>
      <trkpt lat="47.08043" lon="5.22386">
        <ele>178.7002</ele>
        <time>2026-05-14T16:10:26+02:00</time>
      </trkpt>
      <trkpt lat="47.08046" lon="5.22393">
        <ele>178.7998</ele>
        <time>2026-05-14T16:10:27+02:00</time>
      </trkpt>
      <trkpt lat="47.08049" lon="5.22399">
        <ele>178.5</ele>
        <time>2026-05-14T16:10:28+02:00</time>
      </trkpt>
      <trkpt lat="47.08052" lon="5.22405">
        <ele>178.5</ele>
        <time>2026-05-14T16:10:29+02:00</time>
      </trkpt>
      <trkpt lat="47.08055" lon="5.22411">
        <ele>178.2002</ele>
        <time>2026-05-14T16:10:30+02:00</time>
      </trkpt>
      <trkpt lat="47.08058" lon="5.22417">
        <ele>178.2002</ele>
        <time>2026-05-14T16:10:31+02:00</time>
      </trkpt>
      <trkpt lat="47.08062" lon="5.22424">
        <ele>178.10059</ele>
        <time>2026-05-14T16:10:32+02:00</time>
      </trkpt>
      <trkpt lat="47.08065" lon="5.2243">
        <ele>178.10059</ele>
        <time>2026-05-14T16:10:33+02:00</time>
      </trkpt>
      <trkpt lat="47.08069" lon="5.22437">
        <ele>178.2998</ele>
        <time>2026-05-14T16:10:34+02:00</time>
      </trkpt>
      <trkpt lat="47.08072" lon="5.22443">
        <ele>178.2998</ele>
        <time>2026-05-14T16:10:35+02:00</time>
      </trkpt>
      <trkpt lat="47.08075" lon="5.22449">
        <ele>178.2998</ele>
        <time>2026-05-14T16:10:36+02:00</time>
      </trkpt>
      <trkpt lat="47.08079" lon="5.22456">
        <ele>178.10059</ele>
        <time>2026-05-14T16:10:37+02:00</time>
      </trkpt>
      <trkpt lat="47.08082" lon="5.22462">
        <ele>178.2002</ele>
        <time>2026-05-14T16:10:38+02:00</time>
      </trkpt>
      <trkpt lat="47.08086" lon="5.22469">
        <ele>178.2002</ele>
        <time>2026-05-14T16:10:39+02:00</time>
      </trkpt>
      <trkpt lat="47.0809" lon="5.22475">
        <ele>178.10059</ele>
        <time>2026-05-14T16:10:40+02:00</time>
      </trkpt>
      <trkpt lat="47.08093" lon="5.22481">
        <ele>178.2998</ele>
        <time>2026-05-14T16:10:41+02:00</time>
      </trkpt>
      <trkpt lat="47.08096" lon="5.22488">
        <ele>178.5</ele>
        <time>2026-05-14T16:10:42+02:00</time>
      </trkpt>
      <trkpt lat="47.081" lon="5.22493">
        <ele>178.40039</ele>
        <time>2026-05-14T16:10:43+02:00</time>
      </trkpt>
      <trkpt lat="47.08103" lon="5.22499">
        <ele>178.7002</ele>
        <time>2026-05-14T16:10:44+02:00</time>
      </trkpt>
      <trkpt lat="47.08106" lon="5.22505">
        <ele>178.7002</ele>
        <time>2026-05-14T16:10:45+02:00</time>
      </trkpt>
      <trkpt lat="47.08109" lon="5.22511">
        <ele>178.7002</ele>
        <time>2026-05-14T16:10:46+02:00</time>
      </trkpt>
      <trkpt lat="47.08113" lon="5.22516">
        <ele>178.7002</ele>
        <time>2026-05-14T16:10:47+02:00</time>
      </trkpt>
      <trkpt lat="47.08116" lon="5.22522">
        <ele>178.7998</ele>
        <time>2026-05-14T16:10:48+02:00</time>
      </trkpt>
      <trkpt lat="47.08119" lon="5.22527">
        <ele>178.60059</ele>
        <time>2026-05-14T16:10:49+02:00</time>
      </trkpt>
      <trkpt lat="47.08122" lon="5.22532">
        <ele>178.7002</ele>
        <time>2026-05-14T16:10:50+02:00</time>
      </trkpt>
      <trkpt lat="47.08125" lon="5.22538">
        <ele>178.60059</ele>
        <time>2026-05-14T16:10:51+02:00</time>
      </trkpt>
      <trkpt lat="47.08129" lon="5.22543">
        <ele>178.40039</ele>
        <time>2026-05-14T16:10:52+02:00</time>
      </trkpt>
      <trkpt lat="47.08132" lon="5.22549">
        <ele>178.7002</ele>
        <time>2026-05-14T16:10:53+02:00</time>
      </trkpt>
      <trkpt lat="47.08135" lon="5.22555">
        <ele>178.90039</ele>
        <time>2026-05-14T16:10:54+02:00</time>
      </trkpt>
      <trkpt lat="47.08139" lon="5.2256">
        <ele>178.90039</ele>
        <time>2026-05-14T16:10:55+02:00</time>
      </trkpt>
      <trkpt lat="47.08142" lon="5.22566">
        <ele>179</ele>
        <time>2026-05-14T16:10:56+02:00</time>
      </trkpt>
      <trkpt lat="47.08146" lon="5.22572">
        <ele>179</ele>
        <time>2026-05-14T16:10:57+02:00</time>
      </trkpt>
      <trkpt lat="47.08149" lon="5.22577">
        <ele>178.90039</ele>
        <time>2026-05-14T16:10:58+02:00</time>
      </trkpt>
      <trkpt lat="47.08159" lon="5.22595">
        <ele>178.5</ele>
        <time>2026-05-14T16:10:59+02:00</time>
      </trkpt>
      <trkpt lat="47.08162" lon="5.22602">
        <ele>178.5</ele>
        <time>2026-05-14T16:11:00+02:00</time>
      </trkpt>
      <trkpt lat="47.08165" lon="5.22608">
        <ele>178.2998</ele>
        <time>2026-05-14T16:11:01+02:00</time>
      </trkpt>
      <trkpt lat="47.08168" lon="5.22614">
        <ele>178.2998</ele>
        <time>2026-05-14T16:11:02+02:00</time>
      </trkpt>
      <trkpt lat="47.08172" lon="5.2262">
        <ele>177.90039</ele>
        <time>2026-05-14T16:11:03+02:00</time>
      </trkpt>
      <trkpt lat="47.08175" lon="5.22626">
        <ele>177.7002</ele>
        <time>2026-05-14T16:11:04+02:00</time>
      </trkpt>
      <trkpt lat="47.08178" lon="5.22632">
        <ele>177.40039</ele>
        <time>2026-05-14T16:11:05+02:00</time>
      </trkpt>
      <trkpt lat="47.08182" lon="5.22638">
        <ele>177.2998</ele>
        <time>2026-05-14T16:11:06+02:00</time>
      </trkpt>
      <trkpt lat="47.08185" lon="5.22644">
        <ele>177.2998</ele>
        <time>2026-05-14T16:11:07+02:00</time>
      </trkpt>
      <trkpt lat="47.08189" lon="5.2265">
        <ele>177.2002</ele>
        <time>2026-05-14T16:11:08+02:00</time>
      </trkpt>
      <trkpt lat="47.08192" lon="5.22657">
        <ele>177.2002</ele>
        <time>2026-05-14T16:11:09+02:00</time>
      </trkpt>
      <trkpt lat="47.08196" lon="5.22663">
        <ele>177.2002</ele>
        <time>2026-05-14T16:11:10+02:00</time>
      </trkpt>
      <trkpt lat="47.08199" lon="5.22669">
        <ele>177.2002</ele>
        <time>2026-05-14T16:11:11+02:00</time>
      </trkpt>
      <trkpt lat="47.08203" lon="5.22675">
        <ele>177.2002</ele>
        <time>2026-05-14T16:11:12+02:00</time>
      </trkpt>
      <trkpt lat="47.08206" lon="5.22681">
        <ele>177.2002</ele>
        <time>2026-05-14T16:11:13+02:00</time>
      </trkpt>
      <trkpt lat="47.0821" lon="5.22687">
        <ele>177.2002</ele>
        <time>2026-05-14T16:11:14+02:00</time>
      </trkpt>
      <trkpt lat="47.08213" lon="5.22693">
        <ele>177.2002</ele>
        <time>2026-05-14T16:11:15+02:00</time>
      </trkpt>
      <trkpt lat="47.08217" lon="5.22699">
        <ele>177.2002</ele>
        <time>2026-05-14T16:11:16+02:00</time>
      </trkpt>
      <trkpt lat="47.0822" lon="5.22705">
        <ele>177.2002</ele>
        <time>2026-05-14T16:11:17+02:00</time>
      </trkpt>
      <trkpt lat="47.08223" lon="5.22711">
        <ele>177.10059</ele>
        <time>2026-05-14T16:11:18+02:00</time>
      </trkpt>
      <trkpt lat="47.08227" lon="5.22717">
        <ele>177.10059</ele>
        <time>2026-05-14T16:11:19+02:00</time>
      </trkpt>
      <trkpt lat="47.08231" lon="5.22722">
        <ele>177.2002</ele>
        <time>2026-05-14T16:11:20+02:00</time>
      </trkpt>
      <trkpt lat="47.08235" lon="5.22727">
        <ele>177.2002</ele>
        <time>2026-05-14T16:11:21+02:00</time>
      </trkpt>
      <trkpt lat="47.08239" lon="5.22733">
        <ele>177.2002</ele>
        <time>2026-05-14T16:11:22+02:00</time>
      </trkpt>
      <trkpt lat="47.08243" lon="5.22737">
        <ele>177.10059</ele>
        <time>2026-05-14T16:11:23+02:00</time>
      </trkpt>
      <trkpt lat="47.08247" lon="5.22743">
        <ele>177.2002</ele>
        <time>2026-05-14T16:11:24+02:00</time>
      </trkpt>
      <trkpt lat="47.08251" lon="5.22747">
        <ele>177.2002</ele>
        <time>2026-05-14T16:11:25+02:00</time>
      </trkpt>
      <trkpt lat="47.08255" lon="5.22752">
        <ele>177.2002</ele>
        <time>2026-05-14T16:11:26+02:00</time>
      </trkpt>
      <trkpt lat="47.08259" lon="5.22757">
        <ele>177.2002</ele>
        <time>2026-05-14T16:11:27+02:00</time>
      </trkpt>
      <trkpt lat="47.08264" lon="5.22762">
        <ele>177.40039</ele>
        <time>2026-05-14T16:11:28+02:00</time>
      </trkpt>
      <trkpt lat="47.08268" lon="5.22767">
        <ele>177.40039</ele>
        <time>2026-05-14T16:11:29+02:00</time>
      </trkpt>
      <trkpt lat="47.08272" lon="5.22771">
        <ele>177.60059</ele>
        <time>2026-05-14T16:11:30+02:00</time>
      </trkpt>
      <trkpt lat="47.08277" lon="5.22775">
        <ele>177.60059</ele>
        <time>2026-05-14T16:11:31+02:00</time>
      </trkpt>
      <trkpt lat="47.08281" lon="5.2278">
        <ele>177.90039</ele>
        <time>2026-05-14T16:11:32+02:00</time>
      </trkpt>
      <trkpt lat="47.08285" lon="5.22785">
        <ele>177.90039</ele>
        <time>2026-05-14T16:11:33+02:00</time>
      </trkpt>
      <trkpt lat="47.0829" lon="5.22789">
        <ele>178.2002</ele>
        <time>2026-05-14T16:11:34+02:00</time>
      </trkpt>
      <trkpt lat="47.08294" lon="5.22794">
        <ele>178.2002</ele>
        <time>2026-05-14T16:11:35+02:00</time>
      </trkpt>
      <trkpt lat="47.08299" lon="5.22798">
        <ele>178.5</ele>
        <time>2026-05-14T16:11:36+02:00</time>
      </trkpt>
      <trkpt lat="47.08304" lon="5.22803">
        <ele>178.5</ele>
        <time>2026-05-14T16:11:37+02:00</time>
      </trkpt>
      <trkpt lat="47.08308" lon="5.22807">
        <ele>178.90039</ele>
        <time>2026-05-14T16:11:38+02:00</time>
      </trkpt>
      <trkpt lat="47.08312" lon="5.22812">
        <ele>179.2002</ele>
        <time>2026-05-14T16:11:39+02:00</time>
      </trkpt>
      <trkpt lat="47.08317" lon="5.22817">
        <ele>179</ele>
        <time>2026-05-14T16:11:40+02:00</time>
      </trkpt>
      <trkpt lat="47.08322" lon="5.22821">
        <ele>179</ele>
        <time>2026-05-14T16:11:41+02:00</time>
      </trkpt>
      <trkpt lat="47.08326" lon="5.22826">
        <ele>179</ele>
        <time>2026-05-14T16:11:42+02:00</time>
      </trkpt>
      <trkpt lat="47.08331" lon="5.2283">
        <ele>179.2002</ele>
        <time>2026-05-14T16:11:43+02:00</time>
      </trkpt>
      <trkpt lat="47.08335" lon="5.22835">
        <ele>179.2002</ele>
        <time>2026-05-14T16:11:44+02:00</time>
      </trkpt>
      <trkpt lat="47.0834" lon="5.22839">
        <ele>179.60059</ele>
        <time>2026-05-14T16:11:45+02:00</time>
      </trkpt>
      <trkpt lat="47.08344" lon="5.22844">
        <ele>179.60059</ele>
        <time>2026-05-14T16:11:46+02:00</time>
      </trkpt>
      <trkpt lat="47.08349" lon="5.22848">
        <ele>179.90039</ele>
        <time>2026-05-14T16:11:47+02:00</time>
      </trkpt>
      <trkpt lat="47.08354" lon="5.22853">
        <ele>179.90039</ele>
        <time>2026-05-14T16:11:48+02:00</time>
      </trkpt>
      <trkpt lat="47.08358" lon="5.22858">
        <ele>179.90039</ele>
        <time>2026-05-14T16:11:49+02:00</time>
      </trkpt>
      <trkpt lat="47.08362" lon="5.22862">
        <ele>179.90039</ele>
        <time>2026-05-14T16:11:50+02:00</time>
      </trkpt>
      <trkpt lat="47.08367" lon="5.22867">
        <ele>179.7998</ele>
        <time>2026-05-14T16:11:51+02:00</time>
      </trkpt>
      <trkpt lat="47.08371" lon="5.22872">
        <ele>179.90039</ele>
        <time>2026-05-14T16:11:52+02:00</time>
      </trkpt>
      <trkpt lat="47.08375" lon="5.22876">
        <ele>180</ele>
        <time>2026-05-14T16:11:53+02:00</time>
      </trkpt>
      <trkpt lat="47.08379" lon="5.22881">
        <ele>180.10059</ele>
        <time>2026-05-14T16:11:54+02:00</time>
      </trkpt>
      <trkpt lat="47.08384" lon="5.22886">
        <ele>180.2002</ele>
        <time>2026-05-14T16:11:55+02:00</time>
      </trkpt>
      <trkpt lat="47.08388" lon="5.2289">
        <ele>180.2998</ele>
        <time>2026-05-14T16:11:56+02:00</time>
      </trkpt>
      <trkpt lat="47.08392" lon="5.22895">
        <ele>180.40039</ele>
        <time>2026-05-14T16:11:57+02:00</time>
      </trkpt>
      <trkpt lat="47.08397" lon="5.22899">
        <ele>180.40039</ele>
        <time>2026-05-14T16:11:58+02:00</time>
      </trkpt>
      <trkpt lat="47.08401" lon="5.22904">
        <ele>180.5</ele>
        <time>2026-05-14T16:11:59+02:00</time>
      </trkpt>
      <trkpt lat="47.08405" lon="5.22909">
        <ele>180.60059</ele>
        <time>2026-05-14T16:12:00+02:00</time>
      </trkpt>
      <trkpt lat="47.08409" lon="5.22913">
        <ele>180.60059</ele>
        <time>2026-05-14T16:12:01+02:00</time>
      </trkpt>
      <trkpt lat="47.08413" lon="5.22918">
        <ele>180.7002</ele>
        <time>2026-05-14T16:12:02+02:00</time>
      </trkpt>
      <trkpt lat="47.08418" lon="5.22922">
        <ele>180.7002</ele>
        <time>2026-05-14T16:12:03+02:00</time>
      </trkpt>
      <trkpt lat="47.08422" lon="5.22926">
        <ele>180.7002</ele>
        <time>2026-05-14T16:12:04+02:00</time>
      </trkpt>
      <trkpt lat="47.08426" lon="5.2293">
        <ele>180.7002</ele>
        <time>2026-05-14T16:12:05+02:00</time>
      </trkpt>
      <trkpt lat="47.0843" lon="5.22934">
        <ele>180.7002</ele>
        <time>2026-05-14T16:12:06+02:00</time>
      </trkpt>
      <trkpt lat="47.08434" lon="5.22938">
        <ele>180.7002</ele>
        <time>2026-05-14T16:12:07+02:00</time>
      </trkpt>
      <trkpt lat="47.08439" lon="5.22942">
        <ele>180.7002</ele>
        <time>2026-05-14T16:12:08+02:00</time>
      </trkpt>
      <trkpt lat="47.08443" lon="5.22946">
        <ele>180.7002</ele>
        <time>2026-05-14T16:12:09+02:00</time>
      </trkpt>
      <trkpt lat="47.08447" lon="5.22949">
        <ele>180.60059</ele>
        <time>2026-05-14T16:12:10+02:00</time>
      </trkpt>
      <trkpt lat="47.08451" lon="5.22953">
        <ele>180.60059</ele>
        <time>2026-05-14T16:12:11+02:00</time>
      </trkpt>
      <trkpt lat="47.08455" lon="5.22956">
        <ele>180.60059</ele>
        <time>2026-05-14T16:12:12+02:00</time>
      </trkpt>
      <trkpt lat="47.08459" lon="5.2296">
        <ele>180.5</ele>
        <time>2026-05-14T16:12:13+02:00</time>
      </trkpt>
      <trkpt lat="47.08464" lon="5.22964">
        <ele>180.40039</ele>
        <time>2026-05-14T16:12:14+02:00</time>
      </trkpt>
      <trkpt lat="47.08468" lon="5.22969">
        <ele>180.2998</ele>
        <time>2026-05-14T16:12:15+02:00</time>
      </trkpt>
      <trkpt lat="47.08473" lon="5.22973">
        <ele>180.2998</ele>
        <time>2026-05-14T16:12:16+02:00</time>
      </trkpt>
      <trkpt lat="47.08477" lon="5.22978">
        <ele>180.2998</ele>
        <time>2026-05-14T16:12:17+02:00</time>
      </trkpt>
      <trkpt lat="47.08481" lon="5.22981">
        <ele>180.40039</ele>
        <time>2026-05-14T16:12:18+02:00</time>
      </trkpt>
      <trkpt lat="47.08485" lon="5.22986">
        <ele>180.40039</ele>
        <time>2026-05-14T16:12:19+02:00</time>
      </trkpt>
      <trkpt lat="47.08489" lon="5.22991">
        <ele>180.40039</ele>
        <time>2026-05-14T16:12:20+02:00</time>
      </trkpt>
      <trkpt lat="47.08494" lon="5.22996">
        <ele>180</ele>
        <time>2026-05-14T16:12:21+02:00</time>
      </trkpt>
      <trkpt lat="47.08498" lon="5.23001">
        <ele>179.60059</ele>
        <time>2026-05-14T16:12:22+02:00</time>
      </trkpt>
      <trkpt lat="47.08502" lon="5.23006">
        <ele>179.60059</ele>
        <time>2026-05-14T16:12:23+02:00</time>
      </trkpt>
      <trkpt lat="47.08506" lon="5.23012">
        <ele>179</ele>
        <time>2026-05-14T16:12:24+02:00</time>
      </trkpt>
      <trkpt lat="47.08511" lon="5.23019">
        <ele>178.7998</ele>
        <time>2026-05-14T16:12:25+02:00</time>
      </trkpt>
      <trkpt lat="47.08515" lon="5.23025">
        <ele>178.60059</ele>
        <time>2026-05-14T16:12:26+02:00</time>
      </trkpt>
      <trkpt lat="47.08517" lon="5.23029">
        <ele>178.7002</ele>
        <time>2026-05-14T16:12:27+02:00</time>
      </trkpt>
      <trkpt lat="47.08519" lon="5.23031">
        <ele>178.7002</ele>
        <time>2026-05-14T16:12:28+02:00</time>
      </trkpt>
      <trkpt lat="47.08519" lon="5.23032">
        <ele>178.7002</ele>
        <time>2026-05-14T16:12:29+02:00</time>
      </trkpt>
      <trkpt lat="47.08519" lon="5.23032">
        <ele>178.7002</ele>
        <time>2026-05-14T16:12:30+02:00</time>
      </trkpt>
      <trkpt lat="47.08519" lon="5.23032">
        <ele>178.7002</ele>
        <time>2026-05-14T16:12:31+02:00</time>
      </trkpt>
      <trkpt lat="47.08519" lon="5.23032">
        <ele>178.7002</ele>
        <time>2026-05-14T16:12:32+02:00</time>
      </trkpt>
      <trkpt lat="47.08529" lon="5.23051">
        <ele>178</ele>
        <time>2026-05-14T16:12:46+02:00</time>
      </trkpt>
      <trkpt lat="47.08531" lon="5.23055">
        <ele>177.7998</ele>
        <time>2026-05-14T16:12:47+02:00</time>
      </trkpt>
      <trkpt lat="47.08533" lon="5.2306">
        <ele>177.5</ele>
        <time>2026-05-14T16:12:48+02:00</time>
      </trkpt>
      <trkpt lat="47.08536" lon="5.23064">
        <ele>177.5</ele>
        <time>2026-05-14T16:12:49+02:00</time>
      </trkpt>
      <trkpt lat="47.08537" lon="5.23068">
        <ele>177.5</ele>
        <time>2026-05-14T16:12:50+02:00</time>
      </trkpt>
      <trkpt lat="47.0854" lon="5.23072">
        <ele>177.2998</ele>
        <time>2026-05-14T16:12:51+02:00</time>
      </trkpt>
      <trkpt lat="47.08541" lon="5.23076">
        <ele>177.2998</ele>
        <time>2026-05-14T16:12:52+02:00</time>
      </trkpt>
      <trkpt lat="47.08543" lon="5.23081">
        <ele>177.40039</ele>
        <time>2026-05-14T16:12:53+02:00</time>
      </trkpt>
      <trkpt lat="47.08544" lon="5.23086">
        <ele>177.2998</ele>
        <time>2026-05-14T16:12:54+02:00</time>
      </trkpt>
      <trkpt lat="47.08545" lon="5.23091">
        <ele>177.2998</ele>
        <time>2026-05-14T16:12:55+02:00</time>
      </trkpt>
      <trkpt lat="47.08547" lon="5.23097">
        <ele>177.40039</ele>
        <time>2026-05-14T16:12:56+02:00</time>
      </trkpt>
      <trkpt lat="47.08548" lon="5.23102">
        <ele>177.40039</ele>
        <time>2026-05-14T16:12:57+02:00</time>
      </trkpt>
      <trkpt lat="47.08549" lon="5.23108">
        <ele>177.40039</ele>
        <time>2026-05-14T16:12:58+02:00</time>
      </trkpt>
      <trkpt lat="47.0855" lon="5.23114">
        <ele>177.2998</ele>
        <time>2026-05-14T16:12:59+02:00</time>
      </trkpt>
      <trkpt lat="47.08551" lon="5.2312">
        <ele>177.2998</ele>
        <time>2026-05-14T16:13:00+02:00</time>
      </trkpt>
      <trkpt lat="47.08552" lon="5.23126">
        <ele>177.2998</ele>
        <time>2026-05-14T16:13:01+02:00</time>
      </trkpt>
      <trkpt lat="47.08552" lon="5.23133">
        <ele>177.2998</ele>
        <time>2026-05-14T16:13:02+02:00</time>
      </trkpt>
      <trkpt lat="47.08553" lon="5.2314">
        <ele>177.2998</ele>
        <time>2026-05-14T16:13:03+02:00</time>
      </trkpt>
      <trkpt lat="47.08553" lon="5.23146">
        <ele>177.2998</ele>
        <time>2026-05-14T16:13:04+02:00</time>
      </trkpt>
      <trkpt lat="47.08554" lon="5.23153">
        <ele>177.2002</ele>
        <time>2026-05-14T16:13:05+02:00</time>
      </trkpt>
      <trkpt lat="47.08554" lon="5.2316">
        <ele>177.2002</ele>
        <time>2026-05-14T16:13:06+02:00</time>
      </trkpt>
      <trkpt lat="47.08554" lon="5.23168">
        <ele>177.2002</ele>
        <time>2026-05-14T16:13:07+02:00</time>
      </trkpt>
      <trkpt lat="47.08554" lon="5.23175">
        <ele>177.2002</ele>
        <time>2026-05-14T16:13:08+02:00</time>
      </trkpt>
      <trkpt lat="47.08555" lon="5.23182">
        <ele>177.2002</ele>
        <time>2026-05-14T16:13:09+02:00</time>
      </trkpt>
      <trkpt lat="47.08555" lon="5.23189">
        <ele>177.2002</ele>
        <time>2026-05-14T16:13:10+02:00</time>
      </trkpt>
      <trkpt lat="47.08555" lon="5.23196">
        <ele>177.2002</ele>
        <time>2026-05-14T16:13:11+02:00</time>
      </trkpt>
      <trkpt lat="47.08556" lon="5.23203">
        <ele>177.2002</ele>
        <time>2026-05-14T16:13:12+02:00</time>
      </trkpt>
      <trkpt lat="47.08557" lon="5.2321">
        <ele>177.2002</ele>
        <time>2026-05-14T16:13:13+02:00</time>
      </trkpt>
      <trkpt lat="47.08558" lon="5.23218">
        <ele>177.2002</ele>
        <time>2026-05-14T16:13:14+02:00</time>
      </trkpt>
      <trkpt lat="47.08558" lon="5.23225">
        <ele>177.2002</ele>
        <time>2026-05-14T16:13:15+02:00</time>
      </trkpt>
      <trkpt lat="47.08558" lon="5.23233">
        <ele>177.2002</ele>
        <time>2026-05-14T16:13:16+02:00</time>
      </trkpt>
      <trkpt lat="47.08558" lon="5.2324">
        <ele>177.2002</ele>
        <time>2026-05-14T16:13:17+02:00</time>
      </trkpt>
      <trkpt lat="47.08558" lon="5.23248">
        <ele>177.2002</ele>
        <time>2026-05-14T16:13:18+02:00</time>
      </trkpt>
      <trkpt lat="47.08557" lon="5.23255">
        <ele>177.2002</ele>
        <time>2026-05-14T16:13:19+02:00</time>
      </trkpt>
      <trkpt lat="47.08556" lon="5.23262">
        <ele>177.2002</ele>
        <time>2026-05-14T16:13:20+02:00</time>
      </trkpt>
      <trkpt lat="47.08555" lon="5.2327">
        <ele>177.40039</ele>
        <time>2026-05-14T16:13:21+02:00</time>
      </trkpt>
      <trkpt lat="47.08553" lon="5.23277">
        <ele>177.5</ele>
        <time>2026-05-14T16:13:22+02:00</time>
      </trkpt>
      <trkpt lat="47.08552" lon="5.23284">
        <ele>177.60059</ele>
        <time>2026-05-14T16:13:23+02:00</time>
      </trkpt>
      <trkpt lat="47.0855" lon="5.23291">
        <ele>177.60059</ele>
        <time>2026-05-14T16:13:24+02:00</time>
      </trkpt>
      <trkpt lat="47.08547" lon="5.23297">
        <ele>177.7998</ele>
        <time>2026-05-14T16:13:25+02:00</time>
      </trkpt>
      <trkpt lat="47.08544" lon="5.23303">
        <ele>177.7998</ele>
        <time>2026-05-14T16:13:26+02:00</time>
      </trkpt>
      <trkpt lat="47.08541" lon="5.23309">
        <ele>178</ele>
        <time>2026-05-14T16:13:27+02:00</time>
      </trkpt>
      <trkpt lat="47.08538" lon="5.23315">
        <ele>178</ele>
        <time>2026-05-14T16:13:28+02:00</time>
      </trkpt>
      <trkpt lat="47.08535" lon="5.2332">
        <ele>178.2002</ele>
        <time>2026-05-14T16:13:29+02:00</time>
      </trkpt>
      <trkpt lat="47.08532" lon="5.23326">
        <ele>178.2002</ele>
        <time>2026-05-14T16:13:30+02:00</time>
      </trkpt>
      <trkpt lat="47.08529" lon="5.23332">
        <ele>178.2998</ele>
        <time>2026-05-14T16:13:31+02:00</time>
      </trkpt>
      <trkpt lat="47.08525" lon="5.23338">
        <ele>178.2998</ele>
        <time>2026-05-14T16:13:32+02:00</time>
      </trkpt>
      <trkpt lat="47.08522" lon="5.23345">
        <ele>178</ele>
        <time>2026-05-14T16:13:33+02:00</time>
      </trkpt>
      <trkpt lat="47.08518" lon="5.23351">
        <ele>178.40039</ele>
        <time>2026-05-14T16:13:34+02:00</time>
      </trkpt>
      <trkpt lat="47.08515" lon="5.23358">
        <ele>178.2002</ele>
        <time>2026-05-14T16:13:35+02:00</time>
      </trkpt>
      <trkpt lat="47.08511" lon="5.23365">
        <ele>178.2998</ele>
        <time>2026-05-14T16:13:36+02:00</time>
      </trkpt>
      <trkpt lat="47.08508" lon="5.23371">
        <ele>178.2002</ele>
        <time>2026-05-14T16:13:37+02:00</time>
      </trkpt>
      <trkpt lat="47.08505" lon="5.23378">
        <ele>178.2002</ele>
        <time>2026-05-14T16:13:38+02:00</time>
      </trkpt>
      <trkpt lat="47.08502" lon="5.23384">
        <ele>178.2002</ele>
        <time>2026-05-14T16:13:39+02:00</time>
      </trkpt>
      <trkpt lat="47.08499" lon="5.23391">
        <ele>178</ele>
        <time>2026-05-14T16:13:40+02:00</time>
      </trkpt>
      <trkpt lat="47.08495" lon="5.23398">
        <ele>178.10059</ele>
        <time>2026-05-14T16:13:41+02:00</time>
      </trkpt>
      <trkpt lat="47.08492" lon="5.23404">
        <ele>178.10059</ele>
        <time>2026-05-14T16:13:42+02:00</time>
      </trkpt>
      <trkpt lat="47.08488" lon="5.2341">
        <ele>178</ele>
        <time>2026-05-14T16:13:43+02:00</time>
      </trkpt>
      <trkpt lat="47.08485" lon="5.23417">
        <ele>178</ele>
        <time>2026-05-14T16:13:44+02:00</time>
      </trkpt>
      <trkpt lat="47.08482" lon="5.23423">
        <ele>177.7002</ele>
        <time>2026-05-14T16:13:45+02:00</time>
      </trkpt>
      <trkpt lat="47.08479" lon="5.23429">
        <ele>178.2002</ele>
        <time>2026-05-14T16:13:46+02:00</time>
      </trkpt>
      <trkpt lat="47.08476" lon="5.23436">
        <ele>177.90039</ele>
        <time>2026-05-14T16:13:47+02:00</time>
      </trkpt>
      <trkpt lat="47.08473" lon="5.23442">
        <ele>177.90039</ele>
        <time>2026-05-14T16:13:48+02:00</time>
      </trkpt>
      <trkpt lat="47.0847" lon="5.23448">
        <ele>177.5</ele>
        <time>2026-05-14T16:13:49+02:00</time>
      </trkpt>
      <trkpt lat="47.08466" lon="5.23454">
        <ele>177.7998</ele>
        <time>2026-05-14T16:13:50+02:00</time>
      </trkpt>
      <trkpt lat="47.08463" lon="5.2346">
        <ele>177.5</ele>
        <time>2026-05-14T16:13:51+02:00</time>
      </trkpt>
      <trkpt lat="47.0846" lon="5.23465">
        <ele>177.7002</ele>
        <time>2026-05-14T16:13:52+02:00</time>
      </trkpt>
      <trkpt lat="47.08456" lon="5.23471">
        <ele>177.7002</ele>
        <time>2026-05-14T16:13:53+02:00</time>
      </trkpt>
      <trkpt lat="47.08452" lon="5.23477">
        <ele>177.7002</ele>
        <time>2026-05-14T16:13:54+02:00</time>
      </trkpt>
      <trkpt lat="47.08448" lon="5.23482">
        <ele>177.60059</ele>
        <time>2026-05-14T16:13:55+02:00</time>
      </trkpt>
      <trkpt lat="47.08444" lon="5.23488">
        <ele>177.90039</ele>
        <time>2026-05-14T16:13:56+02:00</time>
      </trkpt>
      <trkpt lat="47.0844" lon="5.23493">
        <ele>177.60059</ele>
        <time>2026-05-14T16:13:57+02:00</time>
      </trkpt>
      <trkpt lat="47.08436" lon="5.23499">
        <ele>177.7998</ele>
        <time>2026-05-14T16:13:58+02:00</time>
      </trkpt>
      <trkpt lat="47.08433" lon="5.23504">
        <ele>177.7998</ele>
        <time>2026-05-14T16:13:59+02:00</time>
      </trkpt>
      <trkpt lat="47.08428" lon="5.23509">
        <ele>177.7998</ele>
        <time>2026-05-14T16:14:00+02:00</time>
      </trkpt>
      <trkpt lat="47.08424" lon="5.23514">
        <ele>177.90039</ele>
        <time>2026-05-14T16:14:01+02:00</time>
      </trkpt>
      <trkpt lat="47.0842" lon="5.23519">
        <ele>177.5</ele>
        <time>2026-05-14T16:14:02+02:00</time>
      </trkpt>
      <trkpt lat="47.08415" lon="5.23524">
        <ele>177.60059</ele>
        <time>2026-05-14T16:14:03+02:00</time>
      </trkpt>
      <trkpt lat="47.0841" lon="5.23529">
        <ele>177.2002</ele>
        <time>2026-05-14T16:14:04+02:00</time>
      </trkpt>
      <trkpt lat="47.08405" lon="5.23534">
        <ele>177.10059</ele>
        <time>2026-05-14T16:14:05+02:00</time>
      </trkpt>
      <trkpt lat="47.084" lon="5.23539">
        <ele>177.40039</ele>
        <time>2026-05-14T16:14:06+02:00</time>
      </trkpt>
      <trkpt lat="47.08396" lon="5.23544">
        <ele>177.5</ele>
        <time>2026-05-14T16:14:07+02:00</time>
      </trkpt>
      <trkpt lat="47.08391" lon="5.23549">
        <ele>177.7998</ele>
        <time>2026-05-14T16:14:08+02:00</time>
      </trkpt>
      <trkpt lat="47.08386" lon="5.23554">
        <ele>177.5</ele>
        <time>2026-05-14T16:14:09+02:00</time>
      </trkpt>
      <trkpt lat="47.08381" lon="5.23559">
        <ele>177.2002</ele>
        <time>2026-05-14T16:14:10+02:00</time>
      </trkpt>
      <trkpt lat="47.08376" lon="5.23564">
        <ele>177.2998</ele>
        <time>2026-05-14T16:14:11+02:00</time>
      </trkpt>
      <trkpt lat="47.08371" lon="5.23568">
        <ele>177.10059</ele>
        <time>2026-05-14T16:14:12+02:00</time>
      </trkpt>
      <trkpt lat="47.08367" lon="5.23572">
        <ele>177.10059</ele>
        <time>2026-05-14T16:14:13+02:00</time>
      </trkpt>
      <trkpt lat="47.08362" lon="5.23577">
        <ele>177.2002</ele>
        <time>2026-05-14T16:14:14+02:00</time>
      </trkpt>
      <trkpt lat="47.08358" lon="5.23581">
        <ele>177.2002</ele>
        <time>2026-05-14T16:14:15+02:00</time>
      </trkpt>
      <trkpt lat="47.08354" lon="5.23586">
        <ele>177.2998</ele>
        <time>2026-05-14T16:14:16+02:00</time>
      </trkpt>
      <trkpt lat="47.0835" lon="5.23591">
        <ele>177.5</ele>
        <time>2026-05-14T16:14:17+02:00</time>
      </trkpt>
      <trkpt lat="47.08346" lon="5.23596">
        <ele>177.2002</ele>
        <time>2026-05-14T16:14:18+02:00</time>
      </trkpt>
      <trkpt lat="47.08342" lon="5.23602">
        <ele>177.10059</ele>
        <time>2026-05-14T16:14:19+02:00</time>
      </trkpt>
      <trkpt lat="47.08339" lon="5.23607">
        <ele>177.5</ele>
        <time>2026-05-14T16:14:20+02:00</time>
      </trkpt>
      <trkpt lat="47.08335" lon="5.23613">
        <ele>177.40039</ele>
        <time>2026-05-14T16:14:21+02:00</time>
      </trkpt>
      <trkpt lat="47.08331" lon="5.23618">
        <ele>177.7998</ele>
        <time>2026-05-14T16:14:22+02:00</time>
      </trkpt>
      <trkpt lat="47.08328" lon="5.23625">
        <ele>177.7002</ele>
        <time>2026-05-14T16:14:23+02:00</time>
      </trkpt>
      <trkpt lat="47.08325" lon="5.23631">
        <ele>178</ele>
        <time>2026-05-14T16:14:24+02:00</time>
      </trkpt>
      <trkpt lat="47.08321" lon="5.23637">
        <ele>178.10059</ele>
        <time>2026-05-14T16:14:25+02:00</time>
      </trkpt>
      <trkpt lat="47.08318" lon="5.23643">
        <ele>178.10059</ele>
        <time>2026-05-14T16:14:26+02:00</time>
      </trkpt>
      <trkpt lat="47.08315" lon="5.23649">
        <ele>178.2002</ele>
        <time>2026-05-14T16:14:27+02:00</time>
      </trkpt>
      <trkpt lat="47.08312" lon="5.23654">
        <ele>177.90039</ele>
        <time>2026-05-14T16:14:28+02:00</time>
      </trkpt>
      <trkpt lat="47.08308" lon="5.2366">
        <ele>178.2998</ele>
        <time>2026-05-14T16:14:29+02:00</time>
      </trkpt>
      <trkpt lat="47.08305" lon="5.23666">
        <ele>178.10059</ele>
        <time>2026-05-14T16:14:30+02:00</time>
      </trkpt>
      <trkpt lat="47.08302" lon="5.23671">
        <ele>178.40039</ele>
        <time>2026-05-14T16:14:31+02:00</time>
      </trkpt>
      <trkpt lat="47.08299" lon="5.23676">
        <ele>178.40039</ele>
        <time>2026-05-14T16:14:32+02:00</time>
      </trkpt>
      <trkpt lat="47.08296" lon="5.23681">
        <ele>178.40039</ele>
        <time>2026-05-14T16:14:33+02:00</time>
      </trkpt>
      <trkpt lat="47.08293" lon="5.23686">
        <ele>178.40039</ele>
        <time>2026-05-14T16:14:34+02:00</time>
      </trkpt>
      <trkpt lat="47.08289" lon="5.23691">
        <ele>178.2998</ele>
        <time>2026-05-14T16:14:35+02:00</time>
      </trkpt>
      <trkpt lat="47.08286" lon="5.23696">
        <ele>178.40039</ele>
        <time>2026-05-14T16:14:36+02:00</time>
      </trkpt>
      <trkpt lat="47.08283" lon="5.23702">
        <ele>178.40039</ele>
        <time>2026-05-14T16:14:37+02:00</time>
      </trkpt>
      <trkpt lat="47.0828" lon="5.23707">
        <ele>178.60059</ele>
        <time>2026-05-14T16:14:38+02:00</time>
      </trkpt>
      <trkpt lat="47.08277" lon="5.23712">
        <ele>178.60059</ele>
        <time>2026-05-14T16:14:39+02:00</time>
      </trkpt>
      <trkpt lat="47.08274" lon="5.23717">
        <ele>178.60059</ele>
        <time>2026-05-14T16:14:40+02:00</time>
      </trkpt>
      <trkpt lat="47.08271" lon="5.23722">
        <ele>178.2002</ele>
        <time>2026-05-14T16:14:41+02:00</time>
      </trkpt>
      <trkpt lat="47.08268" lon="5.23727">
        <ele>178.60059</ele>
        <time>2026-05-14T16:14:42+02:00</time>
      </trkpt>
      <trkpt lat="47.08265" lon="5.23733">
        <ele>178.2998</ele>
        <time>2026-05-14T16:14:43+02:00</time>
      </trkpt>
      <trkpt lat="47.08262" lon="5.23737">
        <ele>178.7002</ele>
        <time>2026-05-14T16:14:44+02:00</time>
      </trkpt>
      <trkpt lat="47.08259" lon="5.23742">
        <ele>178.40039</ele>
        <time>2026-05-14T16:14:45+02:00</time>
      </trkpt>
      <trkpt lat="47.08256" lon="5.23747">
        <ele>178.7002</ele>
        <time>2026-05-14T16:14:46+02:00</time>
      </trkpt>
      <trkpt lat="47.08253" lon="5.23752">
        <ele>178.40039</ele>
        <time>2026-05-14T16:14:47+02:00</time>
      </trkpt>
      <trkpt lat="47.0825" lon="5.23758">
        <ele>178.2998</ele>
        <time>2026-05-14T16:14:48+02:00</time>
      </trkpt>
      <trkpt lat="47.08247" lon="5.23764">
        <ele>178.2998</ele>
        <time>2026-05-14T16:14:49+02:00</time>
      </trkpt>
      <trkpt lat="47.08244" lon="5.23769">
        <ele>178.40039</ele>
        <time>2026-05-14T16:14:50+02:00</time>
      </trkpt>
      <trkpt lat="47.08241" lon="5.23774">
        <ele>178.2998</ele>
        <time>2026-05-14T16:14:51+02:00</time>
      </trkpt>
      <trkpt lat="47.08238" lon="5.23779">
        <ele>178.60059</ele>
        <time>2026-05-14T16:14:52+02:00</time>
      </trkpt>
      <trkpt lat="47.08235" lon="5.23785">
        <ele>178.2998</ele>
        <time>2026-05-14T16:14:53+02:00</time>
      </trkpt>
      <trkpt lat="47.08231" lon="5.2379">
        <ele>178.5</ele>
        <time>2026-05-14T16:14:54+02:00</time>
      </trkpt>
      <trkpt lat="47.08228" lon="5.23795">
        <ele>178.40039</ele>
        <time>2026-05-14T16:14:55+02:00</time>
      </trkpt>
      <trkpt lat="47.08225" lon="5.238">
        <ele>178.10059</ele>
        <time>2026-05-14T16:14:56+02:00</time>
      </trkpt>
      <trkpt lat="47.08222" lon="5.23805">
        <ele>178.40039</ele>
        <time>2026-05-14T16:14:57+02:00</time>
      </trkpt>
      <trkpt lat="47.08218" lon="5.2381">
        <ele>178.2002</ele>
        <time>2026-05-14T16:14:58+02:00</time>
      </trkpt>
      <trkpt lat="47.08215" lon="5.23815">
        <ele>178.40039</ele>
        <time>2026-05-14T16:14:59+02:00</time>
      </trkpt>
      <trkpt lat="47.08212" lon="5.2382">
        <ele>178.10059</ele>
        <time>2026-05-14T16:15:00+02:00</time>
      </trkpt>
      <trkpt lat="47.08209" lon="5.23825">
        <ele>178</ele>
        <time>2026-05-14T16:15:01+02:00</time>
      </trkpt>
      <trkpt lat="47.08206" lon="5.2383">
        <ele>178</ele>
        <time>2026-05-14T16:15:02+02:00</time>
      </trkpt>
      <trkpt lat="47.08203" lon="5.23835">
        <ele>178.10059</ele>
        <time>2026-05-14T16:15:03+02:00</time>
      </trkpt>
      <trkpt lat="47.082" lon="5.23841">
        <ele>178.10059</ele>
        <time>2026-05-14T16:15:04+02:00</time>
      </trkpt>
      <trkpt lat="47.08197" lon="5.23846">
        <ele>178.10059</ele>
        <time>2026-05-14T16:15:05+02:00</time>
      </trkpt>
      <trkpt lat="47.08194" lon="5.23852">
        <ele>177.90039</ele>
        <time>2026-05-14T16:15:06+02:00</time>
      </trkpt>
      <trkpt lat="47.08192" lon="5.23857">
        <ele>178.10059</ele>
        <time>2026-05-14T16:15:07+02:00</time>
      </trkpt>
      <trkpt lat="47.08189" lon="5.23863">
        <ele>177.7998</ele>
        <time>2026-05-14T16:15:08+02:00</time>
      </trkpt>
      <trkpt lat="47.08186" lon="5.23869">
        <ele>177.7998</ele>
        <time>2026-05-14T16:15:09+02:00</time>
      </trkpt>
      <trkpt lat="47.08184" lon="5.23875">
        <ele>177.7998</ele>
        <time>2026-05-14T16:15:10+02:00</time>
      </trkpt>
      <trkpt lat="47.08181" lon="5.23881">
        <ele>177.90039</ele>
        <time>2026-05-14T16:15:11+02:00</time>
      </trkpt>
      <trkpt lat="47.08178" lon="5.23887">
        <ele>177.7998</ele>
        <time>2026-05-14T16:15:12+02:00</time>
      </trkpt>
      <trkpt lat="47.08176" lon="5.23893">
        <ele>177.7998</ele>
        <time>2026-05-14T16:15:13+02:00</time>
      </trkpt>
      <trkpt lat="47.08174" lon="5.239">
        <ele>177.90039</ele>
        <time>2026-05-14T16:15:14+02:00</time>
      </trkpt>
      <trkpt lat="47.08172" lon="5.23906">
        <ele>177.7998</ele>
        <time>2026-05-14T16:15:15+02:00</time>
      </trkpt>
      <trkpt lat="47.08169" lon="5.23913">
        <ele>177.90039</ele>
        <time>2026-05-14T16:15:16+02:00</time>
      </trkpt>
      <trkpt lat="47.08167" lon="5.23919">
        <ele>177.90039</ele>
        <time>2026-05-14T16:15:17+02:00</time>
      </trkpt>
      <trkpt lat="47.08164" lon="5.23926">
        <ele>177.7998</ele>
        <time>2026-05-14T16:15:18+02:00</time>
      </trkpt>
      <trkpt lat="47.08162" lon="5.23932">
        <ele>177.90039</ele>
        <time>2026-05-14T16:15:19+02:00</time>
      </trkpt>
      <trkpt lat="47.0816" lon="5.23939">
        <ele>177.7998</ele>
        <time>2026-05-14T16:15:20+02:00</time>
      </trkpt>
      <trkpt lat="47.08158" lon="5.23946">
        <ele>177.7002</ele>
        <time>2026-05-14T16:15:21+02:00</time>
      </trkpt>
      <trkpt lat="47.08156" lon="5.23953">
        <ele>177.90039</ele>
        <time>2026-05-14T16:15:22+02:00</time>
      </trkpt>
      <trkpt lat="47.08154" lon="5.2396">
        <ele>177.90039</ele>
        <time>2026-05-14T16:15:23+02:00</time>
      </trkpt>
      <trkpt lat="47.08152" lon="5.23966">
        <ele>178.2002</ele>
        <time>2026-05-14T16:15:24+02:00</time>
      </trkpt>
      <trkpt lat="47.0815" lon="5.23973">
        <ele>178.10059</ele>
        <time>2026-05-14T16:15:25+02:00</time>
      </trkpt>
      <trkpt lat="47.08149" lon="5.2398">
        <ele>178.10059</ele>
        <time>2026-05-14T16:15:26+02:00</time>
      </trkpt>
      <trkpt lat="47.08147" lon="5.23987">
        <ele>178.10059</ele>
        <time>2026-05-14T16:15:27+02:00</time>
      </trkpt>
      <trkpt lat="47.08145" lon="5.23994">
        <ele>178.40039</ele>
        <time>2026-05-14T16:15:28+02:00</time>
      </trkpt>
      <trkpt lat="47.08144" lon="5.24001">
        <ele>178</ele>
        <time>2026-05-14T16:15:29+02:00</time>
      </trkpt>
      <trkpt lat="47.08143" lon="5.24008">
        <ele>177.60059</ele>
        <time>2026-05-14T16:15:30+02:00</time>
      </trkpt>
      <trkpt lat="47.08141" lon="5.24016">
        <ele>177.2002</ele>
        <time>2026-05-14T16:15:31+02:00</time>
      </trkpt>
      <trkpt lat="47.0814" lon="5.24023">
        <ele>177</ele>
        <time>2026-05-14T16:15:32+02:00</time>
      </trkpt>
      <trkpt lat="47.0814" lon="5.24031">
        <ele>177</ele>
        <time>2026-05-14T16:15:33+02:00</time>
      </trkpt>
      <trkpt lat="47.08138" lon="5.24038">
        <ele>177</ele>
        <time>2026-05-14T16:15:34+02:00</time>
      </trkpt>
      <trkpt lat="47.08138" lon="5.24046">
        <ele>177.10059</ele>
        <time>2026-05-14T16:15:35+02:00</time>
      </trkpt>
      <trkpt lat="47.08137" lon="5.24053">
        <ele>177.10059</ele>
        <time>2026-05-14T16:15:36+02:00</time>
      </trkpt>
      <trkpt lat="47.08137" lon="5.24061">
        <ele>177.10059</ele>
        <time>2026-05-14T16:15:37+02:00</time>
      </trkpt>
      <trkpt lat="47.08136" lon="5.24068">
        <ele>177.10059</ele>
        <time>2026-05-14T16:15:38+02:00</time>
      </trkpt>
      <trkpt lat="47.08136" lon="5.24076">
        <ele>177.10059</ele>
        <time>2026-05-14T16:15:39+02:00</time>
      </trkpt>
      <trkpt lat="47.08136" lon="5.24084">
        <ele>177.2002</ele>
        <time>2026-05-14T16:15:40+02:00</time>
      </trkpt>
      <trkpt lat="47.08136" lon="5.24092">
        <ele>177.2998</ele>
        <time>2026-05-14T16:15:41+02:00</time>
      </trkpt>
      <trkpt lat="47.08136" lon="5.241">
        <ele>177.5</ele>
        <time>2026-05-14T16:15:42+02:00</time>
      </trkpt>
      <trkpt lat="47.08136" lon="5.24108">
        <ele>177.7002</ele>
        <time>2026-05-14T16:15:43+02:00</time>
      </trkpt>
      <trkpt lat="47.08136" lon="5.24116">
        <ele>177.7002</ele>
        <time>2026-05-14T16:15:44+02:00</time>
      </trkpt>
      <trkpt lat="47.08136" lon="5.24124">
        <ele>177.7998</ele>
        <time>2026-05-14T16:15:45+02:00</time>
      </trkpt>
      <trkpt lat="47.08136" lon="5.24133">
        <ele>177.7998</ele>
        <time>2026-05-14T16:15:46+02:00</time>
      </trkpt>
      <trkpt lat="47.08136" lon="5.24141">
        <ele>177.7998</ele>
        <time>2026-05-14T16:15:47+02:00</time>
      </trkpt>
      <trkpt lat="47.08136" lon="5.24149">
        <ele>177.7002</ele>
        <time>2026-05-14T16:15:48+02:00</time>
      </trkpt>
      <trkpt lat="47.08137" lon="5.24157">
        <ele>177.7002</ele>
        <time>2026-05-14T16:15:49+02:00</time>
      </trkpt>
      <trkpt lat="47.08137" lon="5.24165">
        <ele>177.7002</ele>
        <time>2026-05-14T16:15:50+02:00</time>
      </trkpt>
      <trkpt lat="47.08138" lon="5.24173">
        <ele>177.60059</ele>
        <time>2026-05-14T16:15:51+02:00</time>
      </trkpt>
      <trkpt lat="47.08138" lon="5.24181">
        <ele>177.60059</ele>
        <time>2026-05-14T16:15:52+02:00</time>
      </trkpt>
      <trkpt lat="47.08138" lon="5.24188">
        <ele>177.60059</ele>
        <time>2026-05-14T16:15:53+02:00</time>
      </trkpt>
      <trkpt lat="47.08139" lon="5.24196">
        <ele>177.7002</ele>
        <time>2026-05-14T16:15:54+02:00</time>
      </trkpt>
      <trkpt lat="47.08139" lon="5.24204">
        <ele>177.7002</ele>
        <time>2026-05-14T16:15:55+02:00</time>
      </trkpt>
      <trkpt lat="47.08139" lon="5.24212">
        <ele>177.7998</ele>
        <time>2026-05-14T16:15:56+02:00</time>
      </trkpt>
      <trkpt lat="47.0814" lon="5.2422">
        <ele>177.90039</ele>
        <time>2026-05-14T16:15:57+02:00</time>
      </trkpt>
      <trkpt lat="47.0814" lon="5.24227">
        <ele>177.90039</ele>
        <time>2026-05-14T16:15:58+02:00</time>
      </trkpt>
      <trkpt lat="47.0814" lon="5.24235">
        <ele>177.90039</ele>
        <time>2026-05-14T16:15:59+02:00</time>
      </trkpt>
      <trkpt lat="47.0814" lon="5.24243">
        <ele>178</ele>
        <time>2026-05-14T16:16:00+02:00</time>
      </trkpt>
      <trkpt lat="47.0814" lon="5.2425">
        <ele>178.10059</ele>
        <time>2026-05-14T16:16:01+02:00</time>
      </trkpt>
      <trkpt lat="47.08141" lon="5.24257">
        <ele>177.90039</ele>
        <time>2026-05-14T16:16:02+02:00</time>
      </trkpt>
      <trkpt lat="47.08141" lon="5.24264">
        <ele>177.90039</ele>
        <time>2026-05-14T16:16:03+02:00</time>
      </trkpt>
      <trkpt lat="47.08142" lon="5.24271">
        <ele>177.90039</ele>
        <time>2026-05-14T16:16:04+02:00</time>
      </trkpt>
      <trkpt lat="47.08143" lon="5.24278">
        <ele>177.90039</ele>
        <time>2026-05-14T16:16:05+02:00</time>
      </trkpt>
      <trkpt lat="47.08143" lon="5.24285">
        <ele>177.90039</ele>
        <time>2026-05-14T16:16:06+02:00</time>
      </trkpt>
      <trkpt lat="47.08144" lon="5.24292">
        <ele>177.90039</ele>
        <time>2026-05-14T16:16:07+02:00</time>
      </trkpt>
      <trkpt lat="47.08145" lon="5.24299">
        <ele>177.90039</ele>
        <time>2026-05-14T16:16:08+02:00</time>
      </trkpt>
      <trkpt lat="47.08145" lon="5.24306">
        <ele>177.90039</ele>
        <time>2026-05-14T16:16:09+02:00</time>
      </trkpt>
      <trkpt lat="47.08146" lon="5.24312">
        <ele>177.90039</ele>
        <time>2026-05-14T16:16:10+02:00</time>
      </trkpt>
      <trkpt lat="47.08146" lon="5.24319">
        <ele>178</ele>
        <time>2026-05-14T16:16:11+02:00</time>
      </trkpt>
      <trkpt lat="47.08148" lon="5.24325">
        <ele>177.90039</ele>
        <time>2026-05-14T16:16:12+02:00</time>
      </trkpt>
      <trkpt lat="47.08149" lon="5.24331">
        <ele>177.90039</ele>
        <time>2026-05-14T16:16:13+02:00</time>
      </trkpt>
      <trkpt lat="47.0815" lon="5.24337">
        <ele>178.10059</ele>
        <time>2026-05-14T16:16:14+02:00</time>
      </trkpt>
      <trkpt lat="47.08151" lon="5.24343">
        <ele>178.40039</ele>
        <time>2026-05-14T16:16:15+02:00</time>
      </trkpt>
      <trkpt lat="47.08153" lon="5.24349">
        <ele>178.5</ele>
        <time>2026-05-14T16:16:16+02:00</time>
      </trkpt>
      <trkpt lat="47.08155" lon="5.24355">
        <ele>178.5</ele>
        <time>2026-05-14T16:16:17+02:00</time>
      </trkpt>
      <trkpt lat="47.08157" lon="5.24361">
        <ele>178.7002</ele>
        <time>2026-05-14T16:16:18+02:00</time>
      </trkpt>
      <trkpt lat="47.08159" lon="5.24367">
        <ele>178.7002</ele>
        <time>2026-05-14T16:16:19+02:00</time>
      </trkpt>
      <trkpt lat="47.08161" lon="5.24373">
        <ele>178.7002</ele>
        <time>2026-05-14T16:16:20+02:00</time>
      </trkpt>
      <trkpt lat="47.08164" lon="5.2438">
        <ele>178.7002</ele>
        <time>2026-05-14T16:16:21+02:00</time>
      </trkpt>
      <trkpt lat="47.08166" lon="5.24387">
        <ele>178.90039</ele>
        <time>2026-05-14T16:16:22+02:00</time>
      </trkpt>
      <trkpt lat="47.08168" lon="5.24393">
        <ele>179.10059</ele>
        <time>2026-05-14T16:16:23+02:00</time>
      </trkpt>
      <trkpt lat="47.0817" lon="5.24399">
        <ele>178.7998</ele>
        <time>2026-05-14T16:16:24+02:00</time>
      </trkpt>
      <trkpt lat="47.08173" lon="5.24405">
        <ele>178.90039</ele>
        <time>2026-05-14T16:16:25+02:00</time>
      </trkpt>
      <trkpt lat="47.08175" lon="5.24412">
        <ele>179</ele>
        <time>2026-05-14T16:16:26+02:00</time>
      </trkpt>
      <trkpt lat="47.08178" lon="5.24418">
        <ele>179.2998</ele>
        <time>2026-05-14T16:16:27+02:00</time>
      </trkpt>
      <trkpt lat="47.0818" lon="5.24423">
        <ele>179.2998</ele>
        <time>2026-05-14T16:16:28+02:00</time>
      </trkpt>
      <trkpt lat="47.08182" lon="5.24429">
        <ele>179.7998</ele>
        <time>2026-05-14T16:16:29+02:00</time>
      </trkpt>
      <trkpt lat="47.08185" lon="5.24435">
        <ele>180.60059</ele>
        <time>2026-05-14T16:16:30+02:00</time>
      </trkpt>
      <trkpt lat="47.08188" lon="5.24441">
        <ele>180.40039</ele>
        <time>2026-05-14T16:16:31+02:00</time>
      </trkpt>
      <trkpt lat="47.08191" lon="5.24447">
        <ele>180.7998</ele>
        <time>2026-05-14T16:16:32+02:00</time>
      </trkpt>
      <trkpt lat="47.08195" lon="5.24453">
        <ele>180.90039</ele>
        <time>2026-05-14T16:16:33+02:00</time>
      </trkpt>
      <trkpt lat="47.08198" lon="5.2446">
        <ele>181.10059</ele>
        <time>2026-05-14T16:16:34+02:00</time>
      </trkpt>
      <trkpt lat="47.08201" lon="5.24466">
        <ele>180.90039</ele>
        <time>2026-05-14T16:16:35+02:00</time>
      </trkpt>
      <trkpt lat="47.08205" lon="5.24472">
        <ele>180.90039</ele>
        <time>2026-05-14T16:16:36+02:00</time>
      </trkpt>
      <trkpt lat="47.08208" lon="5.24479">
        <ele>181</ele>
        <time>2026-05-14T16:16:37+02:00</time>
      </trkpt>
      <trkpt lat="47.08212" lon="5.24485">
        <ele>180.90039</ele>
        <time>2026-05-14T16:16:38+02:00</time>
      </trkpt>
      <trkpt lat="47.08215" lon="5.24492">
        <ele>180.7002</ele>
        <time>2026-05-14T16:16:39+02:00</time>
      </trkpt>
      <trkpt lat="47.08219" lon="5.24498">
        <ele>180.2002</ele>
        <time>2026-05-14T16:16:40+02:00</time>
      </trkpt>
      <trkpt lat="47.08223" lon="5.24504">
        <ele>179.90039</ele>
        <time>2026-05-14T16:16:41+02:00</time>
      </trkpt>
      <trkpt lat="47.08227" lon="5.2451">
        <ele>179.90039</ele>
        <time>2026-05-14T16:16:42+02:00</time>
      </trkpt>
      <trkpt lat="47.0823" lon="5.24515">
        <ele>179.7002</ele>
        <time>2026-05-14T16:16:43+02:00</time>
      </trkpt>
      <trkpt lat="47.08235" lon="5.2452">
        <ele>179.7002</ele>
        <time>2026-05-14T16:16:44+02:00</time>
      </trkpt>
      <trkpt lat="47.08239" lon="5.24524">
        <ele>179.7002</ele>
        <time>2026-05-14T16:16:45+02:00</time>
      </trkpt>
      <trkpt lat="47.08243" lon="5.24529">
        <ele>179.60059</ele>
        <time>2026-05-14T16:16:46+02:00</time>
      </trkpt>
      <trkpt lat="47.08246" lon="5.24533">
        <ele>179.5</ele>
        <time>2026-05-14T16:16:47+02:00</time>
      </trkpt>
      <trkpt lat="47.08251" lon="5.24538">
        <ele>179.60059</ele>
        <time>2026-05-14T16:16:48+02:00</time>
      </trkpt>
      <trkpt lat="47.08255" lon="5.24542">
        <ele>179.5</ele>
        <time>2026-05-14T16:16:49+02:00</time>
      </trkpt>
      <trkpt lat="47.08259" lon="5.24547">
        <ele>179.60059</ele>
        <time>2026-05-14T16:16:50+02:00</time>
      </trkpt>
      <trkpt lat="47.08263" lon="5.24551">
        <ele>179.60059</ele>
        <time>2026-05-14T16:16:51+02:00</time>
      </trkpt>
      <trkpt lat="47.08267" lon="5.24555">
        <ele>179.60059</ele>
        <time>2026-05-14T16:16:52+02:00</time>
      </trkpt>
      <trkpt lat="47.08271" lon="5.24559">
        <ele>179.5</ele>
        <time>2026-05-14T16:16:53+02:00</time>
      </trkpt>
      <trkpt lat="47.08275" lon="5.24563">
        <ele>179.5</ele>
        <time>2026-05-14T16:16:54+02:00</time>
      </trkpt>
      <trkpt lat="47.08279" lon="5.24567">
        <ele>179.5</ele>
        <time>2026-05-14T16:16:55+02:00</time>
      </trkpt>
      <trkpt lat="47.08283" lon="5.24571">
        <ele>179.5</ele>
        <time>2026-05-14T16:16:56+02:00</time>
      </trkpt>
      <trkpt lat="47.08286" lon="5.24575">
        <ele>179.7002</ele>
        <time>2026-05-14T16:16:57+02:00</time>
      </trkpt>
      <trkpt lat="47.08289" lon="5.2458">
        <ele>179.7002</ele>
        <time>2026-05-14T16:16:58+02:00</time>
      </trkpt>
      <trkpt lat="47.08292" lon="5.24586">
        <ele>179.90039</ele>
        <time>2026-05-14T16:16:59+02:00</time>
      </trkpt>
      <trkpt lat="47.08294" lon="5.24591">
        <ele>180.10059</ele>
        <time>2026-05-14T16:17:00+02:00</time>
      </trkpt>
      <trkpt lat="47.08296" lon="5.24596">
        <ele>180.10059</ele>
        <time>2026-05-14T16:17:01+02:00</time>
      </trkpt>
      <trkpt lat="47.08299" lon="5.246">
        <ele>180.40039</ele>
        <time>2026-05-14T16:17:02+02:00</time>
      </trkpt>
      <trkpt lat="47.08301" lon="5.24606">
        <ele>180.7002</ele>
        <time>2026-05-14T16:17:03+02:00</time>
      </trkpt>
      <trkpt lat="47.08302" lon="5.24612">
        <ele>180.7002</ele>
        <time>2026-05-14T16:17:04+02:00</time>
      </trkpt>
      <trkpt lat="47.08303" lon="5.24618">
        <ele>181</ele>
        <time>2026-05-14T16:17:05+02:00</time>
      </trkpt>
      <trkpt lat="47.08304" lon="5.24624">
        <ele>181.2998</ele>
        <time>2026-05-14T16:17:06+02:00</time>
      </trkpt>
      <trkpt lat="47.08305" lon="5.24629">
        <ele>181.2998</ele>
        <time>2026-05-14T16:17:07+02:00</time>
      </trkpt>
      <trkpt lat="47.08308" lon="5.24633">
        <ele>181.5</ele>
        <time>2026-05-14T16:17:08+02:00</time>
      </trkpt>
      <trkpt lat="47.0831" lon="5.24637">
        <ele>181.60059</ele>
        <time>2026-05-14T16:17:09+02:00</time>
      </trkpt>
      <trkpt lat="47.08313" lon="5.24641">
        <ele>181.7002</ele>
        <time>2026-05-14T16:17:10+02:00</time>
      </trkpt>
      <trkpt lat="47.08315" lon="5.24645">
        <ele>181.7002</ele>
        <time>2026-05-14T16:17:11+02:00</time>
      </trkpt>
      <trkpt lat="47.08318" lon="5.2465">
        <ele>181.7998</ele>
        <time>2026-05-14T16:17:12+02:00</time>
      </trkpt>
      <trkpt lat="47.0832" lon="5.24655">
        <ele>181.7998</ele>
        <time>2026-05-14T16:17:13+02:00</time>
      </trkpt>
      <trkpt lat="47.08323" lon="5.24659">
        <ele>182</ele>
        <time>2026-05-14T16:17:14+02:00</time>
      </trkpt>
      <trkpt lat="47.08326" lon="5.24664">
        <ele>182</ele>
        <time>2026-05-14T16:17:15+02:00</time>
      </trkpt>
      <trkpt lat="47.08329" lon="5.24668">
        <ele>182.10059</ele>
        <time>2026-05-14T16:17:16+02:00</time>
      </trkpt>
      <trkpt lat="47.08333" lon="5.24673">
        <ele>182.10059</ele>
        <time>2026-05-14T16:17:17+02:00</time>
      </trkpt>
      <trkpt lat="47.08336" lon="5.24678">
        <ele>182.2002</ele>
        <time>2026-05-14T16:17:18+02:00</time>
      </trkpt>
      <trkpt lat="47.08339" lon="5.24683">
        <ele>182.2002</ele>
        <time>2026-05-14T16:17:19+02:00</time>
      </trkpt>
      <trkpt lat="47.08342" lon="5.24688">
        <ele>182.2998</ele>
        <time>2026-05-14T16:17:20+02:00</time>
      </trkpt>
      <trkpt lat="47.08346" lon="5.24693">
        <ele>182.2998</ele>
        <time>2026-05-14T16:17:21+02:00</time>
      </trkpt>
      <trkpt lat="47.08349" lon="5.24699">
        <ele>182.2998</ele>
        <time>2026-05-14T16:17:22+02:00</time>
      </trkpt>
      <trkpt lat="47.08352" lon="5.24704">
        <ele>182.2998</ele>
        <time>2026-05-14T16:17:23+02:00</time>
      </trkpt>
      <trkpt lat="47.08356" lon="5.24709">
        <ele>182.2998</ele>
        <time>2026-05-14T16:17:24+02:00</time>
      </trkpt>
      <trkpt lat="47.0836" lon="5.24714">
        <ele>182.2998</ele>
        <time>2026-05-14T16:17:25+02:00</time>
      </trkpt>
      <trkpt lat="47.08363" lon="5.24719">
        <ele>182.2998</ele>
        <time>2026-05-14T16:17:26+02:00</time>
      </trkpt>
      <trkpt lat="47.08367" lon="5.24724">
        <ele>182.2998</ele>
        <time>2026-05-14T16:17:27+02:00</time>
      </trkpt>
      <trkpt lat="47.08371" lon="5.24729">
        <ele>182.2998</ele>
        <time>2026-05-14T16:17:28+02:00</time>
      </trkpt>
      <trkpt lat="47.08376" lon="5.24734">
        <ele>182.2998</ele>
        <time>2026-05-14T16:17:29+02:00</time>
      </trkpt>
      <trkpt lat="47.08379" lon="5.24739">
        <ele>182.2002</ele>
        <time>2026-05-14T16:17:30+02:00</time>
      </trkpt>
      <trkpt lat="47.08384" lon="5.24745">
        <ele>182.2002</ele>
        <time>2026-05-14T16:17:31+02:00</time>
      </trkpt>
      <trkpt lat="47.08388" lon="5.2475">
        <ele>182.2002</ele>
        <time>2026-05-14T16:17:32+02:00</time>
      </trkpt>
      <trkpt lat="47.08392" lon="5.24755">
        <ele>182.2002</ele>
        <time>2026-05-14T16:17:33+02:00</time>
      </trkpt>
      <trkpt lat="47.08396" lon="5.24761">
        <ele>182.10059</ele>
        <time>2026-05-14T16:17:34+02:00</time>
      </trkpt>
      <trkpt lat="47.084" lon="5.24765">
        <ele>182.10059</ele>
        <time>2026-05-14T16:17:35+02:00</time>
      </trkpt>
      <trkpt lat="47.08404" lon="5.24771">
        <ele>182.10059</ele>
        <time>2026-05-14T16:17:36+02:00</time>
      </trkpt>
      <trkpt lat="47.08409" lon="5.24776">
        <ele>182.10059</ele>
        <time>2026-05-14T16:17:37+02:00</time>
      </trkpt>
      <trkpt lat="47.08413" lon="5.24781">
        <ele>182.10059</ele>
        <time>2026-05-14T16:17:38+02:00</time>
      </trkpt>
      <trkpt lat="47.08418" lon="5.24787">
        <ele>182.10059</ele>
        <time>2026-05-14T16:17:39+02:00</time>
      </trkpt>
      <trkpt lat="47.08422" lon="5.24793">
        <ele>182.10059</ele>
        <time>2026-05-14T16:17:40+02:00</time>
      </trkpt>
      <trkpt lat="47.08426" lon="5.24799">
        <ele>182.10059</ele>
        <time>2026-05-14T16:17:41+02:00</time>
      </trkpt>
      <trkpt lat="47.0843" lon="5.24804">
        <ele>182.10059</ele>
        <time>2026-05-14T16:17:42+02:00</time>
      </trkpt>
      <trkpt lat="47.08435" lon="5.2481">
        <ele>182.10059</ele>
        <time>2026-05-14T16:17:43+02:00</time>
      </trkpt>
      <trkpt lat="47.08439" lon="5.24816">
        <ele>182.10059</ele>
        <time>2026-05-14T16:17:44+02:00</time>
      </trkpt>
      <trkpt lat="47.08444" lon="5.24821">
        <ele>182.10059</ele>
        <time>2026-05-14T16:17:45+02:00</time>
      </trkpt>
      <trkpt lat="47.08448" lon="5.24827">
        <ele>182.10059</ele>
        <time>2026-05-14T16:17:46+02:00</time>
      </trkpt>
      <trkpt lat="47.08453" lon="5.24832">
        <ele>182.2002</ele>
        <time>2026-05-14T16:17:47+02:00</time>
      </trkpt>
      <trkpt lat="47.08457" lon="5.24837">
        <ele>182.2002</ele>
        <time>2026-05-14T16:17:48+02:00</time>
      </trkpt>
      <trkpt lat="47.08461" lon="5.24842">
        <ele>182.2002</ele>
        <time>2026-05-14T16:17:49+02:00</time>
      </trkpt>
      <trkpt lat="47.08465" lon="5.24848">
        <ele>182.2998</ele>
        <time>2026-05-14T16:17:50+02:00</time>
      </trkpt>
      <trkpt lat="47.0847" lon="5.24853">
        <ele>182.2998</ele>
        <time>2026-05-14T16:17:51+02:00</time>
      </trkpt>
      <trkpt lat="47.08474" lon="5.24858">
        <ele>182.40039</ele>
        <time>2026-05-14T16:17:52+02:00</time>
      </trkpt>
      <trkpt lat="47.08478" lon="5.24863">
        <ele>182.40039</ele>
        <time>2026-05-14T16:17:53+02:00</time>
      </trkpt>
      <trkpt lat="47.08482" lon="5.24869">
        <ele>182.5</ele>
        <time>2026-05-14T16:17:54+02:00</time>
      </trkpt>
      <trkpt lat="47.08487" lon="5.24874">
        <ele>182.60059</ele>
        <time>2026-05-14T16:17:55+02:00</time>
      </trkpt>
      <trkpt lat="47.08491" lon="5.2488">
        <ele>182.7002</ele>
        <time>2026-05-14T16:17:56+02:00</time>
      </trkpt>
      <trkpt lat="47.08495" lon="5.24885">
        <ele>182.7998</ele>
        <time>2026-05-14T16:17:57+02:00</time>
      </trkpt>
      <trkpt lat="47.08499" lon="5.2489">
        <ele>182.90039</ele>
        <time>2026-05-14T16:17:58+02:00</time>
      </trkpt>
      <trkpt lat="47.08503" lon="5.24896">
        <ele>182.90039</ele>
        <time>2026-05-14T16:17:59+02:00</time>
      </trkpt>
      <trkpt lat="47.08508" lon="5.24901">
        <ele>183</ele>
        <time>2026-05-14T16:18:00+02:00</time>
      </trkpt>
      <trkpt lat="47.08512" lon="5.24907">
        <ele>183.10059</ele>
        <time>2026-05-14T16:18:01+02:00</time>
      </trkpt>
      <trkpt lat="47.08516" lon="5.24913">
        <ele>183.10059</ele>
        <time>2026-05-14T16:18:02+02:00</time>
      </trkpt>
      <trkpt lat="47.08521" lon="5.24919">
        <ele>183.2002</ele>
        <time>2026-05-14T16:18:03+02:00</time>
      </trkpt>
      <trkpt lat="47.08525" lon="5.24925">
        <ele>183.2998</ele>
        <time>2026-05-14T16:18:04+02:00</time>
      </trkpt>
      <trkpt lat="47.08529" lon="5.24931">
        <ele>183.2998</ele>
        <time>2026-05-14T16:18:05+02:00</time>
      </trkpt>
      <trkpt lat="47.08533" lon="5.24937">
        <ele>183.2998</ele>
        <time>2026-05-14T16:18:06+02:00</time>
      </trkpt>
      <trkpt lat="47.08537" lon="5.24944">
        <ele>183.40039</ele>
        <time>2026-05-14T16:18:07+02:00</time>
      </trkpt>
      <trkpt lat="47.08541" lon="5.2495">
        <ele>183.40039</ele>
        <time>2026-05-14T16:18:08+02:00</time>
      </trkpt>
      <trkpt lat="47.08545" lon="5.24956">
        <ele>183.40039</ele>
        <time>2026-05-14T16:18:09+02:00</time>
      </trkpt>
      <trkpt lat="47.0855" lon="5.24962">
        <ele>183.2998</ele>
        <time>2026-05-14T16:18:10+02:00</time>
      </trkpt>
      <trkpt lat="47.08554" lon="5.24968">
        <ele>183.40039</ele>
        <time>2026-05-14T16:18:11+02:00</time>
      </trkpt>
      <trkpt lat="47.08558" lon="5.24975">
        <ele>183.2998</ele>
        <time>2026-05-14T16:18:12+02:00</time>
      </trkpt>
      <trkpt lat="47.08562" lon="5.24981">
        <ele>183.2998</ele>
        <time>2026-05-14T16:18:13+02:00</time>
      </trkpt>
      <trkpt lat="47.08566" lon="5.24987">
        <ele>183.2998</ele>
        <time>2026-05-14T16:18:14+02:00</time>
      </trkpt>
      <trkpt lat="47.0857" lon="5.24994">
        <ele>183.2002</ele>
        <time>2026-05-14T16:18:15+02:00</time>
      </trkpt>
      <trkpt lat="47.08574" lon="5.25">
        <ele>183.2002</ele>
        <time>2026-05-14T16:18:16+02:00</time>
      </trkpt>
      <trkpt lat="47.08578" lon="5.25006">
        <ele>183.2002</ele>
        <time>2026-05-14T16:18:17+02:00</time>
      </trkpt>
      <trkpt lat="47.08582" lon="5.25011">
        <ele>183.10059</ele>
        <time>2026-05-14T16:18:18+02:00</time>
      </trkpt>
      <trkpt lat="47.08586" lon="5.25017">
        <ele>183.10059</ele>
        <time>2026-05-14T16:18:19+02:00</time>
      </trkpt>
      <trkpt lat="47.08589" lon="5.25023">
        <ele>183.10059</ele>
        <time>2026-05-14T16:18:20+02:00</time>
      </trkpt>
      <trkpt lat="47.08593" lon="5.25029">
        <ele>183</ele>
        <time>2026-05-14T16:18:21+02:00</time>
      </trkpt>
      <trkpt lat="47.08597" lon="5.25034">
        <ele>182.90039</ele>
        <time>2026-05-14T16:18:22+02:00</time>
      </trkpt>
      <trkpt lat="47.08601" lon="5.2504">
        <ele>182.90039</ele>
        <time>2026-05-14T16:18:23+02:00</time>
      </trkpt>
      <trkpt lat="47.08605" lon="5.25046">
        <ele>182.7998</ele>
        <time>2026-05-14T16:18:24+02:00</time>
      </trkpt>
      <trkpt lat="47.08609" lon="5.25052">
        <ele>182.7998</ele>
        <time>2026-05-14T16:18:25+02:00</time>
      </trkpt>
      <trkpt lat="47.08613" lon="5.25058">
        <ele>182.7998</ele>
        <time>2026-05-14T16:18:26+02:00</time>
      </trkpt>
      <trkpt lat="47.08616" lon="5.25065">
        <ele>182.7002</ele>
        <time>2026-05-14T16:18:27+02:00</time>
      </trkpt>
      <trkpt lat="47.0862" lon="5.25071">
        <ele>182.60059</ele>
        <time>2026-05-14T16:18:28+02:00</time>
      </trkpt>
      <trkpt lat="47.08624" lon="5.25077">
        <ele>182.60059</ele>
        <time>2026-05-14T16:18:29+02:00</time>
      </trkpt>
      <trkpt lat="47.08628" lon="5.25084">
        <ele>182.5</ele>
        <time>2026-05-14T16:18:30+02:00</time>
      </trkpt>
      <trkpt lat="47.08632" lon="5.2509">
        <ele>182.40039</ele>
        <time>2026-05-14T16:18:31+02:00</time>
      </trkpt>
      <trkpt lat="47.08636" lon="5.25096">
        <ele>182.2998</ele>
        <time>2026-05-14T16:18:32+02:00</time>
      </trkpt>
      <trkpt lat="47.0864" lon="5.25103">
        <ele>182.2998</ele>
        <time>2026-05-14T16:18:33+02:00</time>
      </trkpt>
      <trkpt lat="47.08644" lon="5.25109">
        <ele>182.2002</ele>
        <time>2026-05-14T16:18:34+02:00</time>
      </trkpt>
      <trkpt lat="47.08648" lon="5.25116">
        <ele>182.2002</ele>
        <time>2026-05-14T16:18:35+02:00</time>
      </trkpt>
      <trkpt lat="47.08651" lon="5.25123">
        <ele>182.10059</ele>
        <time>2026-05-14T16:18:36+02:00</time>
      </trkpt>
      <trkpt lat="47.08655" lon="5.25129">
        <ele>182.10059</ele>
        <time>2026-05-14T16:18:37+02:00</time>
      </trkpt>
      <trkpt lat="47.08659" lon="5.25136">
        <ele>182.10059</ele>
        <time>2026-05-14T16:18:38+02:00</time>
      </trkpt>
      <trkpt lat="47.08663" lon="5.25142">
        <ele>182</ele>
        <time>2026-05-14T16:18:39+02:00</time>
      </trkpt>
      <trkpt lat="47.08667" lon="5.25149">
        <ele>182</ele>
        <time>2026-05-14T16:18:40+02:00</time>
      </trkpt>
      <trkpt lat="47.0867" lon="5.25155">
        <ele>182</ele>
        <time>2026-05-14T16:18:41+02:00</time>
      </trkpt>
      <trkpt lat="47.08674" lon="5.25161">
        <ele>182</ele>
        <time>2026-05-14T16:18:42+02:00</time>
      </trkpt>
      <trkpt lat="47.08677" lon="5.25167">
        <ele>182</ele>
        <time>2026-05-14T16:18:43+02:00</time>
      </trkpt>
      <trkpt lat="47.0868" lon="5.25173">
        <ele>182</ele>
        <time>2026-05-14T16:18:44+02:00</time>
      </trkpt>
      <trkpt lat="47.08684" lon="5.25179">
        <ele>182</ele>
        <time>2026-05-14T16:18:45+02:00</time>
      </trkpt>
      <trkpt lat="47.08687" lon="5.25186">
        <ele>182</ele>
        <time>2026-05-14T16:18:46+02:00</time>
      </trkpt>
      <trkpt lat="47.0869" lon="5.25192">
        <ele>182.10059</ele>
        <time>2026-05-14T16:18:47+02:00</time>
      </trkpt>
      <trkpt lat="47.08693" lon="5.25199">
        <ele>182.10059</ele>
        <time>2026-05-14T16:18:48+02:00</time>
      </trkpt>
      <trkpt lat="47.08695" lon="5.25206">
        <ele>182.10059</ele>
        <time>2026-05-14T16:18:49+02:00</time>
      </trkpt>
      <trkpt lat="47.08698" lon="5.25213">
        <ele>182.2002</ele>
        <time>2026-05-14T16:18:50+02:00</time>
      </trkpt>
      <trkpt lat="47.08701" lon="5.2522">
        <ele>182.2998</ele>
        <time>2026-05-14T16:18:51+02:00</time>
      </trkpt>
      <trkpt lat="47.08703" lon="5.25227">
        <ele>182.5</ele>
        <time>2026-05-14T16:18:52+02:00</time>
      </trkpt>
      <trkpt lat="47.08706" lon="5.25234">
        <ele>182.60059</ele>
        <time>2026-05-14T16:18:53+02:00</time>
      </trkpt>
      <trkpt lat="47.08708" lon="5.25242">
        <ele>182.7998</ele>
        <time>2026-05-14T16:18:54+02:00</time>
      </trkpt>
      <trkpt lat="47.0871" lon="5.25249">
        <ele>182.7998</ele>
        <time>2026-05-14T16:18:55+02:00</time>
      </trkpt>
      <trkpt lat="47.08712" lon="5.25257">
        <ele>182.90039</ele>
        <time>2026-05-14T16:18:56+02:00</time>
      </trkpt>
      <trkpt lat="47.08714" lon="5.25265">
        <ele>183.2002</ele>
        <time>2026-05-14T16:18:57+02:00</time>
      </trkpt>
      <trkpt lat="47.08715" lon="5.25273">
        <ele>183.2998</ele>
        <time>2026-05-14T16:18:58+02:00</time>
      </trkpt>
      <trkpt lat="47.08717" lon="5.25281">
        <ele>183.5</ele>
        <time>2026-05-14T16:18:59+02:00</time>
      </trkpt>
      <trkpt lat="47.08719" lon="5.25289">
        <ele>183.7002</ele>
        <time>2026-05-14T16:19:00+02:00</time>
      </trkpt>
      <trkpt lat="47.0872" lon="5.25296">
        <ele>183.90039</ele>
        <time>2026-05-14T16:19:01+02:00</time>
      </trkpt>
      <trkpt lat="47.08722" lon="5.25304">
        <ele>184.10059</ele>
        <time>2026-05-14T16:19:02+02:00</time>
      </trkpt>
      <trkpt lat="47.08724" lon="5.25312">
        <ele>184.2002</ele>
        <time>2026-05-14T16:19:03+02:00</time>
      </trkpt>
      <trkpt lat="47.08726" lon="5.25319">
        <ele>184.5</ele>
        <time>2026-05-14T16:19:04+02:00</time>
      </trkpt>
      <trkpt lat="47.08727" lon="5.25327">
        <ele>184.5</ele>
        <time>2026-05-14T16:19:05+02:00</time>
      </trkpt>
      <trkpt lat="47.08729" lon="5.25335">
        <ele>184.5</ele>
        <time>2026-05-14T16:19:06+02:00</time>
      </trkpt>
      <trkpt lat="47.08731" lon="5.25343">
        <ele>184.7002</ele>
        <time>2026-05-14T16:19:07+02:00</time>
      </trkpt>
      <trkpt lat="47.08733" lon="5.25351">
        <ele>184.7998</ele>
        <time>2026-05-14T16:19:08+02:00</time>
      </trkpt>
      <trkpt lat="47.08734" lon="5.25359">
        <ele>184.7998</ele>
        <time>2026-05-14T16:19:09+02:00</time>
      </trkpt>
      <trkpt lat="47.08736" lon="5.25367">
        <ele>184.7998</ele>
        <time>2026-05-14T16:19:10+02:00</time>
      </trkpt>
      <trkpt lat="47.08737" lon="5.25375">
        <ele>184.90039</ele>
        <time>2026-05-14T16:19:11+02:00</time>
      </trkpt>
      <trkpt lat="47.08739" lon="5.25382">
        <ele>184.90039</ele>
        <time>2026-05-14T16:19:12+02:00</time>
      </trkpt>
      <trkpt lat="47.08741" lon="5.25389">
        <ele>184.90039</ele>
        <time>2026-05-14T16:19:13+02:00</time>
      </trkpt>
      <trkpt lat="47.08742" lon="5.25396">
        <ele>184.90039</ele>
        <time>2026-05-14T16:19:14+02:00</time>
      </trkpt>
      <trkpt lat="47.08743" lon="5.25403">
        <ele>184.90039</ele>
        <time>2026-05-14T16:19:15+02:00</time>
      </trkpt>
      <trkpt lat="47.08745" lon="5.25409">
        <ele>184.90039</ele>
        <time>2026-05-14T16:19:16+02:00</time>
      </trkpt>
      <trkpt lat="47.08745" lon="5.25415">
        <ele>184.7998</ele>
        <time>2026-05-14T16:19:17+02:00</time>
      </trkpt>
      <trkpt lat="47.08744" lon="5.25419">
        <ele>184.7998</ele>
        <time>2026-05-14T16:19:18+02:00</time>
      </trkpt>
      <trkpt lat="47.08742" lon="5.25422">
        <ele>184.60059</ele>
        <time>2026-05-14T16:19:19+02:00</time>
      </trkpt>
      <trkpt lat="47.08738" lon="5.25423">
        <ele>184.60059</ele>
        <time>2026-05-14T16:19:20+02:00</time>
      </trkpt>
      <trkpt lat="47.08735" lon="5.25423">
        <ele>184.5</ele>
        <time>2026-05-14T16:19:21+02:00</time>
      </trkpt>
      <trkpt lat="47.08732" lon="5.25421">
        <ele>184.60059</ele>
        <time>2026-05-14T16:19:22+02:00</time>
      </trkpt>
      <trkpt lat="47.08729" lon="5.25419">
        <ele>184.5</ele>
        <time>2026-05-14T16:19:23+02:00</time>
      </trkpt>
      <trkpt lat="47.08726" lon="5.25416">
        <ele>184.5</ele>
        <time>2026-05-14T16:19:24+02:00</time>
      </trkpt>
      <trkpt lat="47.08723" lon="5.25413">
        <ele>184.40039</ele>
        <time>2026-05-14T16:19:25+02:00</time>
      </trkpt>
      <trkpt lat="47.0872" lon="5.2541">
        <ele>184.5</ele>
        <time>2026-05-14T16:19:26+02:00</time>
      </trkpt>
      <trkpt lat="47.08716" lon="5.25406">
        <ele>184.40039</ele>
        <time>2026-05-14T16:19:27+02:00</time>
      </trkpt>
      <trkpt lat="47.08713" lon="5.25403">
        <ele>184.40039</ele>
        <time>2026-05-14T16:19:28+02:00</time>
      </trkpt>
      <trkpt lat="47.08709" lon="5.25399">
        <ele>184.2998</ele>
        <time>2026-05-14T16:19:29+02:00</time>
      </trkpt>
      <trkpt lat="47.08705" lon="5.25396">
        <ele>184.10059</ele>
        <time>2026-05-14T16:19:30+02:00</time>
      </trkpt>
      <trkpt lat="47.08701" lon="5.25392">
        <ele>184</ele>
        <time>2026-05-14T16:19:31+02:00</time>
      </trkpt>
      <trkpt lat="47.08697" lon="5.25388">
        <ele>184</ele>
        <time>2026-05-14T16:19:32+02:00</time>
      </trkpt>
      <trkpt lat="47.08693" lon="5.25384">
        <ele>183.7998</ele>
        <time>2026-05-14T16:19:33+02:00</time>
      </trkpt>
      <trkpt lat="47.08688" lon="5.2538">
        <ele>183.7002</ele>
        <time>2026-05-14T16:19:34+02:00</time>
      </trkpt>
      <trkpt lat="47.08684" lon="5.25375">
        <ele>183.7002</ele>
        <time>2026-05-14T16:19:35+02:00</time>
      </trkpt>
      <trkpt lat="47.08679" lon="5.25371">
        <ele>183.60059</ele>
        <time>2026-05-14T16:19:36+02:00</time>
      </trkpt>
      <trkpt lat="47.08675" lon="5.25367">
        <ele>183.40039</ele>
        <time>2026-05-14T16:19:37+02:00</time>
      </trkpt>
      <trkpt lat="47.08671" lon="5.25363">
        <ele>183.2998</ele>
        <time>2026-05-14T16:19:38+02:00</time>
      </trkpt>
      <trkpt lat="47.08666" lon="5.25359">
        <ele>183.10059</ele>
        <time>2026-05-14T16:19:39+02:00</time>
      </trkpt>
      <trkpt lat="47.08662" lon="5.25355">
        <ele>183.10059</ele>
        <time>2026-05-14T16:19:40+02:00</time>
      </trkpt>
      <trkpt lat="47.08658" lon="5.25351">
        <ele>183</ele>
        <time>2026-05-14T16:19:41+02:00</time>
      </trkpt>
      <trkpt lat="47.08654" lon="5.25348">
        <ele>182.90039</ele>
        <time>2026-05-14T16:19:42+02:00</time>
      </trkpt>
      <trkpt lat="47.0865" lon="5.25345">
        <ele>182.90039</ele>
        <time>2026-05-14T16:19:43+02:00</time>
      </trkpt>
      <trkpt lat="47.08647" lon="5.25341">
        <ele>182.7002</ele>
        <time>2026-05-14T16:19:44+02:00</time>
      </trkpt>
      <trkpt lat="47.08643" lon="5.25338">
        <ele>182.7002</ele>
        <time>2026-05-14T16:19:45+02:00</time>
      </trkpt>
      <trkpt lat="47.08639" lon="5.25335">
        <ele>182.5</ele>
        <time>2026-05-14T16:19:46+02:00</time>
      </trkpt>
      <trkpt lat="47.08635" lon="5.25334">
        <ele>182.40039</ele>
        <time>2026-05-14T16:19:47+02:00</time>
      </trkpt>
      <trkpt lat="47.08631" lon="5.25333">
        <ele>182.2998</ele>
        <time>2026-05-14T16:19:48+02:00</time>
      </trkpt>
      <trkpt lat="47.08627" lon="5.25335">
        <ele>182.2998</ele>
        <time>2026-05-14T16:19:49+02:00</time>
      </trkpt>
      <trkpt lat="47.08624" lon="5.25337">
        <ele>182.2002</ele>
        <time>2026-05-14T16:19:50+02:00</time>
      </trkpt>
      <trkpt lat="47.08622" lon="5.25339">
        <ele>182.2002</ele>
        <time>2026-05-14T16:19:51+02:00</time>
      </trkpt>
      <trkpt lat="47.08619" lon="5.25342">
        <ele>182.10059</ele>
        <time>2026-05-14T16:19:52+02:00</time>
      </trkpt>
      <trkpt lat="47.08618" lon="5.25345">
        <ele>182.2002</ele>
        <time>2026-05-14T16:19:53+02:00</time>
      </trkpt>
      <trkpt lat="47.08617" lon="5.25349">
        <ele>182.2002</ele>
        <time>2026-05-14T16:19:54+02:00</time>
      </trkpt>
      <trkpt lat="47.08617" lon="5.25354">
        <ele>182.2002</ele>
        <time>2026-05-14T16:19:55+02:00</time>
      </trkpt>
      <trkpt lat="47.08618" lon="5.2536">
        <ele>182.2002</ele>
        <time>2026-05-14T16:19:56+02:00</time>
      </trkpt>
      <trkpt lat="47.08619" lon="5.25365">
        <ele>182.2998</ele>
        <time>2026-05-14T16:19:57+02:00</time>
      </trkpt>
      <trkpt lat="47.08621" lon="5.25371">
        <ele>182.40039</ele>
        <time>2026-05-14T16:19:58+02:00</time>
      </trkpt>
      <trkpt lat="47.08622" lon="5.25376">
        <ele>182.40039</ele>
        <time>2026-05-14T16:19:59+02:00</time>
      </trkpt>
      <trkpt lat="47.08624" lon="5.25382">
        <ele>182.5</ele>
        <time>2026-05-14T16:20:00+02:00</time>
      </trkpt>
      <trkpt lat="47.08626" lon="5.25388">
        <ele>182.60059</ele>
        <time>2026-05-14T16:20:01+02:00</time>
      </trkpt>
      <trkpt lat="47.08628" lon="5.25394">
        <ele>182.60059</ele>
        <time>2026-05-14T16:20:02+02:00</time>
      </trkpt>
      <trkpt lat="47.08629" lon="5.25399">
        <ele>182.7002</ele>
        <time>2026-05-14T16:20:03+02:00</time>
      </trkpt>
      <trkpt lat="47.08631" lon="5.25405">
        <ele>182.7002</ele>
        <time>2026-05-14T16:20:04+02:00</time>
      </trkpt>
      <trkpt lat="47.08633" lon="5.2541">
        <ele>182.7998</ele>
        <time>2026-05-14T16:20:05+02:00</time>
      </trkpt>
      <trkpt lat="47.08634" lon="5.25416">
        <ele>182.7998</ele>
        <time>2026-05-14T16:20:06+02:00</time>
      </trkpt>
      <trkpt lat="47.08635" lon="5.25422">
        <ele>182.90039</ele>
        <time>2026-05-14T16:20:07+02:00</time>
      </trkpt>
      <trkpt lat="47.08637" lon="5.25428">
        <ele>182.90039</ele>
        <time>2026-05-14T16:20:08+02:00</time>
      </trkpt>
      <trkpt lat="47.08639" lon="5.25433">
        <ele>183</ele>
        <time>2026-05-14T16:20:09+02:00</time>
      </trkpt>
      <trkpt lat="47.0864" lon="5.25439">
        <ele>183</ele>
        <time>2026-05-14T16:20:10+02:00</time>
      </trkpt>
      <trkpt lat="47.08642" lon="5.25445">
        <ele>183</ele>
        <time>2026-05-14T16:20:11+02:00</time>
      </trkpt>
      <trkpt lat="47.08644" lon="5.25451">
        <ele>183.10059</ele>
        <time>2026-05-14T16:20:12+02:00</time>
      </trkpt>
      <trkpt lat="47.08645" lon="5.25457">
        <ele>183.10059</ele>
        <time>2026-05-14T16:20:13+02:00</time>
      </trkpt>
      <trkpt lat="47.08647" lon="5.25463">
        <ele>183.10059</ele>
        <time>2026-05-14T16:20:14+02:00</time>
      </trkpt>
      <trkpt lat="47.08649" lon="5.25468">
        <ele>183.10059</ele>
        <time>2026-05-14T16:20:15+02:00</time>
      </trkpt>
      <trkpt lat="47.08651" lon="5.25474">
        <ele>183.2002</ele>
        <time>2026-05-14T16:20:16+02:00</time>
      </trkpt>
      <trkpt lat="47.08653" lon="5.25479">
        <ele>183.2002</ele>
        <time>2026-05-14T16:20:17+02:00</time>
      </trkpt>
      <trkpt lat="47.08655" lon="5.25485">
        <ele>183.2002</ele>
        <time>2026-05-14T16:20:18+02:00</time>
      </trkpt>
      <trkpt lat="47.08657" lon="5.25491">
        <ele>183.2002</ele>
        <time>2026-05-14T16:20:19+02:00</time>
      </trkpt>
      <trkpt lat="47.08659" lon="5.25497">
        <ele>183.2002</ele>
        <time>2026-05-14T16:20:20+02:00</time>
      </trkpt>
      <trkpt lat="47.08661" lon="5.25503">
        <ele>183.2998</ele>
        <time>2026-05-14T16:20:21+02:00</time>
      </trkpt>
      <trkpt lat="47.08663" lon="5.25509">
        <ele>183.2998</ele>
        <time>2026-05-14T16:20:22+02:00</time>
      </trkpt>
      <trkpt lat="47.08665" lon="5.25515">
        <ele>183.2998</ele>
        <time>2026-05-14T16:20:23+02:00</time>
      </trkpt>
      <trkpt lat="47.08668" lon="5.25521">
        <ele>183.40039</ele>
        <time>2026-05-14T16:20:24+02:00</time>
      </trkpt>
      <trkpt lat="47.0867" lon="5.25526">
        <ele>183.5</ele>
        <time>2026-05-14T16:20:25+02:00</time>
      </trkpt>
      <trkpt lat="47.08672" lon="5.25532">
        <ele>183.5</ele>
        <time>2026-05-14T16:20:26+02:00</time>
      </trkpt>
      <trkpt lat="47.08676" lon="5.25538">
        <ele>183.60059</ele>
        <time>2026-05-14T16:20:27+02:00</time>
      </trkpt>
      <trkpt lat="47.08679" lon="5.25544">
        <ele>183.7002</ele>
        <time>2026-05-14T16:20:28+02:00</time>
      </trkpt>
      <trkpt lat="47.08682" lon="5.2555">
        <ele>183.7998</ele>
        <time>2026-05-14T16:20:29+02:00</time>
      </trkpt>
      <trkpt lat="47.08685" lon="5.25556">
        <ele>183.7998</ele>
        <time>2026-05-14T16:20:30+02:00</time>
      </trkpt>
      <trkpt lat="47.08688" lon="5.25562">
        <ele>183.90039</ele>
        <time>2026-05-14T16:20:31+02:00</time>
      </trkpt>
      <trkpt lat="47.08692" lon="5.25568">
        <ele>183.90039</ele>
        <time>2026-05-14T16:20:32+02:00</time>
      </trkpt>
      <trkpt lat="47.08695" lon="5.25574">
        <ele>183.90039</ele>
        <time>2026-05-14T16:20:33+02:00</time>
      </trkpt>
      <trkpt lat="47.087" lon="5.2558">
        <ele>184</ele>
        <time>2026-05-14T16:20:34+02:00</time>
      </trkpt>
      <trkpt lat="47.08704" lon="5.25586">
        <ele>183.90039</ele>
        <time>2026-05-14T16:20:35+02:00</time>
      </trkpt>
      <trkpt lat="47.08708" lon="5.25593">
        <ele>183.7998</ele>
        <time>2026-05-14T16:20:36+02:00</time>
      </trkpt>
      <trkpt lat="47.08713" lon="5.25599">
        <ele>183.7998</ele>
        <time>2026-05-14T16:20:37+02:00</time>
      </trkpt>
      <trkpt lat="47.08717" lon="5.25606">
        <ele>183.7002</ele>
        <time>2026-05-14T16:20:38+02:00</time>
      </trkpt>
      <trkpt lat="47.08722" lon="5.25612">
        <ele>183.60059</ele>
        <time>2026-05-14T16:20:39+02:00</time>
      </trkpt>
      <trkpt lat="47.08728" lon="5.25619">
        <ele>183.5</ele>
        <time>2026-05-14T16:20:40+02:00</time>
      </trkpt>
      <trkpt lat="47.08734" lon="5.25626">
        <ele>183.5</ele>
        <time>2026-05-14T16:20:41+02:00</time>
      </trkpt>
      <trkpt lat="47.0874" lon="5.25633">
        <ele>183.40039</ele>
        <time>2026-05-14T16:20:42+02:00</time>
      </trkpt>
      <trkpt lat="47.08746" lon="5.2564">
        <ele>183.2998</ele>
        <time>2026-05-14T16:20:43+02:00</time>
      </trkpt>
      <trkpt lat="47.08753" lon="5.25648">
        <ele>183.2002</ele>
        <time>2026-05-14T16:20:44+02:00</time>
      </trkpt>
      <trkpt lat="47.08759" lon="5.25655">
        <ele>183.10059</ele>
        <time>2026-05-14T16:20:45+02:00</time>
      </trkpt>
      <trkpt lat="47.08766" lon="5.25662">
        <ele>182.90039</ele>
        <time>2026-05-14T16:20:46+02:00</time>
      </trkpt>
      <trkpt lat="47.08772" lon="5.2567">
        <ele>182.90039</ele>
        <time>2026-05-14T16:20:47+02:00</time>
      </trkpt>
      <trkpt lat="47.08779" lon="5.25677">
        <ele>182.7998</ele>
        <time>2026-05-14T16:20:48+02:00</time>
      </trkpt>
      <trkpt lat="47.08785" lon="5.25685">
        <ele>182.7002</ele>
        <time>2026-05-14T16:20:49+02:00</time>
      </trkpt>
      <trkpt lat="47.08791" lon="5.25692">
        <ele>182.7002</ele>
        <time>2026-05-14T16:20:50+02:00</time>
      </trkpt>
      <trkpt lat="47.08796" lon="5.257">
        <ele>182.7002</ele>
        <time>2026-05-14T16:20:51+02:00</time>
      </trkpt>
      <trkpt lat="47.08802" lon="5.25708">
        <ele>182.7002</ele>
        <time>2026-05-14T16:20:52+02:00</time>
      </trkpt>
      <trkpt lat="47.08807" lon="5.25716">
        <ele>182.7002</ele>
        <time>2026-05-14T16:20:53+02:00</time>
      </trkpt>
      <trkpt lat="47.08812" lon="5.25725">
        <ele>182.7998</ele>
        <time>2026-05-14T16:20:54+02:00</time>
      </trkpt>
      <trkpt lat="47.08817" lon="5.25734">
        <ele>182.7998</ele>
        <time>2026-05-14T16:20:55+02:00</time>
      </trkpt>
      <trkpt lat="47.08821" lon="5.25744">
        <ele>182.7998</ele>
        <time>2026-05-14T16:20:56+02:00</time>
      </trkpt>
      <trkpt lat="47.08825" lon="5.25754">
        <ele>182.7998</ele>
        <time>2026-05-14T16:20:57+02:00</time>
      </trkpt>
      <trkpt lat="47.08828" lon="5.25764">
        <ele>182.90039</ele>
        <time>2026-05-14T16:20:58+02:00</time>
      </trkpt>
      <trkpt lat="47.08832" lon="5.25774">
        <ele>183</ele>
        <time>2026-05-14T16:20:59+02:00</time>
      </trkpt>
      <trkpt lat="47.08835" lon="5.25784">
        <ele>183.10059</ele>
        <time>2026-05-14T16:21:00+02:00</time>
      </trkpt>
      <trkpt lat="47.08838" lon="5.25794">
        <ele>183.10059</ele>
        <time>2026-05-14T16:21:01+02:00</time>
      </trkpt>
      <trkpt lat="47.0884" lon="5.25804">
        <ele>183.2002</ele>
        <time>2026-05-14T16:21:02+02:00</time>
      </trkpt>
      <trkpt lat="47.08843" lon="5.25814">
        <ele>183.2002</ele>
        <time>2026-05-14T16:21:03+02:00</time>
      </trkpt>
      <trkpt lat="47.08845" lon="5.25824">
        <ele>183.2998</ele>
        <time>2026-05-14T16:21:04+02:00</time>
      </trkpt>
      <trkpt lat="47.08848" lon="5.25834">
        <ele>183.40039</ele>
        <time>2026-05-14T16:21:05+02:00</time>
      </trkpt>
      <trkpt lat="47.0885" lon="5.25844">
        <ele>183.40039</ele>
        <time>2026-05-14T16:21:06+02:00</time>
      </trkpt>
      <trkpt lat="47.08853" lon="5.25854">
        <ele>183.40039</ele>
        <time>2026-05-14T16:21:07+02:00</time>
      </trkpt>
      <trkpt lat="47.08855" lon="5.25864">
        <ele>183.2998</ele>
        <time>2026-05-14T16:21:08+02:00</time>
      </trkpt>
      <trkpt lat="47.08857" lon="5.25873">
        <ele>183.2002</ele>
        <time>2026-05-14T16:21:09+02:00</time>
      </trkpt>
      <trkpt lat="47.08859" lon="5.25883">
        <ele>183.10059</ele>
        <time>2026-05-14T16:21:10+02:00</time>
      </trkpt>
      <trkpt lat="47.08861" lon="5.25892">
        <ele>183</ele>
        <time>2026-05-14T16:21:11+02:00</time>
      </trkpt>
      <trkpt lat="47.08864" lon="5.25901">
        <ele>182.90039</ele>
        <time>2026-05-14T16:21:12+02:00</time>
      </trkpt>
      <trkpt lat="47.08866" lon="5.2591">
        <ele>182.7998</ele>
        <time>2026-05-14T16:21:13+02:00</time>
      </trkpt>
      <trkpt lat="47.08868" lon="5.2592">
        <ele>182.7002</ele>
        <time>2026-05-14T16:21:14+02:00</time>
      </trkpt>
      <trkpt lat="47.0887" lon="5.25929">
        <ele>182.7002</ele>
        <time>2026-05-14T16:21:15+02:00</time>
      </trkpt>
      <trkpt lat="47.08872" lon="5.25938">
        <ele>182.7002</ele>
        <time>2026-05-14T16:21:16+02:00</time>
      </trkpt>
      <trkpt lat="47.08874" lon="5.25947">
        <ele>182.7002</ele>
        <time>2026-05-14T16:21:17+02:00</time>
      </trkpt>
      <trkpt lat="47.08876" lon="5.25955">
        <ele>182.7002</ele>
        <time>2026-05-14T16:21:18+02:00</time>
      </trkpt>
      <trkpt lat="47.08877" lon="5.25961">
        <ele>182.7002</ele>
        <time>2026-05-14T16:21:19+02:00</time>
      </trkpt>
      <trkpt lat="47.08878" lon="5.25966">
        <ele>182.7002</ele>
        <time>2026-05-14T16:21:20+02:00</time>
      </trkpt>
      <trkpt lat="47.08879" lon="5.2597">
        <ele>182.7002</ele>
        <time>2026-05-14T16:21:21+02:00</time>
      </trkpt>
      <trkpt lat="47.0888" lon="5.25973">
        <ele>182.7002</ele>
        <time>2026-05-14T16:21:22+02:00</time>
      </trkpt>
      <trkpt lat="47.08882" lon="5.25975">
        <ele>182.7002</ele>
        <time>2026-05-14T16:21:23+02:00</time>
      </trkpt>
      <trkpt lat="47.08883" lon="5.25975">
        <ele>182.7998</ele>
        <time>2026-05-14T16:21:24+02:00</time>
      </trkpt>
      <trkpt lat="47.08885" lon="5.25973">
        <ele>182.7998</ele>
        <time>2026-05-14T16:21:25+02:00</time>
      </trkpt>
      <trkpt lat="47.08886" lon="5.25971">
        <ele>182.7998</ele>
        <time>2026-05-14T16:21:26+02:00</time>
      </trkpt>
      <trkpt lat="47.08886" lon="5.25969">
        <ele>182.7002</ele>
        <time>2026-05-14T16:21:27+02:00</time>
      </trkpt>
      <trkpt lat="47.08885" lon="5.25967">
        <ele>182.7002</ele>
        <time>2026-05-14T16:21:28+02:00</time>
      </trkpt>
      <trkpt lat="47.08885" lon="5.25966">
        <ele>182.7002</ele>
        <time>2026-05-14T16:21:29+02:00</time>
      </trkpt>
      <trkpt lat="47.08884" lon="5.25965">
        <ele>182.7002</ele>
        <time>2026-05-14T16:21:30+02:00</time>
      </trkpt>
      <trkpt lat="47.08884" lon="5.25966">
        <ele>182.7002</ele>
        <time>2026-05-14T16:21:31+02:00</time>
      </trkpt>
      <trkpt lat="47.08884" lon="5.25966">
        <ele>182.7002</ele>
        <time>2026-05-14T16:21:32+02:00</time>
      </trkpt>
      <trkpt lat="47.08897" lon="5.25953">
        <ele>182.60059</ele>
        <time>2026-05-14T16:21:56+02:00</time>
      </trkpt>
      <trkpt lat="47.08899" lon="5.25949">
        <ele>182.60059</ele>
        <time>2026-05-14T16:21:57+02:00</time>
      </trkpt>
      <trkpt lat="47.08902" lon="5.25945">
        <ele>182.5</ele>
        <time>2026-05-14T16:21:58+02:00</time>
      </trkpt>
      <trkpt lat="47.08906" lon="5.25942">
        <ele>182.40039</ele>
        <time>2026-05-14T16:21:59+02:00</time>
      </trkpt>
      <trkpt lat="47.0891" lon="5.25939">
        <ele>182.40039</ele>
        <time>2026-05-14T16:22:00+02:00</time>
      </trkpt>
      <trkpt lat="47.08913" lon="5.25937">
        <ele>182.2998</ele>
        <time>2026-05-14T16:22:01+02:00</time>
      </trkpt>
      <trkpt lat="47.08917" lon="5.25935">
        <ele>182.2002</ele>
        <time>2026-05-14T16:22:02+02:00</time>
      </trkpt>
      <trkpt lat="47.08921" lon="5.25934">
        <ele>182.10059</ele>
        <time>2026-05-14T16:22:03+02:00</time>
      </trkpt>
      <trkpt lat="47.08925" lon="5.25933">
        <ele>181.90039</ele>
        <time>2026-05-14T16:22:04+02:00</time>
      </trkpt>
      <trkpt lat="47.08929" lon="5.25932">
        <ele>181.90039</ele>
        <time>2026-05-14T16:22:05+02:00</time>
      </trkpt>
      <trkpt lat="47.08933" lon="5.25932">
        <ele>181.7002</ele>
        <time>2026-05-14T16:22:06+02:00</time>
      </trkpt>
      <trkpt lat="47.08938" lon="5.25932">
        <ele>181.5</ele>
        <time>2026-05-14T16:22:07+02:00</time>
      </trkpt>
      <trkpt lat="47.08942" lon="5.25933">
        <ele>181.40039</ele>
        <time>2026-05-14T16:22:08+02:00</time>
      </trkpt>
      <trkpt lat="47.08946" lon="5.25933">
        <ele>181.40039</ele>
        <time>2026-05-14T16:22:09+02:00</time>
      </trkpt>
      <trkpt lat="47.08951" lon="5.25933">
        <ele>181.2002</ele>
        <time>2026-05-14T16:22:10+02:00</time>
      </trkpt>
      <trkpt lat="47.08957" lon="5.25934">
        <ele>181.10059</ele>
        <time>2026-05-14T16:22:11+02:00</time>
      </trkpt>
      <trkpt lat="47.08962" lon="5.25935">
        <ele>181</ele>
        <time>2026-05-14T16:22:12+02:00</time>
      </trkpt>
      <trkpt lat="47.08967" lon="5.25936">
        <ele>180.7998</ele>
        <time>2026-05-14T16:22:13+02:00</time>
      </trkpt>
      <trkpt lat="47.08973" lon="5.25938">
        <ele>180.7002</ele>
        <time>2026-05-14T16:22:14+02:00</time>
      </trkpt>
      <trkpt lat="47.08978" lon="5.25939">
        <ele>180.60059</ele>
        <time>2026-05-14T16:22:15+02:00</time>
      </trkpt>
      <trkpt lat="47.08983" lon="5.2594">
        <ele>180.5</ele>
        <time>2026-05-14T16:22:16+02:00</time>
      </trkpt>
      <trkpt lat="47.08989" lon="5.25942">
        <ele>180.5</ele>
        <time>2026-05-14T16:22:17+02:00</time>
      </trkpt>
      <trkpt lat="47.08994" lon="5.25943">
        <ele>180.40039</ele>
        <time>2026-05-14T16:22:18+02:00</time>
      </trkpt>
      <trkpt lat="47.08999" lon="5.25944">
        <ele>180.40039</ele>
        <time>2026-05-14T16:22:19+02:00</time>
      </trkpt>
      <trkpt lat="47.09004" lon="5.25945">
        <ele>180.40039</ele>
        <time>2026-05-14T16:22:20+02:00</time>
      </trkpt>
      <trkpt lat="47.0901" lon="5.25947">
        <ele>180.2998</ele>
        <time>2026-05-14T16:22:21+02:00</time>
      </trkpt>
      <trkpt lat="47.09015" lon="5.25948">
        <ele>180.2998</ele>
        <time>2026-05-14T16:22:22+02:00</time>
      </trkpt>
      <trkpt lat="47.0902" lon="5.25949">
        <ele>180.2998</ele>
        <time>2026-05-14T16:22:23+02:00</time>
      </trkpt>
      <trkpt lat="47.09026" lon="5.2595">
        <ele>180.2998</ele>
        <time>2026-05-14T16:22:24+02:00</time>
      </trkpt>
      <trkpt lat="47.09031" lon="5.25951">
        <ele>180.2998</ele>
        <time>2026-05-14T16:22:25+02:00</time>
      </trkpt>
      <trkpt lat="47.09037" lon="5.25953">
        <ele>180.40039</ele>
        <time>2026-05-14T16:22:26+02:00</time>
      </trkpt>
      <trkpt lat="47.09042" lon="5.25954">
        <ele>180.5</ele>
        <time>2026-05-14T16:22:27+02:00</time>
      </trkpt>
      <trkpt lat="47.09048" lon="5.25956">
        <ele>180.5</ele>
        <time>2026-05-14T16:22:28+02:00</time>
      </trkpt>
      <trkpt lat="47.09053" lon="5.25957">
        <ele>180.5</ele>
        <time>2026-05-14T16:22:29+02:00</time>
      </trkpt>
      <trkpt lat="47.09059" lon="5.25958">
        <ele>180.60059</ele>
        <time>2026-05-14T16:22:30+02:00</time>
      </trkpt>
      <trkpt lat="47.09064" lon="5.2596">
        <ele>180.60059</ele>
        <time>2026-05-14T16:22:31+02:00</time>
      </trkpt>
      <trkpt lat="47.0907" lon="5.25961">
        <ele>180.60059</ele>
        <time>2026-05-14T16:22:32+02:00</time>
      </trkpt>
      <trkpt lat="47.09075" lon="5.25963">
        <ele>180.7002</ele>
        <time>2026-05-14T16:22:33+02:00</time>
      </trkpt>
      <trkpt lat="47.09081" lon="5.25964">
        <ele>180.7002</ele>
        <time>2026-05-14T16:22:34+02:00</time>
      </trkpt>
      <trkpt lat="47.09086" lon="5.25966">
        <ele>180.7002</ele>
        <time>2026-05-14T16:22:35+02:00</time>
      </trkpt>
      <trkpt lat="47.09092" lon="5.25967">
        <ele>180.7002</ele>
        <time>2026-05-14T16:22:36+02:00</time>
      </trkpt>
      <trkpt lat="47.09097" lon="5.25969">
        <ele>180.60059</ele>
        <time>2026-05-14T16:22:37+02:00</time>
      </trkpt>
      <trkpt lat="47.09103" lon="5.2597">
        <ele>180.60059</ele>
        <time>2026-05-14T16:22:38+02:00</time>
      </trkpt>
      <trkpt lat="47.09108" lon="5.25972">
        <ele>180.60059</ele>
        <time>2026-05-14T16:22:39+02:00</time>
      </trkpt>
      <trkpt lat="47.09114" lon="5.25973">
        <ele>180.60059</ele>
        <time>2026-05-14T16:22:40+02:00</time>
      </trkpt>
      <trkpt lat="47.0912" lon="5.25974">
        <ele>180.5</ele>
        <time>2026-05-14T16:22:41+02:00</time>
      </trkpt>
      <trkpt lat="47.09125" lon="5.25976">
        <ele>180.5</ele>
        <time>2026-05-14T16:22:42+02:00</time>
      </trkpt>
      <trkpt lat="47.09131" lon="5.25977">
        <ele>180.40039</ele>
        <time>2026-05-14T16:22:43+02:00</time>
      </trkpt>
      <trkpt lat="47.09137" lon="5.25978">
        <ele>180.40039</ele>
        <time>2026-05-14T16:22:44+02:00</time>
      </trkpt>
      <trkpt lat="47.09142" lon="5.2598">
        <ele>180.2998</ele>
        <time>2026-05-14T16:22:45+02:00</time>
      </trkpt>
      <trkpt lat="47.09148" lon="5.25981">
        <ele>180.2998</ele>
        <time>2026-05-14T16:22:46+02:00</time>
      </trkpt>
      <trkpt lat="47.09154" lon="5.25983">
        <ele>180.2002</ele>
        <time>2026-05-14T16:22:47+02:00</time>
      </trkpt>
      <trkpt lat="47.0916" lon="5.25984">
        <ele>180.2002</ele>
        <time>2026-05-14T16:22:48+02:00</time>
      </trkpt>
      <trkpt lat="47.09166" lon="5.25985">
        <ele>180.2002</ele>
        <time>2026-05-14T16:22:49+02:00</time>
      </trkpt>
      <trkpt lat="47.09171" lon="5.25987">
        <ele>180.10059</ele>
        <time>2026-05-14T16:22:50+02:00</time>
      </trkpt>
      <trkpt lat="47.09178" lon="5.25988">
        <ele>180.10059</ele>
        <time>2026-05-14T16:22:51+02:00</time>
      </trkpt>
      <trkpt lat="47.09183" lon="5.2599">
        <ele>180.10059</ele>
        <time>2026-05-14T16:22:52+02:00</time>
      </trkpt>
      <trkpt lat="47.09189" lon="5.25991">
        <ele>180.10059</ele>
        <time>2026-05-14T16:22:53+02:00</time>
      </trkpt>
      <trkpt lat="47.09195" lon="5.25992">
        <ele>180.10059</ele>
        <time>2026-05-14T16:22:54+02:00</time>
      </trkpt>
      <trkpt lat="47.09201" lon="5.25994">
        <ele>180.10059</ele>
        <time>2026-05-14T16:22:55+02:00</time>
      </trkpt>
      <trkpt lat="47.09207" lon="5.25995">
        <ele>180.10059</ele>
        <time>2026-05-14T16:22:56+02:00</time>
      </trkpt>
      <trkpt lat="47.09213" lon="5.25997">
        <ele>180.10059</ele>
        <time>2026-05-14T16:22:57+02:00</time>
      </trkpt>
      <trkpt lat="47.09219" lon="5.25998">
        <ele>180.10059</ele>
        <time>2026-05-14T16:22:58+02:00</time>
      </trkpt>
      <trkpt lat="47.09224" lon="5.25999">
        <ele>180.10059</ele>
        <time>2026-05-14T16:22:59+02:00</time>
      </trkpt>
      <trkpt lat="47.09231" lon="5.26001">
        <ele>180.10059</ele>
        <time>2026-05-14T16:23:00+02:00</time>
      </trkpt>
      <trkpt lat="47.09236" lon="5.26002">
        <ele>180.10059</ele>
        <time>2026-05-14T16:23:01+02:00</time>
      </trkpt>
      <trkpt lat="47.09242" lon="5.26004">
        <ele>180.10059</ele>
        <time>2026-05-14T16:23:02+02:00</time>
      </trkpt>
      <trkpt lat="47.09248" lon="5.26005">
        <ele>180.10059</ele>
        <time>2026-05-14T16:23:03+02:00</time>
      </trkpt>
      <trkpt lat="47.09254" lon="5.26007">
        <ele>180.10059</ele>
        <time>2026-05-14T16:23:04+02:00</time>
      </trkpt>
      <trkpt lat="47.0926" lon="5.26009">
        <ele>180.10059</ele>
        <time>2026-05-14T16:23:05+02:00</time>
      </trkpt>
      <trkpt lat="47.09266" lon="5.2601">
        <ele>180.10059</ele>
        <time>2026-05-14T16:23:06+02:00</time>
      </trkpt>
      <trkpt lat="47.09271" lon="5.26012">
        <ele>180.10059</ele>
        <time>2026-05-14T16:23:07+02:00</time>
      </trkpt>
      <trkpt lat="47.09277" lon="5.26013">
        <ele>180.10059</ele>
        <time>2026-05-14T16:23:08+02:00</time>
      </trkpt>
      <trkpt lat="47.09283" lon="5.26014">
        <ele>180.2002</ele>
        <time>2026-05-14T16:23:09+02:00</time>
      </trkpt>
      <trkpt lat="47.09289" lon="5.26016">
        <ele>180.2002</ele>
        <time>2026-05-14T16:23:10+02:00</time>
      </trkpt>
      <trkpt lat="47.09295" lon="5.26017">
        <ele>180.2002</ele>
        <time>2026-05-14T16:23:11+02:00</time>
      </trkpt>
      <trkpt lat="47.093" lon="5.26018">
        <ele>180.2002</ele>
        <time>2026-05-14T16:23:12+02:00</time>
      </trkpt>
      <trkpt lat="47.09306" lon="5.2602">
        <ele>180.2002</ele>
        <time>2026-05-14T16:23:13+02:00</time>
      </trkpt>
      <trkpt lat="47.09312" lon="5.26021">
        <ele>180.2002</ele>
        <time>2026-05-14T16:23:14+02:00</time>
      </trkpt>
      <trkpt lat="47.09318" lon="5.26023">
        <ele>180.2002</ele>
        <time>2026-05-14T16:23:15+02:00</time>
      </trkpt>
      <trkpt lat="47.09323" lon="5.26024">
        <ele>180.2002</ele>
        <time>2026-05-14T16:23:16+02:00</time>
      </trkpt>
      <trkpt lat="47.09329" lon="5.26026">
        <ele>180.10059</ele>
        <time>2026-05-14T16:23:17+02:00</time>
      </trkpt>
      <trkpt lat="47.09335" lon="5.26027">
        <ele>180.10059</ele>
        <time>2026-05-14T16:23:18+02:00</time>
      </trkpt>
      <trkpt lat="47.09341" lon="5.26029">
        <ele>180.10059</ele>
        <time>2026-05-14T16:23:19+02:00</time>
      </trkpt>
      <trkpt lat="47.09347" lon="5.2603">
        <ele>180.10059</ele>
        <time>2026-05-14T16:23:20+02:00</time>
      </trkpt>
      <trkpt lat="47.09353" lon="5.26032">
        <ele>180</ele>
        <time>2026-05-14T16:23:21+02:00</time>
      </trkpt>
      <trkpt lat="47.09359" lon="5.26034">
        <ele>180</ele>
        <time>2026-05-14T16:23:22+02:00</time>
      </trkpt>
      <trkpt lat="47.09365" lon="5.26035">
        <ele>180</ele>
        <time>2026-05-14T16:23:23+02:00</time>
      </trkpt>
      <trkpt lat="47.09371" lon="5.26037">
        <ele>179.90039</ele>
        <time>2026-05-14T16:23:24+02:00</time>
      </trkpt>
      <trkpt lat="47.09377" lon="5.26038">
        <ele>179.90039</ele>
        <time>2026-05-14T16:23:25+02:00</time>
      </trkpt>
      <trkpt lat="47.09383" lon="5.2604">
        <ele>179.7998</ele>
        <time>2026-05-14T16:23:26+02:00</time>
      </trkpt>
      <trkpt lat="47.094" lon="5.26044">
        <ele>179.7002</ele>
        <time>2026-05-14T16:23:27+02:00</time>
      </trkpt>
      <trkpt lat="47.09406" lon="5.26045">
        <ele>179.7002</ele>
        <time>2026-05-14T16:23:28+02:00</time>
      </trkpt>
      <trkpt lat="47.09412" lon="5.26047">
        <ele>179.7002</ele>
        <time>2026-05-14T16:23:29+02:00</time>
      </trkpt>
      <trkpt lat="47.09418" lon="5.26048">
        <ele>179.60059</ele>
        <time>2026-05-14T16:23:30+02:00</time>
      </trkpt>
      <trkpt lat="47.09424" lon="5.26049">
        <ele>179.60059</ele>
        <time>2026-05-14T16:23:31+02:00</time>
      </trkpt>
      <trkpt lat="47.09429" lon="5.26051">
        <ele>179.7002</ele>
        <time>2026-05-14T16:23:32+02:00</time>
      </trkpt>
      <trkpt lat="47.09435" lon="5.26052">
        <ele>179.7002</ele>
        <time>2026-05-14T16:23:33+02:00</time>
      </trkpt>
      <trkpt lat="47.09441" lon="5.26054">
        <ele>179.7002</ele>
        <time>2026-05-14T16:23:34+02:00</time>
      </trkpt>
      <trkpt lat="47.09447" lon="5.26055">
        <ele>179.7998</ele>
        <time>2026-05-14T16:23:35+02:00</time>
      </trkpt>
      <trkpt lat="47.09453" lon="5.26057">
        <ele>179.7998</ele>
        <time>2026-05-14T16:23:36+02:00</time>
      </trkpt>
      <trkpt lat="47.09459" lon="5.26058">
        <ele>179.7998</ele>
        <time>2026-05-14T16:23:37+02:00</time>
      </trkpt>
      <trkpt lat="47.09465" lon="5.2606">
        <ele>179.90039</ele>
        <time>2026-05-14T16:23:38+02:00</time>
      </trkpt>
      <trkpt lat="47.0947" lon="5.26061">
        <ele>179.90039</ele>
        <time>2026-05-14T16:23:39+02:00</time>
      </trkpt>
      <trkpt lat="47.09476" lon="5.26063">
        <ele>180</ele>
        <time>2026-05-14T16:23:40+02:00</time>
      </trkpt>
      <trkpt lat="47.09482" lon="5.26064">
        <ele>180</ele>
        <time>2026-05-14T16:23:41+02:00</time>
      </trkpt>
      <trkpt lat="47.09487" lon="5.26065">
        <ele>180</ele>
        <time>2026-05-14T16:23:42+02:00</time>
      </trkpt>
      <trkpt lat="47.09493" lon="5.26067">
        <ele>180.10059</ele>
        <time>2026-05-14T16:23:43+02:00</time>
      </trkpt>
      <trkpt lat="47.09498" lon="5.26068">
        <ele>180.10059</ele>
        <time>2026-05-14T16:23:44+02:00</time>
      </trkpt>
      <trkpt lat="47.09504" lon="5.26069">
        <ele>180.10059</ele>
        <time>2026-05-14T16:23:45+02:00</time>
      </trkpt>
      <trkpt lat="47.0951" lon="5.2607">
        <ele>180.2002</ele>
        <time>2026-05-14T16:23:46+02:00</time>
      </trkpt>
      <trkpt lat="47.09516" lon="5.26072">
        <ele>180.2002</ele>
        <time>2026-05-14T16:23:47+02:00</time>
      </trkpt>
      <trkpt lat="47.09521" lon="5.26073">
        <ele>180.2002</ele>
        <time>2026-05-14T16:23:48+02:00</time>
      </trkpt>
      <trkpt lat="47.09526" lon="5.26074">
        <ele>180.2002</ele>
        <time>2026-05-14T16:23:49+02:00</time>
      </trkpt>
      <trkpt lat="47.09532" lon="5.26074">
        <ele>180.2002</ele>
        <time>2026-05-14T16:23:50+02:00</time>
      </trkpt>
      <trkpt lat="47.09536" lon="5.26076">
        <ele>180.2002</ele>
        <time>2026-05-14T16:23:51+02:00</time>
      </trkpt>
      <trkpt lat="47.09541" lon="5.26076">
        <ele>180.2002</ele>
        <time>2026-05-14T16:23:52+02:00</time>
      </trkpt>
      <trkpt lat="47.09546" lon="5.26078">
        <ele>180.2002</ele>
        <time>2026-05-14T16:23:53+02:00</time>
      </trkpt>
      <trkpt lat="47.09549" lon="5.2608">
        <ele>180.2002</ele>
        <time>2026-05-14T16:23:54+02:00</time>
      </trkpt>
      <trkpt lat="47.09553" lon="5.26083">
        <ele>180.2002</ele>
        <time>2026-05-14T16:23:55+02:00</time>
      </trkpt>
      <trkpt lat="47.09558" lon="5.26084">
        <ele>180.2002</ele>
        <time>2026-05-14T16:23:56+02:00</time>
      </trkpt>
      <trkpt lat="47.09562" lon="5.26084">
        <ele>180.2002</ele>
        <time>2026-05-14T16:23:57+02:00</time>
      </trkpt>
      <trkpt lat="47.09567" lon="5.26085">
        <ele>180.2002</ele>
        <time>2026-05-14T16:23:58+02:00</time>
      </trkpt>
      <trkpt lat="47.09572" lon="5.26086">
        <ele>180.2002</ele>
        <time>2026-05-14T16:23:59+02:00</time>
      </trkpt>
      <trkpt lat="47.09577" lon="5.26087">
        <ele>180.2002</ele>
        <time>2026-05-14T16:24:00+02:00</time>
      </trkpt>
      <trkpt lat="47.09582" lon="5.26088">
        <ele>180.2002</ele>
        <time>2026-05-14T16:24:01+02:00</time>
      </trkpt>
      <trkpt lat="47.09588" lon="5.2609">
        <ele>180.2002</ele>
        <time>2026-05-14T16:24:02+02:00</time>
      </trkpt>
      <trkpt lat="47.09593" lon="5.26091">
        <ele>180.2002</ele>
        <time>2026-05-14T16:24:03+02:00</time>
      </trkpt>
      <trkpt lat="47.09598" lon="5.26093">
        <ele>180.2002</ele>
        <time>2026-05-14T16:24:04+02:00</time>
      </trkpt>
      <trkpt lat="47.09603" lon="5.26094">
        <ele>180.2002</ele>
        <time>2026-05-14T16:24:05+02:00</time>
      </trkpt>
      <trkpt lat="47.09608" lon="5.26096">
        <ele>180.2002</ele>
        <time>2026-05-14T16:24:06+02:00</time>
      </trkpt>
      <trkpt lat="47.09614" lon="5.26097">
        <ele>180.2002</ele>
        <time>2026-05-14T16:24:07+02:00</time>
      </trkpt>
      <trkpt lat="47.09619" lon="5.26098">
        <ele>180.2002</ele>
        <time>2026-05-14T16:24:08+02:00</time>
      </trkpt>
      <trkpt lat="47.09624" lon="5.261">
        <ele>180.2002</ele>
        <time>2026-05-14T16:24:09+02:00</time>
      </trkpt>
      <trkpt lat="47.09629" lon="5.26101">
        <ele>180.2002</ele>
        <time>2026-05-14T16:24:10+02:00</time>
      </trkpt>
      <trkpt lat="47.09634" lon="5.26103">
        <ele>180.2002</ele>
        <time>2026-05-14T16:24:11+02:00</time>
      </trkpt>
      <trkpt lat="47.09639" lon="5.26104">
        <ele>180.2002</ele>
        <time>2026-05-14T16:24:12+02:00</time>
      </trkpt>
      <trkpt lat="47.09644" lon="5.26105">
        <ele>180.2002</ele>
        <time>2026-05-14T16:24:13+02:00</time>
      </trkpt>
      <trkpt lat="47.09648" lon="5.26107">
        <ele>180.2998</ele>
        <time>2026-05-14T16:24:14+02:00</time>
      </trkpt>
      <trkpt lat="47.09653" lon="5.26108">
        <ele>180.2998</ele>
        <time>2026-05-14T16:24:15+02:00</time>
      </trkpt>
      <trkpt lat="47.09657" lon="5.26109">
        <ele>180.2998</ele>
        <time>2026-05-14T16:24:16+02:00</time>
      </trkpt>
      <trkpt lat="47.09662" lon="5.2611">
        <ele>180.40039</ele>
        <time>2026-05-14T16:24:17+02:00</time>
      </trkpt>
      <trkpt lat="47.09666" lon="5.26111">
        <ele>180.5</ele>
        <time>2026-05-14T16:24:18+02:00</time>
      </trkpt>
      <trkpt lat="47.0967" lon="5.26112">
        <ele>180.5</ele>
        <time>2026-05-14T16:24:19+02:00</time>
      </trkpt>
      <trkpt lat="47.09675" lon="5.26113">
        <ele>180.60059</ele>
        <time>2026-05-14T16:24:20+02:00</time>
      </trkpt>
      <trkpt lat="47.09679" lon="5.26114">
        <ele>180.7002</ele>
        <time>2026-05-14T16:24:21+02:00</time>
      </trkpt>
      <trkpt lat="47.09683" lon="5.26116">
        <ele>180.7002</ele>
        <time>2026-05-14T16:24:22+02:00</time>
      </trkpt>
      <trkpt lat="47.09688" lon="5.26117">
        <ele>180.7998</ele>
        <time>2026-05-14T16:24:23+02:00</time>
      </trkpt>
      <trkpt lat="47.09693" lon="5.26118">
        <ele>180.90039</ele>
        <time>2026-05-14T16:24:24+02:00</time>
      </trkpt>
      <trkpt lat="47.09697" lon="5.26119">
        <ele>181</ele>
        <time>2026-05-14T16:24:25+02:00</time>
      </trkpt>
      <trkpt lat="47.09702" lon="5.2612">
        <ele>181.2002</ele>
        <time>2026-05-14T16:24:26+02:00</time>
      </trkpt>
      <trkpt lat="47.09706" lon="5.26121">
        <ele>181.2002</ele>
        <time>2026-05-14T16:24:27+02:00</time>
      </trkpt>
      <trkpt lat="47.09711" lon="5.26123">
        <ele>181.40039</ele>
        <time>2026-05-14T16:24:28+02:00</time>
      </trkpt>
      <trkpt lat="47.09716" lon="5.26124">
        <ele>181.5</ele>
        <time>2026-05-14T16:24:29+02:00</time>
      </trkpt>
      <trkpt lat="47.09721" lon="5.26126">
        <ele>181.7002</ele>
        <time>2026-05-14T16:24:30+02:00</time>
      </trkpt>
      <trkpt lat="47.09726" lon="5.26127">
        <ele>181.90039</ele>
        <time>2026-05-14T16:24:31+02:00</time>
      </trkpt>
      <trkpt lat="47.09732" lon="5.26128">
        <ele>182</ele>
        <time>2026-05-14T16:24:32+02:00</time>
      </trkpt>
      <trkpt lat="47.09738" lon="5.2613">
        <ele>182.2002</ele>
        <time>2026-05-14T16:24:33+02:00</time>
      </trkpt>
      <trkpt lat="47.09743" lon="5.26132">
        <ele>182.40039</ele>
        <time>2026-05-14T16:24:34+02:00</time>
      </trkpt>
      <trkpt lat="47.09749" lon="5.26133">
        <ele>182.5</ele>
        <time>2026-05-14T16:24:35+02:00</time>
      </trkpt>
      <trkpt lat="47.09754" lon="5.26135">
        <ele>182.5</ele>
        <time>2026-05-14T16:24:36+02:00</time>
      </trkpt>
      <trkpt lat="47.0976" lon="5.26136">
        <ele>182.60059</ele>
        <time>2026-05-14T16:24:37+02:00</time>
      </trkpt>
      <trkpt lat="47.09765" lon="5.26137">
        <ele>182.60059</ele>
        <time>2026-05-14T16:24:38+02:00</time>
      </trkpt>
      <trkpt lat="47.09771" lon="5.26138">
        <ele>182.7998</ele>
        <time>2026-05-14T16:24:39+02:00</time>
      </trkpt>
      <trkpt lat="47.09776" lon="5.2614">
        <ele>182.7998</ele>
        <time>2026-05-14T16:24:40+02:00</time>
      </trkpt>
      <trkpt lat="47.09782" lon="5.26141">
        <ele>182.90039</ele>
        <time>2026-05-14T16:24:41+02:00</time>
      </trkpt>
      <trkpt lat="47.09787" lon="5.26142">
        <ele>183</ele>
        <time>2026-05-14T16:24:42+02:00</time>
      </trkpt>
      <trkpt lat="47.09792" lon="5.26143">
        <ele>182.90039</ele>
        <time>2026-05-14T16:24:43+02:00</time>
      </trkpt>
      <trkpt lat="47.09798" lon="5.26144">
        <ele>183</ele>
        <time>2026-05-14T16:24:44+02:00</time>
      </trkpt>
      <trkpt lat="47.09803" lon="5.26145">
        <ele>183.10059</ele>
        <time>2026-05-14T16:24:45+02:00</time>
      </trkpt>
      <trkpt lat="47.09808" lon="5.26147">
        <ele>183.10059</ele>
        <time>2026-05-14T16:24:46+02:00</time>
      </trkpt>
      <trkpt lat="47.09813" lon="5.26148">
        <ele>183.2002</ele>
        <time>2026-05-14T16:24:47+02:00</time>
      </trkpt>
      <trkpt lat="47.09818" lon="5.2615">
        <ele>183.2998</ele>
        <time>2026-05-14T16:24:48+02:00</time>
      </trkpt>
      <trkpt lat="47.09823" lon="5.26151">
        <ele>183.2002</ele>
        <time>2026-05-14T16:24:49+02:00</time>
      </trkpt>
      <trkpt lat="47.09828" lon="5.26152">
        <ele>183.2002</ele>
        <time>2026-05-14T16:24:50+02:00</time>
      </trkpt>
      <trkpt lat="47.09832" lon="5.26153">
        <ele>183.2998</ele>
        <time>2026-05-14T16:24:51+02:00</time>
      </trkpt>
      <trkpt lat="47.09836" lon="5.26153">
        <ele>183.40039</ele>
        <time>2026-05-14T16:24:52+02:00</time>
      </trkpt>
      <trkpt lat="47.09841" lon="5.26154">
        <ele>183.40039</ele>
        <time>2026-05-14T16:24:53+02:00</time>
      </trkpt>
      <trkpt lat="47.09845" lon="5.26155">
        <ele>183.40039</ele>
        <time>2026-05-14T16:24:54+02:00</time>
      </trkpt>
      <trkpt lat="47.09849" lon="5.26156">
        <ele>183.5</ele>
        <time>2026-05-14T16:24:55+02:00</time>
      </trkpt>
      <trkpt lat="47.09853" lon="5.26157">
        <ele>183.5</ele>
        <time>2026-05-14T16:24:56+02:00</time>
      </trkpt>
      <trkpt lat="47.09858" lon="5.26158">
        <ele>183.5</ele>
        <time>2026-05-14T16:24:57+02:00</time>
      </trkpt>
      <trkpt lat="47.09863" lon="5.26159">
        <ele>183.60059</ele>
        <time>2026-05-14T16:24:58+02:00</time>
      </trkpt>
      <trkpt lat="47.09868" lon="5.2616">
        <ele>183.7002</ele>
        <time>2026-05-14T16:24:59+02:00</time>
      </trkpt>
      <trkpt lat="47.09873" lon="5.2616">
        <ele>183.7998</ele>
        <time>2026-05-14T16:25:00+02:00</time>
      </trkpt>
      <trkpt lat="47.09878" lon="5.26161">
        <ele>183.7998</ele>
        <time>2026-05-14T16:25:01+02:00</time>
      </trkpt>
      <trkpt lat="47.09882" lon="5.26162">
        <ele>183.90039</ele>
        <time>2026-05-14T16:25:02+02:00</time>
      </trkpt>
      <trkpt lat="47.09887" lon="5.26163">
        <ele>183.90039</ele>
        <time>2026-05-14T16:25:03+02:00</time>
      </trkpt>
      <trkpt lat="47.09892" lon="5.26164">
        <ele>183.90039</ele>
        <time>2026-05-14T16:25:04+02:00</time>
      </trkpt>
      <trkpt lat="47.09897" lon="5.26165">
        <ele>183.7998</ele>
        <time>2026-05-14T16:25:05+02:00</time>
      </trkpt>
      <trkpt lat="47.09901" lon="5.26166">
        <ele>183.7002</ele>
        <time>2026-05-14T16:25:06+02:00</time>
      </trkpt>
      <trkpt lat="47.09906" lon="5.26167">
        <ele>183.5</ele>
        <time>2026-05-14T16:25:07+02:00</time>
      </trkpt>
      <trkpt lat="47.09911" lon="5.26168">
        <ele>183.60059</ele>
        <time>2026-05-14T16:25:08+02:00</time>
      </trkpt>
      <trkpt lat="47.09916" lon="5.2617">
        <ele>183.2998</ele>
        <time>2026-05-14T16:25:09+02:00</time>
      </trkpt>
      <trkpt lat="47.09921" lon="5.26172">
        <ele>183</ele>
        <time>2026-05-14T16:25:10+02:00</time>
      </trkpt>
      <trkpt lat="47.09926" lon="5.26173">
        <ele>182.60059</ele>
        <time>2026-05-14T16:25:11+02:00</time>
      </trkpt>
      <trkpt lat="47.09931" lon="5.26175">
        <ele>182.10059</ele>
        <time>2026-05-14T16:25:12+02:00</time>
      </trkpt>
      <trkpt lat="47.09935" lon="5.26176">
        <ele>181.60059</ele>
        <time>2026-05-14T16:25:13+02:00</time>
      </trkpt>
      <trkpt lat="47.0994" lon="5.26178">
        <ele>181.60059</ele>
        <time>2026-05-14T16:25:14+02:00</time>
      </trkpt>
      <trkpt lat="47.09945" lon="5.2618">
        <ele>181.2002</ele>
        <time>2026-05-14T16:25:15+02:00</time>
      </trkpt>
      <trkpt lat="47.09949" lon="5.26181">
        <ele>180.7998</ele>
        <time>2026-05-14T16:25:16+02:00</time>
      </trkpt>
      <trkpt lat="47.09953" lon="5.26182">
        <ele>180.5</ele>
        <time>2026-05-14T16:25:17+02:00</time>
      </trkpt>
      <trkpt lat="47.09957" lon="5.26183">
        <ele>180.5</ele>
        <time>2026-05-14T16:25:18+02:00</time>
      </trkpt>
      <trkpt lat="47.09962" lon="5.26185">
        <ele>180.2002</ele>
        <time>2026-05-14T16:25:19+02:00</time>
      </trkpt>
      <trkpt lat="47.09966" lon="5.26187">
        <ele>179.7998</ele>
        <time>2026-05-14T16:25:20+02:00</time>
      </trkpt>
      <trkpt lat="47.09969" lon="5.26189">
        <ele>179.7998</ele>
        <time>2026-05-14T16:25:21+02:00</time>
      </trkpt>
      <trkpt lat="47.09972" lon="5.26193">
        <ele>179.40039</ele>
        <time>2026-05-14T16:25:22+02:00</time>
      </trkpt>
      <trkpt lat="47.09973" lon="5.26197">
        <ele>179.40039</ele>
        <time>2026-05-14T16:25:23+02:00</time>
      </trkpt>
      <trkpt lat="47.09974" lon="5.262">
        <ele>179.40039</ele>
        <time>2026-05-14T16:25:24+02:00</time>
      </trkpt>
      <trkpt lat="47.09975" lon="5.26204">
        <ele>179.40039</ele>
        <time>2026-05-14T16:25:25+02:00</time>
      </trkpt>
      <trkpt lat="47.09974" lon="5.26209">
        <ele>179.40039</ele>
        <time>2026-05-14T16:25:26+02:00</time>
      </trkpt>
      <trkpt lat="47.09974" lon="5.26214">
        <ele>179.2998</ele>
        <time>2026-05-14T16:25:27+02:00</time>
      </trkpt>
      <trkpt lat="47.09974" lon="5.26219">
        <ele>179.2998</ele>
        <time>2026-05-14T16:25:28+02:00</time>
      </trkpt>
      <trkpt lat="47.09974" lon="5.26224">
        <ele>179.2998</ele>
        <time>2026-05-14T16:25:29+02:00</time>
      </trkpt>
      <trkpt lat="47.09974" lon="5.26229">
        <ele>179.2998</ele>
        <time>2026-05-14T16:25:30+02:00</time>
      </trkpt>
      <trkpt lat="47.09974" lon="5.26235">
        <ele>179.2998</ele>
        <time>2026-05-14T16:25:31+02:00</time>
      </trkpt>
      <trkpt lat="47.09974" lon="5.26241">
        <ele>179.40039</ele>
        <time>2026-05-14T16:25:32+02:00</time>
      </trkpt>
      <trkpt lat="47.09974" lon="5.26247">
        <ele>179.5</ele>
        <time>2026-05-14T16:25:33+02:00</time>
      </trkpt>
      <trkpt lat="47.09974" lon="5.26252">
        <ele>179.5</ele>
        <time>2026-05-14T16:25:34+02:00</time>
      </trkpt>
      <trkpt lat="47.09974" lon="5.26258">
        <ele>179.7002</ele>
        <time>2026-05-14T16:25:35+02:00</time>
      </trkpt>
      <trkpt lat="47.09973" lon="5.26263">
        <ele>179.90039</ele>
        <time>2026-05-14T16:25:36+02:00</time>
      </trkpt>
      <trkpt lat="47.09973" lon="5.26268">
        <ele>179.90039</ele>
        <time>2026-05-14T16:25:37+02:00</time>
      </trkpt>
      <trkpt lat="47.09973" lon="5.26273">
        <ele>180.10059</ele>
        <time>2026-05-14T16:25:38+02:00</time>
      </trkpt>
      <trkpt lat="47.09972" lon="5.26278">
        <ele>180.10059</ele>
        <time>2026-05-14T16:25:39+02:00</time>
      </trkpt>
      <trkpt lat="47.09972" lon="5.26281">
        <ele>180.40039</ele>
        <time>2026-05-14T16:25:40+02:00</time>
      </trkpt>
      <trkpt lat="47.09971" lon="5.26284">
        <ele>180.40039</ele>
        <time>2026-05-14T16:25:41+02:00</time>
      </trkpt>
      <trkpt lat="47.09971" lon="5.26285">
        <ele>180.40039</ele>
        <time>2026-05-14T16:25:42+02:00</time>
      </trkpt>
      <trkpt lat="47.09971" lon="5.26285">
        <ele>180.40039</ele>
        <time>2026-05-14T16:25:43+02:00</time>
      </trkpt>
      <trkpt lat="47.09971" lon="5.26285">
        <ele>180.40039</ele>
        <time>2026-05-14T16:25:44+02:00</time>
      </trkpt>
      <trkpt lat="47.09971" lon="5.26285">
        <ele>180.40039</ele>
        <time>2026-05-14T16:25:45+02:00</time>
      </trkpt>
      <trkpt lat="47.09981" lon="5.26301">
        <ele>179.7998</ele>
        <time>2026-05-14T16:26:00+02:00</time>
      </trkpt>
      <trkpt lat="47.09984" lon="5.26301">
        <ele>179.7998</ele>
        <time>2026-05-14T16:26:01+02:00</time>
      </trkpt>
      <trkpt lat="47.09988" lon="5.26302">
        <ele>179.2998</ele>
        <time>2026-05-14T16:26:02+02:00</time>
      </trkpt>
      <trkpt lat="47.09991" lon="5.26303">
        <ele>179.2998</ele>
        <time>2026-05-14T16:26:03+02:00</time>
      </trkpt>
      <trkpt lat="47.09995" lon="5.26303">
        <ele>178.90039</ele>
        <time>2026-05-14T16:26:04+02:00</time>
      </trkpt>
      <trkpt lat="47.09998" lon="5.26304">
        <ele>178.90039</ele>
        <time>2026-05-14T16:26:05+02:00</time>
      </trkpt>
      <trkpt lat="47.10002" lon="5.26305">
        <ele>178.60059</ele>
        <time>2026-05-14T16:26:06+02:00</time>
      </trkpt>
      <trkpt lat="47.10006" lon="5.26305">
        <ele>178.40039</ele>
        <time>2026-05-14T16:26:07+02:00</time>
      </trkpt>
      <trkpt lat="47.1001" lon="5.26305">
        <ele>178.40039</ele>
        <time>2026-05-14T16:26:08+02:00</time>
      </trkpt>
      <trkpt lat="47.10014" lon="5.26306">
        <ele>178.2998</ele>
        <time>2026-05-14T16:26:09+02:00</time>
      </trkpt>
      <trkpt lat="47.10018" lon="5.26306">
        <ele>178.2002</ele>
        <time>2026-05-14T16:26:10+02:00</time>
      </trkpt>
      <trkpt lat="47.10022" lon="5.26307">
        <ele>178.2002</ele>
        <time>2026-05-14T16:26:11+02:00</time>
      </trkpt>
      <trkpt lat="47.10027" lon="5.26308">
        <ele>178.2002</ele>
        <time>2026-05-14T16:26:12+02:00</time>
      </trkpt>
      <trkpt lat="47.10031" lon="5.26308">
        <ele>178.10059</ele>
        <time>2026-05-14T16:26:13+02:00</time>
      </trkpt>
      <trkpt lat="47.10036" lon="5.26309">
        <ele>178.10059</ele>
        <time>2026-05-14T16:26:14+02:00</time>
      </trkpt>
      <trkpt lat="47.1004" lon="5.26309">
        <ele>178.10059</ele>
        <time>2026-05-14T16:26:15+02:00</time>
      </trkpt>
      <trkpt lat="47.10045" lon="5.26309">
        <ele>178.10059</ele>
        <time>2026-05-14T16:26:16+02:00</time>
      </trkpt>
      <trkpt lat="47.10049" lon="5.2631">
        <ele>178.10059</ele>
        <time>2026-05-14T16:26:17+02:00</time>
      </trkpt>
      <trkpt lat="47.10054" lon="5.26311">
        <ele>178.10059</ele>
        <time>2026-05-14T16:26:18+02:00</time>
      </trkpt>
      <trkpt lat="47.10058" lon="5.26311">
        <ele>178.10059</ele>
        <time>2026-05-14T16:26:19+02:00</time>
      </trkpt>
      <trkpt lat="47.10063" lon="5.26312">
        <ele>178.10059</ele>
        <time>2026-05-14T16:26:20+02:00</time>
      </trkpt>
      <trkpt lat="47.10067" lon="5.26312">
        <ele>178.10059</ele>
        <time>2026-05-14T16:26:21+02:00</time>
      </trkpt>
      <trkpt lat="47.10072" lon="5.26312">
        <ele>178.10059</ele>
        <time>2026-05-14T16:26:22+02:00</time>
      </trkpt>
      <trkpt lat="47.10076" lon="5.26313">
        <ele>178.10059</ele>
        <time>2026-05-14T16:26:23+02:00</time>
      </trkpt>
      <trkpt lat="47.10081" lon="5.26314">
        <ele>178.10059</ele>
        <time>2026-05-14T16:26:24+02:00</time>
      </trkpt>
      <trkpt lat="47.10085" lon="5.26314">
        <ele>178.10059</ele>
        <time>2026-05-14T16:26:25+02:00</time>
      </trkpt>
      <trkpt lat="47.1009" lon="5.26314">
        <ele>178.10059</ele>
        <time>2026-05-14T16:26:26+02:00</time>
      </trkpt>
      <trkpt lat="47.10095" lon="5.26314">
        <ele>178.10059</ele>
        <time>2026-05-14T16:26:27+02:00</time>
      </trkpt>
      <trkpt lat="47.101" lon="5.26315">
        <ele>178.10059</ele>
        <time>2026-05-14T16:26:28+02:00</time>
      </trkpt>
      <trkpt lat="47.10106" lon="5.26316">
        <ele>178.10059</ele>
        <time>2026-05-14T16:26:29+02:00</time>
      </trkpt>
      <trkpt lat="47.1011" lon="5.26317">
        <ele>178.10059</ele>
        <time>2026-05-14T16:26:30+02:00</time>
      </trkpt>
      <trkpt lat="47.10114" lon="5.26318">
        <ele>178.10059</ele>
        <time>2026-05-14T16:26:31+02:00</time>
      </trkpt>
      <trkpt lat="47.10117" lon="5.26318">
        <ele>178</ele>
        <time>2026-05-14T16:26:32+02:00</time>
      </trkpt>
      <trkpt lat="47.10121" lon="5.26318">
        <ele>178</ele>
        <time>2026-05-14T16:26:33+02:00</time>
      </trkpt>
      <trkpt lat="47.10124" lon="5.26318">
        <ele>178</ele>
        <time>2026-05-14T16:26:34+02:00</time>
      </trkpt>
      <trkpt lat="47.10126" lon="5.2632">
        <ele>178</ele>
        <time>2026-05-14T16:26:35+02:00</time>
      </trkpt>
      <trkpt lat="47.10128" lon="5.26324">
        <ele>178.10059</ele>
        <time>2026-05-14T16:26:36+02:00</time>
      </trkpt>
      <trkpt lat="47.10128" lon="5.26328">
        <ele>178.10059</ele>
        <time>2026-05-14T16:26:37+02:00</time>
      </trkpt>
      <trkpt lat="47.10127" lon="5.26332">
        <ele>178</ele>
        <time>2026-05-14T16:26:38+02:00</time>
      </trkpt>
      <trkpt lat="47.10127" lon="5.26338">
        <ele>178</ele>
        <time>2026-05-14T16:26:39+02:00</time>
      </trkpt>
      <trkpt lat="47.10126" lon="5.26343">
        <ele>178</ele>
        <time>2026-05-14T16:26:40+02:00</time>
      </trkpt>
      <trkpt lat="47.10125" lon="5.26349">
        <ele>177.90039</ele>
        <time>2026-05-14T16:26:41+02:00</time>
      </trkpt>
      <trkpt lat="47.10124" lon="5.26356">
        <ele>177.90039</ele>
        <time>2026-05-14T16:26:42+02:00</time>
      </trkpt>
      <trkpt lat="47.10124" lon="5.26363">
        <ele>177.90039</ele>
        <time>2026-05-14T16:26:43+02:00</time>
      </trkpt>
      <trkpt lat="47.10123" lon="5.2637">
        <ele>177.90039</ele>
        <time>2026-05-14T16:26:44+02:00</time>
      </trkpt>
      <trkpt lat="47.10122" lon="5.26377">
        <ele>177.90039</ele>
        <time>2026-05-14T16:26:45+02:00</time>
      </trkpt>
      <trkpt lat="47.10121" lon="5.26384">
        <ele>178</ele>
        <time>2026-05-14T16:26:46+02:00</time>
      </trkpt>
      <trkpt lat="47.10121" lon="5.26392">
        <ele>178</ele>
        <time>2026-05-14T16:26:47+02:00</time>
      </trkpt>
      <trkpt lat="47.1012" lon="5.264">
        <ele>178</ele>
        <time>2026-05-14T16:26:48+02:00</time>
      </trkpt>
      <trkpt lat="47.10119" lon="5.26409">
        <ele>178</ele>
        <time>2026-05-14T16:26:49+02:00</time>
      </trkpt>
      <trkpt lat="47.10118" lon="5.26417">
        <ele>178.10059</ele>
        <time>2026-05-14T16:26:50+02:00</time>
      </trkpt>
      <trkpt lat="47.10117" lon="5.26425">
        <ele>178.10059</ele>
        <time>2026-05-14T16:26:51+02:00</time>
      </trkpt>
      <trkpt lat="47.10116" lon="5.26432">
        <ele>178.2002</ele>
        <time>2026-05-14T16:26:52+02:00</time>
      </trkpt>
      <trkpt lat="47.10116" lon="5.26438">
        <ele>178.2998</ele>
        <time>2026-05-14T16:26:53+02:00</time>
      </trkpt>
      <trkpt lat="47.10115" lon="5.26443">
        <ele>178.10059</ele>
        <time>2026-05-14T16:26:54+02:00</time>
      </trkpt>
      <trkpt lat="47.10115" lon="5.26448">
        <ele>178.10059</ele>
        <time>2026-05-14T16:26:55+02:00</time>
      </trkpt>
      <trkpt lat="47.10114" lon="5.26453">
        <ele>178.10059</ele>
        <time>2026-05-14T16:26:56+02:00</time>
      </trkpt>
      <trkpt lat="47.10114" lon="5.26459">
        <ele>178.10059</ele>
        <time>2026-05-14T16:26:57+02:00</time>
      </trkpt>
      <trkpt lat="47.10113" lon="5.26465">
        <ele>178.10059</ele>
        <time>2026-05-14T16:26:58+02:00</time>
      </trkpt>
      <trkpt lat="47.10113" lon="5.26471">
        <ele>178.10059</ele>
        <time>2026-05-14T16:26:59+02:00</time>
      </trkpt>
      <trkpt lat="47.10112" lon="5.26478">
        <ele>178</ele>
        <time>2026-05-14T16:27:00+02:00</time>
      </trkpt>
      <trkpt lat="47.10111" lon="5.26485">
        <ele>178</ele>
        <time>2026-05-14T16:27:01+02:00</time>
      </trkpt>
      <trkpt lat="47.1011" lon="5.26492">
        <ele>178</ele>
        <time>2026-05-14T16:27:02+02:00</time>
      </trkpt>
      <trkpt lat="47.10109" lon="5.26499">
        <ele>177.90039</ele>
        <time>2026-05-14T16:27:03+02:00</time>
      </trkpt>
      <trkpt lat="47.10109" lon="5.26506">
        <ele>177.90039</ele>
        <time>2026-05-14T16:27:04+02:00</time>
      </trkpt>
      <trkpt lat="47.10108" lon="5.26513">
        <ele>177.90039</ele>
        <time>2026-05-14T16:27:05+02:00</time>
      </trkpt>
      <trkpt lat="47.10108" lon="5.26519">
        <ele>177.90039</ele>
        <time>2026-05-14T16:27:06+02:00</time>
      </trkpt>
      <trkpt lat="47.10108" lon="5.26525">
        <ele>177.90039</ele>
        <time>2026-05-14T16:27:07+02:00</time>
      </trkpt>
      <trkpt lat="47.10108" lon="5.26532">
        <ele>177.90039</ele>
        <time>2026-05-14T16:27:08+02:00</time>
      </trkpt>
      <trkpt lat="47.10107" lon="5.26538">
        <ele>177.90039</ele>
        <time>2026-05-14T16:27:09+02:00</time>
      </trkpt>
      <trkpt lat="47.10106" lon="5.26544">
        <ele>177.90039</ele>
        <time>2026-05-14T16:27:10+02:00</time>
      </trkpt>
      <trkpt lat="47.10105" lon="5.2655">
        <ele>177.90039</ele>
        <time>2026-05-14T16:27:11+02:00</time>
      </trkpt>
      <trkpt lat="47.10105" lon="5.26556">
        <ele>178.2002</ele>
        <time>2026-05-14T16:27:12+02:00</time>
      </trkpt>
      <trkpt lat="47.10104" lon="5.26562">
        <ele>178.2002</ele>
        <time>2026-05-14T16:27:13+02:00</time>
      </trkpt>
      <trkpt lat="47.10103" lon="5.26567">
        <ele>178.2002</ele>
        <time>2026-05-14T16:27:14+02:00</time>
      </trkpt>
      <trkpt lat="47.10103" lon="5.26573">
        <ele>178.2002</ele>
        <time>2026-05-14T16:27:15+02:00</time>
      </trkpt>
      <trkpt lat="47.10102" lon="5.26578">
        <ele>178.2002</ele>
        <time>2026-05-14T16:27:16+02:00</time>
      </trkpt>
      <trkpt lat="47.10101" lon="5.26583">
        <ele>178.2998</ele>
        <time>2026-05-14T16:27:17+02:00</time>
      </trkpt>
      <trkpt lat="47.10101" lon="5.26587">
        <ele>178.2998</ele>
        <time>2026-05-14T16:27:18+02:00</time>
      </trkpt>
      <trkpt lat="47.10101" lon="5.26589">
        <ele>178.2002</ele>
        <time>2026-05-14T16:27:19+02:00</time>
      </trkpt>
      <trkpt lat="47.10101" lon="5.26589">
        <ele>178.2002</ele>
        <time>2026-05-14T16:27:20+02:00</time>
      </trkpt>
      <trkpt lat="47.10101" lon="5.26589">
        <ele>178.2002</ele>
        <time>2026-05-14T16:27:21+02:00</time>
      </trkpt>
      <trkpt lat="47.10101" lon="5.26589">
        <ele>178.2002</ele>
        <time>2026-05-14T16:27:22+02:00</time>
      </trkpt>
      <trkpt lat="47.10101" lon="5.26589">
        <ele>178.2002</ele>
        <time>2026-05-14T16:27:23+02:00</time>
      </trkpt>
      <trkpt lat="47.10098" lon="5.26611">
        <ele>178</ele>
        <time>2026-05-14T16:27:39+02:00</time>
      </trkpt>
      <trkpt lat="47.10098" lon="5.26616">
        <ele>178</ele>
        <time>2026-05-14T16:27:40+02:00</time>
      </trkpt>
      <trkpt lat="47.10097" lon="5.26621">
        <ele>178</ele>
        <time>2026-05-14T16:27:41+02:00</time>
      </trkpt>
      <trkpt lat="47.10097" lon="5.26626">
        <ele>178</ele>
        <time>2026-05-14T16:27:42+02:00</time>
      </trkpt>
      <trkpt lat="47.10096" lon="5.26631">
        <ele>178</ele>
        <time>2026-05-14T16:27:43+02:00</time>
      </trkpt>
      <trkpt lat="47.10095" lon="5.26636">
        <ele>178</ele>
        <time>2026-05-14T16:27:44+02:00</time>
      </trkpt>
      <trkpt lat="47.10095" lon="5.26641">
        <ele>178</ele>
        <time>2026-05-14T16:27:45+02:00</time>
      </trkpt>
      <trkpt lat="47.10094" lon="5.26647">
        <ele>178</ele>
        <time>2026-05-14T16:27:46+02:00</time>
      </trkpt>
      <trkpt lat="47.10093" lon="5.26652">
        <ele>178</ele>
        <time>2026-05-14T16:27:47+02:00</time>
      </trkpt>
      <trkpt lat="47.10093" lon="5.26657">
        <ele>178</ele>
        <time>2026-05-14T16:27:48+02:00</time>
      </trkpt>
      <trkpt lat="47.10092" lon="5.26662">
        <ele>178</ele>
        <time>2026-05-14T16:27:49+02:00</time>
      </trkpt>
      <trkpt lat="47.10092" lon="5.26668">
        <ele>178</ele>
        <time>2026-05-14T16:27:50+02:00</time>
      </trkpt>
      <trkpt lat="47.10092" lon="5.26673">
        <ele>178</ele>
        <time>2026-05-14T16:27:51+02:00</time>
      </trkpt>
      <trkpt lat="47.10093" lon="5.26678">
        <ele>178</ele>
        <time>2026-05-14T16:27:52+02:00</time>
      </trkpt>
      <trkpt lat="47.10094" lon="5.26683">
        <ele>178</ele>
        <time>2026-05-14T16:27:53+02:00</time>
      </trkpt>
      <trkpt lat="47.10095" lon="5.26689">
        <ele>178</ele>
        <time>2026-05-14T16:27:54+02:00</time>
      </trkpt>
      <trkpt lat="47.10097" lon="5.26694">
        <ele>178</ele>
        <time>2026-05-14T16:27:55+02:00</time>
      </trkpt>
      <trkpt lat="47.10099" lon="5.26699">
        <ele>178.10059</ele>
        <time>2026-05-14T16:27:56+02:00</time>
      </trkpt>
      <trkpt lat="47.10101" lon="5.26703">
        <ele>178.10059</ele>
        <time>2026-05-14T16:27:57+02:00</time>
      </trkpt>
      <trkpt lat="47.10103" lon="5.26708">
        <ele>178.10059</ele>
        <time>2026-05-14T16:27:58+02:00</time>
      </trkpt>
      <trkpt lat="47.10104" lon="5.26713">
        <ele>178.2998</ele>
        <time>2026-05-14T16:27:59+02:00</time>
      </trkpt>
      <trkpt lat="47.10106" lon="5.26718">
        <ele>178.2998</ele>
        <time>2026-05-14T16:28:00+02:00</time>
      </trkpt>
      <trkpt lat="47.10107" lon="5.26724">
        <ele>178.2998</ele>
        <time>2026-05-14T16:28:01+02:00</time>
      </trkpt>
      <trkpt lat="47.10109" lon="5.26729">
        <ele>178.2002</ele>
        <time>2026-05-14T16:28:02+02:00</time>
      </trkpt>
      <trkpt lat="47.10111" lon="5.26734">
        <ele>178.7002</ele>
        <time>2026-05-14T16:28:03+02:00</time>
      </trkpt>
      <trkpt lat="47.10113" lon="5.2674">
        <ele>178.60059</ele>
        <time>2026-05-14T16:28:04+02:00</time>
      </trkpt>
      <trkpt lat="47.10114" lon="5.26746">
        <ele>178.60059</ele>
        <time>2026-05-14T16:28:05+02:00</time>
      </trkpt>
      <trkpt lat="47.10116" lon="5.26751">
        <ele>179.2002</ele>
        <time>2026-05-14T16:28:06+02:00</time>
      </trkpt>
      <trkpt lat="47.10118" lon="5.26757">
        <ele>179.10059</ele>
        <time>2026-05-14T16:28:07+02:00</time>
      </trkpt>
      <trkpt lat="47.10121" lon="5.26763">
        <ele>179</ele>
        <time>2026-05-14T16:28:08+02:00</time>
      </trkpt>
      <trkpt lat="47.10122" lon="5.2677">
        <ele>179.5</ele>
        <time>2026-05-14T16:28:09+02:00</time>
      </trkpt>
      <trkpt lat="47.10124" lon="5.26776">
        <ele>179.5</ele>
        <time>2026-05-14T16:28:10+02:00</time>
      </trkpt>
      <trkpt lat="47.10126" lon="5.26782">
        <ele>179.2002</ele>
        <time>2026-05-14T16:28:11+02:00</time>
      </trkpt>
      <trkpt lat="47.10129" lon="5.26789">
        <ele>179.10059</ele>
        <time>2026-05-14T16:28:12+02:00</time>
      </trkpt>
      <trkpt lat="47.1013" lon="5.26795">
        <ele>178.60059</ele>
        <time>2026-05-14T16:28:13+02:00</time>
      </trkpt>
      <trkpt lat="47.10133" lon="5.26801">
        <ele>178.60059</ele>
        <time>2026-05-14T16:28:14+02:00</time>
      </trkpt>
      <trkpt lat="47.10135" lon="5.26807">
        <ele>178.7002</ele>
        <time>2026-05-14T16:28:15+02:00</time>
      </trkpt>
      <trkpt lat="47.10137" lon="5.26813">
        <ele>178.5</ele>
        <time>2026-05-14T16:28:16+02:00</time>
      </trkpt>
      <trkpt lat="47.10138" lon="5.26819">
        <ele>178.5</ele>
        <time>2026-05-14T16:28:17+02:00</time>
      </trkpt>
      <trkpt lat="47.1014" lon="5.26825">
        <ele>179.10059</ele>
        <time>2026-05-14T16:28:18+02:00</time>
      </trkpt>
      <trkpt lat="47.10143" lon="5.26831">
        <ele>179</ele>
        <time>2026-05-14T16:28:19+02:00</time>
      </trkpt>
      <trkpt lat="47.10145" lon="5.26838">
        <ele>179.60059</ele>
        <time>2026-05-14T16:28:20+02:00</time>
      </trkpt>
      <trkpt lat="47.10147" lon="5.26844">
        <ele>179.60059</ele>
        <time>2026-05-14T16:28:21+02:00</time>
      </trkpt>
      <trkpt lat="47.10149" lon="5.2685">
        <ele>179.5</ele>
        <time>2026-05-14T16:28:22+02:00</time>
      </trkpt>
      <trkpt lat="47.10149" lon="5.26858">
        <ele>179.40039</ele>
        <time>2026-05-14T16:28:23+02:00</time>
      </trkpt>
      <trkpt lat="47.10148" lon="5.26865">
        <ele>179.2998</ele>
        <time>2026-05-14T16:28:24+02:00</time>
      </trkpt>
      <trkpt lat="47.10148" lon="5.26873">
        <ele>179.2002</ele>
        <time>2026-05-14T16:28:25+02:00</time>
      </trkpt>
      <trkpt lat="47.10147" lon="5.2688">
        <ele>179.2002</ele>
        <time>2026-05-14T16:28:26+02:00</time>
      </trkpt>
      <trkpt lat="47.10146" lon="5.26888">
        <ele>179.10059</ele>
        <time>2026-05-14T16:28:27+02:00</time>
      </trkpt>
      <trkpt lat="47.10145" lon="5.26895">
        <ele>179</ele>
        <time>2026-05-14T16:28:28+02:00</time>
      </trkpt>
      <trkpt lat="47.10145" lon="5.26902">
        <ele>178.90039</ele>
        <time>2026-05-14T16:28:29+02:00</time>
      </trkpt>
      <trkpt lat="47.10145" lon="5.26909">
        <ele>178.7002</ele>
        <time>2026-05-14T16:28:30+02:00</time>
      </trkpt>
      <trkpt lat="47.10145" lon="5.26916">
        <ele>178.40039</ele>
        <time>2026-05-14T16:28:31+02:00</time>
      </trkpt>
      <trkpt lat="47.10145" lon="5.26923">
        <ele>178.40039</ele>
        <time>2026-05-14T16:28:32+02:00</time>
      </trkpt>
      <trkpt lat="47.10146" lon="5.26931">
        <ele>178.2002</ele>
        <time>2026-05-14T16:28:33+02:00</time>
      </trkpt>
      <trkpt lat="47.10147" lon="5.26938">
        <ele>178</ele>
        <time>2026-05-14T16:28:34+02:00</time>
      </trkpt>
      <trkpt lat="47.10148" lon="5.26945">
        <ele>177.90039</ele>
        <time>2026-05-14T16:28:35+02:00</time>
      </trkpt>
      <trkpt lat="47.1015" lon="5.26951">
        <ele>178</ele>
        <time>2026-05-14T16:28:36+02:00</time>
      </trkpt>
      <trkpt lat="47.10151" lon="5.26958">
        <ele>178</ele>
        <time>2026-05-14T16:28:37+02:00</time>
      </trkpt>
      <trkpt lat="47.10153" lon="5.26964">
        <ele>178</ele>
        <time>2026-05-14T16:28:38+02:00</time>
      </trkpt>
      <trkpt lat="47.10155" lon="5.26972">
        <ele>178</ele>
        <time>2026-05-14T16:28:39+02:00</time>
      </trkpt>
      <trkpt lat="47.10157" lon="5.2698">
        <ele>178.10059</ele>
        <time>2026-05-14T16:28:40+02:00</time>
      </trkpt>
      <trkpt lat="47.10159" lon="5.26988">
        <ele>178.10059</ele>
        <time>2026-05-14T16:28:41+02:00</time>
      </trkpt>
      <trkpt lat="47.10161" lon="5.26995">
        <ele>178.10059</ele>
        <time>2026-05-14T16:28:42+02:00</time>
      </trkpt>
      <trkpt lat="47.10162" lon="5.27003">
        <ele>178.10059</ele>
        <time>2026-05-14T16:28:43+02:00</time>
      </trkpt>
      <trkpt lat="47.10164" lon="5.27012">
        <ele>178.2002</ele>
        <time>2026-05-14T16:28:44+02:00</time>
      </trkpt>
      <trkpt lat="47.10166" lon="5.2702">
        <ele>178.2002</ele>
        <time>2026-05-14T16:28:45+02:00</time>
      </trkpt>
      <trkpt lat="47.10168" lon="5.27027">
        <ele>178.5</ele>
        <time>2026-05-14T16:28:46+02:00</time>
      </trkpt>
      <trkpt lat="47.1017" lon="5.27035">
        <ele>178.5</ele>
        <time>2026-05-14T16:28:47+02:00</time>
      </trkpt>
      <trkpt lat="47.10172" lon="5.27042">
        <ele>178.5</ele>
        <time>2026-05-14T16:28:48+02:00</time>
      </trkpt>
      <trkpt lat="47.10174" lon="5.2705">
        <ele>178.7998</ele>
        <time>2026-05-14T16:28:49+02:00</time>
      </trkpt>
      <trkpt lat="47.10177" lon="5.27057">
        <ele>178.7998</ele>
        <time>2026-05-14T16:28:50+02:00</time>
      </trkpt>
      <trkpt lat="47.10179" lon="5.27065">
        <ele>178.7002</ele>
        <time>2026-05-14T16:28:51+02:00</time>
      </trkpt>
      <trkpt lat="47.10181" lon="5.27073">
        <ele>179.10059</ele>
        <time>2026-05-14T16:28:52+02:00</time>
      </trkpt>
      <trkpt lat="47.10183" lon="5.27081">
        <ele>179</ele>
        <time>2026-05-14T16:28:53+02:00</time>
      </trkpt>
      <trkpt lat="47.10186" lon="5.27089">
        <ele>179.40039</ele>
        <time>2026-05-14T16:28:54+02:00</time>
      </trkpt>
      <trkpt lat="47.10188" lon="5.27097">
        <ele>179.2998</ele>
        <time>2026-05-14T16:28:55+02:00</time>
      </trkpt>
      <trkpt lat="47.1019" lon="5.27106">
        <ele>179.2002</ele>
        <time>2026-05-14T16:28:56+02:00</time>
      </trkpt>
      <trkpt lat="47.10191" lon="5.27113">
        <ele>179.2002</ele>
        <time>2026-05-14T16:28:57+02:00</time>
      </trkpt>
      <trkpt lat="47.10191" lon="5.27121">
        <ele>179.10059</ele>
        <time>2026-05-14T16:28:58+02:00</time>
      </trkpt>
      <trkpt lat="47.10188" lon="5.27129">
        <ele>179.10059</ele>
        <time>2026-05-14T16:28:59+02:00</time>
      </trkpt>
      <trkpt lat="47.10186" lon="5.27135">
        <ele>179</ele>
        <time>2026-05-14T16:29:00+02:00</time>
      </trkpt>
      <trkpt lat="47.10183" lon="5.27142">
        <ele>178.7002</ele>
        <time>2026-05-14T16:29:01+02:00</time>
      </trkpt>
      <trkpt lat="47.1018" lon="5.27149">
        <ele>178.60059</ele>
        <time>2026-05-14T16:29:02+02:00</time>
      </trkpt>
      <trkpt lat="47.10178" lon="5.27155">
        <ele>178.2998</ele>
        <time>2026-05-14T16:29:03+02:00</time>
      </trkpt>
      <trkpt lat="47.10175" lon="5.27162">
        <ele>178.2998</ele>
        <time>2026-05-14T16:29:04+02:00</time>
      </trkpt>
      <trkpt lat="47.10173" lon="5.27168">
        <ele>178.2002</ele>
        <time>2026-05-14T16:29:05+02:00</time>
      </trkpt>
      <trkpt lat="47.10171" lon="5.27174">
        <ele>178.10059</ele>
        <time>2026-05-14T16:29:06+02:00</time>
      </trkpt>
      <trkpt lat="47.10169" lon="5.27181">
        <ele>178.10059</ele>
        <time>2026-05-14T16:29:07+02:00</time>
      </trkpt>
      <trkpt lat="47.10167" lon="5.27188">
        <ele>178.10059</ele>
        <time>2026-05-14T16:29:08+02:00</time>
      </trkpt>
      <trkpt lat="47.10166" lon="5.27195">
        <ele>178.10059</ele>
        <time>2026-05-14T16:29:09+02:00</time>
      </trkpt>
      <trkpt lat="47.10167" lon="5.27201">
        <ele>178.10059</ele>
        <time>2026-05-14T16:29:10+02:00</time>
      </trkpt>
      <trkpt lat="47.10167" lon="5.27208">
        <ele>178.10059</ele>
        <time>2026-05-14T16:29:11+02:00</time>
      </trkpt>
      <trkpt lat="47.10167" lon="5.27215">
        <ele>178.10059</ele>
        <time>2026-05-14T16:29:12+02:00</time>
      </trkpt>
      <trkpt lat="47.10168" lon="5.27221">
        <ele>178.10059</ele>
        <time>2026-05-14T16:29:13+02:00</time>
      </trkpt>
      <trkpt lat="47.10169" lon="5.27228">
        <ele>178.10059</ele>
        <time>2026-05-14T16:29:14+02:00</time>
      </trkpt>
      <trkpt lat="47.10169" lon="5.27236">
        <ele>178.10059</ele>
        <time>2026-05-14T16:29:15+02:00</time>
      </trkpt>
      <trkpt lat="47.1017" lon="5.27243">
        <ele>178.10059</ele>
        <time>2026-05-14T16:29:16+02:00</time>
      </trkpt>
      <trkpt lat="47.10172" lon="5.2725">
        <ele>178.10059</ele>
        <time>2026-05-14T16:29:17+02:00</time>
      </trkpt>
      <trkpt lat="47.10173" lon="5.27258">
        <ele>178.10059</ele>
        <time>2026-05-14T16:29:18+02:00</time>
      </trkpt>
      <trkpt lat="47.10174" lon="5.27265">
        <ele>178.10059</ele>
        <time>2026-05-14T16:29:19+02:00</time>
      </trkpt>
      <trkpt lat="47.10175" lon="5.27271">
        <ele>178.10059</ele>
        <time>2026-05-14T16:29:20+02:00</time>
      </trkpt>
      <trkpt lat="47.10176" lon="5.27276">
        <ele>178.10059</ele>
        <time>2026-05-14T16:29:21+02:00</time>
      </trkpt>
      <trkpt lat="47.10177" lon="5.27281">
        <ele>178.10059</ele>
        <time>2026-05-14T16:29:22+02:00</time>
      </trkpt>
      <trkpt lat="47.10177" lon="5.27286">
        <ele>178.10059</ele>
        <time>2026-05-14T16:29:23+02:00</time>
      </trkpt>
      <trkpt lat="47.10178" lon="5.27292">
        <ele>178.10059</ele>
        <time>2026-05-14T16:29:24+02:00</time>
      </trkpt>
      <trkpt lat="47.10179" lon="5.27298">
        <ele>178.10059</ele>
        <time>2026-05-14T16:29:25+02:00</time>
      </trkpt>
      <trkpt lat="47.1018" lon="5.27304">
        <ele>178.10059</ele>
        <time>2026-05-14T16:29:26+02:00</time>
      </trkpt>
      <trkpt lat="47.10181" lon="5.2731">
        <ele>178.10059</ele>
        <time>2026-05-14T16:29:27+02:00</time>
      </trkpt>
      <trkpt lat="47.10182" lon="5.27316">
        <ele>178.10059</ele>
        <time>2026-05-14T16:29:28+02:00</time>
      </trkpt>
      <trkpt lat="47.10183" lon="5.27322">
        <ele>178.10059</ele>
        <time>2026-05-14T16:29:29+02:00</time>
      </trkpt>
      <trkpt lat="47.10185" lon="5.27329">
        <ele>178.10059</ele>
        <time>2026-05-14T16:29:30+02:00</time>
      </trkpt>
      <trkpt lat="47.10186" lon="5.27335">
        <ele>178.10059</ele>
        <time>2026-05-14T16:29:31+02:00</time>
      </trkpt>
      <trkpt lat="47.10187" lon="5.27342">
        <ele>178.10059</ele>
        <time>2026-05-14T16:29:32+02:00</time>
      </trkpt>
      <trkpt lat="47.10188" lon="5.27349">
        <ele>178.10059</ele>
        <time>2026-05-14T16:29:33+02:00</time>
      </trkpt>
      <trkpt lat="47.10189" lon="5.27356">
        <ele>178.10059</ele>
        <time>2026-05-14T16:29:34+02:00</time>
      </trkpt>
      <trkpt lat="47.1019" lon="5.27364">
        <ele>178.10059</ele>
        <time>2026-05-14T16:29:35+02:00</time>
      </trkpt>
      <trkpt lat="47.10191" lon="5.27371">
        <ele>178.10059</ele>
        <time>2026-05-14T16:29:36+02:00</time>
      </trkpt>
      <trkpt lat="47.10193" lon="5.27378">
        <ele>178.10059</ele>
        <time>2026-05-14T16:29:37+02:00</time>
      </trkpt>
      <trkpt lat="47.10194" lon="5.27386">
        <ele>178.10059</ele>
        <time>2026-05-14T16:29:38+02:00</time>
      </trkpt>
      <trkpt lat="47.10195" lon="5.27394">
        <ele>178.10059</ele>
        <time>2026-05-14T16:29:39+02:00</time>
      </trkpt>
      <trkpt lat="47.10196" lon="5.27401">
        <ele>178.10059</ele>
        <time>2026-05-14T16:29:40+02:00</time>
      </trkpt>
      <trkpt lat="47.10198" lon="5.27409">
        <ele>178.10059</ele>
        <time>2026-05-14T16:29:41+02:00</time>
      </trkpt>
      <trkpt lat="47.10198" lon="5.27417">
        <ele>178.10059</ele>
        <time>2026-05-14T16:29:42+02:00</time>
      </trkpt>
      <trkpt lat="47.10199" lon="5.27424">
        <ele>178.10059</ele>
        <time>2026-05-14T16:29:43+02:00</time>
      </trkpt>
      <trkpt lat="47.10201" lon="5.27432">
        <ele>178.10059</ele>
        <time>2026-05-14T16:29:44+02:00</time>
      </trkpt>
      <trkpt lat="47.10201" lon="5.27439">
        <ele>178.10059</ele>
        <time>2026-05-14T16:29:45+02:00</time>
      </trkpt>
      <trkpt lat="47.10203" lon="5.27446">
        <ele>178.10059</ele>
        <time>2026-05-14T16:29:46+02:00</time>
      </trkpt>
      <trkpt lat="47.10204" lon="5.27452">
        <ele>178.10059</ele>
        <time>2026-05-14T16:29:47+02:00</time>
      </trkpt>
      <trkpt lat="47.10204" lon="5.27459">
        <ele>178.10059</ele>
        <time>2026-05-14T16:29:48+02:00</time>
      </trkpt>
      <trkpt lat="47.10205" lon="5.27465">
        <ele>178.10059</ele>
        <time>2026-05-14T16:29:49+02:00</time>
      </trkpt>
      <trkpt lat="47.10206" lon="5.27471">
        <ele>178.10059</ele>
        <time>2026-05-14T16:29:50+02:00</time>
      </trkpt>
      <trkpt lat="47.10207" lon="5.27478">
        <ele>178.10059</ele>
        <time>2026-05-14T16:29:51+02:00</time>
      </trkpt>
      <trkpt lat="47.10207" lon="5.27484">
        <ele>178.10059</ele>
        <time>2026-05-14T16:29:52+02:00</time>
      </trkpt>
      <trkpt lat="47.10208" lon="5.2749">
        <ele>178.10059</ele>
        <time>2026-05-14T16:29:53+02:00</time>
      </trkpt>
      <trkpt lat="47.10209" lon="5.27496">
        <ele>178.10059</ele>
        <time>2026-05-14T16:29:54+02:00</time>
      </trkpt>
      <trkpt lat="47.1021" lon="5.27502">
        <ele>178.10059</ele>
        <time>2026-05-14T16:29:55+02:00</time>
      </trkpt>
      <trkpt lat="47.10211" lon="5.27508">
        <ele>178.10059</ele>
        <time>2026-05-14T16:29:56+02:00</time>
      </trkpt>
      <trkpt lat="47.10211" lon="5.27513">
        <ele>178.10059</ele>
        <time>2026-05-14T16:29:57+02:00</time>
      </trkpt>
      <trkpt lat="47.10212" lon="5.27519">
        <ele>178.10059</ele>
        <time>2026-05-14T16:29:58+02:00</time>
      </trkpt>
      <trkpt lat="47.10213" lon="5.27524">
        <ele>178.10059</ele>
        <time>2026-05-14T16:29:59+02:00</time>
      </trkpt>
      <trkpt lat="47.10214" lon="5.27529">
        <ele>178.10059</ele>
        <time>2026-05-14T16:30:00+02:00</time>
      </trkpt>
      <trkpt lat="47.10214" lon="5.27534">
        <ele>178.10059</ele>
        <time>2026-05-14T16:30:01+02:00</time>
      </trkpt>
      <trkpt lat="47.10215" lon="5.27538">
        <ele>178.10059</ele>
        <time>2026-05-14T16:30:02+02:00</time>
      </trkpt>
      <trkpt lat="47.10216" lon="5.27543">
        <ele>178.10059</ele>
        <time>2026-05-14T16:30:03+02:00</time>
      </trkpt>
      <trkpt lat="47.10216" lon="5.27547">
        <ele>178.10059</ele>
        <time>2026-05-14T16:30:04+02:00</time>
      </trkpt>
      <trkpt lat="47.10217" lon="5.27551">
        <ele>178.10059</ele>
        <time>2026-05-14T16:30:05+02:00</time>
      </trkpt>
      <trkpt lat="47.10217" lon="5.27555">
        <ele>178.10059</ele>
        <time>2026-05-14T16:30:06+02:00</time>
      </trkpt>
      <trkpt lat="47.10218" lon="5.27558">
        <ele>178.10059</ele>
        <time>2026-05-14T16:30:07+02:00</time>
      </trkpt>
      <trkpt lat="47.10219" lon="5.27561">
        <ele>178.10059</ele>
        <time>2026-05-14T16:30:08+02:00</time>
      </trkpt>
      <trkpt lat="47.10219" lon="5.27564">
        <ele>178.10059</ele>
        <time>2026-05-14T16:30:09+02:00</time>
      </trkpt>
      <trkpt lat="47.10219" lon="5.27566">
        <ele>178.10059</ele>
        <time>2026-05-14T16:30:10+02:00</time>
      </trkpt>
      <trkpt lat="47.10219" lon="5.27566">
        <ele>178.10059</ele>
        <time>2026-05-14T16:30:11+02:00</time>
      </trkpt>
      <trkpt lat="47.10219" lon="5.27566">
        <ele>178.10059</ele>
        <time>2026-05-14T16:30:12+02:00</time>
      </trkpt>
      <trkpt lat="47.10219" lon="5.27566">
        <ele>178.10059</ele>
        <time>2026-05-14T16:30:13+02:00</time>
      </trkpt>
      <trkpt lat="47.10219" lon="5.27566">
        <ele>178.10059</ele>
        <time>2026-05-14T16:30:14+02:00</time>
      </trkpt>
    </trkseg>
  </trk>
</gpx>